<?xml version='1.0' encoding='UTF-8'?><gpx version="1.1" creator="JPX - https://github.com/jenetics/jpx" xmlns="http://www.topografix.com/GPX/1/1"><trk><trkseg><trkpt lat="46.5769774" lon="12.38764"><ele>935.0000000000001</ele><time>2026-04-26T14:46:10.928Z</time></trkpt><trkpt lat="46.5770201" lon="12.3875658"><ele>935.0</ele><time>2026-04-26T14:46:13.934Z</time></trkpt><trkpt lat="46.577008" lon="12.3874515"><ele>935.0</ele><time>2026-04-26T14:46:15.937Z</time></trkpt><trkpt lat="46.5769568" lon="12.3873663"><ele>935.0</ele><time>2026-04-26T14:46:16.934Z</time></trkpt><trkpt lat="46.5769002" lon="12.3873025"><ele>935.0000000000001</ele><time>2026-04-26T14:46:17.926Z</time></trkpt><trkpt lat="46.5768268" lon="12.3872386"><ele>935.0</ele><time>2026-04-26T14:46:18.932Z</time></trkpt><trkpt lat="46.5767519" lon="12.38717"><ele>934.4</ele><time>2026-04-26T14:46:19.926Z</time></trkpt><trkpt lat="46.5766748" lon="12.3870989"><ele>933.8</ele><time>2026-04-26T14:46:20.929Z</time></trkpt><trkpt lat="46.5765937" lon="12.3870327"><ele>933.2</ele><time>2026-04-26T14:46:21.923Z</time></trkpt><trkpt lat="46.5765157" lon="12.386971"><ele>932.6</ele><time>2026-04-26T14:46:22.93Z</time></trkpt><trkpt lat="46.5764435" lon="12.3869053"><ele>932.0</ele><time>2026-04-26T14:46:23.927Z</time></trkpt><trkpt lat="46.5763524" lon="12.3868446"><ele>932.0</ele><time>2026-04-26T14:46:24.934Z</time></trkpt><trkpt lat="46.5762612" lon="12.3867748"><ele>932.0</ele><time>2026-04-26T14:46:25.928Z</time></trkpt><trkpt lat="46.576179" lon="12.3867098"><ele>932.0</ele><time>2026-04-26T14:46:26.928Z</time></trkpt><trkpt lat="46.5761077" lon="12.3866398"><ele>932.0</ele><time>2026-04-26T14:46:27.925Z</time></trkpt><trkpt lat="46.5760296" lon="12.3865478"><ele>932.0</ele><time>2026-04-26T14:46:29.933Z</time></trkpt><trkpt lat="46.5759585" lon="12.3865017"><ele>930.2</ele><time>2026-04-26T14:46:35.929Z</time></trkpt><trkpt lat="46.5758863" lon="12.3865406"><ele>928.4000000000001</ele><time>2026-04-26T14:46:36.93Z</time></trkpt><trkpt lat="46.575823" lon="12.3865986"><ele>926.5999999999999</ele><time>2026-04-26T14:46:37.939Z</time></trkpt><trkpt lat="46.5757584" lon="12.3866709"><ele>924.8</ele><time>2026-04-26T14:46:38.935Z</time></trkpt><trkpt lat="46.575681" lon="12.3867842"><ele>923.0</ele><time>2026-04-26T14:46:39.935Z</time></trkpt><trkpt lat="46.5755969" lon="12.386897"><ele>923.0</ele><time>2026-04-26T14:46:40.93Z</time></trkpt><trkpt lat="46.575516" lon="12.3870247"><ele>923.0</ele><time>2026-04-26T14:46:41.933Z</time></trkpt><trkpt lat="46.5754457" lon="12.3871653"><ele>923.0</ele><time>2026-04-26T14:46:42.936Z</time></trkpt><trkpt lat="46.5753768" lon="12.3873679"><ele>923.0</ele><time>2026-04-26T14:46:43.93Z</time></trkpt><trkpt lat="46.5753221" lon="12.3875871"><ele>922.3333333333334</ele><time>2026-04-26T14:46:44.93Z</time></trkpt><trkpt lat="46.5752871" lon="12.3878172"><ele>921.6666666666667</ele><time>2026-04-26T14:46:45.935Z</time></trkpt><trkpt lat="46.5752691" lon="12.3880827"><ele>921.0</ele><time>2026-04-26T14:46:46.929Z</time></trkpt><trkpt lat="46.5752587" lon="12.3883629"><ele>920.3333333333333</ele><time>2026-04-26T14:46:47.943Z</time></trkpt><trkpt lat="46.5752577" lon="12.3886255"><ele>919.6666666666666</ele><time>2026-04-26T14:46:48.926Z</time></trkpt><trkpt lat="46.5752585" lon="12.388899"><ele>919.0</ele><time>2026-04-26T14:46:49.926Z</time></trkpt><trkpt lat="46.5752645" lon="12.3891662"><ele>919.0</ele><time>2026-04-26T14:46:50.921Z</time></trkpt><trkpt lat="46.5752697" lon="12.3894437"><ele>919.0</ele><time>2026-04-26T14:46:51.94Z</time></trkpt><trkpt lat="46.5752671" lon="12.3897099"><ele>919.0</ele><time>2026-04-26T14:46:52.92Z</time></trkpt><trkpt lat="46.575263" lon="12.3899815"><ele>916.3333333333333</ele><time>2026-04-26T14:46:53.927Z</time></trkpt><trkpt lat="46.5752561" lon="12.3902412"><ele>913.6666666666667</ele><time>2026-04-26T14:46:54.936Z</time></trkpt><trkpt lat="46.5752292" lon="12.3904986"><ele>911.0</ele><time>2026-04-26T14:46:55.928Z</time></trkpt><trkpt lat="46.5751797" lon="12.3907479"><ele>911.0</ele><time>2026-04-26T14:46:56.927Z</time></trkpt><trkpt lat="46.5751086" lon="12.3909812"><ele>911.0</ele><time>2026-04-26T14:46:57.926Z</time></trkpt><trkpt lat="46.5750189" lon="12.391211"><ele>911.0</ele><time>2026-04-26T14:46:58.923Z</time></trkpt><trkpt lat="46.5749134" lon="12.3914283"><ele>913.0</ele><time>2026-04-26T14:46:59.931Z</time></trkpt><trkpt lat="46.5748039" lon="12.3916461"><ele>915.0</ele><time>2026-04-26T14:47:00.927Z</time></trkpt><trkpt lat="46.5746991" lon="12.391864"><ele>917.0</ele><time>2026-04-26T14:47:01.924Z</time></trkpt><trkpt lat="46.5745817" lon="12.3920859"><ele>913.0</ele><time>2026-04-26T14:47:02.932Z</time></trkpt><trkpt lat="46.5744661" lon="12.3923123"><ele>909.0</ele><time>2026-04-26T14:47:03.937Z</time></trkpt><trkpt lat="46.5743532" lon="12.3925404"><ele>905.0</ele><time>2026-04-26T14:47:04.93Z</time></trkpt><trkpt lat="46.5742378" lon="12.3927741"><ele>906.3333333333334</ele><time>2026-04-26T14:47:05.941Z</time></trkpt><trkpt lat="46.5741175" lon="12.393006"><ele>907.6666666666667</ele><time>2026-04-26T14:47:06.937Z</time></trkpt><trkpt lat="46.5739941" lon="12.3932359"><ele>909.0</ele><time>2026-04-26T14:47:07.941Z</time></trkpt><trkpt lat="46.5738716" lon="12.393469"><ele>909.0</ele><time>2026-04-26T14:47:08.94Z</time></trkpt><trkpt lat="46.57375" lon="12.3937088"><ele>909.0</ele><time>2026-04-26T14:47:09.94Z</time></trkpt><trkpt lat="46.5736327" lon="12.3939462"><ele>909.0</ele><time>2026-04-26T14:47:10.939Z</time></trkpt><trkpt lat="46.5735133" lon="12.3941851"><ele>908.6666666666667</ele><time>2026-04-26T14:47:11.932Z</time></trkpt><trkpt lat="46.5733923" lon="12.3944245"><ele>908.3333333333334</ele><time>2026-04-26T14:47:12.931Z</time></trkpt><trkpt lat="46.5732695" lon="12.3946631"><ele>908.0</ele><time>2026-04-26T14:47:13.937Z</time></trkpt><trkpt lat="46.5731439" lon="12.3949059"><ele>908.0</ele><time>2026-04-26T14:47:14.934Z</time></trkpt><trkpt lat="46.5730178" lon="12.3951455"><ele>908.0</ele><time>2026-04-26T14:47:15.928Z</time></trkpt><trkpt lat="46.5728976" lon="12.3953955"><ele>908.0</ele><time>2026-04-26T14:47:16.931Z</time></trkpt><trkpt lat="46.5727715" lon="12.3956405"><ele>907.6666666666667</ele><time>2026-04-26T14:47:17.931Z</time></trkpt><trkpt lat="46.5726479" lon="12.3958863"><ele>907.3333333333333</ele><time>2026-04-26T14:47:18.938Z</time></trkpt><trkpt lat="46.5725211" lon="12.3961365"><ele>907.0</ele><time>2026-04-26T14:47:19.932Z</time></trkpt><trkpt lat="46.5723913" lon="12.3963887"><ele>907.0</ele><time>2026-04-26T14:47:20.933Z</time></trkpt><trkpt lat="46.5722687" lon="12.3966392"><ele>907.0</ele><time>2026-04-26T14:47:21.937Z</time></trkpt><trkpt lat="46.5721396" lon="12.396894"><ele>907.0</ele><time>2026-04-26T14:47:22.935Z</time></trkpt><trkpt lat="46.5720078" lon="12.3971456"><ele>904.0</ele><time>2026-04-26T14:47:23.936Z</time></trkpt><trkpt lat="46.5718746" lon="12.3973896"><ele>901.0</ele><time>2026-04-26T14:47:24.942Z</time></trkpt><trkpt lat="46.5717269" lon="12.3976177"><ele>898.0</ele><time>2026-04-26T14:47:25.922Z</time></trkpt><trkpt lat="46.571569" lon="12.3978414"><ele>897.0</ele><time>2026-04-26T14:47:26.93Z</time></trkpt><trkpt lat="46.5714113" lon="12.3980597"><ele>896.0</ele><time>2026-04-26T14:47:27.937Z</time></trkpt><trkpt lat="46.5712515" lon="12.3982871"><ele>895.0</ele><time>2026-04-26T14:47:28.935Z</time></trkpt><trkpt lat="46.5710923" lon="12.3985218"><ele>895.0</ele><time>2026-04-26T14:47:29.935Z</time></trkpt><trkpt lat="46.570933" lon="12.3987541"><ele>895.0</ele><time>2026-04-26T14:47:30.929Z</time></trkpt><trkpt lat="46.5707731" lon="12.3989766"><ele>895.0</ele><time>2026-04-26T14:47:31.935Z</time></trkpt><trkpt lat="46.5706142" lon="12.3992033"><ele>896.3333333333333</ele><time>2026-04-26T14:47:32.939Z</time></trkpt><trkpt lat="46.5704446" lon="12.3994152"><ele>897.6666666666667</ele><time>2026-04-26T14:47:33.933Z</time></trkpt><trkpt lat="46.5702702" lon="12.3996059"><ele>899.0</ele><time>2026-04-26T14:47:34.947Z</time></trkpt><trkpt lat="46.5700905" lon="12.3997846"><ele>900.3333333333334</ele><time>2026-04-26T14:47:35.939Z</time></trkpt><trkpt lat="46.5699028" lon="12.3999537"><ele>901.6666666666667</ele><time>2026-04-26T14:47:36.936Z</time></trkpt><trkpt lat="46.5697178" lon="12.4001231"><ele>903.0</ele><time>2026-04-26T14:47:37.928Z</time></trkpt><trkpt lat="46.5695359" lon="12.4002969"><ele>902.6666666666667</ele><time>2026-04-26T14:47:38.93Z</time></trkpt><trkpt lat="46.5693561" lon="12.4004693"><ele>902.3333333333334</ele><time>2026-04-26T14:47:39.941Z</time></trkpt><trkpt lat="46.569184" lon="12.4006478"><ele>902.0</ele><time>2026-04-26T14:47:40.944Z</time></trkpt><trkpt lat="46.5690182" lon="12.4008339"><ele>902.0</ele><time>2026-04-26T14:47:41.939Z</time></trkpt><trkpt lat="46.5688622" lon="12.4010341"><ele>902.0</ele><time>2026-04-26T14:47:42.941Z</time></trkpt><trkpt lat="46.5687171" lon="12.4012453"><ele>902.0</ele><time>2026-04-26T14:47:43.927Z</time></trkpt><trkpt lat="46.5685809" lon="12.4014736"><ele>902.0</ele><time>2026-04-26T14:47:44.93Z</time></trkpt><trkpt lat="46.5684541" lon="12.401724"><ele>902.0</ele><time>2026-04-26T14:47:45.933Z</time></trkpt><trkpt lat="46.5683387" lon="12.4019872"><ele>902.0</ele><time>2026-04-26T14:47:46.929Z</time></trkpt><trkpt lat="46.5682267" lon="12.4022608"><ele>902.0</ele><time>2026-04-26T14:47:47.934Z</time></trkpt><trkpt lat="46.5681159" lon="12.4025405"><ele>902.0</ele><time>2026-04-26T14:47:48.94Z</time></trkpt><trkpt lat="46.5680052" lon="12.4028162"><ele>902.0</ele><time>2026-04-26T14:47:49.939Z</time></trkpt><trkpt lat="46.5679013" lon="12.4030804"><ele>900.0</ele><time>2026-04-26T14:47:50.934Z</time></trkpt><trkpt lat="46.5677937" lon="12.4033509"><ele>898.0</ele><time>2026-04-26T14:47:51.927Z</time></trkpt><trkpt lat="46.5676926" lon="12.4036088"><ele>896.0</ele><time>2026-04-26T14:47:52.934Z</time></trkpt><trkpt lat="46.5675974" lon="12.4038473"><ele>896.0</ele><time>2026-04-26T14:47:53.935Z</time></trkpt><trkpt lat="46.5674998" lon="12.4040684"><ele>896.0</ele><time>2026-04-26T14:47:54.937Z</time></trkpt><trkpt lat="46.56741" lon="12.4042977"><ele>896.0</ele><time>2026-04-26T14:47:55.931Z</time></trkpt><trkpt lat="46.5673195" lon="12.4045316"><ele>897.3333333333334</ele><time>2026-04-26T14:47:56.934Z</time></trkpt><trkpt lat="46.5672279" lon="12.4047716"><ele>898.6666666666667</ele><time>2026-04-26T14:47:57.944Z</time></trkpt><trkpt lat="46.5671322" lon="12.4050081"><ele>900.0</ele><time>2026-04-26T14:47:58.936Z</time></trkpt><trkpt lat="46.5670351" lon="12.4052587"><ele>897.3333333333333</ele><time>2026-04-26T14:47:59.933Z</time></trkpt><trkpt lat="46.5669383" lon="12.4055057"><ele>894.6666666666666</ele><time>2026-04-26T14:48:00.938Z</time></trkpt><trkpt lat="46.5668402" lon="12.4057591"><ele>892.0</ele><time>2026-04-26T14:48:01.935Z</time></trkpt><trkpt lat="46.5667372" lon="12.4060136"><ele>892.0</ele><time>2026-04-26T14:48:02.937Z</time></trkpt><trkpt lat="46.566622" lon="12.4062685"><ele>892.0</ele><time>2026-04-26T14:48:03.936Z</time></trkpt><trkpt lat="46.5664962" lon="12.4065109"><ele>892.0</ele><time>2026-04-26T14:48:04.934Z</time></trkpt><trkpt lat="46.5663635" lon="12.4067554"><ele>892.6666666666666</ele><time>2026-04-26T14:48:05.931Z</time></trkpt><trkpt lat="46.5662317" lon="12.4069974"><ele>893.3333333333333</ele><time>2026-04-26T14:48:06.931Z</time></trkpt><trkpt lat="46.5661024" lon="12.4072488"><ele>894.0</ele><time>2026-04-26T14:48:07.946Z</time></trkpt><trkpt lat="46.5659763" lon="12.4074999"><ele>892.6666666666667</ele><time>2026-04-26T14:48:08.937Z</time></trkpt><trkpt lat="46.5658483" lon="12.407737"><ele>891.3333333333334</ele><time>2026-04-26T14:48:09.935Z</time></trkpt><trkpt lat="46.5657268" lon="12.4079758"><ele>890.0</ele><time>2026-04-26T14:48:10.931Z</time></trkpt><trkpt lat="46.5656026" lon="12.4082164"><ele>890.0</ele><time>2026-04-26T14:48:11.93Z</time></trkpt><trkpt lat="46.5654812" lon="12.4084512"><ele>890.0</ele><time>2026-04-26T14:48:12.927Z</time></trkpt><trkpt lat="46.5653564" lon="12.4086834"><ele>890.0</ele><time>2026-04-26T14:48:13.939Z</time></trkpt><trkpt lat="46.5652345" lon="12.4089186"><ele>887.3333333333334</ele><time>2026-04-26T14:48:14.939Z</time></trkpt><trkpt lat="46.5651115" lon="12.4091497"><ele>884.6666666666667</ele><time>2026-04-26T14:48:15.925Z</time></trkpt><trkpt lat="46.5649888" lon="12.4093817"><ele>882.0</ele><time>2026-04-26T14:48:16.933Z</time></trkpt><trkpt lat="46.5648677" lon="12.4096176"><ele>883.0</ele><time>2026-04-26T14:48:17.935Z</time></trkpt><trkpt lat="46.564748" lon="12.4098533"><ele>884.0</ele><time>2026-04-26T14:48:18.933Z</time></trkpt><trkpt lat="46.5646274" lon="12.4100868"><ele>885.0</ele><time>2026-04-26T14:48:19.933Z</time></trkpt><trkpt lat="46.5645019" lon="12.4103286"><ele>883.0</ele><time>2026-04-26T14:48:20.938Z</time></trkpt><trkpt lat="46.5643832" lon="12.4105706"><ele>881.0</ele><time>2026-04-26T14:48:21.936Z</time></trkpt><trkpt lat="46.5642669" lon="12.4108178"><ele>879.0</ele><time>2026-04-26T14:48:22.933Z</time></trkpt><trkpt lat="46.5641501" lon="12.4110658"><ele>879.0</ele><time>2026-04-26T14:48:23.931Z</time></trkpt><trkpt lat="46.5640314" lon="12.4113127"><ele>879.0</ele><time>2026-04-26T14:48:24.931Z</time></trkpt><trkpt lat="46.5639107" lon="12.4115695"><ele>879.0</ele><time>2026-04-26T14:48:25.934Z</time></trkpt><trkpt lat="46.5637912" lon="12.4118236"><ele>877.3333333333333</ele><time>2026-04-26T14:48:26.929Z</time></trkpt><trkpt lat="46.5636734" lon="12.412074"><ele>875.6666666666666</ele><time>2026-04-26T14:48:27.935Z</time></trkpt><trkpt lat="46.5635559" lon="12.4123165"><ele>874.0</ele><time>2026-04-26T14:48:28.93Z</time></trkpt><trkpt lat="46.563447" lon="12.412554"><ele>874.0</ele><time>2026-04-26T14:48:29.935Z</time></trkpt><trkpt lat="46.5633386" lon="12.4127861"><ele>874.0</ele><time>2026-04-26T14:48:30.938Z</time></trkpt><trkpt lat="46.5632296" lon="12.4130138"><ele>874.0</ele><time>2026-04-26T14:48:31.931Z</time></trkpt><trkpt lat="46.5631196" lon="12.4132464"><ele>874.6666666666666</ele><time>2026-04-26T14:48:32.927Z</time></trkpt><trkpt lat="46.5630102" lon="12.4134801"><ele>875.3333333333333</ele><time>2026-04-26T14:48:33.926Z</time></trkpt><trkpt lat="46.5628985" lon="12.4137206"><ele>876.0</ele><time>2026-04-26T14:48:34.934Z</time></trkpt><trkpt lat="46.562787" lon="12.4139582"><ele>874.3333333333333</ele><time>2026-04-26T14:48:35.932Z</time></trkpt><trkpt lat="46.5626746" lon="12.4141791"><ele>872.6666666666666</ele><time>2026-04-26T14:48:36.942Z</time></trkpt><trkpt lat="46.5625673" lon="12.4144167"><ele>871.0</ele><time>2026-04-26T14:48:37.924Z</time></trkpt><trkpt lat="46.5624672" lon="12.4146538"><ele>871.0</ele><time>2026-04-26T14:48:38.933Z</time></trkpt><trkpt lat="46.562379" lon="12.4149019"><ele>871.0</ele><time>2026-04-26T14:48:39.933Z</time></trkpt><trkpt lat="46.5623057" lon="12.4151656"><ele>871.0</ele><time>2026-04-26T14:48:40.935Z</time></trkpt><trkpt lat="46.5622542" lon="12.4154497"><ele>871.6666666666666</ele><time>2026-04-26T14:48:41.933Z</time></trkpt><trkpt lat="46.5622142" lon="12.4157479"><ele>872.3333333333333</ele><time>2026-04-26T14:48:42.926Z</time></trkpt><trkpt lat="46.5621836" lon="12.4160449"><ele>873.0</ele><time>2026-04-26T14:48:43.925Z</time></trkpt><trkpt lat="46.5621547" lon="12.4163198"><ele>873.3333333333333</ele><time>2026-04-26T14:48:44.937Z</time></trkpt><trkpt lat="46.5621255" lon="12.4165699"><ele>873.6666666666666</ele><time>2026-04-26T14:48:45.926Z</time></trkpt><trkpt lat="46.5620948" lon="12.416811"><ele>874.0</ele><time>2026-04-26T14:48:46.932Z</time></trkpt><trkpt lat="46.5620654" lon="12.4170547"><ele>874.3333333333333</ele><time>2026-04-26T14:48:47.937Z</time></trkpt><trkpt lat="46.5620379" lon="12.4172959"><ele>874.6666666666667</ele><time>2026-04-26T14:48:48.943Z</time></trkpt><trkpt lat="46.5620014" lon="12.4175443"><ele>875.0</ele><time>2026-04-26T14:48:49.922Z</time></trkpt><trkpt lat="46.5619485" lon="12.4177892"><ele>873.6666666666667</ele><time>2026-04-26T14:48:50.942Z</time></trkpt><trkpt lat="46.5618755" lon="12.4180277"><ele>872.3333333333333</ele><time>2026-04-26T14:48:51.931Z</time></trkpt><trkpt lat="46.5617874" lon="12.4182623"><ele>871.0</ele><time>2026-04-26T14:48:52.928Z</time></trkpt><trkpt lat="46.5616903" lon="12.4184902"><ele>871.0</ele><time>2026-04-26T14:48:53.948Z</time></trkpt><trkpt lat="46.5615751" lon="12.4187098"><ele>871.0</ele><time>2026-04-26T14:48:54.939Z</time></trkpt><trkpt lat="46.5614416" lon="12.4189219"><ele>871.0</ele><time>2026-04-26T14:48:55.935Z</time></trkpt><trkpt lat="46.5612998" lon="12.4191153"><ele>869.6666666666666</ele><time>2026-04-26T14:48:56.953Z</time></trkpt><trkpt lat="46.5611459" lon="12.4193122"><ele>868.3333333333333</ele><time>2026-04-26T14:48:57.93Z</time></trkpt><trkpt lat="46.5609925" lon="12.4194997"><ele>867.0</ele><time>2026-04-26T14:48:58.929Z</time></trkpt><trkpt lat="46.5608441" lon="12.4196814"><ele>869.6666666666667</ele><time>2026-04-26T14:48:59.934Z</time></trkpt><trkpt lat="46.5607038" lon="12.4198621"><ele>872.3333333333334</ele><time>2026-04-26T14:49:00.935Z</time></trkpt><trkpt lat="46.5605795" lon="12.4200429"><ele>875.0</ele><time>2026-04-26T14:49:01.929Z</time></trkpt><trkpt lat="46.5604734" lon="12.4202542"><ele>875.0</ele><time>2026-04-26T14:49:02.934Z</time></trkpt><trkpt lat="46.5603674" lon="12.4204775"><ele>875.0</ele><time>2026-04-26T14:49:03.935Z</time></trkpt><trkpt lat="46.5602608" lon="12.420702"><ele>875.0</ele><time>2026-04-26T14:49:04.947Z</time></trkpt><trkpt lat="46.5601472" lon="12.4209225"><ele>873.6666666666667</ele><time>2026-04-26T14:49:05.94Z</time></trkpt><trkpt lat="46.5600178" lon="12.4211164"><ele>872.3333333333333</ele><time>2026-04-26T14:49:06.934Z</time></trkpt><trkpt lat="46.5598786" lon="12.4212956"><ele>871.0</ele><time>2026-04-26T14:49:07.931Z</time></trkpt><trkpt lat="46.5597354" lon="12.4214621"><ele>869.6666666666666</ele><time>2026-04-26T14:49:08.927Z</time></trkpt><trkpt lat="46.5595992" lon="12.4216339"><ele>868.3333333333333</ele><time>2026-04-26T14:49:09.935Z</time></trkpt><trkpt lat="46.5594602" lon="12.4218152"><ele>867.0</ele><time>2026-04-26T14:49:10.934Z</time></trkpt><trkpt lat="46.5593229" lon="12.4220122"><ele>870.0</ele><time>2026-04-26T14:49:11.936Z</time></trkpt><trkpt lat="46.5591917" lon="12.4222289"><ele>873.0</ele><time>2026-04-26T14:49:12.946Z</time></trkpt><trkpt lat="46.5590653" lon="12.4224488"><ele>876.0</ele><time>2026-04-26T14:49:13.935Z</time></trkpt><trkpt lat="46.5589386" lon="12.4226639"><ele>876.0</ele><time>2026-04-26T14:49:14.937Z</time></trkpt><trkpt lat="46.5588114" lon="12.422879"><ele>876.0</ele><time>2026-04-26T14:49:15.929Z</time></trkpt><trkpt lat="46.5586842" lon="12.4230899"><ele>876.0</ele><time>2026-04-26T14:49:16.928Z</time></trkpt><trkpt lat="46.5585654" lon="12.423299"><ele>875.0</ele><time>2026-04-26T14:49:17.932Z</time></trkpt><trkpt lat="46.5584498" lon="12.4234972"><ele>874.0</ele><time>2026-04-26T14:49:18.927Z</time></trkpt><trkpt lat="46.5583357" lon="12.4236954"><ele>873.0</ele><time>2026-04-26T14:49:19.928Z</time></trkpt><trkpt lat="46.558235" lon="12.4238969"><ele>873.0</ele><time>2026-04-26T14:49:20.933Z</time></trkpt><trkpt lat="46.5581582" lon="12.4241248"><ele>873.0</ele><time>2026-04-26T14:49:21.931Z</time></trkpt><trkpt lat="46.558097" lon="12.4243653"><ele>873.0</ele><time>2026-04-26T14:49:22.935Z</time></trkpt><trkpt lat="46.5580497" lon="12.4246151"><ele>874.3333333333333</ele><time>2026-04-26T14:49:23.932Z</time></trkpt><trkpt lat="46.5580027" lon="12.4248869"><ele>875.6666666666666</ele><time>2026-04-26T14:49:24.925Z</time></trkpt><trkpt lat="46.5579531" lon="12.4251396"><ele>877.0</ele><time>2026-04-26T14:49:25.93Z</time></trkpt><trkpt lat="46.5579054" lon="12.425381"><ele>873.6666666666666</ele><time>2026-04-26T14:49:26.935Z</time></trkpt><trkpt lat="46.557863" lon="12.4256067"><ele>870.3333333333333</ele><time>2026-04-26T14:49:27.931Z</time></trkpt><trkpt lat="46.5578218" lon="12.4258368"><ele>867.0</ele><time>2026-04-26T14:49:28.938Z</time></trkpt><trkpt lat="46.5577732" lon="12.4260678"><ele>867.0</ele><time>2026-04-26T14:49:29.937Z</time></trkpt><trkpt lat="46.5577263" lon="12.4262929"><ele>867.0</ele><time>2026-04-26T14:49:30.943Z</time></trkpt><trkpt lat="46.5576833" lon="12.4265062"><ele>867.0</ele><time>2026-04-26T14:49:31.941Z</time></trkpt><trkpt lat="46.5576442" lon="12.4267159"><ele>867.0</ele><time>2026-04-26T14:49:32.941Z</time></trkpt><trkpt lat="46.5576028" lon="12.4269208"><ele>867.0</ele><time>2026-04-26T14:49:33.945Z</time></trkpt><trkpt lat="46.5575613" lon="12.4271185"><ele>867.0</ele><time>2026-04-26T14:49:34.932Z</time></trkpt><trkpt lat="46.5575104" lon="12.4273023"><ele>867.0</ele><time>2026-04-26T14:49:35.935Z</time></trkpt><trkpt lat="46.5574457" lon="12.4274769"><ele>867.0</ele><time>2026-04-26T14:49:36.926Z</time></trkpt><trkpt lat="46.5573626" lon="12.4276434"><ele>867.0</ele><time>2026-04-26T14:49:37.928Z</time></trkpt><trkpt lat="46.5572598" lon="12.4277883"><ele>867.0</ele><time>2026-04-26T14:49:38.931Z</time></trkpt><trkpt lat="46.5571253" lon="12.4279039"><ele>867.0</ele><time>2026-04-26T14:49:39.943Z</time></trkpt><trkpt lat="46.5569694" lon="12.4279936"><ele>866.3333333333333</ele><time>2026-04-26T14:49:40.931Z</time></trkpt><trkpt lat="46.5568014" lon="12.4280721"><ele>865.6666666666666</ele><time>2026-04-26T14:49:41.935Z</time></trkpt><trkpt lat="46.5566356" lon="12.4281665"><ele>865.0</ele><time>2026-04-26T14:49:42.925Z</time></trkpt><trkpt lat="46.5564555" lon="12.4282549"><ele>865.0</ele><time>2026-04-26T14:49:43.928Z</time></trkpt><trkpt lat="46.5562744" lon="12.4283367"><ele>865.0</ele><time>2026-04-26T14:49:44.937Z</time></trkpt><trkpt lat="46.556098" lon="12.4284117"><ele>865.0</ele><time>2026-04-26T14:49:45.935Z</time></trkpt><trkpt lat="46.5559323" lon="12.4284888"><ele>864.3333333333333</ele><time>2026-04-26T14:49:46.926Z</time></trkpt><trkpt lat="46.5557661" lon="12.4285632"><ele>863.6666666666667</ele><time>2026-04-26T14:49:47.925Z</time></trkpt><trkpt lat="46.5556025" lon="12.4286443"><ele>863.0</ele><time>2026-04-26T14:49:48.937Z</time></trkpt><trkpt lat="46.5554481" lon="12.4287293"><ele>863.6666666666667</ele><time>2026-04-26T14:49:49.934Z</time></trkpt><trkpt lat="46.5553063" lon="12.4288312"><ele>864.3333333333333</ele><time>2026-04-26T14:49:50.935Z</time></trkpt><trkpt lat="46.555166" lon="12.4289542"><ele>865.0</ele><time>2026-04-26T14:49:51.938Z</time></trkpt><trkpt lat="46.5550288" lon="12.4290837"><ele>865.0</ele><time>2026-04-26T14:49:52.937Z</time></trkpt><trkpt lat="46.5548864" lon="12.4292054"><ele>865.0</ele><time>2026-04-26T14:49:53.935Z</time></trkpt><trkpt lat="46.5547403" lon="12.4293263"><ele>865.0</ele><time>2026-04-26T14:49:54.938Z</time></trkpt><trkpt lat="46.5545935" lon="12.4294381"><ele>864.75</ele><time>2026-04-26T14:49:55.923Z</time></trkpt><trkpt lat="46.554454" lon="12.4295551"><ele>864.5</ele><time>2026-04-26T14:49:56.945Z</time></trkpt><trkpt lat="46.5543218" lon="12.429655"><ele>864.25</ele><time>2026-04-26T14:49:57.933Z</time></trkpt><trkpt lat="46.5542019" lon="12.4297556"><ele>864.0</ele><time>2026-04-26T14:49:58.94Z</time></trkpt><trkpt lat="46.5540936" lon="12.4298705"><ele>864.0</ele><time>2026-04-26T14:49:59.931Z</time></trkpt><trkpt lat="46.5539988" lon="12.4300324"><ele>864.0</ele><time>2026-04-26T14:50:00.933Z</time></trkpt><trkpt lat="46.5539328" lon="12.4302124"><ele>864.0</ele><time>2026-04-26T14:50:01.93Z</time></trkpt><trkpt lat="46.5538595" lon="12.4304134"><ele>864.0</ele><time>2026-04-26T14:50:02.933Z</time></trkpt><trkpt lat="46.5537803" lon="12.430605"><ele>863.25</ele><time>2026-04-26T14:50:03.939Z</time></trkpt><trkpt lat="46.5537079" lon="12.4307799"><ele>862.5</ele><time>2026-04-26T14:50:04.931Z</time></trkpt><trkpt lat="46.5536391" lon="12.4309414"><ele>861.75</ele><time>2026-04-26T14:50:05.933Z</time></trkpt><trkpt lat="46.5535788" lon="12.4311057"><ele>861.0</ele><time>2026-04-26T14:50:06.94Z</time></trkpt><trkpt lat="46.5535295" lon="12.4312766"><ele>861.75</ele><time>2026-04-26T14:50:07.935Z</time></trkpt><trkpt lat="46.553479" lon="12.4314552"><ele>862.5</ele><time>2026-04-26T14:50:08.937Z</time></trkpt><trkpt lat="46.5534308" lon="12.4316321"><ele>863.25</ele><time>2026-04-26T14:50:09.946Z</time></trkpt><trkpt lat="46.5533749" lon="12.4318022"><ele>864.0</ele><time>2026-04-26T14:50:10.937Z</time></trkpt><trkpt lat="46.553299" lon="12.4319743"><ele>864.0</ele><time>2026-04-26T14:50:11.944Z</time></trkpt><trkpt lat="46.5532121" lon="12.4321255"><ele>864.0</ele><time>2026-04-26T14:50:12.94Z</time></trkpt><trkpt lat="46.5531174" lon="12.4322697"><ele>864.0</ele><time>2026-04-26T14:50:13.928Z</time></trkpt><trkpt lat="46.55302" lon="12.4323983"><ele>864.0</ele><time>2026-04-26T14:50:14.927Z</time></trkpt><trkpt lat="46.5529219" lon="12.4325048"><ele>864.4000000000001</ele><time>2026-04-26T14:50:15.93Z</time></trkpt><trkpt lat="46.5528274" lon="12.4326039"><ele>864.8000000000001</ele><time>2026-04-26T14:50:16.933Z</time></trkpt><trkpt lat="46.55275" lon="12.4326963"><ele>865.1999999999999</ele><time>2026-04-26T14:50:17.945Z</time></trkpt><trkpt lat="46.5526671" lon="12.4328075"><ele>865.5999999999999</ele><time>2026-04-26T14:50:18.938Z</time></trkpt><trkpt lat="46.5525883" lon="12.4329256"><ele>866.0</ele><time>2026-04-26T14:50:19.941Z</time></trkpt><trkpt lat="46.5525026" lon="12.4330503"><ele>866.0</ele><time>2026-04-26T14:50:20.932Z</time></trkpt><trkpt lat="46.5524241" lon="12.4331983"><ele>866.0</ele><time>2026-04-26T14:50:21.932Z</time></trkpt><trkpt lat="46.5523563" lon="12.4333599"><ele>866.0</ele><time>2026-04-26T14:50:22.929Z</time></trkpt><trkpt lat="46.5522986" lon="12.4335276"><ele>866.0</ele><time>2026-04-26T14:50:23.933Z</time></trkpt><trkpt lat="46.552254" lon="12.4337065"><ele>867.0</ele><time>2026-04-26T14:50:24.927Z</time></trkpt><trkpt lat="46.5522103" lon="12.4338784"><ele>868.0</ele><time>2026-04-26T14:50:25.928Z</time></trkpt><trkpt lat="46.5521733" lon="12.4340433"><ele>869.0</ele><time>2026-04-26T14:50:26.936Z</time></trkpt><trkpt lat="46.5521336" lon="12.4342063"><ele>870.0</ele><time>2026-04-26T14:50:27.933Z</time></trkpt><trkpt lat="46.5521022" lon="12.4343668"><ele>870.0</ele><time>2026-04-26T14:50:28.94Z</time></trkpt><trkpt lat="46.5520731" lon="12.4345292"><ele>870.0</ele><time>2026-04-26T14:50:29.939Z</time></trkpt><trkpt lat="46.5520469" lon="12.4347013"><ele>870.0</ele><time>2026-04-26T14:50:30.93Z</time></trkpt><trkpt lat="46.5520286" lon="12.4348787"><ele>870.0</ele><time>2026-04-26T14:50:31.933Z</time></trkpt><trkpt lat="46.5520222" lon="12.4350545"><ele>868.2</ele><time>2026-04-26T14:50:32.933Z</time></trkpt><trkpt lat="46.5520157" lon="12.4352155"><ele>866.4</ele><time>2026-04-26T14:50:33.939Z</time></trkpt><trkpt lat="46.5520137" lon="12.435376"><ele>864.5999999999999</ele><time>2026-04-26T14:50:34.932Z</time></trkpt><trkpt lat="46.5520179" lon="12.4355265"><ele>862.8</ele><time>2026-04-26T14:50:35.936Z</time></trkpt><trkpt lat="46.5520248" lon="12.4356843"><ele>861.0</ele><time>2026-04-26T14:50:36.931Z</time></trkpt><trkpt lat="46.5520326" lon="12.4358432"><ele>862.0</ele><time>2026-04-26T14:50:37.925Z</time></trkpt><trkpt lat="46.5520429" lon="12.4359939"><ele>862.9999999999999</ele><time>2026-04-26T14:50:38.93Z</time></trkpt><trkpt lat="46.552052" lon="12.4361359"><ele>863.9999999999999</ele><time>2026-04-26T14:50:39.94Z</time></trkpt><trkpt lat="46.5520556" lon="12.4362871"><ele>865.0</ele><time>2026-04-26T14:50:40.93Z</time></trkpt><trkpt lat="46.5520548" lon="12.4364353"><ele>866.0</ele><time>2026-04-26T14:50:41.932Z</time></trkpt><trkpt lat="46.5520519" lon="12.4365796"><ele>866.0</ele><time>2026-04-26T14:50:42.943Z</time></trkpt><trkpt lat="46.5520423" lon="12.4367326"><ele>865.9999999999999</ele><time>2026-04-26T14:50:43.927Z</time></trkpt><trkpt lat="46.5520289" lon="12.4368794"><ele>865.9999999999999</ele><time>2026-04-26T14:50:44.932Z</time></trkpt><trkpt lat="46.5520244" lon="12.4370254"><ele>866.0</ele><time>2026-04-26T14:50:45.937Z</time></trkpt><trkpt lat="46.5520217" lon="12.4371423"><ele>866.0</ele><time>2026-04-26T14:50:46.938Z</time></trkpt><trkpt lat="46.5520227" lon="12.4372455"><ele>865.5999999999999</ele><time>2026-04-26T14:50:47.94Z</time></trkpt><trkpt lat="46.5520265" lon="12.4373624"><ele>865.1999999999999</ele><time>2026-04-26T14:50:48.94Z</time></trkpt><trkpt lat="46.5520358" lon="12.4374955"><ele>864.8000000000001</ele><time>2026-04-26T14:50:49.935Z</time></trkpt><trkpt lat="46.5520565" lon="12.4376403"><ele>864.4000000000001</ele><time>2026-04-26T14:50:50.931Z</time></trkpt><trkpt lat="46.5520931" lon="12.4377883"><ele>864.0</ele><time>2026-04-26T14:50:51.927Z</time></trkpt><trkpt lat="46.552134" lon="12.4379355"><ele>863.8000000000001</ele><time>2026-04-26T14:50:52.932Z</time></trkpt><trkpt lat="46.5521784" lon="12.438091"><ele>863.6000000000001</ele><time>2026-04-26T14:50:53.932Z</time></trkpt><trkpt lat="46.5522265" lon="12.4382396"><ele>863.4</ele><time>2026-04-26T14:50:54.936Z</time></trkpt><trkpt lat="46.5522757" lon="12.4383811"><ele>863.2</ele><time>2026-04-26T14:50:55.94Z</time></trkpt><trkpt lat="46.5523148" lon="12.4385267"><ele>863.0</ele><time>2026-04-26T14:50:56.931Z</time></trkpt><trkpt lat="46.5523583" lon="12.4386702"><ele>862.2</ele><time>2026-04-26T14:50:57.946Z</time></trkpt><trkpt lat="46.5523959" lon="12.4388084"><ele>861.4</ele><time>2026-04-26T14:50:58.931Z</time></trkpt><trkpt lat="46.5524154" lon="12.4389395"><ele>860.6000000000001</ele><time>2026-04-26T14:50:59.936Z</time></trkpt><trkpt lat="46.5524187" lon="12.439099"><ele>859.8000000000001</ele><time>2026-04-26T14:51:00.939Z</time></trkpt><trkpt lat="46.5523957" lon="12.4392679"><ele>859.0</ele><time>2026-04-26T14:51:01.926Z</time></trkpt><trkpt lat="46.5523705" lon="12.4394509"><ele>859.0</ele><time>2026-04-26T14:51:02.93Z</time></trkpt><trkpt lat="46.5523381" lon="12.4396331"><ele>859.0</ele><time>2026-04-26T14:51:03.932Z</time></trkpt><trkpt lat="46.5523117" lon="12.439805"><ele>859.0</ele><time>2026-04-26T14:51:04.934Z</time></trkpt><trkpt lat="46.5522913" lon="12.4399914"><ele>859.0</ele><time>2026-04-26T14:51:05.942Z</time></trkpt><trkpt lat="46.5522769" lon="12.4401829"><ele>858.5</ele><time>2026-04-26T14:51:06.932Z</time></trkpt><trkpt lat="46.552272" lon="12.44036"><ele>858.0</ele><time>2026-04-26T14:51:07.931Z</time></trkpt><trkpt lat="46.5522705" lon="12.4405337"><ele>857.5</ele><time>2026-04-26T14:51:08.933Z</time></trkpt><trkpt lat="46.5522664" lon="12.4407064"><ele>857.0</ele><time>2026-04-26T14:51:09.931Z</time></trkpt><trkpt lat="46.5522529" lon="12.4408581"><ele>856.8</ele><time>2026-04-26T14:51:10.928Z</time></trkpt><trkpt lat="46.5522256" lon="12.441001"><ele>856.6</ele><time>2026-04-26T14:51:11.934Z</time></trkpt><trkpt lat="46.5521817" lon="12.4411343"><ele>856.3999999999999</ele><time>2026-04-26T14:51:12.944Z</time></trkpt><trkpt lat="46.5521193" lon="12.4412757"><ele>856.1999999999999</ele><time>2026-04-26T14:51:13.928Z</time></trkpt><trkpt lat="46.5520535" lon="12.4414025"><ele>856.0</ele><time>2026-04-26T14:51:14.937Z</time></trkpt><trkpt lat="46.5519867" lon="12.4415184"><ele>856.75</ele><time>2026-04-26T14:51:15.929Z</time></trkpt><trkpt lat="46.551919" lon="12.4416415"><ele>857.5</ele><time>2026-04-26T14:51:16.934Z</time></trkpt><trkpt lat="46.5518565" lon="12.4417822"><ele>858.25</ele><time>2026-04-26T14:51:17.937Z</time></trkpt><trkpt lat="46.5517832" lon="12.4419196"><ele>859.0</ele><time>2026-04-26T14:51:18.921Z</time></trkpt><trkpt lat="46.5517108" lon="12.4420581"><ele>860.5</ele><time>2026-04-26T14:51:19.938Z</time></trkpt><trkpt lat="46.5516399" lon="12.4422033"><ele>862.0</ele><time>2026-04-26T14:51:20.938Z</time></trkpt><trkpt lat="46.5515643" lon="12.4423518"><ele>863.5</ele><time>2026-04-26T14:51:21.928Z</time></trkpt><trkpt lat="46.5515086" lon="12.4425153"><ele>865.0</ele><time>2026-04-26T14:51:22.938Z</time></trkpt><trkpt lat="46.5514479" lon="12.4426786"><ele>865.0</ele><time>2026-04-26T14:51:23.926Z</time></trkpt><trkpt lat="46.551378" lon="12.442847"><ele>865.0</ele><time>2026-04-26T14:51:24.924Z</time></trkpt><trkpt lat="46.5512995" lon="12.4430109"><ele>865.0</ele><time>2026-04-26T14:51:25.935Z</time></trkpt><trkpt lat="46.5512231" lon="12.4431773"><ele>865.0</ele><time>2026-04-26T14:51:26.935Z</time></trkpt><trkpt lat="46.5511376" lon="12.4433398"><ele>865.25</ele><time>2026-04-26T14:51:27.938Z</time></trkpt><trkpt lat="46.5510513" lon="12.4435036"><ele>865.5</ele><time>2026-04-26T14:51:28.937Z</time></trkpt><trkpt lat="46.5509509" lon="12.4436649"><ele>865.75</ele><time>2026-04-26T14:51:29.934Z</time></trkpt><trkpt lat="46.5508543" lon="12.4438301"><ele>866.0</ele><time>2026-04-26T14:51:30.932Z</time></trkpt><trkpt lat="46.5507558" lon="12.4439957"><ele>866.0</ele><time>2026-04-26T14:51:31.924Z</time></trkpt><trkpt lat="46.5506531" lon="12.4441598"><ele>866.0</ele><time>2026-04-26T14:51:32.936Z</time></trkpt><trkpt lat="46.5505449" lon="12.4443111"><ele>866.0</ele><time>2026-04-26T14:51:33.936Z</time></trkpt><trkpt lat="46.5504395" lon="12.4444769"><ele>864.6666666666667</ele><time>2026-04-26T14:51:34.939Z</time></trkpt><trkpt lat="46.5503362" lon="12.4446489"><ele>863.3333333333333</ele><time>2026-04-26T14:51:35.928Z</time></trkpt><trkpt lat="46.5502355" lon="12.4448266"><ele>862.0</ele><time>2026-04-26T14:51:36.93Z</time></trkpt><trkpt lat="46.5501443" lon="12.4450017"><ele>862.0</ele><time>2026-04-26T14:51:37.935Z</time></trkpt><trkpt lat="46.5500551" lon="12.4451908"><ele>862.0</ele><time>2026-04-26T14:51:38.935Z</time></trkpt><trkpt lat="46.5499755" lon="12.4453879"><ele>862.0</ele><time>2026-04-26T14:51:39.936Z</time></trkpt><trkpt lat="46.5499074" lon="12.4455674"><ele>863.0</ele><time>2026-04-26T14:51:40.932Z</time></trkpt><trkpt lat="46.5498434" lon="12.4457474"><ele>864.0</ele><time>2026-04-26T14:51:41.933Z</time></trkpt><trkpt lat="46.5497812" lon="12.4459304"><ele>865.0</ele><time>2026-04-26T14:51:42.928Z</time></trkpt><trkpt lat="46.5497182" lon="12.44611"><ele>866.0</ele><time>2026-04-26T14:51:43.928Z</time></trkpt><trkpt lat="46.5496546" lon="12.4462863"><ele>866.5</ele><time>2026-04-26T14:51:44.932Z</time></trkpt><trkpt lat="46.5495955" lon="12.4464529"><ele>867.0</ele><time>2026-04-26T14:51:45.936Z</time></trkpt><trkpt lat="46.5495395" lon="12.44662"><ele>867.5</ele><time>2026-04-26T14:51:46.924Z</time></trkpt><trkpt lat="46.5494746" lon="12.4467802"><ele>868.0</ele><time>2026-04-26T14:51:47.926Z</time></trkpt><trkpt lat="46.5494059" lon="12.4469518"><ele>865.75</ele><time>2026-04-26T14:51:48.922Z</time></trkpt><trkpt lat="46.5493412" lon="12.447122"><ele>863.5</ele><time>2026-04-26T14:51:49.936Z</time></trkpt><trkpt lat="46.549286" lon="12.4472936"><ele>861.25</ele><time>2026-04-26T14:51:50.933Z</time></trkpt><trkpt lat="46.5492442" lon="12.4474636"><ele>859.0</ele><time>2026-04-26T14:51:51.926Z</time></trkpt><trkpt lat="46.5492006" lon="12.447633"><ele>859.0</ele><time>2026-04-26T14:51:52.942Z</time></trkpt><trkpt lat="46.5491588" lon="12.4478085"><ele>859.0</ele><time>2026-04-26T14:51:53.931Z</time></trkpt><trkpt lat="46.5491152" lon="12.4479885"><ele>859.0</ele><time>2026-04-26T14:51:54.936Z</time></trkpt><trkpt lat="46.5490679" lon="12.4481612"><ele>859.0</ele><time>2026-04-26T14:51:55.935Z</time></trkpt><trkpt lat="46.549019" lon="12.4483402"><ele>859.0</ele><time>2026-04-26T14:51:56.931Z</time></trkpt><trkpt lat="46.5489742" lon="12.4485145"><ele>859.0</ele><time>2026-04-26T14:51:57.931Z</time></trkpt><trkpt lat="46.5489303" lon="12.4486906"><ele>859.0</ele><time>2026-04-26T14:51:58.932Z</time></trkpt><trkpt lat="46.548881" lon="12.4488665"><ele>859.0</ele><time>2026-04-26T14:51:59.932Z</time></trkpt><trkpt lat="46.5488262" lon="12.449039"><ele>859.25</ele><time>2026-04-26T14:52:00.922Z</time></trkpt><trkpt lat="46.5487581" lon="12.4491871"><ele>859.5</ele><time>2026-04-26T14:52:01.942Z</time></trkpt><trkpt lat="46.5486807" lon="12.4493354"><ele>859.75</ele><time>2026-04-26T14:52:02.936Z</time></trkpt><trkpt lat="46.5486064" lon="12.4494762"><ele>860.0</ele><time>2026-04-26T14:52:03.931Z</time></trkpt><trkpt lat="46.5485309" lon="12.4496248"><ele>858.75</ele><time>2026-04-26T14:52:04.929Z</time></trkpt><trkpt lat="46.5484588" lon="12.4497733"><ele>857.5</ele><time>2026-04-26T14:52:05.93Z</time></trkpt><trkpt lat="46.5483862" lon="12.4499157"><ele>856.25</ele><time>2026-04-26T14:52:06.938Z</time></trkpt><trkpt lat="46.5483121" lon="12.4500756"><ele>855.0</ele><time>2026-04-26T14:52:07.925Z</time></trkpt><trkpt lat="46.5482389" lon="12.4502465"><ele>855.0</ele><time>2026-04-26T14:52:08.932Z</time></trkpt><trkpt lat="46.5481773" lon="12.450435"><ele>855.0</ele><time>2026-04-26T14:52:09.92Z</time></trkpt><trkpt lat="46.548126" lon="12.4506313"><ele>855.0</ele><time>2026-04-26T14:52:10.928Z</time></trkpt><trkpt lat="46.548084" lon="12.4508231"><ele>855.0</ele><time>2026-04-26T14:52:11.939Z</time></trkpt><trkpt lat="46.5480493" lon="12.4510189"><ele>856.0</ele><time>2026-04-26T14:52:12.933Z</time></trkpt><trkpt lat="46.5480156" lon="12.4512041"><ele>857.0</ele><time>2026-04-26T14:52:13.929Z</time></trkpt><trkpt lat="46.5479813" lon="12.4513925"><ele>858.0</ele><time>2026-04-26T14:52:14.93Z</time></trkpt><trkpt lat="46.5479394" lon="12.4515696"><ele>859.0</ele><time>2026-04-26T14:52:15.936Z</time></trkpt><trkpt lat="46.5478983" lon="12.4517449"><ele>857.5</ele><time>2026-04-26T14:52:16.937Z</time></trkpt><trkpt lat="46.5478409" lon="12.4519025"><ele>856.0</ele><time>2026-04-26T14:52:17.926Z</time></trkpt><trkpt lat="46.5477663" lon="12.4520438"><ele>854.5</ele><time>2026-04-26T14:52:18.933Z</time></trkpt><trkpt lat="46.5476839" lon="12.4521785"><ele>853.0</ele><time>2026-04-26T14:52:19.936Z</time></trkpt><trkpt lat="46.5476006" lon="12.4522982"><ele>853.0</ele><time>2026-04-26T14:52:20.934Z</time></trkpt><trkpt lat="46.5475188" lon="12.4524169"><ele>853.0</ele><time>2026-04-26T14:52:21.928Z</time></trkpt><trkpt lat="46.5474531" lon="12.4525316"><ele>853.0</ele><time>2026-04-26T14:52:22.929Z</time></trkpt><trkpt lat="46.5473837" lon="12.4526429"><ele>853.0</ele><time>2026-04-26T14:52:23.925Z</time></trkpt><trkpt lat="46.5473011" lon="12.4527531"><ele>853.0</ele><time>2026-04-26T14:52:24.936Z</time></trkpt><trkpt lat="46.547219" lon="12.4528676"><ele>853.0</ele><time>2026-04-26T14:52:25.931Z</time></trkpt><trkpt lat="46.5471444" lon="12.4530062"><ele>853.0</ele><time>2026-04-26T14:52:26.927Z</time></trkpt><trkpt lat="46.5470818" lon="12.4531597"><ele>853.0</ele><time>2026-04-26T14:52:27.932Z</time></trkpt><trkpt lat="46.5470247" lon="12.4533124"><ele>853.0</ele><time>2026-04-26T14:52:28.928Z</time></trkpt><trkpt lat="46.5469754" lon="12.453473"><ele>853.0</ele><time>2026-04-26T14:52:29.926Z</time></trkpt><trkpt lat="46.5469277" lon="12.4536191"><ele>853.0</ele><time>2026-04-26T14:52:30.933Z</time></trkpt><trkpt lat="46.546881" lon="12.4537578"><ele>853.0</ele><time>2026-04-26T14:52:31.928Z</time></trkpt><trkpt lat="46.5468371" lon="12.4539005"><ele>853.0</ele><time>2026-04-26T14:52:32.931Z</time></trkpt><trkpt lat="46.5467916" lon="12.45403"><ele>853.0</ele><time>2026-04-26T14:52:33.933Z</time></trkpt><trkpt lat="46.5467441" lon="12.4541495"><ele>853.4</ele><time>2026-04-26T14:52:34.926Z</time></trkpt><trkpt lat="46.5466988" lon="12.4542499"><ele>853.8</ele><time>2026-04-26T14:52:35.93Z</time></trkpt><trkpt lat="46.5466563" lon="12.4543603"><ele>854.2</ele><time>2026-04-26T14:52:36.929Z</time></trkpt><trkpt lat="46.5466071" lon="12.4544839"><ele>854.6</ele><time>2026-04-26T14:52:37.943Z</time></trkpt><trkpt lat="46.5465462" lon="12.4546138"><ele>855.0</ele><time>2026-04-26T14:52:38.928Z</time></trkpt><trkpt lat="46.5464854" lon="12.4547395"><ele>855.25</ele><time>2026-04-26T14:52:39.93Z</time></trkpt><trkpt lat="46.5464284" lon="12.4548739"><ele>855.5</ele><time>2026-04-26T14:52:40.93Z</time></trkpt><trkpt lat="46.5463651" lon="12.4550122"><ele>855.75</ele><time>2026-04-26T14:52:41.929Z</time></trkpt><trkpt lat="46.5462897" lon="12.4551448"><ele>856.0</ele><time>2026-04-26T14:52:42.935Z</time></trkpt><trkpt lat="46.5462122" lon="12.4552774"><ele>854.75</ele><time>2026-04-26T14:52:43.938Z</time></trkpt><trkpt lat="46.546135" lon="12.4554056"><ele>853.5</ele><time>2026-04-26T14:52:44.934Z</time></trkpt><trkpt lat="46.5460594" lon="12.4555369"><ele>852.25</ele><time>2026-04-26T14:52:45.928Z</time></trkpt><trkpt lat="46.5459842" lon="12.4556652"><ele>851.0</ele><time>2026-04-26T14:52:46.935Z</time></trkpt><trkpt lat="46.5459064" lon="12.4557983"><ele>851.0</ele><time>2026-04-26T14:52:47.934Z</time></trkpt><trkpt lat="46.5458356" lon="12.4559332"><ele>851.0</ele><time>2026-04-26T14:52:48.942Z</time></trkpt><trkpt lat="46.5457671" lon="12.4560652"><ele>851.0</ele><time>2026-04-26T14:52:49.932Z</time></trkpt><trkpt lat="46.545709" lon="12.4561902"><ele>851.0</ele><time>2026-04-26T14:52:50.937Z</time></trkpt><trkpt lat="46.5456566" lon="12.4563222"><ele>851.0</ele><time>2026-04-26T14:52:51.931Z</time></trkpt><trkpt lat="46.5456002" lon="12.456451"><ele>851.4</ele><time>2026-04-26T14:52:52.934Z</time></trkpt><trkpt lat="46.5455618" lon="12.456578"><ele>851.8</ele><time>2026-04-26T14:52:53.926Z</time></trkpt><trkpt lat="46.5455338" lon="12.4567193"><ele>852.1999999999999</ele><time>2026-04-26T14:52:54.943Z</time></trkpt><trkpt lat="46.5455081" lon="12.4568618"><ele>852.5999999999999</ele><time>2026-04-26T14:52:55.932Z</time></trkpt><trkpt lat="46.5454732" lon="12.4569813"><ele>853.0</ele><time>2026-04-26T14:52:56.926Z</time></trkpt><trkpt lat="46.5454532" lon="12.457099"><ele>852.9999999999999</ele><time>2026-04-26T14:52:57.93Z</time></trkpt><trkpt lat="46.5454286" lon="12.457187"><ele>853.0</ele><time>2026-04-26T14:52:58.932Z</time></trkpt><trkpt lat="46.5453474" lon="12.4573188"><ele>853.0</ele><time>2026-04-26T14:53:00.941Z</time></trkpt><trkpt lat="46.5452966" lon="12.4573893"><ele>853.0</ele><time>2026-04-26T14:53:01.932Z</time></trkpt><trkpt lat="46.5452174" lon="12.4575141"><ele>852.9999999999999</ele><time>2026-04-26T14:53:03.926Z</time></trkpt><trkpt lat="46.5452039" lon="12.4576202"><ele>853.0</ele><time>2026-04-26T14:53:04.923Z</time></trkpt><trkpt lat="46.5451996" lon="12.4577368"><ele>851.5999999999999</ele><time>2026-04-26T14:53:05.936Z</time></trkpt><trkpt lat="46.5452017" lon="12.4578568"><ele>850.1999999999999</ele><time>2026-04-26T14:53:06.929Z</time></trkpt><trkpt lat="46.5451804" lon="12.4579861"><ele>848.8</ele><time>2026-04-26T14:53:07.931Z</time></trkpt><trkpt lat="46.5451257" lon="12.4580866"><ele>847.4</ele><time>2026-04-26T14:53:08.935Z</time></trkpt><trkpt lat="46.5450399" lon="12.4581988"><ele>846.0</ele><time>2026-04-26T14:53:09.934Z</time></trkpt><trkpt lat="46.5449384" lon="12.4582868"><ele>846.0</ele><time>2026-04-26T14:53:10.927Z</time></trkpt><trkpt lat="46.5448377" lon="12.4583825"><ele>846.0</ele><time>2026-04-26T14:53:11.93Z</time></trkpt><trkpt lat="46.5447314" lon="12.4584906"><ele>846.0</ele><time>2026-04-26T14:53:12.928Z</time></trkpt><trkpt lat="46.5446351" lon="12.458586"><ele>846.0</ele><time>2026-04-26T14:53:13.926Z</time></trkpt><trkpt lat="46.5445361" lon="12.458689"><ele>845.1999999999999</ele><time>2026-04-26T14:53:14.92Z</time></trkpt><trkpt lat="46.5444366" lon="12.4587852"><ele>844.4</ele><time>2026-04-26T14:53:15.936Z</time></trkpt><trkpt lat="46.5443484" lon="12.4588774"><ele>843.6</ele><time>2026-04-26T14:53:16.929Z</time></trkpt><trkpt lat="46.5442635" lon="12.4589566"><ele>842.8</ele><time>2026-04-26T14:53:17.936Z</time></trkpt><trkpt lat="46.5441849" lon="12.4590333"><ele>842.0</ele><time>2026-04-26T14:53:18.925Z</time></trkpt><trkpt lat="46.5441177" lon="12.4590992"><ele>842.0</ele><time>2026-04-26T14:53:19.936Z</time></trkpt><trkpt lat="46.5440614" lon="12.4591444"><ele>842.0</ele><time>2026-04-26T14:53:20.93Z</time></trkpt><trkpt lat="46.5439607" lon="12.4592132"><ele>842.0</ele><time>2026-04-26T14:53:22.929Z</time></trkpt><trkpt lat="46.5438563" lon="12.4592474"><ele>842.0</ele><time>2026-04-26T14:53:24.943Z</time></trkpt><trkpt lat="46.5437721" lon="12.4593019"><ele>842.0</ele><time>2026-04-26T14:53:26.925Z</time></trkpt><trkpt lat="46.5437124" lon="12.4593816"><ele>842.2</ele><time>2026-04-26T14:53:29.935Z</time></trkpt><trkpt lat="46.5436541" lon="12.4594338"><ele>842.4000000000001</ele><time>2026-04-26T14:57:04.929Z</time></trkpt><trkpt lat="46.5436158" lon="12.4595484"><ele>842.5999999999999</ele><time>2026-04-26T14:57:06.923Z</time></trkpt><trkpt lat="46.5435591" lon="12.4596637"><ele>842.8</ele><time>2026-04-26T14:57:08.922Z</time></trkpt><trkpt lat="46.5434902" lon="12.45975"><ele>843.0</ele><time>2026-04-26T14:57:09.933Z</time></trkpt><trkpt lat="46.5433956" lon="12.459818"><ele>843.0</ele><time>2026-04-26T14:57:10.929Z</time></trkpt><trkpt lat="46.5432798" lon="12.459888"><ele>843.0</ele><time>2026-04-26T14:57:11.929Z</time></trkpt><trkpt lat="46.5431789" lon="12.4599897"><ele>843.0</ele><time>2026-04-26T14:57:12.936Z</time></trkpt><trkpt lat="46.5430702" lon="12.4601017"><ele>843.0</ele><time>2026-04-26T14:57:13.934Z</time></trkpt><trkpt lat="46.5429531" lon="12.4602271"><ele>841.6666666666667</ele><time>2026-04-26T14:57:14.953Z</time></trkpt><trkpt lat="46.5428306" lon="12.4603544"><ele>840.3333333333334</ele><time>2026-04-26T14:57:15.939Z</time></trkpt><trkpt lat="46.5427132" lon="12.4604911"><ele>839.0</ele><time>2026-04-26T14:57:16.935Z</time></trkpt><trkpt lat="46.5425984" lon="12.4606477"><ele>839.0</ele><time>2026-04-26T14:57:17.935Z</time></trkpt><trkpt lat="46.5424936" lon="12.4608107"><ele>839.0</ele><time>2026-04-26T14:57:18.937Z</time></trkpt><trkpt lat="46.5424031" lon="12.4609742"><ele>839.0</ele><time>2026-04-26T14:57:19.928Z</time></trkpt><trkpt lat="46.5423142" lon="12.4611112"><ele>839.0</ele><time>2026-04-26T14:57:20.931Z</time></trkpt><trkpt lat="46.5422328" lon="12.4612461"><ele>840.75</ele><time>2026-04-26T14:57:21.923Z</time></trkpt><trkpt lat="46.5421504" lon="12.4613831"><ele>842.5</ele><time>2026-04-26T14:57:22.931Z</time></trkpt><trkpt lat="46.5420737" lon="12.4615424"><ele>844.25</ele><time>2026-04-26T14:57:23.934Z</time></trkpt><trkpt lat="46.5420022" lon="12.4617102"><ele>846.0</ele><time>2026-04-26T14:57:24.934Z</time></trkpt><trkpt lat="46.5419403" lon="12.4618801"><ele>844.1999999999999</ele><time>2026-04-26T14:57:25.925Z</time></trkpt><trkpt lat="46.5418828" lon="12.4620365"><ele>842.4</ele><time>2026-04-26T14:57:26.93Z</time></trkpt><trkpt lat="46.5418259" lon="12.4621768"><ele>840.6</ele><time>2026-04-26T14:57:27.927Z</time></trkpt><trkpt lat="46.5417685" lon="12.4623054"><ele>838.8</ele><time>2026-04-26T14:57:28.934Z</time></trkpt><trkpt lat="46.5416936" lon="12.4624172"><ele>837.0</ele><time>2026-04-26T14:57:29.926Z</time></trkpt><trkpt lat="46.5416054" lon="12.4625111"><ele>837.0</ele><time>2026-04-26T14:57:30.938Z</time></trkpt><trkpt lat="46.541507" lon="12.4625934"><ele>837.0</ele><time>2026-04-26T14:57:31.928Z</time></trkpt><trkpt lat="46.5414104" lon="12.4626541"><ele>837.0</ele><time>2026-04-26T14:57:32.927Z</time></trkpt><trkpt lat="46.5413096" lon="12.4626948"><ele>837.0</ele><time>2026-04-26T14:57:33.924Z</time></trkpt><trkpt lat="46.5412162" lon="12.4627215"><ele>837.0</ele><time>2026-04-26T14:57:34.935Z</time></trkpt><trkpt lat="46.5411191" lon="12.4627557"><ele>836.0</ele><time>2026-04-26T14:57:35.93Z</time></trkpt><trkpt lat="46.5410133" lon="12.4627885"><ele>835.0</ele><time>2026-04-26T14:57:36.939Z</time></trkpt><trkpt lat="46.5409124" lon="12.462829"><ele>834.0</ele><time>2026-04-26T14:57:37.925Z</time></trkpt><trkpt lat="46.5408106" lon="12.4628729"><ele>833.0</ele><time>2026-04-26T14:57:38.944Z</time></trkpt><trkpt lat="46.5407052" lon="12.4629148"><ele>832.0</ele><time>2026-04-26T14:57:39.935Z</time></trkpt><trkpt lat="46.5405986" lon="12.4629532"><ele>832.0</ele><time>2026-04-26T14:57:40.928Z</time></trkpt><trkpt lat="46.5404859" lon="12.4630004"><ele>832.0</ele><time>2026-04-26T14:57:41.929Z</time></trkpt><trkpt lat="46.5403754" lon="12.4630396"><ele>832.0</ele><time>2026-04-26T14:57:42.932Z</time></trkpt><trkpt lat="46.5402734" lon="12.4630771"><ele>832.0</ele><time>2026-04-26T14:57:43.925Z</time></trkpt><trkpt lat="46.5401754" lon="12.4631163"><ele>832.0</ele><time>2026-04-26T14:57:44.936Z</time></trkpt><trkpt lat="46.5400745" lon="12.4631558"><ele>831.0</ele><time>2026-04-26T14:57:45.929Z</time></trkpt><trkpt lat="46.5399683" lon="12.4632159"><ele>830.0</ele><time>2026-04-26T14:57:46.93Z</time></trkpt><trkpt lat="46.5398561" lon="12.4632922"><ele>829.0</ele><time>2026-04-26T14:57:47.931Z</time></trkpt><trkpt lat="46.5397358" lon="12.4633869"><ele>828.0</ele><time>2026-04-26T14:57:48.935Z</time></trkpt><trkpt lat="46.539609" lon="12.4634812"><ele>829.25</ele><time>2026-04-26T14:57:49.93Z</time></trkpt><trkpt lat="46.5394906" lon="12.46357"><ele>830.5</ele><time>2026-04-26T14:57:50.925Z</time></trkpt><trkpt lat="46.5393748" lon="12.46365"><ele>831.75</ele><time>2026-04-26T14:57:51.926Z</time></trkpt><trkpt lat="46.5392628" lon="12.4637337"><ele>833.0</ele><time>2026-04-26T14:57:52.93Z</time></trkpt><trkpt lat="46.5391503" lon="12.4638366"><ele>833.0</ele><time>2026-04-26T14:57:53.928Z</time></trkpt><trkpt lat="46.53905" lon="12.4639641"><ele>833.0</ele><time>2026-04-26T14:57:54.938Z</time></trkpt><trkpt lat="46.5389555" lon="12.4641043"><ele>833.0</ele><time>2026-04-26T14:57:55.935Z</time></trkpt><trkpt lat="46.5388667" lon="12.4642493"><ele>833.0</ele><time>2026-04-26T14:57:56.928Z</time></trkpt><trkpt lat="46.5387833" lon="12.4643855"><ele>830.0</ele><time>2026-04-26T14:57:57.925Z</time></trkpt><trkpt lat="46.5387015" lon="12.4645365"><ele>827.0</ele><time>2026-04-26T14:57:58.934Z</time></trkpt><trkpt lat="46.5386188" lon="12.464692"><ele>824.0</ele><time>2026-04-26T14:57:59.926Z</time></trkpt><trkpt lat="46.5385344" lon="12.4648655"><ele>821.0</ele><time>2026-04-26T14:58:00.929Z</time></trkpt><trkpt lat="46.538458" lon="12.4650396"><ele>821.0</ele><time>2026-04-26T14:58:01.931Z</time></trkpt><trkpt lat="46.5383911" lon="12.4652145"><ele>821.0</ele><time>2026-04-26T14:58:02.932Z</time></trkpt><trkpt lat="46.5383208" lon="12.4653853"><ele>821.0</ele><time>2026-04-26T14:58:03.936Z</time></trkpt><trkpt lat="46.5382496" lon="12.4655501"><ele>821.0</ele><time>2026-04-26T14:58:04.928Z</time></trkpt><trkpt lat="46.538174" lon="12.4657071"><ele>816.25</ele><time>2026-04-26T14:58:05.932Z</time></trkpt><trkpt lat="46.538083" lon="12.4658531"><ele>811.5</ele><time>2026-04-26T14:58:06.925Z</time></trkpt><trkpt lat="46.5379867" lon="12.4659883"><ele>806.75</ele><time>2026-04-26T14:58:07.924Z</time></trkpt><trkpt lat="46.5378864" lon="12.4661131"><ele>802.0</ele><time>2026-04-26T14:58:08.928Z</time></trkpt><trkpt lat="46.5377877" lon="12.4662389"><ele>808.25</ele><time>2026-04-26T14:58:09.933Z</time></trkpt><trkpt lat="46.537688" lon="12.4663677"><ele>814.5</ele><time>2026-04-26T14:58:10.935Z</time></trkpt><trkpt lat="46.5375889" lon="12.4664978"><ele>820.75</ele><time>2026-04-26T14:58:11.936Z</time></trkpt><trkpt lat="46.5374912" lon="12.4666322"><ele>827.0</ele><time>2026-04-26T14:58:12.926Z</time></trkpt><trkpt lat="46.5373937" lon="12.4667657"><ele>827.0</ele><time>2026-04-26T14:58:13.925Z</time></trkpt><trkpt lat="46.5372912" lon="12.4669042"><ele>827.0</ele><time>2026-04-26T14:58:14.923Z</time></trkpt><trkpt lat="46.5371793" lon="12.4670164"><ele>827.0</ele><time>2026-04-26T14:58:15.932Z</time></trkpt><trkpt lat="46.537055" lon="12.4671085"><ele>827.0</ele><time>2026-04-26T14:58:16.929Z</time></trkpt><trkpt lat="46.5369186" lon="12.4671697"><ele>833.0</ele><time>2026-04-26T14:58:17.931Z</time></trkpt><trkpt lat="46.5367704" lon="12.4672069"><ele>839.0</ele><time>2026-04-26T14:58:18.926Z</time></trkpt><trkpt lat="46.5366209" lon="12.4672231"><ele>845.0</ele><time>2026-04-26T14:58:19.926Z</time></trkpt><trkpt lat="46.5364712" lon="12.4672243"><ele>845.0</ele><time>2026-04-26T14:58:20.934Z</time></trkpt><trkpt lat="46.5363229" lon="12.4672429"><ele>845.0</ele><time>2026-04-26T14:58:21.932Z</time></trkpt><trkpt lat="46.5361731" lon="12.4672792"><ele>845.0</ele><time>2026-04-26T14:58:22.931Z</time></trkpt><trkpt lat="46.5360221" lon="12.4673235"><ele>838.3333333333334</ele><time>2026-04-26T14:58:23.934Z</time></trkpt><trkpt lat="46.5358646" lon="12.4673647"><ele>831.6666666666667</ele><time>2026-04-26T14:58:24.93Z</time></trkpt><trkpt lat="46.5357056" lon="12.4674135"><ele>825.0</ele><time>2026-04-26T14:58:25.931Z</time></trkpt><trkpt lat="46.5355571" lon="12.4674609"><ele>825.0</ele><time>2026-04-26T14:58:26.933Z</time></trkpt><trkpt lat="46.5354146" lon="12.4675065"><ele>825.0</ele><time>2026-04-26T14:58:27.923Z</time></trkpt><trkpt lat="46.5352829" lon="12.467554"><ele>825.0</ele><time>2026-04-26T14:58:28.931Z</time></trkpt><trkpt lat="46.5351464" lon="12.4676092"><ele>825.0</ele><time>2026-04-26T14:58:29.935Z</time></trkpt><trkpt lat="46.535008" lon="12.4676625"><ele>819.0</ele><time>2026-04-26T14:58:30.922Z</time></trkpt><trkpt lat="46.5348492" lon="12.4677174"><ele>813.0</ele><time>2026-04-26T14:58:31.943Z</time></trkpt><trkpt lat="46.5346745" lon="12.4677755"><ele>807.0</ele><time>2026-04-26T14:58:32.931Z</time></trkpt><trkpt lat="46.5344909" lon="12.4678482"><ele>804.6666666666667</ele><time>2026-04-26T14:58:33.929Z</time></trkpt><trkpt lat="46.5343135" lon="12.4679196"><ele>802.3333333333334</ele><time>2026-04-26T14:58:34.93Z</time></trkpt><trkpt lat="46.5341441" lon="12.468006"><ele>800.0</ele><time>2026-04-26T14:58:35.927Z</time></trkpt><trkpt lat="46.5339696" lon="12.4680916"><ele>798.3333333333334</ele><time>2026-04-26T14:58:36.927Z</time></trkpt><trkpt lat="46.5337996" lon="12.468181"><ele>796.6666666666667</ele><time>2026-04-26T14:58:37.931Z</time></trkpt><trkpt lat="46.5336358" lon="12.4682682"><ele>795.0</ele><time>2026-04-26T14:58:38.927Z</time></trkpt><trkpt lat="46.5334834" lon="12.4683551"><ele>795.0</ele><time>2026-04-26T14:58:39.927Z</time></trkpt><trkpt lat="46.5333494" lon="12.4684476"><ele>795.0</ele><time>2026-04-26T14:58:40.925Z</time></trkpt><trkpt lat="46.5332244" lon="12.4685607"><ele>795.0</ele><time>2026-04-26T14:58:41.924Z</time></trkpt><trkpt lat="46.5331102" lon="12.4686739"><ele>795.0</ele><time>2026-04-26T14:58:42.919Z</time></trkpt><trkpt lat="46.533006" lon="12.4687825"><ele>797.0</ele><time>2026-04-26T14:58:43.934Z</time></trkpt><trkpt lat="46.5329225" lon="12.4689146"><ele>799.0</ele><time>2026-04-26T14:58:44.93Z</time></trkpt><trkpt lat="46.5328612" lon="12.4690746"><ele>801.0</ele><time>2026-04-26T14:58:45.924Z</time></trkpt><trkpt lat="46.532834" lon="12.4692425"><ele>803.0</ele><time>2026-04-26T14:58:46.93Z</time></trkpt><trkpt lat="46.5328291" lon="12.4694095"><ele>803.0</ele><time>2026-04-26T14:58:47.924Z</time></trkpt><trkpt lat="46.5328447" lon="12.46955"><ele>803.0</ele><time>2026-04-26T14:58:48.926Z</time></trkpt><trkpt lat="46.5328844" lon="12.469675"><ele>803.0</ele><time>2026-04-26T14:58:49.927Z</time></trkpt><trkpt lat="46.5329312" lon="12.4697917"><ele>803.0</ele><time>2026-04-26T14:58:50.935Z</time></trkpt><trkpt lat="46.5329809" lon="12.4699189"><ele>803.0</ele><time>2026-04-26T14:58:51.929Z</time></trkpt><trkpt lat="46.5330122" lon="12.4700664"><ele>812.3333333333334</ele><time>2026-04-26T14:58:52.924Z</time></trkpt><trkpt lat="46.5330317" lon="12.4702142"><ele>821.6666666666667</ele><time>2026-04-26T14:58:53.933Z</time></trkpt><trkpt lat="46.5330389" lon="12.470379"><ele>831.0</ele><time>2026-04-26T14:58:54.925Z</time></trkpt><trkpt lat="46.5330101" lon="12.4696982"><ele>840.0</ele><time>2026-04-26T14:59:11.441Z</time></trkpt><trkpt lat="46.5341833" lon="12.4691061"><ele>884.0</ele><time>2026-04-26T15:00:08.397Z</time></trkpt><trkpt lat="46.538153" lon="12.5218399"><ele>880.5</ele><time>2026-04-26T15:02:22.523Z</time></trkpt><trkpt lat="46.5382038" lon="12.5220924"><ele>877.0</ele><time>2026-04-26T15:03:08.932Z</time></trkpt><trkpt lat="46.5382197" lon="12.5222597"><ele>873.5</ele><time>2026-04-26T15:03:09.923Z</time></trkpt><trkpt lat="46.5382397" lon="12.5224226"><ele>870.0</ele><time>2026-04-26T15:03:10.923Z</time></trkpt><trkpt lat="46.5382697" lon="12.5225887"><ele>870.0</ele><time>2026-04-26T15:03:11.93Z</time></trkpt><trkpt lat="46.538304" lon="12.5227617"><ele>870.0</ele><time>2026-04-26T15:03:12.927Z</time></trkpt><trkpt lat="46.5383478" lon="12.5229238"><ele>870.0</ele><time>2026-04-26T15:03:13.938Z</time></trkpt><trkpt lat="46.5383886" lon="12.5230865"><ele>870.0</ele><time>2026-04-26T15:03:14.923Z</time></trkpt><trkpt lat="46.5384171" lon="12.5232468"><ele>868.4</ele><time>2026-04-26T15:03:15.924Z</time></trkpt><trkpt lat="46.5384553" lon="12.5233924"><ele>866.8</ele><time>2026-04-26T15:03:16.931Z</time></trkpt><trkpt lat="46.5384953" lon="12.5235355"><ele>865.2</ele><time>2026-04-26T15:03:17.919Z</time></trkpt><trkpt lat="46.538532" lon="12.5236726"><ele>863.6</ele><time>2026-04-26T15:03:18.923Z</time></trkpt><trkpt lat="46.5385699" lon="12.5238105"><ele>862.0</ele><time>2026-04-26T15:03:19.937Z</time></trkpt><trkpt lat="46.5386034" lon="12.5239467"><ele>861.0</ele><time>2026-04-26T15:03:20.941Z</time></trkpt><trkpt lat="46.5386415" lon="12.5240899"><ele>860.0</ele><time>2026-04-26T15:03:21.936Z</time></trkpt><trkpt lat="46.5386778" lon="12.5242341"><ele>859.0</ele><time>2026-04-26T15:03:22.921Z</time></trkpt><trkpt lat="46.5387047" lon="12.5243892"><ele>858.0</ele><time>2026-04-26T15:03:23.944Z</time></trkpt><trkpt lat="46.5387275" lon="12.5245423"><ele>857.0</ele><time>2026-04-26T15:03:24.923Z</time></trkpt><trkpt lat="46.5387383" lon="12.5247025"><ele>857.0</ele><time>2026-04-26T15:03:25.929Z</time></trkpt><trkpt lat="46.5387443" lon="12.5248634"><ele>857.0</ele><time>2026-04-26T15:03:26.93Z</time></trkpt><trkpt lat="46.5387445" lon="12.5250246"><ele>857.0</ele><time>2026-04-26T15:03:27.926Z</time></trkpt><trkpt lat="46.5387447" lon="12.525188"><ele>857.0</ele><time>2026-04-26T15:03:28.925Z</time></trkpt><trkpt lat="46.5387459" lon="12.5253511"><ele>857.0</ele><time>2026-04-26T15:03:29.932Z</time></trkpt><trkpt lat="46.5387465" lon="12.5255158"><ele>857.0</ele><time>2026-04-26T15:03:30.925Z</time></trkpt><trkpt lat="46.5387477" lon="12.5256724"><ele>857.0</ele><time>2026-04-26T15:03:31.933Z</time></trkpt><trkpt lat="46.5387443" lon="12.5258202"><ele>857.0</ele><time>2026-04-26T15:03:32.924Z</time></trkpt><trkpt lat="46.5387394" lon="12.5259601"><ele>857.0</ele><time>2026-04-26T15:03:33.922Z</time></trkpt><trkpt lat="46.538745" lon="12.5260985"><ele>857.0</ele><time>2026-04-26T15:03:34.928Z</time></trkpt><trkpt lat="46.5387647" lon="12.5262471"><ele>857.4000000000001</ele><time>2026-04-26T15:03:35.931Z</time></trkpt><trkpt lat="46.5387966" lon="12.5263877"><ele>857.8000000000001</ele><time>2026-04-26T15:03:36.929Z</time></trkpt><trkpt lat="46.5388424" lon="12.5265255"><ele>858.2</ele><time>2026-04-26T15:03:37.925Z</time></trkpt><trkpt lat="46.5389045" lon="12.5266561"><ele>858.6</ele><time>2026-04-26T15:03:38.931Z</time></trkpt><trkpt lat="46.5389724" lon="12.5267879"><ele>859.0</ele><time>2026-04-26T15:03:39.932Z</time></trkpt><trkpt lat="46.5390407" lon="12.5269227"><ele>859.0</ele><time>2026-04-26T15:03:40.928Z</time></trkpt><trkpt lat="46.5391146" lon="12.5270529"><ele>859.0</ele><time>2026-04-26T15:03:41.924Z</time></trkpt><trkpt lat="46.5391949" lon="12.5271835"><ele>859.0</ele><time>2026-04-26T15:03:42.923Z</time></trkpt><trkpt lat="46.5392889" lon="12.5273233"><ele>859.0</ele><time>2026-04-26T15:03:43.93Z</time></trkpt><trkpt lat="46.539383" lon="12.5274546"><ele>859.6</ele><time>2026-04-26T15:03:44.93Z</time></trkpt><trkpt lat="46.5394715" lon="12.5275691"><ele>860.2</ele><time>2026-04-26T15:03:45.927Z</time></trkpt><trkpt lat="46.5395567" lon="12.5276805"><ele>860.8000000000001</ele><time>2026-04-26T15:03:46.926Z</time></trkpt><trkpt lat="46.5396391" lon="12.5277924"><ele>861.4000000000001</ele><time>2026-04-26T15:03:47.938Z</time></trkpt><trkpt lat="46.5397166" lon="12.5278909"><ele>862.0</ele><time>2026-04-26T15:03:48.93Z</time></trkpt><trkpt lat="46.5397871" lon="12.527978"><ele>865.8</ele><time>2026-04-26T15:03:49.932Z</time></trkpt><trkpt lat="46.5398451" lon="12.5280476"><ele>869.6</ele><time>2026-04-26T15:03:50.93Z</time></trkpt><trkpt lat="46.5399497" lon="12.528152"><ele>873.3999999999999</ele><time>2026-04-26T15:03:52.927Z</time></trkpt><trkpt lat="46.5400149" lon="12.5282132"><ele>877.1999999999999</ele><time>2026-04-26T15:03:53.929Z</time></trkpt><trkpt lat="46.5401007" lon="12.5283078"><ele>881.0</ele><time>2026-04-26T15:03:54.922Z</time></trkpt><trkpt lat="46.5401994" lon="12.5284288"><ele>881.0</ele><time>2026-04-26T15:03:55.923Z</time></trkpt><trkpt lat="46.5402995" lon="12.5285573"><ele>881.0</ele><time>2026-04-26T15:03:56.934Z</time></trkpt><trkpt lat="46.5404003" lon="12.5286838"><ele>881.0</ele><time>2026-04-26T15:03:57.93Z</time></trkpt><trkpt lat="46.5405026" lon="12.5288084"><ele>881.0</ele><time>2026-04-26T15:03:58.927Z</time></trkpt><trkpt lat="46.5405948" lon="12.5289303"><ele>880.75</ele><time>2026-04-26T15:03:59.919Z</time></trkpt><trkpt lat="46.5406644" lon="12.5290591"><ele>880.5</ele><time>2026-04-26T15:04:00.933Z</time></trkpt><trkpt lat="46.5407321" lon="12.5292083"><ele>880.25</ele><time>2026-04-26T15:04:01.922Z</time></trkpt><trkpt lat="46.5407824" lon="12.529378"><ele>880.0</ele><time>2026-04-26T15:04:02.926Z</time></trkpt><trkpt lat="46.5408294" lon="12.5295471"><ele>884.0</ele><time>2026-04-26T15:04:03.934Z</time></trkpt><trkpt lat="46.5408981" lon="12.5296818"><ele>888.0</ele><time>2026-04-26T15:04:04.921Z</time></trkpt><trkpt lat="46.5409835" lon="12.5297839"><ele>892.0</ele><time>2026-04-26T15:04:05.935Z</time></trkpt><trkpt lat="46.5410928" lon="12.5298586"><ele>896.0</ele><time>2026-04-26T15:04:06.93Z</time></trkpt><trkpt lat="46.5412076" lon="12.5298677"><ele>893.0</ele><time>2026-04-26T15:04:07.928Z</time></trkpt><trkpt lat="46.5413377" lon="12.5298306"><ele>890.0</ele><time>2026-04-26T15:04:08.928Z</time></trkpt><trkpt lat="46.5414735" lon="12.5297876"><ele>887.0</ele><time>2026-04-26T15:04:09.922Z</time></trkpt><trkpt lat="46.5416047" lon="12.5297412"><ele>884.0</ele><time>2026-04-26T15:04:10.922Z</time></trkpt><trkpt lat="46.5417243" lon="12.529705"><ele>884.0</ele><time>2026-04-26T15:04:11.931Z</time></trkpt><trkpt lat="46.5418286" lon="12.5296786"><ele>884.0000000000001</ele><time>2026-04-26T15:04:12.931Z</time></trkpt><trkpt lat="46.5419248" lon="12.5296688"><ele>884.0000000000001</ele><time>2026-04-26T15:04:13.935Z</time></trkpt><trkpt lat="46.5419971" lon="12.5296628"><ele>884.0</ele><time>2026-04-26T15:04:14.934Z</time></trkpt><trkpt lat="46.5420891" lon="12.5296836"><ele>884.0</ele><time>2026-04-26T15:04:16.931Z</time></trkpt><trkpt lat="46.5420999" lon="12.5298418"><ele>884.8571428571429</ele><time>2026-04-26T15:04:19.934Z</time></trkpt><trkpt lat="46.5420811" lon="12.5299366"><ele>885.7142857142858</ele><time>2026-04-26T15:04:20.928Z</time></trkpt><trkpt lat="46.5420809" lon="12.5300545"><ele>886.5714285714287</ele><time>2026-04-26T15:04:21.928Z</time></trkpt><trkpt lat="46.5420886" lon="12.5301642"><ele>887.4285714285714</ele><time>2026-04-26T15:04:22.935Z</time></trkpt><trkpt lat="46.5421043" lon="12.530271"><ele>888.2857142857142</ele><time>2026-04-26T15:04:23.932Z</time></trkpt><trkpt lat="46.5421266" lon="12.5303752"><ele>889.1428571428572</ele><time>2026-04-26T15:04:24.928Z</time></trkpt><trkpt lat="46.5421515" lon="12.5304748"><ele>890.0</ele><time>2026-04-26T15:04:25.932Z</time></trkpt><trkpt lat="46.5421764" lon="12.5305687"><ele>894.0</ele><time>2026-04-26T15:04:26.93Z</time></trkpt><trkpt lat="46.5422021" lon="12.5306674"><ele>898.0</ele><time>2026-04-26T15:04:27.927Z</time></trkpt><trkpt lat="46.5422128" lon="12.5307688"><ele>902.0</ele><time>2026-04-26T15:04:28.925Z</time></trkpt><trkpt lat="46.542195" lon="12.5308626"><ele>906.0</ele><time>2026-04-26T15:04:29.928Z</time></trkpt><trkpt lat="46.542167" lon="12.5309618"><ele>910.0</ele><time>2026-04-26T15:04:30.932Z</time></trkpt><trkpt lat="46.5421365" lon="12.5310657"><ele>914.0</ele><time>2026-04-26T15:04:31.922Z</time></trkpt><trkpt lat="46.542112" lon="12.5311868"><ele>918.0</ele><time>2026-04-26T15:04:32.938Z</time></trkpt><trkpt lat="46.5420793" lon="12.5313033"><ele>918.0</ele><time>2026-04-26T15:04:33.919Z</time></trkpt><trkpt lat="46.5420464" lon="12.5314293"><ele>918.0</ele><time>2026-04-26T15:04:34.92Z</time></trkpt><trkpt lat="46.542003" lon="12.5315641"><ele>918.0</ele><time>2026-04-26T15:04:35.936Z</time></trkpt><trkpt lat="46.5419428" lon="12.5316935"><ele>918.0</ele><time>2026-04-26T15:04:36.937Z</time></trkpt><trkpt lat="46.5418788" lon="12.5318222"><ele>918.0</ele><time>2026-04-26T15:04:37.921Z</time></trkpt><trkpt lat="46.5418205" lon="12.5319526"><ele>920.1666666666666</ele><time>2026-04-26T15:04:38.934Z</time></trkpt><trkpt lat="46.5417641" lon="12.5320606"><ele>922.3333333333333</ele><time>2026-04-26T15:04:39.927Z</time></trkpt><trkpt lat="46.5417055" lon="12.5321355"><ele>924.5</ele><time>2026-04-26T15:04:40.93Z</time></trkpt><trkpt lat="46.5416265" lon="12.532233"><ele>926.6666666666666</ele><time>2026-04-26T15:04:42.922Z</time></trkpt><trkpt lat="46.5415462" lon="12.532263"><ele>928.8333333333333</ele><time>2026-04-26T15:04:44.923Z</time></trkpt><trkpt lat="46.5414768" lon="12.5322648"><ele>931.0</ele><time>2026-04-26T15:04:45.932Z</time></trkpt><trkpt lat="46.5413804" lon="12.532254"><ele>930.9999999999999</ele><time>2026-04-26T15:04:46.925Z</time></trkpt><trkpt lat="46.5412984" lon="12.5322542"><ele>931.0</ele><time>2026-04-26T15:04:47.928Z</time></trkpt><trkpt lat="46.5412158" lon="12.5322595"><ele>931.0</ele><time>2026-04-26T15:04:48.932Z</time></trkpt><trkpt lat="46.5411262" lon="12.532265"><ele>931.0</ele><time>2026-04-26T15:04:49.923Z</time></trkpt><trkpt lat="46.5410387" lon="12.5322837"><ele>930.9999999999999</ele><time>2026-04-26T15:04:50.926Z</time></trkpt><trkpt lat="46.5409604" lon="12.5323141"><ele>931.0</ele><time>2026-04-26T15:04:51.932Z</time></trkpt><trkpt lat="46.5408785" lon="12.5323383"><ele>929.9999999999999</ele><time>2026-04-26T15:04:52.925Z</time></trkpt><trkpt lat="46.5407939" lon="12.5323323"><ele>929.0</ele><time>2026-04-26T15:04:53.929Z</time></trkpt><trkpt lat="46.5407169" lon="12.5323115"><ele>928.0</ele><time>2026-04-26T15:04:54.933Z</time></trkpt><trkpt lat="46.5406487" lon="12.5323036"><ele>927.0</ele><time>2026-04-26T15:04:55.923Z</time></trkpt><trkpt lat="46.5405659" lon="12.5323154"><ele>925.9999999999999</ele><time>2026-04-26T15:04:56.927Z</time></trkpt><trkpt lat="46.5404869" lon="12.5323337"><ele>925.0</ele><time>2026-04-26T15:04:57.935Z</time></trkpt><trkpt lat="46.5404192" lon="12.532346"><ele>923.3333333333333</ele><time>2026-04-26T15:04:58.929Z</time></trkpt><trkpt lat="46.5403542" lon="12.5323711"><ele>921.6666666666666</ele><time>2026-04-26T15:04:59.927Z</time></trkpt><trkpt lat="46.5402921" lon="12.5324149"><ele>920.0</ele><time>2026-04-26T15:05:00.937Z</time></trkpt><trkpt lat="46.5402082" lon="12.5324919"><ele>918.3333333333333</ele><time>2026-04-26T15:05:02.928Z</time></trkpt><trkpt lat="46.5401601" lon="12.5325993"><ele>916.6666666666666</ele><time>2026-04-26T15:05:05.931Z</time></trkpt><trkpt lat="46.5401236" lon="12.5326905"><ele>915.0</ele><time>2026-04-26T15:05:08.928Z</time></trkpt><trkpt lat="46.540071" lon="12.5327774"><ele>915.0</ele><time>2026-04-26T15:05:11.923Z</time></trkpt><trkpt lat="46.5400183" lon="12.5328819"><ele>915.0</ele><time>2026-04-26T15:05:58.922Z</time></trkpt><trkpt lat="46.5399781" lon="12.5329693"><ele>915.0</ele><time>2026-04-26T15:05:59.925Z</time></trkpt><trkpt lat="46.5399353" lon="12.5330517"><ele>915.0</ele><time>2026-04-26T15:06:00.932Z</time></trkpt><trkpt lat="46.5398861" lon="12.5331296"><ele>915.0</ele><time>2026-04-26T15:06:01.932Z</time></trkpt><trkpt lat="46.5398427" lon="12.5331975"><ele>915.0</ele><time>2026-04-26T15:06:02.926Z</time></trkpt><trkpt lat="46.5397871" lon="12.5333348"><ele>915.2</ele><time>2026-04-26T15:06:04.921Z</time></trkpt><trkpt lat="46.5397579" lon="12.5334222"><ele>915.4</ele><time>2026-04-26T15:06:05.923Z</time></trkpt><trkpt lat="46.5397073" lon="12.5335765"><ele>915.5999999999999</ele><time>2026-04-26T15:06:07.939Z</time></trkpt><trkpt lat="46.5396778" lon="12.5337402"><ele>915.8</ele><time>2026-04-26T15:06:09.926Z</time></trkpt><trkpt lat="46.5396244" lon="12.5338642"><ele>916.0</ele><time>2026-04-26T15:06:11.929Z</time></trkpt><trkpt lat="46.5395698" lon="12.533996"><ele>916.9999999999999</ele><time>2026-04-26T15:06:13.934Z</time></trkpt><trkpt lat="46.5395593" lon="12.5340917"><ele>918.0</ele><time>2026-04-26T15:06:14.933Z</time></trkpt><trkpt lat="46.5395394" lon="12.5342325"><ele>919.0</ele><time>2026-04-26T15:06:16.926Z</time></trkpt><trkpt lat="46.5394739" lon="12.5342553"><ele>920.0</ele><time>2026-04-26T15:06:19.929Z</time></trkpt><trkpt lat="46.5394284" lon="12.5341812"><ele>920.9999999999999</ele><time>2026-04-26T15:06:21.929Z</time></trkpt><trkpt lat="46.5393836" lon="12.5340963"><ele>922.0</ele><time>2026-04-26T15:06:23.937Z</time></trkpt><trkpt lat="46.5393762" lon="12.5339504"><ele>924.1666666666666</ele><time>2026-04-26T15:06:25.926Z</time></trkpt><trkpt lat="46.5393093" lon="12.5339574"><ele>926.3333333333333</ele><time>2026-04-26T15:06:29.928Z</time></trkpt><trkpt lat="46.5392661" lon="12.5340688"><ele>928.5</ele><time>2026-04-26T15:06:31.923Z</time></trkpt><trkpt lat="46.5392207" lon="12.5341915"><ele>930.6666666666667</ele><time>2026-04-26T15:06:33.921Z</time></trkpt><trkpt lat="46.5392087" lon="12.5343326"><ele>932.8333333333334</ele><time>2026-04-26T15:06:35.935Z</time></trkpt><trkpt lat="46.5391632" lon="12.534422"><ele>935.0</ele><time>2026-04-26T15:06:38.935Z</time></trkpt><trkpt lat="46.5390926" lon="12.5344667"><ele>935.0000000000001</ele><time>2026-04-26T15:06:40.931Z</time></trkpt><trkpt lat="46.5389912" lon="12.5344954"><ele>935.0</ele><time>2026-04-26T15:06:42.948Z</time></trkpt><trkpt lat="46.5389175" lon="12.534525"><ele>935.0</ele><time>2026-04-26T15:06:44.927Z</time></trkpt><trkpt lat="46.5388699" lon="12.5345924"><ele>935.0</ele><time>2026-04-26T15:09:14.932Z</time></trkpt><trkpt lat="46.5388197" lon="12.5346539"><ele>935.0000000000001</ele><time>2026-04-26T15:09:17.928Z</time></trkpt><trkpt lat="46.5387537" lon="12.5347213"><ele>935.0</ele><time>2026-04-26T15:09:20.928Z</time></trkpt><trkpt lat="46.5386761" lon="12.5347489"><ele>940.0000000000001</ele><time>2026-04-26T15:09:22.928Z</time></trkpt><trkpt lat="46.5385937" lon="12.534759"><ele>945.0</ele><time>2026-04-26T15:09:24.929Z</time></trkpt><trkpt lat="46.5385091" lon="12.5347477"><ele>950.0</ele><time>2026-04-26T15:09:26.935Z</time></trkpt><trkpt lat="46.5384376" lon="12.5347351"><ele>955.0</ele><time>2026-04-26T15:09:28.93Z</time></trkpt><trkpt lat="46.5383545" lon="12.5347399"><ele>960.0000000000001</ele><time>2026-04-26T15:09:30.939Z</time></trkpt><trkpt lat="46.5382538" lon="12.534738"><ele>965.0</ele><time>2026-04-26T15:09:32.932Z</time></trkpt><trkpt lat="46.5381751" lon="12.5347476"><ele>965.0000000000001</ele><time>2026-04-26T15:09:34.931Z</time></trkpt><trkpt lat="46.5380834" lon="12.5347646"><ele>965.0</ele><time>2026-04-26T15:09:36.94Z</time></trkpt><trkpt lat="46.5379957" lon="12.534788"><ele>965.0</ele><time>2026-04-26T15:09:38.932Z</time></trkpt><trkpt lat="46.5379115" lon="12.534813"><ele>965.0</ele><time>2026-04-26T15:09:40.931Z</time></trkpt><trkpt lat="46.5378383" lon="12.5348295"><ele>965.0000000000001</ele><time>2026-04-26T15:09:42.934Z</time></trkpt><trkpt lat="46.537766" lon="12.5348787"><ele>965.0</ele><time>2026-04-26T15:09:44.937Z</time></trkpt><trkpt lat="46.5376944" lon="12.5349356"><ele>966.3333333333334</ele><time>2026-04-26T15:09:46.929Z</time></trkpt><trkpt lat="46.5376149" lon="12.5349719"><ele>967.6666666666667</ele><time>2026-04-26T15:09:48.932Z</time></trkpt><trkpt lat="46.5375205" lon="12.5350103"><ele>969.0</ele><time>2026-04-26T15:09:50.929Z</time></trkpt><trkpt lat="46.5374102" lon="12.5350607"><ele>970.3333333333333</ele><time>2026-04-26T15:09:52.926Z</time></trkpt><trkpt lat="46.5373283" lon="12.535084"><ele>971.6666666666666</ele><time>2026-04-26T15:09:54.928Z</time></trkpt><trkpt lat="46.5373392" lon="12.5351789"><ele>973.0</ele><time>2026-04-26T15:10:10.938Z</time></trkpt><trkpt lat="46.5373898" lon="12.5353077"><ele>973.8333333333333</ele><time>2026-04-26T15:10:12.937Z</time></trkpt><trkpt lat="46.5374192" lon="12.5353933"><ele>974.6666666666666</ele><time>2026-04-26T15:10:14.942Z</time></trkpt><trkpt lat="46.5374538" lon="12.5355103"><ele>975.5</ele><time>2026-04-26T15:10:17.926Z</time></trkpt><trkpt lat="46.5374627" lon="12.5356263"><ele>976.3333333333333</ele><time>2026-04-26T15:10:19.924Z</time></trkpt><trkpt lat="46.5374749" lon="12.535772"><ele>977.1666666666666</ele><time>2026-04-26T15:10:21.924Z</time></trkpt><trkpt lat="46.5374849" lon="12.5359042"><ele>978.0</ele><time>2026-04-26T15:10:23.93Z</time></trkpt><trkpt lat="46.537495" lon="12.5360253"><ele>978.0</ele><time>2026-04-26T15:10:25.937Z</time></trkpt><trkpt lat="46.5375023" lon="12.5361592"><ele>978.0</ele><time>2026-04-26T15:10:27.927Z</time></trkpt><trkpt lat="46.5375334" lon="12.5362607"><ele>978.0</ele><time>2026-04-26T15:10:29.929Z</time></trkpt><trkpt lat="46.5375657" lon="12.5363481"><ele>978.0</ele><time>2026-04-26T15:10:31.929Z</time></trkpt><trkpt lat="46.5375927" lon="12.536433"><ele>978.0</ele><time>2026-04-26T15:10:33.946Z</time></trkpt><trkpt lat="46.5376313" lon="12.5365593"><ele>978.0</ele><time>2026-04-26T15:10:36.936Z</time></trkpt><trkpt lat="46.5376677" lon="12.5366361"><ele>977.3333333333334</ele><time>2026-04-26T15:10:38.939Z</time></trkpt><trkpt lat="46.5377073" lon="12.5367453"><ele>976.6666666666667</ele><time>2026-04-26T15:10:41.928Z</time></trkpt><trkpt lat="46.537741" lon="12.5368391"><ele>976.0</ele><time>2026-04-26T15:10:43.933Z</time></trkpt><trkpt lat="46.5377742" lon="12.5369707"><ele>975.3333333333334</ele><time>2026-04-26T15:10:45.94Z</time></trkpt><trkpt lat="46.5378074" lon="12.5370839"><ele>974.6666666666667</ele><time>2026-04-26T15:10:47.933Z</time></trkpt><trkpt lat="46.5378287" lon="12.5371789"><ele>974.0</ele><time>2026-04-26T15:10:49.934Z</time></trkpt><trkpt lat="46.537853" lon="12.5373095"><ele>973.6666666666667</ele><time>2026-04-26T15:10:52.929Z</time></trkpt><trkpt lat="46.5378115" lon="12.5374281"><ele>973.3333333333334</ele><time>2026-04-26T15:10:54.928Z</time></trkpt><trkpt lat="46.5377791" lon="12.5375663"><ele>973.0</ele><time>2026-04-26T15:10:56.922Z</time></trkpt><trkpt lat="46.5377257" lon="12.5376752"><ele>972.6666666666667</ele><time>2026-04-26T15:10:58.923Z</time></trkpt><trkpt lat="46.537668" lon="12.537745"><ele>972.3333333333334</ele><time>2026-04-26T15:11:00.929Z</time></trkpt><trkpt lat="46.5376215" lon="12.5378503"><ele>972.0</ele><time>2026-04-26T15:11:02.925Z</time></trkpt><trkpt lat="46.5376213" lon="12.5379445"><ele>972.8333333333334</ele><time>2026-04-26T15:11:04.933Z</time></trkpt><trkpt lat="46.5376203" lon="12.5380725"><ele>973.6666666666667</ele><time>2026-04-26T15:11:07.921Z</time></trkpt><trkpt lat="46.5376437" lon="12.5381853"><ele>974.5</ele><time>2026-04-26T15:11:10.927Z</time></trkpt><trkpt lat="46.5377321" lon="12.5382767"><ele>975.3333333333334</ele><time>2026-04-26T15:11:13.92Z</time></trkpt><trkpt lat="46.5377983" lon="12.5383172"><ele>976.1666666666667</ele><time>2026-04-26T15:11:14.931Z</time></trkpt><trkpt lat="46.5378704" lon="12.5383684"><ele>977.0</ele><time>2026-04-26T15:11:15.927Z</time></trkpt><trkpt lat="46.5379355" lon="12.5384292"><ele>977.8333333333334</ele><time>2026-04-26T15:11:16.922Z</time></trkpt><trkpt lat="46.5380057" lon="12.5384895"><ele>978.6666666666667</ele><time>2026-04-26T15:11:17.925Z</time></trkpt><trkpt lat="46.5380693" lon="12.538538"><ele>979.5</ele><time>2026-04-26T15:11:18.931Z</time></trkpt><trkpt lat="46.5381371" lon="12.5385967"><ele>980.3333333333333</ele><time>2026-04-26T15:11:19.931Z</time></trkpt><trkpt lat="46.5381908" lon="12.5386539"><ele>981.1666666666666</ele><time>2026-04-26T15:11:20.93Z</time></trkpt><trkpt lat="46.538296" lon="12.5387715"><ele>982.0</ele><time>2026-04-26T15:11:22.927Z</time></trkpt><trkpt lat="46.5383982" lon="12.538885"><ele>983.1666666666666</ele><time>2026-04-26T15:11:24.93Z</time></trkpt><trkpt lat="46.538457" lon="12.5389345"><ele>984.3333333333333</ele><time>2026-04-26T15:11:25.931Z</time></trkpt><trkpt lat="46.538521" lon="12.5389575"><ele>985.5</ele><time>2026-04-26T15:11:26.922Z</time></trkpt><trkpt lat="46.5385952" lon="12.5389842"><ele>986.6666666666667</ele><time>2026-04-26T15:11:27.932Z</time></trkpt><trkpt lat="46.5386831" lon="12.5390065"><ele>987.8333333333334</ele><time>2026-04-26T15:11:28.926Z</time></trkpt><trkpt lat="46.5387705" lon="12.5390253"><ele>989.0</ele><time>2026-04-26T15:11:29.926Z</time></trkpt><trkpt lat="46.5388513" lon="12.5390353"><ele>989.1666666666667</ele><time>2026-04-26T15:11:30.932Z</time></trkpt><trkpt lat="46.5389329" lon="12.5390479"><ele>989.3333333333334</ele><time>2026-04-26T15:11:31.927Z</time></trkpt><trkpt lat="46.5390157" lon="12.5390794"><ele>989.5</ele><time>2026-04-26T15:11:32.924Z</time></trkpt><trkpt lat="46.5391008" lon="12.5391165"><ele>989.6666666666667</ele><time>2026-04-26T15:11:33.929Z</time></trkpt><trkpt lat="46.5391804" lon="12.5391443"><ele>989.8333333333334</ele><time>2026-04-26T15:11:34.928Z</time></trkpt><trkpt lat="46.5392579" lon="12.539168"><ele>990.0</ele><time>2026-04-26T15:11:35.93Z</time></trkpt><trkpt lat="46.5393302" lon="12.5392115"><ele>990.0</ele><time>2026-04-26T15:11:36.924Z</time></trkpt><trkpt lat="46.5393986" lon="12.5392634"><ele>990.0</ele><time>2026-04-26T15:11:37.93Z</time></trkpt><trkpt lat="46.5394514" lon="12.539325"><ele>990.0</ele><time>2026-04-26T15:11:38.933Z</time></trkpt><trkpt lat="46.5395099" lon="12.5394166"><ele>990.0</ele><time>2026-04-26T15:11:40.928Z</time></trkpt><trkpt lat="46.5394553" lon="12.5395523"><ele>990.0</ele><time>2026-04-26T15:11:43.936Z</time></trkpt><trkpt lat="46.5394677" lon="12.5396638"><ele>990.0</ele><time>2026-04-26T15:11:45.926Z</time></trkpt><trkpt lat="46.5395273" lon="12.5398128"><ele>988.6</ele><time>2026-04-26T15:11:47.931Z</time></trkpt><trkpt lat="46.5395912" lon="12.5399547"><ele>987.2</ele><time>2026-04-26T15:11:49.945Z</time></trkpt><trkpt lat="46.5396471" lon="12.5401166"><ele>985.8</ele><time>2026-04-26T15:11:51.923Z</time></trkpt><trkpt lat="46.5396627" lon="12.540225"><ele>984.4</ele><time>2026-04-26T15:11:52.934Z</time></trkpt><trkpt lat="46.5396714" lon="12.5403318"><ele>983.0</ele><time>2026-04-26T15:11:53.92Z</time></trkpt><trkpt lat="46.5396689" lon="12.5404332"><ele>982.9999999999999</ele><time>2026-04-26T15:11:54.937Z</time></trkpt><trkpt lat="46.5396582" lon="12.5405316"><ele>983.0</ele><time>2026-04-26T15:11:55.931Z</time></trkpt><trkpt lat="46.5396527" lon="12.5406304"><ele>982.9999999999999</ele><time>2026-04-26T15:11:56.925Z</time></trkpt><trkpt lat="46.5396452" lon="12.5407371"><ele>982.9999999999999</ele><time>2026-04-26T15:11:57.931Z</time></trkpt><trkpt lat="46.5396428" lon="12.5408413"><ele>983.0</ele><time>2026-04-26T15:11:58.944Z</time></trkpt><trkpt lat="46.5396341" lon="12.5409491"><ele>982.9999999999999</ele><time>2026-04-26T15:11:59.931Z</time></trkpt><trkpt lat="46.539628" lon="12.5410455"><ele>982.9999999999999</ele><time>2026-04-26T15:12:00.93Z</time></trkpt><trkpt lat="46.5396041" lon="12.5411414"><ele>983.8333333333334</ele><time>2026-04-26T15:12:01.934Z</time></trkpt><trkpt lat="46.5395775" lon="12.541232"><ele>984.6666666666667</ele><time>2026-04-26T15:12:02.931Z</time></trkpt><trkpt lat="46.539539" lon="12.5413104"><ele>985.5</ele><time>2026-04-26T15:12:03.931Z</time></trkpt><trkpt lat="46.5394819" lon="12.5413917"><ele>986.3333333333333</ele><time>2026-04-26T15:12:04.927Z</time></trkpt><trkpt lat="46.5394235" lon="12.5414677"><ele>987.1666666666666</ele><time>2026-04-26T15:12:05.94Z</time></trkpt><trkpt lat="46.5393533" lon="12.5415474"><ele>988.0</ele><time>2026-04-26T15:12:06.933Z</time></trkpt><trkpt lat="46.5392783" lon="12.541621"><ele>992.3333333333333</ele><time>2026-04-26T15:12:07.929Z</time></trkpt><trkpt lat="46.5391997" lon="12.5417115"><ele>996.6666666666666</ele><time>2026-04-26T15:12:08.931Z</time></trkpt><trkpt lat="46.5391239" lon="12.5417859"><ele>1001.0</ele><time>2026-04-26T15:12:09.936Z</time></trkpt><trkpt lat="46.5390531" lon="12.5418515"><ele>1005.3333333333333</ele><time>2026-04-26T15:12:10.928Z</time></trkpt><trkpt lat="46.538988" lon="12.5419047"><ele>1009.6666666666666</ele><time>2026-04-26T15:12:11.935Z</time></trkpt><trkpt lat="46.5389019" lon="12.5419357"><ele>1014.0</ele><time>2026-04-26T15:12:12.92Z</time></trkpt><trkpt lat="46.5388249" lon="12.5419782"><ele>1014.0</ele><time>2026-04-26T15:12:13.927Z</time></trkpt><trkpt lat="46.5387538" lon="12.5420331"><ele>1014.0000000000001</ele><time>2026-04-26T15:12:14.929Z</time></trkpt><trkpt lat="46.5386822" lon="12.5420926"><ele>1014.0000000000001</ele><time>2026-04-26T15:12:15.929Z</time></trkpt><trkpt lat="46.5385998" lon="12.5421359"><ele>1014.0</ele><time>2026-04-26T15:12:16.934Z</time></trkpt><trkpt lat="46.5385069" lon="12.5421874"><ele>1014.0</ele><time>2026-04-26T15:12:17.928Z</time></trkpt><trkpt lat="46.5384127" lon="12.5422486"><ele>1017.75</ele><time>2026-04-26T15:12:18.923Z</time></trkpt><trkpt lat="46.5383091" lon="12.5423263"><ele>1021.5</ele><time>2026-04-26T15:12:19.923Z</time></trkpt><trkpt lat="46.538199" lon="12.5424057"><ele>1025.25</ele><time>2026-04-26T15:12:20.933Z</time></trkpt><trkpt lat="46.5380831" lon="12.5424903"><ele>1029.0</ele><time>2026-04-26T15:12:21.927Z</time></trkpt><trkpt lat="46.5379675" lon="12.5425714"><ele>1031.75</ele><time>2026-04-26T15:12:22.923Z</time></trkpt><trkpt lat="46.5378467" lon="12.5426657"><ele>1034.5</ele><time>2026-04-26T15:12:23.929Z</time></trkpt><trkpt lat="46.5377278" lon="12.5427544"><ele>1037.25</ele><time>2026-04-26T15:12:24.923Z</time></trkpt><trkpt lat="46.5376238" lon="12.5428285"><ele>1040.0</ele><time>2026-04-26T15:12:25.931Z</time></trkpt><trkpt lat="46.5375484" lon="12.5428914"><ele>1040.0</ele><time>2026-04-26T15:12:26.937Z</time></trkpt><trkpt lat="46.5374894" lon="12.5429695"><ele>1040.0</ele><time>2026-04-26T15:12:27.935Z</time></trkpt><trkpt lat="46.537443" lon="12.5430717"><ele>1040.0</ele><time>2026-04-26T15:12:28.928Z</time></trkpt><trkpt lat="46.5374021" lon="12.5431935"><ele>1040.0</ele><time>2026-04-26T15:12:29.927Z</time></trkpt><trkpt lat="46.5373697" lon="12.5433171"><ele>1040.0</ele><time>2026-04-26T15:12:30.927Z</time></trkpt><trkpt lat="46.537337" lon="12.5434603"><ele>1040.0</ele><time>2026-04-26T15:12:31.932Z</time></trkpt><trkpt lat="46.5373138" lon="12.543593"><ele>1040.0</ele><time>2026-04-26T15:12:32.927Z</time></trkpt><trkpt lat="46.5372811" lon="12.5437114"><ele>1040.0</ele><time>2026-04-26T15:12:33.931Z</time></trkpt><trkpt lat="46.5372494" lon="12.5438344"><ele>1040.0</ele><time>2026-04-26T15:12:34.93Z</time></trkpt><trkpt lat="46.5372168" lon="12.5439569"><ele>1040.0</ele><time>2026-04-26T15:12:35.929Z</time></trkpt><trkpt lat="46.537179" lon="12.5440763"><ele>1039.5</ele><time>2026-04-26T15:12:36.936Z</time></trkpt><trkpt lat="46.5371518" lon="12.5441807"><ele>1039.0</ele><time>2026-04-26T15:12:37.927Z</time></trkpt><trkpt lat="46.537126" lon="12.5442828"><ele>1038.5</ele><time>2026-04-26T15:12:38.936Z</time></trkpt><trkpt lat="46.5370866" lon="12.544385"><ele>1038.0</ele><time>2026-04-26T15:12:39.93Z</time></trkpt><trkpt lat="46.53704" lon="12.5444861"><ele>1037.5</ele><time>2026-04-26T15:12:40.92Z</time></trkpt><trkpt lat="46.5369897" lon="12.5445875"><ele>1037.0</ele><time>2026-04-26T15:12:41.935Z</time></trkpt><trkpt lat="46.5369339" lon="12.544673"><ele>1039.8</ele><time>2026-04-26T15:12:42.924Z</time></trkpt><trkpt lat="46.5368664" lon="12.5447548"><ele>1042.6</ele><time>2026-04-26T15:12:43.928Z</time></trkpt><trkpt lat="46.5367997" lon="12.5448431"><ele>1045.3999999999999</ele><time>2026-04-26T15:12:44.937Z</time></trkpt><trkpt lat="46.5367422" lon="12.5449378"><ele>1048.2</ele><time>2026-04-26T15:12:45.934Z</time></trkpt><trkpt lat="46.5366856" lon="12.5450376"><ele>1051.0</ele><time>2026-04-26T15:12:46.938Z</time></trkpt><trkpt lat="46.5366276" lon="12.5451614"><ele>1051.0</ele><time>2026-04-26T15:12:47.93Z</time></trkpt><trkpt lat="46.536575" lon="12.5452669"><ele>1051.0</ele><time>2026-04-26T15:12:48.931Z</time></trkpt><trkpt lat="46.536522" lon="12.5453713"><ele>1051.0</ele><time>2026-04-26T15:12:49.926Z</time></trkpt><trkpt lat="46.5364664" lon="12.5454637"><ele>1051.0</ele><time>2026-04-26T15:12:50.924Z</time></trkpt><trkpt lat="46.5364092" lon="12.5455503"><ele>1051.0</ele><time>2026-04-26T15:12:51.935Z</time></trkpt><trkpt lat="46.5363567" lon="12.5456122"><ele>1051.0</ele><time>2026-04-26T15:12:52.924Z</time></trkpt><trkpt lat="46.5362511" lon="12.5456392"><ele>1054.1666666666665</ele><time>2026-04-26T15:12:54.929Z</time></trkpt><trkpt lat="46.5361743" lon="12.5455627"><ele>1057.3333333333333</ele><time>2026-04-26T15:12:56.929Z</time></trkpt><trkpt lat="46.5361151" lon="12.5454641"><ele>1060.5</ele><time>2026-04-26T15:12:57.925Z</time></trkpt><trkpt lat="46.5360631" lon="12.5453521"><ele>1063.6666666666667</ele><time>2026-04-26T15:12:58.933Z</time></trkpt><trkpt lat="46.5360182" lon="12.5452412"><ele>1066.8333333333335</ele><time>2026-04-26T15:12:59.922Z</time></trkpt><trkpt lat="46.5359723" lon="12.5451419"><ele>1070.0</ele><time>2026-04-26T15:13:00.941Z</time></trkpt><trkpt lat="46.5359053" lon="12.5450276"><ele>1070.0</ele><time>2026-04-26T15:13:02.936Z</time></trkpt><trkpt lat="46.5358335" lon="12.5450615"><ele>1070.0</ele><time>2026-04-26T15:13:04.925Z</time></trkpt><trkpt lat="46.5357535" lon="12.5452348"><ele>1070.0</ele><time>2026-04-26T15:13:06.92Z</time></trkpt><trkpt lat="46.5357303" lon="12.5453635"><ele>1070.0</ele><time>2026-04-26T15:13:07.928Z</time></trkpt><trkpt lat="46.5357021" lon="12.5455163"><ele>1070.0</ele><time>2026-04-26T15:13:08.937Z</time></trkpt><trkpt lat="46.5356893" lon="12.5456764"><ele>1070.4</ele><time>2026-04-26T15:13:09.925Z</time></trkpt><trkpt lat="46.5356678" lon="12.5458296"><ele>1070.8</ele><time>2026-04-26T15:13:10.923Z</time></trkpt><trkpt lat="46.5356476" lon="12.5459779"><ele>1071.2</ele><time>2026-04-26T15:13:11.926Z</time></trkpt><trkpt lat="46.5356255" lon="12.546126"><ele>1071.6</ele><time>2026-04-26T15:13:12.922Z</time></trkpt><trkpt lat="46.5355975" lon="12.5462702"><ele>1072.0</ele><time>2026-04-26T15:13:13.926Z</time></trkpt><trkpt lat="46.5355655" lon="12.5464118"><ele>1073.4</ele><time>2026-04-26T15:13:14.932Z</time></trkpt><trkpt lat="46.5355309" lon="12.5465499"><ele>1074.8000000000002</ele><time>2026-04-26T15:13:15.922Z</time></trkpt><trkpt lat="46.5355111" lon="12.5466948"><ele>1076.2</ele><time>2026-04-26T15:13:16.931Z</time></trkpt><trkpt lat="46.5354965" lon="12.5468434"><ele>1077.6000000000001</ele><time>2026-04-26T15:13:17.937Z</time></trkpt><trkpt lat="46.5354804" lon="12.5470001"><ele>1079.0</ele><time>2026-04-26T15:13:18.921Z</time></trkpt><trkpt lat="46.5354697" lon="12.5471395"><ele>1079.0</ele><time>2026-04-26T15:13:19.93Z</time></trkpt><trkpt lat="46.5354657" lon="12.5472776"><ele>1079.0</ele><time>2026-04-26T15:13:20.928Z</time></trkpt><trkpt lat="46.5354575" lon="12.5474092"><ele>1079.0</ele><time>2026-04-26T15:13:21.933Z</time></trkpt><trkpt lat="46.5354399" lon="12.5475517"><ele>1079.0</ele><time>2026-04-26T15:13:22.928Z</time></trkpt><trkpt lat="46.5354167" lon="12.5476849"><ele>1079.0</ele><time>2026-04-26T15:13:23.938Z</time></trkpt><trkpt lat="46.5353883" lon="12.547816"><ele>1085.1666666666667</ele><time>2026-04-26T15:13:24.926Z</time></trkpt><trkpt lat="46.5353581" lon="12.5479493"><ele>1091.3333333333335</ele><time>2026-04-26T15:13:25.925Z</time></trkpt><trkpt lat="46.535336" lon="12.5480683"><ele>1097.5</ele><time>2026-04-26T15:13:26.93Z</time></trkpt><trkpt lat="46.5353102" lon="12.5481862"><ele>1103.6666666666667</ele><time>2026-04-26T15:13:27.925Z</time></trkpt><trkpt lat="46.5352857" lon="12.5482929"><ele>1109.8333333333333</ele><time>2026-04-26T15:13:28.94Z</time></trkpt><trkpt lat="46.535264" lon="12.5483928"><ele>1116.0</ele><time>2026-04-26T15:13:29.923Z</time></trkpt><trkpt lat="46.5352423" lon="12.5484821"><ele>1116.0</ele><time>2026-04-26T15:13:30.922Z</time></trkpt><trkpt lat="46.5352301" lon="12.5486653"><ele>1116.0</ele><time>2026-04-26T15:13:32.928Z</time></trkpt><trkpt lat="46.5352254" lon="12.5487693"><ele>1116.0</ele><time>2026-04-26T15:13:33.929Z</time></trkpt><trkpt lat="46.5352261" lon="12.5488883"><ele>1116.0</ele><time>2026-04-26T15:13:34.932Z</time></trkpt><trkpt lat="46.5352271" lon="12.5489969"><ele>1116.0</ele><time>2026-04-26T15:13:35.925Z</time></trkpt><trkpt lat="46.5352261" lon="12.5491154"><ele>1116.0</ele><time>2026-04-26T15:13:36.934Z</time></trkpt><trkpt lat="46.5352284" lon="12.5492168"><ele>1114.7142857142856</ele><time>2026-04-26T15:13:37.934Z</time></trkpt><trkpt lat="46.535232" lon="12.5493161"><ele>1113.4285714285713</ele><time>2026-04-26T15:13:38.93Z</time></trkpt><trkpt lat="46.5352373" lon="12.5494211"><ele>1112.142857142857</ele><time>2026-04-26T15:13:39.932Z</time></trkpt><trkpt lat="46.535241" lon="12.5495267"><ele>1110.8571428571427</ele><time>2026-04-26T15:13:40.929Z</time></trkpt><trkpt lat="46.5352495" lon="12.5496313"><ele>1109.5714285714284</ele><time>2026-04-26T15:13:41.924Z</time></trkpt><trkpt lat="46.535266" lon="12.5497311"><ele>1108.2857142857142</ele><time>2026-04-26T15:13:42.94Z</time></trkpt><trkpt lat="46.5352781" lon="12.5498329"><ele>1107.0</ele><time>2026-04-26T15:13:43.935Z</time></trkpt><trkpt lat="46.535287" lon="12.5499289"><ele>1106.857142857143</ele><time>2026-04-26T15:13:44.924Z</time></trkpt><trkpt lat="46.5353002" lon="12.5500236"><ele>1106.7142857142858</ele><time>2026-04-26T15:13:45.921Z</time></trkpt><trkpt lat="46.5353077" lon="12.550123"><ele>1106.5714285714284</ele><time>2026-04-26T15:13:46.927Z</time></trkpt><trkpt lat="46.5353168" lon="12.5502219"><ele>1106.4285714285716</ele><time>2026-04-26T15:13:47.928Z</time></trkpt><trkpt lat="46.5353197" lon="12.550321"><ele>1106.2857142857142</ele><time>2026-04-26T15:13:48.931Z</time></trkpt><trkpt lat="46.5353145" lon="12.5504186"><ele>1106.142857142857</ele><time>2026-04-26T15:13:49.936Z</time></trkpt><trkpt lat="46.5353013" lon="12.5505146"><ele>1106.0</ele><time>2026-04-26T15:13:50.92Z</time></trkpt><trkpt lat="46.5352705" lon="12.5506094"><ele>1105.5</ele><time>2026-04-26T15:13:51.932Z</time></trkpt><trkpt lat="46.5352272" lon="12.550711"><ele>1105.0</ele><time>2026-04-26T15:13:52.922Z</time></trkpt><trkpt lat="46.5351785" lon="12.550805"><ele>1104.5</ele><time>2026-04-26T15:13:53.933Z</time></trkpt><trkpt lat="46.5351309" lon="12.5508883"><ele>1104.0</ele><time>2026-04-26T15:13:54.924Z</time></trkpt><trkpt lat="46.5350846" lon="12.5509621"><ele>1103.5</ele><time>2026-04-26T15:13:55.933Z</time></trkpt><trkpt lat="46.535025" lon="12.5510342"><ele>1103.0</ele><time>2026-04-26T15:13:56.934Z</time></trkpt><trkpt lat="46.5349661" lon="12.5511061"><ele>1103.0</ele><time>2026-04-26T15:13:57.927Z</time></trkpt><trkpt lat="46.5349041" lon="12.551177"><ele>1103.0</ele><time>2026-04-26T15:13:58.931Z</time></trkpt><trkpt lat="46.5348408" lon="12.5512469"><ele>1103.0</ele><time>2026-04-26T15:13:59.928Z</time></trkpt><trkpt lat="46.5347801" lon="12.5513145"><ele>1103.0</ele><time>2026-04-26T15:14:00.928Z</time></trkpt><trkpt lat="46.5347174" lon="12.5513822"><ele>1103.0</ele><time>2026-04-26T15:14:01.921Z</time></trkpt><trkpt lat="46.5346569" lon="12.5514508"><ele>1103.0</ele><time>2026-04-26T15:14:02.932Z</time></trkpt><trkpt lat="46.5345909" lon="12.5515221"><ele>1106.2857142857144</ele><time>2026-04-26T15:14:03.933Z</time></trkpt><trkpt lat="46.5345336" lon="12.5515739"><ele>1109.5714285714287</ele><time>2026-04-26T15:14:04.928Z</time></trkpt><trkpt lat="46.5344842" lon="12.5516323"><ele>1112.857142857143</ele><time>2026-04-26T15:14:05.939Z</time></trkpt><trkpt lat="46.5344227" lon="12.5516985"><ele>1116.1428571428573</ele><time>2026-04-26T15:14:06.925Z</time></trkpt><trkpt lat="46.5343632" lon="12.5517749"><ele>1119.4285714285716</ele><time>2026-04-26T15:14:07.927Z</time></trkpt><trkpt lat="46.5343124" lon="12.5518604"><ele>1122.7142857142858</ele><time>2026-04-26T15:14:08.934Z</time></trkpt><trkpt lat="46.5342663" lon="12.5519407"><ele>1126.0</ele><time>2026-04-26T15:14:09.924Z</time></trkpt><trkpt lat="46.5342141" lon="12.5520095"><ele>1126.0</ele><time>2026-04-26T15:14:10.941Z</time></trkpt><trkpt lat="46.5341331" lon="12.5520838"><ele>1126.0</ele><time>2026-04-26T15:14:12.932Z</time></trkpt><trkpt lat="46.5340751" lon="12.5521707"><ele>1126.0</ele><time>2026-04-26T15:14:14.922Z</time></trkpt><trkpt lat="46.5339937" lon="12.5521693"><ele>1126.0</ele><time>2026-04-26T15:14:16.928Z</time></trkpt><trkpt lat="46.5339735" lon="12.5520754"><ele>1126.0</ele><time>2026-04-26T15:14:18.93Z</time></trkpt><trkpt lat="46.5340195" lon="12.5519443"><ele>1126.0</ele><time>2026-04-26T15:14:20.932Z</time></trkpt><trkpt lat="46.534061" lon="12.551802"><ele>1126.0</ele><time>2026-04-26T15:14:22.932Z</time></trkpt><trkpt lat="46.5340462" lon="12.5516987"><ele>1126.0</ele><time>2026-04-26T15:14:24.934Z</time></trkpt><trkpt lat="46.5339758" lon="12.551674"><ele>1126.0</ele><time>2026-04-26T15:14:26.933Z</time></trkpt><trkpt lat="46.5339081" lon="12.5517298"><ele>1126.0</ele><time>2026-04-26T15:14:28.923Z</time></trkpt><trkpt lat="46.5338625" lon="12.5518725"><ele>1126.0</ele><time>2026-04-26T15:14:30.935Z</time></trkpt><trkpt lat="46.5338239" lon="12.5519635"><ele>1126.0</ele><time>2026-04-26T15:14:31.933Z</time></trkpt><trkpt lat="46.5337786" lon="12.5520442"><ele>1125.1666666666665</ele><time>2026-04-26T15:14:32.935Z</time></trkpt><trkpt lat="46.5337378" lon="12.5521343"><ele>1124.3333333333333</ele><time>2026-04-26T15:14:33.924Z</time></trkpt><trkpt lat="46.5336999" lon="12.5522367"><ele>1123.5</ele><time>2026-04-26T15:14:34.932Z</time></trkpt><trkpt lat="46.5336603" lon="12.5523438"><ele>1122.6666666666667</ele><time>2026-04-26T15:14:35.93Z</time></trkpt><trkpt lat="46.5336171" lon="12.5524628"><ele>1121.8333333333335</ele><time>2026-04-26T15:14:36.933Z</time></trkpt><trkpt lat="46.53358" lon="12.5525664"><ele>1121.0</ele><time>2026-04-26T15:14:37.932Z</time></trkpt><trkpt lat="46.5335434" lon="12.5526586"><ele>1124.5714285714287</ele><time>2026-04-26T15:14:38.927Z</time></trkpt><trkpt lat="46.5335087" lon="12.5527385"><ele>1128.142857142857</ele><time>2026-04-26T15:14:39.94Z</time></trkpt><trkpt lat="46.5334621" lon="12.5528016"><ele>1131.7142857142858</ele><time>2026-04-26T15:14:40.928Z</time></trkpt><trkpt lat="46.5334101" lon="12.5528724"><ele>1135.2857142857142</ele><time>2026-04-26T15:14:41.924Z</time></trkpt><trkpt lat="46.5333604" lon="12.5529404"><ele>1138.857142857143</ele><time>2026-04-26T15:14:42.937Z</time></trkpt><trkpt lat="46.5333226" lon="12.5530158"><ele>1142.4285714285716</ele><time>2026-04-26T15:14:43.934Z</time></trkpt><trkpt lat="46.5333092" lon="12.5531088"><ele>1146.0</ele><time>2026-04-26T15:14:44.932Z</time></trkpt><trkpt lat="46.5332942" lon="12.553227"><ele>1146.0</ele><time>2026-04-26T15:14:45.934Z</time></trkpt><trkpt lat="46.5332771" lon="12.553353"><ele>1146.0</ele><time>2026-04-26T15:14:46.924Z</time></trkpt><trkpt lat="46.533265" lon="12.5535108"><ele>1146.0</ele><time>2026-04-26T15:14:47.928Z</time></trkpt><trkpt lat="46.5332555" lon="12.5536503"><ele>1146.0</ele><time>2026-04-26T15:14:48.93Z</time></trkpt><trkpt lat="46.5332453" lon="12.5537691"><ele>1146.0</ele><time>2026-04-26T15:14:49.93Z</time></trkpt><trkpt lat="46.5332402" lon="12.5538858"><ele>1146.1666666666667</ele><time>2026-04-26T15:14:50.931Z</time></trkpt><trkpt lat="46.5332422" lon="12.5539876"><ele>1146.3333333333333</ele><time>2026-04-26T15:14:51.925Z</time></trkpt><trkpt lat="46.533218" lon="12.554122"><ele>1146.5</ele><time>2026-04-26T15:14:53.945Z</time></trkpt><trkpt lat="46.5331539" lon="12.5541288"><ele>1146.6666666666665</ele><time>2026-04-26T15:14:55.926Z</time></trkpt><trkpt lat="46.533097" lon="12.5540572"><ele>1146.8333333333333</ele><time>2026-04-26T15:14:57.924Z</time></trkpt><trkpt lat="46.5330691" lon="12.5539012"><ele>1147.0</ele><time>2026-04-26T15:14:59.931Z</time></trkpt><trkpt lat="46.5330614" lon="12.5538025"><ele>1146.8333333333333</ele><time>2026-04-26T15:15:00.935Z</time></trkpt><trkpt lat="46.5330485" lon="12.5537012"><ele>1146.6666666666665</ele><time>2026-04-26T15:15:01.922Z</time></trkpt><trkpt lat="46.5330238" lon="12.5536107"><ele>1146.5</ele><time>2026-04-26T15:15:02.927Z</time></trkpt><trkpt lat="46.53299" lon="12.5535108"><ele>1146.3333333333333</ele><time>2026-04-26T15:15:03.934Z</time></trkpt><trkpt lat="46.5329615" lon="12.5534158"><ele>1146.1666666666667</ele><time>2026-04-26T15:15:04.924Z</time></trkpt><trkpt lat="46.5329265" lon="12.5532824"><ele>1146.0</ele><time>2026-04-26T15:15:06.931Z</time></trkpt><trkpt lat="46.5328534" lon="12.5532315"><ele>1152.6</ele><time>2026-04-26T15:15:08.929Z</time></trkpt><trkpt lat="46.5327848" lon="12.5533105"><ele>1159.1999999999998</ele><time>2026-04-26T15:15:10.933Z</time></trkpt><trkpt lat="46.5328063" lon="12.5534994"><ele>1165.8000000000002</ele><time>2026-04-26T15:15:12.936Z</time></trkpt><trkpt lat="46.5328268" lon="12.5536284"><ele>1172.4</ele><time>2026-04-26T15:15:13.934Z</time></trkpt><trkpt lat="46.5328338" lon="12.5537275"><ele>1179.0</ele><time>2026-04-26T15:15:14.926Z</time></trkpt><trkpt lat="46.5328017" lon="12.5539094"><ele>1179.0</ele><time>2026-04-26T15:15:16.942Z</time></trkpt><trkpt lat="46.532789" lon="12.5540151"><ele>1179.0</ele><time>2026-04-26T15:15:17.932Z</time></trkpt><trkpt lat="46.5327908" lon="12.554131"><ele>1179.0</ele><time>2026-04-26T15:15:18.952Z</time></trkpt><trkpt lat="46.5328047" lon="12.5542239"><ele>1179.0</ele><time>2026-04-26T15:15:19.923Z</time></trkpt><trkpt lat="46.5328079" lon="12.5543552"><ele>1179.0</ele><time>2026-04-26T15:15:21.927Z</time></trkpt><trkpt lat="46.5327387" lon="12.5543868"><ele>1179.0</ele><time>2026-04-26T15:15:23.934Z</time></trkpt><trkpt lat="46.5326887" lon="12.5542732"><ele>1179.0</ele><time>2026-04-26T15:15:25.924Z</time></trkpt><trkpt lat="46.5326703" lon="12.5541693"><ele>1179.0</ele><time>2026-04-26T15:15:26.927Z</time></trkpt><trkpt lat="46.5326595" lon="12.5540562"><ele>1179.0</ele><time>2026-04-26T15:15:27.932Z</time></trkpt><trkpt lat="46.5326384" lon="12.5539478"><ele>1179.0</ele><time>2026-04-26T15:15:28.934Z</time></trkpt><trkpt lat="46.532612" lon="12.5538436"><ele>1179.0</ele><time>2026-04-26T15:15:29.926Z</time></trkpt><trkpt lat="46.5325817" lon="12.553737"><ele>1179.0</ele><time>2026-04-26T15:15:30.93Z</time></trkpt><trkpt lat="46.53255" lon="12.5536346"><ele>1179.0</ele><time>2026-04-26T15:15:31.929Z</time></trkpt><trkpt lat="46.5325187" lon="12.5535542"><ele>1179.0</ele><time>2026-04-26T15:15:32.927Z</time></trkpt><trkpt lat="46.532465" lon="12.5534547"><ele>1179.0</ele><time>2026-04-26T15:15:34.929Z</time></trkpt><trkpt lat="46.5323967" lon="12.5535031"><ele>1179.0</ele><time>2026-04-26T15:15:36.931Z</time></trkpt><trkpt lat="46.532398" lon="12.5536436"><ele>1179.0</ele><time>2026-04-26T15:15:38.933Z</time></trkpt><trkpt lat="46.5324243" lon="12.5537311"><ele>1179.0</ele><time>2026-04-26T15:15:39.932Z</time></trkpt><trkpt lat="46.532446" lon="12.5538305"><ele>1179.0</ele><time>2026-04-26T15:15:40.931Z</time></trkpt><trkpt lat="46.5324598" lon="12.5539528"><ele>1179.0</ele><time>2026-04-26T15:15:41.926Z</time></trkpt><trkpt lat="46.53246" lon="12.5540811"><ele>1179.0</ele><time>2026-04-26T15:15:42.926Z</time></trkpt><trkpt lat="46.5324658" lon="12.5542186"><ele>1179.0</ele><time>2026-04-26T15:15:43.925Z</time></trkpt><trkpt lat="46.5324727" lon="12.5543551"><ele>1179.0</ele><time>2026-04-26T15:15:44.929Z</time></trkpt><trkpt lat="46.5324754" lon="12.5544522"><ele>1179.0</ele><time>2026-04-26T15:15:45.932Z</time></trkpt><trkpt lat="46.5324455" lon="12.5545812"><ele>1179.0</ele><time>2026-04-26T15:15:47.921Z</time></trkpt><trkpt lat="46.5323779" lon="12.5545778"><ele>1179.0</ele><time>2026-04-26T15:15:49.934Z</time></trkpt><trkpt lat="46.5323659" lon="12.5544755"><ele>1179.0</ele><time>2026-04-26T15:15:51.934Z</time></trkpt><trkpt lat="46.5323727" lon="12.5543777"><ele>1179.0</ele><time>2026-04-26T15:15:52.928Z</time></trkpt><trkpt lat="46.5323651" lon="12.5542693"><ele>1179.0</ele><time>2026-04-26T15:15:53.933Z</time></trkpt><trkpt lat="46.5323412" lon="12.554155"><ele>1179.0</ele><time>2026-04-26T15:15:54.927Z</time></trkpt><trkpt lat="46.532307" lon="12.5540344"><ele>1179.0</ele><time>2026-04-26T15:15:55.936Z</time></trkpt><trkpt lat="46.5322627" lon="12.5539181"><ele>1179.0</ele><time>2026-04-26T15:15:56.924Z</time></trkpt><trkpt lat="46.5322179" lon="12.5538014"><ele>1179.0</ele><time>2026-04-26T15:15:57.925Z</time></trkpt><trkpt lat="46.5321874" lon="12.5537186"><ele>1179.0</ele><time>2026-04-26T15:15:58.936Z</time></trkpt><trkpt lat="46.532125" lon="12.5536775"><ele>1179.0</ele><time>2026-04-26T15:16:00.923Z</time></trkpt><trkpt lat="46.5320812" lon="12.5537568"><ele>1179.0</ele><time>2026-04-26T15:16:02.939Z</time></trkpt><trkpt lat="46.5321013" lon="12.5538871"><ele>1179.0</ele><time>2026-04-26T15:16:04.934Z</time></trkpt><trkpt lat="46.5321128" lon="12.5539785"><ele>1179.0</ele><time>2026-04-26T15:16:05.937Z</time></trkpt><trkpt lat="46.5321249" lon="12.5541398"><ele>1179.0</ele><time>2026-04-26T15:16:07.925Z</time></trkpt><trkpt lat="46.5321093" lon="12.554236"><ele>1179.0</ele><time>2026-04-26T15:16:08.929Z</time></trkpt><trkpt lat="46.5320995" lon="12.554341"><ele>1179.0</ele><time>2026-04-26T15:16:09.923Z</time></trkpt><trkpt lat="46.5320946" lon="12.5544636"><ele>1179.0</ele><time>2026-04-26T15:16:10.931Z</time></trkpt><trkpt lat="46.5320856" lon="12.5545716"><ele>1186.8</ele><time>2026-04-26T15:16:11.925Z</time></trkpt><trkpt lat="46.5320431" lon="12.5546906"><ele>1194.6000000000001</ele><time>2026-04-26T15:16:13.929Z</time></trkpt><trkpt lat="46.5319779" lon="12.5546895"><ele>1202.4</ele><time>2026-04-26T15:16:15.937Z</time></trkpt><trkpt lat="46.5319311" lon="12.5545725"><ele>1210.2</ele><time>2026-04-26T15:16:17.932Z</time></trkpt><trkpt lat="46.5319576" lon="12.5543955"><ele>1218.0</ele><time>2026-04-26T15:16:19.926Z</time></trkpt><trkpt lat="46.531936" lon="12.5542507"><ele>1218.8</ele><time>2026-04-26T15:16:21.929Z</time></trkpt><trkpt lat="46.5318882" lon="12.5541028"><ele>1219.6</ele><time>2026-04-26T15:16:23.927Z</time></trkpt><trkpt lat="46.5318345" lon="12.5539235"><ele>1220.4</ele><time>2026-04-26T15:16:25.929Z</time></trkpt><trkpt lat="46.531805" lon="12.5538349"><ele>1221.2</ele><time>2026-04-26T15:16:26.934Z</time></trkpt><trkpt lat="46.5317759" lon="12.5537516"><ele>1222.0</ele><time>2026-04-26T15:16:27.932Z</time></trkpt><trkpt lat="46.531727" lon="12.5536399"><ele>1222.0</ele><time>2026-04-26T15:16:29.925Z</time></trkpt><trkpt lat="46.5316617" lon="12.5536237"><ele>1222.0</ele><time>2026-04-26T15:16:31.926Z</time></trkpt><trkpt lat="46.5316338" lon="12.55371"><ele>1222.0</ele><time>2026-04-26T15:16:33.932Z</time></trkpt><trkpt lat="46.5316676" lon="12.5538749"><ele>1222.0</ele><time>2026-04-26T15:16:35.925Z</time></trkpt><trkpt lat="46.5316817" lon="12.5539764"><ele>1222.0</ele><time>2026-04-26T15:16:36.934Z</time></trkpt><trkpt lat="46.5316828" lon="12.5540951"><ele>1222.0</ele><time>2026-04-26T15:16:37.926Z</time></trkpt><trkpt lat="46.5316739" lon="12.5542225"><ele>1222.0</ele><time>2026-04-26T15:16:38.925Z</time></trkpt><trkpt lat="46.5316609" lon="12.554361"><ele>1222.0</ele><time>2026-04-26T15:16:39.927Z</time></trkpt><trkpt lat="46.5316376" lon="12.5545084"><ele>1222.0</ele><time>2026-04-26T15:16:40.932Z</time></trkpt><trkpt lat="46.5316127" lon="12.55466"><ele>1222.0</ele><time>2026-04-26T15:16:41.935Z</time></trkpt><trkpt lat="46.5315864" lon="12.5547926"><ele>1222.0</ele><time>2026-04-26T15:16:42.935Z</time></trkpt><trkpt lat="46.5315539" lon="12.5549068"><ele>1221.3333333333333</ele><time>2026-04-26T15:16:43.93Z</time></trkpt><trkpt lat="46.531508" lon="12.55502"><ele>1220.6666666666665</ele><time>2026-04-26T15:16:44.922Z</time></trkpt><trkpt lat="46.531458" lon="12.5551205"><ele>1220.0</ele><time>2026-04-26T15:16:45.929Z</time></trkpt><trkpt lat="46.5314039" lon="12.5551935"><ele>1219.3333333333333</ele><time>2026-04-26T15:16:46.929Z</time></trkpt><trkpt lat="46.5313472" lon="12.5552482"><ele>1218.6666666666667</ele><time>2026-04-26T15:16:47.926Z</time></trkpt><trkpt lat="46.5312896" lon="12.5553006"><ele>1218.0</ele><time>2026-04-26T15:16:48.935Z</time></trkpt><trkpt lat="46.5312174" lon="12.5553535"><ele>1223.5</ele><time>2026-04-26T15:16:50.928Z</time></trkpt><trkpt lat="46.5311771" lon="12.5554271"><ele>1229.0</ele><time>2026-04-26T15:16:52.926Z</time></trkpt><trkpt lat="46.5311092" lon="12.5555769"><ele>1234.5</ele><time>2026-04-26T15:16:54.925Z</time></trkpt><trkpt lat="46.5310621" lon="12.5556641"><ele>1240.0</ele><time>2026-04-26T15:16:55.937Z</time></trkpt><trkpt lat="46.5310137" lon="12.5557454"><ele>1245.5</ele><time>2026-04-26T15:16:56.928Z</time></trkpt><trkpt lat="46.5309708" lon="12.5558252"><ele>1251.0</ele><time>2026-04-26T15:16:57.925Z</time></trkpt><trkpt lat="46.5309234" lon="12.5559066"><ele>1251.0</ele><time>2026-04-26T15:16:58.937Z</time></trkpt><trkpt lat="46.5308813" lon="12.5559879"><ele>1251.0</ele><time>2026-04-26T15:16:59.933Z</time></trkpt><trkpt lat="46.5308421" lon="12.5560696"><ele>1251.0</ele><time>2026-04-26T15:17:00.922Z</time></trkpt><trkpt lat="46.530802" lon="12.5561528"><ele>1251.0</ele><time>2026-04-26T15:17:01.934Z</time></trkpt><trkpt lat="46.5307715" lon="12.5562423"><ele>1251.0</ele><time>2026-04-26T15:17:02.937Z</time></trkpt><trkpt lat="46.5307407" lon="12.5563319"><ele>1251.0</ele><time>2026-04-26T15:17:03.925Z</time></trkpt><trkpt lat="46.5307146" lon="12.5564322"><ele>1251.0</ele><time>2026-04-26T15:17:04.94Z</time></trkpt><trkpt lat="46.5306963" lon="12.5565328"><ele>1250.5</ele><time>2026-04-26T15:17:05.948Z</time></trkpt><trkpt lat="46.5306858" lon="12.5566382"><ele>1250.0</ele><time>2026-04-26T15:17:06.926Z</time></trkpt><trkpt lat="46.5306812" lon="12.5567452"><ele>1249.5</ele><time>2026-04-26T15:17:07.928Z</time></trkpt><trkpt lat="46.5306691" lon="12.5568442"><ele>1249.0</ele><time>2026-04-26T15:17:08.933Z</time></trkpt><trkpt lat="46.530661" lon="12.557012"><ele>1248.5</ele><time>2026-04-26T15:17:10.923Z</time></trkpt><trkpt lat="46.5306674" lon="12.5571612"><ele>1248.0</ele><time>2026-04-26T15:17:12.931Z</time></trkpt><trkpt lat="46.5306808" lon="12.5572724"><ele>1248.0</ele><time>2026-04-26T15:17:14.925Z</time></trkpt><trkpt lat="46.5306385" lon="12.5573502"><ele>1248.0</ele><time>2026-04-26T15:17:17.926Z</time></trkpt><trkpt lat="46.5305794" lon="12.5573146"><ele>1248.0</ele><time>2026-04-26T15:17:19.94Z</time></trkpt><trkpt lat="46.5305021" lon="12.557179"><ele>1248.0</ele><time>2026-04-26T15:17:21.936Z</time></trkpt><trkpt lat="46.5304574" lon="12.557103"><ele>1248.0</ele><time>2026-04-26T15:17:22.934Z</time></trkpt><trkpt lat="46.5304064" lon="12.5570254"><ele>1248.0</ele><time>2026-04-26T15:17:23.929Z</time></trkpt><trkpt lat="46.5303445" lon="12.5569229"><ele>1255.6</ele><time>2026-04-26T15:17:24.927Z</time></trkpt><trkpt lat="46.5302731" lon="12.5568147"><ele>1263.1999999999998</ele><time>2026-04-26T15:17:25.938Z</time></trkpt><trkpt lat="46.5302122" lon="12.5567172"><ele>1270.8</ele><time>2026-04-26T15:17:26.922Z</time></trkpt><trkpt lat="46.5301706" lon="12.5566377"><ele>1278.3999999999999</ele><time>2026-04-26T15:17:27.934Z</time></trkpt><trkpt lat="46.5300921" lon="12.5565112"><ele>1286.0</ele><time>2026-04-26T15:17:29.93Z</time></trkpt><trkpt lat="46.5300188" lon="12.5565013"><ele>1286.0</ele><time>2026-04-26T15:17:31.937Z</time></trkpt><trkpt lat="46.5299924" lon="12.5565872"><ele>1286.0</ele><time>2026-04-26T15:17:33.923Z</time></trkpt><trkpt lat="46.5299953" lon="12.5567406"><ele>1286.0</ele><time>2026-04-26T15:17:35.928Z</time></trkpt><trkpt lat="46.5300006" lon="12.5568469"><ele>1286.0</ele><time>2026-04-26T15:17:36.934Z</time></trkpt><trkpt lat="46.5299961" lon="12.5569478"><ele>1286.0</ele><time>2026-04-26T15:17:37.925Z</time></trkpt><trkpt lat="46.529985" lon="12.5570656"><ele>1286.0</ele><time>2026-04-26T15:17:38.929Z</time></trkpt><trkpt lat="46.5299737" lon="12.5571917"><ele>1286.1666666666667</ele><time>2026-04-26T15:17:39.942Z</time></trkpt><trkpt lat="46.5299694" lon="12.5573099"><ele>1286.3333333333335</ele><time>2026-04-26T15:17:40.927Z</time></trkpt><trkpt lat="46.5299702" lon="12.5574417"><ele>1286.5</ele><time>2026-04-26T15:17:41.933Z</time></trkpt><trkpt lat="46.5299663" lon="12.5575631"><ele>1286.6666666666667</ele><time>2026-04-26T15:17:42.93Z</time></trkpt><trkpt lat="46.5299697" lon="12.557696"><ele>1286.8333333333333</ele><time>2026-04-26T15:17:44.927Z</time></trkpt><trkpt lat="46.5299017" lon="12.557765"><ele>1287.0</ele><time>2026-04-26T15:17:47.938Z</time></trkpt><trkpt lat="46.5298219" lon="12.5576818"><ele>1287.0</ele><time>2026-04-26T15:17:49.927Z</time></trkpt><trkpt lat="46.5297233" lon="12.5575621"><ele>1287.0</ele><time>2026-04-26T15:17:51.928Z</time></trkpt><trkpt lat="46.5296652" lon="12.5574864"><ele>1287.0</ele><time>2026-04-26T15:17:52.931Z</time></trkpt><trkpt lat="46.5295993" lon="12.5573932"><ele>1287.0</ele><time>2026-04-26T15:17:53.928Z</time></trkpt><trkpt lat="46.5295316" lon="12.5572909"><ele>1287.0</ele><time>2026-04-26T15:17:54.928Z</time></trkpt><trkpt lat="46.5294576" lon="12.5571752"><ele>1292.8</ele><time>2026-04-26T15:17:55.925Z</time></trkpt><trkpt lat="46.5293867" lon="12.5570494"><ele>1298.6</ele><time>2026-04-26T15:17:56.93Z</time></trkpt><trkpt lat="46.5293061" lon="12.5569256"><ele>1304.3999999999999</ele><time>2026-04-26T15:17:57.94Z</time></trkpt><trkpt lat="46.5292352" lon="12.5568198"><ele>1310.1999999999998</ele><time>2026-04-26T15:17:58.932Z</time></trkpt><trkpt lat="46.5291751" lon="12.5567294"><ele>1316.0</ele><time>2026-04-26T15:17:59.936Z</time></trkpt><trkpt lat="46.5291263" lon="12.5566442"><ele>1316.0</ele><time>2026-04-26T15:18:00.928Z</time></trkpt><trkpt lat="46.5290594" lon="12.5565432"><ele>1316.0</ele><time>2026-04-26T15:18:02.93Z</time></trkpt><trkpt lat="46.5290032" lon="12.5566071"><ele>1316.0</ele><time>2026-04-26T15:18:05.932Z</time></trkpt><trkpt lat="46.528975" lon="12.5567511"><ele>1316.0</ele><time>2026-04-26T15:18:07.924Z</time></trkpt><trkpt lat="46.5289659" lon="12.5569301"><ele>1316.0</ele><time>2026-04-26T15:18:09.937Z</time></trkpt><trkpt lat="46.5289634" lon="12.5571311"><ele>1319.0</ele><time>2026-04-26T15:18:11.931Z</time></trkpt><trkpt lat="46.5289754" lon="12.5572615"><ele>1322.0</ele><time>2026-04-26T15:18:12.934Z</time></trkpt><trkpt lat="46.5289915" lon="12.5574054"><ele>1325.0</ele><time>2026-04-26T15:18:13.934Z</time></trkpt><trkpt lat="46.5290101" lon="12.5575536"><ele>1328.0</ele><time>2026-04-26T15:18:14.932Z</time></trkpt><trkpt lat="46.5290143" lon="12.5577043"><ele>1331.0</ele><time>2026-04-26T15:18:15.935Z</time></trkpt><trkpt lat="46.5290178" lon="12.5578515"><ele>1331.3333333333335</ele><time>2026-04-26T15:18:16.928Z</time></trkpt><trkpt lat="46.5290201" lon="12.5579835"><ele>1331.6666666666667</ele><time>2026-04-26T15:18:17.934Z</time></trkpt><trkpt lat="46.5290353" lon="12.5581065"><ele>1332.0</ele><time>2026-04-26T15:18:18.933Z</time></trkpt><trkpt lat="46.5290431" lon="12.5582226"><ele>1332.3333333333333</ele><time>2026-04-26T15:18:19.928Z</time></trkpt><trkpt lat="46.5290379" lon="12.5583706"><ele>1332.6666666666665</ele><time>2026-04-26T15:18:21.936Z</time></trkpt><trkpt lat="46.5289833" lon="12.5584625"><ele>1333.0</ele><time>2026-04-26T15:18:23.938Z</time></trkpt><trkpt lat="46.5289124" lon="12.558435"><ele>1333.0</ele><time>2026-04-26T15:18:25.928Z</time></trkpt><trkpt lat="46.5288566" lon="12.5583277"><ele>1333.0</ele><time>2026-04-26T15:18:27.928Z</time></trkpt><trkpt lat="46.5287785" lon="12.5582159"><ele>1333.0</ele><time>2026-04-26T15:18:29.935Z</time></trkpt><trkpt lat="46.5287345" lon="12.5581458"><ele>1333.0</ele><time>2026-04-26T15:18:30.93Z</time></trkpt><trkpt lat="46.5286879" lon="12.5580616"><ele>1333.0</ele><time>2026-04-26T15:18:31.931Z</time></trkpt><trkpt lat="46.5286309" lon="12.5579771"><ele>1333.0</ele><time>2026-04-26T15:18:32.939Z</time></trkpt><trkpt lat="46.5285707" lon="12.5578849"><ele>1338.6666666666665</ele><time>2026-04-26T15:18:33.929Z</time></trkpt><trkpt lat="46.528505" lon="12.5577794"><ele>1344.3333333333333</ele><time>2026-04-26T15:18:34.926Z</time></trkpt><trkpt lat="46.5284519" lon="12.5576756"><ele>1350.0</ele><time>2026-04-26T15:18:35.928Z</time></trkpt><trkpt lat="46.5283914" lon="12.5575983"><ele>1355.6666666666667</ele><time>2026-04-26T15:18:36.936Z</time></trkpt><trkpt lat="46.5283163" lon="12.5575201"><ele>1361.3333333333335</ele><time>2026-04-26T15:18:37.937Z</time></trkpt><trkpt lat="46.5282494" lon="12.5574478"><ele>1367.0</ele><time>2026-04-26T15:18:38.931Z</time></trkpt><trkpt lat="46.5282046" lon="12.5573797"><ele>1367.0</ele><time>2026-04-26T15:18:39.929Z</time></trkpt><trkpt lat="46.5281407" lon="12.5573041"><ele>1367.0</ele><time>2026-04-26T15:18:41.932Z</time></trkpt><trkpt lat="46.5280738" lon="12.5573397"><ele>1367.0</ele><time>2026-04-26T15:18:43.928Z</time></trkpt><trkpt lat="46.5280373" lon="12.557433"><ele>1367.0</ele><time>2026-04-26T15:18:45.926Z</time></trkpt><trkpt lat="46.5280655" lon="12.5575952"><ele>1367.0</ele><time>2026-04-26T15:18:47.935Z</time></trkpt><trkpt lat="46.528142" lon="12.5577593"><ele>1367.0</ele><time>2026-04-26T15:18:49.93Z</time></trkpt><trkpt lat="46.5281865" lon="12.5578521"><ele>1367.0</ele><time>2026-04-26T15:18:50.934Z</time></trkpt><trkpt lat="46.5282208" lon="12.5579578"><ele>1367.0</ele><time>2026-04-26T15:18:51.933Z</time></trkpt><trkpt lat="46.5282491" lon="12.558062"><ele>1367.0</ele><time>2026-04-26T15:18:52.924Z</time></trkpt><trkpt lat="46.5282756" lon="12.55817"><ele>1367.0</ele><time>2026-04-26T15:18:53.932Z</time></trkpt><trkpt lat="46.5283059" lon="12.55829"><ele>1367.0</ele><time>2026-04-26T15:18:54.943Z</time></trkpt><trkpt lat="46.5283159" lon="12.5584225"><ele>1369.0</ele><time>2026-04-26T15:18:55.927Z</time></trkpt><trkpt lat="46.5283268" lon="12.5585582"><ele>1371.0</ele><time>2026-04-26T15:18:56.933Z</time></trkpt><trkpt lat="46.528329" lon="12.5586667"><ele>1373.0</ele><time>2026-04-26T15:18:57.926Z</time></trkpt><trkpt lat="46.528321" lon="12.5587575"><ele>1375.0</ele><time>2026-04-26T15:18:59.937Z</time></trkpt><trkpt lat="46.5282639" lon="12.5587129"><ele>1377.0</ele><time>2026-04-26T15:19:02.926Z</time></trkpt><trkpt lat="46.5282245" lon="12.5585878"><ele>1379.0</ele><time>2026-04-26T15:19:04.927Z</time></trkpt><trkpt lat="46.5281973" lon="12.5585036"><ele>1379.1666666666667</ele><time>2026-04-26T15:19:05.933Z</time></trkpt><trkpt lat="46.5281669" lon="12.5584092"><ele>1379.3333333333335</ele><time>2026-04-26T15:19:06.932Z</time></trkpt><trkpt lat="46.5281299" lon="12.5583139"><ele>1379.5</ele><time>2026-04-26T15:19:07.927Z</time></trkpt><trkpt lat="46.5280787" lon="12.5582256"><ele>1379.6666666666667</ele><time>2026-04-26T15:19:08.932Z</time></trkpt><trkpt lat="46.5280129" lon="12.558131"><ele>1379.8333333333333</ele><time>2026-04-26T15:19:09.935Z</time></trkpt><trkpt lat="46.5279509" lon="12.5580396"><ele>1380.0</ele><time>2026-04-26T15:19:10.93Z</time></trkpt><trkpt lat="46.5278862" lon="12.5579513"><ele>1388.6666666666667</ele><time>2026-04-26T15:19:11.934Z</time></trkpt><trkpt lat="46.5278302" lon="12.557869"><ele>1397.3333333333333</ele><time>2026-04-26T15:19:12.931Z</time></trkpt><trkpt lat="46.5277596" lon="12.5577707"><ele>1406.0</ele><time>2026-04-26T15:19:14.936Z</time></trkpt><trkpt lat="46.5277114" lon="12.5577118"><ele>1414.6666666666665</ele><time>2026-04-26T15:19:17.931Z</time></trkpt><trkpt lat="46.5276672" lon="12.5577968"><ele>1423.3333333333333</ele><time>2026-04-26T15:19:21.926Z</time></trkpt><trkpt lat="46.5276565" lon="12.5579056"><ele>1432.0</ele><time>2026-04-26T15:19:23.935Z</time></trkpt><trkpt lat="46.5276874" lon="12.5580698"><ele>1432.0</ele><time>2026-04-26T15:19:25.93Z</time></trkpt><trkpt lat="46.52773" lon="12.5581732"><ele>1432.0</ele><time>2026-04-26T15:19:26.927Z</time></trkpt><trkpt lat="46.5277591" lon="12.558283"><ele>1432.0</ele><time>2026-04-26T15:19:27.926Z</time></trkpt><trkpt lat="46.5277805" lon="12.5583989"><ele>1432.0</ele><time>2026-04-26T15:19:28.939Z</time></trkpt><trkpt lat="46.5278111" lon="12.5585278"><ele>1432.0</ele><time>2026-04-26T15:19:30.939Z</time></trkpt><trkpt lat="46.5277258" lon="12.5584074"><ele>1432.0</ele><time>2026-04-26T15:19:38.931Z</time></trkpt><trkpt lat="46.5276845" lon="12.558323"><ele>1432.0</ele><time>2026-04-26T15:19:39.94Z</time></trkpt><trkpt lat="46.52759" lon="12.5582091"><ele>1432.0</ele><time>2026-04-26T15:19:41.932Z</time></trkpt><trkpt lat="46.5275353" lon="12.5581371"><ele>1432.0</ele><time>2026-04-26T15:19:43.927Z</time></trkpt><trkpt lat="46.5274791" lon="12.5581823"><ele>1432.0</ele><time>2026-04-26T15:21:07.931Z</time></trkpt><trkpt lat="46.5274985" lon="12.5582933"><ele>1432.0</ele><time>2026-04-26T15:21:16.929Z</time></trkpt><trkpt lat="46.5275169" lon="12.5584049"><ele>1432.0</ele><time>2026-04-26T15:21:20.924Z</time></trkpt><trkpt lat="46.5274981" lon="12.5584939"><ele>1432.0</ele><time>2026-04-26T15:21:30.933Z</time></trkpt><trkpt lat="46.527493" lon="12.5586365"><ele>1432.0</ele><time>2026-04-26T15:21:33.928Z</time></trkpt><trkpt lat="46.5274961" lon="12.5587488"><ele>1432.0</ele><time>2026-04-26T15:21:35.924Z</time></trkpt><trkpt lat="46.5275135" lon="12.5588675"><ele>1432.0</ele><time>2026-04-26T15:21:37.932Z</time></trkpt><trkpt lat="46.5275298" lon="12.5589677"><ele>1432.0</ele><time>2026-04-26T15:21:39.935Z</time></trkpt><trkpt lat="46.5274649" lon="12.5589819"><ele>1432.0</ele><time>2026-04-26T15:21:43.929Z</time></trkpt><trkpt lat="46.5274264" lon="12.5588869"><ele>1432.0</ele><time>2026-04-26T15:21:45.926Z</time></trkpt><trkpt lat="46.5273828" lon="12.5587635"><ele>1432.0</ele><time>2026-04-26T15:21:47.931Z</time></trkpt><trkpt lat="46.5273426" lon="12.5586551"><ele>1432.0</ele><time>2026-04-26T15:21:49.935Z</time></trkpt><trkpt lat="46.527288" lon="12.5587372"><ele>1432.0</ele><time>2026-04-26T15:21:54.926Z</time></trkpt><trkpt lat="46.5273203" lon="12.5588348"><ele>1432.0</ele><time>2026-04-26T15:21:56.932Z</time></trkpt><trkpt lat="46.5273312" lon="12.5589499"><ele>1432.0000000000002</ele><time>2026-04-26T15:21:58.933Z</time></trkpt><trkpt lat="46.5273278" lon="12.5590414"><ele>1432.0</ele><time>2026-04-26T15:22:00.938Z</time></trkpt><trkpt lat="46.5273083" lon="12.5591287"><ele>1432.0</ele><time>2026-04-26T15:22:02.929Z</time></trkpt><trkpt lat="46.5273398" lon="12.5590174"><ele>1432.0</ele><time>2026-04-26T15:22:30.936Z</time></trkpt><trkpt lat="46.5273465" lon="12.5589058"><ele>1432.0</ele><time>2026-04-26T15:22:33.933Z</time></trkpt><trkpt lat="46.5273323" lon="12.5588047"><ele>1432.0000000000002</ele><time>2026-04-26T15:22:35.931Z</time></trkpt><trkpt lat="46.5273092" lon="12.5587159"><ele>1432.0</ele><time>2026-04-26T15:22:37.925Z</time></trkpt><trkpt lat="46.5273112" lon="12.5586194"><ele>1432.0</ele><time>2026-04-26T15:22:39.936Z</time></trkpt><trkpt lat="46.5273854" lon="12.5586779"><ele>1432.0</ele><time>2026-04-26T15:31:59.297Z</time></trkpt><trkpt lat="46.5274376" lon="12.5587783"><ele>1432.0</ele><time>2026-04-26T15:32:01.291Z</time></trkpt><trkpt lat="46.5274818" lon="12.5588871"><ele>1432.0</ele><time>2026-04-26T15:32:03.292Z</time></trkpt><trkpt lat="46.5275128" lon="12.5589897"><ele>1432.0</ele><time>2026-04-26T15:32:05.296Z</time></trkpt><trkpt lat="46.5275688" lon="12.5589351"><ele>1432.0</ele><time>2026-04-26T15:32:08.3Z</time></trkpt><trkpt lat="46.5275528" lon="12.5588184"><ele>1432.0000000000002</ele><time>2026-04-26T15:32:11.297Z</time></trkpt><trkpt lat="46.5275418" lon="12.5587233"><ele>1432.0</ele><time>2026-04-26T15:32:13.3Z</time></trkpt><trkpt lat="46.5275436" lon="12.5586199"><ele>1432.0</ele><time>2026-04-26T15:32:15.301Z</time></trkpt><trkpt lat="46.5275486" lon="12.5585095"><ele>1432.0</ele><time>2026-04-26T15:32:17.306Z</time></trkpt><trkpt lat="46.5275428" lon="12.5583997"><ele>1432.0</ele><time>2026-04-26T15:32:19.299Z</time></trkpt><trkpt lat="46.5275312" lon="12.5583017"><ele>1432.0000000000002</ele><time>2026-04-26T15:32:22.295Z</time></trkpt><trkpt lat="46.5275121" lon="12.5582142"><ele>1432.0</ele><time>2026-04-26T15:32:27.291Z</time></trkpt><trkpt lat="46.527556" lon="12.558137"><ele>1432.0</ele><time>2026-04-26T15:32:45.304Z</time></trkpt><trkpt lat="46.5276349" lon="12.5581664"><ele>1432.0</ele><time>2026-04-26T15:32:52.297Z</time></trkpt><trkpt lat="46.5276938" lon="12.5582552"><ele>1432.0</ele><time>2026-04-26T15:32:54.29Z</time></trkpt><trkpt lat="46.5277622" lon="12.5583597"><ele>1432.0</ele><time>2026-04-26T15:32:56.303Z</time></trkpt><trkpt lat="46.5277952" lon="12.5584603"><ele>1432.0</ele><time>2026-04-26T15:32:58.297Z</time></trkpt><trkpt lat="46.5278325" lon="12.5585766"><ele>1432.0</ele><time>2026-04-26T15:33:01.298Z</time></trkpt><trkpt lat="46.5278881" lon="12.5586775"><ele>1432.0</ele><time>2026-04-26T15:33:04.293Z</time></trkpt><trkpt lat="46.5279246" lon="12.5585572"><ele>1432.0</ele><time>2026-04-26T15:33:22.292Z</time></trkpt><trkpt lat="46.5278905" lon="12.5583813"><ele>1432.0</ele><time>2026-04-26T15:33:24.299Z</time></trkpt><trkpt lat="46.5278842" lon="12.5582874"><ele>1432.0</ele><time>2026-04-26T15:33:25.296Z</time></trkpt><trkpt lat="46.5278614" lon="12.5581423"><ele>1432.0</ele><time>2026-04-26T15:33:27.295Z</time></trkpt><trkpt lat="46.5278244" lon="12.5580233"><ele>1432.0</ele><time>2026-04-26T15:33:29.292Z</time></trkpt><trkpt lat="46.5277779" lon="12.5578991"><ele>1432.0</ele><time>2026-04-26T15:33:31.299Z</time></trkpt><trkpt lat="46.5277358" lon="12.5577944"><ele>1432.0</ele><time>2026-04-26T15:33:34.291Z</time></trkpt><trkpt lat="46.5277789" lon="12.5577057"><ele>1432.0</ele><time>2026-04-26T15:33:40.292Z</time></trkpt><trkpt lat="46.5278584" lon="12.5577867"><ele>1432.0</ele><time>2026-04-26T15:33:44.297Z</time></trkpt><trkpt lat="46.5279375" lon="12.5579052"><ele>1421.6</ele><time>2026-04-26T15:33:46.291Z</time></trkpt><trkpt lat="46.5279878" lon="12.5579696"><ele>1411.1999999999998</ele><time>2026-04-26T15:33:47.3Z</time></trkpt><trkpt lat="46.5280722" lon="12.5580844"><ele>1400.8</ele><time>2026-04-26T15:33:49.295Z</time></trkpt><trkpt lat="46.5281535" lon="12.55821"><ele>1390.4</ele><time>2026-04-26T15:33:51.296Z</time></trkpt><trkpt lat="46.5282167" lon="12.5583279"><ele>1380.0</ele><time>2026-04-26T15:33:53.292Z</time></trkpt><trkpt lat="46.5282049" lon="12.5584227"><ele>1380.0</ele><time>2026-04-26T15:34:47.294Z</time></trkpt><trkpt lat="46.5282051" lon="12.5585542"><ele>1380.0</ele><time>2026-04-26T15:34:51.299Z</time></trkpt><trkpt lat="46.5282361" lon="12.5586618"><ele>1380.0</ele><time>2026-04-26T15:34:53.296Z</time></trkpt><trkpt lat="46.5283084" lon="12.5586627"><ele>1380.0</ele><time>2026-04-26T15:34:56.314Z</time></trkpt><trkpt lat="46.5283399" lon="12.5585443"><ele>1380.0</ele><time>2026-04-26T15:34:59.295Z</time></trkpt><trkpt lat="46.528355" lon="12.5584146"><ele>1380.0</ele><time>2026-04-26T15:35:01.299Z</time></trkpt><trkpt lat="46.5283504" lon="12.5582333"><ele>1380.0</ele><time>2026-04-26T15:35:03.302Z</time></trkpt><trkpt lat="46.5283393" lon="12.5581301"><ele>1380.0</ele><time>2026-04-26T15:35:04.296Z</time></trkpt><trkpt lat="46.5283199" lon="12.5580237"><ele>1380.0</ele><time>2026-04-26T15:35:05.301Z</time></trkpt><trkpt lat="46.5282937" lon="12.5579192"><ele>1380.0</ele><time>2026-04-26T15:35:06.298Z</time></trkpt><trkpt lat="46.5282659" lon="12.5578203"><ele>1380.0</ele><time>2026-04-26T15:35:07.3Z</time></trkpt><trkpt lat="46.5282368" lon="12.5577374"><ele>1380.0</ele><time>2026-04-26T15:35:08.295Z</time></trkpt><trkpt lat="46.5281888" lon="12.5576081"><ele>1377.8333333333333</ele><time>2026-04-26T15:35:10.296Z</time></trkpt><trkpt lat="46.5281705" lon="12.55751"><ele>1375.6666666666667</ele><time>2026-04-26T15:35:12.291Z</time></trkpt><trkpt lat="46.5281633" lon="12.5574028"><ele>1373.5</ele><time>2026-04-26T15:35:14.296Z</time></trkpt><trkpt lat="46.5281872" lon="12.5573114"><ele>1371.3333333333335</ele><time>2026-04-26T15:35:16.292Z</time></trkpt><trkpt lat="46.5282598" lon="12.5572858"><ele>1369.1666666666667</ele><time>2026-04-26T15:35:19.29Z</time></trkpt><trkpt lat="46.5283208" lon="12.5573856"><ele>1367.0</ele><time>2026-04-26T15:35:22.293Z</time></trkpt><trkpt lat="46.5283574" lon="12.557483"><ele>1367.0</ele><time>2026-04-26T15:35:24.293Z</time></trkpt><trkpt lat="46.5284211" lon="12.5575714"><ele>1367.0</ele><time>2026-04-26T15:35:26.293Z</time></trkpt><trkpt lat="46.5285" lon="12.5576673"><ele>1367.0</ele><time>2026-04-26T15:35:28.304Z</time></trkpt><trkpt lat="46.5285753" lon="12.5577895"><ele>1367.0</ele><time>2026-04-26T15:35:30.3Z</time></trkpt><trkpt lat="46.5286543" lon="12.5579133"><ele>1367.0</ele><time>2026-04-26T15:35:32.298Z</time></trkpt><trkpt lat="46.5286936" lon="12.5579864"><ele>1361.3333333333335</ele><time>2026-04-26T15:35:33.301Z</time></trkpt><trkpt lat="46.5287765" lon="12.558103"><ele>1355.6666666666667</ele><time>2026-04-26T15:35:35.296Z</time></trkpt><trkpt lat="46.5288379" lon="12.5582002"><ele>1350.0</ele><time>2026-04-26T15:35:37.299Z</time></trkpt><trkpt lat="46.5289002" lon="12.5582871"><ele>1344.3333333333333</ele><time>2026-04-26T15:35:39.295Z</time></trkpt><trkpt lat="46.5289471" lon="12.5583728"><ele>1338.6666666666665</ele><time>2026-04-26T15:35:41.291Z</time></trkpt><trkpt lat="46.5290191" lon="12.5583738"><ele>1333.0</ele><time>2026-04-26T15:35:44.297Z</time></trkpt><trkpt lat="46.5290828" lon="12.558269"><ele>1333.0</ele><time>2026-04-26T15:35:47.291Z</time></trkpt><trkpt lat="46.5290894" lon="12.55811"><ele>1333.0</ele><time>2026-04-26T15:35:49.298Z</time></trkpt><trkpt lat="46.529091" lon="12.5580129"><ele>1333.0</ele><time>2026-04-26T15:35:50.302Z</time></trkpt><trkpt lat="46.5290832" lon="12.5579102"><ele>1333.0</ele><time>2026-04-26T15:35:51.294Z</time></trkpt><trkpt lat="46.5290823" lon="12.5578046"><ele>1333.0</ele><time>2026-04-26T15:35:52.291Z</time></trkpt><trkpt lat="46.5290755" lon="12.5577024"><ele>1333.0</ele><time>2026-04-26T15:35:53.299Z</time></trkpt><trkpt lat="46.5290667" lon="12.5575879"><ele>1332.7142857142856</ele><time>2026-04-26T15:35:54.3Z</time></trkpt><trkpt lat="46.5290671" lon="12.5574751"><ele>1332.4285714285713</ele><time>2026-04-26T15:35:55.293Z</time></trkpt><trkpt lat="46.5290627" lon="12.5573634"><ele>1332.142857142857</ele><time>2026-04-26T15:35:56.303Z</time></trkpt><trkpt lat="46.5290609" lon="12.5572558"><ele>1331.8571428571427</ele><time>2026-04-26T15:35:57.299Z</time></trkpt><trkpt lat="46.5290562" lon="12.5571498"><ele>1331.5714285714284</ele><time>2026-04-26T15:35:58.297Z</time></trkpt><trkpt lat="46.5290479" lon="12.5570492"><ele>1331.2857142857142</ele><time>2026-04-26T15:35:59.29Z</time></trkpt><trkpt lat="46.5290461" lon="12.5569512"><ele>1331.0</ele><time>2026-04-26T15:36:00.297Z</time></trkpt><trkpt lat="46.5290643" lon="12.5568086"><ele>1328.857142857143</ele><time>2026-04-26T15:36:02.295Z</time></trkpt><trkpt lat="46.5290865" lon="12.5567084"><ele>1326.7142857142858</ele><time>2026-04-26T15:36:04.295Z</time></trkpt><trkpt lat="46.5290943" lon="12.5566168"><ele>1324.5714285714284</ele><time>2026-04-26T15:36:06.297Z</time></trkpt><trkpt lat="46.5291118" lon="12.5565193"><ele>1322.4285714285716</ele><time>2026-04-26T15:36:09.294Z</time></trkpt><trkpt lat="46.5291683" lon="12.556565"><ele>1320.2857142857142</ele><time>2026-04-26T15:36:12.291Z</time></trkpt><trkpt lat="46.5292033" lon="12.5566474"><ele>1318.142857142857</ele><time>2026-04-26T15:36:14.294Z</time></trkpt><trkpt lat="46.5292235" lon="12.5567504"><ele>1316.0</ele><time>2026-04-26T15:36:17.298Z</time></trkpt><trkpt lat="46.5292788" lon="12.5568607"><ele>1316.0</ele><time>2026-04-26T15:36:20.298Z</time></trkpt><trkpt lat="46.529326" lon="12.5569553"><ele>1316.0</ele><time>2026-04-26T15:36:22.295Z</time></trkpt><trkpt lat="46.5293963" lon="12.5570542"><ele>1316.0</ele><time>2026-04-26T15:36:24.293Z</time></trkpt><trkpt lat="46.5294738" lon="12.5571524"><ele>1316.0</ele><time>2026-04-26T15:36:26.294Z</time></trkpt><trkpt lat="46.5295513" lon="12.5572745"><ele>1316.0</ele><time>2026-04-26T15:36:28.293Z</time></trkpt><trkpt lat="46.5296155" lon="12.5573777"><ele>1311.1666666666667</ele><time>2026-04-26T15:36:30.291Z</time></trkpt><trkpt lat="46.5296906" lon="12.5574877"><ele>1306.3333333333335</ele><time>2026-04-26T15:36:32.293Z</time></trkpt><trkpt lat="46.5297656" lon="12.5575833"><ele>1301.5</ele><time>2026-04-26T15:36:34.297Z</time></trkpt><trkpt lat="46.5298361" lon="12.5576593"><ele>1296.6666666666667</ele><time>2026-04-26T15:36:36.304Z</time></trkpt><trkpt lat="46.5298824" lon="12.5577311"><ele>1291.8333333333333</ele><time>2026-04-26T15:36:38.294Z</time></trkpt><trkpt lat="46.5299452" lon="12.5577589"><ele>1287.0</ele><time>2026-04-26T15:36:40.296Z</time></trkpt><trkpt lat="46.5299842" lon="12.5576681"><ele>1287.0</ele><time>2026-04-26T15:36:43.293Z</time></trkpt><trkpt lat="46.5299802" lon="12.5575135"><ele>1287.0</ele><time>2026-04-26T15:36:46.298Z</time></trkpt><trkpt lat="46.5299824" lon="12.5573681"><ele>1287.0</ele><time>2026-04-26T15:36:48.293Z</time></trkpt><trkpt lat="46.5299811" lon="12.5571998"><ele>1287.0</ele><time>2026-04-26T15:36:50.304Z</time></trkpt><trkpt lat="46.5299835" lon="12.5570328"><ele>1287.0</ele><time>2026-04-26T15:36:52.296Z</time></trkpt><trkpt lat="46.5299819" lon="12.5568742"><ele>1286.8333333333333</ele><time>2026-04-26T15:36:54.298Z</time></trkpt><trkpt lat="46.5299888" lon="12.5567194"><ele>1286.6666666666667</ele><time>2026-04-26T15:36:56.303Z</time></trkpt><trkpt lat="46.5299931" lon="12.5565777"><ele>1286.5</ele><time>2026-04-26T15:36:58.3Z</time></trkpt><trkpt lat="46.5300139" lon="12.556477"><ele>1286.3333333333335</ele><time>2026-04-26T15:37:00.303Z</time></trkpt><trkpt lat="46.5300861" lon="12.5564779"><ele>1286.1666666666667</ele><time>2026-04-26T15:37:03.294Z</time></trkpt><trkpt lat="46.5301353" lon="12.5565357"><ele>1286.0</ele><time>2026-04-26T15:37:05.29Z</time></trkpt><trkpt lat="46.530168" lon="12.5566204"><ele>1286.0</ele><time>2026-04-26T15:37:06.291Z</time></trkpt><trkpt lat="46.5302442" lon="12.5567503"><ele>1286.0</ele><time>2026-04-26T15:37:08.293Z</time></trkpt><trkpt lat="46.5302838" lon="12.5568229"><ele>1286.0</ele><time>2026-04-26T15:37:09.296Z</time></trkpt><trkpt lat="46.5303228" lon="12.5568977"><ele>1286.0</ele><time>2026-04-26T15:37:10.3Z</time></trkpt><trkpt lat="46.5303624" lon="12.5569758"><ele>1286.0</ele><time>2026-04-26T15:37:11.292Z</time></trkpt><trkpt lat="46.530447" lon="12.5571168"><ele>1286.0</ele><time>2026-04-26T15:37:13.288Z</time></trkpt><trkpt lat="46.53053" lon="12.5572472"><ele>1279.6666666666667</ele><time>2026-04-26T15:37:15.299Z</time></trkpt><trkpt lat="46.5305988" lon="12.5573378"><ele>1273.3333333333335</ele><time>2026-04-26T15:37:17.294Z</time></trkpt><trkpt lat="46.5306636" lon="12.5573612"><ele>1267.0</ele><time>2026-04-26T15:37:19.295Z</time></trkpt><trkpt lat="46.5306814" lon="12.5572731"><ele>1260.6666666666667</ele><time>2026-04-26T15:37:21.298Z</time></trkpt><trkpt lat="46.5307284" lon="12.5571538"><ele>1254.3333333333333</ele><time>2026-04-26T15:38:24.29Z</time></trkpt><trkpt lat="46.5307108" lon="12.5570205"><ele>1248.0</ele><time>2026-04-26T15:38:26.294Z</time></trkpt><trkpt lat="46.5307019" lon="12.5569154"><ele>1248.0</ele><time>2026-04-26T15:38:27.295Z</time></trkpt><trkpt lat="46.5306965" lon="12.5568022"><ele>1248.0</ele><time>2026-04-26T15:38:28.305Z</time></trkpt><trkpt lat="46.5306893" lon="12.5566788"><ele>1248.0</ele><time>2026-04-26T15:38:29.292Z</time></trkpt><trkpt lat="46.5306834" lon="12.5565541"><ele>1248.0</ele><time>2026-04-26T15:38:30.295Z</time></trkpt><trkpt lat="46.5306867" lon="12.5564373"><ele>1248.0</ele><time>2026-04-26T15:38:31.298Z</time></trkpt><trkpt lat="46.5307097" lon="12.5563334"><ele>1248.0</ele><time>2026-04-26T15:38:32.295Z</time></trkpt><trkpt lat="46.5307485" lon="12.5562374"><ele>1248.4285714285716</ele><time>2026-04-26T15:38:33.292Z</time></trkpt><trkpt lat="46.5307968" lon="12.5561392"><ele>1248.8571428571427</ele><time>2026-04-26T15:38:34.297Z</time></trkpt><trkpt lat="46.5308388" lon="12.556063"><ele>1249.2857142857142</ele><time>2026-04-26T15:38:35.296Z</time></trkpt><trkpt lat="46.5308807" lon="12.5559801"><ele>1249.7142857142858</ele><time>2026-04-26T15:38:36.297Z</time></trkpt><trkpt lat="46.5309223" lon="12.5558911"><ele>1250.1428571428573</ele><time>2026-04-26T15:38:37.298Z</time></trkpt><trkpt lat="46.5309619" lon="12.5558092"><ele>1250.5714285714284</ele><time>2026-04-26T15:38:38.303Z</time></trkpt><trkpt lat="46.5310042" lon="12.5557249"><ele>1251.0</ele><time>2026-04-26T15:38:39.295Z</time></trkpt><trkpt lat="46.531045" lon="12.5556417"><ele>1251.0</ele><time>2026-04-26T15:38:40.3Z</time></trkpt><trkpt lat="46.5311078" lon="12.5555145"><ele>1251.0</ele><time>2026-04-26T15:38:42.298Z</time></trkpt><trkpt lat="46.531161" lon="12.5554284"><ele>1251.0</ele><time>2026-04-26T15:38:44.296Z</time></trkpt><trkpt lat="46.5312342" lon="12.5553255"><ele>1251.0</ele><time>2026-04-26T15:38:46.292Z</time></trkpt><trkpt lat="46.5313302" lon="12.5552459"><ele>1251.0</ele><time>2026-04-26T15:38:48.294Z</time></trkpt><trkpt lat="46.5314281" lon="12.5551596"><ele>1244.3999999999999</ele><time>2026-04-26T15:38:50.294Z</time></trkpt><trkpt lat="46.5315003" lon="12.5550503"><ele>1237.8</ele><time>2026-04-26T15:38:52.3Z</time></trkpt><trkpt lat="46.5315785" lon="12.5549222"><ele>1231.1999999999998</ele><time>2026-04-26T15:38:54.301Z</time></trkpt><trkpt lat="46.531634" lon="12.5547698"><ele>1224.6</ele><time>2026-04-26T15:38:56.306Z</time></trkpt><trkpt lat="46.5316556" lon="12.5546737"><ele>1218.0</ele><time>2026-04-26T15:38:57.293Z</time></trkpt><trkpt lat="46.5316798" lon="12.5545641"><ele>1218.6666666666667</ele><time>2026-04-26T15:38:58.305Z</time></trkpt><trkpt lat="46.5316877" lon="12.5544552"><ele>1219.3333333333333</ele><time>2026-04-26T15:38:59.302Z</time></trkpt><trkpt lat="46.5316991" lon="12.5543574"><ele>1220.0</ele><time>2026-04-26T15:39:00.3Z</time></trkpt><trkpt lat="46.5317047" lon="12.5542555"><ele>1220.6666666666665</ele><time>2026-04-26T15:39:01.298Z</time></trkpt><trkpt lat="46.5317022" lon="12.5540822"><ele>1221.3333333333333</ele><time>2026-04-26T15:39:03.299Z</time></trkpt><trkpt lat="46.5316984" lon="12.5539278"><ele>1222.0</ele><time>2026-04-26T15:39:05.302Z</time></trkpt><trkpt lat="46.5316638" lon="12.553779"><ele>1222.0</ele><time>2026-04-26T15:39:07.294Z</time></trkpt><trkpt lat="46.5316477" lon="12.5536686"><ele>1222.0</ele><time>2026-04-26T15:39:09.296Z</time></trkpt><trkpt lat="46.5317284" lon="12.5536542"><ele>1222.0</ele><time>2026-04-26T15:39:13.294Z</time></trkpt><trkpt lat="46.5317743" lon="12.5537708"><ele>1222.0</ele><time>2026-04-26T15:39:15.295Z</time></trkpt><trkpt lat="46.5317981" lon="12.5538651"><ele>1222.0</ele><time>2026-04-26T15:39:16.292Z</time></trkpt><trkpt lat="46.531858" lon="12.5540268"><ele>1222.0</ele><time>2026-04-26T15:39:18.301Z</time></trkpt><trkpt lat="46.5318833" lon="12.5541129"><ele>1222.0</ele><time>2026-04-26T15:39:19.298Z</time></trkpt><trkpt lat="46.5319061" lon="12.5541994"><ele>1222.0</ele><time>2026-04-26T15:39:20.298Z</time></trkpt><trkpt lat="46.5319395" lon="12.5543493"><ele>1222.0</ele><time>2026-04-26T15:39:22.299Z</time></trkpt><trkpt lat="46.5319583" lon="12.5544958"><ele>1222.0</ele><time>2026-04-26T15:39:24.301Z</time></trkpt><trkpt lat="46.5319599" lon="12.5546435"><ele>1222.0</ele><time>2026-04-26T15:39:26.306Z</time></trkpt><trkpt lat="46.5320357" lon="12.5546945"><ele>1214.8333333333333</ele><time>2026-04-26T15:39:29.306Z</time></trkpt><trkpt lat="46.5320739" lon="12.5546189"><ele>1207.6666666666665</ele><time>2026-04-26T15:39:31.301Z</time></trkpt><trkpt lat="46.532072" lon="12.5545017"><ele>1200.5</ele><time>2026-04-26T15:39:33.295Z</time></trkpt><trkpt lat="46.5320921" lon="12.5543205"><ele>1193.3333333333333</ele><time>2026-04-26T15:39:35.298Z</time></trkpt><trkpt lat="46.5321013" lon="12.5542205"><ele>1186.1666666666667</ele><time>2026-04-26T15:39:36.309Z</time></trkpt><trkpt lat="46.532107" lon="12.5541227"><ele>1179.0</ele><time>2026-04-26T15:39:37.305Z</time></trkpt><trkpt lat="46.532113" lon="12.5539487"><ele>1179.0</ele><time>2026-04-26T15:39:39.3Z</time></trkpt><trkpt lat="46.5320949" lon="12.5538126"><ele>1179.0</ele><time>2026-04-26T15:39:41.299Z</time></trkpt><trkpt lat="46.5320957" lon="12.5537083"><ele>1179.0</ele><time>2026-04-26T15:39:43.299Z</time></trkpt><trkpt lat="46.5321663" lon="12.5537001"><ele>1179.0</ele><time>2026-04-26T15:39:46.289Z</time></trkpt><trkpt lat="46.5322149" lon="12.5537849"><ele>1179.0</ele><time>2026-04-26T15:39:48.296Z</time></trkpt><trkpt lat="46.5322546" lon="12.5539195"><ele>1179.0</ele><time>2026-04-26T15:39:50.298Z</time></trkpt><trkpt lat="46.532301" lon="12.5540718"><ele>1179.0</ele><time>2026-04-26T15:39:52.299Z</time></trkpt><trkpt lat="46.5323448" lon="12.5542505"><ele>1179.0</ele><time>2026-04-26T15:39:54.299Z</time></trkpt><trkpt lat="46.5323624" lon="12.5543449"><ele>1179.0</ele><time>2026-04-26T15:39:55.299Z</time></trkpt><trkpt lat="46.5323776" lon="12.5545119"><ele>1179.0</ele><time>2026-04-26T15:39:57.293Z</time></trkpt><trkpt lat="46.5324147" lon="12.554597"><ele>1179.0</ele><time>2026-04-26T15:39:59.295Z</time></trkpt><trkpt lat="46.532477" lon="12.5545452"><ele>1179.0</ele><time>2026-04-26T15:40:02.287Z</time></trkpt><trkpt lat="46.5324775" lon="12.5544173"><ele>1179.0</ele><time>2026-04-26T15:40:04.298Z</time></trkpt><trkpt lat="46.5324766" lon="12.554324"><ele>1179.0</ele><time>2026-04-26T15:40:05.3Z</time></trkpt><trkpt lat="46.5324748" lon="12.5541948"><ele>1179.0</ele><time>2026-04-26T15:40:06.297Z</time></trkpt><trkpt lat="46.532477" lon="12.5540894"><ele>1179.0</ele><time>2026-04-26T15:40:07.291Z</time></trkpt><trkpt lat="46.5324775" lon="12.5539889"><ele>1179.0</ele><time>2026-04-26T15:40:08.295Z</time></trkpt><trkpt lat="46.5324789" lon="12.5538914"><ele>1179.0</ele><time>2026-04-26T15:40:09.299Z</time></trkpt><trkpt lat="46.5324597" lon="12.55372"><ele>1179.0</ele><time>2026-04-26T15:40:11.306Z</time></trkpt><trkpt lat="46.5324252" lon="12.5535925"><ele>1179.0</ele><time>2026-04-26T15:40:13.292Z</time></trkpt><trkpt lat="46.5324186" lon="12.5534754"><ele>1179.0</ele><time>2026-04-26T15:40:15.292Z</time></trkpt><trkpt lat="46.5324869" lon="12.5534701"><ele>1179.0</ele><time>2026-04-26T15:40:18.289Z</time></trkpt><trkpt lat="46.532531" lon="12.5535463"><ele>1179.0</ele><time>2026-04-26T15:40:20.295Z</time></trkpt><trkpt lat="46.5325928" lon="12.5537086"><ele>1179.0</ele><time>2026-04-26T15:40:22.294Z</time></trkpt><trkpt lat="46.5326102" lon="12.5537994"><ele>1179.0</ele><time>2026-04-26T15:40:23.294Z</time></trkpt><trkpt lat="46.5326518" lon="12.5539718"><ele>1179.0</ele><time>2026-04-26T15:40:25.293Z</time></trkpt><trkpt lat="46.532677" lon="12.5540623"><ele>1179.0</ele><time>2026-04-26T15:40:26.294Z</time></trkpt><trkpt lat="46.5327045" lon="12.554233"><ele>1179.0</ele><time>2026-04-26T15:40:28.296Z</time></trkpt><trkpt lat="46.5327182" lon="12.5543577"><ele>1179.0</ele><time>2026-04-26T15:40:30.293Z</time></trkpt><trkpt lat="46.5327944" lon="12.5543616"><ele>1179.0</ele><time>2026-04-26T15:40:33.291Z</time></trkpt><trkpt lat="46.5328303" lon="12.55427"><ele>1179.0</ele><time>2026-04-26T15:40:35.296Z</time></trkpt><trkpt lat="46.5328208" lon="12.5541213"><ele>1179.0</ele><time>2026-04-26T15:40:37.293Z</time></trkpt><trkpt lat="46.5328153" lon="12.554025"><ele>1179.0</ele><time>2026-04-26T15:40:38.301Z</time></trkpt><trkpt lat="46.5328217" lon="12.5539201"><ele>1179.0</ele><time>2026-04-26T15:40:39.307Z</time></trkpt><trkpt lat="46.5328381" lon="12.5538191"><ele>1180.4</ele><time>2026-04-26T15:40:40.299Z</time></trkpt><trkpt lat="46.5328693" lon="12.5536527"><ele>1181.8000000000002</ele><time>2026-04-26T15:40:42.294Z</time></trkpt><trkpt lat="46.532848" lon="12.5534803"><ele>1183.1999999999998</ele><time>2026-04-26T15:40:44.3Z</time></trkpt><trkpt lat="46.5328279" lon="12.5533434"><ele>1184.6</ele><time>2026-04-26T15:40:46.299Z</time></trkpt><trkpt lat="46.5328436" lon="12.5532517"><ele>1186.0</ele><time>2026-04-26T15:40:48.297Z</time></trkpt><trkpt lat="46.5329084" lon="12.5532636"><ele>1178.2</ele><time>2026-04-26T15:40:52.295Z</time></trkpt><trkpt lat="46.5329464" lon="12.5533772"><ele>1170.3999999999999</ele><time>2026-04-26T15:40:54.296Z</time></trkpt><trkpt lat="46.532991" lon="12.5535447"><ele>1162.6</ele><time>2026-04-26T15:40:56.301Z</time></trkpt><trkpt lat="46.533017" lon="12.5536402"><ele>1154.8</ele><time>2026-04-26T15:40:57.3Z</time></trkpt><trkpt lat="46.5330481" lon="12.5538262"><ele>1147.0</ele><time>2026-04-26T15:40:59.296Z</time></trkpt><trkpt lat="46.5330572" lon="12.5539198"><ele>1147.0</ele><time>2026-04-26T15:41:00.302Z</time></trkpt><trkpt lat="46.5330641" lon="12.5540602"><ele>1147.0</ele><time>2026-04-26T15:41:02.302Z</time></trkpt><trkpt lat="46.533137" lon="12.5541281"><ele>1147.0</ele><time>2026-04-26T15:41:05.291Z</time></trkpt><trkpt lat="46.5332129" lon="12.5540216"><ele>1147.0</ele><time>2026-04-26T15:41:08.292Z</time></trkpt><trkpt lat="46.5332246" lon="12.5538313"><ele>1147.0</ele><time>2026-04-26T15:41:10.3Z</time></trkpt><trkpt lat="46.5332399" lon="12.5537141"><ele>1146.8333333333333</ele><time>2026-04-26T15:41:11.296Z</time></trkpt><trkpt lat="46.5332617" lon="12.5535912"><ele>1146.6666666666665</ele><time>2026-04-26T15:41:12.294Z</time></trkpt><trkpt lat="46.5332719" lon="12.5534808"><ele>1146.5</ele><time>2026-04-26T15:41:13.291Z</time></trkpt><trkpt lat="46.5332974" lon="12.5533823"><ele>1146.3333333333333</ele><time>2026-04-26T15:41:14.303Z</time></trkpt><trkpt lat="46.5333058" lon="12.5532747"><ele>1146.1666666666667</ele><time>2026-04-26T15:41:15.298Z</time></trkpt><trkpt lat="46.5333269" lon="12.5531741"><ele>1146.0</ele><time>2026-04-26T15:41:16.3Z</time></trkpt><trkpt lat="46.5333429" lon="12.55308"><ele>1146.0</ele><time>2026-04-26T15:41:17.295Z</time></trkpt><trkpt lat="46.5333764" lon="12.5529289"><ele>1146.0</ele><time>2026-04-26T15:41:19.302Z</time></trkpt><trkpt lat="46.5334354" lon="12.5528083"><ele>1146.0</ele><time>2026-04-26T15:41:21.3Z</time></trkpt><trkpt lat="46.5335174" lon="12.552684"><ele>1146.0</ele><time>2026-04-26T15:41:23.293Z</time></trkpt><trkpt lat="46.5335584" lon="12.5526032"><ele>1146.0</ele><time>2026-04-26T15:41:24.304Z</time></trkpt><trkpt lat="46.5336043" lon="12.5525133"><ele>1147.8333333333333</ele><time>2026-04-26T15:41:25.297Z</time></trkpt><trkpt lat="46.5336446" lon="12.5524266"><ele>1149.6666666666667</ele><time>2026-04-26T15:41:26.293Z</time></trkpt><trkpt lat="46.5336814" lon="12.5523224"><ele>1151.5</ele><time>2026-04-26T15:41:27.302Z</time></trkpt><trkpt lat="46.5337146" lon="12.5522388"><ele>1153.3333333333335</ele><time>2026-04-26T15:41:28.297Z</time></trkpt><trkpt lat="46.5337483" lon="12.5521567"><ele>1155.1666666666667</ele><time>2026-04-26T15:41:29.296Z</time></trkpt><trkpt lat="46.533806" lon="12.5520033"><ele>1157.0</ele><time>2026-04-26T15:41:31.308Z</time></trkpt><trkpt lat="46.5338605" lon="12.5518719"><ele>1151.8333333333335</ele><time>2026-04-26T15:41:33.301Z</time></trkpt><trkpt lat="46.5339097" lon="12.5517409"><ele>1146.6666666666667</ele><time>2026-04-26T15:41:35.293Z</time></trkpt><trkpt lat="46.5339341" lon="12.5516537"><ele>1141.5</ele><time>2026-04-26T15:41:37.293Z</time></trkpt><trkpt lat="46.5340091" lon="12.5516687"><ele>1136.3333333333333</ele><time>2026-04-26T15:41:40.294Z</time></trkpt><trkpt lat="46.5340399" lon="12.5517815"><ele>1131.1666666666665</ele><time>2026-04-26T15:41:42.299Z</time></trkpt><trkpt lat="46.5340027" lon="12.5519392"><ele>1126.0</ele><time>2026-04-26T15:41:44.292Z</time></trkpt><trkpt lat="46.5339415" lon="12.5520808"><ele>1126.0</ele><time>2026-04-26T15:41:46.3Z</time></trkpt><trkpt lat="46.5339693" lon="12.5521765"><ele>1126.0</ele><time>2026-04-26T15:41:49.3Z</time></trkpt><trkpt lat="46.5340616" lon="12.5521447"><ele>1126.0</ele><time>2026-04-26T15:41:51.289Z</time></trkpt><trkpt lat="46.5341344" lon="12.5520381"><ele>1126.0</ele><time>2026-04-26T15:41:53.297Z</time></trkpt><trkpt lat="46.5342399" lon="12.5519287"><ele>1126.0</ele><time>2026-04-26T15:41:55.296Z</time></trkpt><trkpt lat="46.5342831" lon="12.5518531"><ele>1126.0</ele><time>2026-04-26T15:41:56.292Z</time></trkpt><trkpt lat="46.5343271" lon="12.5517826"><ele>1126.0</ele><time>2026-04-26T15:41:57.299Z</time></trkpt><trkpt lat="46.53437" lon="12.5517074"><ele>1126.0</ele><time>2026-04-26T15:41:58.298Z</time></trkpt><trkpt lat="46.5344103" lon="12.5516343"><ele>1126.0</ele><time>2026-04-26T15:41:59.298Z</time></trkpt><trkpt lat="46.5344597" lon="12.5515712"><ele>1126.0</ele><time>2026-04-26T15:42:00.308Z</time></trkpt><trkpt lat="46.5345166" lon="12.5515088"><ele>1126.0</ele><time>2026-04-26T15:42:01.293Z</time></trkpt><trkpt lat="46.5345766" lon="12.5514546"><ele>1126.0</ele><time>2026-04-26T15:42:02.293Z</time></trkpt><trkpt lat="46.5346376" lon="12.5514004"><ele>1123.0</ele><time>2026-04-26T15:42:03.297Z</time></trkpt><trkpt lat="46.5346924" lon="12.5513424"><ele>1120.0</ele><time>2026-04-26T15:42:04.297Z</time></trkpt><trkpt lat="46.5347565" lon="12.5512824"><ele>1117.0</ele><time>2026-04-26T15:42:05.302Z</time></trkpt><trkpt lat="46.5348261" lon="12.5512053"><ele>1114.0</ele><time>2026-04-26T15:42:06.302Z</time></trkpt><trkpt lat="46.5348916" lon="12.551127"><ele>1111.0</ele><time>2026-04-26T15:42:07.296Z</time></trkpt><trkpt lat="46.5349528" lon="12.551063"><ele>1108.0</ele><time>2026-04-26T15:42:08.297Z</time></trkpt><trkpt lat="46.5350215" lon="12.5509953"><ele>1107.1666666666665</ele><time>2026-04-26T15:42:09.294Z</time></trkpt><trkpt lat="46.5350767" lon="12.5509243"><ele>1106.3333333333333</ele><time>2026-04-26T15:42:10.293Z</time></trkpt><trkpt lat="46.5351339" lon="12.5508399"><ele>1105.5</ele><time>2026-04-26T15:42:11.296Z</time></trkpt><trkpt lat="46.5351868" lon="12.5507517"><ele>1104.6666666666667</ele><time>2026-04-26T15:42:12.291Z</time></trkpt><trkpt lat="46.5352365" lon="12.5506579"><ele>1103.8333333333335</ele><time>2026-04-26T15:42:13.3Z</time></trkpt><trkpt lat="46.5352728" lon="12.550563"><ele>1103.0</ele><time>2026-04-26T15:42:14.303Z</time></trkpt><trkpt lat="46.5353043" lon="12.5504649"><ele>1103.5</ele><time>2026-04-26T15:42:15.298Z</time></trkpt><trkpt lat="46.5353256" lon="12.5503644"><ele>1104.0</ele><time>2026-04-26T15:42:16.302Z</time></trkpt><trkpt lat="46.5353273" lon="12.5502472"><ele>1104.5</ele><time>2026-04-26T15:42:17.293Z</time></trkpt><trkpt lat="46.5353169" lon="12.5501273"><ele>1105.0</ele><time>2026-04-26T15:42:18.299Z</time></trkpt><trkpt lat="46.5353085" lon="12.5499932"><ele>1105.5</ele><time>2026-04-26T15:42:19.295Z</time></trkpt><trkpt lat="46.5352919" lon="12.5498461"><ele>1106.0</ele><time>2026-04-26T15:42:20.298Z</time></trkpt><trkpt lat="46.5352783" lon="12.5497043"><ele>1106.0</ele><time>2026-04-26T15:42:21.292Z</time></trkpt><trkpt lat="46.5352571" lon="12.5495551"><ele>1106.0</ele><time>2026-04-26T15:42:22.297Z</time></trkpt><trkpt lat="46.5352431" lon="12.5494077"><ele>1106.0</ele><time>2026-04-26T15:42:23.296Z</time></trkpt><trkpt lat="46.5352385" lon="12.5492916"><ele>1106.0</ele><time>2026-04-26T15:42:24.293Z</time></trkpt><trkpt lat="46.535223" lon="12.5491088"><ele>1106.0</ele><time>2026-04-26T15:42:26.293Z</time></trkpt><trkpt lat="46.5352165" lon="12.548989"><ele>1106.1666666666667</ele><time>2026-04-26T15:42:27.305Z</time></trkpt><trkpt lat="46.5352118" lon="12.548856"><ele>1106.3333333333335</ele><time>2026-04-26T15:42:28.302Z</time></trkpt><trkpt lat="46.5352093" lon="12.5487333"><ele>1106.5</ele><time>2026-04-26T15:42:29.3Z</time></trkpt><trkpt lat="46.5352149" lon="12.5486116"><ele>1106.6666666666667</ele><time>2026-04-26T15:42:30.294Z</time></trkpt><trkpt lat="46.5352409" lon="12.5484915"><ele>1106.8333333333333</ele><time>2026-04-26T15:42:31.299Z</time></trkpt><trkpt lat="46.5352674" lon="12.548357"><ele>1107.0</ele><time>2026-04-26T15:42:32.297Z</time></trkpt><trkpt lat="46.5352966" lon="12.5482292"><ele>1108.5</ele><time>2026-04-26T15:42:33.297Z</time></trkpt><trkpt lat="46.5353272" lon="12.5481032"><ele>1110.0</ele><time>2026-04-26T15:42:34.3Z</time></trkpt><trkpt lat="46.53535" lon="12.547973"><ele>1111.5</ele><time>2026-04-26T15:42:35.292Z</time></trkpt><trkpt lat="46.5353784" lon="12.547853"><ele>1113.0</ele><time>2026-04-26T15:42:36.298Z</time></trkpt><trkpt lat="46.5354004" lon="12.547742"><ele>1114.5</ele><time>2026-04-26T15:42:37.301Z</time></trkpt><trkpt lat="46.5354215" lon="12.5476296"><ele>1116.0</ele><time>2026-04-26T15:42:38.296Z</time></trkpt><trkpt lat="46.5354386" lon="12.5475225"><ele>1109.8333333333333</ele><time>2026-04-26T15:42:39.294Z</time></trkpt><trkpt lat="46.5354526" lon="12.5474278"><ele>1103.6666666666667</ele><time>2026-04-26T15:42:40.296Z</time></trkpt><trkpt lat="46.5354648" lon="12.5473162"><ele>1097.5</ele><time>2026-04-26T15:42:41.295Z</time></trkpt><trkpt lat="46.5354787" lon="12.5472128"><ele>1091.3333333333335</ele><time>2026-04-26T15:42:42.298Z</time></trkpt><trkpt lat="46.5354903" lon="12.5470977"><ele>1085.1666666666667</ele><time>2026-04-26T15:42:43.301Z</time></trkpt><trkpt lat="46.5355032" lon="12.546971"><ele>1079.0</ele><time>2026-04-26T15:42:44.291Z</time></trkpt><trkpt lat="46.5355218" lon="12.5468432"><ele>1079.0</ele><time>2026-04-26T15:42:45.3Z</time></trkpt><trkpt lat="46.5355415" lon="12.5467229"><ele>1079.0</ele><time>2026-04-26T15:42:46.292Z</time></trkpt><trkpt lat="46.5355568" lon="12.5466072"><ele>1079.0</ele><time>2026-04-26T15:42:47.302Z</time></trkpt><trkpt lat="46.5355714" lon="12.5464977"><ele>1079.0</ele><time>2026-04-26T15:42:48.3Z</time></trkpt><trkpt lat="46.5355889" lon="12.5463896"><ele>1079.0</ele><time>2026-04-26T15:42:49.301Z</time></trkpt><trkpt lat="46.5356063" lon="12.5462742"><ele>1079.0</ele><time>2026-04-26T15:42:50.292Z</time></trkpt><trkpt lat="46.5356287" lon="12.5461636"><ele>1077.8333333333335</ele><time>2026-04-26T15:42:51.294Z</time></trkpt><trkpt lat="46.5356594" lon="12.5460545"><ele>1076.6666666666667</ele><time>2026-04-26T15:42:52.304Z</time></trkpt><trkpt lat="46.5356804" lon="12.5459511"><ele>1075.5</ele><time>2026-04-26T15:42:53.302Z</time></trkpt><trkpt lat="46.5356975" lon="12.5458485"><ele>1074.3333333333333</ele><time>2026-04-26T15:42:54.299Z</time></trkpt><trkpt lat="46.5357106" lon="12.5457375"><ele>1073.1666666666665</ele><time>2026-04-26T15:42:55.297Z</time></trkpt><trkpt lat="46.5357219" lon="12.5456253"><ele>1072.0</ele><time>2026-04-26T15:42:56.294Z</time></trkpt><trkpt lat="46.5357373" lon="12.545518"><ele>1072.0</ele><time>2026-04-26T15:42:57.293Z</time></trkpt><trkpt lat="46.5357466" lon="12.5454165"><ele>1072.0</ele><time>2026-04-26T15:42:58.298Z</time></trkpt><trkpt lat="46.5357614" lon="12.5452669"><ele>1072.0</ele><time>2026-04-26T15:43:00.306Z</time></trkpt><trkpt lat="46.5357889" lon="12.5451268"><ele>1072.0</ele><time>2026-04-26T15:43:02.289Z</time></trkpt><trkpt lat="46.5358354" lon="12.5450353"><ele>1072.0</ele><time>2026-04-26T15:43:04.286Z</time></trkpt><trkpt lat="46.5359219" lon="12.5450892"><ele>1072.0</ele><time>2026-04-26T15:43:07.297Z</time></trkpt><trkpt lat="46.5359971" lon="12.5452045"><ele>1072.0</ele><time>2026-04-26T15:43:09.293Z</time></trkpt><trkpt lat="46.5360651" lon="12.5453536"><ele>1072.0</ele><time>2026-04-26T15:43:11.295Z</time></trkpt><trkpt lat="46.5361238" lon="12.5454738"><ele>1072.0</ele><time>2026-04-26T15:43:13.296Z</time></trkpt><trkpt lat="46.536183" lon="12.5455606"><ele>1072.0</ele><time>2026-04-26T15:43:15.295Z</time></trkpt><trkpt lat="46.5362446" lon="12.5455854"><ele>1072.0</ele><time>2026-04-26T15:43:17.302Z</time></trkpt><trkpt lat="46.5363088" lon="12.5455466"><ele>1072.0</ele><time>2026-04-26T15:43:20.301Z</time></trkpt><trkpt lat="46.536401" lon="12.5454768"><ele>1067.8</ele><time>2026-04-26T15:43:23.295Z</time></trkpt><trkpt lat="46.5364792" lon="12.5453746"><ele>1063.6</ele><time>2026-04-26T15:43:24.297Z</time></trkpt><trkpt lat="46.5365515" lon="12.5452667"><ele>1059.3999999999999</ele><time>2026-04-26T15:43:25.298Z</time></trkpt><trkpt lat="46.5366208" lon="12.5451611"><ele>1055.2</ele><time>2026-04-26T15:43:26.304Z</time></trkpt><trkpt lat="46.5366829" lon="12.5450354"><ele>1051.0</ele><time>2026-04-26T15:43:27.306Z</time></trkpt><trkpt lat="46.5367325" lon="12.5449109"><ele>1051.0</ele><time>2026-04-26T15:43:28.296Z</time></trkpt><trkpt lat="46.5367756" lon="12.5447952"><ele>1051.0</ele><time>2026-04-26T15:43:29.295Z</time></trkpt><trkpt lat="46.5368216" lon="12.5446813"><ele>1051.0</ele><time>2026-04-26T15:43:30.298Z</time></trkpt><trkpt lat="46.5368883" lon="12.5445885"><ele>1051.0</ele><time>2026-04-26T15:43:31.305Z</time></trkpt><trkpt lat="46.5369464" lon="12.5444932"><ele>1051.0</ele><time>2026-04-26T15:43:32.297Z</time></trkpt><trkpt lat="46.5370037" lon="12.5444079"><ele>1051.0</ele><time>2026-04-26T15:43:33.298Z</time></trkpt><trkpt lat="46.5370619" lon="12.5443274"><ele>1049.1666666666665</ele><time>2026-04-26T15:43:34.293Z</time></trkpt><trkpt lat="46.5371154" lon="12.5442479"><ele>1047.3333333333333</ele><time>2026-04-26T15:43:35.294Z</time></trkpt><trkpt lat="46.5371687" lon="12.5441478"><ele>1045.5</ele><time>2026-04-26T15:43:36.298Z</time></trkpt><trkpt lat="46.5372129" lon="12.5440427"><ele>1043.6666666666667</ele><time>2026-04-26T15:43:37.3Z</time></trkpt><trkpt lat="46.5372543" lon="12.5439215"><ele>1041.8333333333335</ele><time>2026-04-26T15:43:38.291Z</time></trkpt><trkpt lat="46.5372867" lon="12.5437996"><ele>1040.0</ele><time>2026-04-26T15:43:39.297Z</time></trkpt><trkpt lat="46.5373239" lon="12.5436609"><ele>1040.0</ele><time>2026-04-26T15:43:40.293Z</time></trkpt><trkpt lat="46.537362" lon="12.5435332"><ele>1040.0</ele><time>2026-04-26T15:43:41.297Z</time></trkpt><trkpt lat="46.5374" lon="12.5434033"><ele>1040.0</ele><time>2026-04-26T15:43:42.304Z</time></trkpt><trkpt lat="46.5374265" lon="12.5432951"><ele>1040.0</ele><time>2026-04-26T15:43:43.299Z</time></trkpt><trkpt lat="46.5374536" lon="12.5431849"><ele>1040.0</ele><time>2026-04-26T15:43:44.3Z</time></trkpt><trkpt lat="46.5374857" lon="12.5430853"><ele>1040.0</ele><time>2026-04-26T15:43:45.296Z</time></trkpt><trkpt lat="46.5375238" lon="12.5429919"><ele>1040.0</ele><time>2026-04-26T15:43:46.296Z</time></trkpt><trkpt lat="46.5375722" lon="12.5429009"><ele>1040.0</ele><time>2026-04-26T15:43:47.298Z</time></trkpt><trkpt lat="46.5376374" lon="12.542823"><ele>1040.0</ele><time>2026-04-26T15:43:48.289Z</time></trkpt><trkpt lat="46.5377137" lon="12.5427497"><ele>1040.0</ele><time>2026-04-26T15:43:49.301Z</time></trkpt><trkpt lat="46.5377871" lon="12.5426786"><ele>1040.0</ele><time>2026-04-26T15:43:50.294Z</time></trkpt><trkpt lat="46.5378656" lon="12.5426099"><ele>1040.0</ele><time>2026-04-26T15:43:51.308Z</time></trkpt><trkpt lat="46.537945" lon="12.5425556"><ele>1037.8</ele><time>2026-04-26T15:43:52.294Z</time></trkpt><trkpt lat="46.5380205" lon="12.5425034"><ele>1035.6</ele><time>2026-04-26T15:43:53.3Z</time></trkpt><trkpt lat="46.5380996" lon="12.5424554"><ele>1033.4</ele><time>2026-04-26T15:43:54.295Z</time></trkpt><trkpt lat="46.5381841" lon="12.5424038"><ele>1031.2</ele><time>2026-04-26T15:43:55.297Z</time></trkpt><trkpt lat="46.5382709" lon="12.5423507"><ele>1029.0</ele><time>2026-04-26T15:43:56.295Z</time></trkpt><trkpt lat="46.5383675" lon="12.5422916"><ele>1029.0</ele><time>2026-04-26T15:43:57.3Z</time></trkpt><trkpt lat="46.5384636" lon="12.5422494"><ele>1029.0</ele><time>2026-04-26T15:43:58.3Z</time></trkpt><trkpt lat="46.5385521" lon="12.5421959"><ele>1029.0</ele><time>2026-04-26T15:43:59.295Z</time></trkpt><trkpt lat="46.5386379" lon="12.5421345"><ele>1029.0</ele><time>2026-04-26T15:44:00.302Z</time></trkpt><trkpt lat="46.5387173" lon="12.5420943"><ele>1029.0</ele><time>2026-04-26T15:44:01.293Z</time></trkpt><trkpt lat="46.53878" lon="12.5420415"><ele>1029.0</ele><time>2026-04-26T15:44:02.29Z</time></trkpt><trkpt lat="46.5388359" lon="12.5419923"><ele>1026.5</ele><time>2026-04-26T15:44:03.291Z</time></trkpt><trkpt lat="46.5388956" lon="12.5419514"><ele>1024.0</ele><time>2026-04-26T15:44:04.292Z</time></trkpt><trkpt lat="46.5389855" lon="12.541878"><ele>1021.5</ele><time>2026-04-26T15:44:06.297Z</time></trkpt><trkpt lat="46.5390841" lon="12.5418002"><ele>1019.0</ele><time>2026-04-26T15:44:08.299Z</time></trkpt><trkpt lat="46.5391442" lon="12.5417521"><ele>1016.5</ele><time>2026-04-26T15:44:09.298Z</time></trkpt><trkpt lat="46.5392136" lon="12.5417027"><ele>1014.0</ele><time>2026-04-26T15:44:10.297Z</time></trkpt><trkpt lat="46.5392712" lon="12.541656"><ele>1014.0</ele><time>2026-04-26T15:44:11.3Z</time></trkpt><trkpt lat="46.5393273" lon="12.5416007"><ele>1014.0</ele><time>2026-04-26T15:44:12.307Z</time></trkpt><trkpt lat="46.5393804" lon="12.5415508"><ele>1014.0</ele><time>2026-04-26T15:44:13.293Z</time></trkpt><trkpt lat="46.5394707" lon="12.5414453"><ele>1014.0</ele><time>2026-04-26T15:44:15.297Z</time></trkpt><trkpt lat="46.5395494" lon="12.5413183"><ele>1014.0</ele><time>2026-04-26T15:44:17.3Z</time></trkpt><trkpt lat="46.5395945" lon="12.5412416"><ele>1014.0</ele><time>2026-04-26T15:44:18.296Z</time></trkpt><trkpt lat="46.5396324" lon="12.541151"><ele>1008.8333333333334</ele><time>2026-04-26T15:44:19.304Z</time></trkpt><trkpt lat="46.5396591" lon="12.5410377"><ele>1003.6666666666667</ele><time>2026-04-26T15:44:20.298Z</time></trkpt><trkpt lat="46.5396704" lon="12.5409022"><ele>998.5</ele><time>2026-04-26T15:44:21.31Z</time></trkpt><trkpt lat="46.5396756" lon="12.5407507"><ele>993.3333333333334</ele><time>2026-04-26T15:44:22.302Z</time></trkpt><trkpt lat="46.5396744" lon="12.5406232"><ele>988.1666666666667</ele><time>2026-04-26T15:44:23.293Z</time></trkpt><trkpt lat="46.5396812" lon="12.5405063"><ele>983.0</ele><time>2026-04-26T15:44:24.298Z</time></trkpt><trkpt lat="46.5396866" lon="12.5404051"><ele>982.142857142857</ele><time>2026-04-26T15:44:25.297Z</time></trkpt><trkpt lat="46.5396948" lon="12.5402279"><ele>981.2857142857142</ele><time>2026-04-26T15:44:27.293Z</time></trkpt><trkpt lat="46.5396881" lon="12.5401362"><ele>980.4285714285714</ele><time>2026-04-26T15:44:28.301Z</time></trkpt><trkpt lat="46.5396681" lon="12.5400477"><ele>979.5714285714286</ele><time>2026-04-26T15:44:29.295Z</time></trkpt><trkpt lat="46.5396407" lon="12.5399615"><ele>978.7142857142858</ele><time>2026-04-26T15:44:30.294Z</time></trkpt><trkpt lat="46.5396003" lon="12.5398851"><ele>977.857142857143</ele><time>2026-04-26T15:44:31.295Z</time></trkpt><trkpt lat="46.5395573" lon="12.5398153"><ele>977.0000000000001</ele><time>2026-04-26T15:44:32.296Z</time></trkpt><trkpt lat="46.5394903" lon="12.5396887"><ele>977.0000000000001</ele><time>2026-04-26T15:44:34.295Z</time></trkpt><trkpt lat="46.5394538" lon="12.5395836"><ele>977.0</ele><time>2026-04-26T15:44:36.295Z</time></trkpt><trkpt lat="46.5394918" lon="12.5394821"><ele>977.0</ele><time>2026-04-26T15:44:38.296Z</time></trkpt><trkpt lat="46.5395648" lon="12.5395007"><ele>977.0</ele><time>2026-04-26T15:44:40.301Z</time></trkpt><trkpt lat="46.5396297" lon="12.5395835"><ele>977.0000000000001</ele><time>2026-04-26T15:44:42.296Z</time></trkpt><trkpt lat="46.539657" lon="12.5396674"><ele>977.0</ele><time>2026-04-26T15:44:43.296Z</time></trkpt><trkpt lat="46.5396873" lon="12.5397614"><ele>977.0000000000001</ele><time>2026-04-26T15:44:44.294Z</time></trkpt><trkpt lat="46.5397126" lon="12.5398833"><ele>977.0</ele><time>2026-04-26T15:44:45.294Z</time></trkpt><trkpt lat="46.5397389" lon="12.5400033"><ele>977.0</ele><time>2026-04-26T15:44:46.294Z</time></trkpt><trkpt lat="46.5397719" lon="12.5401084"><ele>977.0</ele><time>2026-04-26T15:44:47.304Z</time></trkpt><trkpt lat="46.5398066" lon="12.540214"><ele>977.0000000000001</ele><time>2026-04-26T15:44:48.301Z</time></trkpt><trkpt lat="46.5398264" lon="12.5403465"><ele>977.0</ele><time>2026-04-26T15:44:49.302Z</time></trkpt><trkpt lat="46.539832" lon="12.540485"><ele>978.0000000000001</ele><time>2026-04-26T15:44:50.296Z</time></trkpt><trkpt lat="46.5398326" lon="12.5406121"><ele>979.0</ele><time>2026-04-26T15:44:51.298Z</time></trkpt><trkpt lat="46.539838" lon="12.5407366"><ele>980.0</ele><time>2026-04-26T15:44:52.3Z</time></trkpt><trkpt lat="46.5398381" lon="12.5408698"><ele>981.0</ele><time>2026-04-26T15:44:53.301Z</time></trkpt><trkpt lat="46.5398339" lon="12.5409904"><ele>982.0000000000001</ele><time>2026-04-26T15:44:54.302Z</time></trkpt><trkpt lat="46.5398338" lon="12.5410953"><ele>983.0</ele><time>2026-04-26T15:44:55.294Z</time></trkpt><trkpt lat="46.5398328" lon="12.5411923"><ele>984.0</ele><time>2026-04-26T15:44:56.296Z</time></trkpt><trkpt lat="46.5398211" lon="12.5413437"><ele>985.0</ele><time>2026-04-26T15:44:58.295Z</time></trkpt><trkpt lat="46.5398243" lon="12.5414927"><ele>986.0</ele><time>2026-04-26T15:45:00.294Z</time></trkpt><trkpt lat="46.539859" lon="12.5416441"><ele>987.0</ele><time>2026-04-26T15:45:02.309Z</time></trkpt><trkpt lat="46.5398846" lon="12.5417798"><ele>988.0</ele><time>2026-04-26T15:45:04.292Z</time></trkpt><trkpt lat="46.5398285" lon="12.5419395"><ele>991.4</ele><time>2026-04-26T15:45:06.293Z</time></trkpt><trkpt lat="46.5397506" lon="12.5420622"><ele>994.8</ele><time>2026-04-26T15:45:08.294Z</time></trkpt><trkpt lat="46.5396694" lon="12.5421265"><ele>998.2</ele><time>2026-04-26T15:45:10.298Z</time></trkpt><trkpt lat="46.5396355" lon="12.5422223"><ele>1001.6</ele><time>2026-04-26T15:45:12.3Z</time></trkpt><trkpt lat="46.5396651" lon="12.5423416"><ele>1005.0</ele><time>2026-04-26T15:45:15.3Z</time></trkpt><trkpt lat="46.5397679" lon="12.542265"><ele>1005.0</ele><time>2026-04-26T15:45:18.293Z</time></trkpt><trkpt lat="46.5398201" lon="12.5421773"><ele>1005.0</ele><time>2026-04-26T15:45:19.309Z</time></trkpt><trkpt lat="46.5398807" lon="12.5420933"><ele>1005.0</ele><time>2026-04-26T15:45:20.3Z</time></trkpt><trkpt lat="46.539946" lon="12.5419971"><ele>1005.0</ele><time>2026-04-26T15:45:21.298Z</time></trkpt><trkpt lat="46.5400211" lon="12.5418954"><ele>1005.0</ele><time>2026-04-26T15:45:22.289Z</time></trkpt><trkpt lat="46.5400958" lon="12.5418017"><ele>1004.0</ele><time>2026-04-26T15:45:23.296Z</time></trkpt><trkpt lat="46.5401786" lon="12.5417294"><ele>1003.0</ele><time>2026-04-26T15:45:24.299Z</time></trkpt><trkpt lat="46.5402502" lon="12.5416686"><ele>1002.0</ele><time>2026-04-26T15:45:25.297Z</time></trkpt><trkpt lat="46.5403071" lon="12.5416107"><ele>1001.0</ele><time>2026-04-26T15:45:26.305Z</time></trkpt><trkpt lat="46.5403607" lon="12.5415588"><ele>1000.0</ele><time>2026-04-26T15:45:27.294Z</time></trkpt><trkpt lat="46.5404203" lon="12.5415154"><ele>999.0</ele><time>2026-04-26T15:45:28.297Z</time></trkpt><trkpt lat="46.5404905" lon="12.5414768"><ele>999.0</ele><time>2026-04-26T15:45:29.297Z</time></trkpt><trkpt lat="46.5405717" lon="12.541459"><ele>999.0</ele><time>2026-04-26T15:45:30.299Z</time></trkpt><trkpt lat="46.5406563" lon="12.5414564"><ele>999.0</ele><time>2026-04-26T15:45:31.3Z</time></trkpt><trkpt lat="46.5407378" lon="12.5414734"><ele>999.0</ele><time>2026-04-26T15:45:32.296Z</time></trkpt><trkpt lat="46.5408306" lon="12.5415194"><ele>999.0</ele><time>2026-04-26T15:45:33.297Z</time></trkpt><trkpt lat="46.5409205" lon="12.5415763"><ele>999.0</ele><time>2026-04-26T15:45:34.301Z</time></trkpt><trkpt lat="46.5409976" lon="12.5416276"><ele>999.0</ele><time>2026-04-26T15:45:35.295Z</time></trkpt><trkpt lat="46.5410512" lon="12.5416903"><ele>999.0</ele><time>2026-04-26T15:45:36.296Z</time></trkpt><trkpt lat="46.5411108" lon="12.5417603"><ele>999.0</ele><time>2026-04-26T15:45:37.294Z</time></trkpt><trkpt lat="46.5411746" lon="12.5418385"><ele>999.0</ele><time>2026-04-26T15:45:38.297Z</time></trkpt><trkpt lat="46.5412416" lon="12.5419371"><ele>999.0</ele><time>2026-04-26T15:45:39.298Z</time></trkpt><trkpt lat="46.5413255" lon="12.5420654"><ele>999.0</ele><time>2026-04-26T15:45:40.297Z</time></trkpt><trkpt lat="46.541398" lon="12.5421682"><ele>1000.2</ele><time>2026-04-26T15:45:41.305Z</time></trkpt><trkpt lat="46.5414668" lon="12.5422847"><ele>1001.4000000000001</ele><time>2026-04-26T15:45:42.297Z</time></trkpt><trkpt lat="46.5415252" lon="12.5423963"><ele>1002.6</ele><time>2026-04-26T15:45:43.293Z</time></trkpt><trkpt lat="46.5415895" lon="12.5425083"><ele>1003.8</ele><time>2026-04-26T15:45:44.299Z</time></trkpt><trkpt lat="46.5416587" lon="12.5426158"><ele>1005.0</ele><time>2026-04-26T15:45:45.299Z</time></trkpt><trkpt lat="46.5417298" lon="12.5427188"><ele>1005.0</ele><time>2026-04-26T15:45:46.292Z</time></trkpt><trkpt lat="46.5417972" lon="12.5428319"><ele>1005.0</ele><time>2026-04-26T15:45:47.297Z</time></trkpt><trkpt lat="46.5418673" lon="12.5429487"><ele>1005.0</ele><time>2026-04-26T15:45:48.299Z</time></trkpt><trkpt lat="46.5419361" lon="12.5430617"><ele>1005.0</ele><time>2026-04-26T15:45:49.295Z</time></trkpt><trkpt lat="46.5420078" lon="12.5431713"><ele>1005.0</ele><time>2026-04-26T15:45:50.298Z</time></trkpt><trkpt lat="46.5420661" lon="12.5432865"><ele>1004.7142857142858</ele><time>2026-04-26T15:45:51.301Z</time></trkpt><trkpt lat="46.5421199" lon="12.5433649"><ele>1004.4285714285714</ele><time>2026-04-26T15:45:52.299Z</time></trkpt><trkpt lat="46.5421741" lon="12.5434163"><ele>1004.1428571428571</ele><time>2026-04-26T15:45:53.294Z</time></trkpt><trkpt lat="46.5422293" lon="12.5434683"><ele>1003.8571428571429</ele><time>2026-04-26T15:45:54.298Z</time></trkpt><trkpt lat="46.5422852" lon="12.5435143"><ele>1003.5714285714284</ele><time>2026-04-26T15:45:55.307Z</time></trkpt><trkpt lat="46.5423485" lon="12.5435832"><ele>1003.2857142857142</ele><time>2026-04-26T15:45:56.294Z</time></trkpt><trkpt lat="46.542411" lon="12.5436538"><ele>1003.0</ele><time>2026-04-26T15:45:57.297Z</time></trkpt><trkpt lat="46.5424687" lon="12.5437359"><ele>1003.7142857142857</ele><time>2026-04-26T15:45:58.306Z</time></trkpt><trkpt lat="46.5425304" lon="12.5437943"><ele>1004.4285714285713</ele><time>2026-04-26T15:45:59.301Z</time></trkpt><trkpt lat="46.5425832" lon="12.5438573"><ele>1005.1428571428571</ele><time>2026-04-26T15:46:00.292Z</time></trkpt><trkpt lat="46.5426345" lon="12.543913"><ele>1005.8571428571429</ele><time>2026-04-26T15:46:01.295Z</time></trkpt><trkpt lat="46.5426967" lon="12.5439667"><ele>1006.5714285714286</ele><time>2026-04-26T15:46:02.301Z</time></trkpt><trkpt lat="46.5427683" lon="12.544004"><ele>1007.2857142857142</ele><time>2026-04-26T15:46:03.291Z</time></trkpt><trkpt lat="46.5428453" lon="12.5440197"><ele>1008.0</ele><time>2026-04-26T15:46:04.3Z</time></trkpt><trkpt lat="46.542925" lon="12.5440043"><ele>1006.0</ele><time>2026-04-26T15:46:05.295Z</time></trkpt><trkpt lat="46.5430079" lon="12.5439761"><ele>1004.0</ele><time>2026-04-26T15:46:06.298Z</time></trkpt><trkpt lat="46.5430907" lon="12.543945"><ele>1002.0</ele><time>2026-04-26T15:46:07.298Z</time></trkpt><trkpt lat="46.5431724" lon="12.5439046"><ele>1000.0</ele><time>2026-04-26T15:46:08.294Z</time></trkpt><trkpt lat="46.5432577" lon="12.5438765"><ele>998.0</ele><time>2026-04-26T15:46:09.292Z</time></trkpt><trkpt lat="46.5433483" lon="12.5438613"><ele>996.0</ele><time>2026-04-26T15:46:10.292Z</time></trkpt><trkpt lat="46.5434289" lon="12.5438621"><ele>996.0</ele><time>2026-04-26T15:46:11.294Z</time></trkpt><trkpt lat="46.5434957" lon="12.5438616"><ele>996.0</ele><time>2026-04-26T15:46:12.296Z</time></trkpt><trkpt lat="46.5436159" lon="12.5438618"><ele>996.0</ele><time>2026-04-26T15:46:14.296Z</time></trkpt><trkpt lat="46.5436795" lon="12.5438673"><ele>996.0</ele><time>2026-04-26T15:46:15.307Z</time></trkpt><trkpt lat="46.5437585" lon="12.5438809"><ele>996.0</ele><time>2026-04-26T15:46:16.292Z</time></trkpt><trkpt lat="46.5438422" lon="12.5439214"><ele>996.0</ele><time>2026-04-26T15:46:17.293Z</time></trkpt><trkpt lat="46.5439149" lon="12.5439742"><ele>993.5</ele><time>2026-04-26T15:46:18.298Z</time></trkpt><trkpt lat="46.5439697" lon="12.5440245"><ele>991.0</ele><time>2026-04-26T15:46:19.309Z</time></trkpt><trkpt lat="46.5440243" lon="12.544164"><ele>988.5</ele><time>2026-04-26T15:46:21.305Z</time></trkpt><trkpt lat="46.5439935" lon="12.544318"><ele>986.0</ele><time>2026-04-26T15:46:23.297Z</time></trkpt><trkpt lat="46.5439371" lon="12.5443925"><ele>983.5</ele><time>2026-04-26T15:46:24.295Z</time></trkpt><trkpt lat="46.5438727" lon="12.5444592"><ele>981.0</ele><time>2026-04-26T15:46:25.3Z</time></trkpt><trkpt lat="46.5438073" lon="12.5445108"><ele>981.5999999999999</ele><time>2026-04-26T15:46:26.301Z</time></trkpt><trkpt lat="46.5437449" lon="12.5446231"><ele>982.1999999999999</ele><time>2026-04-26T15:46:28.297Z</time></trkpt><trkpt lat="46.54375" lon="12.5447257"><ele>982.8000000000001</ele><time>2026-04-26T15:46:30.295Z</time></trkpt><trkpt lat="46.5438811" lon="12.5447621"><ele>983.4000000000001</ele><time>2026-04-26T15:46:32.294Z</time></trkpt><trkpt lat="46.5439765" lon="12.5447999"><ele>984.0</ele><time>2026-04-26T15:46:33.294Z</time></trkpt><trkpt lat="46.544069" lon="12.5448227"><ele>984.0</ele><time>2026-04-26T15:46:34.303Z</time></trkpt><trkpt lat="46.5441631" lon="12.5448393"><ele>984.0000000000001</ele><time>2026-04-26T15:46:35.298Z</time></trkpt><trkpt lat="46.5442624" lon="12.5448422"><ele>984.0000000000001</ele><time>2026-04-26T15:46:36.295Z</time></trkpt><trkpt lat="46.544367" lon="12.544845"><ele>984.0</ele><time>2026-04-26T15:46:37.293Z</time></trkpt><trkpt lat="46.5444871" lon="12.5448506"><ele>984.0</ele><time>2026-04-26T15:46:38.293Z</time></trkpt><trkpt lat="46.5446162" lon="12.5448511"><ele>983.75</ele><time>2026-04-26T15:46:39.296Z</time></trkpt><trkpt lat="46.5447494" lon="12.5448325"><ele>983.5</ele><time>2026-04-26T15:46:40.299Z</time></trkpt><trkpt lat="46.5448691" lon="12.5447855"><ele>983.25</ele><time>2026-04-26T15:46:41.292Z</time></trkpt><trkpt lat="46.5449778" lon="12.5447331"><ele>983.0</ele><time>2026-04-26T15:46:42.311Z</time></trkpt><trkpt lat="46.545076" lon="12.5446871"><ele>983.0</ele><time>2026-04-26T15:46:43.296Z</time></trkpt><trkpt lat="46.5451696" lon="12.5446429"><ele>983.0</ele><time>2026-04-26T15:46:44.293Z</time></trkpt><trkpt lat="46.5452677" lon="12.5445973"><ele>983.0</ele><time>2026-04-26T15:46:45.297Z</time></trkpt><trkpt lat="46.5453591" lon="12.5445405"><ele>983.0</ele><time>2026-04-26T15:46:46.295Z</time></trkpt><trkpt lat="46.5454574" lon="12.5444825"><ele>983.0</ele><time>2026-04-26T15:46:47.297Z</time></trkpt><trkpt lat="46.5455528" lon="12.5444122"><ele>980.2</ele><time>2026-04-26T15:46:48.31Z</time></trkpt><trkpt lat="46.5456558" lon="12.5443406"><ele>977.4</ele><time>2026-04-26T15:46:49.297Z</time></trkpt><trkpt lat="46.545751" lon="12.5442689"><ele>974.6000000000001</ele><time>2026-04-26T15:46:50.296Z</time></trkpt><trkpt lat="46.54584" lon="12.5442149"><ele>971.8000000000001</ele><time>2026-04-26T15:46:51.297Z</time></trkpt><trkpt lat="46.5459339" lon="12.5441827"><ele>969.0</ele><time>2026-04-26T15:46:52.301Z</time></trkpt><trkpt lat="46.5460215" lon="12.5441724"><ele>969.0</ele><time>2026-04-26T15:46:53.295Z</time></trkpt><trkpt lat="46.5461075" lon="12.5442021"><ele>969.0000000000001</ele><time>2026-04-26T15:46:54.303Z</time></trkpt><trkpt lat="46.5462015" lon="12.544253"><ele>969.0000000000001</ele><time>2026-04-26T15:46:55.302Z</time></trkpt><trkpt lat="46.5463006" lon="12.5443208"><ele>969.0</ele><time>2026-04-26T15:46:56.292Z</time></trkpt><trkpt lat="46.5463879" lon="12.5443721"><ele>969.0</ele><time>2026-04-26T15:46:57.293Z</time></trkpt><trkpt lat="46.5464744" lon="12.5444175"><ele>968.3333333333334</ele><time>2026-04-26T15:46:58.301Z</time></trkpt><trkpt lat="46.5465424" lon="12.544444"><ele>967.6666666666667</ele><time>2026-04-26T15:46:59.294Z</time></trkpt><trkpt lat="46.546645" lon="12.5444705"><ele>967.0</ele><time>2026-04-26T15:47:01.296Z</time></trkpt><trkpt lat="46.5467086" lon="12.5445042"><ele>966.3333333333334</ele><time>2026-04-26T15:47:03.3Z</time></trkpt><trkpt lat="46.5467466" lon="12.5446289"><ele>965.6666666666667</ele><time>2026-04-26T15:47:05.298Z</time></trkpt><trkpt lat="46.5467651" lon="12.5447381"><ele>965.0</ele><time>2026-04-26T15:47:06.294Z</time></trkpt><trkpt lat="46.5467956" lon="12.5448532"><ele>965.0</ele><time>2026-04-26T15:47:07.297Z</time></trkpt><trkpt lat="46.5468446" lon="12.5449591"><ele>965.0</ele><time>2026-04-26T15:47:08.3Z</time></trkpt><trkpt lat="46.5469262" lon="12.5450623"><ele>965.0</ele><time>2026-04-26T15:47:09.293Z</time></trkpt><trkpt lat="46.5470268" lon="12.5451532"><ele>965.0</ele><time>2026-04-26T15:47:10.298Z</time></trkpt><trkpt lat="46.5471283" lon="12.5452384"><ele>965.0</ele><time>2026-04-26T15:47:11.297Z</time></trkpt><trkpt lat="46.5472232" lon="12.545312"><ele>965.6</ele><time>2026-04-26T15:47:12.303Z</time></trkpt><trkpt lat="46.5473126" lon="12.5453837"><ele>966.2</ele><time>2026-04-26T15:47:13.3Z</time></trkpt><trkpt lat="46.5473906" lon="12.5454594"><ele>966.8</ele><time>2026-04-26T15:47:14.291Z</time></trkpt><trkpt lat="46.5474728" lon="12.5455499"><ele>967.4</ele><time>2026-04-26T15:47:15.296Z</time></trkpt><trkpt lat="46.5475504" lon="12.5456593"><ele>968.0</ele><time>2026-04-26T15:47:16.3Z</time></trkpt><trkpt lat="46.5476266" lon="12.5457719"><ele>968.0</ele><time>2026-04-26T15:47:17.291Z</time></trkpt><trkpt lat="46.5476957" lon="12.5458814"><ele>968.0</ele><time>2026-04-26T15:47:18.292Z</time></trkpt><trkpt lat="46.5477671" lon="12.545986"><ele>968.0</ele><time>2026-04-26T15:47:19.296Z</time></trkpt><trkpt lat="46.5478464" lon="12.5460701"><ele>968.0</ele><time>2026-04-26T15:47:20.293Z</time></trkpt><trkpt lat="46.5479375" lon="12.5461387"><ele>968.0</ele><time>2026-04-26T15:47:21.296Z</time></trkpt><trkpt lat="46.548039" lon="12.5461947"><ele>969.8</ele><time>2026-04-26T15:47:22.3Z</time></trkpt><trkpt lat="46.5481433" lon="12.5462389"><ele>971.5999999999999</ele><time>2026-04-26T15:47:23.296Z</time></trkpt><trkpt lat="46.5482475" lon="12.5462674"><ele>973.4000000000001</ele><time>2026-04-26T15:47:24.294Z</time></trkpt><trkpt lat="46.548346" lon="12.5463178"><ele>975.2</ele><time>2026-04-26T15:47:25.299Z</time></trkpt><trkpt lat="46.5484525" lon="12.5463735"><ele>977.0</ele><time>2026-04-26T15:47:26.295Z</time></trkpt><trkpt lat="46.5485506" lon="12.5464435"><ele>977.0</ele><time>2026-04-26T15:47:27.295Z</time></trkpt><trkpt lat="46.54864" lon="12.5465284"><ele>977.0</ele><time>2026-04-26T15:47:28.293Z</time></trkpt><trkpt lat="46.5487461" lon="12.5466223"><ele>977.0</ele><time>2026-04-26T15:47:29.295Z</time></trkpt><trkpt lat="46.5488524" lon="12.5466969"><ele>977.0</ele><time>2026-04-26T15:47:30.297Z</time></trkpt><trkpt lat="46.5489498" lon="12.5467695"><ele>978.4000000000001</ele><time>2026-04-26T15:47:31.296Z</time></trkpt><trkpt lat="46.5490205" lon="12.5468383"><ele>979.8000000000001</ele><time>2026-04-26T15:47:32.302Z</time></trkpt><trkpt lat="46.5490996" lon="12.5469007"><ele>981.2</ele><time>2026-04-26T15:47:33.296Z</time></trkpt><trkpt lat="46.5491785" lon="12.5469732"><ele>982.6</ele><time>2026-04-26T15:47:34.293Z</time></trkpt><trkpt lat="46.5492383" lon="12.5470393"><ele>984.0</ele><time>2026-04-26T15:47:35.297Z</time></trkpt><trkpt lat="46.5493357" lon="12.5471383"><ele>984.0</ele><time>2026-04-26T15:47:37.296Z</time></trkpt><trkpt lat="46.5493935" lon="12.5472945"><ele>984.0</ele><time>2026-04-26T15:47:39.304Z</time></trkpt><trkpt lat="46.549408" lon="12.5474021"><ele>984.0</ele><time>2026-04-26T15:47:40.295Z</time></trkpt><trkpt lat="46.5494189" lon="12.5475096"><ele>984.0</ele><time>2026-04-26T15:47:41.3Z</time></trkpt><trkpt lat="46.5494317" lon="12.5476047"><ele>984.0</ele><time>2026-04-26T15:47:42.292Z</time></trkpt><trkpt lat="46.5494568" lon="12.5476986"><ele>984.0</ele><time>2026-04-26T15:47:43.296Z</time></trkpt><trkpt lat="46.5494745" lon="12.5478009"><ele>982.3333333333334</ele><time>2026-04-26T15:47:44.295Z</time></trkpt><trkpt lat="46.5495" lon="12.5479048"><ele>980.6666666666667</ele><time>2026-04-26T15:47:45.303Z</time></trkpt><trkpt lat="46.5495196" lon="12.5480175"><ele>979.0</ele><time>2026-04-26T15:47:46.301Z</time></trkpt><trkpt lat="46.5495362" lon="12.5481244"><ele>977.3333333333334</ele><time>2026-04-26T15:47:47.301Z</time></trkpt><trkpt lat="46.5495489" lon="12.5482444"><ele>975.6666666666667</ele><time>2026-04-26T15:47:48.297Z</time></trkpt><trkpt lat="46.549562" lon="12.5483659"><ele>974.0</ele><time>2026-04-26T15:47:49.306Z</time></trkpt><trkpt lat="46.5495663" lon="12.5484883"><ele>974.0000000000001</ele><time>2026-04-26T15:47:50.303Z</time></trkpt><trkpt lat="46.5495653" lon="12.5486116"><ele>974.0</ele><time>2026-04-26T15:47:51.295Z</time></trkpt><trkpt lat="46.5495672" lon="12.5487257"><ele>974.0</ele><time>2026-04-26T15:47:52.293Z</time></trkpt><trkpt lat="46.549602" lon="12.5488223"><ele>974.0</ele><time>2026-04-26T15:47:53.302Z</time></trkpt><trkpt lat="46.5496799" lon="12.5489082"><ele>974.0000000000001</ele><time>2026-04-26T15:47:54.295Z</time></trkpt><trkpt lat="46.5497655" lon="12.5489705"><ele>974.0</ele><time>2026-04-26T15:47:55.299Z</time></trkpt><trkpt lat="46.5498646" lon="12.5490118"><ele>975.0000000000001</ele><time>2026-04-26T15:47:56.297Z</time></trkpt><trkpt lat="46.549954" lon="12.5490294"><ele>976.0</ele><time>2026-04-26T15:47:57.304Z</time></trkpt><trkpt lat="46.5500379" lon="12.5490549"><ele>977.0</ele><time>2026-04-26T15:47:58.303Z</time></trkpt><trkpt lat="46.5501166" lon="12.549081"><ele>978.0</ele><time>2026-04-26T15:47:59.294Z</time></trkpt><trkpt lat="46.550186" lon="12.549113"><ele>979.0000000000001</ele><time>2026-04-26T15:48:00.294Z</time></trkpt><trkpt lat="46.550249" lon="12.5491523"><ele>980.0</ele><time>2026-04-26T15:48:01.298Z</time></trkpt><trkpt lat="46.5503087" lon="12.5491999"><ele>977.8</ele><time>2026-04-26T15:48:02.297Z</time></trkpt><trkpt lat="46.550379" lon="12.5492713"><ele>975.6</ele><time>2026-04-26T15:48:03.3Z</time></trkpt><trkpt lat="46.5504497" lon="12.5493589"><ele>973.4000000000001</ele><time>2026-04-26T15:48:04.292Z</time></trkpt><trkpt lat="46.5505096" lon="12.549485"><ele>971.2</ele><time>2026-04-26T15:48:05.303Z</time></trkpt><trkpt lat="46.5505772" lon="12.5496269"><ele>969.0</ele><time>2026-04-26T15:48:06.298Z</time></trkpt><trkpt lat="46.5506456" lon="12.5497775"><ele>969.0</ele><time>2026-04-26T15:48:07.301Z</time></trkpt><trkpt lat="46.5507109" lon="12.5498963"><ele>969.0000000000001</ele><time>2026-04-26T15:48:08.29Z</time></trkpt><trkpt lat="46.5507636" lon="12.5499917"><ele>969.0000000000001</ele><time>2026-04-26T15:48:09.299Z</time></trkpt><trkpt lat="46.5508233" lon="12.5500648"><ele>969.0</ele><time>2026-04-26T15:48:10.303Z</time></trkpt><trkpt lat="46.5508783" lon="12.5501251"><ele>969.0</ele><time>2026-04-26T15:48:11.299Z</time></trkpt><trkpt lat="46.5509599" lon="12.550242"><ele>969.0</ele><time>2026-04-26T15:48:13.299Z</time></trkpt><trkpt lat="46.550914" lon="12.5503723"><ele>969.0</ele><time>2026-04-26T15:48:15.303Z</time></trkpt><trkpt lat="46.5508637" lon="12.5504565"><ele>969.0</ele><time>2026-04-26T15:48:16.295Z</time></trkpt><trkpt lat="46.5508096" lon="12.5505489"><ele>969.0</ele><time>2026-04-26T15:48:17.304Z</time></trkpt><trkpt lat="46.5507664" lon="12.5506459"><ele>969.0</ele><time>2026-04-26T15:48:18.3Z</time></trkpt><trkpt lat="46.5507505" lon="12.5507415"><ele>969.0</ele><time>2026-04-26T15:48:19.302Z</time></trkpt><trkpt lat="46.5507554" lon="12.5508581"><ele>969.8000000000001</ele><time>2026-04-26T15:48:20.302Z</time></trkpt><trkpt lat="46.5507827" lon="12.5509798"><ele>970.6000000000001</ele><time>2026-04-26T15:48:21.3Z</time></trkpt><trkpt lat="46.5508216" lon="12.5511023"><ele>971.4</ele><time>2026-04-26T15:48:22.299Z</time></trkpt><trkpt lat="46.5508725" lon="12.5512178"><ele>972.2</ele><time>2026-04-26T15:48:23.298Z</time></trkpt><trkpt lat="46.5509348" lon="12.5513359"><ele>973.0</ele><time>2026-04-26T15:48:24.297Z</time></trkpt><trkpt lat="46.5509886" lon="12.5514414"><ele>974.0</ele><time>2026-04-26T15:48:25.301Z</time></trkpt><trkpt lat="46.551045" lon="12.5515575"><ele>975.0</ele><time>2026-04-26T15:48:26.3Z</time></trkpt><trkpt lat="46.5510971" lon="12.551692"><ele>976.0</ele><time>2026-04-26T15:48:27.295Z</time></trkpt><trkpt lat="46.5511677" lon="12.5518255"><ele>977.0</ele><time>2026-04-26T15:48:28.295Z</time></trkpt><trkpt lat="46.5512327" lon="12.5519462"><ele>978.0</ele><time>2026-04-26T15:48:29.297Z</time></trkpt><trkpt lat="46.5513035" lon="12.5520611"><ele>978.0</ele><time>2026-04-26T15:48:30.293Z</time></trkpt><trkpt lat="46.5513755" lon="12.5521537"><ele>978.0</ele><time>2026-04-26T15:48:31.295Z</time></trkpt><trkpt lat="46.5514531" lon="12.5522401"><ele>978.0</ele><time>2026-04-26T15:48:32.294Z</time></trkpt><trkpt lat="46.5515314" lon="12.552323"><ele>978.0</ele><time>2026-04-26T15:48:33.292Z</time></trkpt><trkpt lat="46.5516049" lon="12.5524052"><ele>978.0</ele><time>2026-04-26T15:48:34.294Z</time></trkpt><trkpt lat="46.5516733" lon="12.5524914"><ele>978.0</ele><time>2026-04-26T15:48:35.297Z</time></trkpt><trkpt lat="46.551731" lon="12.5525818"><ele>978.0</ele><time>2026-04-26T15:48:36.307Z</time></trkpt><trkpt lat="46.5517866" lon="12.5526828"><ele>978.0</ele><time>2026-04-26T15:48:37.291Z</time></trkpt><trkpt lat="46.5518491" lon="12.5527889"><ele>978.0</ele><time>2026-04-26T15:48:38.289Z</time></trkpt><trkpt lat="46.5519147" lon="12.5528985"><ele>978.0</ele><time>2026-04-26T15:48:39.293Z</time></trkpt><trkpt lat="46.5519851" lon="12.5530062"><ele>980.6666666666666</ele><time>2026-04-26T15:48:40.296Z</time></trkpt><trkpt lat="46.5520421" lon="12.5530997"><ele>983.3333333333333</ele><time>2026-04-26T15:48:41.299Z</time></trkpt><trkpt lat="46.5520805" lon="12.5531861"><ele>986.0</ele><time>2026-04-26T15:48:42.293Z</time></trkpt><trkpt lat="46.5521108" lon="12.5532795"><ele>988.6666666666666</ele><time>2026-04-26T15:48:43.301Z</time></trkpt><trkpt lat="46.5521332" lon="12.5533875"><ele>991.3333333333333</ele><time>2026-04-26T15:48:44.304Z</time></trkpt><trkpt lat="46.5521627" lon="12.553485"><ele>994.0</ele><time>2026-04-26T15:48:45.307Z</time></trkpt><trkpt lat="46.5522034" lon="12.5535793"><ele>993.9999999999999</ele><time>2026-04-26T15:48:46.299Z</time></trkpt><trkpt lat="46.5522571" lon="12.5536786"><ele>994.0</ele><time>2026-04-26T15:48:47.295Z</time></trkpt><trkpt lat="46.5523103" lon="12.5537855"><ele>994.0</ele><time>2026-04-26T15:48:48.295Z</time></trkpt><trkpt lat="46.5523524" lon="12.5538771"><ele>994.0</ele><time>2026-04-26T15:48:49.302Z</time></trkpt><trkpt lat="46.5523953" lon="12.5539796"><ele>993.9999999999999</ele><time>2026-04-26T15:48:50.298Z</time></trkpt><trkpt lat="46.5524306" lon="12.5540925"><ele>994.0</ele><time>2026-04-26T15:48:51.299Z</time></trkpt><trkpt lat="46.552448" lon="12.5542319"><ele>995.6666666666666</ele><time>2026-04-26T15:48:52.293Z</time></trkpt><trkpt lat="46.5524587" lon="12.5543927"><ele>997.3333333333333</ele><time>2026-04-26T15:48:53.298Z</time></trkpt><trkpt lat="46.5524669" lon="12.5545275"><ele>999.0</ele><time>2026-04-26T15:48:54.3Z</time></trkpt><trkpt lat="46.5524897" lon="12.5546132"><ele>1000.6666666666667</ele><time>2026-04-26T15:48:55.294Z</time></trkpt><trkpt lat="46.5524928" lon="12.5547241"><ele>1002.3333333333334</ele><time>2026-04-26T15:48:56.309Z</time></trkpt><trkpt lat="46.55248" lon="12.5548301"><ele>1004.0</ele><time>2026-04-26T15:48:57.294Z</time></trkpt><trkpt lat="46.5524459" lon="12.5549245"><ele>1005.5000000000001</ele><time>2026-04-26T15:48:58.302Z</time></trkpt><trkpt lat="46.5523415" lon="12.5549726"><ele>1007.0</ele><time>2026-04-26T15:49:00.304Z</time></trkpt><trkpt lat="46.5522775" lon="12.5549601"><ele>1008.5</ele><time>2026-04-26T15:49:01.302Z</time></trkpt><trkpt lat="46.5522122" lon="12.5549336"><ele>1010.0</ele><time>2026-04-26T15:49:02.297Z</time></trkpt><trkpt lat="46.552143" lon="12.5549008"><ele>1011.5000000000001</ele><time>2026-04-26T15:49:03.299Z</time></trkpt><trkpt lat="46.5520715" lon="12.5548883"><ele>1013.0</ele><time>2026-04-26T15:49:04.293Z</time></trkpt><trkpt lat="46.551995" lon="12.5548978"><ele>1017.0</ele><time>2026-04-26T15:49:05.289Z</time></trkpt><trkpt lat="46.5519246" lon="12.5549151"><ele>1021.0</ele><time>2026-04-26T15:49:06.295Z</time></trkpt><trkpt lat="46.5518389" lon="12.5549436"><ele>1025.0</ele><time>2026-04-26T15:49:07.296Z</time></trkpt><trkpt lat="46.5517397" lon="12.5549814"><ele>1029.0</ele><time>2026-04-26T15:49:08.302Z</time></trkpt><trkpt lat="46.551635" lon="12.5549992"><ele>1033.0</ele><time>2026-04-26T15:49:09.299Z</time></trkpt><trkpt lat="46.5515165" lon="12.5549997"><ele>1033.0</ele><time>2026-04-26T15:49:10.295Z</time></trkpt><trkpt lat="46.5514138" lon="12.5549918"><ele>1033.0</ele><time>2026-04-26T15:49:11.307Z</time></trkpt><trkpt lat="46.5513228" lon="12.5549892"><ele>1033.0</ele><time>2026-04-26T15:49:12.299Z</time></trkpt><trkpt lat="46.5512488" lon="12.5549853"><ele>1033.0</ele><time>2026-04-26T15:49:13.296Z</time></trkpt><trkpt lat="46.5511958" lon="12.5550363"><ele>1033.0</ele><time>2026-04-26T15:49:15.291Z</time></trkpt><trkpt lat="46.551211" lon="12.5552"><ele>1033.0</ele><time>2026-04-26T15:49:17.301Z</time></trkpt><trkpt lat="46.5512507" lon="12.5552755"><ele>1033.0</ele><time>2026-04-26T15:49:18.295Z</time></trkpt><trkpt lat="46.5513043" lon="12.5553597"><ele>1033.0</ele><time>2026-04-26T15:49:19.308Z</time></trkpt><trkpt lat="46.5513853" lon="12.5554331"><ele>1033.0</ele><time>2026-04-26T15:49:20.296Z</time></trkpt><trkpt lat="46.5514824" lon="12.5555093"><ele>1033.0</ele><time>2026-04-26T15:49:21.299Z</time></trkpt><trkpt lat="46.5515852" lon="12.5555927"><ele>1033.0</ele><time>2026-04-26T15:49:22.296Z</time></trkpt><trkpt lat="46.5516708" lon="12.5556578"><ele>1035.2</ele><time>2026-04-26T15:49:23.3Z</time></trkpt><trkpt lat="46.5517267" lon="12.5557522"><ele>1037.4</ele><time>2026-04-26T15:49:25.303Z</time></trkpt><trkpt lat="46.5516947" lon="12.5558529"><ele>1039.6000000000001</ele><time>2026-04-26T15:49:27.292Z</time></trkpt><trkpt lat="46.5515617" lon="12.5558803"><ele>1041.8</ele><time>2026-04-26T15:49:29.292Z</time></trkpt><trkpt lat="46.5514736" lon="12.5558613"><ele>1044.0</ele><time>2026-04-26T15:49:30.304Z</time></trkpt><trkpt lat="46.5513888" lon="12.5558475"><ele>1044.0</ele><time>2026-04-26T15:49:31.292Z</time></trkpt><trkpt lat="46.5513047" lon="12.5558322"><ele>1044.0</ele><time>2026-04-26T15:49:32.292Z</time></trkpt><trkpt lat="46.5512343" lon="12.5558098"><ele>1044.0</ele><time>2026-04-26T15:49:33.292Z</time></trkpt><trkpt lat="46.5511674" lon="12.5557794"><ele>1044.0</ele><time>2026-04-26T15:49:34.294Z</time></trkpt><trkpt lat="46.5510927" lon="12.5557993"><ele>1044.0</ele><time>2026-04-26T15:49:36.3Z</time></trkpt><trkpt lat="46.5510883" lon="12.555899"><ele>1044.0</ele><time>2026-04-26T15:49:38.294Z</time></trkpt><trkpt lat="46.5511513" lon="12.5560531"><ele>1045.6666666666667</ele><time>2026-04-26T15:49:40.301Z</time></trkpt><trkpt lat="46.5511928" lon="12.556125"><ele>1047.3333333333333</ele><time>2026-04-26T15:49:41.299Z</time></trkpt><trkpt lat="46.5512682" lon="12.5562498"><ele>1049.0</ele><time>2026-04-26T15:49:43.296Z</time></trkpt><trkpt lat="46.5513055" lon="12.5564214"><ele>1050.6666666666665</ele><time>2026-04-26T15:49:45.295Z</time></trkpt><trkpt lat="46.5513048" lon="12.5565157"><ele>1052.3333333333333</ele><time>2026-04-26T15:49:46.3Z</time></trkpt><trkpt lat="46.5512902" lon="12.5566057"><ele>1054.0</ele><time>2026-04-26T15:49:47.292Z</time></trkpt><trkpt lat="46.5512776" lon="12.5567893"><ele>1054.0</ele><time>2026-04-26T15:49:49.299Z</time></trkpt><trkpt lat="46.5512999" lon="12.5569394"><ele>1054.0</ele><time>2026-04-26T15:49:51.298Z</time></trkpt><trkpt lat="46.5513114" lon="12.5570642"><ele>1054.0</ele><time>2026-04-26T15:49:53.297Z</time></trkpt><trkpt lat="46.5512459" lon="12.5570978"><ele>1054.0</ele><time>2026-04-26T15:49:56.293Z</time></trkpt><trkpt lat="46.5511878" lon="12.5570048"><ele>1054.0</ele><time>2026-04-26T15:49:58.295Z</time></trkpt><trkpt lat="46.5511371" lon="12.5569466"><ele>1054.0</ele><time>2026-04-26T15:49:59.3Z</time></trkpt><trkpt lat="46.5510769" lon="12.5568808"><ele>1057.5</ele><time>2026-04-26T15:50:00.299Z</time></trkpt><trkpt lat="46.5510027" lon="12.5568399"><ele>1061.0</ele><time>2026-04-26T15:50:01.294Z</time></trkpt><trkpt lat="46.5509225" lon="12.5568195"><ele>1064.5</ele><time>2026-04-26T15:50:02.294Z</time></trkpt><trkpt lat="46.5508493" lon="12.5568014"><ele>1068.0</ele><time>2026-04-26T15:50:03.299Z</time></trkpt><trkpt lat="46.5507797" lon="12.5567817"><ele>1071.5</ele><time>2026-04-26T15:50:04.3Z</time></trkpt><trkpt lat="46.5506657" lon="12.5566991"><ele>1075.0</ele><time>2026-04-26T15:50:06.29Z</time></trkpt><trkpt lat="46.5505696" lon="12.5566456"><ele>1075.0</ele><time>2026-04-26T15:50:08.3Z</time></trkpt><trkpt lat="46.5505181" lon="12.5567244"><ele>1075.0</ele><time>2026-04-26T15:50:10.291Z</time></trkpt><trkpt lat="46.5505495" lon="12.5568614"><ele>1075.0</ele><time>2026-04-26T15:50:12.296Z</time></trkpt><trkpt lat="46.550601" lon="12.5569957"><ele>1075.0</ele><time>2026-04-26T15:50:14.294Z</time></trkpt><trkpt lat="46.5506184" lon="12.5571433"><ele>1075.0</ele><time>2026-04-26T15:50:16.298Z</time></trkpt><trkpt lat="46.5506515" lon="12.5573093"><ele>1077.0</ele><time>2026-04-26T15:50:18.292Z</time></trkpt><trkpt lat="46.5506702" lon="12.5573999"><ele>1079.0</ele><time>2026-04-26T15:50:19.298Z</time></trkpt><trkpt lat="46.5506919" lon="12.5575084"><ele>1081.0</ele><time>2026-04-26T15:50:20.304Z</time></trkpt><trkpt lat="46.5507088" lon="12.5576403"><ele>1083.0</ele><time>2026-04-26T15:50:21.296Z</time></trkpt><trkpt lat="46.5507086" lon="12.5577832"><ele>1085.0</ele><time>2026-04-26T15:50:22.312Z</time></trkpt><trkpt lat="46.5507183" lon="12.5579051"><ele>1087.0</ele><time>2026-04-26T15:50:23.297Z</time></trkpt><trkpt lat="46.550731" lon="12.5580267"><ele>1089.3333333333333</ele><time>2026-04-26T15:50:24.291Z</time></trkpt><trkpt lat="46.5507364" lon="12.5581548"><ele>1091.6666666666665</ele><time>2026-04-26T15:50:25.304Z</time></trkpt><trkpt lat="46.5507362" lon="12.55829"><ele>1094.0</ele><time>2026-04-26T15:50:26.3Z</time></trkpt><trkpt lat="46.55073" lon="12.5584255"><ele>1096.3333333333333</ele><time>2026-04-26T15:50:27.304Z</time></trkpt><trkpt lat="46.5507288" lon="12.5585428"><ele>1098.6666666666667</ele><time>2026-04-26T15:50:28.294Z</time></trkpt><trkpt lat="46.5507243" lon="12.5586732"><ele>1101.0</ele><time>2026-04-26T15:50:29.298Z</time></trkpt><trkpt lat="46.5507148" lon="12.5588166"><ele>1103.6666666666667</ele><time>2026-04-26T15:50:30.3Z</time></trkpt><trkpt lat="46.5507049" lon="12.5589199"><ele>1106.3333333333333</ele><time>2026-04-26T15:50:31.301Z</time></trkpt><trkpt lat="46.5506634" lon="12.5590168"><ele>1109.0</ele><time>2026-04-26T15:50:32.299Z</time></trkpt><trkpt lat="46.5506333" lon="12.5591734"><ele>1111.6666666666665</ele><time>2026-04-26T15:50:34.298Z</time></trkpt><trkpt lat="46.5506575" lon="12.5593347"><ele>1114.3333333333333</ele><time>2026-04-26T15:50:36.292Z</time></trkpt><trkpt lat="46.5506844" lon="12.5594289"><ele>1117.0</ele><time>2026-04-26T15:50:37.29Z</time></trkpt><trkpt lat="46.5507148" lon="12.5595171"><ele>1117.0</ele><time>2026-04-26T15:50:38.291Z</time></trkpt><trkpt lat="46.5507589" lon="12.5595889"><ele>1117.0</ele><time>2026-04-26T15:50:39.295Z</time></trkpt><trkpt lat="46.5508387" lon="12.5596554"><ele>1117.0</ele><time>2026-04-26T15:50:41.296Z</time></trkpt><trkpt lat="46.550911" lon="12.55966"><ele>1117.0</ele><time>2026-04-26T15:50:43.293Z</time></trkpt><trkpt lat="46.550999" lon="12.5595776"><ele>1117.0</ele><time>2026-04-26T15:50:45.299Z</time></trkpt><trkpt lat="46.5510556" lon="12.5595021"><ele>1117.0</ele><time>2026-04-26T15:50:46.3Z</time></trkpt><trkpt lat="46.5511231" lon="12.5593959"><ele>1117.0</ele><time>2026-04-26T15:50:47.303Z</time></trkpt><trkpt lat="46.5511866" lon="12.5592878"><ele>1117.0</ele><time>2026-04-26T15:50:48.303Z</time></trkpt><trkpt lat="46.5512475" lon="12.5591809"><ele>1117.0</ele><time>2026-04-26T15:50:49.298Z</time></trkpt><trkpt lat="46.5513133" lon="12.5590734"><ele>1117.0</ele><time>2026-04-26T15:50:50.294Z</time></trkpt><trkpt lat="46.551378" lon="12.5589891"><ele>1117.0</ele><time>2026-04-26T15:50:51.297Z</time></trkpt><trkpt lat="46.5514314" lon="12.5589287"><ele>1117.0</ele><time>2026-04-26T15:50:52.297Z</time></trkpt><trkpt lat="46.5515158" lon="12.558829"><ele>1118.0</ele><time>2026-04-26T15:50:54.302Z</time></trkpt><trkpt lat="46.5516447" lon="12.5588574"><ele>1119.0</ele><time>2026-04-26T15:50:56.305Z</time></trkpt><trkpt lat="46.5517152" lon="12.5589141"><ele>1120.0</ele><time>2026-04-26T15:50:57.299Z</time></trkpt><trkpt lat="46.5517832" lon="12.5589859"><ele>1121.0</ele><time>2026-04-26T15:50:58.3Z</time></trkpt><trkpt lat="46.5518508" lon="12.55907"><ele>1122.0</ele><time>2026-04-26T15:50:59.29Z</time></trkpt><trkpt lat="46.5519143" lon="12.5591597"><ele>1122.0</ele><time>2026-04-26T15:51:00.298Z</time></trkpt><trkpt lat="46.551969" lon="12.5592764"><ele>1122.0</ele><time>2026-04-26T15:51:01.299Z</time></trkpt><trkpt lat="46.5520064" lon="12.5594121"><ele>1122.0</ele><time>2026-04-26T15:51:02.298Z</time></trkpt><trkpt lat="46.5520519" lon="12.5595176"><ele>1122.0</ele><time>2026-04-26T15:51:03.298Z</time></trkpt><trkpt lat="46.5520996" lon="12.5595948"><ele>1122.0</ele><time>2026-04-26T15:51:04.299Z</time></trkpt><trkpt lat="46.552189" lon="12.5596785"><ele>1125.2</ele><time>2026-04-26T15:51:06.291Z</time></trkpt><trkpt lat="46.5522946" lon="12.5596989"><ele>1128.4</ele><time>2026-04-26T15:51:08.301Z</time></trkpt><trkpt lat="46.5523982" lon="12.5597169"><ele>1131.6</ele><time>2026-04-26T15:51:10.295Z</time></trkpt><trkpt lat="46.5524598" lon="12.5597731"><ele>1134.8</ele><time>2026-04-26T15:51:11.3Z</time></trkpt><trkpt lat="46.5525227" lon="12.5598646"><ele>1138.0</ele><time>2026-04-26T15:51:12.293Z</time></trkpt><trkpt lat="46.5525932" lon="12.559951"><ele>1138.0</ele><time>2026-04-26T15:51:13.295Z</time></trkpt><trkpt lat="46.5526697" lon="12.5600407"><ele>1138.0</ele><time>2026-04-26T15:51:14.291Z</time></trkpt><trkpt lat="46.552744" lon="12.5601298"><ele>1138.0</ele><time>2026-04-26T15:51:15.292Z</time></trkpt><trkpt lat="46.5527991" lon="12.5602091"><ele>1138.0</ele><time>2026-04-26T15:51:16.297Z</time></trkpt><trkpt lat="46.5528396" lon="12.5602844"><ele>1138.0</ele><time>2026-04-26T15:51:17.298Z</time></trkpt><trkpt lat="46.5528754" lon="12.5603625"><ele>1138.0</ele><time>2026-04-26T15:51:18.303Z</time></trkpt><trkpt lat="46.552913" lon="12.5605257"><ele>1137.0</ele><time>2026-04-26T15:51:20.299Z</time></trkpt><trkpt lat="46.5529133" lon="12.5606272"><ele>1136.0</ele><time>2026-04-26T15:51:21.299Z</time></trkpt><trkpt lat="46.5529259" lon="12.5607383"><ele>1135.0</ele><time>2026-04-26T15:51:22.297Z</time></trkpt><trkpt lat="46.552965" lon="12.5608422"><ele>1134.0</ele><time>2026-04-26T15:51:23.293Z</time></trkpt><trkpt lat="46.5530049" lon="12.5609492"><ele>1133.0</ele><time>2026-04-26T15:51:24.3Z</time></trkpt><trkpt lat="46.553044" lon="12.5610779"><ele>1132.0</ele><time>2026-04-26T15:51:25.3Z</time></trkpt><trkpt lat="46.5530691" lon="12.5612135"><ele>1134.4</ele><time>2026-04-26T15:51:26.296Z</time></trkpt><trkpt lat="46.55309" lon="12.5613456"><ele>1136.8000000000002</ele><time>2026-04-26T15:51:27.309Z</time></trkpt><trkpt lat="46.5531332" lon="12.5614862"><ele>1139.2</ele><time>2026-04-26T15:51:28.3Z</time></trkpt><trkpt lat="46.5531828" lon="12.5616039"><ele>1141.6000000000001</ele><time>2026-04-26T15:51:29.306Z</time></trkpt><trkpt lat="46.553226" lon="12.5617163"><ele>1144.0</ele><time>2026-04-26T15:51:30.294Z</time></trkpt><trkpt lat="46.5532699" lon="12.5618735"><ele>1144.0</ele><time>2026-04-26T15:51:32.292Z</time></trkpt><trkpt lat="46.5532768" lon="12.5619796"><ele>1144.0</ele><time>2026-04-26T15:51:33.302Z</time></trkpt><trkpt lat="46.5532672" lon="12.5621018"><ele>1144.0</ele><time>2026-04-26T15:51:34.295Z</time></trkpt><trkpt lat="46.5532476" lon="12.5622421"><ele>1144.0</ele><time>2026-04-26T15:51:35.298Z</time></trkpt><trkpt lat="46.5532446" lon="12.5623839"><ele>1144.0</ele><time>2026-04-26T15:51:36.295Z</time></trkpt><trkpt lat="46.5532451" lon="12.5625107"><ele>1144.0</ele><time>2026-04-26T15:51:37.292Z</time></trkpt><trkpt lat="46.5532485" lon="12.5626402"><ele>1144.2</ele><time>2026-04-26T15:51:38.289Z</time></trkpt><trkpt lat="46.553268" lon="12.5627764"><ele>1144.4</ele><time>2026-04-26T15:51:39.297Z</time></trkpt><trkpt lat="46.5532949" lon="12.5629133"><ele>1144.6</ele><time>2026-04-26T15:51:40.297Z</time></trkpt><trkpt lat="46.5533148" lon="12.563052"><ele>1144.8</ele><time>2026-04-26T15:51:41.296Z</time></trkpt><trkpt lat="46.553325" lon="12.563197"><ele>1145.0</ele><time>2026-04-26T15:51:42.292Z</time></trkpt><trkpt lat="46.5533475" lon="12.5633529"><ele>1145.5</ele><time>2026-04-26T15:51:43.293Z</time></trkpt><trkpt lat="46.553378" lon="12.5634926"><ele>1146.0</ele><time>2026-04-26T15:51:44.293Z</time></trkpt><trkpt lat="46.553401" lon="12.5636287"><ele>1146.5</ele><time>2026-04-26T15:51:45.295Z</time></trkpt><trkpt lat="46.5534125" lon="12.5637389"><ele>1147.0</ele><time>2026-04-26T15:51:46.297Z</time></trkpt><trkpt lat="46.5534293" lon="12.563846"><ele>1147.5</ele><time>2026-04-26T15:51:47.298Z</time></trkpt><trkpt lat="46.5534511" lon="12.5639576"><ele>1148.0</ele><time>2026-04-26T15:51:48.294Z</time></trkpt><trkpt lat="46.5534654" lon="12.5640716"><ele>1148.0</ele><time>2026-04-26T15:51:49.296Z</time></trkpt><trkpt lat="46.5534953" lon="12.5641795"><ele>1148.0</ele><time>2026-04-26T15:51:50.3Z</time></trkpt><trkpt lat="46.5535216" lon="12.5642735"><ele>1148.0</ele><time>2026-04-26T15:51:51.297Z</time></trkpt><trkpt lat="46.5535601" lon="12.5643599"><ele>1148.0</ele><time>2026-04-26T15:51:52.297Z</time></trkpt><trkpt lat="46.5535937" lon="12.5644449"><ele>1148.0</ele><time>2026-04-26T15:51:53.295Z</time></trkpt><trkpt lat="46.553626" lon="12.5645335"><ele>1148.0</ele><time>2026-04-26T15:51:54.294Z</time></trkpt><trkpt lat="46.5536449" lon="12.5646282"><ele>1148.0</ele><time>2026-04-26T15:51:55.297Z</time></trkpt><trkpt lat="46.5536393" lon="12.5647993"><ele>1148.3333333333335</ele><time>2026-04-26T15:51:57.303Z</time></trkpt><trkpt lat="46.5536072" lon="12.5649038"><ele>1148.6666666666667</ele><time>2026-04-26T15:51:58.307Z</time></trkpt><trkpt lat="46.5535622" lon="12.5649967"><ele>1149.0</ele><time>2026-04-26T15:51:59.295Z</time></trkpt><trkpt lat="46.5535163" lon="12.5650947"><ele>1149.3333333333333</ele><time>2026-04-26T15:52:00.301Z</time></trkpt><trkpt lat="46.553477" lon="12.5652044"><ele>1149.6666666666665</ele><time>2026-04-26T15:52:01.297Z</time></trkpt><trkpt lat="46.5534348" lon="12.5653182"><ele>1150.0</ele><time>2026-04-26T15:52:02.299Z</time></trkpt><trkpt lat="46.5533817" lon="12.5654025"><ele>1150.0</ele><time>2026-04-26T15:52:03.3Z</time></trkpt><trkpt lat="46.5533309" lon="12.5654894"><ele>1150.0</ele><time>2026-04-26T15:52:04.301Z</time></trkpt><trkpt lat="46.55327" lon="12.5655694"><ele>1150.0</ele><time>2026-04-26T15:52:05.297Z</time></trkpt><trkpt lat="46.5532182" lon="12.5656331"><ele>1150.0</ele><time>2026-04-26T15:52:06.296Z</time></trkpt><trkpt lat="46.5531557" lon="12.565742"><ele>1150.0</ele><time>2026-04-26T15:52:08.297Z</time></trkpt><trkpt lat="46.5531554" lon="12.5658373"><ele>1150.0</ele><time>2026-04-26T15:52:10.3Z</time></trkpt><trkpt lat="46.5532299" lon="12.5658671"><ele>1150.0</ele><time>2026-04-26T15:52:13.298Z</time></trkpt><trkpt lat="46.5533585" lon="12.5658632"><ele>1150.0</ele><time>2026-04-26T15:52:15.301Z</time></trkpt><trkpt lat="46.5534471" lon="12.5658511"><ele>1150.0</ele><time>2026-04-26T15:52:16.297Z</time></trkpt><trkpt lat="46.5535404" lon="12.5658494"><ele>1150.0</ele><time>2026-04-26T15:52:17.302Z</time></trkpt><trkpt lat="46.5536464" lon="12.5658524"><ele>1150.0</ele><time>2026-04-26T15:52:18.303Z</time></trkpt><trkpt lat="46.5537554" lon="12.5658611"><ele>1149.4</ele><time>2026-04-26T15:52:19.291Z</time></trkpt><trkpt lat="46.5538397" lon="12.565876"><ele>1148.8</ele><time>2026-04-26T15:52:20.299Z</time></trkpt><trkpt lat="46.5539473" lon="12.5659507"><ele>1148.2</ele><time>2026-04-26T15:52:22.307Z</time></trkpt><trkpt lat="46.5540196" lon="12.5661231"><ele>1147.6</ele><time>2026-04-26T15:52:24.299Z</time></trkpt><trkpt lat="46.5540284" lon="12.5662433"><ele>1147.0</ele><time>2026-04-26T15:52:25.297Z</time></trkpt><trkpt lat="46.5540343" lon="12.5663636"><ele>1147.0</ele><time>2026-04-26T15:52:26.293Z</time></trkpt><trkpt lat="46.5540388" lon="12.5664964"><ele>1147.0</ele><time>2026-04-26T15:52:27.3Z</time></trkpt><trkpt lat="46.5540567" lon="12.5665962"><ele>1147.0</ele><time>2026-04-26T15:52:28.299Z</time></trkpt><trkpt lat="46.5540653" lon="12.5667075"><ele>1147.0</ele><time>2026-04-26T15:52:29.296Z</time></trkpt><trkpt lat="46.5540629" lon="12.5668199"><ele>1147.0</ele><time>2026-04-26T15:52:30.292Z</time></trkpt><trkpt lat="46.554037" lon="12.5669105"><ele>1147.0</ele><time>2026-04-26T15:52:31.305Z</time></trkpt><trkpt lat="46.5540025" lon="12.5669935"><ele>1149.6666666666665</ele><time>2026-04-26T15:52:32.296Z</time></trkpt><trkpt lat="46.5539419" lon="12.5670534"><ele>1152.3333333333333</ele><time>2026-04-26T15:52:33.298Z</time></trkpt><trkpt lat="46.5538754" lon="12.5671259"><ele>1155.0</ele><time>2026-04-26T15:52:34.295Z</time></trkpt><trkpt lat="46.5538051" lon="12.5671983"><ele>1157.6666666666667</ele><time>2026-04-26T15:52:35.302Z</time></trkpt><trkpt lat="46.5537313" lon="12.5672583"><ele>1160.3333333333335</ele><time>2026-04-26T15:52:36.299Z</time></trkpt><trkpt lat="46.5536627" lon="12.5673154"><ele>1163.0</ele><time>2026-04-26T15:52:37.305Z</time></trkpt><trkpt lat="46.5535982" lon="12.5673574"><ele>1163.0</ele><time>2026-04-26T15:52:38.307Z</time></trkpt><trkpt lat="46.5535492" lon="12.5674552"><ele>1163.0</ele><time>2026-04-26T15:52:40.304Z</time></trkpt><trkpt lat="46.5535754" lon="12.5675951"><ele>1163.0</ele><time>2026-04-26T15:52:43.294Z</time></trkpt><trkpt lat="46.5536288" lon="12.5676669"><ele>1163.0</ele><time>2026-04-26T15:52:44.296Z</time></trkpt><trkpt lat="46.5537399" lon="12.567769"><ele>1163.0</ele><time>2026-04-26T15:52:46.301Z</time></trkpt><trkpt lat="46.5538038" lon="12.5678083"><ele>1163.0</ele><time>2026-04-26T15:52:47.305Z</time></trkpt><trkpt lat="46.5538785" lon="12.5678239"><ele>1163.0</ele><time>2026-04-26T15:52:48.3Z</time></trkpt><trkpt lat="46.5539556" lon="12.5678146"><ele>1163.0</ele><time>2026-04-26T15:52:49.295Z</time></trkpt><trkpt lat="46.554073" lon="12.5678028"><ele>1163.0</ele><time>2026-04-26T15:52:50.3Z</time></trkpt><trkpt lat="46.5541813" lon="12.5678197"><ele>1163.0</ele><time>2026-04-26T15:52:51.297Z</time></trkpt><trkpt lat="46.5542746" lon="12.5678467"><ele>1163.8333333333335</ele><time>2026-04-26T15:52:52.294Z</time></trkpt><trkpt lat="46.5543609" lon="12.567884"><ele>1164.6666666666667</ele><time>2026-04-26T15:52:53.298Z</time></trkpt><trkpt lat="46.5544353" lon="12.5679335"><ele>1165.5</ele><time>2026-04-26T15:52:54.298Z</time></trkpt><trkpt lat="46.5544907" lon="12.5679851"><ele>1166.3333333333333</ele><time>2026-04-26T15:52:55.3Z</time></trkpt><trkpt lat="46.5545462" lon="12.5680582"><ele>1167.1666666666665</ele><time>2026-04-26T15:52:56.302Z</time></trkpt><trkpt lat="46.5545743" lon="12.5681556"><ele>1168.0</ele><time>2026-04-26T15:52:57.293Z</time></trkpt><trkpt lat="46.5545943" lon="12.5682749"><ele>1168.0</ele><time>2026-04-26T15:52:58.29Z</time></trkpt><trkpt lat="46.5546228" lon="12.568417"><ele>1168.0</ele><time>2026-04-26T15:52:59.301Z</time></trkpt><trkpt lat="46.5546934" lon="12.5685408"><ele>1168.0</ele><time>2026-04-26T15:53:00.301Z</time></trkpt><trkpt lat="46.5547613" lon="12.5686556"><ele>1168.0</ele><time>2026-04-26T15:53:01.301Z</time></trkpt><trkpt lat="46.5548232" lon="12.5687444"><ele>1168.0</ele><time>2026-04-26T15:53:02.302Z</time></trkpt><trkpt lat="46.5548816" lon="12.5688369"><ele>1170.3333333333333</ele><time>2026-04-26T15:53:03.298Z</time></trkpt><trkpt lat="46.5549225" lon="12.5689376"><ele>1172.6666666666665</ele><time>2026-04-26T15:53:04.297Z</time></trkpt><trkpt lat="46.5549454" lon="12.5691034"><ele>1175.0</ele><time>2026-04-26T15:53:06.292Z</time></trkpt><trkpt lat="46.5549427" lon="12.5691979"><ele>1177.3333333333333</ele><time>2026-04-26T15:53:07.303Z</time></trkpt><trkpt lat="46.5549484" lon="12.5692944"><ele>1179.6666666666667</ele><time>2026-04-26T15:53:08.296Z</time></trkpt><trkpt lat="46.5549623" lon="12.5693976"><ele>1182.0</ele><time>2026-04-26T15:53:09.299Z</time></trkpt><trkpt lat="46.5549849" lon="12.5694914"><ele>1183.8333333333333</ele><time>2026-04-26T15:53:10.302Z</time></trkpt><trkpt lat="46.5550229" lon="12.5695903"><ele>1185.6666666666667</ele><time>2026-04-26T15:53:11.297Z</time></trkpt><trkpt lat="46.5550417" lon="12.5696902"><ele>1187.5</ele><time>2026-04-26T15:53:12.293Z</time></trkpt><trkpt lat="46.5550492" lon="12.5698068"><ele>1189.3333333333335</ele><time>2026-04-26T15:53:13.298Z</time></trkpt><trkpt lat="46.5550448" lon="12.5699402"><ele>1191.1666666666667</ele><time>2026-04-26T15:53:14.303Z</time></trkpt><trkpt lat="46.5550313" lon="12.5700849"><ele>1193.0</ele><time>2026-04-26T15:53:15.299Z</time></trkpt><trkpt lat="46.5550133" lon="12.5702567"><ele>1193.6</ele><time>2026-04-26T15:53:16.306Z</time></trkpt><trkpt lat="46.5549906" lon="12.5704302"><ele>1194.1999999999998</ele><time>2026-04-26T15:53:17.297Z</time></trkpt><trkpt lat="46.5549713" lon="12.5705989"><ele>1194.8</ele><time>2026-04-26T15:53:18.299Z</time></trkpt><trkpt lat="46.554958" lon="12.5707161"><ele>1195.3999999999999</ele><time>2026-04-26T15:53:19.297Z</time></trkpt><trkpt lat="46.5549479" lon="12.5708071"><ele>1196.0</ele><time>2026-04-26T15:53:20.296Z</time></trkpt><trkpt lat="46.5549393" lon="12.570962"><ele>1196.0</ele><time>2026-04-26T15:53:22.299Z</time></trkpt><trkpt lat="46.5549072" lon="12.5710773"><ele>1196.0</ele><time>2026-04-26T15:53:24.303Z</time></trkpt><trkpt lat="46.5548258" lon="12.5711334"><ele>1196.0</ele><time>2026-04-26T15:53:26.299Z</time></trkpt><trkpt lat="46.5547571" lon="12.5711215"><ele>1196.0</ele><time>2026-04-26T15:53:28.302Z</time></trkpt><trkpt lat="46.5547209" lon="12.5710245"><ele>1196.0</ele><time>2026-04-26T15:53:30.293Z</time></trkpt><trkpt lat="46.5546772" lon="12.5708744"><ele>1196.0</ele><time>2026-04-26T15:53:32.3Z</time></trkpt><trkpt lat="46.554653" lon="12.5707796"><ele>1196.0</ele><time>2026-04-26T15:53:33.294Z</time></trkpt><trkpt lat="46.5546358" lon="12.5706908"><ele>1196.0</ele><time>2026-04-26T15:53:34.297Z</time></trkpt><trkpt lat="46.5546136" lon="12.5705987"><ele>1196.0</ele><time>2026-04-26T15:53:35.294Z</time></trkpt><trkpt lat="46.5545835" lon="12.5704898"><ele>1196.0</ele><time>2026-04-26T15:53:36.298Z</time></trkpt><trkpt lat="46.554555" lon="12.5703832"><ele>1196.0</ele><time>2026-04-26T15:53:37.301Z</time></trkpt><trkpt lat="46.554528" lon="12.5702984"><ele>1196.0</ele><time>2026-04-26T15:53:38.303Z</time></trkpt><trkpt lat="46.554482" lon="12.5701231"><ele>1198.8333333333335</ele><time>2026-04-26T15:53:40.296Z</time></trkpt><trkpt lat="46.5544555" lon="12.5700228"><ele>1201.6666666666667</ele><time>2026-04-26T15:53:41.304Z</time></trkpt><trkpt lat="46.5544108" lon="12.5699533"><ele>1204.5</ele><time>2026-04-26T15:53:42.298Z</time></trkpt><trkpt lat="46.5543126" lon="12.5698986"><ele>1207.3333333333333</ele><time>2026-04-26T15:53:44.306Z</time></trkpt><trkpt lat="46.5542425" lon="12.5699054"><ele>1210.1666666666665</ele><time>2026-04-26T15:53:45.295Z</time></trkpt><trkpt lat="46.5541721" lon="12.5699249"><ele>1213.0</ele><time>2026-04-26T15:53:46.298Z</time></trkpt><trkpt lat="46.5541005" lon="12.5699328"><ele>1213.0</ele><time>2026-04-26T15:53:47.303Z</time></trkpt><trkpt lat="46.5540326" lon="12.5699531"><ele>1213.0</ele><time>2026-04-26T15:53:48.301Z</time></trkpt><trkpt lat="46.5539521" lon="12.5699715"><ele>1213.0</ele><time>2026-04-26T15:53:49.304Z</time></trkpt><trkpt lat="46.5538676" lon="12.5699948"><ele>1213.0</ele><time>2026-04-26T15:53:50.301Z</time></trkpt><trkpt lat="46.5537837" lon="12.5700144"><ele>1213.0</ele><time>2026-04-26T15:53:51.3Z</time></trkpt><trkpt lat="46.5537066" lon="12.5700395"><ele>1213.0</ele><time>2026-04-26T15:53:52.295Z</time></trkpt><trkpt lat="46.5536356" lon="12.5700788"><ele>1215.0</ele><time>2026-04-26T15:53:53.298Z</time></trkpt><trkpt lat="46.5535735" lon="12.5701436"><ele>1217.0</ele><time>2026-04-26T15:53:54.299Z</time></trkpt><trkpt lat="46.5535227" lon="12.5702131"><ele>1219.0</ele><time>2026-04-26T15:53:55.294Z</time></trkpt><trkpt lat="46.5534944" lon="12.5703046"><ele>1221.0</ele><time>2026-04-26T15:53:56.3Z</time></trkpt><trkpt lat="46.5534771" lon="12.5704196"><ele>1223.0</ele><time>2026-04-26T15:53:57.295Z</time></trkpt><trkpt lat="46.5534641" lon="12.5705315"><ele>1225.0</ele><time>2026-04-26T15:53:58.297Z</time></trkpt><trkpt lat="46.5534485" lon="12.5706289"><ele>1227.0</ele><time>2026-04-26T15:53:59.296Z</time></trkpt><trkpt lat="46.5534089" lon="12.5707574"><ele>1229.8333333333333</ele><time>2026-04-26T15:54:01.298Z</time></trkpt><trkpt lat="46.5533292" lon="12.5707727"><ele>1232.6666666666667</ele><time>2026-04-26T15:54:03.302Z</time></trkpt><trkpt lat="46.5532366" lon="12.5707071"><ele>1235.5</ele><time>2026-04-26T15:54:05.298Z</time></trkpt><trkpt lat="46.5531713" lon="12.5706471"><ele>1238.3333333333335</ele><time>2026-04-26T15:54:06.294Z</time></trkpt><trkpt lat="46.5531036" lon="12.5705798"><ele>1241.1666666666667</ele><time>2026-04-26T15:54:07.306Z</time></trkpt><trkpt lat="46.553029" lon="12.5705261"><ele>1244.0</ele><time>2026-04-26T15:54:08.291Z</time></trkpt><trkpt lat="46.5529462" lon="12.5704796"><ele>1245.1666666666667</ele><time>2026-04-26T15:54:09.296Z</time></trkpt><trkpt lat="46.5528668" lon="12.5704382"><ele>1246.3333333333335</ele><time>2026-04-26T15:54:10.297Z</time></trkpt><trkpt lat="46.5527955" lon="12.5703836"><ele>1247.5</ele><time>2026-04-26T15:54:11.298Z</time></trkpt><trkpt lat="46.5527399" lon="12.5703248"><ele>1248.6666666666667</ele><time>2026-04-26T15:54:12.305Z</time></trkpt><trkpt lat="46.5526988" lon="12.5702424"><ele>1249.8333333333333</ele><time>2026-04-26T15:54:13.299Z</time></trkpt><trkpt lat="46.5526487" lon="12.5701439"><ele>1251.0</ele><time>2026-04-26T15:54:14.293Z</time></trkpt><trkpt lat="46.5525977" lon="12.5700475"><ele>1251.0</ele><time>2026-04-26T15:54:15.295Z</time></trkpt><trkpt lat="46.552542" lon="12.5699555"><ele>1251.0</ele><time>2026-04-26T15:54:16.301Z</time></trkpt><trkpt lat="46.5524705" lon="12.5698688"><ele>1251.0</ele><time>2026-04-26T15:54:17.303Z</time></trkpt><trkpt lat="46.5524061" lon="12.5697999"><ele>1251.0</ele><time>2026-04-26T15:54:18.299Z</time></trkpt><trkpt lat="46.5523411" lon="12.5697562"><ele>1251.0</ele><time>2026-04-26T15:54:19.299Z</time></trkpt><trkpt lat="46.5522699" lon="12.5697208"><ele>1251.0</ele><time>2026-04-26T15:54:20.303Z</time></trkpt><trkpt lat="46.5521909" lon="12.5697087"><ele>1251.0</ele><time>2026-04-26T15:54:21.301Z</time></trkpt><trkpt lat="46.5521046" lon="12.5697106"><ele>1251.0</ele><time>2026-04-26T15:54:22.308Z</time></trkpt><trkpt lat="46.552026" lon="12.5697151"><ele>1251.0</ele><time>2026-04-26T15:54:23.297Z</time></trkpt><trkpt lat="46.5519458" lon="12.5697079"><ele>1251.0</ele><time>2026-04-26T15:54:24.296Z</time></trkpt><trkpt lat="46.5518569" lon="12.5696929"><ele>1251.0</ele><time>2026-04-26T15:54:25.301Z</time></trkpt><trkpt lat="46.5517753" lon="12.569672"><ele>1251.0</ele><time>2026-04-26T15:54:26.298Z</time></trkpt><trkpt lat="46.5517101" lon="12.5696488"><ele>1250.8</ele><time>2026-04-26T15:54:27.311Z</time></trkpt><trkpt lat="46.5516305" lon="12.5695552"><ele>1250.6</ele><time>2026-04-26T15:54:29.296Z</time></trkpt><trkpt lat="46.551575" lon="12.5694657"><ele>1250.4</ele><time>2026-04-26T15:54:30.3Z</time></trkpt><trkpt lat="46.5515066" lon="12.5693808"><ele>1250.2</ele><time>2026-04-26T15:54:31.293Z</time></trkpt><trkpt lat="46.5514201" lon="12.56931"><ele>1250.0</ele><time>2026-04-26T15:54:32.312Z</time></trkpt><trkpt lat="46.551325" lon="12.5692479"><ele>1250.0</ele><time>2026-04-26T15:54:33.301Z</time></trkpt><trkpt lat="46.5512246" lon="12.5691789"><ele>1250.0</ele><time>2026-04-26T15:54:34.3Z</time></trkpt><trkpt lat="46.5511306" lon="12.5691211"><ele>1250.0</ele><time>2026-04-26T15:54:35.304Z</time></trkpt><trkpt lat="46.5510362" lon="12.5690759"><ele>1250.0</ele><time>2026-04-26T15:54:36.297Z</time></trkpt><trkpt lat="46.5509718" lon="12.5690371"><ele>1250.0</ele><time>2026-04-26T15:54:37.308Z</time></trkpt><trkpt lat="46.5508887" lon="12.5689575"><ele>1254.0</ele><time>2026-04-26T15:54:39.301Z</time></trkpt><trkpt lat="46.5508318" lon="12.5688739"><ele>1258.0</ele><time>2026-04-26T15:54:41.296Z</time></trkpt><trkpt lat="46.5507186" lon="12.5688651"><ele>1262.0</ele><time>2026-04-26T15:54:43.298Z</time></trkpt><trkpt lat="46.5506111" lon="12.5688956"><ele>1266.0</ele><time>2026-04-26T15:54:45.3Z</time></trkpt><trkpt lat="46.5505474" lon="12.5689219"><ele>1270.0</ele><time>2026-04-26T15:54:46.296Z</time></trkpt><trkpt lat="46.5504899" lon="12.5690079"><ele>1270.0</ele><time>2026-04-26T15:54:48.302Z</time></trkpt><trkpt lat="46.5504718" lon="12.5691191"><ele>1270.0</ele><time>2026-04-26T15:54:50.295Z</time></trkpt><trkpt lat="46.550533" lon="12.5692034"><ele>1270.0</ele><time>2026-04-26T15:54:52.304Z</time></trkpt><trkpt lat="46.5505808" lon="12.5692645"><ele>1270.0</ele><time>2026-04-26T15:54:53.301Z</time></trkpt><trkpt lat="46.5506752" lon="12.5693805"><ele>1270.0</ele><time>2026-04-26T15:54:55.293Z</time></trkpt><trkpt lat="46.5507349" lon="12.5695284"><ele>1273.1666666666665</ele><time>2026-04-26T15:54:57.31Z</time></trkpt><trkpt lat="46.5507682" lon="12.5696167"><ele>1276.3333333333333</ele><time>2026-04-26T15:54:58.289Z</time></trkpt><trkpt lat="46.5508159" lon="12.5696888"><ele>1279.5</ele><time>2026-04-26T15:54:59.293Z</time></trkpt><trkpt lat="46.5508748" lon="12.5697525"><ele>1282.6666666666667</ele><time>2026-04-26T15:55:00.299Z</time></trkpt><trkpt lat="46.5509479" lon="12.5698237"><ele>1285.8333333333335</ele><time>2026-04-26T15:55:01.293Z</time></trkpt><trkpt lat="46.5510108" lon="12.5699066"><ele>1289.0</ele><time>2026-04-26T15:55:02.292Z</time></trkpt><trkpt lat="46.5510641" lon="12.5700114"><ele>1289.0</ele><time>2026-04-26T15:55:03.298Z</time></trkpt><trkpt lat="46.5511098" lon="12.5701021"><ele>1289.0</ele><time>2026-04-26T15:55:04.298Z</time></trkpt><trkpt lat="46.5511351" lon="12.5702033"><ele>1289.0</ele><time>2026-04-26T15:55:05.301Z</time></trkpt><trkpt lat="46.5511651" lon="12.5703116"><ele>1289.0</ele><time>2026-04-26T15:55:06.303Z</time></trkpt><trkpt lat="46.5512208" lon="12.5703998"><ele>1289.0</ele><time>2026-04-26T15:55:07.302Z</time></trkpt><trkpt lat="46.5512994" lon="12.570484"><ele>1289.0</ele><time>2026-04-26T15:55:08.296Z</time></trkpt><trkpt lat="46.5513918" lon="12.5705568"><ele>1288.8333333333335</ele><time>2026-04-26T15:55:09.297Z</time></trkpt><trkpt lat="46.5514854" lon="12.5706043"><ele>1288.6666666666667</ele><time>2026-04-26T15:55:10.303Z</time></trkpt><trkpt lat="46.5515668" lon="12.5706376"><ele>1288.5</ele><time>2026-04-26T15:55:11.294Z</time></trkpt><trkpt lat="46.5516372" lon="12.5706781"><ele>1288.3333333333333</ele><time>2026-04-26T15:55:12.303Z</time></trkpt><trkpt lat="46.5517089" lon="12.5707211"><ele>1288.1666666666665</ele><time>2026-04-26T15:55:13.302Z</time></trkpt><trkpt lat="46.5517774" lon="12.570783"><ele>1288.0</ele><time>2026-04-26T15:55:14.297Z</time></trkpt><trkpt lat="46.5518415" lon="12.5708708"><ele>1288.0</ele><time>2026-04-26T15:55:15.301Z</time></trkpt><trkpt lat="46.5518973" lon="12.5709371"><ele>1288.0</ele><time>2026-04-26T15:55:16.293Z</time></trkpt><trkpt lat="46.5519734" lon="12.5710329"><ele>1288.0</ele><time>2026-04-26T15:55:18.298Z</time></trkpt><trkpt lat="46.5520339" lon="12.5711221"><ele>1288.0</ele><time>2026-04-26T15:55:20.302Z</time></trkpt><trkpt lat="46.5521229" lon="12.5712056"><ele>1288.0</ele><time>2026-04-26T15:55:22.29Z</time></trkpt><trkpt lat="46.5522281" lon="12.5712511"><ele>1285.8000000000002</ele><time>2026-04-26T15:55:24.302Z</time></trkpt><trkpt lat="46.5523394" lon="12.5713342"><ele>1283.6000000000001</ele><time>2026-04-26T15:55:26.297Z</time></trkpt><trkpt lat="46.5523983" lon="12.5713935"><ele>1281.4</ele><time>2026-04-26T15:55:27.298Z</time></trkpt><trkpt lat="46.5524545" lon="12.5714663"><ele>1279.2</ele><time>2026-04-26T15:55:28.31Z</time></trkpt><trkpt lat="46.5525046" lon="12.5715346"><ele>1277.0</ele><time>2026-04-26T15:55:29.303Z</time></trkpt><trkpt lat="46.5525778" lon="12.5716767"><ele>1277.0</ele><time>2026-04-26T15:55:31.301Z</time></trkpt><trkpt lat="46.5526157" lon="12.5717833"><ele>1277.0</ele><time>2026-04-26T15:55:32.298Z</time></trkpt><trkpt lat="46.5526509" lon="12.5719156"><ele>1277.0</ele><time>2026-04-26T15:55:33.299Z</time></trkpt><trkpt lat="46.5527038" lon="12.5720434"><ele>1277.0</ele><time>2026-04-26T15:55:34.304Z</time></trkpt><trkpt lat="46.5527618" lon="12.5721558"><ele>1277.0</ele><time>2026-04-26T15:55:35.297Z</time></trkpt><trkpt lat="46.5528238" lon="12.5722508"><ele>1274.8333333333335</ele><time>2026-04-26T15:55:36.302Z</time></trkpt><trkpt lat="46.5528783" lon="12.572336"><ele>1272.6666666666667</ele><time>2026-04-26T15:55:37.304Z</time></trkpt><trkpt lat="46.5529178" lon="12.5724352"><ele>1270.5</ele><time>2026-04-26T15:55:38.303Z</time></trkpt><trkpt lat="46.5529655" lon="12.5725391"><ele>1268.3333333333333</ele><time>2026-04-26T15:55:39.304Z</time></trkpt><trkpt lat="46.553019" lon="12.5726443"><ele>1266.1666666666665</ele><time>2026-04-26T15:55:40.297Z</time></trkpt><trkpt lat="46.5530802" lon="12.5727385"><ele>1264.0</ele><time>2026-04-26T15:55:41.298Z</time></trkpt><trkpt lat="46.5531415" lon="12.5728103"><ele>1267.1666666666665</ele><time>2026-04-26T15:55:42.299Z</time></trkpt><trkpt lat="46.5532122" lon="12.5728859"><ele>1270.3333333333333</ele><time>2026-04-26T15:55:43.302Z</time></trkpt><trkpt lat="46.55328" lon="12.5729662"><ele>1273.5</ele><time>2026-04-26T15:55:44.3Z</time></trkpt><trkpt lat="46.5533452" lon="12.5730418"><ele>1276.6666666666667</ele><time>2026-04-26T15:55:45.298Z</time></trkpt><trkpt lat="46.5534088" lon="12.5731162"><ele>1279.8333333333335</ele><time>2026-04-26T15:55:46.311Z</time></trkpt><trkpt lat="46.5534868" lon="12.5731845"><ele>1283.0</ele><time>2026-04-26T15:55:47.297Z</time></trkpt><trkpt lat="46.5535432" lon="12.5732471"><ele>1283.0</ele><time>2026-04-26T15:55:48.301Z</time></trkpt><trkpt lat="46.553593" lon="12.5733335"><ele>1283.0</ele><time>2026-04-26T15:55:49.302Z</time></trkpt><trkpt lat="46.553641" lon="12.5734244"><ele>1283.0</ele><time>2026-04-26T15:55:50.305Z</time></trkpt><trkpt lat="46.5536856" lon="12.5735199"><ele>1283.0</ele><time>2026-04-26T15:55:51.301Z</time></trkpt><trkpt lat="46.5537414" lon="12.5736279"><ele>1283.0</ele><time>2026-04-26T15:55:52.3Z</time></trkpt><trkpt lat="46.5537911" lon="12.5737373"><ele>1283.0</ele><time>2026-04-26T15:55:53.302Z</time></trkpt><trkpt lat="46.553836" lon="12.5738261"><ele>1280.3333333333335</ele><time>2026-04-26T15:55:54.298Z</time></trkpt><trkpt lat="46.553874" lon="12.5739152"><ele>1277.6666666666667</ele><time>2026-04-26T15:55:55.303Z</time></trkpt><trkpt lat="46.5539158" lon="12.5739972"><ele>1275.0</ele><time>2026-04-26T15:55:56.307Z</time></trkpt><trkpt lat="46.5539398" lon="12.574103"><ele>1272.3333333333333</ele><time>2026-04-26T15:55:57.299Z</time></trkpt><trkpt lat="46.5539525" lon="12.5742296"><ele>1269.6666666666665</ele><time>2026-04-26T15:55:58.302Z</time></trkpt><trkpt lat="46.5539563" lon="12.5743592"><ele>1267.0</ele><time>2026-04-26T15:55:59.296Z</time></trkpt><trkpt lat="46.5539482" lon="12.5744874"><ele>1267.2</ele><time>2026-04-26T15:56:00.307Z</time></trkpt><trkpt lat="46.5539523" lon="12.5745886"><ele>1267.4</ele><time>2026-04-26T15:56:01.303Z</time></trkpt><trkpt lat="46.5539647" lon="12.5747628"><ele>1267.6</ele><time>2026-04-26T15:56:03.303Z</time></trkpt><trkpt lat="46.5539739" lon="12.5748937"><ele>1267.8</ele><time>2026-04-26T15:56:05.299Z</time></trkpt><trkpt lat="46.553981" lon="12.5750606"><ele>1268.0</ele><time>2026-04-26T15:56:28.302Z</time></trkpt><trkpt lat="46.5539739" lon="12.5751714"><ele>1268.0</ele><time>2026-04-26T15:56:29.302Z</time></trkpt><trkpt lat="46.5539676" lon="12.5752713"><ele>1268.0</ele><time>2026-04-26T15:56:30.301Z</time></trkpt><trkpt lat="46.5539591" lon="12.5753625"><ele>1268.0</ele><time>2026-04-26T15:56:31.3Z</time></trkpt><trkpt lat="46.5539417" lon="12.5754533"><ele>1268.0</ele><time>2026-04-26T15:56:32.304Z</time></trkpt><trkpt lat="46.55392" lon="12.5755455"><ele>1268.0</ele><time>2026-04-26T15:56:33.301Z</time></trkpt><trkpt lat="46.5538914" lon="12.5756324"><ele>1268.0</ele><time>2026-04-26T15:56:34.302Z</time></trkpt><trkpt lat="46.5538593" lon="12.5757197"><ele>1268.0</ele><time>2026-04-26T15:56:35.304Z</time></trkpt><trkpt lat="46.5538155" lon="12.5757976"><ele>1266.6666666666667</ele><time>2026-04-26T15:56:36.298Z</time></trkpt><trkpt lat="46.5537515" lon="12.5759121"><ele>1265.3333333333335</ele><time>2026-04-26T15:56:38.302Z</time></trkpt><trkpt lat="46.553655" lon="12.5759983"><ele>1264.0</ele><time>2026-04-26T15:56:40.301Z</time></trkpt><trkpt lat="46.5535911" lon="12.5760255"><ele>1262.6666666666667</ele><time>2026-04-26T15:56:41.296Z</time></trkpt><trkpt lat="46.5535233" lon="12.5760527"><ele>1261.3333333333333</ele><time>2026-04-26T15:56:42.307Z</time></trkpt><trkpt lat="46.5534502" lon="12.576068"><ele>1260.0</ele><time>2026-04-26T15:56:43.308Z</time></trkpt><trkpt lat="46.5533244" lon="12.5760608"><ele>1262.6666666666667</ele><time>2026-04-26T15:56:45.302Z</time></trkpt><trkpt lat="46.5532562" lon="12.5760311"><ele>1265.3333333333333</ele><time>2026-04-26T15:56:46.297Z</time></trkpt><trkpt lat="46.5531879" lon="12.5759855"><ele>1268.0</ele><time>2026-04-26T15:56:47.305Z</time></trkpt><trkpt lat="46.5531156" lon="12.5759333"><ele>1270.6666666666665</ele><time>2026-04-26T15:56:48.303Z</time></trkpt><trkpt lat="46.5530427" lon="12.5758816"><ele>1273.3333333333333</ele><time>2026-04-26T15:56:49.301Z</time></trkpt><trkpt lat="46.5529686" lon="12.575829"><ele>1276.0</ele><time>2026-04-26T15:56:50.306Z</time></trkpt><trkpt lat="46.5529205" lon="12.5757607"><ele>1278.6</ele><time>2026-04-26T15:56:51.298Z</time></trkpt><trkpt lat="46.5528703" lon="12.5756077"><ele>1281.1999999999998</ele><time>2026-04-26T15:56:53.299Z</time></trkpt><trkpt lat="46.5528699" lon="12.5754511"><ele>1283.8000000000002</ele><time>2026-04-26T15:56:55.298Z</time></trkpt><trkpt lat="46.552866" lon="12.5752887"><ele>1286.4</ele><time>2026-04-26T15:56:57.314Z</time></trkpt><trkpt lat="46.5528572" lon="12.5751955"><ele>1289.0</ele><time>2026-04-26T15:56:58.297Z</time></trkpt><trkpt lat="46.5528484" lon="12.5751023"><ele>1291.8333333333335</ele><time>2026-04-26T15:56:59.298Z</time></trkpt><trkpt lat="46.5528308" lon="12.5749911"><ele>1294.6666666666667</ele><time>2026-04-26T15:57:00.301Z</time></trkpt><trkpt lat="46.5528139" lon="12.5748679"><ele>1297.5</ele><time>2026-04-26T15:57:01.299Z</time></trkpt><trkpt lat="46.5528036" lon="12.5747516"><ele>1300.3333333333333</ele><time>2026-04-26T15:57:02.302Z</time></trkpt><trkpt lat="46.5527845" lon="12.57463"><ele>1303.1666666666665</ele><time>2026-04-26T15:57:03.301Z</time></trkpt><trkpt lat="46.5527717" lon="12.5745091"><ele>1306.0</ele><time>2026-04-26T15:57:04.306Z</time></trkpt><trkpt lat="46.5527621" lon="12.5743974"><ele>1306.8333333333333</ele><time>2026-04-26T15:57:05.296Z</time></trkpt><trkpt lat="46.5527476" lon="12.5742938"><ele>1307.6666666666665</ele><time>2026-04-26T15:57:06.308Z</time></trkpt><trkpt lat="46.5527455" lon="12.5742001"><ele>1308.5</ele><time>2026-04-26T15:57:07.299Z</time></trkpt><trkpt lat="46.5527498" lon="12.5740623"><ele>1309.3333333333333</ele><time>2026-04-26T15:57:09.303Z</time></trkpt><trkpt lat="46.5527073" lon="12.574155"><ele>1310.1666666666667</ele><time>2026-04-26T15:57:18.307Z</time></trkpt><trkpt lat="46.5527167" lon="12.5742791"><ele>1311.0</ele><time>2026-04-26T15:57:20.302Z</time></trkpt><trkpt lat="46.5527225" lon="12.5743793"><ele>1311.0</ele><time>2026-04-26T15:57:21.302Z</time></trkpt><trkpt lat="46.5527313" lon="12.5744738"><ele>1311.0</ele><time>2026-04-26T15:57:22.303Z</time></trkpt><trkpt lat="46.5527482" lon="12.5745858"><ele>1311.0</ele><time>2026-04-26T15:57:23.301Z</time></trkpt><trkpt lat="46.5527588" lon="12.5746865"><ele>1311.0</ele><time>2026-04-26T15:57:24.299Z</time></trkpt><trkpt lat="46.5527696" lon="12.5747968"><ele>1311.0</ele><time>2026-04-26T15:57:25.301Z</time></trkpt><trkpt lat="46.5527819" lon="12.5749281"><ele>1311.0</ele><time>2026-04-26T15:57:26.299Z</time></trkpt><trkpt lat="46.5527908" lon="12.5750525"><ele>1310.0</ele><time>2026-04-26T15:57:27.305Z</time></trkpt><trkpt lat="46.5528011" lon="12.5751455"><ele>1309.0</ele><time>2026-04-26T15:57:28.303Z</time></trkpt><trkpt lat="46.5528249" lon="12.5753117"><ele>1308.0</ele><time>2026-04-26T15:57:30.298Z</time></trkpt><trkpt lat="46.5528121" lon="12.5754785"><ele>1307.0</ele><time>2026-04-26T15:57:32.296Z</time></trkpt><trkpt lat="46.552818" lon="12.5756324"><ele>1306.0</ele><time>2026-04-26T15:57:34.3Z</time></trkpt><trkpt lat="46.55286" lon="12.5757701"><ele>1301.0</ele><time>2026-04-26T15:57:36.315Z</time></trkpt><trkpt lat="46.5529278" lon="12.5758548"><ele>1296.0</ele><time>2026-04-26T15:57:38.299Z</time></trkpt><trkpt lat="46.5529947" lon="12.5759014"><ele>1291.0</ele><time>2026-04-26T15:57:40.301Z</time></trkpt><trkpt lat="46.5530521" lon="12.5759609"><ele>1286.0</ele><time>2026-04-26T15:57:41.302Z</time></trkpt><trkpt lat="46.5531165" lon="12.5760126"><ele>1281.0</ele><time>2026-04-26T15:57:42.292Z</time></trkpt><trkpt lat="46.5531879" lon="12.5760628"><ele>1276.0</ele><time>2026-04-26T15:57:43.302Z</time></trkpt><trkpt lat="46.5532562" lon="12.5761054"><ele>1276.0</ele><time>2026-04-26T15:57:44.3Z</time></trkpt><trkpt lat="46.5533675" lon="12.5761315"><ele>1276.0</ele><time>2026-04-26T15:57:46.296Z</time></trkpt><trkpt lat="46.5534551" lon="12.5760846"><ele>1276.0</ele><time>2026-04-26T15:57:48.301Z</time></trkpt><trkpt lat="46.5535478" lon="12.5760281"><ele>1276.0</ele><time>2026-04-26T15:57:50.298Z</time></trkpt><trkpt lat="46.5536434" lon="12.5759797"><ele>1276.0</ele><time>2026-04-26T15:57:52.309Z</time></trkpt><trkpt lat="46.5537037" lon="12.575941"><ele>1272.8</ele><time>2026-04-26T15:57:54.302Z</time></trkpt><trkpt lat="46.5537156" lon="12.576088"><ele>1269.6</ele><time>2026-04-26T15:57:59.302Z</time></trkpt><trkpt lat="46.55368" lon="12.5762249"><ele>1266.4</ele><time>2026-04-26T15:58:01.302Z</time></trkpt><trkpt lat="46.5536318" lon="12.5763339"><ele>1263.2</ele><time>2026-04-26T15:58:03.301Z</time></trkpt><trkpt lat="46.5535916" lon="12.5764508"><ele>1260.0</ele><time>2026-04-26T15:58:05.303Z</time></trkpt><trkpt lat="46.5535988" lon="12.5765615"><ele>1259.0</ele><time>2026-04-26T15:58:07.304Z</time></trkpt><trkpt lat="46.5536879" lon="12.5766492"><ele>1258.0</ele><time>2026-04-26T15:58:09.3Z</time></trkpt><trkpt lat="46.5537465" lon="12.5766934"><ele>1257.0</ele><time>2026-04-26T15:58:10.297Z</time></trkpt><trkpt lat="46.5538064" lon="12.5767395"><ele>1256.0</ele><time>2026-04-26T15:58:11.303Z</time></trkpt><trkpt lat="46.5538691" lon="12.576792"><ele>1255.0</ele><time>2026-04-26T15:58:12.303Z</time></trkpt><trkpt lat="46.5539414" lon="12.5768414"><ele>1254.0</ele><time>2026-04-26T15:58:13.301Z</time></trkpt><trkpt lat="46.5540144" lon="12.5769031"><ele>1253.5</ele><time>2026-04-26T15:58:14.306Z</time></trkpt><trkpt lat="46.5540942" lon="12.576961"><ele>1253.0</ele><time>2026-04-26T15:58:15.302Z</time></trkpt><trkpt lat="46.5541666" lon="12.5770297"><ele>1252.5</ele><time>2026-04-26T15:58:16.302Z</time></trkpt><trkpt lat="46.5542272" lon="12.5771042"><ele>1252.0</ele><time>2026-04-26T15:58:17.303Z</time></trkpt><trkpt lat="46.5542849" lon="12.57716"><ele>1251.5</ele><time>2026-04-26T15:58:18.302Z</time></trkpt><trkpt lat="46.5543459" lon="12.5772184"><ele>1251.0</ele><time>2026-04-26T15:58:19.306Z</time></trkpt><trkpt lat="46.5544067" lon="12.577262"><ele>1248.8</ele><time>2026-04-26T15:58:20.3Z</time></trkpt><trkpt lat="46.5545144" lon="12.5773017"><ele>1246.6</ele><time>2026-04-26T15:58:22.308Z</time></trkpt><trkpt lat="46.5546148" lon="12.5773437"><ele>1244.4</ele><time>2026-04-26T15:58:24.296Z</time></trkpt><trkpt lat="46.554676" lon="12.5774236"><ele>1242.2</ele><time>2026-04-26T15:58:27.301Z</time></trkpt><trkpt lat="46.5546718" lon="12.5775682"><ele>1240.0</ele><time>2026-04-26T15:58:30.308Z</time></trkpt><trkpt lat="46.5546298" lon="12.5777002"><ele>1238.0</ele><time>2026-04-26T15:58:32.299Z</time></trkpt><trkpt lat="46.5545542" lon="12.5778366"><ele>1236.0</ele><time>2026-04-26T15:58:34.307Z</time></trkpt><trkpt lat="46.5544754" lon="12.577943"><ele>1234.0</ele><time>2026-04-26T15:58:36.308Z</time></trkpt><trkpt lat="46.5543668" lon="12.5780342"><ele>1232.0</ele><time>2026-04-26T15:58:38.301Z</time></trkpt><trkpt lat="46.5543027" lon="12.5780806"><ele>1230.0</ele><time>2026-04-26T15:58:39.301Z</time></trkpt><trkpt lat="46.5541935" lon="12.5781409"><ele>1229.2</ele><time>2026-04-26T15:58:41.304Z</time></trkpt><trkpt lat="46.5541115" lon="12.5782354"><ele>1228.4</ele><time>2026-04-26T15:58:43.302Z</time></trkpt><trkpt lat="46.5541273" lon="12.578335"><ele>1227.6</ele><time>2026-04-26T15:58:45.298Z</time></trkpt><trkpt lat="46.5542109" lon="12.5784452"><ele>1226.8</ele><time>2026-04-26T15:58:47.3Z</time></trkpt><trkpt lat="46.554311" lon="12.578554"><ele>1226.0</ele><time>2026-04-26T15:58:49.305Z</time></trkpt><trkpt lat="46.554374" lon="12.5785954"><ele>1226.0</ele><time>2026-04-26T15:58:50.305Z</time></trkpt><trkpt lat="46.5544454" lon="12.5786124"><ele>1226.0</ele><time>2026-04-26T15:58:51.304Z</time></trkpt><trkpt lat="46.5545215" lon="12.5786251"><ele>1226.0</ele><time>2026-04-26T15:58:52.299Z</time></trkpt><trkpt lat="46.554599" lon="12.5786244"><ele>1226.0</ele><time>2026-04-26T15:58:53.302Z</time></trkpt><trkpt lat="46.5546828" lon="12.5786304"><ele>1226.0</ele><time>2026-04-26T15:58:54.301Z</time></trkpt><trkpt lat="46.5547562" lon="12.578626"><ele>1226.0</ele><time>2026-04-26T15:58:55.305Z</time></trkpt><trkpt lat="46.5548304" lon="12.5786191"><ele>1224.8333333333335</ele><time>2026-04-26T15:58:56.3Z</time></trkpt><trkpt lat="46.5549024" lon="12.5786145"><ele>1223.6666666666667</ele><time>2026-04-26T15:58:57.302Z</time></trkpt><trkpt lat="46.5549694" lon="12.5786114"><ele>1222.5</ele><time>2026-04-26T15:58:58.301Z</time></trkpt><trkpt lat="46.5550329" lon="12.5786147"><ele>1221.3333333333333</ele><time>2026-04-26T15:58:59.298Z</time></trkpt><trkpt lat="46.5551304" lon="12.5786354"><ele>1220.1666666666665</ele><time>2026-04-26T15:59:01.305Z</time></trkpt><trkpt lat="46.5551584" lon="12.5787494"><ele>1219.0</ele><time>2026-04-26T15:59:04.3Z</time></trkpt><trkpt lat="46.5551261" lon="12.5788556"><ele>1215.6000000000001</ele><time>2026-04-26T15:59:06.304Z</time></trkpt><trkpt lat="46.5550778" lon="12.5789934"><ele>1212.2</ele><time>2026-04-26T15:59:08.298Z</time></trkpt><trkpt lat="46.5550158" lon="12.5791052"><ele>1208.8000000000002</ele><time>2026-04-26T15:59:10.304Z</time></trkpt><trkpt lat="46.5549251" lon="12.5792046"><ele>1205.4</ele><time>2026-04-26T15:59:12.299Z</time></trkpt><trkpt lat="46.5548667" lon="12.5792604"><ele>1202.0</ele><time>2026-04-26T15:59:13.304Z</time></trkpt><trkpt lat="46.5548067" lon="12.5793118"><ele>1202.0</ele><time>2026-04-26T15:59:14.301Z</time></trkpt><trkpt lat="46.554754" lon="12.5793634"><ele>1202.0</ele><time>2026-04-26T15:59:15.313Z</time></trkpt><trkpt lat="46.5546632" lon="12.5794394"><ele>1202.0</ele><time>2026-04-26T15:59:17.31Z</time></trkpt><trkpt lat="46.5545539" lon="12.5794833"><ele>1202.0</ele><time>2026-04-26T15:59:19.298Z</time></trkpt><trkpt lat="46.5544899" lon="12.5794962"><ele>1202.0</ele><time>2026-04-26T15:59:20.296Z</time></trkpt><trkpt lat="46.5544124" lon="12.5795092"><ele>1202.0</ele><time>2026-04-26T15:59:21.298Z</time></trkpt><trkpt lat="46.5543402" lon="12.5795343"><ele>1198.7142857142856</ele><time>2026-04-26T15:59:22.311Z</time></trkpt><trkpt lat="46.5542667" lon="12.5795646"><ele>1195.4285714285716</ele><time>2026-04-26T15:59:23.307Z</time></trkpt><trkpt lat="46.5541894" lon="12.5795911"><ele>1192.142857142857</ele><time>2026-04-26T15:59:24.303Z</time></trkpt><trkpt lat="46.5541171" lon="12.5796097"><ele>1188.8571428571427</ele><time>2026-04-26T15:59:25.31Z</time></trkpt><trkpt lat="46.5540484" lon="12.5796431"><ele>1185.5714285714284</ele><time>2026-04-26T15:59:26.302Z</time></trkpt><trkpt lat="46.5539859" lon="12.5796889"><ele>1182.2857142857142</ele><time>2026-04-26T15:59:27.307Z</time></trkpt><trkpt lat="46.5539295" lon="12.5797328"><ele>1179.0</ele><time>2026-04-26T15:59:28.301Z</time></trkpt><trkpt lat="46.5538763" lon="12.5797847"><ele>1179.0</ele><time>2026-04-26T15:59:29.3Z</time></trkpt><trkpt lat="46.5537798" lon="12.5798611"><ele>1179.0</ele><time>2026-04-26T15:59:31.304Z</time></trkpt><trkpt lat="46.5536858" lon="12.579882"><ele>1179.0</ele><time>2026-04-26T15:59:33.296Z</time></trkpt><trkpt lat="46.5536166" lon="12.5798365"><ele>1179.0</ele><time>2026-04-26T15:59:35.296Z</time></trkpt><trkpt lat="46.5535399" lon="12.5797193"><ele>1179.0</ele><time>2026-04-26T15:59:37.303Z</time></trkpt><trkpt lat="46.5535053" lon="12.5796371"><ele>1175.4</ele><time>2026-04-26T15:59:38.305Z</time></trkpt><trkpt lat="46.5534202" lon="12.5795473"><ele>1171.8000000000002</ele><time>2026-04-26T15:59:40.303Z</time></trkpt><trkpt lat="46.5533393" lon="12.5795178"><ele>1168.1999999999998</ele><time>2026-04-26T15:59:42.3Z</time></trkpt><trkpt lat="46.553255" lon="12.5795853"><ele>1164.6</ele><time>2026-04-26T15:59:44.312Z</time></trkpt><trkpt lat="46.5531622" lon="12.5796189"><ele>1161.0</ele><time>2026-04-26T15:59:46.306Z</time></trkpt><trkpt lat="46.5530801" lon="12.5796476"><ele>1161.0</ele><time>2026-04-26T15:59:49.302Z</time></trkpt><trkpt lat="46.5530844" lon="12.5797557"><ele>1161.0</ele><time>2026-04-26T15:59:52.301Z</time></trkpt><trkpt lat="46.553161" lon="12.5798059"><ele>1161.0</ele><time>2026-04-26T15:59:55.305Z</time></trkpt><trkpt lat="46.5531967" lon="12.5798951"><ele>1161.0</ele><time>2026-04-26T15:59:58.296Z</time></trkpt><trkpt lat="46.5531677" lon="12.5800177"><ele>1161.0</ele><time>2026-04-26T16:00:01.293Z</time></trkpt><trkpt lat="46.5531226" lon="12.5800887"><ele>1161.0</ele><time>2026-04-26T16:00:03.296Z</time></trkpt><trkpt lat="46.5530575" lon="12.5800878"><ele>1161.0</ele><time>2026-04-26T16:00:05.296Z</time></trkpt><trkpt lat="46.552985" lon="12.580057"><ele>1161.0</ele><time>2026-04-26T16:00:07.303Z</time></trkpt><trkpt lat="46.552927" lon="12.5799965"><ele>1161.0</ele><time>2026-04-26T16:00:09.305Z</time></trkpt><trkpt lat="46.5528949" lon="12.5799084"><ele>1161.0</ele><time>2026-04-26T16:00:11.298Z</time></trkpt><trkpt lat="46.5528702" lon="12.5797825"><ele>1161.0</ele><time>2026-04-26T16:00:13.297Z</time></trkpt><trkpt lat="46.5528373" lon="12.5796414"><ele>1161.0</ele><time>2026-04-26T16:00:15.298Z</time></trkpt><trkpt lat="46.5527904" lon="12.579526"><ele>1162.0</ele><time>2026-04-26T16:00:17.312Z</time></trkpt><trkpt lat="46.5527115" lon="12.5795071"><ele>1163.0</ele><time>2026-04-26T16:00:19.3Z</time></trkpt><trkpt lat="46.5526151" lon="12.5795566"><ele>1164.0</ele><time>2026-04-26T16:00:21.309Z</time></trkpt><trkpt lat="46.5525463" lon="12.579656"><ele>1165.0</ele><time>2026-04-26T16:00:23.294Z</time></trkpt><trkpt lat="46.5524794" lon="12.5796979"><ele>1166.0</ele><time>2026-04-26T16:00:25.297Z</time></trkpt><trkpt lat="46.5524" lon="12.5796972"><ele>1167.0</ele><time>2026-04-26T16:00:27.317Z</time></trkpt><trkpt lat="46.5523304" lon="12.5797705"><ele>1163.4</ele><time>2026-04-26T16:00:30.299Z</time></trkpt><trkpt lat="46.5522862" lon="12.579892"><ele>1159.8000000000002</ele><time>2026-04-26T16:00:32.297Z</time></trkpt><trkpt lat="46.552245" lon="12.5800639"><ele>1156.2</ele><time>2026-04-26T16:00:34.294Z</time></trkpt><trkpt lat="46.552234" lon="12.5801591"><ele>1152.6000000000001</ele><time>2026-04-26T16:00:35.298Z</time></trkpt><trkpt lat="46.5522115" lon="12.5803156"><ele>1149.0</ele><time>2026-04-26T16:00:37.305Z</time></trkpt><trkpt lat="46.5521636" lon="12.5804561"><ele>1145.25</ele><time>2026-04-26T16:00:39.303Z</time></trkpt><trkpt lat="46.5521121" lon="12.580608"><ele>1141.5</ele><time>2026-04-26T16:00:41.303Z</time></trkpt><trkpt lat="46.5520959" lon="12.580773"><ele>1137.75</ele><time>2026-04-26T16:00:43.3Z</time></trkpt><trkpt lat="46.5521159" lon="12.5809428"><ele>1134.0</ele><time>2026-04-26T16:00:45.298Z</time></trkpt><trkpt lat="46.5521055" lon="12.5810955"><ele>1130.8333333333333</ele><time>2026-04-26T16:00:47.303Z</time></trkpt><trkpt lat="46.552042" lon="12.5812217"><ele>1127.6666666666667</ele><time>2026-04-26T16:00:49.297Z</time></trkpt><trkpt lat="46.5519945" lon="12.5813113"><ele>1124.5</ele><time>2026-04-26T16:00:51.297Z</time></trkpt><trkpt lat="46.5520128" lon="12.5814087"><ele>1121.3333333333335</ele><time>2026-04-26T16:00:54.3Z</time></trkpt><trkpt lat="46.5520784" lon="12.5814035"><ele>1118.1666666666667</ele><time>2026-04-26T16:00:59.301Z</time></trkpt><trkpt lat="46.5521541" lon="12.581372"><ele>1115.0</ele><time>2026-04-26T16:01:02.306Z</time></trkpt><trkpt lat="46.5521866" lon="12.5815017"><ele>1115.0</ele><time>2026-04-26T16:01:32.304Z</time></trkpt><trkpt lat="46.5521574" lon="12.5816603"><ele>1115.0</ele><time>2026-04-26T16:01:34.3Z</time></trkpt><trkpt lat="46.5521517" lon="12.5817536"><ele>1115.0</ele><time>2026-04-26T16:01:35.292Z</time></trkpt><trkpt lat="46.5521506" lon="12.5818527"><ele>1115.0</ele><time>2026-04-26T16:01:36.295Z</time></trkpt><trkpt lat="46.5521449" lon="12.58195"><ele>1115.0</ele><time>2026-04-26T16:01:37.305Z</time></trkpt><trkpt lat="46.5521509" lon="12.5820538"><ele>1115.0</ele><time>2026-04-26T16:01:38.294Z</time></trkpt><trkpt lat="46.5521642" lon="12.5821434"><ele>1115.0</ele><time>2026-04-26T16:01:39.295Z</time></trkpt><trkpt lat="46.5521788" lon="12.5822368"><ele>1113.8</ele><time>2026-04-26T16:01:40.302Z</time></trkpt><trkpt lat="46.5522047" lon="12.582328"><ele>1112.6</ele><time>2026-04-26T16:01:41.304Z</time></trkpt><trkpt lat="46.5522642" lon="12.5824986"><ele>1111.4</ele><time>2026-04-26T16:01:43.308Z</time></trkpt><trkpt lat="46.5523162" lon="12.58264"><ele>1110.2</ele><time>2026-04-26T16:01:45.298Z</time></trkpt><trkpt lat="46.5522913" lon="12.582783"><ele>1109.0</ele><time>2026-04-26T16:01:47.304Z</time></trkpt><trkpt lat="46.5522652" lon="12.5828748"><ele>1106.3333333333335</ele><time>2026-04-26T16:01:48.297Z</time></trkpt><trkpt lat="46.552231" lon="12.5829634"><ele>1103.6666666666667</ele><time>2026-04-26T16:01:49.298Z</time></trkpt><trkpt lat="46.5521571" lon="12.5830687"><ele>1101.0</ele><time>2026-04-26T16:01:51.299Z</time></trkpt><trkpt lat="46.5521609" lon="12.5831861"><ele>1098.3333333333333</ele><time>2026-04-26T16:01:54.299Z</time></trkpt><trkpt lat="46.5522542" lon="12.5832187"><ele>1095.6666666666665</ele><time>2026-04-26T16:01:56.296Z</time></trkpt><trkpt lat="46.5523209" lon="12.5831973"><ele>1093.0</ele><time>2026-04-26T16:01:57.299Z</time></trkpt><trkpt lat="46.5524355" lon="12.583208"><ele>1093.0</ele><time>2026-04-26T16:01:59.303Z</time></trkpt><trkpt lat="46.5525037" lon="12.5832689"><ele>1093.0</ele><time>2026-04-26T16:02:01.302Z</time></trkpt><trkpt lat="46.5524917" lon="12.5833638"><ele>1093.0</ele><time>2026-04-26T16:02:03.298Z</time></trkpt><trkpt lat="46.5523985" lon="12.5835316"><ele>1093.0</ele><time>2026-04-26T16:02:05.301Z</time></trkpt><trkpt lat="46.5523497" lon="12.5836165"><ele>1093.0</ele><time>2026-04-26T16:02:06.302Z</time></trkpt><trkpt lat="46.5523058" lon="12.5836962"><ele>1093.0</ele><time>2026-04-26T16:02:07.3Z</time></trkpt><trkpt lat="46.5522572" lon="12.583786"><ele>1091.1666666666665</ele><time>2026-04-26T16:02:08.301Z</time></trkpt><trkpt lat="46.5522123" lon="12.5838762"><ele>1089.3333333333333</ele><time>2026-04-26T16:02:09.302Z</time></trkpt><trkpt lat="46.5521691" lon="12.5839541"><ele>1087.5</ele><time>2026-04-26T16:02:10.305Z</time></trkpt><trkpt lat="46.5521187" lon="12.5840329"><ele>1085.6666666666667</ele><time>2026-04-26T16:02:11.299Z</time></trkpt><trkpt lat="46.5520614" lon="12.5840839"><ele>1083.8333333333335</ele><time>2026-04-26T16:02:12.298Z</time></trkpt><trkpt lat="46.5519652" lon="12.5841417"><ele>1082.0</ele><time>2026-04-26T16:02:14.303Z</time></trkpt><trkpt lat="46.5518552" lon="12.5841391"><ele>1082.0</ele><time>2026-04-26T16:02:16.302Z</time></trkpt><trkpt lat="46.5517588" lon="12.5841501"><ele>1082.0</ele><time>2026-04-26T16:02:18.295Z</time></trkpt><trkpt lat="46.5517028" lon="12.584238"><ele>1082.0</ele><time>2026-04-26T16:02:20.298Z</time></trkpt><trkpt lat="46.5516202" lon="12.5843115"><ele>1082.0</ele><time>2026-04-26T16:02:22.308Z</time></trkpt><trkpt lat="46.5515053" lon="12.5843625"><ele>1082.0</ele><time>2026-04-26T16:02:24.301Z</time></trkpt><trkpt lat="46.5513915" lon="12.5844186"><ele>1082.0</ele><time>2026-04-26T16:02:26.295Z</time></trkpt><trkpt lat="46.5512707" lon="12.5844617"><ele>1082.0</ele><time>2026-04-26T16:02:28.308Z</time></trkpt><trkpt lat="46.5512075" lon="12.5844805"><ele>1082.0</ele><time>2026-04-26T16:02:29.296Z</time></trkpt><trkpt lat="46.5511074" lon="12.5845119"><ele>1082.0</ele><time>2026-04-26T16:02:31.304Z</time></trkpt><trkpt lat="46.5509941" lon="12.584541"><ele>1082.0</ele><time>2026-04-26T16:02:33.301Z</time></trkpt><trkpt lat="46.5508988" lon="12.5846133"><ele>1080.2</ele><time>2026-04-26T16:02:35.295Z</time></trkpt><trkpt lat="46.5507859" lon="12.5846209"><ele>1078.4</ele><time>2026-04-26T16:02:37.299Z</time></trkpt><trkpt lat="46.5506634" lon="12.5845859"><ele>1076.6</ele><time>2026-04-26T16:02:39.3Z</time></trkpt><trkpt lat="46.5505656" lon="12.5845908"><ele>1074.8</ele><time>2026-04-26T16:02:41.303Z</time></trkpt><trkpt lat="46.5504676" lon="12.5846701"><ele>1073.0</ele><time>2026-04-26T16:02:43.292Z</time></trkpt><trkpt lat="46.5503685" lon="12.5847183"><ele>1073.0</ele><time>2026-04-26T16:02:45.309Z</time></trkpt><trkpt lat="46.5502658" lon="12.5847136"><ele>1073.0</ele><time>2026-04-26T16:02:47.296Z</time></trkpt><trkpt lat="46.5502052" lon="12.5847406"><ele>1073.0</ele><time>2026-04-26T16:02:49.298Z</time></trkpt><trkpt lat="46.550208" lon="12.5848376"><ele>1073.0</ele><time>2026-04-26T16:02:52.3Z</time></trkpt><trkpt lat="46.5503142" lon="12.5848965"><ele>1073.0</ele><time>2026-04-26T16:02:55.295Z</time></trkpt><trkpt lat="46.550377" lon="12.5849165"><ele>1073.0</ele><time>2026-04-26T16:02:56.295Z</time></trkpt><trkpt lat="46.5504949" lon="12.5849835"><ele>1071.0</ele><time>2026-04-26T16:02:58.296Z</time></trkpt><trkpt lat="46.5505572" lon="12.585014"><ele>1069.0</ele><time>2026-04-26T16:02:59.3Z</time></trkpt><trkpt lat="46.5506186" lon="12.5850359"><ele>1067.0</ele><time>2026-04-26T16:03:00.298Z</time></trkpt><trkpt lat="46.5506809" lon="12.5850505"><ele>1065.0</ele><time>2026-04-26T16:03:01.301Z</time></trkpt><trkpt lat="46.5507444" lon="12.5850551"><ele>1063.0</ele><time>2026-04-26T16:03:02.301Z</time></trkpt><trkpt lat="46.5508657" lon="12.5850663"><ele>1061.0</ele><time>2026-04-26T16:03:04.302Z</time></trkpt><trkpt lat="46.5509327" lon="12.5850453"><ele>1059.0</ele><time>2026-04-26T16:03:05.314Z</time></trkpt><trkpt lat="46.5510482" lon="12.5850291"><ele>1059.0</ele><time>2026-04-26T16:03:07.304Z</time></trkpt><trkpt lat="46.5511224" lon="12.5850335"><ele>1059.0</ele><time>2026-04-26T16:03:08.302Z</time></trkpt><trkpt lat="46.5511965" lon="12.5850451"><ele>1059.0</ele><time>2026-04-26T16:03:09.302Z</time></trkpt><trkpt lat="46.5512653" lon="12.585066"><ele>1059.0</ele><time>2026-04-26T16:03:10.312Z</time></trkpt><trkpt lat="46.5513307" lon="12.5851024"><ele>1059.0</ele><time>2026-04-26T16:03:11.303Z</time></trkpt><trkpt lat="46.551442" lon="12.5851187"><ele>1059.0</ele><time>2026-04-26T16:03:13.301Z</time></trkpt><trkpt lat="46.5515309" lon="12.5850979"><ele>1057.3333333333333</ele><time>2026-04-26T16:03:15.309Z</time></trkpt><trkpt lat="46.5516257" lon="12.5850345"><ele>1055.6666666666667</ele><time>2026-04-26T16:03:17.294Z</time></trkpt><trkpt lat="46.5516892" lon="12.585053"><ele>1054.0</ele><time>2026-04-26T16:03:20.303Z</time></trkpt><trkpt lat="46.5516438" lon="12.5851233"><ele>1052.3333333333335</ele><time>2026-04-26T16:03:24.295Z</time></trkpt><trkpt lat="46.5515664" lon="12.5851951"><ele>1050.6666666666667</ele><time>2026-04-26T16:03:26.296Z</time></trkpt><trkpt lat="46.5515334" lon="12.5853046"><ele>1049.0</ele><time>2026-04-26T16:03:28.297Z</time></trkpt><trkpt lat="46.5515799" lon="12.5854077"><ele>1047.1666666666667</ele><time>2026-04-26T16:03:31.294Z</time></trkpt><trkpt lat="46.5516419" lon="12.5854611"><ele>1045.3333333333335</ele><time>2026-04-26T16:03:33.299Z</time></trkpt><trkpt lat="46.55173" lon="12.5854974"><ele>1043.5</ele><time>2026-04-26T16:03:35.293Z</time></trkpt><trkpt lat="46.5518231" lon="12.5855342"><ele>1041.6666666666667</ele><time>2026-04-26T16:03:37.299Z</time></trkpt><trkpt lat="46.5518855" lon="12.5855479"><ele>1039.8333333333333</ele><time>2026-04-26T16:03:38.305Z</time></trkpt><trkpt lat="46.5519558" lon="12.5855724"><ele>1038.0</ele><time>2026-04-26T16:03:39.299Z</time></trkpt><trkpt lat="46.5520239" lon="12.5856117"><ele>1034.8</ele><time>2026-04-26T16:03:40.306Z</time></trkpt><trkpt lat="46.5520974" lon="12.5856604"><ele>1031.6</ele><time>2026-04-26T16:03:41.301Z</time></trkpt><trkpt lat="46.5521612" lon="12.5857035"><ele>1028.4</ele><time>2026-04-26T16:03:42.296Z</time></trkpt><trkpt lat="46.5522727" lon="12.5857957"><ele>1025.2</ele><time>2026-04-26T16:03:44.298Z</time></trkpt><trkpt lat="46.5523191" lon="12.5858596"><ele>1022.0</ele><time>2026-04-26T16:03:45.299Z</time></trkpt><trkpt lat="46.5524002" lon="12.585985"><ele>1022.0000000000001</ele><time>2026-04-26T16:03:47.301Z</time></trkpt><trkpt lat="46.55246" lon="12.5861399"><ele>1022.0</ele><time>2026-04-26T16:03:49.302Z</time></trkpt><trkpt lat="46.5524771" lon="12.5862298"><ele>1022.0</ele><time>2026-04-26T16:03:50.293Z</time></trkpt><trkpt lat="46.5524906" lon="12.5863208"><ele>1022.0</ele><time>2026-04-26T16:03:51.299Z</time></trkpt><trkpt lat="46.5525052" lon="12.5864123"><ele>1022.0000000000001</ele><time>2026-04-26T16:03:52.302Z</time></trkpt><trkpt lat="46.5525386" lon="12.5865545"><ele>1022.0</ele><time>2026-04-26T16:03:54.302Z</time></trkpt><trkpt lat="46.5525571" lon="12.5866546"><ele>1020.1666666666667</ele><time>2026-04-26T16:03:56.302Z</time></trkpt><trkpt lat="46.5525984" lon="12.5867852"><ele>1018.3333333333334</ele><time>2026-04-26T16:03:58.299Z</time></trkpt><trkpt lat="46.552668" lon="12.5869142"><ele>1016.5</ele><time>2026-04-26T16:04:00.302Z</time></trkpt><trkpt lat="46.5527185" lon="12.5869714"><ele>1014.6666666666667</ele><time>2026-04-26T16:04:01.294Z</time></trkpt><trkpt lat="46.552781" lon="12.5870241"><ele>1012.8333333333334</ele><time>2026-04-26T16:04:02.299Z</time></trkpt><trkpt lat="46.5528446" lon="12.5870757"><ele>1011.0</ele><time>2026-04-26T16:04:03.298Z</time></trkpt><trkpt lat="46.5529146" lon="12.5871255"><ele>1006.6666666666666</ele><time>2026-04-26T16:04:04.299Z</time></trkpt><trkpt lat="46.5529859" lon="12.5871589"><ele>1002.3333333333333</ele><time>2026-04-26T16:04:05.297Z</time></trkpt><trkpt lat="46.5530569" lon="12.587204"><ele>998.0</ele><time>2026-04-26T16:04:06.306Z</time></trkpt><trkpt lat="46.5531339" lon="12.5872526"><ele>993.6666666666666</ele><time>2026-04-26T16:04:07.301Z</time></trkpt><trkpt lat="46.5532193" lon="12.5872805"><ele>989.3333333333333</ele><time>2026-04-26T16:04:08.297Z</time></trkpt><trkpt lat="46.5533019" lon="12.5872995"><ele>985.0</ele><time>2026-04-26T16:04:09.304Z</time></trkpt><trkpt lat="46.5533772" lon="12.5873146"><ele>984.9999999999999</ele><time>2026-04-26T16:04:10.301Z</time></trkpt><trkpt lat="46.5534591" lon="12.5873251"><ele>985.0</ele><time>2026-04-26T16:04:11.311Z</time></trkpt><trkpt lat="46.5535285" lon="12.5873317"><ele>985.0</ele><time>2026-04-26T16:04:12.296Z</time></trkpt><trkpt lat="46.5535951" lon="12.5873425"><ele>985.0</ele><time>2026-04-26T16:04:13.3Z</time></trkpt><trkpt lat="46.553663" lon="12.5873613"><ele>984.9999999999999</ele><time>2026-04-26T16:04:14.3Z</time></trkpt><trkpt lat="46.553746" lon="12.5873808"><ele>985.0</ele><time>2026-04-26T16:04:15.3Z</time></trkpt><trkpt lat="46.5538362" lon="12.587364"><ele>984.0</ele><time>2026-04-26T16:04:16.293Z</time></trkpt><trkpt lat="46.5539317" lon="12.5873331"><ele>983.0</ele><time>2026-04-26T16:04:17.298Z</time></trkpt><trkpt lat="46.5540279" lon="12.5872948"><ele>982.0</ele><time>2026-04-26T16:04:18.295Z</time></trkpt><trkpt lat="46.5541198" lon="12.5872493"><ele>981.0</ele><time>2026-04-26T16:04:19.3Z</time></trkpt><trkpt lat="46.5542061" lon="12.5871915"><ele>980.0</ele><time>2026-04-26T16:04:20.301Z</time></trkpt><trkpt lat="46.5542867" lon="12.5871355"><ele>980.0</ele><time>2026-04-26T16:04:21.304Z</time></trkpt><trkpt lat="46.5543568" lon="12.5870849"><ele>980.0</ele><time>2026-04-26T16:04:22.298Z</time></trkpt><trkpt lat="46.5544135" lon="12.5870276"><ele>980.0</ele><time>2026-04-26T16:04:23.3Z</time></trkpt><trkpt lat="46.5545195" lon="12.5869338"><ele>980.0</ele><time>2026-04-26T16:04:25.302Z</time></trkpt><trkpt lat="46.5546182" lon="12.5869369"><ele>980.0</ele><time>2026-04-26T16:04:27.3Z</time></trkpt><trkpt lat="46.5546922" lon="12.5870206"><ele>978.8</ele><time>2026-04-26T16:04:29.297Z</time></trkpt><trkpt lat="46.554791" lon="12.5870535"><ele>977.6</ele><time>2026-04-26T16:04:31.298Z</time></trkpt><trkpt lat="46.5549092" lon="12.5869973"><ele>976.4000000000001</ele><time>2026-04-26T16:04:33.294Z</time></trkpt><trkpt lat="46.554979" lon="12.5869125"><ele>975.2</ele><time>2026-04-26T16:04:34.303Z</time></trkpt><trkpt lat="46.5550538" lon="12.5868202"><ele>974.0</ele><time>2026-04-26T16:04:35.303Z</time></trkpt><trkpt lat="46.5551265" lon="12.5867426"><ele>974.0</ele><time>2026-04-26T16:04:36.293Z</time></trkpt><trkpt lat="46.5551957" lon="12.5866798"><ele>974.0000000000001</ele><time>2026-04-26T16:04:37.3Z</time></trkpt><trkpt lat="46.5552767" lon="12.5866375"><ele>974.0000000000001</ele><time>2026-04-26T16:04:38.303Z</time></trkpt><trkpt lat="46.5553784" lon="12.5866172"><ele>974.0</ele><time>2026-04-26T16:04:39.295Z</time></trkpt><trkpt lat="46.5554972" lon="12.5866098"><ele>974.0</ele><time>2026-04-26T16:04:40.296Z</time></trkpt><trkpt lat="46.5556166" lon="12.5865837"><ele>973.2</ele><time>2026-04-26T16:04:41.303Z</time></trkpt><trkpt lat="46.5557239" lon="12.5865502"><ele>972.4000000000001</ele><time>2026-04-26T16:04:42.307Z</time></trkpt><trkpt lat="46.5558303" lon="12.5865262"><ele>971.6</ele><time>2026-04-26T16:04:43.298Z</time></trkpt><trkpt lat="46.5559423" lon="12.5865241"><ele>970.8</ele><time>2026-04-26T16:04:44.293Z</time></trkpt><trkpt lat="46.5560424" lon="12.5865209"><ele>970.0</ele><time>2026-04-26T16:04:45.297Z</time></trkpt><trkpt lat="46.5561397" lon="12.5865178"><ele>971.1666666666666</ele><time>2026-04-26T16:04:46.298Z</time></trkpt><trkpt lat="46.5562192" lon="12.5865097"><ele>972.3333333333333</ele><time>2026-04-26T16:04:47.296Z</time></trkpt><trkpt lat="46.5562865" lon="12.5865026"><ele>973.5</ele><time>2026-04-26T16:04:48.3Z</time></trkpt><trkpt lat="46.5563701" lon="12.5864996"><ele>974.6666666666667</ele><time>2026-04-26T16:04:50.294Z</time></trkpt><trkpt lat="46.5563892" lon="12.5865942"><ele>975.8333333333334</ele><time>2026-04-26T16:04:53.295Z</time></trkpt><trkpt lat="46.5563272" lon="12.5866728"><ele>977.0</ele><time>2026-04-26T16:04:55.291Z</time></trkpt><trkpt lat="46.5562612" lon="12.5867116"><ele>975.6</ele><time>2026-04-26T16:04:56.301Z</time></trkpt><trkpt lat="46.5561895" lon="12.5867572"><ele>974.2</ele><time>2026-04-26T16:04:57.298Z</time></trkpt><trkpt lat="46.5560942" lon="12.5868024"><ele>972.8</ele><time>2026-04-26T16:04:58.296Z</time></trkpt><trkpt lat="46.5559901" lon="12.5868509"><ele>971.4</ele><time>2026-04-26T16:04:59.296Z</time></trkpt><trkpt lat="46.5558801" lon="12.5868819"><ele>970.0</ele><time>2026-04-26T16:05:00.294Z</time></trkpt><trkpt lat="46.5557607" lon="12.5868927"><ele>970.0</ele><time>2026-04-26T16:05:01.294Z</time></trkpt><trkpt lat="46.5556236" lon="12.5868814"><ele>970.0</ele><time>2026-04-26T16:05:02.302Z</time></trkpt><trkpt lat="46.5554921" lon="12.5868635"><ele>970.0</ele><time>2026-04-26T16:05:03.3Z</time></trkpt><trkpt lat="46.5553755" lon="12.5868602"><ele>970.0</ele><time>2026-04-26T16:05:04.303Z</time></trkpt><trkpt lat="46.5552739" lon="12.586856"><ele>971.0</ele><time>2026-04-26T16:05:05.296Z</time></trkpt><trkpt lat="46.5551782" lon="12.5868877"><ele>972.0</ele><time>2026-04-26T16:05:06.292Z</time></trkpt><trkpt lat="46.5550727" lon="12.5869642"><ele>973.0</ele><time>2026-04-26T16:05:07.295Z</time></trkpt><trkpt lat="46.5549717" lon="12.5870774"><ele>974.0</ele><time>2026-04-26T16:05:08.297Z</time></trkpt><trkpt lat="46.5548596" lon="12.5872135"><ele>975.5</ele><time>2026-04-26T16:05:09.297Z</time></trkpt><trkpt lat="46.5547452" lon="12.5873533"><ele>977.0</ele><time>2026-04-26T16:05:10.305Z</time></trkpt><trkpt lat="46.5546388" lon="12.5874751"><ele>978.5</ele><time>2026-04-26T16:05:11.297Z</time></trkpt><trkpt lat="46.554535" lon="12.5875958"><ele>980.0</ele><time>2026-04-26T16:05:12.298Z</time></trkpt><trkpt lat="46.554433" lon="12.5877128"><ele>980.0</ele><time>2026-04-26T16:05:13.299Z</time></trkpt><trkpt lat="46.5543278" lon="12.5878249"><ele>980.0</ele><time>2026-04-26T16:05:14.298Z</time></trkpt><trkpt lat="46.5542144" lon="12.5879374"><ele>980.0</ele><time>2026-04-26T16:05:15.297Z</time></trkpt><trkpt lat="46.5540808" lon="12.5880329"><ele>980.0</ele><time>2026-04-26T16:05:16.302Z</time></trkpt><trkpt lat="46.5539329" lon="12.5881393"><ele>982.0</ele><time>2026-04-26T16:05:17.294Z</time></trkpt><trkpt lat="46.5537759" lon="12.5882348"><ele>984.0</ele><time>2026-04-26T16:05:18.303Z</time></trkpt><trkpt lat="46.5536264" lon="12.5883279"><ele>986.0</ele><time>2026-04-26T16:05:19.297Z</time></trkpt><trkpt lat="46.5534791" lon="12.5884195"><ele>986.0</ele><time>2026-04-26T16:05:20.3Z</time></trkpt><trkpt lat="46.5533369" lon="12.5885039"><ele>986.0</ele><time>2026-04-26T16:05:21.304Z</time></trkpt><trkpt lat="46.5532035" lon="12.588584"><ele>986.0</ele><time>2026-04-26T16:05:22.297Z</time></trkpt><trkpt lat="46.553086" lon="12.5886632"><ele>986.0</ele><time>2026-04-26T16:05:23.303Z</time></trkpt><trkpt lat="46.55298" lon="12.5887532"><ele>986.0</ele><time>2026-04-26T16:05:24.296Z</time></trkpt><trkpt lat="46.5528973" lon="12.5888661"><ele>985.9999999999999</ele><time>2026-04-26T16:05:25.304Z</time></trkpt><trkpt lat="46.5528308" lon="12.5889928"><ele>985.9999999999999</ele><time>2026-04-26T16:05:26.296Z</time></trkpt><trkpt lat="46.5527947" lon="12.5891353"><ele>986.0</ele><time>2026-04-26T16:05:27.298Z</time></trkpt><trkpt lat="46.5527773" lon="12.5892881"><ele>986.0</ele><time>2026-04-26T16:05:28.296Z</time></trkpt><trkpt lat="46.552771" lon="12.5894428"><ele>987.25</ele><time>2026-04-26T16:05:29.292Z</time></trkpt><trkpt lat="46.5527633" lon="12.5896125"><ele>988.5</ele><time>2026-04-26T16:05:30.299Z</time></trkpt><trkpt lat="46.5527492" lon="12.5898031"><ele>989.75</ele><time>2026-04-26T16:05:31.298Z</time></trkpt><trkpt lat="46.5527297" lon="12.5899988"><ele>991.0</ele><time>2026-04-26T16:05:32.296Z</time></trkpt><trkpt lat="46.5527094" lon="12.5901868"><ele>994.25</ele><time>2026-04-26T16:05:33.306Z</time></trkpt><trkpt lat="46.5526884" lon="12.5903575"><ele>997.5</ele><time>2026-04-26T16:05:34.298Z</time></trkpt><trkpt lat="46.5526547" lon="12.5905104"><ele>1000.75</ele><time>2026-04-26T16:05:35.302Z</time></trkpt><trkpt lat="46.5526002" lon="12.5906457"><ele>1004.0</ele><time>2026-04-26T16:05:36.295Z</time></trkpt><trkpt lat="46.5525303" lon="12.590781"><ele>1004.0</ele><time>2026-04-26T16:05:37.299Z</time></trkpt><trkpt lat="46.5524496" lon="12.5909134"><ele>1004.0</ele><time>2026-04-26T16:05:38.299Z</time></trkpt><trkpt lat="46.5523526" lon="12.5910326"><ele>1004.0</ele><time>2026-04-26T16:05:39.302Z</time></trkpt><trkpt lat="46.5522516" lon="12.5911519"><ele>1004.0</ele><time>2026-04-26T16:05:40.292Z</time></trkpt><trkpt lat="46.552148" lon="12.5912601"><ele>1006.25</ele><time>2026-04-26T16:05:41.292Z</time></trkpt><trkpt lat="46.5520417" lon="12.5913714"><ele>1008.5</ele><time>2026-04-26T16:05:42.3Z</time></trkpt><trkpt lat="46.5519233" lon="12.5914743"><ele>1010.75</ele><time>2026-04-26T16:05:43.297Z</time></trkpt><trkpt lat="46.551801" lon="12.5915667"><ele>1013.0</ele><time>2026-04-26T16:05:44.299Z</time></trkpt><trkpt lat="46.5516708" lon="12.5916436"><ele>1013.0</ele><time>2026-04-26T16:05:45.297Z</time></trkpt><trkpt lat="46.5515384" lon="12.5917068"><ele>1013.0</ele><time>2026-04-26T16:05:46.305Z</time></trkpt><trkpt lat="46.5514065" lon="12.5917649"><ele>1013.0</ele><time>2026-04-26T16:05:47.3Z</time></trkpt><trkpt lat="46.5512716" lon="12.5918308"><ele>1013.0</ele><time>2026-04-26T16:05:48.294Z</time></trkpt><trkpt lat="46.5511308" lon="12.5919012"><ele>1009.6666666666667</ele><time>2026-04-26T16:05:49.296Z</time></trkpt><trkpt lat="46.5509755" lon="12.5919806"><ele>1006.3333333333333</ele><time>2026-04-26T16:05:50.298Z</time></trkpt><trkpt lat="46.5508188" lon="12.5920642"><ele>1003.0</ele><time>2026-04-26T16:05:51.303Z</time></trkpt><trkpt lat="46.5506629" lon="12.5921476"><ele>1006.3333333333333</ele><time>2026-04-26T16:05:52.292Z</time></trkpt><trkpt lat="46.5505042" lon="12.5922219"><ele>1009.6666666666667</ele><time>2026-04-26T16:05:53.299Z</time></trkpt><trkpt lat="46.5503531" lon="12.592296"><ele>1013.0</ele><time>2026-04-26T16:05:54.305Z</time></trkpt><trkpt lat="46.550214" lon="12.5923729"><ele>1013.0</ele><time>2026-04-26T16:05:55.304Z</time></trkpt><trkpt lat="46.5500854" lon="12.5924672"><ele>1013.0</ele><time>2026-04-26T16:05:56.301Z</time></trkpt><trkpt lat="46.5499642" lon="12.5925894"><ele>1013.0</ele><time>2026-04-26T16:05:57.304Z</time></trkpt><trkpt lat="46.5498527" lon="12.5927341"><ele>1013.0</ele><time>2026-04-26T16:05:58.3Z</time></trkpt><trkpt lat="46.5497496" lon="12.592902"><ele>1014.75</ele><time>2026-04-26T16:05:59.296Z</time></trkpt><trkpt lat="46.5496519" lon="12.5930681"><ele>1016.5</ele><time>2026-04-26T16:06:00.298Z</time></trkpt><trkpt lat="46.5495521" lon="12.5932258"><ele>1018.25</ele><time>2026-04-26T16:06:01.295Z</time></trkpt><trkpt lat="46.5494609" lon="12.5933651"><ele>1020.0</ele><time>2026-04-26T16:06:02.296Z</time></trkpt><trkpt lat="46.5493839" lon="12.593486"><ele>1020.0</ele><time>2026-04-26T16:06:03.292Z</time></trkpt><trkpt lat="46.5493048" lon="12.5935952"><ele>1020.0</ele><time>2026-04-26T16:06:04.293Z</time></trkpt><trkpt lat="46.549234" lon="12.5936761"><ele>1020.0</ele><time>2026-04-26T16:06:05.297Z</time></trkpt><trkpt lat="46.5491622" lon="12.5937403"><ele>1020.0</ele><time>2026-04-26T16:06:06.302Z</time></trkpt><trkpt lat="46.5490821" lon="12.5937907"><ele>1020.0</ele><time>2026-04-26T16:06:07.297Z</time></trkpt><trkpt lat="46.5489923" lon="12.5938404"><ele>1024.0</ele><time>2026-04-26T16:06:08.304Z</time></trkpt><trkpt lat="46.5488958" lon="12.5939091"><ele>1028.0</ele><time>2026-04-26T16:06:09.302Z</time></trkpt><trkpt lat="46.5488007" lon="12.5939811"><ele>1032.0</ele><time>2026-04-26T16:06:10.308Z</time></trkpt><trkpt lat="46.5487123" lon="12.5940541"><ele>1036.0</ele><time>2026-04-26T16:06:11.297Z</time></trkpt><trkpt lat="46.5486214" lon="12.5941277"><ele>1040.0</ele><time>2026-04-26T16:06:12.301Z</time></trkpt><trkpt lat="46.5485213" lon="12.5941857"><ele>1040.0</ele><time>2026-04-26T16:06:13.299Z</time></trkpt><trkpt lat="46.5484067" lon="12.5942193"><ele>1040.0</ele><time>2026-04-26T16:06:14.302Z</time></trkpt><trkpt lat="46.5482884" lon="12.5942255"><ele>1040.0</ele><time>2026-04-26T16:06:15.3Z</time></trkpt><trkpt lat="46.5481635" lon="12.5942151"><ele>1040.0</ele><time>2026-04-26T16:06:16.295Z</time></trkpt><trkpt lat="46.5480373" lon="12.5942075"><ele>1040.0</ele><time>2026-04-26T16:06:17.307Z</time></trkpt><trkpt lat="46.5479058" lon="12.5941813"><ele>1040.0</ele><time>2026-04-26T16:06:18.298Z</time></trkpt><trkpt lat="46.5477834" lon="12.5941595"><ele>1040.0</ele><time>2026-04-26T16:06:19.297Z</time></trkpt><trkpt lat="46.5476753" lon="12.5941393"><ele>1040.0</ele><time>2026-04-26T16:06:20.306Z</time></trkpt><trkpt lat="46.5475657" lon="12.5941497"><ele>1039.0</ele><time>2026-04-26T16:06:21.297Z</time></trkpt><trkpt lat="46.5474522" lon="12.5941927"><ele>1038.0</ele><time>2026-04-26T16:06:22.308Z</time></trkpt><trkpt lat="46.5473374" lon="12.5942746"><ele>1037.0</ele><time>2026-04-26T16:06:23.296Z</time></trkpt><trkpt lat="46.5472183" lon="12.5943774"><ele>1036.0</ele><time>2026-04-26T16:06:24.293Z</time></trkpt><trkpt lat="46.5471025" lon="12.5944876"><ele>1038.75</ele><time>2026-04-26T16:06:25.296Z</time></trkpt><trkpt lat="46.5469873" lon="12.5945987"><ele>1041.5</ele><time>2026-04-26T16:06:26.293Z</time></trkpt><trkpt lat="46.546876" lon="12.5946901"><ele>1044.25</ele><time>2026-04-26T16:06:27.298Z</time></trkpt><trkpt lat="46.5467735" lon="12.5947759"><ele>1047.0</ele><time>2026-04-26T16:06:28.296Z</time></trkpt><trkpt lat="46.5466829" lon="12.5948529"><ele>1047.0</ele><time>2026-04-26T16:06:29.295Z</time></trkpt><trkpt lat="46.5465938" lon="12.5949262"><ele>1047.0</ele><time>2026-04-26T16:06:30.304Z</time></trkpt><trkpt lat="46.5465199" lon="12.5949832"><ele>1047.0</ele><time>2026-04-26T16:06:31.297Z</time></trkpt><trkpt lat="46.5464621" lon="12.5950522"><ele>1047.0</ele><time>2026-04-26T16:06:32.296Z</time></trkpt><trkpt lat="46.5464165" lon="12.5951302"><ele>1047.0</ele><time>2026-04-26T16:06:33.297Z</time></trkpt><trkpt lat="46.546378" lon="12.5952127"><ele>1047.0</ele><time>2026-04-26T16:06:34.297Z</time></trkpt><trkpt lat="46.5463483" lon="12.5953053"><ele>1047.0</ele><time>2026-04-26T16:06:35.298Z</time></trkpt><trkpt lat="46.5463109" lon="12.5954008"><ele>1047.0</ele><time>2026-04-26T16:06:36.297Z</time></trkpt><trkpt lat="46.5462786" lon="12.5954877"><ele>1047.0</ele><time>2026-04-26T16:06:37.3Z</time></trkpt><trkpt lat="46.5462187" lon="12.5955939"><ele>1047.0</ele><time>2026-04-26T16:06:39.298Z</time></trkpt><trkpt lat="46.5461351" lon="12.5956224"><ele>1047.0</ele><time>2026-04-26T16:06:41.297Z</time></trkpt><trkpt lat="46.546037" lon="12.5955765"><ele>1047.0</ele><time>2026-04-26T16:06:43.296Z</time></trkpt><trkpt lat="46.5459712" lon="12.5955312"><ele>1047.0</ele><time>2026-04-26T16:06:44.301Z</time></trkpt><trkpt lat="46.5459078" lon="12.5954957"><ele>1047.0</ele><time>2026-04-26T16:06:45.29Z</time></trkpt><trkpt lat="46.5457941" lon="12.5954742"><ele>1047.0</ele><time>2026-04-26T16:06:47.308Z</time></trkpt><trkpt lat="46.5457266" lon="12.5954806"><ele>1047.0</ele><time>2026-04-26T16:06:48.304Z</time></trkpt><trkpt lat="46.5456213" lon="12.5955541"><ele>1047.0</ele><time>2026-04-26T16:06:50.292Z</time></trkpt><trkpt lat="46.5455528" lon="12.595624"><ele>1047.0</ele><time>2026-04-26T16:06:52.305Z</time></trkpt><trkpt lat="46.5455048" lon="12.5957125"><ele>1047.0</ele><time>2026-04-26T16:06:54.303Z</time></trkpt><trkpt lat="46.5454136" lon="12.5958285"><ele>1047.0</ele><time>2026-04-26T16:06:56.3Z</time></trkpt><trkpt lat="46.5453572" lon="12.5958761"><ele>1047.0</ele><time>2026-04-26T16:06:57.302Z</time></trkpt><trkpt lat="46.5452899" lon="12.5959135"><ele>1047.0</ele><time>2026-04-26T16:06:58.298Z</time></trkpt><trkpt lat="46.5452154" lon="12.5959347"><ele>1047.0</ele><time>2026-04-26T16:06:59.305Z</time></trkpt><trkpt lat="46.545141" lon="12.5959382"><ele>1051.1666666666667</ele><time>2026-04-26T16:07:00.297Z</time></trkpt><trkpt lat="46.5450688" lon="12.5959394"><ele>1055.3333333333333</ele><time>2026-04-26T16:07:01.301Z</time></trkpt><trkpt lat="46.5449966" lon="12.5959356"><ele>1059.5</ele><time>2026-04-26T16:07:02.299Z</time></trkpt><trkpt lat="46.5449274" lon="12.5959132"><ele>1063.6666666666665</ele><time>2026-04-26T16:07:03.292Z</time></trkpt><trkpt lat="46.5448558" lon="12.5958767"><ele>1067.8333333333333</ele><time>2026-04-26T16:07:04.293Z</time></trkpt><trkpt lat="46.544776" lon="12.5958359"><ele>1072.0</ele><time>2026-04-26T16:07:05.292Z</time></trkpt><trkpt lat="46.5446939" lon="12.5957915"><ele>1072.0</ele><time>2026-04-26T16:07:06.3Z</time></trkpt><trkpt lat="46.5446144" lon="12.5957311"><ele>1072.0</ele><time>2026-04-26T16:07:07.3Z</time></trkpt><trkpt lat="46.5445246" lon="12.5956572"><ele>1072.0</ele><time>2026-04-26T16:07:08.292Z</time></trkpt><trkpt lat="46.5444363" lon="12.5955792"><ele>1072.0</ele><time>2026-04-26T16:07:09.3Z</time></trkpt><trkpt lat="46.5443462" lon="12.5955022"><ele>1072.0</ele><time>2026-04-26T16:07:10.295Z</time></trkpt><trkpt lat="46.5442634" lon="12.5954331"><ele>1073.1666666666665</ele><time>2026-04-26T16:07:11.294Z</time></trkpt><trkpt lat="46.5441772" lon="12.5953817"><ele>1074.3333333333333</ele><time>2026-04-26T16:07:12.292Z</time></trkpt><trkpt lat="46.5441" lon="12.5953399"><ele>1075.5</ele><time>2026-04-26T16:07:13.291Z</time></trkpt><trkpt lat="46.5440288" lon="12.5953182"><ele>1076.6666666666667</ele><time>2026-04-26T16:07:14.302Z</time></trkpt><trkpt lat="46.5439516" lon="12.5953059"><ele>1077.8333333333335</ele><time>2026-04-26T16:07:15.295Z</time></trkpt><trkpt lat="46.5438545" lon="12.5952978"><ele>1079.0</ele><time>2026-04-26T16:07:16.302Z</time></trkpt><trkpt lat="46.5437547" lon="12.595288"><ele>1081.6000000000001</ele><time>2026-04-26T16:07:17.295Z</time></trkpt><trkpt lat="46.5436542" lon="12.5952837"><ele>1084.2</ele><time>2026-04-26T16:07:18.297Z</time></trkpt><trkpt lat="46.5435698" lon="12.5952701"><ele>1086.8000000000002</ele><time>2026-04-26T16:07:19.293Z</time></trkpt><trkpt lat="46.5434864" lon="12.5952751"><ele>1089.4</ele><time>2026-04-26T16:07:20.295Z</time></trkpt><trkpt lat="46.5433884" lon="12.5952971"><ele>1092.0</ele><time>2026-04-26T16:07:21.294Z</time></trkpt><trkpt lat="46.5432968" lon="12.595323"><ele>1090.8</ele><time>2026-04-26T16:07:22.301Z</time></trkpt><trkpt lat="46.5432092" lon="12.5953439"><ele>1089.6</ele><time>2026-04-26T16:07:23.294Z</time></trkpt><trkpt lat="46.5431115" lon="12.5953553"><ele>1088.3999999999999</ele><time>2026-04-26T16:07:24.295Z</time></trkpt><trkpt lat="46.5430068" lon="12.5953636"><ele>1087.2</ele><time>2026-04-26T16:07:25.296Z</time></trkpt><trkpt lat="46.5428954" lon="12.5953664"><ele>1086.0</ele><time>2026-04-26T16:07:26.295Z</time></trkpt><trkpt lat="46.5427796" lon="12.595381"><ele>1086.0</ele><time>2026-04-26T16:07:27.296Z</time></trkpt><trkpt lat="46.5426677" lon="12.5953832"><ele>1086.0</ele><time>2026-04-26T16:07:28.298Z</time></trkpt><trkpt lat="46.5425759" lon="12.595373"><ele>1086.0</ele><time>2026-04-26T16:07:29.294Z</time></trkpt><trkpt lat="46.5424894" lon="12.5953701"><ele>1086.0</ele><time>2026-04-26T16:07:30.29Z</time></trkpt><trkpt lat="46.5424032" lon="12.5953805"><ele>1086.0</ele><time>2026-04-26T16:07:31.299Z</time></trkpt><trkpt lat="46.5423157" lon="12.5954105"><ele>1086.0</ele><time>2026-04-26T16:07:32.297Z</time></trkpt><trkpt lat="46.5422388" lon="12.5954559"><ele>1086.0</ele><time>2026-04-26T16:07:33.297Z</time></trkpt><trkpt lat="46.5421755" lon="12.5955185"><ele>1086.0</ele><time>2026-04-26T16:07:34.298Z</time></trkpt><trkpt lat="46.5421245" lon="12.5955773"><ele>1086.0</ele><time>2026-04-26T16:07:35.301Z</time></trkpt><trkpt lat="46.542051" lon="12.5956256"><ele>1086.0</ele><time>2026-04-26T16:07:37.294Z</time></trkpt><trkpt lat="46.5420378" lon="12.5955214"><ele>1086.0</ele><time>2026-04-26T16:07:40.295Z</time></trkpt><trkpt lat="46.5421112" lon="12.5954236"><ele>1089.6</ele><time>2026-04-26T16:07:42.296Z</time></trkpt><trkpt lat="46.5422076" lon="12.5953139"><ele>1093.1999999999998</ele><time>2026-04-26T16:07:44.299Z</time></trkpt><trkpt lat="46.5422687" lon="12.5952353"><ele>1096.8000000000002</ele><time>2026-04-26T16:07:45.294Z</time></trkpt><trkpt lat="46.5423323" lon="12.5951559"><ele>1100.4</ele><time>2026-04-26T16:07:46.298Z</time></trkpt><trkpt lat="46.5424014" lon="12.5950632"><ele>1104.0</ele><time>2026-04-26T16:07:47.294Z</time></trkpt><trkpt lat="46.5424875" lon="12.5949715"><ele>1104.0</ele><time>2026-04-26T16:07:48.296Z</time></trkpt><trkpt lat="46.5425665" lon="12.5949034"><ele>1104.0</ele><time>2026-04-26T16:07:49.295Z</time></trkpt><trkpt lat="46.5426389" lon="12.5948208"><ele>1104.0</ele><time>2026-04-26T16:07:50.296Z</time></trkpt><trkpt lat="46.5426934" lon="12.5947217"><ele>1104.0</ele><time>2026-04-26T16:07:51.305Z</time></trkpt><trkpt lat="46.5427506" lon="12.5946083"><ele>1104.0</ele><time>2026-04-26T16:07:52.297Z</time></trkpt><trkpt lat="46.542807" lon="12.5944968"><ele>1106.5</ele><time>2026-04-26T16:07:53.301Z</time></trkpt><trkpt lat="46.5428544" lon="12.5944037"><ele>1109.0</ele><time>2026-04-26T16:07:54.29Z</time></trkpt><trkpt lat="46.5428873" lon="12.5943117"><ele>1111.5</ele><time>2026-04-26T16:07:56.299Z</time></trkpt><trkpt lat="46.5427863" lon="12.5942533"><ele>1114.0</ele><time>2026-04-26T16:07:59.29Z</time></trkpt><trkpt lat="46.5426985" lon="12.5943069"><ele>1116.5</ele><time>2026-04-26T16:08:01.297Z</time></trkpt><trkpt lat="46.542658" lon="12.5943976"><ele>1119.0</ele><time>2026-04-26T16:08:02.295Z</time></trkpt><trkpt lat="46.5426052" lon="12.5944971"><ele>1116.0</ele><time>2026-04-26T16:08:03.306Z</time></trkpt><trkpt lat="46.5425421" lon="12.5945812"><ele>1113.0</ele><time>2026-04-26T16:08:04.296Z</time></trkpt><trkpt lat="46.542463" lon="12.5946533"><ele>1110.0</ele><time>2026-04-26T16:08:05.295Z</time></trkpt><trkpt lat="46.5423808" lon="12.5947226"><ele>1107.0</ele><time>2026-04-26T16:08:06.302Z</time></trkpt><trkpt lat="46.542298" lon="12.5947826"><ele>1104.0</ele><time>2026-04-26T16:08:07.295Z</time></trkpt><trkpt lat="46.5422147" lon="12.5948495"><ele>1104.0</ele><time>2026-04-26T16:08:08.305Z</time></trkpt><trkpt lat="46.5421282" lon="12.5949191"><ele>1104.0</ele><time>2026-04-26T16:08:09.298Z</time></trkpt><trkpt lat="46.5420481" lon="12.5949953"><ele>1104.0</ele><time>2026-04-26T16:08:10.296Z</time></trkpt><trkpt lat="46.541972" lon="12.5950712"><ele>1104.0</ele><time>2026-04-26T16:08:11.296Z</time></trkpt><trkpt lat="46.5419073" lon="12.5951416"><ele>1104.0</ele><time>2026-04-26T16:08:12.299Z</time></trkpt><trkpt lat="46.5418476" lon="12.5952133"><ele>1104.0</ele><time>2026-04-26T16:08:13.298Z</time></trkpt><trkpt lat="46.5417933" lon="12.5952975"><ele>1104.3333333333333</ele><time>2026-04-26T16:08:14.3Z</time></trkpt><trkpt lat="46.5417349" lon="12.5953721"><ele>1104.6666666666667</ele><time>2026-04-26T16:08:15.293Z</time></trkpt><trkpt lat="46.5416619" lon="12.5954354"><ele>1105.0</ele><time>2026-04-26T16:08:16.29Z</time></trkpt><trkpt lat="46.5415887" lon="12.5954996"><ele>1105.3333333333335</ele><time>2026-04-26T16:08:17.3Z</time></trkpt><trkpt lat="46.5415097" lon="12.5955571"><ele>1105.6666666666667</ele><time>2026-04-26T16:08:18.297Z</time></trkpt><trkpt lat="46.541431" lon="12.5956099"><ele>1106.0</ele><time>2026-04-26T16:08:19.295Z</time></trkpt><trkpt lat="46.5413505" lon="12.5956594"><ele>1106.0</ele><time>2026-04-26T16:08:20.296Z</time></trkpt><trkpt lat="46.5412692" lon="12.5956953"><ele>1106.0</ele><time>2026-04-26T16:08:21.293Z</time></trkpt><trkpt lat="46.5411893" lon="12.5957259"><ele>1106.0</ele><time>2026-04-26T16:08:22.294Z</time></trkpt><trkpt lat="46.5411063" lon="12.5957478"><ele>1106.0</ele><time>2026-04-26T16:08:23.296Z</time></trkpt><trkpt lat="46.5410218" lon="12.5957684"><ele>1106.0</ele><time>2026-04-26T16:08:24.294Z</time></trkpt><trkpt lat="46.5409414" lon="12.5957904"><ele>1106.0</ele><time>2026-04-26T16:08:25.301Z</time></trkpt><trkpt lat="46.5408703" lon="12.5958183"><ele>1107.857142857143</ele><time>2026-04-26T16:08:26.297Z</time></trkpt><trkpt lat="46.540801" lon="12.5958556"><ele>1109.7142857142858</ele><time>2026-04-26T16:08:27.294Z</time></trkpt><trkpt lat="46.5407398" lon="12.5958798"><ele>1111.5714285714284</ele><time>2026-04-26T16:08:28.289Z</time></trkpt><trkpt lat="46.5406744" lon="12.595883"><ele>1113.4285714285716</ele><time>2026-04-26T16:08:29.291Z</time></trkpt><trkpt lat="46.5406073" lon="12.5959002"><ele>1115.2857142857142</ele><time>2026-04-26T16:08:30.299Z</time></trkpt><trkpt lat="46.5405336" lon="12.5959016"><ele>1117.142857142857</ele><time>2026-04-26T16:08:31.293Z</time></trkpt><trkpt lat="46.540448" lon="12.5958849"><ele>1119.0</ele><time>2026-04-26T16:08:32.294Z</time></trkpt><trkpt lat="46.5403662" lon="12.595876"><ele>1119.4285714285713</ele><time>2026-04-26T16:08:33.309Z</time></trkpt><trkpt lat="46.5402933" lon="12.5958672"><ele>1119.857142857143</ele><time>2026-04-26T16:08:34.295Z</time></trkpt><trkpt lat="46.540218" lon="12.5958659"><ele>1120.2857142857142</ele><time>2026-04-26T16:08:35.297Z</time></trkpt><trkpt lat="46.5401506" lon="12.5958826"><ele>1120.7142857142858</ele><time>2026-04-26T16:08:36.297Z</time></trkpt><trkpt lat="46.5400825" lon="12.5958927"><ele>1121.142857142857</ele><time>2026-04-26T16:08:37.297Z</time></trkpt><trkpt lat="46.5400053" lon="12.5959408"><ele>1121.5714285714284</ele><time>2026-04-26T16:08:39.296Z</time></trkpt><trkpt lat="46.5399833" lon="12.5960314"><ele>1122.0</ele><time>2026-04-26T16:08:41.295Z</time></trkpt><trkpt lat="46.5399734" lon="12.5961674"><ele>1121.5</ele><time>2026-04-26T16:08:43.295Z</time></trkpt><trkpt lat="46.5399862" lon="12.596267"><ele>1121.0</ele><time>2026-04-26T16:08:44.29Z</time></trkpt><trkpt lat="46.5400004" lon="12.5963736"><ele>1120.5</ele><time>2026-04-26T16:08:45.299Z</time></trkpt><trkpt lat="46.5400133" lon="12.5964698"><ele>1120.0</ele><time>2026-04-26T16:08:46.301Z</time></trkpt><trkpt lat="46.5400315" lon="12.5965755"><ele>1119.5</ele><time>2026-04-26T16:08:47.295Z</time></trkpt><trkpt lat="46.5400577" lon="12.5967335"><ele>1119.0</ele><time>2026-04-26T16:08:49.305Z</time></trkpt><trkpt lat="46.5401421" lon="12.5968215"><ele>1119.0</ele><time>2026-04-26T16:08:51.295Z</time></trkpt><trkpt lat="46.5402199" lon="12.5968399"><ele>1119.0</ele><time>2026-04-26T16:08:52.303Z</time></trkpt><trkpt lat="46.5402918" lon="12.5968552"><ele>1119.0</ele><time>2026-04-26T16:08:53.296Z</time></trkpt><trkpt lat="46.5403651" lon="12.5968733"><ele>1119.0</ele><time>2026-04-26T16:08:54.292Z</time></trkpt><trkpt lat="46.540439" lon="12.5968956"><ele>1119.0</ele><time>2026-04-26T16:08:55.297Z</time></trkpt><trkpt lat="46.5405199" lon="12.5969231"><ele>1119.0</ele><time>2026-04-26T16:08:56.299Z</time></trkpt><trkpt lat="46.5406077" lon="12.5969551"><ele>1119.4</ele><time>2026-04-26T16:08:57.303Z</time></trkpt><trkpt lat="46.5407045" lon="12.596992"><ele>1119.8000000000002</ele><time>2026-04-26T16:08:58.289Z</time></trkpt><trkpt lat="46.5408048" lon="12.5970342"><ele>1120.1999999999998</ele><time>2026-04-26T16:08:59.295Z</time></trkpt><trkpt lat="46.5409085" lon="12.5970743"><ele>1120.6</ele><time>2026-04-26T16:09:00.3Z</time></trkpt><trkpt lat="46.5410152" lon="12.5971178"><ele>1121.0</ele><time>2026-04-26T16:09:01.3Z</time></trkpt><trkpt lat="46.5411202" lon="12.5971533"><ele>1128.0</ele><time>2026-04-26T16:09:02.298Z</time></trkpt><trkpt lat="46.541225" lon="12.5971896"><ele>1135.0</ele><time>2026-04-26T16:09:03.298Z</time></trkpt><trkpt lat="46.5413402" lon="12.5972267"><ele>1142.0</ele><time>2026-04-26T16:09:04.301Z</time></trkpt><trkpt lat="46.5414372" lon="12.5972554"><ele>1149.0</ele><time>2026-04-26T16:09:05.299Z</time></trkpt><trkpt lat="46.5415203" lon="12.5972759"><ele>1156.0</ele><time>2026-04-26T16:09:06.292Z</time></trkpt><trkpt lat="46.5415985" lon="12.5972748"><ele>1156.0</ele><time>2026-04-26T16:09:07.297Z</time></trkpt><trkpt lat="46.5416697" lon="12.5972541"><ele>1156.0</ele><time>2026-04-26T16:09:08.301Z</time></trkpt><trkpt lat="46.5417398" lon="12.5972338"><ele>1156.0</ele><time>2026-04-26T16:09:09.31Z</time></trkpt><trkpt lat="46.5418098" lon="12.5972248"><ele>1156.0</ele><time>2026-04-26T16:09:10.296Z</time></trkpt><trkpt lat="46.5418845" lon="12.5972483"><ele>1156.0</ele><time>2026-04-26T16:09:11.3Z</time></trkpt><trkpt lat="46.5419721" lon="12.5972923"><ele>1156.0</ele><time>2026-04-26T16:09:12.294Z</time></trkpt><trkpt lat="46.5420648" lon="12.5973533"><ele>1156.8</ele><time>2026-04-26T16:09:13.3Z</time></trkpt><trkpt lat="46.5421481" lon="12.5974086"><ele>1157.6</ele><time>2026-04-26T16:09:14.299Z</time></trkpt><trkpt lat="46.5422387" lon="12.5974705"><ele>1158.4</ele><time>2026-04-26T16:09:15.294Z</time></trkpt><trkpt lat="46.5423313" lon="12.5975276"><ele>1159.2</ele><time>2026-04-26T16:09:16.294Z</time></trkpt><trkpt lat="46.5424252" lon="12.5975807"><ele>1160.0</ele><time>2026-04-26T16:09:17.302Z</time></trkpt><trkpt lat="46.5425213" lon="12.5976169"><ele>1160.0</ele><time>2026-04-26T16:09:18.291Z</time></trkpt><trkpt lat="46.5426279" lon="12.5976613"><ele>1160.0</ele><time>2026-04-26T16:09:19.311Z</time></trkpt><trkpt lat="46.5427303" lon="12.5977152"><ele>1160.0</ele><time>2026-04-26T16:09:20.299Z</time></trkpt><trkpt lat="46.5428328" lon="12.5977578"><ele>1160.0</ele><time>2026-04-26T16:09:21.294Z</time></trkpt><trkpt lat="46.5429189" lon="12.5977915"><ele>1160.0</ele><time>2026-04-26T16:09:22.292Z</time></trkpt><trkpt lat="46.5430057" lon="12.5978213"><ele>1166.0</ele><time>2026-04-26T16:09:23.302Z</time></trkpt><trkpt lat="46.5430979" lon="12.5978503"><ele>1172.0</ele><time>2026-04-26T16:09:24.296Z</time></trkpt><trkpt lat="46.5431936" lon="12.5978887"><ele>1178.0</ele><time>2026-04-26T16:09:25.3Z</time></trkpt><trkpt lat="46.5432908" lon="12.5979306"><ele>1184.0</ele><time>2026-04-26T16:09:26.302Z</time></trkpt><trkpt lat="46.5433929" lon="12.5979829"><ele>1190.0</ele><time>2026-04-26T16:09:27.297Z</time></trkpt><trkpt lat="46.5434999" lon="12.5980508"><ele>1190.0</ele><time>2026-04-26T16:09:28.293Z</time></trkpt><trkpt lat="46.5435965" lon="12.5981074"><ele>1190.0</ele><time>2026-04-26T16:09:29.297Z</time></trkpt><trkpt lat="46.5436799" lon="12.5981468"><ele>1190.0</ele><time>2026-04-26T16:09:30.303Z</time></trkpt><trkpt lat="46.54377" lon="12.5981908"><ele>1190.0</ele><time>2026-04-26T16:09:31.298Z</time></trkpt><trkpt lat="46.5438626" lon="12.5982487"><ele>1190.0</ele><time>2026-04-26T16:09:32.302Z</time></trkpt><trkpt lat="46.54395" lon="12.5983263"><ele>1188.8</ele><time>2026-04-26T16:09:33.292Z</time></trkpt><trkpt lat="46.5440524" lon="12.5983958"><ele>1187.6</ele><time>2026-04-26T16:09:34.301Z</time></trkpt><trkpt lat="46.544152" lon="12.5984612"><ele>1186.4</ele><time>2026-04-26T16:09:35.304Z</time></trkpt><trkpt lat="46.5442502" lon="12.5985321"><ele>1185.2</ele><time>2026-04-26T16:09:36.302Z</time></trkpt><trkpt lat="46.5443469" lon="12.5985807"><ele>1184.0</ele><time>2026-04-26T16:09:37.302Z</time></trkpt><trkpt lat="46.5444472" lon="12.5986238"><ele>1181.4</ele><time>2026-04-26T16:09:38.304Z</time></trkpt><trkpt lat="46.5445514" lon="12.5986529"><ele>1178.8000000000002</ele><time>2026-04-26T16:09:39.298Z</time></trkpt><trkpt lat="46.5446494" lon="12.5986842"><ele>1176.1999999999998</ele><time>2026-04-26T16:09:40.297Z</time></trkpt><trkpt lat="46.5447521" lon="12.5987156"><ele>1173.6</ele><time>2026-04-26T16:09:41.289Z</time></trkpt><trkpt lat="46.5448456" lon="12.5987475"><ele>1171.0</ele><time>2026-04-26T16:09:42.3Z</time></trkpt><trkpt lat="46.5449282" lon="12.5987565"><ele>1176.5</ele><time>2026-04-26T16:09:43.3Z</time></trkpt><trkpt lat="46.5449979" lon="12.5987727"><ele>1182.0</ele><time>2026-04-26T16:09:44.296Z</time></trkpt><trkpt lat="46.5450515" lon="12.5988323"><ele>1187.5</ele><time>2026-04-26T16:09:45.306Z</time></trkpt><trkpt lat="46.5451056" lon="12.5989263"><ele>1193.0</ele><time>2026-04-26T16:09:46.304Z</time></trkpt><trkpt lat="46.5451648" lon="12.5990085"><ele>1198.5</ele><time>2026-04-26T16:09:47.299Z</time></trkpt><trkpt lat="46.5452239" lon="12.5991"><ele>1204.0</ele><time>2026-04-26T16:09:48.299Z</time></trkpt><trkpt lat="46.5452986" lon="12.5991711"><ele>1204.0</ele><time>2026-04-26T16:09:49.299Z</time></trkpt><trkpt lat="46.5453755" lon="12.5992018"><ele>1204.0</ele><time>2026-04-26T16:09:50.307Z</time></trkpt><trkpt lat="46.545466" lon="12.5992205"><ele>1204.0</ele><time>2026-04-26T16:09:51.297Z</time></trkpt><trkpt lat="46.5455615" lon="12.5992392"><ele>1204.0</ele><time>2026-04-26T16:09:52.3Z</time></trkpt><trkpt lat="46.5456578" lon="12.5992607"><ele>1204.0</ele><time>2026-04-26T16:09:53.299Z</time></trkpt><trkpt lat="46.5457472" lon="12.5992793"><ele>1204.4</ele><time>2026-04-26T16:09:54.297Z</time></trkpt><trkpt lat="46.5458286" lon="12.5992917"><ele>1204.8000000000002</ele><time>2026-04-26T16:09:55.304Z</time></trkpt><trkpt lat="46.5459095" lon="12.5993154"><ele>1205.1999999999998</ele><time>2026-04-26T16:09:56.296Z</time></trkpt><trkpt lat="46.5459967" lon="12.5993708"><ele>1205.6</ele><time>2026-04-26T16:09:57.3Z</time></trkpt><trkpt lat="46.546092" lon="12.59943"><ele>1206.0</ele><time>2026-04-26T16:09:58.302Z</time></trkpt><trkpt lat="46.5461932" lon="12.5995033"><ele>1206.6666666666667</ele><time>2026-04-26T16:09:59.297Z</time></trkpt><trkpt lat="46.5462653" lon="12.5995538"><ele>1207.3333333333333</ele><time>2026-04-26T16:10:00.295Z</time></trkpt><trkpt lat="46.5463322" lon="12.5995562"><ele>1208.0</ele><time>2026-04-26T16:10:01.297Z</time></trkpt><trkpt lat="46.5464057" lon="12.5995446"><ele>1208.6666666666665</ele><time>2026-04-26T16:10:02.291Z</time></trkpt><trkpt lat="46.5464995" lon="12.5995247"><ele>1209.3333333333333</ele><time>2026-04-26T16:10:03.298Z</time></trkpt><trkpt lat="46.5466209" lon="12.5995123"><ele>1210.0</ele><time>2026-04-26T16:10:04.302Z</time></trkpt><trkpt lat="46.5467366" lon="12.5994906"><ele>1210.0</ele><time>2026-04-26T16:10:05.294Z</time></trkpt><trkpt lat="46.5468303" lon="12.5994959"><ele>1210.0</ele><time>2026-04-26T16:10:06.298Z</time></trkpt><trkpt lat="46.5469124" lon="12.5995013"><ele>1210.0</ele><time>2026-04-26T16:10:07.299Z</time></trkpt><trkpt lat="46.5469778" lon="12.5995179"><ele>1210.0</ele><time>2026-04-26T16:10:08.304Z</time></trkpt><trkpt lat="46.5470945" lon="12.5995864"><ele>1210.0</ele><time>2026-04-26T16:10:10.301Z</time></trkpt><trkpt lat="46.5471583" lon="12.5996659"><ele>1214.8333333333333</ele><time>2026-04-26T16:10:11.301Z</time></trkpt><trkpt lat="46.5472282" lon="12.5997562"><ele>1219.6666666666665</ele><time>2026-04-26T16:10:12.301Z</time></trkpt><trkpt lat="46.5473008" lon="12.5998237"><ele>1224.5</ele><time>2026-04-26T16:10:13.302Z</time></trkpt><trkpt lat="46.5473768" lon="12.5998542"><ele>1229.3333333333333</ele><time>2026-04-26T16:10:14.295Z</time></trkpt><trkpt lat="46.5474521" lon="12.5998821"><ele>1234.1666666666667</ele><time>2026-04-26T16:10:15.303Z</time></trkpt><trkpt lat="46.5475211" lon="12.5999057"><ele>1239.0</ele><time>2026-04-26T16:10:16.301Z</time></trkpt><trkpt lat="46.5475836" lon="12.5999499"><ele>1239.0</ele><time>2026-04-26T16:10:17.304Z</time></trkpt><trkpt lat="46.5476377" lon="12.5999971"><ele>1239.0</ele><time>2026-04-26T16:10:18.298Z</time></trkpt><trkpt lat="46.5476969" lon="12.6000677"><ele>1239.0</ele><time>2026-04-26T16:10:19.297Z</time></trkpt><trkpt lat="46.5477685" lon="12.6001547"><ele>1239.0</ele><time>2026-04-26T16:10:20.305Z</time></trkpt><trkpt lat="46.5478449" lon="12.6002343"><ele>1239.0</ele><time>2026-04-26T16:10:21.297Z</time></trkpt><trkpt lat="46.547913" lon="12.6002972"><ele>1239.0</ele><time>2026-04-26T16:10:22.306Z</time></trkpt><trkpt lat="46.5479771" lon="12.6003516"><ele>1244.0</ele><time>2026-04-26T16:10:23.303Z</time></trkpt><trkpt lat="46.5480423" lon="12.6004029"><ele>1249.0</ele><time>2026-04-26T16:10:24.298Z</time></trkpt><trkpt lat="46.5481119" lon="12.6004555"><ele>1254.0</ele><time>2026-04-26T16:10:25.301Z</time></trkpt><trkpt lat="46.5481902" lon="12.6005156"><ele>1259.0</ele><time>2026-04-26T16:10:26.297Z</time></trkpt><trkpt lat="46.5482763" lon="12.6005797"><ele>1264.0</ele><time>2026-04-26T16:10:27.305Z</time></trkpt><trkpt lat="46.5483492" lon="12.6006295"><ele>1269.0</ele><time>2026-04-26T16:10:28.294Z</time></trkpt><trkpt lat="46.5484598" lon="12.6006661"><ele>1269.0</ele><time>2026-04-26T16:10:30.295Z</time></trkpt><trkpt lat="46.5485585" lon="12.6006551"><ele>1269.0</ele><time>2026-04-26T16:10:32.294Z</time></trkpt><trkpt lat="46.5486638" lon="12.600606"><ele>1269.0</ele><time>2026-04-26T16:10:34.3Z</time></trkpt><trkpt lat="46.548731" lon="12.600564"><ele>1269.0</ele><time>2026-04-26T16:10:35.301Z</time></trkpt><trkpt lat="46.5487939" lon="12.6005137"><ele>1269.0</ele><time>2026-04-26T16:10:36.289Z</time></trkpt><trkpt lat="46.548911" lon="12.6004898"><ele>1269.4</ele><time>2026-04-26T16:10:38.293Z</time></trkpt><trkpt lat="46.5490131" lon="12.6005714"><ele>1269.8000000000002</ele><time>2026-04-26T16:10:40.3Z</time></trkpt><trkpt lat="46.5491087" lon="12.6007112"><ele>1270.1999999999998</ele><time>2026-04-26T16:10:42.29Z</time></trkpt><trkpt lat="46.5491671" lon="12.6007957"><ele>1270.6</ele><time>2026-04-26T16:10:43.312Z</time></trkpt><trkpt lat="46.549223" lon="12.6008861"><ele>1271.0</ele><time>2026-04-26T16:10:44.294Z</time></trkpt><trkpt lat="46.5492708" lon="12.6009923"><ele>1271.0</ele><time>2026-04-26T16:10:45.3Z</time></trkpt><trkpt lat="46.5493314" lon="12.6011063"><ele>1271.0</ele><time>2026-04-26T16:10:46.3Z</time></trkpt><trkpt lat="46.5493957" lon="12.6012221"><ele>1271.0</ele><time>2026-04-26T16:10:47.295Z</time></trkpt><trkpt lat="46.5494592" lon="12.6013279"><ele>1271.0</ele><time>2026-04-26T16:10:48.301Z</time></trkpt><trkpt lat="46.549522" lon="12.6014339"><ele>1271.0</ele><time>2026-04-26T16:10:49.302Z</time></trkpt><trkpt lat="46.5495841" lon="12.6015333"><ele>1272.5</ele><time>2026-04-26T16:10:50.296Z</time></trkpt><trkpt lat="46.5496366" lon="12.6016231"><ele>1274.0</ele><time>2026-04-26T16:10:51.305Z</time></trkpt><trkpt lat="46.5496858" lon="12.6016865"><ele>1275.5</ele><time>2026-04-26T16:10:52.298Z</time></trkpt><trkpt lat="46.5497491" lon="12.6017242"><ele>1277.0</ele><time>2026-04-26T16:10:53.294Z</time></trkpt><trkpt lat="46.549826" lon="12.6017561"><ele>1278.5</ele><time>2026-04-26T16:10:54.293Z</time></trkpt><trkpt lat="46.549907" lon="12.6017941"><ele>1280.0</ele><time>2026-04-26T16:10:55.299Z</time></trkpt><trkpt lat="46.5499763" lon="12.6018395"><ele>1280.0</ele><time>2026-04-26T16:10:56.296Z</time></trkpt><trkpt lat="46.5500421" lon="12.6018916"><ele>1280.0</ele><time>2026-04-26T16:10:57.298Z</time></trkpt><trkpt lat="46.5501025" lon="12.6019276"><ele>1280.0</ele><time>2026-04-26T16:10:58.303Z</time></trkpt><trkpt lat="46.5501622" lon="12.6019631"><ele>1280.0</ele><time>2026-04-26T16:10:59.3Z</time></trkpt><trkpt lat="46.5502732" lon="12.6020194"><ele>1280.0</ele><time>2026-04-26T16:11:01.291Z</time></trkpt><trkpt lat="46.5503652" lon="12.6020432"><ele>1280.0</ele><time>2026-04-26T16:11:03.296Z</time></trkpt><trkpt lat="46.5504357" lon="12.6019922"><ele>1283.3333333333335</ele><time>2026-04-26T16:11:05.294Z</time></trkpt><trkpt lat="46.5504767" lon="12.6018415"><ele>1286.6666666666667</ele><time>2026-04-26T16:11:07.295Z</time></trkpt><trkpt lat="46.5504951" lon="12.6017524"><ele>1290.0</ele><time>2026-04-26T16:11:08.306Z</time></trkpt><trkpt lat="46.5505045" lon="12.6016593"><ele>1293.3333333333333</ele><time>2026-04-26T16:11:09.297Z</time></trkpt><trkpt lat="46.5505058" lon="12.6015591"><ele>1296.6666666666665</ele><time>2026-04-26T16:11:10.305Z</time></trkpt><trkpt lat="46.5505238" lon="12.6014588"><ele>1300.0</ele><time>2026-04-26T16:11:11.299Z</time></trkpt><trkpt lat="46.5505543" lon="12.6013569"><ele>1300.0</ele><time>2026-04-26T16:11:12.301Z</time></trkpt><trkpt lat="46.5506038" lon="12.6012512"><ele>1300.0</ele><time>2026-04-26T16:11:13.301Z</time></trkpt><trkpt lat="46.5506735" lon="12.601145"><ele>1300.0</ele><time>2026-04-26T16:11:14.301Z</time></trkpt><trkpt lat="46.5507497" lon="12.601035"><ele>1300.0</ele><time>2026-04-26T16:11:15.298Z</time></trkpt><trkpt lat="46.5508134" lon="12.6009398"><ele>1300.0</ele><time>2026-04-26T16:11:16.296Z</time></trkpt><trkpt lat="46.5508807" lon="12.6008565"><ele>1297.6666666666665</ele><time>2026-04-26T16:11:17.296Z</time></trkpt><trkpt lat="46.5509725" lon="12.6007462"><ele>1295.3333333333333</ele><time>2026-04-26T16:11:19.291Z</time></trkpt><trkpt lat="46.5510435" lon="12.6007035"><ele>1293.0</ele><time>2026-04-26T16:11:21.297Z</time></trkpt><trkpt lat="46.5510658" lon="12.6008201"><ele>1290.6666666666667</ele><time>2026-04-26T16:11:25.297Z</time></trkpt><trkpt lat="46.5510161" lon="12.6009003"><ele>1288.3333333333335</ele><time>2026-04-26T16:11:27.299Z</time></trkpt><trkpt lat="46.5509983" lon="12.6010366"><ele>1286.0</ele><time>2026-04-26T16:11:29.297Z</time></trkpt><trkpt lat="46.5510274" lon="12.6011402"><ele>1286.0</ele><time>2026-04-26T16:11:31.297Z</time></trkpt><trkpt lat="46.5511065" lon="12.6011526"><ele>1286.0</ele><time>2026-04-26T16:11:33.302Z</time></trkpt><trkpt lat="46.5512241" lon="12.6010549"><ele>1286.0</ele><time>2026-04-26T16:11:35.295Z</time></trkpt><trkpt lat="46.5512934" lon="12.6009833"><ele>1286.0</ele><time>2026-04-26T16:11:36.3Z</time></trkpt><trkpt lat="46.5513688" lon="12.6009171"><ele>1286.0</ele><time>2026-04-26T16:11:37.293Z</time></trkpt><trkpt lat="46.5514527" lon="12.6008652"><ele>1291.6</ele><time>2026-04-26T16:11:38.303Z</time></trkpt><trkpt lat="46.5515399" lon="12.6008066"><ele>1297.1999999999998</ele><time>2026-04-26T16:11:39.293Z</time></trkpt><trkpt lat="46.5516274" lon="12.6007351"><ele>1302.8000000000002</ele><time>2026-04-26T16:11:40.305Z</time></trkpt><trkpt lat="46.5517156" lon="12.6006684"><ele>1308.4</ele><time>2026-04-26T16:11:41.302Z</time></trkpt><trkpt lat="46.5518032" lon="12.6005999"><ele>1314.0</ele><time>2026-04-26T16:11:42.295Z</time></trkpt><trkpt lat="46.5518944" lon="12.6005355"><ele>1314.0</ele><time>2026-04-26T16:11:43.301Z</time></trkpt><trkpt lat="46.551988" lon="12.6004704"><ele>1314.0</ele><time>2026-04-26T16:11:44.298Z</time></trkpt><trkpt lat="46.5520776" lon="12.6004072"><ele>1314.0</ele><time>2026-04-26T16:11:45.304Z</time></trkpt><trkpt lat="46.5521618" lon="12.600361"><ele>1314.0</ele><time>2026-04-26T16:11:46.299Z</time></trkpt><trkpt lat="46.5522276" lon="12.6003316"><ele>1314.0</ele><time>2026-04-26T16:11:47.301Z</time></trkpt><trkpt lat="46.552313" lon="12.6002953"><ele>1313.5</ele><time>2026-04-26T16:11:49.305Z</time></trkpt><trkpt lat="46.5523719" lon="12.6003288"><ele>1313.0</ele><time>2026-04-26T16:11:51.303Z</time></trkpt><trkpt lat="46.5523238" lon="12.600459"><ele>1312.5</ele><time>2026-04-26T16:11:54.294Z</time></trkpt><trkpt lat="46.5522648" lon="12.6005036"><ele>1312.0</ele><time>2026-04-26T16:11:55.301Z</time></trkpt><trkpt lat="46.5522041" lon="12.6005563"><ele>1311.5</ele><time>2026-04-26T16:11:56.303Z</time></trkpt><trkpt lat="46.5521492" lon="12.6006532"><ele>1311.0</ele><time>2026-04-26T16:11:57.306Z</time></trkpt><trkpt lat="46.5521101" lon="12.600784"><ele>1311.75</ele><time>2026-04-26T16:11:58.3Z</time></trkpt><trkpt lat="46.5520716" lon="12.6009324"><ele>1312.5</ele><time>2026-04-26T16:11:59.303Z</time></trkpt><trkpt lat="46.5520297" lon="12.6010894"><ele>1313.25</ele><time>2026-04-26T16:12:00.294Z</time></trkpt><trkpt lat="46.5519863" lon="12.6012514"><ele>1314.0</ele><time>2026-04-26T16:12:01.297Z</time></trkpt><trkpt lat="46.5519264" lon="12.6014246"><ele>1319.25</ele><time>2026-04-26T16:12:02.298Z</time></trkpt><trkpt lat="46.5518639" lon="12.6016009"><ele>1324.5</ele><time>2026-04-26T16:12:03.295Z</time></trkpt><trkpt lat="46.5518177" lon="12.6017454"><ele>1329.75</ele><time>2026-04-26T16:12:04.297Z</time></trkpt><trkpt lat="46.5517736" lon="12.6018893"><ele>1335.0</ele><time>2026-04-26T16:12:05.302Z</time></trkpt><trkpt lat="46.5517286" lon="12.6020281"><ele>1338.2</ele><time>2026-04-26T16:12:06.306Z</time></trkpt><trkpt lat="46.5516841" lon="12.6021679"><ele>1341.4</ele><time>2026-04-26T16:12:07.293Z</time></trkpt><trkpt lat="46.5516528" lon="12.6023"><ele>1344.6</ele><time>2026-04-26T16:12:08.305Z</time></trkpt><trkpt lat="46.5516404" lon="12.6024232"><ele>1347.8</ele><time>2026-04-26T16:12:09.298Z</time></trkpt><trkpt lat="46.5516388" lon="12.602546"><ele>1351.0</ele><time>2026-04-26T16:12:10.301Z</time></trkpt><trkpt lat="46.5516463" lon="12.6026823"><ele>1351.0</ele><time>2026-04-26T16:12:11.294Z</time></trkpt><trkpt lat="46.5516528" lon="12.6028283"><ele>1351.0</ele><time>2026-04-26T16:12:12.297Z</time></trkpt><trkpt lat="46.5516518" lon="12.6029751"><ele>1351.0</ele><time>2026-04-26T16:12:13.3Z</time></trkpt><trkpt lat="46.5516557" lon="12.6031264"><ele>1351.0</ele><time>2026-04-26T16:12:14.305Z</time></trkpt><trkpt lat="46.5516636" lon="12.6032625"><ele>1351.0</ele><time>2026-04-26T16:12:15.304Z</time></trkpt><trkpt lat="46.5516607" lon="12.6033879"><ele>1353.8</ele><time>2026-04-26T16:12:16.294Z</time></trkpt><trkpt lat="46.5516582" lon="12.6035434"><ele>1356.6</ele><time>2026-04-26T16:12:17.296Z</time></trkpt><trkpt lat="46.5516318" lon="12.6036998"><ele>1359.4</ele><time>2026-04-26T16:12:18.302Z</time></trkpt><trkpt lat="46.5516054" lon="12.6038453"><ele>1362.2</ele><time>2026-04-26T16:12:19.304Z</time></trkpt><trkpt lat="46.5515798" lon="12.6039819"><ele>1365.0</ele><time>2026-04-26T16:12:20.299Z</time></trkpt><trkpt lat="46.5515655" lon="12.6041212"><ele>1368.2</ele><time>2026-04-26T16:12:21.299Z</time></trkpt><trkpt lat="46.5515498" lon="12.6042695"><ele>1371.4</ele><time>2026-04-26T16:12:22.306Z</time></trkpt><trkpt lat="46.5515293" lon="12.6044148"><ele>1374.6</ele><time>2026-04-26T16:12:23.304Z</time></trkpt><trkpt lat="46.5515169" lon="12.6045634"><ele>1377.8</ele><time>2026-04-26T16:12:24.305Z</time></trkpt><trkpt lat="46.5514938" lon="12.6047099"><ele>1381.0</ele><time>2026-04-26T16:12:25.292Z</time></trkpt><trkpt lat="46.5514559" lon="12.6048372"><ele>1383.8</ele><time>2026-04-26T16:12:26.301Z</time></trkpt><trkpt lat="46.5514299" lon="12.6049673"><ele>1386.6</ele><time>2026-04-26T16:12:27.3Z</time></trkpt><trkpt lat="46.5514006" lon="12.6051208"><ele>1389.4</ele><time>2026-04-26T16:12:28.303Z</time></trkpt><trkpt lat="46.5513625" lon="12.6052714"><ele>1392.2</ele><time>2026-04-26T16:12:29.292Z</time></trkpt><trkpt lat="46.5513176" lon="12.6054151"><ele>1395.0</ele><time>2026-04-26T16:12:30.301Z</time></trkpt><trkpt lat="46.5512909" lon="12.6055421"><ele>1397.0</ele><time>2026-04-26T16:12:31.288Z</time></trkpt><trkpt lat="46.5512902" lon="12.6056887"><ele>1399.0</ele><time>2026-04-26T16:12:32.292Z</time></trkpt><trkpt lat="46.5513026" lon="12.6058103"><ele>1401.0</ele><time>2026-04-26T16:12:33.297Z</time></trkpt><trkpt lat="46.5513043" lon="12.6059082"><ele>1403.0</ele><time>2026-04-26T16:12:34.293Z</time></trkpt><trkpt lat="46.551293" lon="12.6060073"><ele>1405.0</ele><time>2026-04-26T16:12:35.297Z</time></trkpt><trkpt lat="46.551275" lon="12.6060991"><ele>1407.0</ele><time>2026-04-26T16:12:36.3Z</time></trkpt><trkpt lat="46.5512275" lon="12.6062409"><ele>1407.0</ele><time>2026-04-26T16:12:38.305Z</time></trkpt><trkpt lat="46.5512359" lon="12.6063388"><ele>1407.0</ele><time>2026-04-26T16:12:40.296Z</time></trkpt><trkpt lat="46.5513117" lon="12.6063472"><ele>1407.0</ele><time>2026-04-26T16:12:42.292Z</time></trkpt><trkpt lat="46.5514089" lon="12.6062587"><ele>1407.0</ele><time>2026-04-26T16:12:44.296Z</time></trkpt><trkpt lat="46.5514777" lon="12.6061659"><ele>1407.0</ele><time>2026-04-26T16:12:45.29Z</time></trkpt><trkpt lat="46.5515464" lon="12.6060476"><ele>1407.0</ele><time>2026-04-26T16:12:46.295Z</time></trkpt><trkpt lat="46.5516181" lon="12.605941"><ele>1407.0</ele><time>2026-04-26T16:12:47.29Z</time></trkpt><trkpt lat="46.5516938" lon="12.6058293"><ele>1407.0</ele><time>2026-04-26T16:12:48.291Z</time></trkpt><trkpt lat="46.5517569" lon="12.6057194"><ele>1407.0</ele><time>2026-04-26T16:12:49.296Z</time></trkpt><trkpt lat="46.551795" lon="12.605607"><ele>1407.0</ele><time>2026-04-26T16:12:50.29Z</time></trkpt><trkpt lat="46.551818" lon="12.6055019"><ele>1407.0</ele><time>2026-04-26T16:12:51.292Z</time></trkpt><trkpt lat="46.5518539" lon="12.605406"><ele>1407.0</ele><time>2026-04-26T16:12:52.29Z</time></trkpt><trkpt lat="46.5519126" lon="12.6053184"><ele>1407.0</ele><time>2026-04-26T16:12:53.292Z</time></trkpt><trkpt lat="46.551975" lon="12.6052398"><ele>1407.0</ele><time>2026-04-26T16:12:54.29Z</time></trkpt><trkpt lat="46.5520473" lon="12.605155"><ele>1407.0</ele><time>2026-04-26T16:12:55.297Z</time></trkpt><trkpt lat="46.5521331" lon="12.6050936"><ele>1407.0</ele><time>2026-04-26T16:12:56.298Z</time></trkpt><trkpt lat="46.5522348" lon="12.605034"><ele>1412.0</ele><time>2026-04-26T16:12:57.297Z</time></trkpt><trkpt lat="46.5523293" lon="12.6049941"><ele>1417.0</ele><time>2026-04-26T16:12:58.307Z</time></trkpt><trkpt lat="46.5524025" lon="12.6049496"><ele>1422.0</ele><time>2026-04-26T16:12:59.296Z</time></trkpt><trkpt lat="46.5524682" lon="12.60488"><ele>1427.0</ele><time>2026-04-26T16:13:00.302Z</time></trkpt><trkpt lat="46.5525346" lon="12.604777"><ele>1432.0</ele><time>2026-04-26T16:13:01.302Z</time></trkpt><trkpt lat="46.5525923" lon="12.6046685"><ele>1432.0</ele><time>2026-04-26T16:13:02.291Z</time></trkpt><trkpt lat="46.5526484" lon="12.6045526"><ele>1432.0</ele><time>2026-04-26T16:13:03.295Z</time></trkpt><trkpt lat="46.5527094" lon="12.6044316"><ele>1432.0</ele><time>2026-04-26T16:13:04.299Z</time></trkpt><trkpt lat="46.5527716" lon="12.6043116"><ele>1432.0</ele><time>2026-04-26T16:13:05.301Z</time></trkpt><trkpt lat="46.5528336" lon="12.6042011"><ele>1432.0</ele><time>2026-04-26T16:13:06.3Z</time></trkpt><trkpt lat="46.5528911" lon="12.6041012"><ele>1433.6666666666665</ele><time>2026-04-26T16:13:07.299Z</time></trkpt><trkpt lat="46.552952" lon="12.6040224"><ele>1435.3333333333333</ele><time>2026-04-26T16:13:08.303Z</time></trkpt><trkpt lat="46.5530207" lon="12.603966"><ele>1437.0</ele><time>2026-04-26T16:13:09.297Z</time></trkpt><trkpt lat="46.5530868" lon="12.6039139"><ele>1438.6666666666667</ele><time>2026-04-26T16:13:10.295Z</time></trkpt><trkpt lat="46.5531922" lon="12.6039039"><ele>1440.3333333333335</ele><time>2026-04-26T16:13:12.296Z</time></trkpt><trkpt lat="46.553276" lon="12.603981"><ele>1442.0</ele><time>2026-04-26T16:13:14.31Z</time></trkpt><trkpt lat="46.5533374" lon="12.6040598"><ele>1442.0</ele><time>2026-04-26T16:13:15.295Z</time></trkpt><trkpt lat="46.5533859" lon="12.6041533"><ele>1442.0</ele><time>2026-04-26T16:13:16.302Z</time></trkpt><trkpt lat="46.5534305" lon="12.6042334"><ele>1442.0</ele><time>2026-04-26T16:13:17.296Z</time></trkpt><trkpt lat="46.5534534" lon="12.6043611"><ele>1442.0</ele><time>2026-04-26T16:13:19.297Z</time></trkpt><trkpt lat="46.5534602" lon="12.6045176"><ele>1442.0</ele><time>2026-04-26T16:13:21.298Z</time></trkpt><trkpt lat="46.5534208" lon="12.6046875"><ele>1444.8333333333335</ele><time>2026-04-26T16:13:23.311Z</time></trkpt><trkpt lat="46.5533577" lon="12.6047708"><ele>1447.6666666666667</ele><time>2026-04-26T16:13:24.294Z</time></trkpt><trkpt lat="46.5532905" lon="12.6048539"><ele>1450.5</ele><time>2026-04-26T16:13:25.305Z</time></trkpt><trkpt lat="46.5532253" lon="12.6049482"><ele>1453.3333333333333</ele><time>2026-04-26T16:13:26.301Z</time></trkpt><trkpt lat="46.5531569" lon="12.6050413"><ele>1456.1666666666665</ele><time>2026-04-26T16:13:27.3Z</time></trkpt><trkpt lat="46.5530957" lon="12.6051241"><ele>1459.0</ele><time>2026-04-26T16:13:28.297Z</time></trkpt><trkpt lat="46.5530522" lon="12.6052099"><ele>1459.0</ele><time>2026-04-26T16:13:29.301Z</time></trkpt><trkpt lat="46.553009" lon="12.6053004"><ele>1459.0</ele><time>2026-04-26T16:13:30.303Z</time></trkpt><trkpt lat="46.5529836" lon="12.6053977"><ele>1459.0</ele><time>2026-04-26T16:13:31.294Z</time></trkpt><trkpt lat="46.5529588" lon="12.6055126"><ele>1459.0</ele><time>2026-04-26T16:13:32.295Z</time></trkpt><trkpt lat="46.5529393" lon="12.6056254"><ele>1459.0</ele><time>2026-04-26T16:13:33.294Z</time></trkpt><trkpt lat="46.5529368" lon="12.6057422"><ele>1459.0</ele><time>2026-04-26T16:13:34.295Z</time></trkpt><trkpt lat="46.5529497" lon="12.6058582"><ele>1462.3333333333333</ele><time>2026-04-26T16:13:35.302Z</time></trkpt><trkpt lat="46.5529666" lon="12.6059733"><ele>1465.6666666666665</ele><time>2026-04-26T16:13:36.295Z</time></trkpt><trkpt lat="46.5529859" lon="12.6060841"><ele>1469.0</ele><time>2026-04-26T16:13:37.296Z</time></trkpt><trkpt lat="46.5529883" lon="12.6061999"><ele>1472.3333333333333</ele><time>2026-04-26T16:13:38.293Z</time></trkpt><trkpt lat="46.5529848" lon="12.6063122"><ele>1475.6666666666667</ele><time>2026-04-26T16:13:39.294Z</time></trkpt><trkpt lat="46.5529739" lon="12.6064214"><ele>1479.0</ele><time>2026-04-26T16:13:40.296Z</time></trkpt><trkpt lat="46.5529693" lon="12.6065385"><ele>1481.3333333333333</ele><time>2026-04-26T16:13:41.293Z</time></trkpt><trkpt lat="46.5529624" lon="12.6066613"><ele>1483.6666666666667</ele><time>2026-04-26T16:13:42.297Z</time></trkpt><trkpt lat="46.5529564" lon="12.6067803"><ele>1486.0</ele><time>2026-04-26T16:13:43.294Z</time></trkpt><trkpt lat="46.5529548" lon="12.6068969"><ele>1488.3333333333335</ele><time>2026-04-26T16:13:44.295Z</time></trkpt><trkpt lat="46.5529536" lon="12.6070098"><ele>1490.6666666666667</ele><time>2026-04-26T16:13:45.295Z</time></trkpt><trkpt lat="46.5529446" lon="12.6071206"><ele>1493.0</ele><time>2026-04-26T16:13:46.315Z</time></trkpt><trkpt lat="46.5529436" lon="12.6072341"><ele>1495.3333333333335</ele><time>2026-04-26T16:13:47.302Z</time></trkpt><trkpt lat="46.5529393" lon="12.6073549"><ele>1497.6666666666667</ele><time>2026-04-26T16:13:48.292Z</time></trkpt><trkpt lat="46.5529293" lon="12.6074626"><ele>1500.0</ele><time>2026-04-26T16:13:49.298Z</time></trkpt><trkpt lat="46.5529242" lon="12.6075808"><ele>1502.3333333333333</ele><time>2026-04-26T16:13:50.295Z</time></trkpt><trkpt lat="46.5529162" lon="12.6076986"><ele>1504.6666666666665</ele><time>2026-04-26T16:13:51.298Z</time></trkpt><trkpt lat="46.5529203" lon="12.6078354"><ele>1507.0</ele><time>2026-04-26T16:13:52.293Z</time></trkpt><trkpt lat="46.5529232" lon="12.6079598"><ele>1509.1999999999998</ele><time>2026-04-26T16:13:53.306Z</time></trkpt><trkpt lat="46.5529267" lon="12.6080955"><ele>1511.4</ele><time>2026-04-26T16:13:54.299Z</time></trkpt><trkpt lat="46.5529363" lon="12.6082449"><ele>1513.6</ele><time>2026-04-26T16:13:55.301Z</time></trkpt><trkpt lat="46.5529416" lon="12.6083975"><ele>1515.8000000000002</ele><time>2026-04-26T16:13:56.308Z</time></trkpt><trkpt lat="46.5529385" lon="12.6085488"><ele>1518.0</ele><time>2026-04-26T16:13:57.304Z</time></trkpt><trkpt lat="46.552924" lon="12.6086727"><ele>1515.8333333333333</ele><time>2026-04-26T16:13:58.299Z</time></trkpt><trkpt lat="46.552904" lon="12.6087812"><ele>1513.6666666666667</ele><time>2026-04-26T16:13:59.302Z</time></trkpt><trkpt lat="46.5528779" lon="12.6088908"><ele>1511.5</ele><time>2026-04-26T16:14:00.301Z</time></trkpt><trkpt lat="46.5528655" lon="12.6089824"><ele>1509.3333333333335</ele><time>2026-04-26T16:14:01.303Z</time></trkpt><trkpt lat="46.552859" lon="12.6091398"><ele>1507.1666666666667</ele><time>2026-04-26T16:14:03.302Z</time></trkpt><trkpt lat="46.5529322" lon="12.6091934"><ele>1505.0</ele><time>2026-04-26T16:14:06.299Z</time></trkpt><trkpt lat="46.553024" lon="12.6090538"><ele>1507.1666666666667</ele><time>2026-04-26T16:14:08.294Z</time></trkpt><trkpt lat="46.5530606" lon="12.6089789"><ele>1509.3333333333335</ele><time>2026-04-26T16:14:09.304Z</time></trkpt><trkpt lat="46.5531062" lon="12.6088907"><ele>1511.5</ele><time>2026-04-26T16:14:10.296Z</time></trkpt><trkpt lat="46.5531461" lon="12.6087978"><ele>1513.6666666666667</ele><time>2026-04-26T16:14:11.296Z</time></trkpt><trkpt lat="46.5531875" lon="12.6086814"><ele>1515.8333333333333</ele><time>2026-04-26T16:14:12.299Z</time></trkpt><trkpt lat="46.5532133" lon="12.6085388"><ele>1518.0</ele><time>2026-04-26T16:14:13.3Z</time></trkpt><trkpt lat="46.5532392" lon="12.6083779"><ele>1518.0</ele><time>2026-04-26T16:14:14.299Z</time></trkpt><trkpt lat="46.5532518" lon="12.6082359"><ele>1518.0</ele><time>2026-04-26T16:14:15.306Z</time></trkpt><trkpt lat="46.5532662" lon="12.6080801"><ele>1518.0</ele><time>2026-04-26T16:14:16.295Z</time></trkpt><trkpt lat="46.553281" lon="12.6079294"><ele>1518.0</ele><time>2026-04-26T16:14:17.296Z</time></trkpt><trkpt lat="46.5532905" lon="12.6077935"><ele>1518.0</ele><time>2026-04-26T16:14:18.295Z</time></trkpt><trkpt lat="46.5533033" lon="12.6076486"><ele>1516.1666666666667</ele><time>2026-04-26T16:14:19.309Z</time></trkpt><trkpt lat="46.5533248" lon="12.6075162"><ele>1514.3333333333333</ele><time>2026-04-26T16:14:20.295Z</time></trkpt><trkpt lat="46.5533528" lon="12.6073941"><ele>1512.5</ele><time>2026-04-26T16:14:21.295Z</time></trkpt><trkpt lat="46.5533741" lon="12.607283"><ele>1510.6666666666665</ele><time>2026-04-26T16:14:22.302Z</time></trkpt><trkpt lat="46.5533977" lon="12.607183"><ele>1508.8333333333333</ele><time>2026-04-26T16:14:23.3Z</time></trkpt><trkpt lat="46.5534252" lon="12.6070862"><ele>1507.0</ele><time>2026-04-26T16:14:24.293Z</time></trkpt><trkpt lat="46.5535151" lon="12.6069667"><ele>1505.8333333333333</ele><time>2026-04-26T16:14:26.306Z</time></trkpt><trkpt lat="46.5535754" lon="12.6069165"><ele>1504.6666666666665</ele><time>2026-04-26T16:14:27.306Z</time></trkpt><trkpt lat="46.5536442" lon="12.6068643"><ele>1503.5</ele><time>2026-04-26T16:14:28.297Z</time></trkpt><trkpt lat="46.5537104" lon="12.6068309"><ele>1502.3333333333333</ele><time>2026-04-26T16:14:29.297Z</time></trkpt><trkpt lat="46.5538164" lon="12.6068249"><ele>1501.1666666666667</ele><time>2026-04-26T16:14:31.301Z</time></trkpt><trkpt lat="46.5538974" lon="12.6069169"><ele>1500.0</ele><time>2026-04-26T16:14:33.295Z</time></trkpt><trkpt lat="46.5539585" lon="12.6069942"><ele>1503.5</ele><time>2026-04-26T16:14:34.299Z</time></trkpt><trkpt lat="46.5540271" lon="12.6070927"><ele>1507.0</ele><time>2026-04-26T16:14:35.299Z</time></trkpt><trkpt lat="46.5541014" lon="12.6071875"><ele>1510.5</ele><time>2026-04-26T16:14:36.301Z</time></trkpt><trkpt lat="46.5541684" lon="12.6072567"><ele>1514.0</ele><time>2026-04-26T16:14:37.301Z</time></trkpt><trkpt lat="46.5542335" lon="12.6073157"><ele>1517.5</ele><time>2026-04-26T16:14:38.303Z</time></trkpt><trkpt lat="46.5543085" lon="12.607365"><ele>1521.0</ele><time>2026-04-26T16:14:39.304Z</time></trkpt><trkpt lat="46.5543791" lon="12.6073926"><ele>1521.0</ele><time>2026-04-26T16:14:40.302Z</time></trkpt><trkpt lat="46.5544446" lon="12.6073804"><ele>1521.0</ele><time>2026-04-26T16:14:41.297Z</time></trkpt><trkpt lat="46.5545103" lon="12.6073506"><ele>1521.0</ele><time>2026-04-26T16:14:42.297Z</time></trkpt><trkpt lat="46.5545827" lon="12.6072993"><ele>1521.0</ele><time>2026-04-26T16:14:43.304Z</time></trkpt><trkpt lat="46.5546632" lon="12.6072282"><ele>1521.0</ele><time>2026-04-26T16:14:44.292Z</time></trkpt><trkpt lat="46.554737" lon="12.6071427"><ele>1521.0</ele><time>2026-04-26T16:14:45.311Z</time></trkpt><trkpt lat="46.5547996" lon="12.6070781"><ele>1523.3333333333333</ele><time>2026-04-26T16:14:46.304Z</time></trkpt><trkpt lat="46.5548581" lon="12.6070428"><ele>1525.6666666666667</ele><time>2026-04-26T16:14:47.298Z</time></trkpt><trkpt lat="46.5549771" lon="12.6070358"><ele>1528.0</ele><time>2026-04-26T16:14:49.298Z</time></trkpt><trkpt lat="46.5550537" lon="12.6070983"><ele>1530.3333333333335</ele><time>2026-04-26T16:14:50.302Z</time></trkpt><trkpt lat="46.5551122" lon="12.6071626"><ele>1532.6666666666667</ele><time>2026-04-26T16:14:51.312Z</time></trkpt><trkpt lat="46.5551623" lon="12.6072786"><ele>1535.0</ele><time>2026-04-26T16:14:53.299Z</time></trkpt><trkpt lat="46.5550991" lon="12.6074025"><ele>1535.0</ele><time>2026-04-26T16:14:55.297Z</time></trkpt><trkpt lat="46.5550207" lon="12.6074451"><ele>1535.0</ele><time>2026-04-26T16:14:57.296Z</time></trkpt><trkpt lat="46.5549137" lon="12.6075015"><ele>1535.0</ele><time>2026-04-26T16:14:59.296Z</time></trkpt><trkpt lat="46.5548592" lon="12.6075652"><ele>1535.0</ele><time>2026-04-26T16:15:00.304Z</time></trkpt><trkpt lat="46.5548122" lon="12.6076301"><ele>1535.0</ele><time>2026-04-26T16:15:01.305Z</time></trkpt><trkpt lat="46.5547642" lon="12.6077334"><ele>1535.0</ele><time>2026-04-26T16:15:02.301Z</time></trkpt><trkpt lat="46.5547054" lon="12.6078393"><ele>1536.2</ele><time>2026-04-26T16:15:03.301Z</time></trkpt><trkpt lat="46.5546415" lon="12.6079529"><ele>1537.4</ele><time>2026-04-26T16:15:04.301Z</time></trkpt><trkpt lat="46.5545684" lon="12.6080779"><ele>1538.6</ele><time>2026-04-26T16:15:05.301Z</time></trkpt><trkpt lat="46.5545039" lon="12.6082001"><ele>1539.8</ele><time>2026-04-26T16:15:06.301Z</time></trkpt><trkpt lat="46.5544397" lon="12.6083224"><ele>1541.0</ele><time>2026-04-26T16:15:07.298Z</time></trkpt><trkpt lat="46.5543801" lon="12.6084497"><ele>1540.9999999999998</ele><time>2026-04-26T16:15:08.296Z</time></trkpt><trkpt lat="46.5543165" lon="12.6085622"><ele>1541.0</ele><time>2026-04-26T16:15:09.301Z</time></trkpt><trkpt lat="46.554268" lon="12.6086697"><ele>1541.0</ele><time>2026-04-26T16:15:10.295Z</time></trkpt><trkpt lat="46.5542202" lon="12.6087466"><ele>1541.0</ele><time>2026-04-26T16:15:11.296Z</time></trkpt><trkpt lat="46.5541509" lon="12.6087889"><ele>1540.9999999999998</ele><time>2026-04-26T16:15:12.302Z</time></trkpt><trkpt lat="46.5540873" lon="12.6088346"><ele>1541.0</ele><time>2026-04-26T16:15:13.295Z</time></trkpt><trkpt lat="46.554026" lon="12.6089002"><ele>1544.6666666666665</ele><time>2026-04-26T16:15:14.302Z</time></trkpt><trkpt lat="46.5539802" lon="12.6089995"><ele>1548.3333333333333</ele><time>2026-04-26T16:15:15.303Z</time></trkpt><trkpt lat="46.5539299" lon="12.6090962"><ele>1552.0</ele><time>2026-04-26T16:15:16.308Z</time></trkpt><trkpt lat="46.5538784" lon="12.6092041"><ele>1555.6666666666665</ele><time>2026-04-26T16:15:17.303Z</time></trkpt><trkpt lat="46.5538411" lon="12.6093116"><ele>1559.3333333333333</ele><time>2026-04-26T16:15:18.315Z</time></trkpt><trkpt lat="46.5537947" lon="12.6094138"><ele>1563.0</ele><time>2026-04-26T16:15:19.303Z</time></trkpt><trkpt lat="46.5537425" lon="12.609535"><ele>1561.5</ele><time>2026-04-26T16:15:20.305Z</time></trkpt><trkpt lat="46.5537005" lon="12.6096519"><ele>1560.0</ele><time>2026-04-26T16:15:21.302Z</time></trkpt><trkpt lat="46.553665" lon="12.609776"><ele>1558.5</ele><time>2026-04-26T16:15:22.297Z</time></trkpt><trkpt lat="46.5536309" lon="12.6098944"><ele>1557.0</ele><time>2026-04-26T16:15:23.308Z</time></trkpt><trkpt lat="46.5535985" lon="12.6100092"><ele>1555.5</ele><time>2026-04-26T16:15:24.3Z</time></trkpt><trkpt lat="46.5535627" lon="12.6101134"><ele>1554.0</ele><time>2026-04-26T16:15:25.303Z</time></trkpt><trkpt lat="46.5535265" lon="12.6102068"><ele>1554.0</ele><time>2026-04-26T16:15:26.298Z</time></trkpt><trkpt lat="46.5534795" lon="12.6102857"><ele>1554.0</ele><time>2026-04-26T16:15:27.299Z</time></trkpt><trkpt lat="46.5534363" lon="12.6103523"><ele>1554.0</ele><time>2026-04-26T16:15:28.299Z</time></trkpt><trkpt lat="46.5533726" lon="12.6104587"><ele>1554.0</ele><time>2026-04-26T16:15:30.303Z</time></trkpt><trkpt lat="46.5533147" lon="12.6105217"><ele>1554.0</ele><time>2026-04-26T16:15:32.297Z</time></trkpt><trkpt lat="46.5532731" lon="12.6105935"><ele>1554.0</ele><time>2026-04-26T16:15:34.3Z</time></trkpt><trkpt lat="46.5532351" lon="12.6106748"><ele>1554.0</ele><time>2026-04-26T16:15:36.305Z</time></trkpt><trkpt lat="46.5532961" lon="12.6106081"><ele>1554.0</ele><time>2026-04-26T16:15:43.299Z</time></trkpt><trkpt lat="46.5533612" lon="12.6104758"><ele>1554.0</ele><time>2026-04-26T16:15:45.304Z</time></trkpt><trkpt lat="46.5534039" lon="12.6104058"><ele>1554.0</ele><time>2026-04-26T16:15:46.297Z</time></trkpt><trkpt lat="46.5534506" lon="12.610335"><ele>1554.0</ele><time>2026-04-26T16:15:47.295Z</time></trkpt><trkpt lat="46.5534967" lon="12.6102521"><ele>1554.0</ele><time>2026-04-26T16:15:48.3Z</time></trkpt><trkpt lat="46.5535361" lon="12.6101689"><ele>1554.0</ele><time>2026-04-26T16:15:49.298Z</time></trkpt><trkpt lat="46.5535777" lon="12.6100818"><ele>1554.0</ele><time>2026-04-26T16:15:50.308Z</time></trkpt><trkpt lat="46.5536149" lon="12.6099947"><ele>1554.0</ele><time>2026-04-26T16:15:51.3Z</time></trkpt><trkpt lat="46.5536506" lon="12.6099018"><ele>1554.0</ele><time>2026-04-26T16:15:52.307Z</time></trkpt><trkpt lat="46.5536803" lon="12.6098037"><ele>1554.0</ele><time>2026-04-26T16:15:53.304Z</time></trkpt><trkpt lat="46.5537078" lon="12.6097111"><ele>1554.0</ele><time>2026-04-26T16:15:54.293Z</time></trkpt><trkpt lat="46.5537471" lon="12.609614"><ele>1554.0</ele><time>2026-04-26T16:15:55.297Z</time></trkpt><trkpt lat="46.553793" lon="12.6095227"><ele>1554.0</ele><time>2026-04-26T16:15:56.302Z</time></trkpt><trkpt lat="46.5538416" lon="12.6094136"><ele>1555.2857142857142</ele><time>2026-04-26T16:15:57.296Z</time></trkpt><trkpt lat="46.5538923" lon="12.6093233"><ele>1556.5714285714284</ele><time>2026-04-26T16:15:58.303Z</time></trkpt><trkpt lat="46.5539338" lon="12.6092336"><ele>1557.857142857143</ele><time>2026-04-26T16:15:59.296Z</time></trkpt><trkpt lat="46.5539717" lon="12.6091445"><ele>1559.142857142857</ele><time>2026-04-26T16:16:00.301Z</time></trkpt><trkpt lat="46.5540046" lon="12.6090611"><ele>1560.4285714285713</ele><time>2026-04-26T16:16:01.3Z</time></trkpt><trkpt lat="46.5540389" lon="12.6089688"><ele>1561.7142857142858</ele><time>2026-04-26T16:16:02.302Z</time></trkpt><trkpt lat="46.5540793" lon="12.6088914"><ele>1563.0</ele><time>2026-04-26T16:16:03.302Z</time></trkpt><trkpt lat="46.5541224" lon="12.6088205"><ele>1563.0</ele><time>2026-04-26T16:16:04.3Z</time></trkpt><trkpt lat="46.5542338" lon="12.6087353"><ele>1563.0</ele><time>2026-04-26T16:16:06.299Z</time></trkpt><trkpt lat="46.5542938" lon="12.6086935"><ele>1563.0</ele><time>2026-04-26T16:16:07.304Z</time></trkpt><trkpt lat="46.5543563" lon="12.6086335"><ele>1563.0</ele><time>2026-04-26T16:16:08.301Z</time></trkpt><trkpt lat="46.5544243" lon="12.6085592"><ele>1563.0</ele><time>2026-04-26T16:16:09.302Z</time></trkpt><trkpt lat="46.5544939" lon="12.6084803"><ele>1563.0</ele><time>2026-04-26T16:16:10.307Z</time></trkpt><trkpt lat="46.5545545" lon="12.6083962"><ele>1563.6666666666667</ele><time>2026-04-26T16:16:11.298Z</time></trkpt><trkpt lat="46.5546144" lon="12.6083067"><ele>1564.3333333333335</ele><time>2026-04-26T16:16:12.308Z</time></trkpt><trkpt lat="46.5546625" lon="12.6082193"><ele>1565.0</ele><time>2026-04-26T16:16:13.295Z</time></trkpt><trkpt lat="46.5547093" lon="12.6081276"><ele>1565.6666666666667</ele><time>2026-04-26T16:16:14.297Z</time></trkpt><trkpt lat="46.5547544" lon="12.6080239"><ele>1566.3333333333335</ele><time>2026-04-26T16:16:15.3Z</time></trkpt><trkpt lat="46.5548028" lon="12.6079303"><ele>1567.0</ele><time>2026-04-26T16:16:16.305Z</time></trkpt><trkpt lat="46.5548543" lon="12.6078379"><ele>1560.6</ele><time>2026-04-26T16:16:17.297Z</time></trkpt><trkpt lat="46.5548867" lon="12.6077491"><ele>1554.1999999999998</ele><time>2026-04-26T16:16:18.299Z</time></trkpt><trkpt lat="46.554939" lon="12.6076049"><ele>1547.8</ele><time>2026-04-26T16:16:20.301Z</time></trkpt><trkpt lat="46.5550089" lon="12.6074827"><ele>1541.4</ele><time>2026-04-26T16:16:22.3Z</time></trkpt><trkpt lat="46.5550901" lon="12.6073961"><ele>1535.0</ele><time>2026-04-26T16:16:24.304Z</time></trkpt><trkpt lat="46.5551559" lon="12.6073425"><ele>1535.0</ele><time>2026-04-26T16:16:26.307Z</time></trkpt><trkpt lat="46.5551785" lon="12.6072455"><ele>1535.0</ele><time>2026-04-26T16:16:28.308Z</time></trkpt><trkpt lat="46.5550912" lon="12.6071273"><ele>1535.0</ele><time>2026-04-26T16:16:30.291Z</time></trkpt><trkpt lat="46.5550301" lon="12.6070814"><ele>1535.0</ele><time>2026-04-26T16:16:31.295Z</time></trkpt><trkpt lat="46.5549607" lon="12.6070322"><ele>1535.0</ele><time>2026-04-26T16:16:32.3Z</time></trkpt><trkpt lat="46.5549004" lon="12.6070024"><ele>1535.0</ele><time>2026-04-26T16:16:33.298Z</time></trkpt><trkpt lat="46.5547916" lon="12.6070453"><ele>1535.0</ele><time>2026-04-26T16:16:35.299Z</time></trkpt><trkpt lat="46.5547345" lon="12.6070861"><ele>1535.0</ele><time>2026-04-26T16:16:36.312Z</time></trkpt><trkpt lat="46.5546726" lon="12.6071342"><ele>1535.0</ele><time>2026-04-26T16:16:37.301Z</time></trkpt><trkpt lat="46.5546129" lon="12.607193"><ele>1535.0</ele><time>2026-04-26T16:16:38.3Z</time></trkpt><trkpt lat="46.5545591" lon="12.6072417"><ele>1535.0</ele><time>2026-04-26T16:16:39.296Z</time></trkpt><trkpt lat="46.5545009" lon="12.6072879"><ele>1535.0</ele><time>2026-04-26T16:16:40.297Z</time></trkpt><trkpt lat="46.5543926" lon="12.607326"><ele>1535.0</ele><time>2026-04-26T16:16:42.303Z</time></trkpt><trkpt lat="46.5542843" lon="12.6073083"><ele>1532.6666666666667</ele><time>2026-04-26T16:16:44.302Z</time></trkpt><trkpt lat="46.5541728" lon="12.6072321"><ele>1530.3333333333335</ele><time>2026-04-26T16:16:46.297Z</time></trkpt><trkpt lat="46.5541157" lon="12.6071756"><ele>1528.0</ele><time>2026-04-26T16:16:47.307Z</time></trkpt><trkpt lat="46.5540659" lon="12.6071041"><ele>1525.6666666666667</ele><time>2026-04-26T16:16:48.296Z</time></trkpt><trkpt lat="46.5540149" lon="12.6070334"><ele>1523.3333333333333</ele><time>2026-04-26T16:16:49.303Z</time></trkpt><trkpt lat="46.5539677" lon="12.6069616"><ele>1521.0</ele><time>2026-04-26T16:16:50.299Z</time></trkpt><trkpt lat="46.553921" lon="12.606895"><ele>1516.8</ele><time>2026-04-26T16:16:51.299Z</time></trkpt><trkpt lat="46.5538336" lon="12.6067865"><ele>1512.6</ele><time>2026-04-26T16:16:53.3Z</time></trkpt><trkpt lat="46.5537348" lon="12.6067522"><ele>1508.4</ele><time>2026-04-26T16:16:55.302Z</time></trkpt><trkpt lat="46.5536112" lon="12.6067916"><ele>1504.2</ele><time>2026-04-26T16:16:57.296Z</time></trkpt><trkpt lat="46.5535344" lon="12.6068332"><ele>1500.0</ele><time>2026-04-26T16:16:58.295Z</time></trkpt><trkpt lat="46.5534522" lon="12.6068864"><ele>1498.8333333333333</ele><time>2026-04-26T16:16:59.303Z</time></trkpt><trkpt lat="46.5533855" lon="12.6069551"><ele>1497.6666666666667</ele><time>2026-04-26T16:17:00.3Z</time></trkpt><trkpt lat="46.5533322" lon="12.6070313"><ele>1496.5</ele><time>2026-04-26T16:17:01.302Z</time></trkpt><trkpt lat="46.5532944" lon="12.6071314"><ele>1495.3333333333335</ele><time>2026-04-26T16:17:02.296Z</time></trkpt><trkpt lat="46.5532659" lon="12.6072604"><ele>1494.1666666666667</ele><time>2026-04-26T16:17:03.294Z</time></trkpt><trkpt lat="46.5532418" lon="12.6074022"><ele>1493.0</ele><time>2026-04-26T16:17:04.3Z</time></trkpt><trkpt lat="46.5532153" lon="12.6075423"><ele>1495.8000000000002</ele><time>2026-04-26T16:17:05.306Z</time></trkpt><trkpt lat="46.5531897" lon="12.6076936"><ele>1498.6</ele><time>2026-04-26T16:17:06.303Z</time></trkpt><trkpt lat="46.553168" lon="12.6078524"><ele>1501.4</ele><time>2026-04-26T16:17:07.305Z</time></trkpt><trkpt lat="46.5531522" lon="12.6080079"><ele>1504.1999999999998</ele><time>2026-04-26T16:17:08.302Z</time></trkpt><trkpt lat="46.5531325" lon="12.6081578"><ele>1507.0</ele><time>2026-04-26T16:17:09.308Z</time></trkpt><trkpt lat="46.5531149" lon="12.6083142"><ele>1508.8333333333333</ele><time>2026-04-26T16:17:10.3Z</time></trkpt><trkpt lat="46.5530959" lon="12.608454"><ele>1510.6666666666665</ele><time>2026-04-26T16:17:11.305Z</time></trkpt><trkpt lat="46.5530792" lon="12.6085804"><ele>1512.5</ele><time>2026-04-26T16:17:12.295Z</time></trkpt><trkpt lat="46.553052" lon="12.6086887"><ele>1514.3333333333333</ele><time>2026-04-26T16:17:13.298Z</time></trkpt><trkpt lat="46.5530173" lon="12.6087917"><ele>1516.1666666666667</ele><time>2026-04-26T16:17:14.302Z</time></trkpt><trkpt lat="46.5529823" lon="12.6088834"><ele>1518.0</ele><time>2026-04-26T16:17:15.302Z</time></trkpt><trkpt lat="46.5529367" lon="12.6090352"><ele>1518.0</ele><time>2026-04-26T16:17:17.296Z</time></trkpt><trkpt lat="46.5529041" lon="12.6091214"><ele>1518.0</ele><time>2026-04-26T16:17:19.3Z</time></trkpt><trkpt lat="46.5528323" lon="12.6090906"><ele>1518.0</ele><time>2026-04-26T16:17:22.302Z</time></trkpt><trkpt lat="46.5528118" lon="12.6089867"><ele>1518.0</ele><time>2026-04-26T16:17:24.295Z</time></trkpt><trkpt lat="46.5528388" lon="12.6088186"><ele>1518.0</ele><time>2026-04-26T16:17:26.296Z</time></trkpt><trkpt lat="46.5528727" lon="12.6086462"><ele>1518.0</ele><time>2026-04-26T16:17:28.305Z</time></trkpt><trkpt lat="46.5528883" lon="12.6085519"><ele>1518.0</ele><time>2026-04-26T16:17:29.296Z</time></trkpt><trkpt lat="46.5529142" lon="12.6083761"><ele>1518.0</ele><time>2026-04-26T16:17:31.298Z</time></trkpt><trkpt lat="46.5529082" lon="12.6082012"><ele>1518.0</ele><time>2026-04-26T16:17:33.293Z</time></trkpt><trkpt lat="46.5529074" lon="12.6081093"><ele>1518.0</ele><time>2026-04-26T16:17:34.303Z</time></trkpt><trkpt lat="46.5529051" lon="12.6080156"><ele>1518.0</ele><time>2026-04-26T16:17:35.296Z</time></trkpt><trkpt lat="46.5529054" lon="12.6079238"><ele>1516.1666666666667</ele><time>2026-04-26T16:17:36.297Z</time></trkpt><trkpt lat="46.5529002" lon="12.6077525"><ele>1514.3333333333333</ele><time>2026-04-26T16:17:38.296Z</time></trkpt><trkpt lat="46.5528997" lon="12.6075762"><ele>1512.5</ele><time>2026-04-26T16:17:40.303Z</time></trkpt><trkpt lat="46.5529111" lon="12.6074844"><ele>1510.6666666666665</ele><time>2026-04-26T16:17:41.299Z</time></trkpt><trkpt lat="46.5529285" lon="12.6073946"><ele>1508.8333333333333</ele><time>2026-04-26T16:17:42.298Z</time></trkpt><trkpt lat="46.5529428" lon="12.6073034"><ele>1507.0</ele><time>2026-04-26T16:17:43.301Z</time></trkpt><trkpt lat="46.5529583" lon="12.607214"><ele>1507.0</ele><time>2026-04-26T16:17:44.304Z</time></trkpt><trkpt lat="46.5529538" lon="12.6070438"><ele>1507.0</ele><time>2026-04-26T16:17:46.299Z</time></trkpt><trkpt lat="46.5529425" lon="12.6069448"><ele>1507.0</ele><time>2026-04-26T16:17:47.303Z</time></trkpt><trkpt lat="46.5529328" lon="12.6068417"><ele>1507.0</ele><time>2026-04-26T16:17:48.3Z</time></trkpt><trkpt lat="46.5529384" lon="12.6067333"><ele>1507.0</ele><time>2026-04-26T16:17:49.304Z</time></trkpt><trkpt lat="46.5529396" lon="12.6066324"><ele>1507.0</ele><time>2026-04-26T16:17:50.296Z</time></trkpt><trkpt lat="46.5529462" lon="12.6065188"><ele>1504.6666666666665</ele><time>2026-04-26T16:17:51.301Z</time></trkpt><trkpt lat="46.5529465" lon="12.6064006"><ele>1502.3333333333333</ele><time>2026-04-26T16:17:52.298Z</time></trkpt><trkpt lat="46.5529489" lon="12.6062841"><ele>1500.0</ele><time>2026-04-26T16:17:53.304Z</time></trkpt><trkpt lat="46.5529523" lon="12.6061905"><ele>1497.6666666666667</ele><time>2026-04-26T16:17:54.302Z</time></trkpt><trkpt lat="46.5529526" lon="12.6060083"><ele>1495.3333333333335</ele><time>2026-04-26T16:17:56.295Z</time></trkpt><trkpt lat="46.5529434" lon="12.6059106"><ele>1493.0</ele><time>2026-04-26T16:17:57.304Z</time></trkpt><trkpt lat="46.5529357" lon="12.6058077"><ele>1491.0</ele><time>2026-04-26T16:17:58.306Z</time></trkpt><trkpt lat="46.5529263" lon="12.6057027"><ele>1489.0</ele><time>2026-04-26T16:17:59.297Z</time></trkpt><trkpt lat="46.5529196" lon="12.6056069"><ele>1487.0</ele><time>2026-04-26T16:18:00.295Z</time></trkpt><trkpt lat="46.5529306" lon="12.605502"><ele>1485.0</ele><time>2026-04-26T16:18:01.298Z</time></trkpt><trkpt lat="46.552955" lon="12.6053999"><ele>1483.0</ele><time>2026-04-26T16:18:02.299Z</time></trkpt><trkpt lat="46.5529848" lon="12.6053035"><ele>1481.0</ele><time>2026-04-26T16:18:03.297Z</time></trkpt><trkpt lat="46.5530209" lon="12.6052139"><ele>1479.0</ele><time>2026-04-26T16:18:04.31Z</time></trkpt><trkpt lat="46.5530692" lon="12.6051315"><ele>1476.142857142857</ele><time>2026-04-26T16:18:05.306Z</time></trkpt><trkpt lat="46.5531125" lon="12.6050469"><ele>1473.2857142857142</ele><time>2026-04-26T16:18:06.305Z</time></trkpt><trkpt lat="46.5531618" lon="12.6049738"><ele>1470.4285714285713</ele><time>2026-04-26T16:18:07.297Z</time></trkpt><trkpt lat="46.5532071" lon="12.6048995"><ele>1467.5714285714284</ele><time>2026-04-26T16:18:08.303Z</time></trkpt><trkpt lat="46.5532609" lon="12.6048322"><ele>1464.7142857142858</ele><time>2026-04-26T16:18:09.3Z</time></trkpt><trkpt lat="46.5533161" lon="12.604767"><ele>1461.8571428571427</ele><time>2026-04-26T16:18:10.304Z</time></trkpt><trkpt lat="46.5533622" lon="12.6047009"><ele>1459.0</ele><time>2026-04-26T16:18:11.307Z</time></trkpt><trkpt lat="46.5534401" lon="12.6046005"><ele>1455.6</ele><time>2026-04-26T16:18:13.299Z</time></trkpt><trkpt lat="46.5534812" lon="12.6044819"><ele>1452.2</ele><time>2026-04-26T16:18:15.298Z</time></trkpt><trkpt lat="46.5534946" lon="12.6043223"><ele>1448.8</ele><time>2026-04-26T16:18:17.303Z</time></trkpt><trkpt lat="46.5534571" lon="12.6041849"><ele>1445.3999999999999</ele><time>2026-04-26T16:18:19.305Z</time></trkpt><trkpt lat="46.5533892" lon="12.6040408"><ele>1442.0</ele><time>2026-04-26T16:18:21.301Z</time></trkpt><trkpt lat="46.5532954" lon="12.6039235"><ele>1442.0</ele><time>2026-04-26T16:18:23.306Z</time></trkpt><trkpt lat="46.5531965" lon="12.6038826"><ele>1442.0</ele><time>2026-04-26T16:18:25.309Z</time></trkpt><trkpt lat="46.5530892" lon="12.6039051"><ele>1442.0</ele><time>2026-04-26T16:18:27.303Z</time></trkpt><trkpt lat="46.5529775" lon="12.6039657"><ele>1442.0</ele><time>2026-04-26T16:18:29.3Z</time></trkpt><trkpt lat="46.5528785" lon="12.6040429"><ele>1442.0</ele><time>2026-04-26T16:18:31.3Z</time></trkpt><trkpt lat="46.5528318" lon="12.6041077"><ele>1440.3333333333335</ele><time>2026-04-26T16:18:32.298Z</time></trkpt><trkpt lat="46.5527443" lon="12.6042249"><ele>1438.6666666666667</ele><time>2026-04-26T16:18:34.302Z</time></trkpt><trkpt lat="46.5526999" lon="12.6042965"><ele>1437.0</ele><time>2026-04-26T16:18:35.305Z</time></trkpt><trkpt lat="46.5526566" lon="12.6043704"><ele>1435.3333333333333</ele><time>2026-04-26T16:18:36.3Z</time></trkpt><trkpt lat="46.5526114" lon="12.6044586"><ele>1433.6666666666665</ele><time>2026-04-26T16:18:37.294Z</time></trkpt><trkpt lat="46.5525669" lon="12.6045373"><ele>1432.0</ele><time>2026-04-26T16:18:38.302Z</time></trkpt><trkpt lat="46.5524867" lon="12.6046955"><ele>1432.0</ele><time>2026-04-26T16:18:40.292Z</time></trkpt><trkpt lat="46.5524109" lon="12.604835"><ele>1432.0</ele><time>2026-04-26T16:18:42.303Z</time></trkpt><trkpt lat="46.5523618" lon="12.6048927"><ele>1432.0</ele><time>2026-04-26T16:18:43.29Z</time></trkpt><trkpt lat="46.5523044" lon="12.6049372"><ele>1432.0</ele><time>2026-04-26T16:18:44.31Z</time></trkpt><trkpt lat="46.5522299" lon="12.6049842"><ele>1432.0</ele><time>2026-04-26T16:18:45.298Z</time></trkpt><trkpt lat="46.5521513" lon="12.6050299"><ele>1432.0</ele><time>2026-04-26T16:18:46.301Z</time></trkpt><trkpt lat="46.552076" lon="12.6050667"><ele>1427.8333333333333</ele><time>2026-04-26T16:18:47.301Z</time></trkpt><trkpt lat="46.5520036" lon="12.6051089"><ele>1423.6666666666665</ele><time>2026-04-26T16:18:48.303Z</time></trkpt><trkpt lat="46.5519322" lon="12.6051712"><ele>1419.5</ele><time>2026-04-26T16:18:49.311Z</time></trkpt><trkpt lat="46.5518692" lon="12.6052353"><ele>1415.3333333333333</ele><time>2026-04-26T16:18:50.304Z</time></trkpt><trkpt lat="46.5518205" lon="12.6052972"><ele>1411.1666666666667</ele><time>2026-04-26T16:18:51.301Z</time></trkpt><trkpt lat="46.5517388" lon="12.6054234"><ele>1407.0</ele><time>2026-04-26T16:18:53.294Z</time></trkpt><trkpt lat="46.5516959" lon="12.6054962"><ele>1407.0</ele><time>2026-04-26T16:18:54.304Z</time></trkpt><trkpt lat="46.5516525" lon="12.6055757"><ele>1407.0</ele><time>2026-04-26T16:18:55.299Z</time></trkpt><trkpt lat="46.5515985" lon="12.6057407"><ele>1407.0</ele><time>2026-04-26T16:18:57.293Z</time></trkpt><trkpt lat="46.5515632" lon="12.6058224"><ele>1407.0</ele><time>2026-04-26T16:18:58.294Z</time></trkpt><trkpt lat="46.5515246" lon="12.6058984"><ele>1407.0</ele><time>2026-04-26T16:18:59.302Z</time></trkpt><trkpt lat="46.551477" lon="12.6059675"><ele>1407.0</ele><time>2026-04-26T16:19:00.305Z</time></trkpt><trkpt lat="46.5514279" lon="12.6060474"><ele>1407.0</ele><time>2026-04-26T16:19:01.298Z</time></trkpt><trkpt lat="46.5513775" lon="12.6061121"><ele>1407.0</ele><time>2026-04-26T16:19:02.304Z</time></trkpt><trkpt lat="46.5512988" lon="12.6062339"><ele>1407.0</ele><time>2026-04-26T16:19:04.298Z</time></trkpt><trkpt lat="46.5512162" lon="12.6062968"><ele>1407.0</ele><time>2026-04-26T16:19:06.306Z</time></trkpt><trkpt lat="46.5511739" lon="12.6062208"><ele>1407.0</ele><time>2026-04-26T16:19:09.305Z</time></trkpt><trkpt lat="46.5511958" lon="12.6061129"><ele>1407.0</ele><time>2026-04-26T16:19:11.305Z</time></trkpt><trkpt lat="46.5512517" lon="12.6059776"><ele>1407.0</ele><time>2026-04-26T16:19:13.301Z</time></trkpt><trkpt lat="46.5512928" lon="12.6058377"><ele>1407.0</ele><time>2026-04-26T16:19:15.301Z</time></trkpt><trkpt lat="46.551289" lon="12.6056697"><ele>1407.0</ele><time>2026-04-26T16:19:17.298Z</time></trkpt><trkpt lat="46.5512865" lon="12.6055694"><ele>1407.0</ele><time>2026-04-26T16:19:18.303Z</time></trkpt><trkpt lat="46.5512921" lon="12.6054745"><ele>1407.0</ele><time>2026-04-26T16:19:19.303Z</time></trkpt><trkpt lat="46.5512998" lon="12.6053614"><ele>1407.0</ele><time>2026-04-26T16:19:20.304Z</time></trkpt><trkpt lat="46.551317" lon="12.6052531"><ele>1405.0</ele><time>2026-04-26T16:19:21.302Z</time></trkpt><trkpt lat="46.5513441" lon="12.6051351"><ele>1403.0</ele><time>2026-04-26T16:19:22.306Z</time></trkpt><trkpt lat="46.5513709" lon="12.6050179"><ele>1401.0</ele><time>2026-04-26T16:19:23.295Z</time></trkpt><trkpt lat="46.5513962" lon="12.6048898"><ele>1399.0</ele><time>2026-04-26T16:19:24.299Z</time></trkpt><trkpt lat="46.5514208" lon="12.604771"><ele>1397.0</ele><time>2026-04-26T16:19:25.3Z</time></trkpt><trkpt lat="46.5514514" lon="12.6046632"><ele>1395.0</ele><time>2026-04-26T16:19:26.299Z</time></trkpt><trkpt lat="46.5514681" lon="12.6045503"><ele>1392.6666666666667</ele><time>2026-04-26T16:19:27.303Z</time></trkpt><trkpt lat="46.5514828" lon="12.6044268"><ele>1390.3333333333333</ele><time>2026-04-26T16:19:28.307Z</time></trkpt><trkpt lat="46.5514986" lon="12.6043056"><ele>1388.0</ele><time>2026-04-26T16:19:29.296Z</time></trkpt><trkpt lat="46.5515093" lon="12.6041808"><ele>1385.6666666666665</ele><time>2026-04-26T16:19:30.307Z</time></trkpt><trkpt lat="46.5515204" lon="12.6040623"><ele>1383.3333333333333</ele><time>2026-04-26T16:19:31.307Z</time></trkpt><trkpt lat="46.5515344" lon="12.6039266"><ele>1381.0</ele><time>2026-04-26T16:19:32.302Z</time></trkpt><trkpt lat="46.5515485" lon="12.6037922"><ele>1381.0</ele><time>2026-04-26T16:19:33.3Z</time></trkpt><trkpt lat="46.5515698" lon="12.6036671"><ele>1381.0</ele><time>2026-04-26T16:19:34.304Z</time></trkpt><trkpt lat="46.5516005" lon="12.6035495"><ele>1381.0</ele><time>2026-04-26T16:19:35.297Z</time></trkpt><trkpt lat="46.5516303" lon="12.6034258"><ele>1381.0</ele><time>2026-04-26T16:19:36.296Z</time></trkpt><trkpt lat="46.5516437" lon="12.6033011"><ele>1381.0</ele><time>2026-04-26T16:19:37.296Z</time></trkpt><trkpt lat="46.5516492" lon="12.6031764"><ele>1381.0</ele><time>2026-04-26T16:19:38.297Z</time></trkpt><trkpt lat="46.5516433" lon="12.6030529"><ele>1378.3333333333333</ele><time>2026-04-26T16:19:39.3Z</time></trkpt><trkpt lat="46.5516321" lon="12.6029329"><ele>1375.6666666666665</ele><time>2026-04-26T16:19:40.299Z</time></trkpt><trkpt lat="46.5516267" lon="12.6028178"><ele>1373.0</ele><time>2026-04-26T16:19:41.297Z</time></trkpt><trkpt lat="46.5516253" lon="12.602706"><ele>1370.3333333333333</ele><time>2026-04-26T16:19:42.297Z</time></trkpt><trkpt lat="46.551622" lon="12.6025978"><ele>1367.6666666666667</ele><time>2026-04-26T16:19:43.308Z</time></trkpt><trkpt lat="46.5516225" lon="12.6024985"><ele>1365.0</ele><time>2026-04-26T16:19:44.298Z</time></trkpt><trkpt lat="46.5516208" lon="12.6023981"><ele>1362.6666666666667</ele><time>2026-04-26T16:19:45.299Z</time></trkpt><trkpt lat="46.5516215" lon="12.6022998"><ele>1360.3333333333333</ele><time>2026-04-26T16:19:46.298Z</time></trkpt><trkpt lat="46.5516337" lon="12.6021988"><ele>1358.0</ele><time>2026-04-26T16:19:47.3Z</time></trkpt><trkpt lat="46.5516504" lon="12.602106"><ele>1355.6666666666665</ele><time>2026-04-26T16:19:48.302Z</time></trkpt><trkpt lat="46.5516822" lon="12.601997"><ele>1353.3333333333333</ele><time>2026-04-26T16:19:49.302Z</time></trkpt><trkpt lat="46.5517123" lon="12.6018841"><ele>1351.0</ele><time>2026-04-26T16:19:50.303Z</time></trkpt><trkpt lat="46.5517433" lon="12.6017612"><ele>1348.3333333333333</ele><time>2026-04-26T16:19:51.306Z</time></trkpt><trkpt lat="46.5517802" lon="12.6016415"><ele>1345.6666666666665</ele><time>2026-04-26T16:19:52.312Z</time></trkpt><trkpt lat="46.5518192" lon="12.6015254"><ele>1343.0</ele><time>2026-04-26T16:19:53.3Z</time></trkpt><trkpt lat="46.5518683" lon="12.6014134"><ele>1340.3333333333333</ele><time>2026-04-26T16:19:54.298Z</time></trkpt><trkpt lat="46.5519152" lon="12.6013031"><ele>1337.6666666666667</ele><time>2026-04-26T16:19:55.294Z</time></trkpt><trkpt lat="46.551961" lon="12.6011999"><ele>1335.0</ele><time>2026-04-26T16:19:56.298Z</time></trkpt><trkpt lat="46.5520047" lon="12.6010889"><ele>1335.5</ele><time>2026-04-26T16:19:57.299Z</time></trkpt><trkpt lat="46.552045" lon="12.6009825"><ele>1336.0</ele><time>2026-04-26T16:19:58.297Z</time></trkpt><trkpt lat="46.5520806" lon="12.6008674"><ele>1336.5</ele><time>2026-04-26T16:19:59.294Z</time></trkpt><trkpt lat="46.5521288" lon="12.6007543"><ele>1337.0</ele><time>2026-04-26T16:20:00.299Z</time></trkpt><trkpt lat="46.5521704" lon="12.6006433"><ele>1337.5</ele><time>2026-04-26T16:20:01.308Z</time></trkpt><trkpt lat="46.5522133" lon="12.6005537"><ele>1338.0</ele><time>2026-04-26T16:20:02.303Z</time></trkpt><trkpt lat="46.5522572" lon="12.6004835"><ele>1338.0</ele><time>2026-04-26T16:20:03.298Z</time></trkpt><trkpt lat="46.552351" lon="12.6003875"><ele>1338.0</ele><time>2026-04-26T16:20:05.295Z</time></trkpt><trkpt lat="46.5523842" lon="12.6002781"><ele>1338.0</ele><time>2026-04-26T16:20:08.293Z</time></trkpt><trkpt lat="46.5523221" lon="12.6002016"><ele>1338.0</ele><time>2026-04-26T16:20:11.304Z</time></trkpt><trkpt lat="46.5522444" lon="12.6002035"><ele>1338.0</ele><time>2026-04-26T16:20:13.292Z</time></trkpt><trkpt lat="46.5521833" lon="12.6002337"><ele>1338.0</ele><time>2026-04-26T16:20:15.299Z</time></trkpt><trkpt lat="46.5520961" lon="12.6002718"><ele>1333.2</ele><time>2026-04-26T16:20:17.299Z</time></trkpt><trkpt lat="46.5520369" lon="12.6003091"><ele>1328.4</ele><time>2026-04-26T16:20:18.3Z</time></trkpt><trkpt lat="46.5519209" lon="12.600374"><ele>1323.6000000000001</ele><time>2026-04-26T16:20:20.303Z</time></trkpt><trkpt lat="46.5518114" lon="12.6004394"><ele>1318.8000000000002</ele><time>2026-04-26T16:20:22.298Z</time></trkpt><trkpt lat="46.5517529" lon="12.600474"><ele>1314.0</ele><time>2026-04-26T16:20:23.299Z</time></trkpt><trkpt lat="46.5516322" lon="12.6005497"><ele>1314.0</ele><time>2026-04-26T16:20:25.314Z</time></trkpt><trkpt lat="46.5515671" lon="12.6005893"><ele>1314.0</ele><time>2026-04-26T16:20:26.301Z</time></trkpt><trkpt lat="46.5515038" lon="12.6006327"><ele>1314.0</ele><time>2026-04-26T16:20:27.3Z</time></trkpt><trkpt lat="46.5514363" lon="12.6006771"><ele>1314.0</ele><time>2026-04-26T16:20:28.302Z</time></trkpt><trkpt lat="46.5513774" lon="12.6007303"><ele>1314.0</ele><time>2026-04-26T16:20:29.297Z</time></trkpt><trkpt lat="46.551313" lon="12.6007641"><ele>1314.0</ele><time>2026-04-26T16:20:30.306Z</time></trkpt><trkpt lat="46.5512002" lon="12.6008231"><ele>1309.3333333333333</ele><time>2026-04-26T16:20:32.295Z</time></trkpt><trkpt lat="46.5511419" lon="12.6008725"><ele>1304.6666666666667</ele><time>2026-04-26T16:20:33.307Z</time></trkpt><trkpt lat="46.5510817" lon="12.6009335"><ele>1300.0</ele><time>2026-04-26T16:20:34.299Z</time></trkpt><trkpt lat="46.550993" lon="12.6010212"><ele>1295.3333333333335</ele><time>2026-04-26T16:20:36.294Z</time></trkpt><trkpt lat="46.5509284" lon="12.6010455"><ele>1290.6666666666667</ele><time>2026-04-26T16:20:38.297Z</time></trkpt><trkpt lat="46.5509352" lon="12.6009413"><ele>1286.0</ele><time>2026-04-26T16:20:43.297Z</time></trkpt><trkpt lat="46.5509766" lon="12.6008693"><ele>1286.0</ele><time>2026-04-26T16:20:45.3Z</time></trkpt><trkpt lat="46.5510168" lon="12.6007784"><ele>1286.0</ele><time>2026-04-26T16:20:48.297Z</time></trkpt><trkpt lat="46.5510178" lon="12.6006826"><ele>1286.0</ele><time>2026-04-26T16:20:50.299Z</time></trkpt><trkpt lat="46.5509342" lon="12.6007116"><ele>1286.0</ele><time>2026-04-26T16:20:57.304Z</time></trkpt><trkpt lat="46.5508748" lon="12.600796"><ele>1286.0</ele><time>2026-04-26T16:20:59.305Z</time></trkpt><trkpt lat="46.5508085" lon="12.6008978"><ele>1286.0</ele><time>2026-04-26T16:21:01.298Z</time></trkpt><trkpt lat="46.5507273" lon="12.6010017"><ele>1286.0</ele><time>2026-04-26T16:21:03.296Z</time></trkpt><trkpt lat="46.5506512" lon="12.6011272"><ele>1286.0</ele><time>2026-04-26T16:21:05.297Z</time></trkpt><trkpt lat="46.5506012" lon="12.6012079"><ele>1286.0</ele><time>2026-04-26T16:21:06.3Z</time></trkpt><trkpt lat="46.5505535" lon="12.6012825"><ele>1286.0</ele><time>2026-04-26T16:21:07.298Z</time></trkpt><trkpt lat="46.5505093" lon="12.6013494"><ele>1286.0</ele><time>2026-04-26T16:21:08.297Z</time></trkpt><trkpt lat="46.5504474" lon="12.6014928"><ele>1286.0</ele><time>2026-04-26T16:21:10.301Z</time></trkpt><trkpt lat="46.5504285" lon="12.6015898"><ele>1285.0</ele><time>2026-04-26T16:21:11.294Z</time></trkpt><trkpt lat="46.5504256" lon="12.6016942"><ele>1284.0</ele><time>2026-04-26T16:21:12.304Z</time></trkpt><trkpt lat="46.5504203" lon="12.6017896"><ele>1283.0</ele><time>2026-04-26T16:21:13.301Z</time></trkpt><trkpt lat="46.550399" lon="12.6019273"><ele>1282.0</ele><time>2026-04-26T16:21:15.3Z</time></trkpt><trkpt lat="46.5503376" lon="12.6020108"><ele>1281.0</ele><time>2026-04-26T16:21:17.29Z</time></trkpt><trkpt lat="46.5502285" lon="12.6019624"><ele>1280.0</ele><time>2026-04-26T16:21:19.295Z</time></trkpt><trkpt lat="46.5501568" lon="12.6019302"><ele>1280.0</ele><time>2026-04-26T16:21:20.3Z</time></trkpt><trkpt lat="46.5500902" lon="12.6018851"><ele>1280.0</ele><time>2026-04-26T16:21:21.3Z</time></trkpt><trkpt lat="46.5500206" lon="12.6018234"><ele>1280.0</ele><time>2026-04-26T16:21:22.305Z</time></trkpt><trkpt lat="46.5499541" lon="12.6017654"><ele>1280.0</ele><time>2026-04-26T16:21:23.299Z</time></trkpt><trkpt lat="46.5498998" lon="12.6017044"><ele>1280.0</ele><time>2026-04-26T16:21:24.303Z</time></trkpt><trkpt lat="46.5498408" lon="12.6016471"><ele>1280.0</ele><time>2026-04-26T16:21:25.302Z</time></trkpt><trkpt lat="46.5497845" lon="12.6016018"><ele>1280.0</ele><time>2026-04-26T16:21:26.305Z</time></trkpt><trkpt lat="46.5497209" lon="12.6015558"><ele>1280.0</ele><time>2026-04-26T16:21:27.299Z</time></trkpt><trkpt lat="46.5496676" lon="12.6015009"><ele>1280.0</ele><time>2026-04-26T16:21:28.301Z</time></trkpt><trkpt lat="46.5496142" lon="12.6014359"><ele>1280.0</ele><time>2026-04-26T16:21:29.301Z</time></trkpt><trkpt lat="46.5495585" lon="12.601367"><ele>1280.0</ele><time>2026-04-26T16:21:30.3Z</time></trkpt><trkpt lat="46.5495028" lon="12.6012945"><ele>1280.0</ele><time>2026-04-26T16:21:31.296Z</time></trkpt><trkpt lat="46.5494501" lon="12.6012226"><ele>1280.0</ele><time>2026-04-26T16:21:32.301Z</time></trkpt><trkpt lat="46.5493965" lon="12.6011396"><ele>1280.0</ele><time>2026-04-26T16:21:33.296Z</time></trkpt><trkpt lat="46.5493417" lon="12.6010739"><ele>1278.7142857142858</ele><time>2026-04-26T16:21:34.298Z</time></trkpt><trkpt lat="46.5492922" lon="12.6009967"><ele>1277.4285714285716</ele><time>2026-04-26T16:21:35.294Z</time></trkpt><trkpt lat="46.5492464" lon="12.6009154"><ele>1276.1428571428573</ele><time>2026-04-26T16:21:36.305Z</time></trkpt><trkpt lat="46.5492045" lon="12.6008293"><ele>1274.857142857143</ele><time>2026-04-26T16:21:37.304Z</time></trkpt><trkpt lat="46.5491609" lon="12.6007428"><ele>1273.5714285714287</ele><time>2026-04-26T16:21:38.304Z</time></trkpt><trkpt lat="46.5491099" lon="12.60066"><ele>1272.2857142857144</ele><time>2026-04-26T16:21:39.3Z</time></trkpt><trkpt lat="46.549064" lon="12.6005818"><ele>1271.0</ele><time>2026-04-26T16:21:40.293Z</time></trkpt><trkpt lat="46.5489901" lon="12.6004759"><ele>1271.0</ele><time>2026-04-26T16:21:42.302Z</time></trkpt><trkpt lat="46.5489201" lon="12.6003957"><ele>1271.0</ele><time>2026-04-26T16:21:44.306Z</time></trkpt><trkpt lat="46.5488313" lon="12.6003541"><ele>1271.0</ele><time>2026-04-26T16:21:46.297Z</time></trkpt><trkpt lat="46.5487336" lon="12.600383"><ele>1271.0</ele><time>2026-04-26T16:21:48.295Z</time></trkpt><trkpt lat="46.5486257" lon="12.6004607"><ele>1271.0</ele><time>2026-04-26T16:21:50.303Z</time></trkpt><trkpt lat="46.5485103" lon="12.6005139"><ele>1270.6</ele><time>2026-04-26T16:21:52.297Z</time></trkpt><trkpt lat="46.5484159" lon="12.600542"><ele>1270.1999999999998</ele><time>2026-04-26T16:21:54.3Z</time></trkpt><trkpt lat="46.5483217" lon="12.6005093"><ele>1269.8000000000002</ele><time>2026-04-26T16:21:56.3Z</time></trkpt><trkpt lat="46.5482123" lon="12.6004365"><ele>1269.4</ele><time>2026-04-26T16:21:58.295Z</time></trkpt><trkpt lat="46.5481063" lon="12.6003519"><ele>1269.0</ele><time>2026-04-26T16:22:00.293Z</time></trkpt><trkpt lat="46.548013" lon="12.6002658"><ele>1264.6666666666667</ele><time>2026-04-26T16:22:02.308Z</time></trkpt><trkpt lat="46.5479222" lon="12.6001934"><ele>1260.3333333333333</ele><time>2026-04-26T16:22:04.301Z</time></trkpt><trkpt lat="46.5478493" lon="12.600131"><ele>1256.0</ele><time>2026-04-26T16:22:06.292Z</time></trkpt><trkpt lat="46.5477715" lon="12.6000354"><ele>1251.6666666666665</ele><time>2026-04-26T16:22:08.294Z</time></trkpt><trkpt lat="46.547716" lon="12.5999678"><ele>1247.3333333333333</ele><time>2026-04-26T16:22:09.302Z</time></trkpt><trkpt lat="46.5476616" lon="12.5999035"><ele>1243.0</ele><time>2026-04-26T16:22:10.297Z</time></trkpt><trkpt lat="46.5475608" lon="12.5998258"><ele>1242.3333333333333</ele><time>2026-04-26T16:22:12.296Z</time></trkpt><trkpt lat="46.5474954" lon="12.5998136"><ele>1241.6666666666665</ele><time>2026-04-26T16:22:13.293Z</time></trkpt><trkpt lat="46.5474306" lon="12.5997998"><ele>1241.0</ele><time>2026-04-26T16:22:14.297Z</time></trkpt><trkpt lat="46.5473645" lon="12.5997758"><ele>1240.3333333333333</ele><time>2026-04-26T16:22:15.306Z</time></trkpt><trkpt lat="46.5472997" lon="12.5997551"><ele>1239.6666666666667</ele><time>2026-04-26T16:22:16.302Z</time></trkpt><trkpt lat="46.5472369" lon="12.59972"><ele>1239.0</ele><time>2026-04-26T16:22:17.304Z</time></trkpt><trkpt lat="46.5471324" lon="12.5996177"><ele>1239.0</ele><time>2026-04-26T16:22:19.3Z</time></trkpt><trkpt lat="46.5470797" lon="12.599548"><ele>1239.0</ele><time>2026-04-26T16:22:20.306Z</time></trkpt><trkpt lat="46.5470356" lon="12.5994813"><ele>1239.0</ele><time>2026-04-26T16:22:21.299Z</time></trkpt><trkpt lat="46.5469337" lon="12.5994276"><ele>1239.0</ele><time>2026-04-26T16:22:23.298Z</time></trkpt><trkpt lat="46.5468545" lon="12.5994187"><ele>1239.0</ele><time>2026-04-26T16:22:24.302Z</time></trkpt><trkpt lat="46.5467595" lon="12.599411"><ele>1239.0</ele><time>2026-04-26T16:22:25.299Z</time></trkpt><trkpt lat="46.5466712" lon="12.5994151"><ele>1234.1666666666667</ele><time>2026-04-26T16:22:26.302Z</time></trkpt><trkpt lat="46.5465826" lon="12.5994363"><ele>1229.3333333333333</ele><time>2026-04-26T16:22:27.296Z</time></trkpt><trkpt lat="46.5464974" lon="12.5994515"><ele>1224.5</ele><time>2026-04-26T16:22:28.294Z</time></trkpt><trkpt lat="46.5464164" lon="12.5994653"><ele>1219.6666666666665</ele><time>2026-04-26T16:22:29.296Z</time></trkpt><trkpt lat="46.5463455" lon="12.5994769"><ele>1214.8333333333333</ele><time>2026-04-26T16:22:30.298Z</time></trkpt><trkpt lat="46.5462821" lon="12.5994761"><ele>1210.0</ele><time>2026-04-26T16:22:31.3Z</time></trkpt><trkpt lat="46.5461716" lon="12.5994217"><ele>1209.3333333333333</ele><time>2026-04-26T16:22:33.303Z</time></trkpt><trkpt lat="46.5461091" lon="12.599358"><ele>1208.6666666666665</ele><time>2026-04-26T16:22:34.303Z</time></trkpt><trkpt lat="46.5460529" lon="12.5993116"><ele>1208.0</ele><time>2026-04-26T16:22:35.294Z</time></trkpt><trkpt lat="46.5459392" lon="12.599251"><ele>1207.3333333333333</ele><time>2026-04-26T16:22:37.298Z</time></trkpt><trkpt lat="46.5458799" lon="12.5992189"><ele>1206.6666666666667</ele><time>2026-04-26T16:22:38.298Z</time></trkpt><trkpt lat="46.5457598" lon="12.5991946"><ele>1206.0</ele><time>2026-04-26T16:22:40.298Z</time></trkpt><trkpt lat="46.5456956" lon="12.5991866"><ele>1206.0</ele><time>2026-04-26T16:22:41.301Z</time></trkpt><trkpt lat="46.5456269" lon="12.599163"><ele>1206.0</ele><time>2026-04-26T16:22:42.292Z</time></trkpt><trkpt lat="46.5455577" lon="12.5991395"><ele>1206.0</ele><time>2026-04-26T16:22:43.297Z</time></trkpt><trkpt lat="46.545493" lon="12.5991143"><ele>1206.0</ele><time>2026-04-26T16:22:44.298Z</time></trkpt><trkpt lat="46.545425" lon="12.5991083"><ele>1206.0</ele><time>2026-04-26T16:22:45.297Z</time></trkpt><trkpt lat="46.5453617" lon="12.599091"><ele>1206.0</ele><time>2026-04-26T16:22:46.3Z</time></trkpt><trkpt lat="46.5453007" lon="12.5990608"><ele>1206.0</ele><time>2026-04-26T16:22:47.301Z</time></trkpt><trkpt lat="46.5452386" lon="12.5990182"><ele>1205.6666666666667</ele><time>2026-04-26T16:22:48.309Z</time></trkpt><trkpt lat="46.5451824" lon="12.5989651"><ele>1205.3333333333333</ele><time>2026-04-26T16:22:49.306Z</time></trkpt><trkpt lat="46.5451314" lon="12.5988865"><ele>1205.0</ele><time>2026-04-26T16:22:50.298Z</time></trkpt><trkpt lat="46.5450847" lon="12.5987983"><ele>1204.6666666666665</ele><time>2026-04-26T16:22:51.297Z</time></trkpt><trkpt lat="46.5450412" lon="12.5987309"><ele>1204.3333333333333</ele><time>2026-04-26T16:22:52.301Z</time></trkpt><trkpt lat="46.544927" lon="12.598641"><ele>1204.0</ele><time>2026-04-26T16:22:54.297Z</time></trkpt><trkpt lat="46.5448519" lon="12.5986161"><ele>1200.6666666666665</ele><time>2026-04-26T16:22:55.303Z</time></trkpt><trkpt lat="46.5447693" lon="12.5985909"><ele>1197.3333333333333</ele><time>2026-04-26T16:22:56.293Z</time></trkpt><trkpt lat="46.5446907" lon="12.5985631"><ele>1194.0</ele><time>2026-04-26T16:22:57.298Z</time></trkpt><trkpt lat="46.5446101" lon="12.5985356"><ele>1190.6666666666667</ele><time>2026-04-26T16:22:58.294Z</time></trkpt><trkpt lat="46.5445351" lon="12.5985022"><ele>1187.3333333333335</ele><time>2026-04-26T16:22:59.298Z</time></trkpt><trkpt lat="46.5444515" lon="12.5984695"><ele>1184.0</ele><time>2026-04-26T16:23:00.296Z</time></trkpt><trkpt lat="46.5443708" lon="12.5984305"><ele>1184.0</ele><time>2026-04-26T16:23:01.297Z</time></trkpt><trkpt lat="46.5442906" lon="12.5983899"><ele>1184.0</ele><time>2026-04-26T16:23:02.297Z</time></trkpt><trkpt lat="46.5442051" lon="12.5983506"><ele>1184.0</ele><time>2026-04-26T16:23:03.296Z</time></trkpt><trkpt lat="46.5441256" lon="12.5983022"><ele>1184.0</ele><time>2026-04-26T16:23:04.303Z</time></trkpt><trkpt lat="46.5440466" lon="12.5982633"><ele>1184.0</ele><time>2026-04-26T16:23:05.304Z</time></trkpt><trkpt lat="46.5439648" lon="12.5982165"><ele>1184.0</ele><time>2026-04-26T16:23:06.295Z</time></trkpt><trkpt lat="46.5438847" lon="12.5981597"><ele>1184.0</ele><time>2026-04-26T16:23:07.294Z</time></trkpt><trkpt lat="46.5438182" lon="12.5981032"><ele>1184.0</ele><time>2026-04-26T16:23:08.299Z</time></trkpt><trkpt lat="46.5437496" lon="12.598055"><ele>1184.0</ele><time>2026-04-26T16:23:09.3Z</time></trkpt><trkpt lat="46.5436657" lon="12.5980088"><ele>1184.0</ele><time>2026-04-26T16:23:10.295Z</time></trkpt><trkpt lat="46.5435839" lon="12.5979733"><ele>1184.0</ele><time>2026-04-26T16:23:11.305Z</time></trkpt><trkpt lat="46.5435095" lon="12.5979339"><ele>1184.0</ele><time>2026-04-26T16:23:12.302Z</time></trkpt><trkpt lat="46.5434258" lon="12.5978907"><ele>1185.0</ele><time>2026-04-26T16:23:13.301Z</time></trkpt><trkpt lat="46.5433476" lon="12.5978404"><ele>1186.0</ele><time>2026-04-26T16:23:14.295Z</time></trkpt><trkpt lat="46.5432747" lon="12.597799"><ele>1187.0</ele><time>2026-04-26T16:23:15.303Z</time></trkpt><trkpt lat="46.5432013" lon="12.5977477"><ele>1188.0</ele><time>2026-04-26T16:23:16.301Z</time></trkpt><trkpt lat="46.5431247" lon="12.5977156"><ele>1189.0</ele><time>2026-04-26T16:23:17.298Z</time></trkpt><trkpt lat="46.5430531" lon="12.597685"><ele>1190.0</ele><time>2026-04-26T16:23:18.297Z</time></trkpt><trkpt lat="46.5429782" lon="12.5976593"><ele>1185.0</ele><time>2026-04-26T16:23:19.301Z</time></trkpt><trkpt lat="46.5429159" lon="12.5976332"><ele>1180.0</ele><time>2026-04-26T16:23:20.298Z</time></trkpt><trkpt lat="46.542793" lon="12.5975898"><ele>1175.0</ele><time>2026-04-26T16:23:22.299Z</time></trkpt><trkpt lat="46.5427273" lon="12.5975626"><ele>1170.0</ele><time>2026-04-26T16:23:23.297Z</time></trkpt><trkpt lat="46.5426586" lon="12.5975412"><ele>1165.0</ele><time>2026-04-26T16:23:24.297Z</time></trkpt><trkpt lat="46.5425833" lon="12.5975174"><ele>1160.0</ele><time>2026-04-26T16:23:25.296Z</time></trkpt><trkpt lat="46.5425034" lon="12.5974849"><ele>1160.0</ele><time>2026-04-26T16:23:26.302Z</time></trkpt><trkpt lat="46.5424255" lon="12.5974577"><ele>1160.0</ele><time>2026-04-26T16:23:27.292Z</time></trkpt><trkpt lat="46.5423483" lon="12.5974323"><ele>1160.0</ele><time>2026-04-26T16:23:28.299Z</time></trkpt><trkpt lat="46.5422709" lon="12.5973925"><ele>1160.0</ele><time>2026-04-26T16:23:29.305Z</time></trkpt><trkpt lat="46.5421986" lon="12.5973499"><ele>1160.0</ele><time>2026-04-26T16:23:30.291Z</time></trkpt><trkpt lat="46.5421226" lon="12.5973123"><ele>1160.0</ele><time>2026-04-26T16:23:31.3Z</time></trkpt><trkpt lat="46.5420528" lon="12.5972708"><ele>1159.3333333333335</ele><time>2026-04-26T16:23:32.296Z</time></trkpt><trkpt lat="46.5419861" lon="12.5972271"><ele>1158.6666666666667</ele><time>2026-04-26T16:23:33.298Z</time></trkpt><trkpt lat="46.5419274" lon="12.5971816"><ele>1158.0</ele><time>2026-04-26T16:23:34.3Z</time></trkpt><trkpt lat="46.5418078" lon="12.5971148"><ele>1157.3333333333333</ele><time>2026-04-26T16:23:36.296Z</time></trkpt><trkpt lat="46.5417339" lon="12.5971207"><ele>1156.6666666666665</ele><time>2026-04-26T16:23:37.294Z</time></trkpt><trkpt lat="46.5416433" lon="12.5971464"><ele>1156.0</ele><time>2026-04-26T16:23:38.295Z</time></trkpt><trkpt lat="46.5415583" lon="12.5971736"><ele>1156.0</ele><time>2026-04-26T16:23:39.296Z</time></trkpt><trkpt lat="46.5414894" lon="12.5971886"><ele>1156.0</ele><time>2026-04-26T16:23:40.297Z</time></trkpt><trkpt lat="46.5414159" lon="12.5971894"><ele>1156.0</ele><time>2026-04-26T16:23:41.291Z</time></trkpt><trkpt lat="46.5413363" lon="12.5971717"><ele>1156.0</ele><time>2026-04-26T16:23:42.304Z</time></trkpt><trkpt lat="46.5412564" lon="12.5971557"><ele>1156.0</ele><time>2026-04-26T16:23:43.294Z</time></trkpt><trkpt lat="46.5411792" lon="12.5971335"><ele>1156.0</ele><time>2026-04-26T16:23:44.292Z</time></trkpt><trkpt lat="46.5411046" lon="12.5970975"><ele>1155.3333333333333</ele><time>2026-04-26T16:23:45.303Z</time></trkpt><trkpt lat="46.5410245" lon="12.5970601"><ele>1154.6666666666665</ele><time>2026-04-26T16:23:46.3Z</time></trkpt><trkpt lat="46.5409406" lon="12.597027"><ele>1154.0</ele><time>2026-04-26T16:23:47.294Z</time></trkpt><trkpt lat="46.5408652" lon="12.5970027"><ele>1153.3333333333333</ele><time>2026-04-26T16:23:48.297Z</time></trkpt><trkpt lat="46.5407955" lon="12.596976"><ele>1152.6666666666667</ele><time>2026-04-26T16:23:49.297Z</time></trkpt><trkpt lat="46.5407156" lon="12.5969531"><ele>1152.0</ele><time>2026-04-26T16:23:50.305Z</time></trkpt><trkpt lat="46.5406388" lon="12.5969249"><ele>1146.8333333333333</ele><time>2026-04-26T16:23:51.3Z</time></trkpt><trkpt lat="46.5405572" lon="12.5968932"><ele>1141.6666666666667</ele><time>2026-04-26T16:23:52.3Z</time></trkpt><trkpt lat="46.5404832" lon="12.5968706"><ele>1136.5</ele><time>2026-04-26T16:23:53.302Z</time></trkpt><trkpt lat="46.5404098" lon="12.5968405"><ele>1131.3333333333335</ele><time>2026-04-26T16:23:54.306Z</time></trkpt><trkpt lat="46.5403335" lon="12.5968103"><ele>1126.1666666666667</ele><time>2026-04-26T16:23:55.299Z</time></trkpt><trkpt lat="46.5402542" lon="12.5967864"><ele>1121.0</ele><time>2026-04-26T16:23:56.295Z</time></trkpt><trkpt lat="46.5401809" lon="12.5967654"><ele>1120.6</ele><time>2026-04-26T16:23:57.301Z</time></trkpt><trkpt lat="46.5400767" lon="12.5967231"><ele>1120.1999999999998</ele><time>2026-04-26T16:23:59.309Z</time></trkpt><trkpt lat="46.5400312" lon="12.5966496"><ele>1119.8000000000002</ele><time>2026-04-26T16:24:01.29Z</time></trkpt><trkpt lat="46.5400134" lon="12.5965388"><ele>1119.4</ele><time>2026-04-26T16:24:03.298Z</time></trkpt><trkpt lat="46.5399958" lon="12.5963823"><ele>1119.0</ele><time>2026-04-26T16:24:05.3Z</time></trkpt><trkpt lat="46.5399689" lon="12.5962319"><ele>1119.5</ele><time>2026-04-26T16:24:07.296Z</time></trkpt><trkpt lat="46.5399423" lon="12.5960907"><ele>1120.0</ele><time>2026-04-26T16:24:09.308Z</time></trkpt><trkpt lat="46.5398979" lon="12.5959974"><ele>1120.5</ele><time>2026-04-26T16:24:11.297Z</time></trkpt><trkpt lat="46.5398199" lon="12.5959453"><ele>1121.0</ele><time>2026-04-26T16:24:13.298Z</time></trkpt><trkpt lat="46.5397543" lon="12.5959109"><ele>1121.5</ele><time>2026-04-26T16:24:14.3Z</time></trkpt><trkpt lat="46.5396803" lon="12.5958612"><ele>1122.0</ele><time>2026-04-26T16:24:15.295Z</time></trkpt><trkpt lat="46.5396045" lon="12.59581"><ele>1122.0</ele><time>2026-04-26T16:24:16.299Z</time></trkpt><trkpt lat="46.5395177" lon="12.5957684"><ele>1122.0</ele><time>2026-04-26T16:24:17.3Z</time></trkpt><trkpt lat="46.5394121" lon="12.5957324"><ele>1122.0</ele><time>2026-04-26T16:24:18.3Z</time></trkpt><trkpt lat="46.5393064" lon="12.5957037"><ele>1122.0</ele><time>2026-04-26T16:24:19.292Z</time></trkpt><trkpt lat="46.5392098" lon="12.5956778"><ele>1122.0</ele><time>2026-04-26T16:24:20.3Z</time></trkpt><trkpt lat="46.5391232" lon="12.595664"><ele>1122.0</ele><time>2026-04-26T16:24:21.3Z</time></trkpt><trkpt lat="46.5390318" lon="12.5956528"><ele>1122.0</ele><time>2026-04-26T16:24:22.299Z</time></trkpt><trkpt lat="46.5389364" lon="12.5956468"><ele>1122.0</ele><time>2026-04-26T16:24:23.3Z</time></trkpt><trkpt lat="46.5388455" lon="12.5956443"><ele>1122.0</ele><time>2026-04-26T16:24:24.302Z</time></trkpt><trkpt lat="46.5387513" lon="12.5956412"><ele>1122.0</ele><time>2026-04-26T16:24:25.301Z</time></trkpt><trkpt lat="46.538652" lon="12.5956407"><ele>1124.6</ele><time>2026-04-26T16:24:26.296Z</time></trkpt><trkpt lat="46.5385436" lon="12.5956621"><ele>1127.2</ele><time>2026-04-26T16:24:27.303Z</time></trkpt><trkpt lat="46.5384339" lon="12.5956959"><ele>1129.8</ele><time>2026-04-26T16:24:28.299Z</time></trkpt><trkpt lat="46.5383385" lon="12.5957599"><ele>1132.4</ele><time>2026-04-26T16:24:29.304Z</time></trkpt><trkpt lat="46.5382457" lon="12.5958544"><ele>1135.0</ele><time>2026-04-26T16:24:30.299Z</time></trkpt><trkpt lat="46.5381513" lon="12.595969"><ele>1135.0</ele><time>2026-04-26T16:24:31.302Z</time></trkpt><trkpt lat="46.538059" lon="12.5961198"><ele>1135.0</ele><time>2026-04-26T16:24:32.296Z</time></trkpt><trkpt lat="46.5379594" lon="12.5962913"><ele>1135.0</ele><time>2026-04-26T16:24:33.293Z</time></trkpt><trkpt lat="46.5378537" lon="12.5964629"><ele>1137.6666666666665</ele><time>2026-04-26T16:24:34.304Z</time></trkpt><trkpt lat="46.5377464" lon="12.5966459"><ele>1140.3333333333333</ele><time>2026-04-26T16:24:35.294Z</time></trkpt><trkpt lat="46.5376408" lon="12.5968226"><ele>1143.0</ele><time>2026-04-26T16:24:36.296Z</time></trkpt><trkpt lat="46.5375376" lon="12.5969781"><ele>1141.25</ele><time>2026-04-26T16:24:37.3Z</time></trkpt><trkpt lat="46.537436" lon="12.5971127"><ele>1139.5</ele><time>2026-04-26T16:24:38.298Z</time></trkpt><trkpt lat="46.5373218" lon="12.5972322"><ele>1137.75</ele><time>2026-04-26T16:24:39.299Z</time></trkpt><trkpt lat="46.5371853" lon="12.5973469"><ele>1136.0</ele><time>2026-04-26T16:24:40.299Z</time></trkpt><trkpt lat="46.5370396" lon="12.5974457"><ele>1144.3333333333335</ele><time>2026-04-26T16:24:41.295Z</time></trkpt><trkpt lat="46.5368946" lon="12.5975509"><ele>1152.6666666666667</ele><time>2026-04-26T16:24:42.293Z</time></trkpt><trkpt lat="46.5367553" lon="12.5976451"><ele>1161.0</ele><time>2026-04-26T16:24:43.299Z</time></trkpt><trkpt lat="46.536626" lon="12.5977326"><ele>1161.0</ele><time>2026-04-26T16:24:44.294Z</time></trkpt><trkpt lat="46.5365099" lon="12.5978245"><ele>1161.0</ele><time>2026-04-26T16:24:45.298Z</time></trkpt><trkpt lat="46.5364393" lon="12.5979645"><ele>1161.0</ele><time>2026-04-26T16:24:46.295Z</time></trkpt><trkpt lat="46.5363822" lon="12.5981433"><ele>1161.0</ele><time>2026-04-26T16:24:47.303Z</time></trkpt><trkpt lat="46.5363043" lon="12.5983434"><ele>1159.75</ele><time>2026-04-26T16:24:48.299Z</time></trkpt><trkpt lat="46.5362153" lon="12.5985172"><ele>1158.5</ele><time>2026-04-26T16:24:49.299Z</time></trkpt><trkpt lat="46.5361265" lon="12.5986543"><ele>1157.25</ele><time>2026-04-26T16:24:50.295Z</time></trkpt><trkpt lat="46.5360216" lon="12.598756"><ele>1156.0</ele><time>2026-04-26T16:24:51.302Z</time></trkpt><trkpt lat="46.5358886" lon="12.5988255"><ele>1156.0</ele><time>2026-04-26T16:24:52.292Z</time></trkpt><trkpt lat="46.5357481" lon="12.5988951"><ele>1156.0</ele><time>2026-04-26T16:24:53.301Z</time></trkpt><trkpt lat="46.535625" lon="12.5989729"><ele>1156.0</ele><time>2026-04-26T16:24:54.298Z</time></trkpt><trkpt lat="46.5355209" lon="12.599041"><ele>1156.0</ele><time>2026-04-26T16:24:55.297Z</time></trkpt><trkpt lat="46.5354236" lon="12.5990931"><ele>1159.0</ele><time>2026-04-26T16:24:56.295Z</time></trkpt><trkpt lat="46.5353239" lon="12.5991161"><ele>1162.0</ele><time>2026-04-26T16:24:57.296Z</time></trkpt><trkpt lat="46.5352332" lon="12.5991011"><ele>1165.0</ele><time>2026-04-26T16:24:58.302Z</time></trkpt><trkpt lat="46.5351466" lon="12.5990415"><ele>1168.0</ele><time>2026-04-26T16:24:59.294Z</time></trkpt><trkpt lat="46.5350531" lon="12.598948"><ele>1171.0</ele><time>2026-04-26T16:25:00.296Z</time></trkpt><trkpt lat="46.5349537" lon="12.5988506"><ele>1171.0</ele><time>2026-04-26T16:25:01.291Z</time></trkpt><trkpt lat="46.534867" lon="12.5987559"><ele>1171.0</ele><time>2026-04-26T16:25:02.296Z</time></trkpt><trkpt lat="46.5347923" lon="12.598688"><ele>1171.0</ele><time>2026-04-26T16:25:03.295Z</time></trkpt><trkpt lat="46.5347292" lon="12.5986559"><ele>1171.0</ele><time>2026-04-26T16:25:04.294Z</time></trkpt><trkpt lat="46.5346142" lon="12.5986881"><ele>1171.0</ele><time>2026-04-26T16:25:06.298Z</time></trkpt><trkpt lat="46.5345651" lon="12.5987472"><ele>1171.0</ele><time>2026-04-26T16:25:07.297Z</time></trkpt><trkpt lat="46.534525" lon="12.5988556"><ele>1171.2</ele><time>2026-04-26T16:25:08.299Z</time></trkpt><trkpt lat="46.5344971" lon="12.5989838"><ele>1171.3999999999999</ele><time>2026-04-26T16:25:09.291Z</time></trkpt><trkpt lat="46.5344658" lon="12.5991131"><ele>1171.6</ele><time>2026-04-26T16:25:10.308Z</time></trkpt><trkpt lat="46.5344194" lon="12.5992627"><ele>1171.8</ele><time>2026-04-26T16:25:11.293Z</time></trkpt><trkpt lat="46.5343725" lon="12.5994277"><ele>1172.0</ele><time>2026-04-26T16:25:12.298Z</time></trkpt><trkpt lat="46.5343216" lon="12.5995894"><ele>1172.6</ele><time>2026-04-26T16:25:13.295Z</time></trkpt><trkpt lat="46.534275" lon="12.5997415"><ele>1173.2</ele><time>2026-04-26T16:25:14.3Z</time></trkpt><trkpt lat="46.5342414" lon="12.5998756"><ele>1173.8</ele><time>2026-04-26T16:25:15.293Z</time></trkpt><trkpt lat="46.5342067" lon="12.6000004"><ele>1174.4</ele><time>2026-04-26T16:25:16.296Z</time></trkpt><trkpt lat="46.5341765" lon="12.6000889"><ele>1175.0</ele><time>2026-04-26T16:25:17.297Z</time></trkpt><trkpt lat="46.5340925" lon="12.6001548"><ele>1175.0</ele><time>2026-04-26T16:25:19.3Z</time></trkpt><trkpt lat="46.5340238" lon="12.6001293"><ele>1175.0</ele><time>2026-04-26T16:25:20.302Z</time></trkpt><trkpt lat="46.533948" lon="12.6000755"><ele>1175.0</ele><time>2026-04-26T16:25:21.296Z</time></trkpt><trkpt lat="46.5338571" lon="12.600015"><ele>1175.0</ele><time>2026-04-26T16:25:22.297Z</time></trkpt><trkpt lat="46.5337802" lon="12.599969"><ele>1175.0</ele><time>2026-04-26T16:25:23.299Z</time></trkpt><trkpt lat="46.5336699" lon="12.5999273"><ele>1175.0</ele><time>2026-04-26T16:25:25.303Z</time></trkpt><trkpt lat="46.5336152" lon="12.6000548"><ele>1175.0</ele><time>2026-04-26T16:25:27.304Z</time></trkpt><trkpt lat="46.5336369" lon="12.6001595"><ele>1175.0</ele><time>2026-04-26T16:25:28.293Z</time></trkpt><trkpt lat="46.5336877" lon="12.600228"><ele>1175.0</ele><time>2026-04-26T16:25:29.304Z</time></trkpt><trkpt lat="46.5337568" lon="12.6002654"><ele>1175.0</ele><time>2026-04-26T16:25:30.302Z</time></trkpt><trkpt lat="46.5338169" lon="12.6003095"><ele>1175.0</ele><time>2026-04-26T16:25:31.299Z</time></trkpt><trkpt lat="46.5338436" lon="12.6004394"><ele>1176.1666666666667</ele><time>2026-04-26T16:25:33.295Z</time></trkpt><trkpt lat="46.5337429" lon="12.6005029"><ele>1177.3333333333335</ele><time>2026-04-26T16:25:35.305Z</time></trkpt><trkpt lat="46.533682" lon="12.6004533"><ele>1178.5</ele><time>2026-04-26T16:25:36.303Z</time></trkpt><trkpt lat="46.5336283" lon="12.6003786"><ele>1179.6666666666667</ele><time>2026-04-26T16:25:37.305Z</time></trkpt><trkpt lat="46.5335939" lon="12.6002994"><ele>1180.8333333333333</ele><time>2026-04-26T16:25:38.303Z</time></trkpt><trkpt lat="46.5334854" lon="12.6002472"><ele>1182.0</ele><time>2026-04-26T16:25:40.303Z</time></trkpt><trkpt lat="46.5334391" lon="12.6003589"><ele>1185.3333333333333</ele><time>2026-04-26T16:25:42.298Z</time></trkpt><trkpt lat="46.533476" lon="12.6004482"><ele>1188.6666666666667</ele><time>2026-04-26T16:25:43.297Z</time></trkpt><trkpt lat="46.5335381" lon="12.6005255"><ele>1192.0</ele><time>2026-04-26T16:25:44.298Z</time></trkpt><trkpt lat="46.5335986" lon="12.6005674"><ele>1195.3333333333335</ele><time>2026-04-26T16:25:45.302Z</time></trkpt><trkpt lat="46.5336435" lon="12.6006355"><ele>1198.6666666666667</ele><time>2026-04-26T16:25:46.293Z</time></trkpt><trkpt lat="46.5336028" lon="12.6007645"><ele>1202.0</ele><time>2026-04-26T16:25:48.295Z</time></trkpt><trkpt lat="46.5335051" lon="12.6007858"><ele>1202.0</ele><time>2026-04-26T16:25:50.297Z</time></trkpt><trkpt lat="46.5334172" lon="12.6006183"><ele>1202.0</ele><time>2026-04-26T16:25:52.293Z</time></trkpt><trkpt lat="46.5333662" lon="12.60055"><ele>1202.0</ele><time>2026-04-26T16:25:53.299Z</time></trkpt><trkpt lat="46.5332373" lon="12.6005378"><ele>1202.0</ele><time>2026-04-26T16:25:55.295Z</time></trkpt><trkpt lat="46.5332451" lon="12.6007123"><ele>1202.0</ele><time>2026-04-26T16:25:57.301Z</time></trkpt><trkpt lat="46.5333088" lon="12.6007986"><ele>1202.0</ele><time>2026-04-26T16:25:58.295Z</time></trkpt><trkpt lat="46.5333753" lon="12.6008769"><ele>1202.0</ele><time>2026-04-26T16:25:59.292Z</time></trkpt><trkpt lat="46.5334362" lon="12.600952"><ele>1202.0</ele><time>2026-04-26T16:26:00.299Z</time></trkpt><trkpt lat="46.5334889" lon="12.6010287"><ele>1202.0</ele><time>2026-04-26T16:26:01.297Z</time></trkpt><trkpt lat="46.5335068" lon="12.601182"><ele>1202.0</ele><time>2026-04-26T16:26:03.297Z</time></trkpt><trkpt lat="46.5334593" lon="12.6012472"><ele>1202.0</ele><time>2026-04-26T16:26:05.294Z</time></trkpt><trkpt lat="46.5333642" lon="12.6011599"><ele>1202.0</ele><time>2026-04-26T16:26:07.299Z</time></trkpt><trkpt lat="46.5333107" lon="12.6010671"><ele>1202.0</ele><time>2026-04-26T16:26:08.312Z</time></trkpt><trkpt lat="46.5332544" lon="12.6009568"><ele>1202.0</ele><time>2026-04-26T16:26:09.3Z</time></trkpt><trkpt lat="46.5331955" lon="12.6008534"><ele>1202.0</ele><time>2026-04-26T16:26:10.305Z</time></trkpt><trkpt lat="46.5331465" lon="12.6007822"><ele>1202.0</ele><time>2026-04-26T16:26:11.297Z</time></trkpt><trkpt lat="46.5330424" lon="12.6007938"><ele>1202.0</ele><time>2026-04-26T16:26:13.299Z</time></trkpt><trkpt lat="46.5330151" lon="12.6009591"><ele>1202.0</ele><time>2026-04-26T16:26:15.293Z</time></trkpt><trkpt lat="46.5330858" lon="12.6010669"><ele>1202.0</ele><time>2026-04-26T16:26:16.296Z</time></trkpt><trkpt lat="46.5331593" lon="12.6011506"><ele>1202.0</ele><time>2026-04-26T16:26:17.294Z</time></trkpt><trkpt lat="46.5332291" lon="12.6012432"><ele>1203.4</ele><time>2026-04-26T16:26:18.297Z</time></trkpt><trkpt lat="46.5332822" lon="12.6013176"><ele>1204.8000000000002</ele><time>2026-04-26T16:26:19.298Z</time></trkpt><trkpt lat="46.5333128" lon="12.6014733"><ele>1206.2</ele><time>2026-04-26T16:26:21.292Z</time></trkpt><trkpt lat="46.5332471" lon="12.6015497"><ele>1207.6000000000001</ele><time>2026-04-26T16:26:23.296Z</time></trkpt><trkpt lat="46.5331563" lon="12.6014806"><ele>1209.0</ele><time>2026-04-26T16:26:25.299Z</time></trkpt><trkpt lat="46.5331063" lon="12.6013843"><ele>1209.0</ele><time>2026-04-26T16:26:26.297Z</time></trkpt><trkpt lat="46.5330568" lon="12.6012755"><ele>1209.0</ele><time>2026-04-26T16:26:27.292Z</time></trkpt><trkpt lat="46.5330105" lon="12.6011889"><ele>1209.0</ele><time>2026-04-26T16:26:28.292Z</time></trkpt><trkpt lat="46.5328978" lon="12.601149"><ele>1209.0</ele><time>2026-04-26T16:26:30.293Z</time></trkpt><trkpt lat="46.5328467" lon="12.6013199"><ele>1209.0</ele><time>2026-04-26T16:26:32.303Z</time></trkpt><trkpt lat="46.5329044" lon="12.6014234"><ele>1209.0</ele><time>2026-04-26T16:26:33.289Z</time></trkpt><trkpt lat="46.5329644" lon="12.6015231"><ele>1209.0</ele><time>2026-04-26T16:26:34.295Z</time></trkpt><trkpt lat="46.5330151" lon="12.6016098"><ele>1209.0</ele><time>2026-04-26T16:26:35.298Z</time></trkpt><trkpt lat="46.5330389" lon="12.6017642"><ele>1209.0</ele><time>2026-04-26T16:26:37.3Z</time></trkpt><trkpt lat="46.5329952" lon="12.6018486"><ele>1209.0</ele><time>2026-04-26T16:26:38.296Z</time></trkpt><trkpt lat="46.5329234" lon="12.6018611"><ele>1209.0</ele><time>2026-04-26T16:26:39.297Z</time></trkpt><trkpt lat="46.5328462" lon="12.601704"><ele>1215.2</ele><time>2026-04-26T16:26:41.296Z</time></trkpt><trkpt lat="46.5328104" lon="12.60157"><ele>1221.4</ele><time>2026-04-26T16:26:42.309Z</time></trkpt><trkpt lat="46.5327666" lon="12.6014467"><ele>1227.6</ele><time>2026-04-26T16:26:43.295Z</time></trkpt><trkpt lat="46.5327331" lon="12.6013396"><ele>1233.8</ele><time>2026-04-26T16:26:44.299Z</time></trkpt><trkpt lat="46.5326934" lon="12.6012651"><ele>1240.0</ele><time>2026-04-26T16:26:45.3Z</time></trkpt><trkpt lat="46.5325803" lon="12.6012612"><ele>1240.0</ele><time>2026-04-26T16:26:47.301Z</time></trkpt><trkpt lat="46.5325403" lon="12.6013349"><ele>1240.0</ele><time>2026-04-26T16:26:48.294Z</time></trkpt><trkpt lat="46.5325459" lon="12.6014355"><ele>1240.0</ele><time>2026-04-26T16:26:49.295Z</time></trkpt><trkpt lat="46.5325865" lon="12.6015469"><ele>1240.0</ele><time>2026-04-26T16:26:50.304Z</time></trkpt><trkpt lat="46.532649" lon="12.6016432"><ele>1240.0</ele><time>2026-04-26T16:26:51.295Z</time></trkpt><trkpt lat="46.5327047" lon="12.6017527"><ele>1240.0</ele><time>2026-04-26T16:26:52.297Z</time></trkpt><trkpt lat="46.5327576" lon="12.6018758"><ele>1240.0</ele><time>2026-04-26T16:26:53.303Z</time></trkpt><trkpt lat="46.5327936" lon="12.6019709"><ele>1240.0</ele><time>2026-04-26T16:26:54.299Z</time></trkpt><trkpt lat="46.5327721" lon="12.602113"><ele>1240.0</ele><time>2026-04-26T16:26:56.29Z</time></trkpt><trkpt lat="46.5326662" lon="12.6021112"><ele>1240.0</ele><time>2026-04-26T16:26:58.301Z</time></trkpt><trkpt lat="46.5325968" lon="12.6019358"><ele>1240.0</ele><time>2026-04-26T16:27:00.302Z</time></trkpt><trkpt lat="46.5325719" lon="12.6018048"><ele>1240.0</ele><time>2026-04-26T16:27:01.295Z</time></trkpt><trkpt lat="46.5325377" lon="12.6017131"><ele>1240.0</ele><time>2026-04-26T16:27:02.291Z</time></trkpt><trkpt lat="46.5324446" lon="12.6016949"><ele>1240.0</ele><time>2026-04-26T16:27:04.295Z</time></trkpt><trkpt lat="46.5324284" lon="12.6018568"><ele>1240.0</ele><time>2026-04-26T16:27:06.296Z</time></trkpt><trkpt lat="46.5324671" lon="12.601959"><ele>1240.0</ele><time>2026-04-26T16:27:07.298Z</time></trkpt><trkpt lat="46.5325223" lon="12.602069"><ele>1242.8</ele><time>2026-04-26T16:27:08.299Z</time></trkpt><trkpt lat="46.5325743" lon="12.6021738"><ele>1245.6</ele><time>2026-04-26T16:27:09.299Z</time></trkpt><trkpt lat="46.5326279" lon="12.6022706"><ele>1248.4</ele><time>2026-04-26T16:27:10.294Z</time></trkpt><trkpt lat="46.532634" lon="12.6024337"><ele>1251.2</ele><time>2026-04-26T16:27:12.297Z</time></trkpt><trkpt lat="46.5325296" lon="12.6024463"><ele>1254.0</ele><time>2026-04-26T16:27:14.31Z</time></trkpt><trkpt lat="46.5324873" lon="12.6023638"><ele>1254.0</ele><time>2026-04-26T16:27:15.299Z</time></trkpt><trkpt lat="46.5324483" lon="12.6022604"><ele>1254.0</ele><time>2026-04-26T16:27:16.304Z</time></trkpt><trkpt lat="46.532391" lon="12.6021487"><ele>1254.0</ele><time>2026-04-26T16:27:17.3Z</time></trkpt><trkpt lat="46.5323276" lon="12.6020185"><ele>1254.0</ele><time>2026-04-26T16:27:18.299Z</time></trkpt><trkpt lat="46.5322655" lon="12.6018872"><ele>1254.0</ele><time>2026-04-26T16:27:19.303Z</time></trkpt><trkpt lat="46.5322062" lon="12.6017644"><ele>1254.0</ele><time>2026-04-26T16:27:20.3Z</time></trkpt><trkpt lat="46.5321358" lon="12.6016804"><ele>1254.0</ele><time>2026-04-26T16:27:21.296Z</time></trkpt><trkpt lat="46.5320515" lon="12.6016339"><ele>1254.0</ele><time>2026-04-26T16:27:22.304Z</time></trkpt><trkpt lat="46.5319553" lon="12.6016235"><ele>1254.0</ele><time>2026-04-26T16:27:23.295Z</time></trkpt><trkpt lat="46.5318422" lon="12.6016336"><ele>1254.0</ele><time>2026-04-26T16:27:24.297Z</time></trkpt><trkpt lat="46.5317221" lon="12.6016523"><ele>1254.0</ele><time>2026-04-26T16:27:25.297Z</time></trkpt><trkpt lat="46.531595" lon="12.6016524"><ele>1254.0</ele><time>2026-04-26T16:27:26.293Z</time></trkpt><trkpt lat="46.5314755" lon="12.6016487"><ele>1254.0</ele><time>2026-04-26T16:27:27.296Z</time></trkpt><trkpt lat="46.5313704" lon="12.601628"><ele>1254.0</ele><time>2026-04-26T16:27:28.297Z</time></trkpt><trkpt lat="46.5312651" lon="12.6015836"><ele>1252.75</ele><time>2026-04-26T16:27:29.3Z</time></trkpt><trkpt lat="46.5311533" lon="12.6015051"><ele>1251.5</ele><time>2026-04-26T16:27:30.3Z</time></trkpt><trkpt lat="46.531044" lon="12.601406"><ele>1250.25</ele><time>2026-04-26T16:27:31.297Z</time></trkpt><trkpt lat="46.5309236" lon="12.6012848"><ele>1249.0</ele><time>2026-04-26T16:27:32.296Z</time></trkpt><trkpt lat="46.530795" lon="12.6011625"><ele>1249.0</ele><time>2026-04-26T16:27:33.296Z</time></trkpt><trkpt lat="46.5306713" lon="12.6010415"><ele>1249.0</ele><time>2026-04-26T16:27:34.302Z</time></trkpt><trkpt lat="46.5305557" lon="12.6009221"><ele>1249.0</ele><time>2026-04-26T16:27:35.302Z</time></trkpt><trkpt lat="46.5304505" lon="12.6008222"><ele>1249.0</ele><time>2026-04-26T16:27:36.304Z</time></trkpt><trkpt lat="46.530352" lon="12.600743"><ele>1253.2</ele><time>2026-04-26T16:27:37.292Z</time></trkpt><trkpt lat="46.5302514" lon="12.6006914"><ele>1257.4</ele><time>2026-04-26T16:27:38.306Z</time></trkpt><trkpt lat="46.5301474" lon="12.6006692"><ele>1261.6</ele><time>2026-04-26T16:27:39.295Z</time></trkpt><trkpt lat="46.530032" lon="12.6006711"><ele>1265.8</ele><time>2026-04-26T16:27:40.302Z</time></trkpt><trkpt lat="46.529911" lon="12.6006812"><ele>1270.0</ele><time>2026-04-26T16:27:41.302Z</time></trkpt><trkpt lat="46.5297762" lon="12.6006955"><ele>1270.0</ele><time>2026-04-26T16:27:42.303Z</time></trkpt><trkpt lat="46.5296295" lon="12.6007023"><ele>1270.0</ele><time>2026-04-26T16:27:43.304Z</time></trkpt><trkpt lat="46.5294813" lon="12.6006958"><ele>1270.0</ele><time>2026-04-26T16:27:44.304Z</time></trkpt><trkpt lat="46.5293386" lon="12.600693"><ele>1270.0</ele><time>2026-04-26T16:27:45.299Z</time></trkpt><trkpt lat="46.5291924" lon="12.6006915"><ele>1270.5</ele><time>2026-04-26T16:27:46.309Z</time></trkpt><trkpt lat="46.5290545" lon="12.6006671"><ele>1271.0</ele><time>2026-04-26T16:27:47.292Z</time></trkpt><trkpt lat="46.5289296" lon="12.600631"><ele>1271.5</ele><time>2026-04-26T16:27:48.295Z</time></trkpt><trkpt lat="46.5288276" lon="12.600602"><ele>1272.0</ele><time>2026-04-26T16:27:49.301Z</time></trkpt><trkpt lat="46.528728" lon="12.6005904"><ele>1271.75</ele><time>2026-04-26T16:27:50.297Z</time></trkpt><trkpt lat="46.5286187" lon="12.6005663"><ele>1271.5</ele><time>2026-04-26T16:27:51.305Z</time></trkpt><trkpt lat="46.5285098" lon="12.6005378"><ele>1271.25</ele><time>2026-04-26T16:27:52.3Z</time></trkpt><trkpt lat="46.5283961" lon="12.6005085"><ele>1271.0</ele><time>2026-04-26T16:27:53.3Z</time></trkpt><trkpt lat="46.528284" lon="12.6004741"><ele>1271.0</ele><time>2026-04-26T16:27:54.299Z</time></trkpt><trkpt lat="46.528172" lon="12.6004407"><ele>1271.0</ele><time>2026-04-26T16:27:55.299Z</time></trkpt><trkpt lat="46.5280753" lon="12.6004033"><ele>1271.0</ele><time>2026-04-26T16:27:56.297Z</time></trkpt><trkpt lat="46.527988" lon="12.6003824"><ele>1271.0</ele><time>2026-04-26T16:27:57.29Z</time></trkpt><trkpt lat="46.5279085" lon="12.6003766"><ele>1271.0</ele><time>2026-04-26T16:27:58.304Z</time></trkpt><trkpt lat="46.5278314" lon="12.6003927"><ele>1271.2</ele><time>2026-04-26T16:27:59.299Z</time></trkpt><trkpt lat="46.52775" lon="12.600448"><ele>1271.3999999999999</ele><time>2026-04-26T16:28:00.297Z</time></trkpt><trkpt lat="46.5276616" lon="12.6005288"><ele>1271.6</ele><time>2026-04-26T16:28:01.29Z</time></trkpt><trkpt lat="46.5275607" lon="12.6005947"><ele>1271.8</ele><time>2026-04-26T16:28:02.298Z</time></trkpt><trkpt lat="46.5274672" lon="12.6006455"><ele>1272.0</ele><time>2026-04-26T16:28:03.297Z</time></trkpt><trkpt lat="46.5273856" lon="12.6006846"><ele>1272.0</ele><time>2026-04-26T16:28:04.296Z</time></trkpt><trkpt lat="46.5273145" lon="12.6007172"><ele>1272.0</ele><time>2026-04-26T16:28:05.294Z</time></trkpt><trkpt lat="46.527202" lon="12.6007932"><ele>1272.0</ele><time>2026-04-26T16:28:07.299Z</time></trkpt><trkpt lat="46.5271447" lon="12.6008508"><ele>1272.0</ele><time>2026-04-26T16:28:08.299Z</time></trkpt><trkpt lat="46.527087" lon="12.6009226"><ele>1272.0</ele><time>2026-04-26T16:28:09.304Z</time></trkpt><trkpt lat="46.5270396" lon="12.6010156"><ele>1272.0</ele><time>2026-04-26T16:28:10.297Z</time></trkpt><trkpt lat="46.5269961" lon="12.6011155"><ele>1274.1666666666667</ele><time>2026-04-26T16:28:11.305Z</time></trkpt><trkpt lat="46.5269443" lon="12.6012116"><ele>1276.3333333333333</ele><time>2026-04-26T16:28:12.302Z</time></trkpt><trkpt lat="46.5268926" lon="12.6013101"><ele>1278.5</ele><time>2026-04-26T16:28:13.299Z</time></trkpt><trkpt lat="46.5268492" lon="12.6014155"><ele>1280.6666666666665</ele><time>2026-04-26T16:28:14.303Z</time></trkpt><trkpt lat="46.5268148" lon="12.6015205"><ele>1282.8333333333333</ele><time>2026-04-26T16:28:15.298Z</time></trkpt><trkpt lat="46.5267645" lon="12.6016414"><ele>1285.0</ele><time>2026-04-26T16:28:17.298Z</time></trkpt><trkpt lat="46.5267072" lon="12.6016897"><ele>1285.0</ele><time>2026-04-26T16:28:19.3Z</time></trkpt><trkpt lat="46.5266301" lon="12.601706"><ele>1285.0</ele><time>2026-04-26T16:28:21.3Z</time></trkpt><trkpt lat="46.526554" lon="12.6017655"><ele>1285.0</ele><time>2026-04-26T16:28:23.3Z</time></trkpt><trkpt lat="46.5264946" lon="12.6018376"><ele>1285.0</ele><time>2026-04-26T16:28:25.31Z</time></trkpt><trkpt lat="46.5264853" lon="12.6019312"><ele>1285.0</ele><time>2026-04-26T16:28:27.298Z</time></trkpt><trkpt lat="46.5265173" lon="12.6020244"><ele>1285.0</ele><time>2026-04-26T16:28:29.3Z</time></trkpt><trkpt lat="46.526586" lon="12.6020548"><ele>1285.0000000000002</ele><time>2026-04-26T16:28:33.299Z</time></trkpt><trkpt lat="46.526567" lon="12.6021472"><ele>1285.0</ele><time>2026-04-26T16:28:39.302Z</time></trkpt><trkpt lat="46.5265028" lon="12.6021835"><ele>1285.0</ele><time>2026-04-26T16:28:41.298Z</time></trkpt><trkpt lat="46.5264252" lon="12.6021821"><ele>1285.0</ele><time>2026-04-26T16:28:43.3Z</time></trkpt><trkpt lat="46.5264035" lon="12.6020728"><ele>1285.0</ele><time>2026-04-26T16:28:46.302Z</time></trkpt><trkpt lat="46.5264498" lon="12.6019947"><ele>1285.0000000000002</ele><time>2026-04-26T16:28:48.298Z</time></trkpt><trkpt lat="46.5264802" lon="12.6019069"><ele>1285.0</ele><time>2026-04-26T16:28:52.301Z</time></trkpt><trkpt lat="46.5265327" lon="12.6018287"><ele>1285.0</ele><time>2026-04-26T16:28:55.299Z</time></trkpt><trkpt lat="46.5266005" lon="12.6017622"><ele>1285.0</ele><time>2026-04-26T16:28:58.306Z</time></trkpt></trkseg><trkseg><trkpt lat="46.5266805" lon="12.6016592"><ele>1285.0</ele><time>2026-04-26T16:39:51.533Z</time></trkpt><trkpt lat="46.526708" lon="12.6017514"><ele>1285.0</ele><time>2026-04-26T16:39:54.535Z</time></trkpt><trkpt lat="46.5267059" lon="12.6018912"><ele>1285.0</ele><time>2026-04-26T16:39:56.533Z</time></trkpt><trkpt lat="46.5266879" lon="12.6019815"><ele>1285.0</ele><time>2026-04-26T16:39:57.529Z</time></trkpt><trkpt lat="46.5266872" lon="12.6021518"><ele>1285.0</ele><time>2026-04-26T16:39:59.536Z</time></trkpt><trkpt lat="46.5267236" lon="12.6023113"><ele>1287.4</ele><time>2026-04-26T16:40:01.531Z</time></trkpt><trkpt lat="46.5267555" lon="12.6023978"><ele>1289.8</ele><time>2026-04-26T16:40:02.535Z</time></trkpt><trkpt lat="46.526823" lon="12.6025399"><ele>1292.1999999999998</ele><time>2026-04-26T16:40:04.531Z</time></trkpt><trkpt lat="46.5268995" lon="12.6026608"><ele>1294.6</ele><time>2026-04-26T16:40:06.537Z</time></trkpt><trkpt lat="46.5269811" lon="12.6027817"><ele>1297.0</ele><time>2026-04-26T16:40:08.542Z</time></trkpt><trkpt lat="46.5270322" lon="12.6028409"><ele>1298.1666666666665</ele><time>2026-04-26T16:40:09.533Z</time></trkpt><trkpt lat="46.5270861" lon="12.6028913"><ele>1299.3333333333333</ele><time>2026-04-26T16:40:10.545Z</time></trkpt><trkpt lat="46.5272015" lon="12.6029372"><ele>1300.5</ele><time>2026-04-26T16:40:12.528Z</time></trkpt><trkpt lat="46.5272741" lon="12.6029378"><ele>1301.6666666666667</ele><time>2026-04-26T16:40:13.538Z</time></trkpt><trkpt lat="46.5273413" lon="12.6029368"><ele>1302.8333333333335</ele><time>2026-04-26T16:40:14.531Z</time></trkpt><trkpt lat="46.5274589" lon="12.602916"><ele>1304.0</ele><time>2026-04-26T16:40:16.534Z</time></trkpt><trkpt lat="46.5275563" lon="12.6028915"><ele>1304.0</ele><time>2026-04-26T16:40:18.538Z</time></trkpt><trkpt lat="46.5276681" lon="12.6029009"><ele>1304.0</ele><time>2026-04-26T16:40:20.531Z</time></trkpt><trkpt lat="46.527743" lon="12.6028901"><ele>1304.0</ele><time>2026-04-26T16:40:21.539Z</time></trkpt><trkpt lat="46.5278093" lon="12.6028687"><ele>1304.0</ele><time>2026-04-26T16:40:22.533Z</time></trkpt><trkpt lat="46.5278738" lon="12.6028547"><ele>1304.0</ele><time>2026-04-26T16:40:23.535Z</time></trkpt><trkpt lat="46.5279423" lon="12.6028405"><ele>1304.0</ele><time>2026-04-26T16:40:24.53Z</time></trkpt><trkpt lat="46.5280129" lon="12.6028231"><ele>1304.2</ele><time>2026-04-26T16:40:25.536Z</time></trkpt><trkpt lat="46.528076" lon="12.6028053"><ele>1304.4</ele><time>2026-04-26T16:40:26.538Z</time></trkpt><trkpt lat="46.5281399" lon="12.6027757"><ele>1304.6</ele><time>2026-04-26T16:40:27.537Z</time></trkpt><trkpt lat="46.5282618" lon="12.6027623"><ele>1304.8</ele><time>2026-04-26T16:40:29.534Z</time></trkpt><trkpt lat="46.5283867" lon="12.6027843"><ele>1305.0</ele><time>2026-04-26T16:40:31.54Z</time></trkpt><trkpt lat="46.5284918" lon="12.6028884"><ele>1306.6666666666667</ele><time>2026-04-26T16:40:33.543Z</time></trkpt><trkpt lat="46.5285415" lon="12.6029538"><ele>1308.3333333333333</ele><time>2026-04-26T16:40:34.535Z</time></trkpt><trkpt lat="46.5286358" lon="12.6030102"><ele>1310.0</ele><time>2026-04-26T16:40:36.538Z</time></trkpt><trkpt lat="46.528754" lon="12.6030104"><ele>1311.6666666666665</ele><time>2026-04-26T16:40:38.541Z</time></trkpt><trkpt lat="46.528831" lon="12.6029978"><ele>1313.3333333333333</ele><time>2026-04-26T16:40:39.53Z</time></trkpt><trkpt lat="46.528902" lon="12.6029843"><ele>1315.0</ele><time>2026-04-26T16:40:40.543Z</time></trkpt><trkpt lat="46.5290147" lon="12.602987"><ele>1315.2</ele><time>2026-04-26T16:40:42.531Z</time></trkpt><trkpt lat="46.5291369" lon="12.6030147"><ele>1315.4</ele><time>2026-04-26T16:40:44.536Z</time></trkpt><trkpt lat="46.5291996" lon="12.603041"><ele>1315.6</ele><time>2026-04-26T16:40:45.538Z</time></trkpt><trkpt lat="46.529317" lon="12.6030829"><ele>1315.8</ele><time>2026-04-26T16:40:47.536Z</time></trkpt><trkpt lat="46.5293813" lon="12.6031128"><ele>1316.0</ele><time>2026-04-26T16:40:48.532Z</time></trkpt><trkpt lat="46.5294989" lon="12.603168"><ele>1316.5</ele><time>2026-04-26T16:40:50.532Z</time></trkpt><trkpt lat="46.5296182" lon="12.6032528"><ele>1317.0</ele><time>2026-04-26T16:40:52.543Z</time></trkpt><trkpt lat="46.5296797" lon="12.6033077"><ele>1317.5</ele><time>2026-04-26T16:40:53.532Z</time></trkpt><trkpt lat="46.5297354" lon="12.6033626"><ele>1318.0</ele><time>2026-04-26T16:40:54.538Z</time></trkpt><trkpt lat="46.5297957" lon="12.6034165"><ele>1318.5</ele><time>2026-04-26T16:40:55.535Z</time></trkpt><trkpt lat="46.5298588" lon="12.6034707"><ele>1319.0</ele><time>2026-04-26T16:40:56.534Z</time></trkpt><trkpt lat="46.5299164" lon="12.6035249"><ele>1319.0</ele><time>2026-04-26T16:40:57.533Z</time></trkpt><trkpt lat="46.5299738" lon="12.603578"><ele>1319.0</ele><time>2026-04-26T16:40:58.538Z</time></trkpt><trkpt lat="46.5300719" lon="12.6036493"><ele>1319.0</ele><time>2026-04-26T16:41:00.535Z</time></trkpt><trkpt lat="46.5301389" lon="12.6036997"><ele>1319.0</ele><time>2026-04-26T16:41:02.535Z</time></trkpt><trkpt lat="46.5302031" lon="12.6036904"><ele>1319.0</ele><time>2026-04-26T16:41:04.528Z</time></trkpt><trkpt lat="46.530268" lon="12.6036303"><ele>1319.0</ele><time>2026-04-26T16:41:06.538Z</time></trkpt><trkpt lat="46.5303326" lon="12.6035832"><ele>1319.0</ele><time>2026-04-26T16:41:08.542Z</time></trkpt><trkpt lat="46.5303965" lon="12.6035071"><ele>1319.0</ele><time>2026-04-26T16:41:10.535Z</time></trkpt><trkpt lat="46.5304736" lon="12.6034413"><ele>1319.0</ele><time>2026-04-26T16:41:13.54Z</time></trkpt><trkpt lat="46.530482" lon="12.6033469"><ele>1319.0</ele><time>2026-04-26T16:41:16.538Z</time></trkpt><trkpt lat="46.5304442" lon="12.6034348"><ele>1319.0</ele><time>2026-04-26T16:42:29.534Z</time></trkpt><trkpt lat="46.5303694" lon="12.6035206"><ele>1319.0</ele><time>2026-04-26T16:42:32.533Z</time></trkpt><trkpt lat="46.5302806" lon="12.6035764"><ele>1319.0</ele><time>2026-04-26T16:42:34.541Z</time></trkpt><trkpt lat="46.5301901" lon="12.6036217"><ele>1319.0</ele><time>2026-04-26T16:42:36.544Z</time></trkpt><trkpt lat="46.5301228" lon="12.6036469"><ele>1319.0</ele><time>2026-04-26T16:42:38.534Z</time></trkpt><trkpt lat="46.5300837" lon="12.6037405"><ele>1319.0</ele><time>2026-04-26T16:42:41.532Z</time></trkpt><trkpt lat="46.5300256" lon="12.6037904"><ele>1319.0</ele><time>2026-04-26T16:42:43.539Z</time></trkpt><trkpt lat="46.5299593" lon="12.6038573"><ele>1319.0</ele><time>2026-04-26T16:42:45.54Z</time></trkpt><trkpt lat="46.5299691" lon="12.6040107"><ele>1320.6</ele><time>2026-04-26T16:42:48.537Z</time></trkpt><trkpt lat="46.5300505" lon="12.6041172"><ele>1322.2</ele><time>2026-04-26T16:42:50.55Z</time></trkpt><trkpt lat="46.5301227" lon="12.6041923"><ele>1323.8</ele><time>2026-04-26T16:42:52.541Z</time></trkpt><trkpt lat="46.5301698" lon="12.6042698"><ele>1325.3999999999999</ele><time>2026-04-26T16:42:54.536Z</time></trkpt><trkpt lat="46.5301984" lon="12.6043563"><ele>1327.0</ele><time>2026-04-26T16:42:55.535Z</time></trkpt><trkpt lat="46.5302724" lon="12.6044916"><ele>1328.3999999999999</ele><time>2026-04-26T16:42:57.537Z</time></trkpt><trkpt lat="46.5303594" lon="12.6046044"><ele>1329.8</ele><time>2026-04-26T16:42:59.537Z</time></trkpt><trkpt lat="46.5304367" lon="12.6046992"><ele>1331.2</ele><time>2026-04-26T16:43:01.54Z</time></trkpt><trkpt lat="46.5305324" lon="12.6047682"><ele>1332.6</ele><time>2026-04-26T16:43:03.54Z</time></trkpt><trkpt lat="46.5306171" lon="12.6047961"><ele>1334.0</ele><time>2026-04-26T16:43:05.534Z</time></trkpt><trkpt lat="46.5306957" lon="12.6048198"><ele>1334.0</ele><time>2026-04-26T16:43:07.533Z</time></trkpt><trkpt lat="46.5307526" lon="12.6048746"><ele>1334.0</ele><time>2026-04-26T16:43:09.54Z</time></trkpt><trkpt lat="46.5307858" lon="12.6049825"><ele>1334.0</ele><time>2026-04-26T16:43:11.55Z</time></trkpt><trkpt lat="46.5308425" lon="12.605109"><ele>1334.0</ele><time>2026-04-26T16:43:13.536Z</time></trkpt><trkpt lat="46.5309177" lon="12.6051797"><ele>1334.0</ele><time>2026-04-26T16:43:15.541Z</time></trkpt><trkpt lat="46.5310014" lon="12.6052152"><ele>1334.0</ele><time>2026-04-26T16:43:17.539Z</time></trkpt><trkpt lat="46.531098" lon="12.6052809"><ele>1333.8000000000002</ele><time>2026-04-26T16:43:19.539Z</time></trkpt><trkpt lat="46.5311948" lon="12.6053408"><ele>1333.6000000000001</ele><time>2026-04-26T16:43:21.536Z</time></trkpt><trkpt lat="46.5312892" lon="12.605392"><ele>1333.4</ele><time>2026-04-26T16:43:23.538Z</time></trkpt><trkpt lat="46.5313945" lon="12.6054244"><ele>1333.2</ele><time>2026-04-26T16:43:25.534Z</time></trkpt><trkpt lat="46.5314929" lon="12.605463"><ele>1333.0</ele><time>2026-04-26T16:43:27.533Z</time></trkpt><trkpt lat="46.5315408" lon="12.6055543"><ele>1333.0</ele><time>2026-04-26T16:43:38.533Z</time></trkpt><trkpt lat="46.5315582" lon="12.605667"><ele>1333.0</ele><time>2026-04-26T16:43:40.547Z</time></trkpt><trkpt lat="46.5315647" lon="12.6057681"><ele>1333.0</ele><time>2026-04-26T16:43:42.55Z</time></trkpt><trkpt lat="46.5315929" lon="12.6058573"><ele>1333.0</ele><time>2026-04-26T16:43:44.531Z</time></trkpt><trkpt lat="46.5316476" lon="12.605936"><ele>1333.0</ele><time>2026-04-26T16:43:46.532Z</time></trkpt><trkpt lat="46.5317158" lon="12.6060235"><ele>1333.0</ele><time>2026-04-26T16:43:48.534Z</time></trkpt><trkpt lat="46.531762" lon="12.6060945"><ele>1333.0</ele><time>2026-04-26T16:43:51.541Z</time></trkpt><trkpt lat="46.5317068" lon="12.605994"><ele>1333.0</ele><time>2026-04-26T16:44:04.537Z</time></trkpt><trkpt lat="46.5316273" lon="12.605875"><ele>1333.0</ele><time>2026-04-26T16:44:06.542Z</time></trkpt><trkpt lat="46.5315826" lon="12.6057374"><ele>1333.0</ele><time>2026-04-26T16:44:08.536Z</time></trkpt><trkpt lat="46.5315957" lon="12.6056228"><ele>1333.0</ele><time>2026-04-26T16:44:10.536Z</time></trkpt><trkpt lat="46.5315846" lon="12.6055298"><ele>1333.0</ele><time>2026-04-26T16:44:12.534Z</time></trkpt><trkpt lat="46.5314954" lon="12.6054606"><ele>1333.0</ele><time>2026-04-26T16:44:14.536Z</time></trkpt><trkpt lat="46.5313898" lon="12.605414"><ele>1333.0</ele><time>2026-04-26T16:44:16.546Z</time></trkpt><trkpt lat="46.5312776" lon="12.6053368"><ele>1333.0</ele><time>2026-04-26T16:44:18.534Z</time></trkpt><trkpt lat="46.5312191" lon="12.6052986"><ele>1333.0</ele><time>2026-04-26T16:44:19.545Z</time></trkpt><trkpt lat="46.5311132" lon="12.6052238"><ele>1333.1666666666665</ele><time>2026-04-26T16:44:21.535Z</time></trkpt><trkpt lat="46.5310186" lon="12.6051784"><ele>1333.3333333333333</ele><time>2026-04-26T16:44:23.545Z</time></trkpt><trkpt lat="46.5309362" lon="12.6051707"><ele>1333.5</ele><time>2026-04-26T16:44:25.541Z</time></trkpt><trkpt lat="46.5308556" lon="12.6051398"><ele>1333.6666666666667</ele><time>2026-04-26T16:44:27.533Z</time></trkpt><trkpt lat="46.5307874" lon="12.6050666"><ele>1333.8333333333335</ele><time>2026-04-26T16:44:29.538Z</time></trkpt><trkpt lat="46.5307586" lon="12.6049395"><ele>1334.0</ele><time>2026-04-26T16:44:31.539Z</time></trkpt><trkpt lat="46.5307328" lon="12.6048161"><ele>1334.0</ele><time>2026-04-26T16:44:33.542Z</time></trkpt><trkpt lat="46.5306338" lon="12.6047832"><ele>1334.0</ele><time>2026-04-26T16:44:35.543Z</time></trkpt><trkpt lat="46.5305194" lon="12.6047261"><ele>1334.0</ele><time>2026-04-26T16:44:37.53Z</time></trkpt><trkpt lat="46.5304198" lon="12.6046267"><ele>1334.0</ele><time>2026-04-26T16:44:39.541Z</time></trkpt><trkpt lat="46.5303716" lon="12.6045568"><ele>1334.0</ele><time>2026-04-26T16:44:40.537Z</time></trkpt><trkpt lat="46.5303277" lon="12.6044886"><ele>1332.6</ele><time>2026-04-26T16:44:41.537Z</time></trkpt><trkpt lat="46.5302498" lon="12.6043552"><ele>1331.2</ele><time>2026-04-26T16:44:43.536Z</time></trkpt><trkpt lat="46.5301787" lon="12.604241"><ele>1329.8</ele><time>2026-04-26T16:44:45.532Z</time></trkpt><trkpt lat="46.5301087" lon="12.6041377"><ele>1328.3999999999999</ele><time>2026-04-26T16:44:47.536Z</time></trkpt><trkpt lat="46.5300145" lon="12.6040432"><ele>1327.0</ele><time>2026-04-26T16:44:49.538Z</time></trkpt><trkpt lat="46.5299601" lon="12.6039331"><ele>1327.0</ele><time>2026-04-26T16:44:51.534Z</time></trkpt><trkpt lat="46.5299679" lon="12.6038349"><ele>1327.0</ele><time>2026-04-26T16:44:53.533Z</time></trkpt><trkpt lat="46.5299701" lon="12.6037304"><ele>1327.0</ele><time>2026-04-26T16:44:55.535Z</time></trkpt><trkpt lat="46.5299645" lon="12.6036344"><ele>1327.0</ele><time>2026-04-26T16:44:57.531Z</time></trkpt><trkpt lat="46.5299467" lon="12.6035306"><ele>1327.0</ele><time>2026-04-26T16:44:59.533Z</time></trkpt><trkpt lat="46.5298751" lon="12.6034486"><ele>1327.0</ele><time>2026-04-26T16:45:01.529Z</time></trkpt><trkpt lat="46.5297579" lon="12.6033402"><ele>1325.6666666666665</ele><time>2026-04-26T16:45:03.534Z</time></trkpt><trkpt lat="46.5296883" lon="12.6032925"><ele>1324.3333333333333</ele><time>2026-04-26T16:45:04.535Z</time></trkpt><trkpt lat="46.5296237" lon="12.6032375"><ele>1323.0</ele><time>2026-04-26T16:45:05.534Z</time></trkpt><trkpt lat="46.5295573" lon="12.6031816"><ele>1321.6666666666667</ele><time>2026-04-26T16:45:06.537Z</time></trkpt><trkpt lat="46.5295009" lon="12.6031408"><ele>1320.3333333333335</ele><time>2026-04-26T16:45:07.532Z</time></trkpt><trkpt lat="46.5293786" lon="12.603075"><ele>1319.0</ele><time>2026-04-26T16:45:09.533Z</time></trkpt><trkpt lat="46.5293067" lon="12.6030439"><ele>1318.5714285714284</ele><time>2026-04-26T16:45:10.539Z</time></trkpt><trkpt lat="46.5292292" lon="12.6030232"><ele>1318.142857142857</ele><time>2026-04-26T16:45:11.536Z</time></trkpt><trkpt lat="46.529166" lon="12.6029959"><ele>1317.7142857142858</ele><time>2026-04-26T16:45:12.532Z</time></trkpt><trkpt lat="46.5290991" lon="12.6029611"><ele>1317.2857142857142</ele><time>2026-04-26T16:45:13.544Z</time></trkpt><trkpt lat="46.529032" lon="12.6029328"><ele>1316.857142857143</ele><time>2026-04-26T16:45:14.536Z</time></trkpt><trkpt lat="46.5289632" lon="12.6029139"><ele>1316.4285714285713</ele><time>2026-04-26T16:45:15.538Z</time></trkpt><trkpt lat="46.5288966" lon="12.6029034"><ele>1316.0</ele><time>2026-04-26T16:45:16.536Z</time></trkpt><trkpt lat="46.5288265" lon="12.6029183"><ele>1315.8</ele><time>2026-04-26T16:45:17.535Z</time></trkpt><trkpt lat="46.528713" lon="12.6029392"><ele>1315.6</ele><time>2026-04-26T16:45:19.541Z</time></trkpt><trkpt lat="46.5286113" lon="12.6029609"><ele>1315.4</ele><time>2026-04-26T16:45:21.533Z</time></trkpt><trkpt lat="46.5285162" lon="12.6028977"><ele>1315.2</ele><time>2026-04-26T16:45:23.534Z</time></trkpt><trkpt lat="46.5284652" lon="12.6028269"><ele>1315.0</ele><time>2026-04-26T16:45:24.545Z</time></trkpt><trkpt lat="46.5283632" lon="12.6027287"><ele>1313.5714285714284</ele><time>2026-04-26T16:45:26.534Z</time></trkpt><trkpt lat="46.528304" lon="12.6026938"><ele>1312.142857142857</ele><time>2026-04-26T16:45:27.544Z</time></trkpt><trkpt lat="46.5282268" lon="12.6026823"><ele>1310.7142857142858</ele><time>2026-04-26T16:45:28.532Z</time></trkpt><trkpt lat="46.5281426" lon="12.6026861"><ele>1309.2857142857142</ele><time>2026-04-26T16:45:29.528Z</time></trkpt><trkpt lat="46.5280654" lon="12.6026975"><ele>1307.857142857143</ele><time>2026-04-26T16:45:30.538Z</time></trkpt><trkpt lat="46.5279917" lon="12.6027129"><ele>1306.4285714285713</ele><time>2026-04-26T16:45:31.533Z</time></trkpt><trkpt lat="46.5279218" lon="12.6027333"><ele>1305.0</ele><time>2026-04-26T16:45:32.532Z</time></trkpt><trkpt lat="46.5278566" lon="12.6027466"><ele>1304.8333333333333</ele><time>2026-04-26T16:45:33.539Z</time></trkpt><trkpt lat="46.5277912" lon="12.6027785"><ele>1304.6666666666667</ele><time>2026-04-26T16:45:34.537Z</time></trkpt><trkpt lat="46.5277152" lon="12.6028139"><ele>1304.5</ele><time>2026-04-26T16:45:35.537Z</time></trkpt><trkpt lat="46.5276394" lon="12.602838"><ele>1304.3333333333335</ele><time>2026-04-26T16:45:36.534Z</time></trkpt><trkpt lat="46.5275683" lon="12.6028366"><ele>1304.1666666666667</ele><time>2026-04-26T16:45:37.534Z</time></trkpt><trkpt lat="46.5274546" lon="12.6028325"><ele>1304.0</ele><time>2026-04-26T16:45:39.533Z</time></trkpt><trkpt lat="46.5273429" lon="12.6028496"><ele>1304.0</ele><time>2026-04-26T16:45:41.543Z</time></trkpt><trkpt lat="46.5272785" lon="12.6028612"><ele>1304.0</ele><time>2026-04-26T16:45:42.539Z</time></trkpt><trkpt lat="46.5272089" lon="12.6028537"><ele>1304.0</ele><time>2026-04-26T16:45:43.529Z</time></trkpt><trkpt lat="46.5270872" lon="12.602816"><ele>1304.0</ele><time>2026-04-26T16:45:45.536Z</time></trkpt><trkpt lat="46.5269784" lon="12.6027283"><ele>1304.0</ele><time>2026-04-26T16:45:47.543Z</time></trkpt><trkpt lat="46.5269303" lon="12.6026605"><ele>1302.6</ele><time>2026-04-26T16:45:48.537Z</time></trkpt><trkpt lat="46.526887" lon="12.6025823"><ele>1301.2</ele><time>2026-04-26T16:45:49.533Z</time></trkpt><trkpt lat="46.5268038" lon="12.6024527"><ele>1299.8</ele><time>2026-04-26T16:45:51.542Z</time></trkpt><trkpt lat="46.5267186" lon="12.6023396"><ele>1298.3999999999999</ele><time>2026-04-26T16:45:53.542Z</time></trkpt><trkpt lat="46.5266469" lon="12.6022008"><ele>1297.0</ele><time>2026-04-26T16:45:55.538Z</time></trkpt><trkpt lat="46.5266176" lon="12.602055"><ele>1297.0</ele><time>2026-04-26T16:45:57.534Z</time></trkpt><trkpt lat="46.5265493" lon="12.6020275"><ele>1297.0</ele><time>2026-04-26T16:46:01.526Z</time></trkpt><trkpt lat="46.5264515" lon="12.6020896"><ele>1297.0</ele><time>2026-04-26T16:46:03.532Z</time></trkpt><trkpt lat="46.5263929" lon="12.6021322"><ele>1297.0</ele><time>2026-04-26T16:46:04.539Z</time></trkpt><trkpt lat="46.5263336" lon="12.6021706"><ele>1297.0</ele><time>2026-04-26T16:46:05.537Z</time></trkpt><trkpt lat="46.526243" lon="12.6022351"><ele>1297.0</ele><time>2026-04-26T16:46:07.528Z</time></trkpt><trkpt lat="46.526166" lon="12.6023184"><ele>1297.0</ele><time>2026-04-26T16:46:09.533Z</time></trkpt><trkpt lat="46.5261071" lon="12.602388"><ele>1297.0</ele><time>2026-04-26T16:46:14.539Z</time></trkpt><trkpt lat="46.5260456" lon="12.6024248"><ele>1297.0</ele><time>2026-04-26T16:46:17.533Z</time></trkpt><trkpt lat="46.5259756" lon="12.602434"><ele>1297.0</ele><time>2026-04-26T16:46:20.534Z</time></trkpt><trkpt lat="46.5259104" lon="12.6024317"><ele>1297.0</ele><time>2026-04-26T16:46:22.539Z</time></trkpt><trkpt lat="46.5258413" lon="12.6024275"><ele>1297.0</ele><time>2026-04-26T16:46:24.532Z</time></trkpt><trkpt lat="46.5257563" lon="12.6024134"><ele>1297.0</ele><time>2026-04-26T16:46:27.535Z</time></trkpt><trkpt lat="46.5256644" lon="12.6024432"><ele>1297.0</ele><time>2026-04-26T16:46:31.54Z</time></trkpt><trkpt lat="46.5255852" lon="12.6024339"><ele>1297.0</ele><time>2026-04-26T16:46:34.527Z</time></trkpt><trkpt lat="46.5254993" lon="12.6024279"><ele>1297.0</ele><time>2026-04-26T16:46:37.531Z</time></trkpt><trkpt lat="46.5254254" lon="12.6024512"><ele>1297.0</ele><time>2026-04-26T16:46:40.536Z</time></trkpt><trkpt lat="46.5255075" lon="12.6025083"><ele>1297.0</ele><time>2026-04-26T16:46:59.532Z</time></trkpt><trkpt lat="46.5255812" lon="12.602494"><ele>1297.0</ele><time>2026-04-26T16:47:01.533Z</time></trkpt><trkpt lat="46.5256469" lon="12.602527"><ele>1297.0</ele><time>2026-04-26T16:47:03.529Z</time></trkpt><trkpt lat="46.5257213" lon="12.6025629"><ele>1297.0</ele><time>2026-04-26T16:47:06.536Z</time></trkpt><trkpt lat="46.5257974" lon="12.6025586"><ele>1297.0</ele><time>2026-04-26T16:47:09.537Z</time></trkpt><trkpt lat="46.525869" lon="12.602548"><ele>1297.0</ele><time>2026-04-26T16:47:11.538Z</time></trkpt><trkpt lat="46.525963" lon="12.6025101"><ele>1297.0</ele><time>2026-04-26T16:47:14.535Z</time></trkpt><trkpt lat="46.52604" lon="12.6024661"><ele>1297.0</ele><time>2026-04-26T16:47:16.539Z</time></trkpt><trkpt lat="46.5261159" lon="12.6024372"><ele>1297.0</ele><time>2026-04-26T16:47:18.539Z</time></trkpt><trkpt lat="46.5261912" lon="12.6024016"><ele>1297.0</ele><time>2026-04-26T16:47:20.528Z</time></trkpt><trkpt lat="46.5262493" lon="12.6023348"><ele>1297.0</ele><time>2026-04-26T16:47:22.534Z</time></trkpt><trkpt lat="46.5263206" lon="12.6022416"><ele>1297.0</ele><time>2026-04-26T16:47:24.535Z</time></trkpt><trkpt lat="46.5264117" lon="12.6021514"><ele>1297.0</ele><time>2026-04-26T16:47:26.532Z</time></trkpt><trkpt lat="46.5264749" lon="12.602081"><ele>1297.0</ele><time>2026-04-26T16:47:28.539Z</time></trkpt><trkpt lat="46.5265415" lon="12.6020349"><ele>1297.0</ele><time>2026-04-26T16:47:31.534Z</time></trkpt><trkpt lat="46.5266047" lon="12.6020219"><ele>1297.0</ele><time>2026-04-26T16:47:42.534Z</time></trkpt><trkpt lat="46.5266771" lon="12.601919"><ele>1297.0</ele><time>2026-04-26T16:47:44.534Z</time></trkpt><trkpt lat="46.5267157" lon="12.6018183"><ele>1297.0</ele><time>2026-04-26T16:47:45.532Z</time></trkpt><trkpt lat="46.5267426" lon="12.6017173"><ele>1297.0</ele><time>2026-04-26T16:47:46.545Z</time></trkpt><trkpt lat="46.5267718" lon="12.6016264"><ele>1297.0</ele><time>2026-04-26T16:47:47.537Z</time></trkpt><trkpt lat="46.5267953" lon="12.601537"><ele>1295.0</ele><time>2026-04-26T16:47:48.534Z</time></trkpt><trkpt lat="46.5268442" lon="12.601397"><ele>1293.0</ele><time>2026-04-26T16:47:50.531Z</time></trkpt><trkpt lat="46.5268846" lon="12.6013184"><ele>1291.0</ele><time>2026-04-26T16:47:51.551Z</time></trkpt><trkpt lat="46.5269266" lon="12.6012372"><ele>1289.0</ele><time>2026-04-26T16:47:52.536Z</time></trkpt><trkpt lat="46.5269737" lon="12.6011552"><ele>1287.0</ele><time>2026-04-26T16:47:53.535Z</time></trkpt><trkpt lat="46.5270178" lon="12.6010726"><ele>1285.0</ele><time>2026-04-26T16:47:54.535Z</time></trkpt><trkpt lat="46.5270541" lon="12.6009943"><ele>1282.8333333333333</ele><time>2026-04-26T16:47:55.533Z</time></trkpt><trkpt lat="46.5271267" lon="12.6008573"><ele>1280.6666666666665</ele><time>2026-04-26T16:47:57.538Z</time></trkpt><trkpt lat="46.5271926" lon="12.6007801"><ele>1278.5</ele><time>2026-04-26T16:47:59.533Z</time></trkpt><trkpt lat="46.5271358" lon="12.6007323"><ele>1276.3333333333333</ele><time>2026-04-26T16:48:03.541Z</time></trkpt><trkpt lat="46.5270653" lon="12.6007522"><ele>1274.1666666666667</ele><time>2026-04-26T16:48:04.533Z</time></trkpt><trkpt lat="46.5269843" lon="12.6007491"><ele>1272.0</ele><time>2026-04-26T16:48:05.533Z</time></trkpt><trkpt lat="46.5269003" lon="12.6007604"><ele>1271.8</ele><time>2026-04-26T16:48:06.537Z</time></trkpt><trkpt lat="46.5268052" lon="12.600792"><ele>1271.6</ele><time>2026-04-26T16:48:07.538Z</time></trkpt><trkpt lat="46.5266993" lon="12.6008222"><ele>1271.3999999999999</ele><time>2026-04-26T16:48:08.532Z</time></trkpt><trkpt lat="46.5265921" lon="12.6008562"><ele>1271.2</ele><time>2026-04-26T16:48:09.537Z</time></trkpt><trkpt lat="46.5264839" lon="12.6008778"><ele>1271.0</ele><time>2026-04-26T16:48:10.535Z</time></trkpt><trkpt lat="46.5263765" lon="12.6008972"><ele>1271.0</ele><time>2026-04-26T16:48:11.531Z</time></trkpt><trkpt lat="46.5262811" lon="12.600933"><ele>1271.0</ele><time>2026-04-26T16:48:12.533Z</time></trkpt><trkpt lat="46.5261869" lon="12.6009796"><ele>1271.0</ele><time>2026-04-26T16:48:13.54Z</time></trkpt><trkpt lat="46.5261008" lon="12.6010231"><ele>1271.0</ele><time>2026-04-26T16:48:14.534Z</time></trkpt><trkpt lat="46.5260074" lon="12.6010521"><ele>1271.0</ele><time>2026-04-26T16:48:15.538Z</time></trkpt><trkpt lat="46.5259194" lon="12.6010557"><ele>1270.6</ele><time>2026-04-26T16:48:16.534Z</time></trkpt><trkpt lat="46.5258243" lon="12.6010542"><ele>1270.1999999999998</ele><time>2026-04-26T16:48:17.537Z</time></trkpt><trkpt lat="46.5257295" lon="12.6010252"><ele>1269.8000000000002</ele><time>2026-04-26T16:48:18.541Z</time></trkpt><trkpt lat="46.5256423" lon="12.6009766"><ele>1269.4</ele><time>2026-04-26T16:48:19.535Z</time></trkpt><trkpt lat="46.5255521" lon="12.6009287"><ele>1269.0</ele><time>2026-04-26T16:48:20.541Z</time></trkpt><trkpt lat="46.5254673" lon="12.600846"><ele>1271.6</ele><time>2026-04-26T16:48:21.531Z</time></trkpt><trkpt lat="46.5253819" lon="12.6007716"><ele>1274.2</ele><time>2026-04-26T16:48:22.531Z</time></trkpt><trkpt lat="46.5252998" lon="12.600707"><ele>1276.8</ele><time>2026-04-26T16:48:23.538Z</time></trkpt><trkpt lat="46.5252146" lon="12.6006583"><ele>1279.3999999999999</ele><time>2026-04-26T16:48:24.532Z</time></trkpt><trkpt lat="46.5251262" lon="12.6006332"><ele>1282.0</ele><time>2026-04-26T16:48:25.543Z</time></trkpt><trkpt lat="46.5250269" lon="12.6006098"><ele>1282.0</ele><time>2026-04-26T16:48:26.537Z</time></trkpt><trkpt lat="46.5249256" lon="12.6006133"><ele>1282.0</ele><time>2026-04-26T16:48:27.535Z</time></trkpt><trkpt lat="46.5248231" lon="12.6006246"><ele>1282.0</ele><time>2026-04-26T16:48:28.54Z</time></trkpt><trkpt lat="46.5247264" lon="12.6006531"><ele>1282.0</ele><time>2026-04-26T16:48:29.543Z</time></trkpt><trkpt lat="46.5246296" lon="12.6006866"><ele>1282.0</ele><time>2026-04-26T16:48:30.542Z</time></trkpt><trkpt lat="46.5245277" lon="12.6007339"><ele>1282.1999999999998</ele><time>2026-04-26T16:48:31.534Z</time></trkpt><trkpt lat="46.524428" lon="12.6008036"><ele>1282.4</ele><time>2026-04-26T16:48:32.532Z</time></trkpt><trkpt lat="46.5243395" lon="12.60087"><ele>1282.6</ele><time>2026-04-26T16:48:33.535Z</time></trkpt><trkpt lat="46.5242547" lon="12.6009171"><ele>1282.8000000000002</ele><time>2026-04-26T16:48:34.537Z</time></trkpt><trkpt lat="46.5241699" lon="12.6009703"><ele>1283.0</ele><time>2026-04-26T16:48:35.544Z</time></trkpt><trkpt lat="46.5240926" lon="12.6010176"><ele>1283.0</ele><time>2026-04-26T16:48:36.53Z</time></trkpt><trkpt lat="46.5240289" lon="12.6010435"><ele>1283.0</ele><time>2026-04-26T16:48:37.541Z</time></trkpt><trkpt lat="46.5239659" lon="12.6010445"><ele>1283.0</ele><time>2026-04-26T16:48:38.535Z</time></trkpt><trkpt lat="46.5239025" lon="12.6010319"><ele>1283.0</ele><time>2026-04-26T16:48:39.539Z</time></trkpt><trkpt lat="46.5238411" lon="12.6009846"><ele>1283.0</ele><time>2026-04-26T16:48:40.535Z</time></trkpt><trkpt lat="46.5237866" lon="12.6009173"><ele>1283.0</ele><time>2026-04-26T16:48:41.537Z</time></trkpt><trkpt lat="46.5237274" lon="12.6008333"><ele>1283.0</ele><time>2026-04-26T16:48:42.532Z</time></trkpt><trkpt lat="46.5236761" lon="12.6007564"><ele>1282.1666666666667</ele><time>2026-04-26T16:48:43.542Z</time></trkpt><trkpt lat="46.5236237" lon="12.6006665"><ele>1281.3333333333335</ele><time>2026-04-26T16:48:44.531Z</time></trkpt><trkpt lat="46.5235781" lon="12.6005593"><ele>1280.5</ele><time>2026-04-26T16:48:45.532Z</time></trkpt><trkpt lat="46.5235541" lon="12.6004393"><ele>1279.6666666666667</ele><time>2026-04-26T16:48:46.538Z</time></trkpt><trkpt lat="46.523528" lon="12.6003078"><ele>1278.8333333333333</ele><time>2026-04-26T16:48:47.535Z</time></trkpt><trkpt lat="46.5235199" lon="12.6001783"><ele>1278.0</ele><time>2026-04-26T16:48:48.535Z</time></trkpt><trkpt lat="46.52352" lon="12.6000546"><ele>1278.0</ele><time>2026-04-26T16:48:49.539Z</time></trkpt><trkpt lat="46.5235181" lon="12.5999477"><ele>1278.0</ele><time>2026-04-26T16:48:50.541Z</time></trkpt><trkpt lat="46.5235088" lon="12.5998548"><ele>1278.0</ele><time>2026-04-26T16:48:51.538Z</time></trkpt><trkpt lat="46.523458" lon="12.599692"><ele>1278.0</ele><time>2026-04-26T16:48:53.534Z</time></trkpt><trkpt lat="46.5233541" lon="12.5995954"><ele>1278.0</ele><time>2026-04-26T16:48:55.539Z</time></trkpt><trkpt lat="46.5232784" lon="12.5995686"><ele>1278.0</ele><time>2026-04-26T16:48:56.545Z</time></trkpt><trkpt lat="46.5231926" lon="12.599565"><ele>1278.0</ele><time>2026-04-26T16:48:57.533Z</time></trkpt><trkpt lat="46.5231009" lon="12.5995754"><ele>1278.0</ele><time>2026-04-26T16:48:58.538Z</time></trkpt><trkpt lat="46.5229988" lon="12.5996012"><ele>1278.0</ele><time>2026-04-26T16:48:59.531Z</time></trkpt><trkpt lat="46.5228986" lon="12.5996359"><ele>1278.0</ele><time>2026-04-26T16:49:00.538Z</time></trkpt><trkpt lat="46.5228061" lon="12.5996576"><ele>1280.0</ele><time>2026-04-26T16:49:01.529Z</time></trkpt><trkpt lat="46.5227162" lon="12.5996725"><ele>1282.0</ele><time>2026-04-26T16:49:02.53Z</time></trkpt><trkpt lat="46.5226301" lon="12.5996636"><ele>1284.0</ele><time>2026-04-26T16:49:03.531Z</time></trkpt><trkpt lat="46.5225415" lon="12.5996131"><ele>1286.0</ele><time>2026-04-26T16:49:04.531Z</time></trkpt><trkpt lat="46.5224541" lon="12.5995484"><ele>1288.0</ele><time>2026-04-26T16:49:05.537Z</time></trkpt><trkpt lat="46.5223622" lon="12.5994805"><ele>1289.4</ele><time>2026-04-26T16:49:06.532Z</time></trkpt><trkpt lat="46.5222828" lon="12.5994185"><ele>1290.8000000000002</ele><time>2026-04-26T16:49:07.535Z</time></trkpt><trkpt lat="46.5222172" lon="12.5993442"><ele>1292.2</ele><time>2026-04-26T16:49:08.534Z</time></trkpt><trkpt lat="46.5221423" lon="12.5992562"><ele>1293.6</ele><time>2026-04-26T16:49:09.534Z</time></trkpt><trkpt lat="46.5220689" lon="12.5991707"><ele>1295.0</ele><time>2026-04-26T16:49:10.536Z</time></trkpt><trkpt lat="46.5220004" lon="12.5990868"><ele>1295.0</ele><time>2026-04-26T16:49:11.538Z</time></trkpt><trkpt lat="46.5219385" lon="12.5990055"><ele>1295.0</ele><time>2026-04-26T16:49:12.532Z</time></trkpt><trkpt lat="46.5218678" lon="12.5989358"><ele>1295.0</ele><time>2026-04-26T16:49:13.543Z</time></trkpt><trkpt lat="46.5217863" lon="12.5988869"><ele>1295.0</ele><time>2026-04-26T16:49:14.538Z</time></trkpt><trkpt lat="46.5217028" lon="12.5988471"><ele>1295.0</ele><time>2026-04-26T16:49:15.531Z</time></trkpt><trkpt lat="46.5216208" lon="12.5988256"><ele>1295.0</ele><time>2026-04-26T16:49:16.536Z</time></trkpt><trkpt lat="46.5215263" lon="12.598821"><ele>1295.0</ele><time>2026-04-26T16:49:17.539Z</time></trkpt><trkpt lat="46.5214204" lon="12.5988239"><ele>1295.0</ele><time>2026-04-26T16:49:18.531Z</time></trkpt><trkpt lat="46.5213109" lon="12.5988301"><ele>1295.0</ele><time>2026-04-26T16:49:19.539Z</time></trkpt><trkpt lat="46.5212011" lon="12.5988362"><ele>1295.0</ele><time>2026-04-26T16:49:20.535Z</time></trkpt><trkpt lat="46.5210915" lon="12.5988506"><ele>1295.0</ele><time>2026-04-26T16:49:21.54Z</time></trkpt><trkpt lat="46.5209872" lon="12.5988573"><ele>1295.75</ele><time>2026-04-26T16:49:22.539Z</time></trkpt><trkpt lat="46.5208841" lon="12.5988522"><ele>1296.5</ele><time>2026-04-26T16:49:23.541Z</time></trkpt><trkpt lat="46.5207714" lon="12.5988438"><ele>1297.25</ele><time>2026-04-26T16:49:24.54Z</time></trkpt><trkpt lat="46.5206535" lon="12.5988282"><ele>1298.0</ele><time>2026-04-26T16:49:25.541Z</time></trkpt><trkpt lat="46.5205288" lon="12.5988079"><ele>1298.0</ele><time>2026-04-26T16:49:26.539Z</time></trkpt><trkpt lat="46.5204037" lon="12.5987941"><ele>1298.0</ele><time>2026-04-26T16:49:27.536Z</time></trkpt><trkpt lat="46.5202768" lon="12.59879"><ele>1298.0</ele><time>2026-04-26T16:49:28.537Z</time></trkpt><trkpt lat="46.5201627" lon="12.5987889"><ele>1298.0</ele><time>2026-04-26T16:49:29.552Z</time></trkpt><trkpt lat="46.5200667" lon="12.5987948"><ele>1298.0</ele><time>2026-04-26T16:49:30.531Z</time></trkpt><trkpt lat="46.5199804" lon="12.5987917"><ele>1298.0</ele><time>2026-04-26T16:49:31.533Z</time></trkpt><trkpt lat="46.5199114" lon="12.5987885"><ele>1298.0</ele><time>2026-04-26T16:49:32.534Z</time></trkpt><trkpt lat="46.5197893" lon="12.5987845"><ele>1298.0</ele><time>2026-04-26T16:49:34.534Z</time></trkpt><trkpt lat="46.5197102" lon="12.5987751"><ele>1298.0</ele><time>2026-04-26T16:49:35.54Z</time></trkpt><trkpt lat="46.5196175" lon="12.5987517"><ele>1299.0</ele><time>2026-04-26T16:49:36.537Z</time></trkpt><trkpt lat="46.5195274" lon="12.5987161"><ele>1300.0</ele><time>2026-04-26T16:49:37.535Z</time></trkpt><trkpt lat="46.5194397" lon="12.5986847"><ele>1301.0</ele><time>2026-04-26T16:49:38.536Z</time></trkpt><trkpt lat="46.5193531" lon="12.5986753"><ele>1302.0</ele><time>2026-04-26T16:49:39.536Z</time></trkpt><trkpt lat="46.5192621" lon="12.5986805"><ele>1303.0</ele><time>2026-04-26T16:49:40.534Z</time></trkpt><trkpt lat="46.5191733" lon="12.5987167"><ele>1303.0</ele><time>2026-04-26T16:49:41.544Z</time></trkpt><trkpt lat="46.5190854" lon="12.5987651"><ele>1303.0</ele><time>2026-04-26T16:49:42.537Z</time></trkpt><trkpt lat="46.5189953" lon="12.5988324"><ele>1303.0</ele><time>2026-04-26T16:49:43.54Z</time></trkpt><trkpt lat="46.5188983" lon="12.5989032"><ele>1303.0</ele><time>2026-04-26T16:49:44.532Z</time></trkpt><trkpt lat="46.5187976" lon="12.5989894"><ele>1303.0</ele><time>2026-04-26T16:49:45.534Z</time></trkpt><trkpt lat="46.5187057" lon="12.5990752"><ele>1304.6000000000001</ele><time>2026-04-26T16:49:46.542Z</time></trkpt><trkpt lat="46.518619" lon="12.5991723"><ele>1306.2</ele><time>2026-04-26T16:49:47.541Z</time></trkpt><trkpt lat="46.5185391" lon="12.5992686"><ele>1307.8</ele><time>2026-04-26T16:49:48.539Z</time></trkpt><trkpt lat="46.5184626" lon="12.5993536"><ele>1309.4</ele><time>2026-04-26T16:49:49.537Z</time></trkpt><trkpt lat="46.5183937" lon="12.5994308"><ele>1311.0</ele><time>2026-04-26T16:49:50.535Z</time></trkpt><trkpt lat="46.5183242" lon="12.599505"><ele>1311.4</ele><time>2026-04-26T16:49:51.534Z</time></trkpt><trkpt lat="46.5182428" lon="12.5995696"><ele>1311.8</ele><time>2026-04-26T16:49:52.537Z</time></trkpt><trkpt lat="46.5181484" lon="12.5996175"><ele>1312.2</ele><time>2026-04-26T16:49:53.535Z</time></trkpt><trkpt lat="46.5180488" lon="12.5996475"><ele>1312.6000000000001</ele><time>2026-04-26T16:49:54.535Z</time></trkpt><trkpt lat="46.5179432" lon="12.5996658"><ele>1313.0</ele><time>2026-04-26T16:49:55.535Z</time></trkpt><trkpt lat="46.5178402" lon="12.5996811"><ele>1313.6000000000001</ele><time>2026-04-26T16:49:56.535Z</time></trkpt><trkpt lat="46.5177386" lon="12.599688"><ele>1314.2</ele><time>2026-04-26T16:49:57.536Z</time></trkpt><trkpt lat="46.5176396" lon="12.59969"><ele>1314.8</ele><time>2026-04-26T16:49:58.54Z</time></trkpt><trkpt lat="46.5175365" lon="12.5996916"><ele>1315.4</ele><time>2026-04-26T16:49:59.532Z</time></trkpt><trkpt lat="46.5174473" lon="12.5997041"><ele>1316.0</ele><time>2026-04-26T16:50:00.545Z</time></trkpt><trkpt lat="46.5173713" lon="12.5997209"><ele>1316.0</ele><time>2026-04-26T16:50:01.535Z</time></trkpt><trkpt lat="46.5172916" lon="12.5997459"><ele>1316.0</ele><time>2026-04-26T16:50:02.539Z</time></trkpt><trkpt lat="46.5172073" lon="12.5997745"><ele>1316.0</ele><time>2026-04-26T16:50:03.53Z</time></trkpt><trkpt lat="46.5171332" lon="12.5998032"><ele>1316.0</ele><time>2026-04-26T16:50:04.535Z</time></trkpt><trkpt lat="46.5170623" lon="12.5998518"><ele>1316.0</ele><time>2026-04-26T16:50:05.543Z</time></trkpt><trkpt lat="46.5169893" lon="12.599897"><ele>1316.0</ele><time>2026-04-26T16:50:06.533Z</time></trkpt><trkpt lat="46.5169132" lon="12.5999501"><ele>1316.8</ele><time>2026-04-26T16:50:07.543Z</time></trkpt><trkpt lat="46.5168412" lon="12.599999"><ele>1317.6</ele><time>2026-04-26T16:50:08.537Z</time></trkpt><trkpt lat="46.5167692" lon="12.6000343"><ele>1318.4</ele><time>2026-04-26T16:50:09.535Z</time></trkpt><trkpt lat="46.5166783" lon="12.6000674"><ele>1319.2</ele><time>2026-04-26T16:50:10.538Z</time></trkpt><trkpt lat="46.516574" lon="12.6000938"><ele>1320.0</ele><time>2026-04-26T16:50:11.535Z</time></trkpt><trkpt lat="46.5164781" lon="12.6001145"><ele>1320.0</ele><time>2026-04-26T16:50:12.535Z</time></trkpt><trkpt lat="46.5163843" lon="12.6001291"><ele>1320.0</ele><time>2026-04-26T16:50:13.541Z</time></trkpt><trkpt lat="46.5162845" lon="12.6001437"><ele>1320.0</ele><time>2026-04-26T16:50:14.537Z</time></trkpt><trkpt lat="46.5161883" lon="12.6001509"><ele>1320.0</ele><time>2026-04-26T16:50:15.533Z</time></trkpt><trkpt lat="46.5160838" lon="12.6001508"><ele>1320.0</ele><time>2026-04-26T16:50:16.537Z</time></trkpt><trkpt lat="46.5159759" lon="12.6001455"><ele>1321.6</ele><time>2026-04-26T16:50:17.533Z</time></trkpt><trkpt lat="46.5158644" lon="12.6001347"><ele>1323.2</ele><time>2026-04-26T16:50:18.544Z</time></trkpt><trkpt lat="46.5157508" lon="12.6001218"><ele>1324.8000000000002</ele><time>2026-04-26T16:50:19.543Z</time></trkpt><trkpt lat="46.5156498" lon="12.6001092"><ele>1326.4</ele><time>2026-04-26T16:50:20.535Z</time></trkpt><trkpt lat="46.5155443" lon="12.6001032"><ele>1328.0</ele><time>2026-04-26T16:50:21.54Z</time></trkpt><trkpt lat="46.5154435" lon="12.6001047"><ele>1330.2</ele><time>2026-04-26T16:50:22.536Z</time></trkpt><trkpt lat="46.5153526" lon="12.6000973"><ele>1332.4</ele><time>2026-04-26T16:50:23.539Z</time></trkpt><trkpt lat="46.5152564" lon="12.600091"><ele>1334.6000000000001</ele><time>2026-04-26T16:50:24.543Z</time></trkpt><trkpt lat="46.5151568" lon="12.6000956"><ele>1336.8000000000002</ele><time>2026-04-26T16:50:25.534Z</time></trkpt><trkpt lat="46.5150584" lon="12.6001031"><ele>1339.0</ele><time>2026-04-26T16:50:26.536Z</time></trkpt><trkpt lat="46.5149563" lon="12.600116"><ele>1339.0</ele><time>2026-04-26T16:50:27.535Z</time></trkpt><trkpt lat="46.5148582" lon="12.6001316"><ele>1339.0</ele><time>2026-04-26T16:50:28.527Z</time></trkpt><trkpt lat="46.5147676" lon="12.600138"><ele>1339.0</ele><time>2026-04-26T16:50:29.539Z</time></trkpt><trkpt lat="46.514693" lon="12.600144"><ele>1339.0</ele><time>2026-04-26T16:50:30.534Z</time></trkpt><trkpt lat="46.5145799" lon="12.6001647"><ele>1339.0</ele><time>2026-04-26T16:50:32.533Z</time></trkpt><trkpt lat="46.514482" lon="12.6002135"><ele>1339.5</ele><time>2026-04-26T16:50:34.537Z</time></trkpt><trkpt lat="46.5143895" lon="12.6002365"><ele>1340.0</ele><time>2026-04-26T16:50:36.533Z</time></trkpt><trkpt lat="46.5143422" lon="12.6003197"><ele>1340.5</ele><time>2026-04-26T16:50:38.538Z</time></trkpt><trkpt lat="46.5143177" lon="12.6004575"><ele>1341.0</ele><time>2026-04-26T16:50:40.537Z</time></trkpt><trkpt lat="46.5143093" lon="12.6005678"><ele>1341.5</ele><time>2026-04-26T16:50:41.535Z</time></trkpt><trkpt lat="46.5142942" lon="12.6006673"><ele>1342.0</ele><time>2026-04-26T16:50:42.549Z</time></trkpt><trkpt lat="46.5142705" lon="12.6007562"><ele>1342.0</ele><time>2026-04-26T16:50:43.535Z</time></trkpt><trkpt lat="46.5142379" lon="12.6008355"><ele>1342.0</ele><time>2026-04-26T16:50:44.537Z</time></trkpt><trkpt lat="46.5141922" lon="12.6008992"><ele>1342.0</ele><time>2026-04-26T16:50:45.542Z</time></trkpt><trkpt lat="46.5141362" lon="12.6009713"><ele>1342.0</ele><time>2026-04-26T16:50:46.536Z</time></trkpt><trkpt lat="46.5140856" lon="12.6010477"><ele>1342.0</ele><time>2026-04-26T16:50:47.543Z</time></trkpt><trkpt lat="46.514025" lon="12.6011233"><ele>1342.0</ele><time>2026-04-26T16:50:48.531Z</time></trkpt><trkpt lat="46.5139559" lon="12.6012036"><ele>1342.0</ele><time>2026-04-26T16:50:49.537Z</time></trkpt><trkpt lat="46.5138864" lon="12.6012676"><ele>1343.1999999999998</ele><time>2026-04-26T16:50:50.537Z</time></trkpt><trkpt lat="46.5138044" lon="12.6013239"><ele>1344.4</ele><time>2026-04-26T16:50:51.538Z</time></trkpt><trkpt lat="46.5137075" lon="12.6013876"><ele>1345.6</ele><time>2026-04-26T16:50:52.536Z</time></trkpt><trkpt lat="46.5136127" lon="12.6014635"><ele>1346.8000000000002</ele><time>2026-04-26T16:50:53.541Z</time></trkpt><trkpt lat="46.5135196" lon="12.6015443"><ele>1348.0</ele><time>2026-04-26T16:50:54.537Z</time></trkpt><trkpt lat="46.5134268" lon="12.6016245"><ele>1348.0</ele><time>2026-04-26T16:50:55.541Z</time></trkpt><trkpt lat="46.5133409" lon="12.601694"><ele>1348.0</ele><time>2026-04-26T16:50:56.534Z</time></trkpt><trkpt lat="46.5132723" lon="12.6017649"><ele>1348.0</ele><time>2026-04-26T16:50:57.539Z</time></trkpt><trkpt lat="46.5132084" lon="12.6018103"><ele>1348.0</ele><time>2026-04-26T16:50:58.535Z</time></trkpt><trkpt lat="46.5131239" lon="12.601867"><ele>1348.0</ele><time>2026-04-26T16:51:00.54Z</time></trkpt><trkpt lat="46.5130633" lon="12.6018949"><ele>1348.0</ele><time>2026-04-26T16:51:01.532Z</time></trkpt><trkpt lat="46.5129943" lon="12.6019408"><ele>1348.0000000000002</ele><time>2026-04-26T16:51:02.546Z</time></trkpt><trkpt lat="46.5129287" lon="12.6019888"><ele>1348.0</ele><time>2026-04-26T16:51:03.54Z</time></trkpt><trkpt lat="46.5128672" lon="12.6020348"><ele>1348.0</ele><time>2026-04-26T16:51:04.54Z</time></trkpt><trkpt lat="46.5128048" lon="12.6020766"><ele>1348.0</ele><time>2026-04-26T16:51:05.535Z</time></trkpt><trkpt lat="46.512734" lon="12.6021192"><ele>1348.0</ele><time>2026-04-26T16:51:06.539Z</time></trkpt><trkpt lat="46.512664" lon="12.602129"><ele>1348.0000000000002</ele><time>2026-04-26T16:51:07.531Z</time></trkpt><trkpt lat="46.5125999" lon="12.6021186"><ele>1348.0</ele><time>2026-04-26T16:51:08.536Z</time></trkpt><trkpt lat="46.5125283" lon="12.6020906"><ele>1348.6666666666665</ele><time>2026-04-26T16:51:09.538Z</time></trkpt><trkpt lat="46.5124521" lon="12.6020568"><ele>1349.3333333333333</ele><time>2026-04-26T16:51:10.534Z</time></trkpt><trkpt lat="46.512388" lon="12.6020128"><ele>1350.0</ele><time>2026-04-26T16:51:11.547Z</time></trkpt><trkpt lat="46.5123258" lon="12.6019787"><ele>1350.6666666666667</ele><time>2026-04-26T16:51:12.533Z</time></trkpt><trkpt lat="46.5122221" lon="12.6019061"><ele>1351.3333333333335</ele><time>2026-04-26T16:51:14.531Z</time></trkpt><trkpt lat="46.5121264" lon="12.6018682"><ele>1352.0</ele><time>2026-04-26T16:51:16.541Z</time></trkpt><trkpt lat="46.5120501" lon="12.6018434"><ele>1353.8333333333335</ele><time>2026-04-26T16:51:18.536Z</time></trkpt><trkpt lat="46.5119755" lon="12.6018472"><ele>1355.6666666666667</ele><time>2026-04-26T16:51:20.533Z</time></trkpt><trkpt lat="46.5119018" lon="12.6018622"><ele>1357.5</ele><time>2026-04-26T16:51:23.543Z</time></trkpt><trkpt lat="46.5118386" lon="12.6018652"><ele>1359.3333333333333</ele><time>2026-04-26T16:51:27.536Z</time></trkpt><trkpt lat="46.511754" lon="12.6018255"><ele>1361.1666666666665</ele><time>2026-04-26T16:51:33.532Z</time></trkpt><trkpt lat="46.5116807" lon="12.6018483"><ele>1363.0</ele><time>2026-04-26T16:51:35.538Z</time></trkpt><trkpt lat="46.5116066" lon="12.6019329"><ele>1362.0</ele><time>2026-04-26T16:51:37.533Z</time></trkpt><trkpt lat="46.5115084" lon="12.6020487"><ele>1361.0</ele><time>2026-04-26T16:51:39.534Z</time></trkpt><trkpt lat="46.5113914" lon="12.6021132"><ele>1360.0</ele><time>2026-04-26T16:51:41.535Z</time></trkpt><trkpt lat="46.5113248" lon="12.6021369"><ele>1359.0</ele><time>2026-04-26T16:51:42.537Z</time></trkpt><trkpt lat="46.5112527" lon="12.6021332"><ele>1358.0</ele><time>2026-04-26T16:51:43.533Z</time></trkpt><trkpt lat="46.511185" lon="12.6021328"><ele>1356.8333333333335</ele><time>2026-04-26T16:51:44.535Z</time></trkpt><trkpt lat="46.51111" lon="12.6021363"><ele>1355.6666666666667</ele><time>2026-04-26T16:51:45.534Z</time></trkpt><trkpt lat="46.5110398" lon="12.6021354"><ele>1354.5</ele><time>2026-04-26T16:51:46.534Z</time></trkpt><trkpt lat="46.5109705" lon="12.602116"><ele>1353.3333333333333</ele><time>2026-04-26T16:51:47.536Z</time></trkpt><trkpt lat="46.5108911" lon="12.602089"><ele>1352.1666666666665</ele><time>2026-04-26T16:51:48.54Z</time></trkpt><trkpt lat="46.5108088" lon="12.6020587"><ele>1351.0</ele><time>2026-04-26T16:51:49.543Z</time></trkpt><trkpt lat="46.5107235" lon="12.6020275"><ele>1356.0</ele><time>2026-04-26T16:51:50.537Z</time></trkpt><trkpt lat="46.510644" lon="12.6019939"><ele>1361.0</ele><time>2026-04-26T16:51:51.549Z</time></trkpt><trkpt lat="46.5105585" lon="12.6019505"><ele>1366.0</ele><time>2026-04-26T16:51:52.539Z</time></trkpt><trkpt lat="46.5104772" lon="12.6019209"><ele>1371.0</ele><time>2026-04-26T16:51:53.537Z</time></trkpt><trkpt lat="46.5103855" lon="12.6018981"><ele>1376.0</ele><time>2026-04-26T16:51:54.542Z</time></trkpt><trkpt lat="46.5102848" lon="12.6018678"><ele>1377.0</ele><time>2026-04-26T16:51:55.541Z</time></trkpt><trkpt lat="46.5101892" lon="12.6018379"><ele>1378.0</ele><time>2026-04-26T16:51:56.532Z</time></trkpt><trkpt lat="46.5101019" lon="12.6018149"><ele>1379.0</ele><time>2026-04-26T16:51:57.54Z</time></trkpt><trkpt lat="46.5100103" lon="12.6018173"><ele>1380.0</ele><time>2026-04-26T16:51:58.536Z</time></trkpt><trkpt lat="46.5099274" lon="12.6018238"><ele>1381.0</ele><time>2026-04-26T16:51:59.542Z</time></trkpt><trkpt lat="46.5098513" lon="12.6018301"><ele>1382.0</ele><time>2026-04-26T16:52:00.536Z</time></trkpt><trkpt lat="46.5097893" lon="12.6018497"><ele>1382.0</ele><time>2026-04-26T16:52:01.532Z</time></trkpt><trkpt lat="46.5096731" lon="12.6018715"><ele>1382.0</ele><time>2026-04-26T16:52:03.534Z</time></trkpt><trkpt lat="46.5096116" lon="12.60185"><ele>1382.0</ele><time>2026-04-26T16:52:04.549Z</time></trkpt><trkpt lat="46.5095412" lon="12.6018068"><ele>1382.0</ele><time>2026-04-26T16:52:05.537Z</time></trkpt><trkpt lat="46.5094816" lon="12.6017479"><ele>1382.0</ele><time>2026-04-26T16:52:06.537Z</time></trkpt><trkpt lat="46.5093779" lon="12.6016938"><ele>1382.0</ele><time>2026-04-26T16:52:08.534Z</time></trkpt><trkpt lat="46.5092747" lon="12.6016365"><ele>1381.6666666666667</ele><time>2026-04-26T16:52:10.541Z</time></trkpt><trkpt lat="46.5091778" lon="12.6016018"><ele>1381.3333333333335</ele><time>2026-04-26T16:52:12.541Z</time></trkpt><trkpt lat="46.5091122" lon="12.6015816"><ele>1381.0</ele><time>2026-04-26T16:52:13.538Z</time></trkpt><trkpt lat="46.5090375" lon="12.6015417"><ele>1380.6666666666667</ele><time>2026-04-26T16:52:14.536Z</time></trkpt><trkpt lat="46.5089575" lon="12.6015001"><ele>1380.3333333333333</ele><time>2026-04-26T16:52:15.537Z</time></trkpt><trkpt lat="46.5088795" lon="12.6014448"><ele>1380.0</ele><time>2026-04-26T16:52:16.534Z</time></trkpt><trkpt lat="46.5087896" lon="12.6013833"><ele>1379.0</ele><time>2026-04-26T16:52:17.536Z</time></trkpt><trkpt lat="46.5086968" lon="12.6013247"><ele>1378.0</ele><time>2026-04-26T16:52:18.534Z</time></trkpt><trkpt lat="46.5086111" lon="12.6012658"><ele>1377.0</ele><time>2026-04-26T16:52:19.533Z</time></trkpt><trkpt lat="46.5085333" lon="12.6012039"><ele>1376.0</ele><time>2026-04-26T16:52:20.545Z</time></trkpt><trkpt lat="46.508453" lon="12.6011409"><ele>1375.0</ele><time>2026-04-26T16:52:21.533Z</time></trkpt><trkpt lat="46.5083794" lon="12.6010808"><ele>1377.5</ele><time>2026-04-26T16:52:22.537Z</time></trkpt><trkpt lat="46.5083129" lon="12.6010172"><ele>1380.0</ele><time>2026-04-26T16:52:23.539Z</time></trkpt><trkpt lat="46.5082517" lon="12.6009461"><ele>1382.5</ele><time>2026-04-26T16:52:24.535Z</time></trkpt><trkpt lat="46.50821" lon="12.6008697"><ele>1385.0</ele><time>2026-04-26T16:52:25.534Z</time></trkpt><trkpt lat="46.5081643" lon="12.6007775"><ele>1387.5</ele><time>2026-04-26T16:52:26.542Z</time></trkpt><trkpt lat="46.5081249" lon="12.6006701"><ele>1390.0</ele><time>2026-04-26T16:52:27.542Z</time></trkpt><trkpt lat="46.508089" lon="12.600563"><ele>1390.0</ele><time>2026-04-26T16:52:28.538Z</time></trkpt><trkpt lat="46.5080558" lon="12.6004383"><ele>1390.0</ele><time>2026-04-26T16:52:29.546Z</time></trkpt><trkpt lat="46.5080245" lon="12.6003046"><ele>1390.0</ele><time>2026-04-26T16:52:30.542Z</time></trkpt><trkpt lat="46.5079767" lon="12.6001978"><ele>1390.0</ele><time>2026-04-26T16:52:31.543Z</time></trkpt><trkpt lat="46.5079357" lon="12.6000907"><ele>1390.0</ele><time>2026-04-26T16:52:32.536Z</time></trkpt><trkpt lat="46.507895" lon="12.599992"><ele>1390.0</ele><time>2026-04-26T16:52:33.536Z</time></trkpt><trkpt lat="46.5078632" lon="12.5998866"><ele>1389.6666666666665</ele><time>2026-04-26T16:52:34.539Z</time></trkpt><trkpt lat="46.5078375" lon="12.5997689"><ele>1389.3333333333333</ele><time>2026-04-26T16:52:35.541Z</time></trkpt><trkpt lat="46.5078095" lon="12.5996604"><ele>1389.0</ele><time>2026-04-26T16:52:36.536Z</time></trkpt><trkpt lat="46.5077776" lon="12.5995644"><ele>1388.6666666666667</ele><time>2026-04-26T16:52:37.547Z</time></trkpt><trkpt lat="46.507736" lon="12.5994808"><ele>1388.3333333333335</ele><time>2026-04-26T16:52:38.536Z</time></trkpt><trkpt lat="46.5076818" lon="12.5994139"><ele>1388.0</ele><time>2026-04-26T16:52:39.539Z</time></trkpt><trkpt lat="46.5076138" lon="12.5993667"><ele>1389.1666666666667</ele><time>2026-04-26T16:52:40.534Z</time></trkpt><trkpt lat="46.5075415" lon="12.5993151"><ele>1390.3333333333335</ele><time>2026-04-26T16:52:41.539Z</time></trkpt><trkpt lat="46.5074638" lon="12.599259"><ele>1391.5</ele><time>2026-04-26T16:52:42.538Z</time></trkpt><trkpt lat="46.5073848" lon="12.5992006"><ele>1392.6666666666667</ele><time>2026-04-26T16:52:43.534Z</time></trkpt><trkpt lat="46.5073031" lon="12.5991469"><ele>1393.8333333333333</ele><time>2026-04-26T16:52:44.54Z</time></trkpt><trkpt lat="46.5072072" lon="12.5991126"><ele>1395.0</ele><time>2026-04-26T16:52:45.543Z</time></trkpt><trkpt lat="46.5071068" lon="12.5990942"><ele>1394.8333333333333</ele><time>2026-04-26T16:52:46.535Z</time></trkpt><trkpt lat="46.5070138" lon="12.5990822"><ele>1394.6666666666667</ele><time>2026-04-26T16:52:47.552Z</time></trkpt><trkpt lat="46.5069282" lon="12.5990588"><ele>1394.5</ele><time>2026-04-26T16:52:48.536Z</time></trkpt><trkpt lat="46.5068435" lon="12.5990356"><ele>1394.3333333333335</ele><time>2026-04-26T16:52:49.536Z</time></trkpt><trkpt lat="46.5067579" lon="12.5990055"><ele>1394.1666666666667</ele><time>2026-04-26T16:52:50.539Z</time></trkpt><trkpt lat="46.5066728" lon="12.5989687"><ele>1394.0</ele><time>2026-04-26T16:52:51.539Z</time></trkpt><trkpt lat="46.5065839" lon="12.5989273"><ele>1394.0</ele><time>2026-04-26T16:52:52.54Z</time></trkpt><trkpt lat="46.5064908" lon="12.5988869"><ele>1394.0</ele><time>2026-04-26T16:52:53.552Z</time></trkpt><trkpt lat="46.5063979" lon="12.5988453"><ele>1394.0</ele><time>2026-04-26T16:52:54.539Z</time></trkpt><trkpt lat="46.5063134" lon="12.5987944"><ele>1394.0</ele><time>2026-04-26T16:52:55.542Z</time></trkpt><trkpt lat="46.5062327" lon="12.5987326"><ele>1394.0</ele><time>2026-04-26T16:52:56.539Z</time></trkpt><trkpt lat="46.5061591" lon="12.5986684"><ele>1395.8333333333335</ele><time>2026-04-26T16:52:57.539Z</time></trkpt><trkpt lat="46.5060893" lon="12.5985889"><ele>1397.6666666666667</ele><time>2026-04-26T16:52:58.541Z</time></trkpt><trkpt lat="46.5060215" lon="12.5985092"><ele>1399.5</ele><time>2026-04-26T16:52:59.536Z</time></trkpt><trkpt lat="46.505954" lon="12.5984437"><ele>1401.3333333333333</ele><time>2026-04-26T16:53:00.536Z</time></trkpt><trkpt lat="46.5058843" lon="12.5983906"><ele>1403.1666666666665</ele><time>2026-04-26T16:53:01.541Z</time></trkpt><trkpt lat="46.5058102" lon="12.598364"><ele>1405.0</ele><time>2026-04-26T16:53:02.536Z</time></trkpt><trkpt lat="46.5057399" lon="12.5983328"><ele>1405.0</ele><time>2026-04-26T16:53:03.54Z</time></trkpt><trkpt lat="46.5056778" lon="12.5983107"><ele>1405.0</ele><time>2026-04-26T16:53:04.534Z</time></trkpt><trkpt lat="46.5055731" lon="12.5982674"><ele>1405.0</ele><time>2026-04-26T16:53:06.544Z</time></trkpt><trkpt lat="46.5054714" lon="12.598299"><ele>1405.0</ele><time>2026-04-26T16:53:08.537Z</time></trkpt><trkpt lat="46.505414" lon="12.5983581"><ele>1405.0</ele><time>2026-04-26T16:53:09.545Z</time></trkpt><trkpt lat="46.5053593" lon="12.5984278"><ele>1405.0</ele><time>2026-04-26T16:53:10.54Z</time></trkpt><trkpt lat="46.5052918" lon="12.5984724"><ele>1407.3333333333333</ele><time>2026-04-26T16:53:11.532Z</time></trkpt><trkpt lat="46.5052275" lon="12.5985078"><ele>1409.6666666666665</ele><time>2026-04-26T16:53:12.538Z</time></trkpt><trkpt lat="46.5051483" lon="12.5985314"><ele>1412.0</ele><time>2026-04-26T16:53:13.531Z</time></trkpt><trkpt lat="46.5050483" lon="12.5985361"><ele>1414.3333333333333</ele><time>2026-04-26T16:53:14.53Z</time></trkpt><trkpt lat="46.5049588" lon="12.5985235"><ele>1416.6666666666667</ele><time>2026-04-26T16:53:15.535Z</time></trkpt><trkpt lat="46.5048667" lon="12.5985089"><ele>1419.0</ele><time>2026-04-26T16:53:16.537Z</time></trkpt><trkpt lat="46.5047759" lon="12.5984922"><ele>1419.0</ele><time>2026-04-26T16:53:17.54Z</time></trkpt><trkpt lat="46.504697" lon="12.5984481"><ele>1419.0</ele><time>2026-04-26T16:53:18.537Z</time></trkpt><trkpt lat="46.504624" lon="12.598391"><ele>1419.0</ele><time>2026-04-26T16:53:19.551Z</time></trkpt><trkpt lat="46.5045563" lon="12.5983228"><ele>1419.0</ele><time>2026-04-26T16:53:20.54Z</time></trkpt><trkpt lat="46.5044976" lon="12.5982641"><ele>1419.0</ele><time>2026-04-26T16:53:21.547Z</time></trkpt><trkpt lat="46.5044302" lon="12.5982301"><ele>1419.0</ele><time>2026-04-26T16:53:22.538Z</time></trkpt><trkpt lat="46.5043515" lon="12.5982088"><ele>1421.6666666666667</ele><time>2026-04-26T16:53:23.537Z</time></trkpt><trkpt lat="46.5042703" lon="12.5981957"><ele>1424.3333333333333</ele><time>2026-04-26T16:53:24.536Z</time></trkpt><trkpt lat="46.5041947" lon="12.5981893"><ele>1427.0</ele><time>2026-04-26T16:53:25.536Z</time></trkpt><trkpt lat="46.5041073" lon="12.5981964"><ele>1429.6666666666665</ele><time>2026-04-26T16:53:26.539Z</time></trkpt><trkpt lat="46.5040208" lon="12.5982115"><ele>1432.3333333333333</ele><time>2026-04-26T16:53:27.542Z</time></trkpt><trkpt lat="46.5039406" lon="12.5982062"><ele>1435.0</ele><time>2026-04-26T16:53:28.548Z</time></trkpt><trkpt lat="46.5038708" lon="12.598177"><ele>1435.0</ele><time>2026-04-26T16:53:29.541Z</time></trkpt><trkpt lat="46.5038058" lon="12.5981373"><ele>1435.0</ele><time>2026-04-26T16:53:30.539Z</time></trkpt><trkpt lat="46.5037453" lon="12.5980813"><ele>1435.0</ele><time>2026-04-26T16:53:31.547Z</time></trkpt><trkpt lat="46.5036732" lon="12.5980173"><ele>1435.0</ele><time>2026-04-26T16:53:32.536Z</time></trkpt><trkpt lat="46.5035942" lon="12.5979406"><ele>1435.0</ele><time>2026-04-26T16:53:33.549Z</time></trkpt><trkpt lat="46.5035122" lon="12.5978604"><ele>1435.0</ele><time>2026-04-26T16:53:34.539Z</time></trkpt><trkpt lat="46.5034283" lon="12.5977923"><ele>1436.1666666666665</ele><time>2026-04-26T16:53:35.543Z</time></trkpt><trkpt lat="46.5033481" lon="12.5977652"><ele>1437.3333333333333</ele><time>2026-04-26T16:53:36.538Z</time></trkpt><trkpt lat="46.5032642" lon="12.5977504"><ele>1438.5</ele><time>2026-04-26T16:53:37.539Z</time></trkpt><trkpt lat="46.5031687" lon="12.5977686"><ele>1439.6666666666667</ele><time>2026-04-26T16:53:38.547Z</time></trkpt><trkpt lat="46.5030786" lon="12.5978037"><ele>1440.8333333333335</ele><time>2026-04-26T16:53:39.538Z</time></trkpt><trkpt lat="46.5029969" lon="12.5978326"><ele>1442.0</ele><time>2026-04-26T16:53:40.539Z</time></trkpt><trkpt lat="46.5029172" lon="12.5978505"><ele>1442.6</ele><time>2026-04-26T16:53:41.542Z</time></trkpt><trkpt lat="46.5028445" lon="12.597877"><ele>1443.1999999999998</ele><time>2026-04-26T16:53:42.534Z</time></trkpt><trkpt lat="46.502792" lon="12.5979288"><ele>1443.8</ele><time>2026-04-26T16:53:43.55Z</time></trkpt><trkpt lat="46.5027408" lon="12.5980951"><ele>1444.4</ele><time>2026-04-26T16:53:45.534Z</time></trkpt><trkpt lat="46.502726" lon="12.598191"><ele>1445.0</ele><time>2026-04-26T16:53:46.532Z</time></trkpt><trkpt lat="46.5026964" lon="12.5983678"><ele>1445.0</ele><time>2026-04-26T16:53:48.545Z</time></trkpt><trkpt lat="46.5026451" lon="12.5985384"><ele>1445.0</ele><time>2026-04-26T16:53:50.541Z</time></trkpt><trkpt lat="46.5025923" lon="12.5987082"><ele>1445.0</ele><time>2026-04-26T16:53:52.549Z</time></trkpt><trkpt lat="46.5025544" lon="12.5987882"><ele>1445.0</ele><time>2026-04-26T16:53:53.539Z</time></trkpt><trkpt lat="46.5024524" lon="12.5988907"><ele>1445.0</ele><time>2026-04-26T16:53:55.548Z</time></trkpt><trkpt lat="46.5023863" lon="12.5989082"><ele>1443.4</ele><time>2026-04-26T16:53:56.535Z</time></trkpt><trkpt lat="46.5022712" lon="12.5988716"><ele>1441.8</ele><time>2026-04-26T16:53:58.539Z</time></trkpt><trkpt lat="46.502175" lon="12.5988583"><ele>1440.1999999999998</ele><time>2026-04-26T16:54:00.536Z</time></trkpt><trkpt lat="46.5021187" lon="12.5989045"><ele>1438.6</ele><time>2026-04-26T16:54:02.535Z</time></trkpt><trkpt lat="46.5020758" lon="12.5990614"><ele>1437.0</ele><time>2026-04-26T16:54:04.54Z</time></trkpt><trkpt lat="46.5020454" lon="12.5991573"><ele>1437.0</ele><time>2026-04-26T16:54:05.534Z</time></trkpt><trkpt lat="46.5020064" lon="12.5992403"><ele>1437.0</ele><time>2026-04-26T16:54:06.55Z</time></trkpt><trkpt lat="46.5019643" lon="12.5993153"><ele>1437.0</ele><time>2026-04-26T16:54:07.541Z</time></trkpt><trkpt lat="46.5018837" lon="12.5994495"><ele>1437.0</ele><time>2026-04-26T16:54:09.54Z</time></trkpt><trkpt lat="46.5018355" lon="12.5995229"><ele>1437.0</ele><time>2026-04-26T16:54:10.541Z</time></trkpt><trkpt lat="46.5017892" lon="12.5995986"><ele>1437.0</ele><time>2026-04-26T16:54:11.538Z</time></trkpt><trkpt lat="46.5017448" lon="12.599668"><ele>1434.8</ele><time>2026-04-26T16:54:12.537Z</time></trkpt><trkpt lat="46.5017019" lon="12.5997363"><ele>1432.6</ele><time>2026-04-26T16:54:13.549Z</time></trkpt><trkpt lat="46.5016038" lon="12.5998461"><ele>1430.3999999999999</ele><time>2026-04-26T16:54:15.532Z</time></trkpt><trkpt lat="46.5014908" lon="12.5999462"><ele>1428.1999999999998</ele><time>2026-04-26T16:54:17.549Z</time></trkpt><trkpt lat="46.5014209" lon="12.5999968"><ele>1426.0</ele><time>2026-04-26T16:54:18.535Z</time></trkpt><trkpt lat="46.5013409" lon="12.600042"><ele>1426.0</ele><time>2026-04-26T16:54:19.547Z</time></trkpt><trkpt lat="46.5012644" lon="12.6000938"><ele>1426.0</ele><time>2026-04-26T16:54:20.54Z</time></trkpt><trkpt lat="46.5011928" lon="12.6001492"><ele>1426.0</ele><time>2026-04-26T16:54:21.533Z</time></trkpt><trkpt lat="46.5011149" lon="12.6002024"><ele>1426.0</ele><time>2026-04-26T16:54:22.538Z</time></trkpt><trkpt lat="46.5010506" lon="12.6002452"><ele>1426.0</ele><time>2026-04-26T16:54:23.538Z</time></trkpt><trkpt lat="46.500979" lon="12.6002933"><ele>1426.0</ele><time>2026-04-26T16:54:24.533Z</time></trkpt><trkpt lat="46.5009019" lon="12.6003385"><ele>1426.1666666666665</ele><time>2026-04-26T16:54:25.539Z</time></trkpt><trkpt lat="46.5008249" lon="12.6003756"><ele>1426.3333333333333</ele><time>2026-04-26T16:54:26.537Z</time></trkpt><trkpt lat="46.5007587" lon="12.6004166"><ele>1426.5</ele><time>2026-04-26T16:54:27.539Z</time></trkpt><trkpt lat="46.5006904" lon="12.6004693"><ele>1426.6666666666667</ele><time>2026-04-26T16:54:28.543Z</time></trkpt><trkpt lat="46.5006214" lon="12.6005128"><ele>1426.8333333333335</ele><time>2026-04-26T16:54:29.538Z</time></trkpt><trkpt lat="46.5005551" lon="12.6005621"><ele>1427.0</ele><time>2026-04-26T16:54:30.548Z</time></trkpt><trkpt lat="46.5004898" lon="12.6006207"><ele>1427.0</ele><time>2026-04-26T16:54:31.541Z</time></trkpt><trkpt lat="46.5004467" lon="12.6007115"><ele>1427.0</ele><time>2026-04-26T16:54:32.537Z</time></trkpt><trkpt lat="46.5004182" lon="12.6008148"><ele>1427.0</ele><time>2026-04-26T16:54:33.549Z</time></trkpt><trkpt lat="46.5003751" lon="12.600925"><ele>1427.0</ele><time>2026-04-26T16:54:34.535Z</time></trkpt><trkpt lat="46.5003222" lon="12.6010429"><ele>1427.0</ele><time>2026-04-26T16:54:35.539Z</time></trkpt><trkpt lat="46.5002724" lon="12.6011609"><ele>1427.0</ele><time>2026-04-26T16:54:36.536Z</time></trkpt><trkpt lat="46.5002245" lon="12.6012669"><ele>1426.3333333333335</ele><time>2026-04-26T16:54:37.539Z</time></trkpt><trkpt lat="46.5001719" lon="12.6013659"><ele>1425.6666666666667</ele><time>2026-04-26T16:54:38.534Z</time></trkpt><trkpt lat="46.5001198" lon="12.6014629"><ele>1425.0</ele><time>2026-04-26T16:54:39.541Z</time></trkpt><trkpt lat="46.5000676" lon="12.6015487"><ele>1424.3333333333333</ele><time>2026-04-26T16:54:40.538Z</time></trkpt><trkpt lat="46.5000201" lon="12.6016254"><ele>1423.6666666666665</ele><time>2026-04-26T16:54:41.536Z</time></trkpt><trkpt lat="46.4999726" lon="12.6016945"><ele>1423.0</ele><time>2026-04-26T16:54:42.54Z</time></trkpt><trkpt lat="46.4998829" lon="12.601849"><ele>1423.0</ele><time>2026-04-26T16:54:44.536Z</time></trkpt><trkpt lat="46.4998304" lon="12.6019415"><ele>1423.0</ele><time>2026-04-26T16:54:45.54Z</time></trkpt><trkpt lat="46.4997767" lon="12.6020343"><ele>1423.0</ele><time>2026-04-26T16:54:46.546Z</time></trkpt><trkpt lat="46.4997158" lon="12.6021217"><ele>1423.0</ele><time>2026-04-26T16:54:47.538Z</time></trkpt><trkpt lat="46.4996511" lon="12.6022008"><ele>1423.0</ele><time>2026-04-26T16:54:48.542Z</time></trkpt><trkpt lat="46.4995878" lon="12.6022823"><ele>1423.0</ele><time>2026-04-26T16:54:49.539Z</time></trkpt><trkpt lat="46.4995224" lon="12.6023482"><ele>1421.8333333333333</ele><time>2026-04-26T16:54:50.542Z</time></trkpt><trkpt lat="46.4994519" lon="12.6024019"><ele>1420.6666666666665</ele><time>2026-04-26T16:54:51.536Z</time></trkpt><trkpt lat="46.49937" lon="12.6024487"><ele>1419.5</ele><time>2026-04-26T16:54:52.542Z</time></trkpt><trkpt lat="46.4993" lon="12.6025148"><ele>1418.3333333333333</ele><time>2026-04-26T16:54:53.542Z</time></trkpt><trkpt lat="46.4992276" lon="12.6025901"><ele>1417.1666666666667</ele><time>2026-04-26T16:54:54.539Z</time></trkpt><trkpt lat="46.4991477" lon="12.6026712"><ele>1416.0</ele><time>2026-04-26T16:54:55.547Z</time></trkpt><trkpt lat="46.499067" lon="12.6027494"><ele>1416.0</ele><time>2026-04-26T16:54:56.541Z</time></trkpt><trkpt lat="46.4989744" lon="12.6028235"><ele>1416.0</ele><time>2026-04-26T16:54:57.537Z</time></trkpt><trkpt lat="46.4988863" lon="12.6028955"><ele>1416.0</ele><time>2026-04-26T16:54:58.537Z</time></trkpt><trkpt lat="46.4987971" lon="12.6029762"><ele>1416.0</ele><time>2026-04-26T16:54:59.545Z</time></trkpt><trkpt lat="46.4987062" lon="12.6030752"><ele>1416.0</ele><time>2026-04-26T16:55:00.539Z</time></trkpt><trkpt lat="46.4986217" lon="12.6031623"><ele>1417.6</ele><time>2026-04-26T16:55:01.539Z</time></trkpt><trkpt lat="46.4985415" lon="12.6032451"><ele>1419.1999999999998</ele><time>2026-04-26T16:55:02.536Z</time></trkpt><trkpt lat="46.4984667" lon="12.6033387"><ele>1420.8000000000002</ele><time>2026-04-26T16:55:03.537Z</time></trkpt><trkpt lat="46.4983884" lon="12.6034426"><ele>1422.4</ele><time>2026-04-26T16:55:04.543Z</time></trkpt><trkpt lat="46.4983138" lon="12.6035431"><ele>1424.0</ele><time>2026-04-26T16:55:05.533Z</time></trkpt><trkpt lat="46.4982421" lon="12.6036472"><ele>1423.8333333333335</ele><time>2026-04-26T16:55:06.547Z</time></trkpt><trkpt lat="46.4981811" lon="12.6037448"><ele>1423.6666666666667</ele><time>2026-04-26T16:55:07.534Z</time></trkpt><trkpt lat="46.4981331" lon="12.6038063"><ele>1423.5</ele><time>2026-04-26T16:55:08.536Z</time></trkpt><trkpt lat="46.4980431" lon="12.6039048"><ele>1423.3333333333333</ele><time>2026-04-26T16:55:10.537Z</time></trkpt><trkpt lat="46.4979848" lon="12.6039644"><ele>1423.1666666666665</ele><time>2026-04-26T16:55:11.542Z</time></trkpt><trkpt lat="46.497916" lon="12.6040194"><ele>1423.0</ele><time>2026-04-26T16:55:12.535Z</time></trkpt><trkpt lat="46.4978394" lon="12.6040818"><ele>1424.8333333333333</ele><time>2026-04-26T16:55:13.537Z</time></trkpt><trkpt lat="46.497763" lon="12.6041439"><ele>1426.6666666666665</ele><time>2026-04-26T16:55:14.539Z</time></trkpt><trkpt lat="46.497693" lon="12.6041989"><ele>1428.5</ele><time>2026-04-26T16:55:15.541Z</time></trkpt><trkpt lat="46.497626" lon="12.60426"><ele>1430.3333333333333</ele><time>2026-04-26T16:55:16.538Z</time></trkpt><trkpt lat="46.4975764" lon="12.6043332"><ele>1432.1666666666667</ele><time>2026-04-26T16:55:17.549Z</time></trkpt><trkpt lat="46.4975196" lon="12.6043916"><ele>1434.0</ele><time>2026-04-26T16:55:18.537Z</time></trkpt><trkpt lat="46.4974701" lon="12.6044674"><ele>1433.0</ele><time>2026-04-26T16:55:19.538Z</time></trkpt><trkpt lat="46.497428" lon="12.6045547"><ele>1432.0</ele><time>2026-04-26T16:55:20.548Z</time></trkpt><trkpt lat="46.4973879" lon="12.6046341"><ele>1431.0</ele><time>2026-04-26T16:55:21.534Z</time></trkpt><trkpt lat="46.4973356" lon="12.6047197"><ele>1430.0</ele><time>2026-04-26T16:55:22.543Z</time></trkpt><trkpt lat="46.4972845" lon="12.6048058"><ele>1429.0</ele><time>2026-04-26T16:55:23.54Z</time></trkpt><trkpt lat="46.497232" lon="12.6048968"><ele>1428.0</ele><time>2026-04-26T16:55:24.535Z</time></trkpt><trkpt lat="46.4971756" lon="12.6049947"><ele>1428.0</ele><time>2026-04-26T16:55:25.547Z</time></trkpt><trkpt lat="46.4971222" lon="12.60509"><ele>1428.0</ele><time>2026-04-26T16:55:26.538Z</time></trkpt><trkpt lat="46.4970634" lon="12.6051775"><ele>1428.0</ele><time>2026-04-26T16:55:27.54Z</time></trkpt><trkpt lat="46.496999" lon="12.6052623"><ele>1428.0</ele><time>2026-04-26T16:55:28.535Z</time></trkpt><trkpt lat="46.4969362" lon="12.6053333"><ele>1428.0</ele><time>2026-04-26T16:55:29.539Z</time></trkpt><trkpt lat="46.4968671" lon="12.6054048"><ele>1428.0</ele><time>2026-04-26T16:55:30.542Z</time></trkpt><trkpt lat="46.4968025" lon="12.6054796"><ele>1429.2</ele><time>2026-04-26T16:55:31.543Z</time></trkpt><trkpt lat="46.4967523" lon="12.6055708"><ele>1430.4</ele><time>2026-04-26T16:55:32.541Z</time></trkpt><trkpt lat="46.496714" lon="12.6056863"><ele>1431.6000000000001</ele><time>2026-04-26T16:55:33.541Z</time></trkpt><trkpt lat="46.4966678" lon="12.6058127"><ele>1432.8000000000002</ele><time>2026-04-26T16:55:34.534Z</time></trkpt><trkpt lat="46.4966145" lon="12.6059282"><ele>1434.0</ele><time>2026-04-26T16:55:35.538Z</time></trkpt><trkpt lat="46.4965631" lon="12.6060356"><ele>1434.0</ele><time>2026-04-26T16:55:36.536Z</time></trkpt><trkpt lat="46.4965077" lon="12.6061337"><ele>1434.0</ele><time>2026-04-26T16:55:37.543Z</time></trkpt><trkpt lat="46.4964583" lon="12.6062239"><ele>1434.0</ele><time>2026-04-26T16:55:38.533Z</time></trkpt><trkpt lat="46.4964064" lon="12.6063079"><ele>1434.0</ele><time>2026-04-26T16:55:39.543Z</time></trkpt><trkpt lat="46.4963565" lon="12.6063805"><ele>1434.0</ele><time>2026-04-26T16:55:40.536Z</time></trkpt><trkpt lat="46.4963011" lon="12.6064552"><ele>1434.0</ele><time>2026-04-26T16:55:41.533Z</time></trkpt><trkpt lat="46.4962496" lon="12.6065297"><ele>1434.6666666666667</ele><time>2026-04-26T16:55:42.543Z</time></trkpt><trkpt lat="46.4961944" lon="12.6066161"><ele>1435.3333333333333</ele><time>2026-04-26T16:55:43.539Z</time></trkpt><trkpt lat="46.4961429" lon="12.6067191"><ele>1436.0</ele><time>2026-04-26T16:55:44.539Z</time></trkpt><trkpt lat="46.4960927" lon="12.6068205"><ele>1436.6666666666665</ele><time>2026-04-26T16:55:45.545Z</time></trkpt><trkpt lat="46.4960455" lon="12.6069137"><ele>1437.3333333333333</ele><time>2026-04-26T16:55:46.536Z</time></trkpt><trkpt lat="46.495981" lon="12.6070007"><ele>1438.0</ele><time>2026-04-26T16:55:47.546Z</time></trkpt><trkpt lat="46.4959117" lon="12.6070923"><ele>1436.6666666666665</ele><time>2026-04-26T16:55:48.541Z</time></trkpt><trkpt lat="46.4958424" lon="12.6071801"><ele>1435.3333333333333</ele><time>2026-04-26T16:55:49.542Z</time></trkpt><trkpt lat="46.4957802" lon="12.607264"><ele>1434.0</ele><time>2026-04-26T16:55:50.543Z</time></trkpt><trkpt lat="46.4957172" lon="12.6073348"><ele>1432.6666666666667</ele><time>2026-04-26T16:55:51.538Z</time></trkpt><trkpt lat="46.4956567" lon="12.6074153"><ele>1431.3333333333335</ele><time>2026-04-26T16:55:52.544Z</time></trkpt><trkpt lat="46.4956025" lon="12.6075007"><ele>1430.0</ele><time>2026-04-26T16:55:53.538Z</time></trkpt><trkpt lat="46.4955577" lon="12.6075852"><ele>1430.0</ele><time>2026-04-26T16:55:54.546Z</time></trkpt><trkpt lat="46.4955211" lon="12.6076716"><ele>1430.0</ele><time>2026-04-26T16:55:55.54Z</time></trkpt><trkpt lat="46.4954813" lon="12.6077433"><ele>1430.0</ele><time>2026-04-26T16:55:56.536Z</time></trkpt><trkpt lat="46.4954272" lon="12.6078754"><ele>1430.0</ele><time>2026-04-26T16:55:58.534Z</time></trkpt><trkpt lat="46.4954052" lon="12.6079733"><ele>1430.0</ele><time>2026-04-26T16:56:00.545Z</time></trkpt><trkpt lat="46.4953864" lon="12.6080696"><ele>1430.0</ele><time>2026-04-26T16:56:02.533Z</time></trkpt><trkpt lat="46.4953883" lon="12.6082089"><ele>1429.6666666666667</ele><time>2026-04-26T16:56:05.537Z</time></trkpt><trkpt lat="46.4953941" lon="12.6083095"><ele>1429.3333333333335</ele><time>2026-04-26T16:56:07.541Z</time></trkpt><trkpt lat="46.4953929" lon="12.6084259"><ele>1429.0</ele><time>2026-04-26T16:56:09.539Z</time></trkpt><trkpt lat="46.4953983" lon="12.6085457"><ele>1428.6666666666667</ele><time>2026-04-26T16:56:11.536Z</time></trkpt><trkpt lat="46.4954442" lon="12.6086613"><ele>1428.3333333333333</ele><time>2026-04-26T16:56:13.537Z</time></trkpt><trkpt lat="46.4955337" lon="12.6087591"><ele>1428.0</ele><time>2026-04-26T16:56:15.534Z</time></trkpt><trkpt lat="46.4956053" lon="12.6088104"><ele>1428.0</ele><time>2026-04-26T16:56:16.535Z</time></trkpt><trkpt lat="46.4956791" lon="12.6088594"><ele>1428.0</ele><time>2026-04-26T16:56:17.544Z</time></trkpt><trkpt lat="46.4957418" lon="12.6089056"><ele>1428.0</ele><time>2026-04-26T16:56:18.541Z</time></trkpt><trkpt lat="46.4958003" lon="12.6089551"><ele>1428.0</ele><time>2026-04-26T16:56:19.538Z</time></trkpt><trkpt lat="46.4958564" lon="12.6090274"><ele>1428.0</ele><time>2026-04-26T16:56:20.54Z</time></trkpt><trkpt lat="46.4959098" lon="12.6091103"><ele>1428.0</ele><time>2026-04-26T16:56:21.539Z</time></trkpt><trkpt lat="46.4959579" lon="12.6092156"><ele>1428.0</ele><time>2026-04-26T16:56:22.553Z</time></trkpt><trkpt lat="46.4960076" lon="12.6093315"><ele>1428.0</ele><time>2026-04-26T16:56:23.537Z</time></trkpt><trkpt lat="46.4960579" lon="12.6094477"><ele>1428.0</ele><time>2026-04-26T16:56:24.539Z</time></trkpt><trkpt lat="46.496101" lon="12.6095594"><ele>1428.0</ele><time>2026-04-26T16:56:25.534Z</time></trkpt><trkpt lat="46.4961324" lon="12.6096698"><ele>1428.0</ele><time>2026-04-26T16:56:26.545Z</time></trkpt><trkpt lat="46.4961659" lon="12.6097835"><ele>1428.0</ele><time>2026-04-26T16:56:27.54Z</time></trkpt><trkpt lat="46.4962173" lon="12.609901"><ele>1428.6000000000001</ele><time>2026-04-26T16:56:28.543Z</time></trkpt><trkpt lat="46.4962799" lon="12.610012"><ele>1429.2</ele><time>2026-04-26T16:56:29.546Z</time></trkpt><trkpt lat="46.4963446" lon="12.6101313"><ele>1429.8</ele><time>2026-04-26T16:56:30.539Z</time></trkpt><trkpt lat="46.4964015" lon="12.6102423"><ele>1430.4</ele><time>2026-04-26T16:56:31.546Z</time></trkpt><trkpt lat="46.4964544" lon="12.6103582"><ele>1431.0</ele><time>2026-04-26T16:56:32.542Z</time></trkpt><trkpt lat="46.4964955" lon="12.6104598"><ele>1432.0</ele><time>2026-04-26T16:56:33.535Z</time></trkpt><trkpt lat="46.4965288" lon="12.6105677"><ele>1433.0</ele><time>2026-04-26T16:56:34.54Z</time></trkpt><trkpt lat="46.496562" lon="12.6106731"><ele>1434.0</ele><time>2026-04-26T16:56:35.542Z</time></trkpt><trkpt lat="46.496588" lon="12.6107898"><ele>1435.0</ele><time>2026-04-26T16:56:36.536Z</time></trkpt><trkpt lat="46.4966177" lon="12.61091"><ele>1436.0</ele><time>2026-04-26T16:56:37.55Z</time></trkpt><trkpt lat="46.4966487" lon="12.6110322"><ele>1437.0</ele><time>2026-04-26T16:56:38.538Z</time></trkpt><trkpt lat="46.4966887" lon="12.6111442"><ele>1437.7142857142858</ele><time>2026-04-26T16:56:39.543Z</time></trkpt><trkpt lat="46.4967262" lon="12.6112418"><ele>1438.4285714285713</ele><time>2026-04-26T16:56:40.535Z</time></trkpt><trkpt lat="46.4967607" lon="12.611336"><ele>1439.142857142857</ele><time>2026-04-26T16:56:41.534Z</time></trkpt><trkpt lat="46.4967924" lon="12.6114264"><ele>1439.857142857143</ele><time>2026-04-26T16:56:42.536Z</time></trkpt><trkpt lat="46.4968146" lon="12.6115216"><ele>1440.5714285714284</ele><time>2026-04-26T16:56:43.538Z</time></trkpt><trkpt lat="46.4968229" lon="12.6116331"><ele>1441.2857142857142</ele><time>2026-04-26T16:56:44.535Z</time></trkpt><trkpt lat="46.4968311" lon="12.6117484"><ele>1442.0</ele><time>2026-04-26T16:56:45.551Z</time></trkpt><trkpt lat="46.4968621" lon="12.6118679"><ele>1443.8</ele><time>2026-04-26T16:56:46.543Z</time></trkpt><trkpt lat="46.496898" lon="12.6119922"><ele>1445.6</ele><time>2026-04-26T16:56:47.548Z</time></trkpt><trkpt lat="46.4969427" lon="12.6121221"><ele>1447.3999999999999</ele><time>2026-04-26T16:56:48.542Z</time></trkpt><trkpt lat="46.4969888" lon="12.6122475"><ele>1449.1999999999998</ele><time>2026-04-26T16:56:49.541Z</time></trkpt><trkpt lat="46.4970345" lon="12.6123757"><ele>1451.0</ele><time>2026-04-26T16:56:50.539Z</time></trkpt><trkpt lat="46.4970836" lon="12.6125019"><ele>1449.6666666666667</ele><time>2026-04-26T16:56:51.541Z</time></trkpt><trkpt lat="46.4971341" lon="12.6126187"><ele>1448.3333333333335</ele><time>2026-04-26T16:56:52.544Z</time></trkpt><trkpt lat="46.4971789" lon="12.6127378"><ele>1447.0</ele><time>2026-04-26T16:56:53.543Z</time></trkpt><trkpt lat="46.4972265" lon="12.6128572"><ele>1445.6666666666667</ele><time>2026-04-26T16:56:54.542Z</time></trkpt><trkpt lat="46.4972664" lon="12.6129643"><ele>1444.3333333333333</ele><time>2026-04-26T16:56:55.548Z</time></trkpt><trkpt lat="46.4972971" lon="12.6130616"><ele>1443.0</ele><time>2026-04-26T16:56:56.539Z</time></trkpt><trkpt lat="46.4973281" lon="12.6131452"><ele>1443.0</ele><time>2026-04-26T16:56:57.536Z</time></trkpt><trkpt lat="46.4973464" lon="12.6132649"><ele>1443.0</ele><time>2026-04-26T16:56:59.542Z</time></trkpt><trkpt lat="46.4973516" lon="12.6133639"><ele>1443.0</ele><time>2026-04-26T16:57:01.536Z</time></trkpt><trkpt lat="46.497368" lon="12.6135024"><ele>1443.0</ele><time>2026-04-26T16:57:04.542Z</time></trkpt><trkpt lat="46.497357" lon="12.6136351"><ele>1443.0</ele><time>2026-04-26T16:57:06.541Z</time></trkpt><trkpt lat="46.4973446" lon="12.6137548"><ele>1443.0</ele><time>2026-04-26T16:57:08.539Z</time></trkpt><trkpt lat="46.4974053" lon="12.6138553"><ele>1443.1666666666667</ele><time>2026-04-26T16:57:10.545Z</time></trkpt><trkpt lat="46.4974997" lon="12.6139211"><ele>1443.3333333333333</ele><time>2026-04-26T16:57:12.538Z</time></trkpt><trkpt lat="46.4976039" lon="12.6139379"><ele>1443.5</ele><time>2026-04-26T16:57:14.542Z</time></trkpt><trkpt lat="46.4976737" lon="12.6139613"><ele>1443.6666666666665</ele><time>2026-04-26T16:57:17.538Z</time></trkpt><trkpt lat="46.4977425" lon="12.6140306"><ele>1443.8333333333333</ele><time>2026-04-26T16:57:20.535Z</time></trkpt><trkpt lat="46.4977752" lon="12.614112"><ele>1444.0</ele><time>2026-04-26T16:57:22.542Z</time></trkpt><trkpt lat="46.4978614" lon="12.6142542"><ele>1444.3333333333333</ele><time>2026-04-26T16:57:24.536Z</time></trkpt><trkpt lat="46.4979255" lon="12.6143402"><ele>1444.6666666666665</ele><time>2026-04-26T16:57:25.541Z</time></trkpt><trkpt lat="46.4979875" lon="12.6144252"><ele>1445.0</ele><time>2026-04-26T16:57:26.539Z</time></trkpt><trkpt lat="46.4980316" lon="12.6145114"><ele>1445.3333333333333</ele><time>2026-04-26T16:57:27.54Z</time></trkpt><trkpt lat="46.4980703" lon="12.6145991"><ele>1445.6666666666667</ele><time>2026-04-26T16:57:28.538Z</time></trkpt><trkpt lat="46.4981098" lon="12.6147083"><ele>1446.0</ele><time>2026-04-26T16:57:29.538Z</time></trkpt><trkpt lat="46.4981467" lon="12.6148187"><ele>1446.0</ele><time>2026-04-26T16:57:30.534Z</time></trkpt><trkpt lat="46.4981883" lon="12.6149305"><ele>1446.0</ele><time>2026-04-26T16:57:31.55Z</time></trkpt><trkpt lat="46.4982412" lon="12.6150498"><ele>1446.0</ele><time>2026-04-26T16:57:32.54Z</time></trkpt><trkpt lat="46.4983075" lon="12.6151686"><ele>1446.0</ele><time>2026-04-26T16:57:33.538Z</time></trkpt><trkpt lat="46.4983742" lon="12.6152909"><ele>1446.0</ele><time>2026-04-26T16:57:34.541Z</time></trkpt><trkpt lat="46.4984276" lon="12.6154114"><ele>1448.8</ele><time>2026-04-26T16:57:35.542Z</time></trkpt><trkpt lat="46.4984838" lon="12.6155262"><ele>1451.6</ele><time>2026-04-26T16:57:36.536Z</time></trkpt><trkpt lat="46.4985359" lon="12.6156378"><ele>1454.4</ele><time>2026-04-26T16:57:37.54Z</time></trkpt><trkpt lat="46.498595" lon="12.6157709"><ele>1457.2</ele><time>2026-04-26T16:57:38.542Z</time></trkpt><trkpt lat="46.4986535" lon="12.6159004"><ele>1460.0</ele><time>2026-04-26T16:57:39.538Z</time></trkpt><trkpt lat="46.4987164" lon="12.6160143"><ele>1460.6</ele><time>2026-04-26T16:57:40.537Z</time></trkpt><trkpt lat="46.4987739" lon="12.6161456"><ele>1461.2</ele><time>2026-04-26T16:57:41.53Z</time></trkpt><trkpt lat="46.4988329" lon="12.6162776"><ele>1461.8000000000002</ele><time>2026-04-26T16:57:42.543Z</time></trkpt><trkpt lat="46.4988845" lon="12.6164088"><ele>1462.4</ele><time>2026-04-26T16:57:43.544Z</time></trkpt><trkpt lat="46.4989396" lon="12.6165288"><ele>1463.0</ele><time>2026-04-26T16:57:44.536Z</time></trkpt><trkpt lat="46.498999" lon="12.6166433"><ele>1463.0</ele><time>2026-04-26T16:57:45.532Z</time></trkpt><trkpt lat="46.4990631" lon="12.6167522"><ele>1463.0</ele><time>2026-04-26T16:57:46.538Z</time></trkpt><trkpt lat="46.4991251" lon="12.6168575"><ele>1463.0</ele><time>2026-04-26T16:57:47.536Z</time></trkpt><trkpt lat="46.4991779" lon="12.6169631"><ele>1463.0</ele><time>2026-04-26T16:57:48.536Z</time></trkpt><trkpt lat="46.4992379" lon="12.617068"><ele>1463.0</ele><time>2026-04-26T16:57:49.542Z</time></trkpt><trkpt lat="46.499307" lon="12.6171602"><ele>1465.0</ele><time>2026-04-26T16:57:50.543Z</time></trkpt><trkpt lat="46.499389" lon="12.6172503"><ele>1467.0</ele><time>2026-04-26T16:57:51.537Z</time></trkpt><trkpt lat="46.4994912" lon="12.6173107"><ele>1469.0</ele><time>2026-04-26T16:57:52.545Z</time></trkpt><trkpt lat="46.499606" lon="12.6173412"><ele>1471.0</ele><time>2026-04-26T16:57:53.534Z</time></trkpt><trkpt lat="46.4997077" lon="12.6173494"><ele>1473.0</ele><time>2026-04-26T16:57:54.538Z</time></trkpt><trkpt lat="46.4997932" lon="12.6173537"><ele>1473.0</ele><time>2026-04-26T16:57:55.54Z</time></trkpt><trkpt lat="46.4998669" lon="12.6173759"><ele>1473.0</ele><time>2026-04-26T16:57:56.533Z</time></trkpt><trkpt lat="46.499938" lon="12.617408"><ele>1473.0</ele><time>2026-04-26T16:57:57.546Z</time></trkpt><trkpt lat="46.5000193" lon="12.6174689"><ele>1473.0</ele><time>2026-04-26T16:57:58.538Z</time></trkpt><trkpt lat="46.5000952" lon="12.6175408"><ele>1473.0</ele><time>2026-04-26T16:57:59.534Z</time></trkpt><trkpt lat="46.500169" lon="12.6176063"><ele>1473.0</ele><time>2026-04-26T16:58:00.544Z</time></trkpt><trkpt lat="46.5002358" lon="12.6176625"><ele>1473.0</ele><time>2026-04-26T16:58:01.537Z</time></trkpt><trkpt lat="46.5003016" lon="12.6176998"><ele>1473.0</ele><time>2026-04-26T16:58:02.548Z</time></trkpt><trkpt lat="46.5004018" lon="12.617701"><ele>1473.0</ele><time>2026-04-26T16:58:04.543Z</time></trkpt><trkpt lat="46.5005101" lon="12.6176216"><ele>1473.0</ele><time>2026-04-26T16:58:06.538Z</time></trkpt><trkpt lat="46.5005716" lon="12.6174793"><ele>1473.0</ele><time>2026-04-26T16:58:08.538Z</time></trkpt><trkpt lat="46.5005965" lon="12.6173909"><ele>1476.4285714285713</ele><time>2026-04-26T16:58:09.55Z</time></trkpt><trkpt lat="46.5006187" lon="12.6172943"><ele>1479.857142857143</ele><time>2026-04-26T16:58:10.539Z</time></trkpt><trkpt lat="46.5006446" lon="12.6172026"><ele>1483.2857142857142</ele><time>2026-04-26T16:58:11.535Z</time></trkpt><trkpt lat="46.5006753" lon="12.6171009"><ele>1486.7142857142858</ele><time>2026-04-26T16:58:12.534Z</time></trkpt><trkpt lat="46.500705" lon="12.6169977"><ele>1490.142857142857</ele><time>2026-04-26T16:58:13.546Z</time></trkpt><trkpt lat="46.500737" lon="12.6168881"><ele>1493.5714285714284</ele><time>2026-04-26T16:58:14.538Z</time></trkpt><trkpt lat="46.5007655" lon="12.6167863"><ele>1497.0</ele><time>2026-04-26T16:58:15.542Z</time></trkpt><trkpt lat="46.5007827" lon="12.6166773"><ele>1497.0</ele><time>2026-04-26T16:58:16.541Z</time></trkpt><trkpt lat="46.5008096" lon="12.6165275"><ele>1497.0</ele><time>2026-04-26T16:58:18.542Z</time></trkpt><trkpt lat="46.5008775" lon="12.616543"><ele>1497.0</ele><time>2026-04-26T16:58:22.536Z</time></trkpt><trkpt lat="46.5008905" lon="12.6166722"><ele>1497.0</ele><time>2026-04-26T16:58:24.54Z</time></trkpt><trkpt lat="46.5008848" lon="12.6167799"><ele>1497.0</ele><time>2026-04-26T16:58:25.537Z</time></trkpt><trkpt lat="46.5008845" lon="12.6168939"><ele>1497.0</ele><time>2026-04-26T16:58:26.543Z</time></trkpt><trkpt lat="46.5008865" lon="12.6170269"><ele>1497.6666666666667</ele><time>2026-04-26T16:58:27.54Z</time></trkpt><trkpt lat="46.5008822" lon="12.6171529"><ele>1498.3333333333333</ele><time>2026-04-26T16:58:28.539Z</time></trkpt><trkpt lat="46.5008771" lon="12.6172843"><ele>1499.0</ele><time>2026-04-26T16:58:29.536Z</time></trkpt><trkpt lat="46.5008719" lon="12.6174119"><ele>1499.6666666666665</ele><time>2026-04-26T16:58:30.531Z</time></trkpt><trkpt lat="46.50087" lon="12.6175364"><ele>1500.3333333333333</ele><time>2026-04-26T16:58:31.543Z</time></trkpt><trkpt lat="46.5008672" lon="12.6176656"><ele>1501.0</ele><time>2026-04-26T16:58:32.54Z</time></trkpt><trkpt lat="46.5008667" lon="12.6177955"><ele>1504.1999999999998</ele><time>2026-04-26T16:58:33.543Z</time></trkpt><trkpt lat="46.5008604" lon="12.6179384"><ele>1507.3999999999999</ele><time>2026-04-26T16:58:34.537Z</time></trkpt><trkpt lat="46.5008555" lon="12.6180897"><ele>1510.6</ele><time>2026-04-26T16:58:35.54Z</time></trkpt><trkpt lat="46.5008449" lon="12.6182419"><ele>1513.8</ele><time>2026-04-26T16:58:36.54Z</time></trkpt><trkpt lat="46.5008354" lon="12.6184017"><ele>1517.0</ele><time>2026-04-26T16:58:37.536Z</time></trkpt><trkpt lat="46.500832" lon="12.6185648"><ele>1518.1999999999998</ele><time>2026-04-26T16:58:38.541Z</time></trkpt><trkpt lat="46.5008277" lon="12.6187291"><ele>1519.4</ele><time>2026-04-26T16:58:39.541Z</time></trkpt><trkpt lat="46.5008181" lon="12.6188748"><ele>1520.6</ele><time>2026-04-26T16:58:40.537Z</time></trkpt><trkpt lat="46.5008118" lon="12.619013"><ele>1521.8000000000002</ele><time>2026-04-26T16:58:41.535Z</time></trkpt><trkpt lat="46.5007866" lon="12.6191554"><ele>1523.0</ele><time>2026-04-26T16:58:42.537Z</time></trkpt><trkpt lat="46.5007408" lon="12.6192754"><ele>1523.0</ele><time>2026-04-26T16:58:43.536Z</time></trkpt><trkpt lat="46.5006866" lon="12.6194039"><ele>1523.0</ele><time>2026-04-26T16:58:44.538Z</time></trkpt><trkpt lat="46.5006164" lon="12.6195202"><ele>1523.0</ele><time>2026-04-26T16:58:45.531Z</time></trkpt><trkpt lat="46.5005544" lon="12.6196316"><ele>1523.0</ele><time>2026-04-26T16:58:46.536Z</time></trkpt><trkpt lat="46.5004935" lon="12.6197382"><ele>1523.0</ele><time>2026-04-26T16:58:47.54Z</time></trkpt><trkpt lat="46.5004389" lon="12.6198416"><ele>1521.5</ele><time>2026-04-26T16:58:48.54Z</time></trkpt><trkpt lat="46.5003788" lon="12.6199517"><ele>1520.0</ele><time>2026-04-26T16:58:49.546Z</time></trkpt><trkpt lat="46.5003268" lon="12.6200524"><ele>1518.5</ele><time>2026-04-26T16:58:50.532Z</time></trkpt><trkpt lat="46.5002902" lon="12.6201454"><ele>1517.0</ele><time>2026-04-26T16:58:51.546Z</time></trkpt><trkpt lat="46.5002579" lon="12.620259"><ele>1515.5</ele><time>2026-04-26T16:58:52.54Z</time></trkpt><trkpt lat="46.5002376" lon="12.6203805"><ele>1514.0</ele><time>2026-04-26T16:58:53.542Z</time></trkpt><trkpt lat="46.5002253" lon="12.6205196"><ele>1514.0</ele><time>2026-04-26T16:58:54.541Z</time></trkpt><trkpt lat="46.5002195" lon="12.6206573"><ele>1514.0</ele><time>2026-04-26T16:58:55.542Z</time></trkpt><trkpt lat="46.5002223" lon="12.6207853"><ele>1514.0</ele><time>2026-04-26T16:58:56.538Z</time></trkpt><trkpt lat="46.5002294" lon="12.6208973"><ele>1514.0</ele><time>2026-04-26T16:58:57.543Z</time></trkpt><trkpt lat="46.5002399" lon="12.6210145"><ele>1514.0</ele><time>2026-04-26T16:58:58.545Z</time></trkpt><trkpt lat="46.5002494" lon="12.6211319"><ele>1514.0</ele><time>2026-04-26T16:58:59.545Z</time></trkpt><trkpt lat="46.5002796" lon="12.6212571"><ele>1515.4</ele><time>2026-04-26T16:59:00.542Z</time></trkpt><trkpt lat="46.5003243" lon="12.6213831"><ele>1516.8000000000002</ele><time>2026-04-26T16:59:01.538Z</time></trkpt><trkpt lat="46.5003695" lon="12.6215096"><ele>1518.1999999999998</ele><time>2026-04-26T16:59:02.535Z</time></trkpt><trkpt lat="46.5004237" lon="12.6216297"><ele>1519.6</ele><time>2026-04-26T16:59:03.536Z</time></trkpt><trkpt lat="46.5004853" lon="12.6217351"><ele>1521.0</ele><time>2026-04-26T16:59:04.544Z</time></trkpt><trkpt lat="46.5005444" lon="12.6218494"><ele>1522.6666666666667</ele><time>2026-04-26T16:59:05.535Z</time></trkpt><trkpt lat="46.5006066" lon="12.6219577"><ele>1524.3333333333333</ele><time>2026-04-26T16:59:06.54Z</time></trkpt><trkpt lat="46.5006639" lon="12.6220625"><ele>1526.0</ele><time>2026-04-26T16:59:07.545Z</time></trkpt><trkpt lat="46.5007108" lon="12.622162"><ele>1527.6666666666665</ele><time>2026-04-26T16:59:08.539Z</time></trkpt><trkpt lat="46.5007582" lon="12.6222415"><ele>1529.3333333333333</ele><time>2026-04-26T16:59:09.548Z</time></trkpt><trkpt lat="46.5008017" lon="12.622327"><ele>1531.0</ele><time>2026-04-26T16:59:10.543Z</time></trkpt><trkpt lat="46.5008218" lon="12.6224292"><ele>1531.0</ele><time>2026-04-26T16:59:11.546Z</time></trkpt><trkpt lat="46.5008135" lon="12.6225371"><ele>1531.0</ele><time>2026-04-26T16:59:12.555Z</time></trkpt><trkpt lat="46.5008012" lon="12.6226509"><ele>1531.0</ele><time>2026-04-26T16:59:13.537Z</time></trkpt><trkpt lat="46.5007863" lon="12.6227687"><ele>1531.0</ele><time>2026-04-26T16:59:14.536Z</time></trkpt><trkpt lat="46.5007603" lon="12.6228904"><ele>1531.0</ele><time>2026-04-26T16:59:15.543Z</time></trkpt><trkpt lat="46.5007239" lon="12.6230319"><ele>1531.0</ele><time>2026-04-26T16:59:16.537Z</time></trkpt><trkpt lat="46.5006987" lon="12.6231717"><ele>1532.4</ele><time>2026-04-26T16:59:17.542Z</time></trkpt><trkpt lat="46.5006747" lon="12.6232969"><ele>1533.8</ele><time>2026-04-26T16:59:18.537Z</time></trkpt><trkpt lat="46.500646" lon="12.6234188"><ele>1535.2</ele><time>2026-04-26T16:59:19.546Z</time></trkpt><trkpt lat="46.5006035" lon="12.6235376"><ele>1536.6000000000001</ele><time>2026-04-26T16:59:20.538Z</time></trkpt><trkpt lat="46.5005638" lon="12.6236663"><ele>1538.0</ele><time>2026-04-26T16:59:21.55Z</time></trkpt><trkpt lat="46.5005234" lon="12.623786"><ele>1538.2</ele><time>2026-04-26T16:59:22.537Z</time></trkpt><trkpt lat="46.5004776" lon="12.6239075"><ele>1538.4</ele><time>2026-04-26T16:59:23.551Z</time></trkpt><trkpt lat="46.5004409" lon="12.62402"><ele>1538.6000000000001</ele><time>2026-04-26T16:59:24.536Z</time></trkpt><trkpt lat="46.5004138" lon="12.6241432"><ele>1538.8000000000002</ele><time>2026-04-26T16:59:25.541Z</time></trkpt><trkpt lat="46.5003811" lon="12.6242691"><ele>1539.0</ele><time>2026-04-26T16:59:26.541Z</time></trkpt><trkpt lat="46.5003499" lon="12.6243996"><ele>1541.2</ele><time>2026-04-26T16:59:27.547Z</time></trkpt><trkpt lat="46.5003323" lon="12.6245325"><ele>1543.4</ele><time>2026-04-26T16:59:28.538Z</time></trkpt><trkpt lat="46.5003171" lon="12.6246627"><ele>1545.6</ele><time>2026-04-26T16:59:29.549Z</time></trkpt><trkpt lat="46.5003121" lon="12.6248021"><ele>1547.8</ele><time>2026-04-26T16:59:30.539Z</time></trkpt><trkpt lat="46.5003205" lon="12.6249441"><ele>1550.0</ele><time>2026-04-26T16:59:31.544Z</time></trkpt><trkpt lat="46.5003193" lon="12.6250694"><ele>1549.9999999999998</ele><time>2026-04-26T16:59:32.539Z</time></trkpt><trkpt lat="46.5003199" lon="12.6252008"><ele>1550.0</ele><time>2026-04-26T16:59:33.537Z</time></trkpt><trkpt lat="46.500322" lon="12.6253233"><ele>1550.0</ele><time>2026-04-26T16:59:34.542Z</time></trkpt><trkpt lat="46.5003229" lon="12.6254166"><ele>1550.0</ele><time>2026-04-26T16:59:35.545Z</time></trkpt><trkpt lat="46.5003161" lon="12.625569"><ele>1549.9999999999998</ele><time>2026-04-26T16:59:37.546Z</time></trkpt><trkpt lat="46.5003183" lon="12.6256836"><ele>1550.0</ele><time>2026-04-26T16:59:39.543Z</time></trkpt><trkpt lat="46.5003108" lon="12.6258208"><ele>1550.2</ele><time>2026-04-26T16:59:41.541Z</time></trkpt><trkpt lat="46.5003121" lon="12.625943"><ele>1550.4</ele><time>2026-04-26T16:59:43.557Z</time></trkpt><trkpt lat="46.5003077" lon="12.6260988"><ele>1550.6</ele><time>2026-04-26T16:59:45.532Z</time></trkpt><trkpt lat="46.5003241" lon="12.6262617"><ele>1550.8</ele><time>2026-04-26T16:59:47.543Z</time></trkpt><trkpt lat="46.5003465" lon="12.6264414"><ele>1551.0</ele><time>2026-04-26T16:59:49.541Z</time></trkpt><trkpt lat="46.500377" lon="12.6266283"><ele>1551.3333333333333</ele><time>2026-04-26T16:59:51.541Z</time></trkpt><trkpt lat="46.5003869" lon="12.6267396"><ele>1551.6666666666665</ele><time>2026-04-26T16:59:52.537Z</time></trkpt><trkpt lat="46.5004052" lon="12.6268444"><ele>1552.0</ele><time>2026-04-26T16:59:53.53Z</time></trkpt><trkpt lat="46.5004302" lon="12.6269504"><ele>1552.3333333333333</ele><time>2026-04-26T16:59:54.541Z</time></trkpt><trkpt lat="46.5004434" lon="12.627056"><ele>1552.6666666666665</ele><time>2026-04-26T16:59:55.537Z</time></trkpt><trkpt lat="46.5004552" lon="12.6271586"><ele>1553.0</ele><time>2026-04-26T16:59:56.549Z</time></trkpt><trkpt lat="46.5004708" lon="12.6272738"><ele>1552.9999999999998</ele><time>2026-04-26T16:59:57.541Z</time></trkpt><trkpt lat="46.5004853" lon="12.6273831"><ele>1553.0</ele><time>2026-04-26T16:59:58.538Z</time></trkpt><trkpt lat="46.5005033" lon="12.6274771"><ele>1553.0</ele><time>2026-04-26T16:59:59.537Z</time></trkpt><trkpt lat="46.5005292" lon="12.6275728"><ele>1553.0</ele><time>2026-04-26T17:00:00.538Z</time></trkpt><trkpt lat="46.5005568" lon="12.6276633"><ele>1552.9999999999998</ele><time>2026-04-26T17:00:01.534Z</time></trkpt><trkpt lat="46.5005957" lon="12.6278384"><ele>1553.0</ele><time>2026-04-26T17:00:03.534Z</time></trkpt><trkpt lat="46.5006167" lon="12.6280016"><ele>1552.5714285714284</ele><time>2026-04-26T17:00:05.537Z</time></trkpt><trkpt lat="46.5005874" lon="12.6280901"><ele>1552.142857142857</ele><time>2026-04-26T17:00:06.539Z</time></trkpt><trkpt lat="46.5005397" lon="12.6281595"><ele>1551.7142857142858</ele><time>2026-04-26T17:00:07.533Z</time></trkpt><trkpt lat="46.5004828" lon="12.628234"><ele>1551.2857142857142</ele><time>2026-04-26T17:00:08.542Z</time></trkpt><trkpt lat="46.5004215" lon="12.6283015"><ele>1550.857142857143</ele><time>2026-04-26T17:00:09.539Z</time></trkpt><trkpt lat="46.5003641" lon="12.6283589"><ele>1550.4285714285713</ele><time>2026-04-26T17:00:10.549Z</time></trkpt><trkpt lat="46.5002971" lon="12.6283984"><ele>1550.0</ele><time>2026-04-26T17:00:11.545Z</time></trkpt><trkpt lat="46.5002252" lon="12.6284418"><ele>1549.2</ele><time>2026-04-26T17:00:12.54Z</time></trkpt><trkpt lat="46.5001502" lon="12.6284807"><ele>1548.4</ele><time>2026-04-26T17:00:13.541Z</time></trkpt><trkpt lat="46.5000698" lon="12.6285208"><ele>1547.6</ele><time>2026-04-26T17:00:14.536Z</time></trkpt><trkpt lat="46.4999816" lon="12.6285621"><ele>1546.8</ele><time>2026-04-26T17:00:15.542Z</time></trkpt><trkpt lat="46.4998904" lon="12.6286055"><ele>1546.0</ele><time>2026-04-26T17:00:16.543Z</time></trkpt><trkpt lat="46.4997992" lon="12.6286553"><ele>1545.4</ele><time>2026-04-26T17:00:17.549Z</time></trkpt><trkpt lat="46.4997081" lon="12.6286987"><ele>1544.8</ele><time>2026-04-26T17:00:18.542Z</time></trkpt><trkpt lat="46.4996042" lon="12.6287468"><ele>1544.2</ele><time>2026-04-26T17:00:19.539Z</time></trkpt><trkpt lat="46.4995016" lon="12.6288108"><ele>1543.6000000000001</ele><time>2026-04-26T17:00:20.541Z</time></trkpt><trkpt lat="46.4993917" lon="12.6288657"><ele>1543.0</ele><time>2026-04-26T17:00:21.538Z</time></trkpt><trkpt lat="46.4992861" lon="12.6289088"><ele>1543.0000000000002</ele><time>2026-04-26T17:00:22.547Z</time></trkpt><trkpt lat="46.4991834" lon="12.6289509"><ele>1543.0</ele><time>2026-04-26T17:00:23.538Z</time></trkpt><trkpt lat="46.499096" lon="12.6289864"><ele>1543.0</ele><time>2026-04-26T17:00:24.549Z</time></trkpt><trkpt lat="46.4990098" lon="12.6290145"><ele>1543.0</ele><time>2026-04-26T17:00:25.544Z</time></trkpt><trkpt lat="46.4989341" lon="12.6290113"><ele>1543.0000000000002</ele><time>2026-04-26T17:00:26.537Z</time></trkpt><trkpt lat="46.4988581" lon="12.6289917"><ele>1543.0</ele><time>2026-04-26T17:00:27.541Z</time></trkpt><trkpt lat="46.4987968" lon="12.6289366"><ele>1542.6666666666667</ele><time>2026-04-26T17:00:28.531Z</time></trkpt><trkpt lat="46.4987455" lon="12.6288602"><ele>1542.3333333333335</ele><time>2026-04-26T17:00:29.539Z</time></trkpt><trkpt lat="46.4986731" lon="12.6287203"><ele>1542.0</ele><time>2026-04-26T17:00:31.541Z</time></trkpt><trkpt lat="46.4986408" lon="12.62863"><ele>1541.6666666666665</ele><time>2026-04-26T17:00:32.54Z</time></trkpt><trkpt lat="46.4986149" lon="12.628527"><ele>1541.3333333333333</ele><time>2026-04-26T17:00:33.542Z</time></trkpt><trkpt lat="46.4985927" lon="12.6284231"><ele>1541.0</ele><time>2026-04-26T17:00:34.542Z</time></trkpt><trkpt lat="46.4985754" lon="12.628331"><ele>1542.0</ele><time>2026-04-26T17:00:35.537Z</time></trkpt><trkpt lat="46.4985185" lon="12.6281842"><ele>1543.0</ele><time>2026-04-26T17:00:37.546Z</time></trkpt><trkpt lat="46.4984723" lon="12.6280769"><ele>1544.0</ele><time>2026-04-26T17:00:39.55Z</time></trkpt><trkpt lat="46.4983917" lon="12.6279105"><ele>1545.0</ele><time>2026-04-26T17:00:41.54Z</time></trkpt><trkpt lat="46.4983508" lon="12.6278004"><ele>1546.0</ele><time>2026-04-26T17:00:42.543Z</time></trkpt><trkpt lat="46.4983064" lon="12.6277131"><ele>1546.8</ele><time>2026-04-26T17:00:43.539Z</time></trkpt><trkpt lat="46.4982234" lon="12.6276613"><ele>1547.6</ele><time>2026-04-26T17:00:44.543Z</time></trkpt><trkpt lat="46.4981248" lon="12.6276441"><ele>1548.4</ele><time>2026-04-26T17:00:45.542Z</time></trkpt><trkpt lat="46.4980217" lon="12.6276752"><ele>1549.2</ele><time>2026-04-26T17:00:46.547Z</time></trkpt><trkpt lat="46.4979133" lon="12.6277601"><ele>1550.0</ele><time>2026-04-26T17:00:47.537Z</time></trkpt><trkpt lat="46.497806" lon="12.627854"><ele>1552.75</ele><time>2026-04-26T17:00:48.537Z</time></trkpt><trkpt lat="46.4976858" lon="12.6279605"><ele>1555.5</ele><time>2026-04-26T17:00:49.545Z</time></trkpt><trkpt lat="46.4975521" lon="12.6280638"><ele>1558.25</ele><time>2026-04-26T17:00:50.538Z</time></trkpt><trkpt lat="46.4974252" lon="12.6281712"><ele>1561.0</ele><time>2026-04-26T17:00:51.548Z</time></trkpt><trkpt lat="46.4973141" lon="12.6282852"><ele>1561.0</ele><time>2026-04-26T17:00:52.535Z</time></trkpt><trkpt lat="46.4972158" lon="12.6284233"><ele>1561.0</ele><time>2026-04-26T17:00:53.543Z</time></trkpt><trkpt lat="46.4971215" lon="12.6285797"><ele>1561.0</ele><time>2026-04-26T17:00:54.539Z</time></trkpt><trkpt lat="46.4970355" lon="12.6287547"><ele>1561.0</ele><time>2026-04-26T17:00:55.538Z</time></trkpt><trkpt lat="46.4969468" lon="12.6289316"><ele>1565.6666666666667</ele><time>2026-04-26T17:00:56.536Z</time></trkpt><trkpt lat="46.4968396" lon="12.6291397"><ele>1570.3333333333335</ele><time>2026-04-26T17:00:57.547Z</time></trkpt><trkpt lat="46.4967477" lon="12.6293802"><ele>1575.0</ele><time>2026-04-26T17:00:58.537Z</time></trkpt><trkpt lat="46.4966765" lon="12.6296393"><ele>1575.0</ele><time>2026-04-26T17:00:59.536Z</time></trkpt><trkpt lat="46.4966117" lon="12.6299024"><ele>1575.0</ele><time>2026-04-26T17:01:00.534Z</time></trkpt><trkpt lat="46.4965484" lon="12.6301553"><ele>1575.0</ele><time>2026-04-26T17:01:01.546Z</time></trkpt><trkpt lat="46.4964819" lon="12.6303896"><ele>1573.0</ele><time>2026-04-26T17:01:02.537Z</time></trkpt><trkpt lat="46.4964331" lon="12.6306398"><ele>1571.0</ele><time>2026-04-26T17:01:03.548Z</time></trkpt><trkpt lat="46.4964029" lon="12.6308732"><ele>1569.0</ele><time>2026-04-26T17:01:04.546Z</time></trkpt><trkpt lat="46.4963979" lon="12.6310801"><ele>1567.6</ele><time>2026-04-26T17:01:05.538Z</time></trkpt><trkpt lat="46.4964015" lon="12.6312691"><ele>1566.2</ele><time>2026-04-26T17:01:06.543Z</time></trkpt><trkpt lat="46.4963972" lon="12.6314333"><ele>1564.8</ele><time>2026-04-26T17:01:07.544Z</time></trkpt><trkpt lat="46.4963842" lon="12.6315814"><ele>1563.3999999999999</ele><time>2026-04-26T17:01:08.535Z</time></trkpt><trkpt lat="46.4963443" lon="12.6317193"><ele>1562.0</ele><time>2026-04-26T17:01:09.549Z</time></trkpt><trkpt lat="46.496273" lon="12.6318568"><ele>1566.6</ele><time>2026-04-26T17:01:10.543Z</time></trkpt><trkpt lat="46.4961819" lon="12.6319685"><ele>1571.1999999999998</ele><time>2026-04-26T17:01:11.54Z</time></trkpt><trkpt lat="46.4961041" lon="12.6320364"><ele>1575.8</ele><time>2026-04-26T17:01:12.542Z</time></trkpt><trkpt lat="46.4960246" lon="12.6320736"><ele>1580.4</ele><time>2026-04-26T17:01:13.542Z</time></trkpt><trkpt lat="46.4959474" lon="12.6320697"><ele>1585.0</ele><time>2026-04-26T17:01:14.536Z</time></trkpt><trkpt lat="46.4958713" lon="12.6320047"><ele>1586.8</ele><time>2026-04-26T17:01:15.538Z</time></trkpt><trkpt lat="46.4958055" lon="12.6319115"><ele>1588.6</ele><time>2026-04-26T17:01:16.547Z</time></trkpt><trkpt lat="46.495787" lon="12.6317894"><ele>1590.4</ele><time>2026-04-26T17:01:17.539Z</time></trkpt><trkpt lat="46.4958066" lon="12.6316298"><ele>1592.2</ele><time>2026-04-26T17:01:18.543Z</time></trkpt><trkpt lat="46.4958488" lon="12.6314568"><ele>1594.0</ele><time>2026-04-26T17:01:19.535Z</time></trkpt><trkpt lat="46.4958955" lon="12.6312935"><ele>1596.75</ele><time>2026-04-26T17:01:20.536Z</time></trkpt><trkpt lat="46.4959521" lon="12.6311319"><ele>1599.5</ele><time>2026-04-26T17:01:21.545Z</time></trkpt><trkpt lat="46.4960053" lon="12.6309935"><ele>1602.25</ele><time>2026-04-26T17:01:22.54Z</time></trkpt><trkpt lat="46.4960261" lon="12.6308247"><ele>1605.0</ele><time>2026-04-26T17:01:23.534Z</time></trkpt><trkpt lat="46.4960169" lon="12.6306036"><ele>1605.0</ele><time>2026-04-26T17:01:24.54Z</time></trkpt><trkpt lat="46.4960064" lon="12.6303868"><ele>1605.0</ele><time>2026-04-26T17:01:25.538Z</time></trkpt><trkpt lat="46.4959925" lon="12.6301588"><ele>1605.0</ele><time>2026-04-26T17:01:26.544Z</time></trkpt><trkpt lat="46.4959783" lon="12.6299002"><ele>1608.3333333333335</ele><time>2026-04-26T17:01:27.542Z</time></trkpt><trkpt lat="46.4959574" lon="12.6296372"><ele>1611.6666666666667</ele><time>2026-04-26T17:01:28.55Z</time></trkpt><trkpt lat="46.4959476" lon="12.6293687"><ele>1615.0</ele><time>2026-04-26T17:01:29.536Z</time></trkpt><trkpt lat="46.4959514" lon="12.6291139"><ele>1617.3333333333335</ele><time>2026-04-26T17:01:30.539Z</time></trkpt><trkpt lat="46.4959589" lon="12.6288685"><ele>1619.6666666666665</ele><time>2026-04-26T17:01:31.542Z</time></trkpt><trkpt lat="46.4959648" lon="12.6286316"><ele>1622.0</ele><time>2026-04-26T17:01:32.534Z</time></trkpt><trkpt lat="46.495977" lon="12.6284236"><ele>1621.75</ele><time>2026-04-26T17:01:33.545Z</time></trkpt><trkpt lat="46.4959848" lon="12.6282384"><ele>1621.5</ele><time>2026-04-26T17:01:34.54Z</time></trkpt><trkpt lat="46.4959764" lon="12.6280495"><ele>1621.25</ele><time>2026-04-26T17:01:35.538Z</time></trkpt><trkpt lat="46.4959528" lon="12.627852"><ele>1621.0</ele><time>2026-04-26T17:01:36.539Z</time></trkpt><trkpt lat="46.4959253" lon="12.6276437"><ele>1621.0</ele><time>2026-04-26T17:01:37.54Z</time></trkpt><trkpt lat="46.4958771" lon="12.6274247"><ele>1621.0</ele><time>2026-04-26T17:01:38.548Z</time></trkpt><trkpt lat="46.4958196" lon="12.6272049"><ele>1621.0</ele><time>2026-04-26T17:01:39.545Z</time></trkpt><trkpt lat="46.495752" lon="12.6269764"><ele>1618.0</ele><time>2026-04-26T17:01:40.542Z</time></trkpt><trkpt lat="46.4956865" lon="12.6267511"><ele>1615.0</ele><time>2026-04-26T17:01:41.543Z</time></trkpt><trkpt lat="46.4956257" lon="12.6265324"><ele>1612.0</ele><time>2026-04-26T17:01:42.538Z</time></trkpt><trkpt lat="46.4955856" lon="12.6263181"><ele>1611.3333333333335</ele><time>2026-04-26T17:01:43.541Z</time></trkpt><trkpt lat="46.4955648" lon="12.6260964"><ele>1610.6666666666665</ele><time>2026-04-26T17:01:44.542Z</time></trkpt><trkpt lat="46.495542" lon="12.6258621"><ele>1610.0</ele><time>2026-04-26T17:01:45.556Z</time></trkpt><trkpt lat="46.4955132" lon="12.6256317"><ele>1610.0</ele><time>2026-04-26T17:01:46.542Z</time></trkpt><trkpt lat="46.4954719" lon="12.6254235"><ele>1610.0</ele><time>2026-04-26T17:01:47.541Z</time></trkpt><trkpt lat="46.4954053" lon="12.6252324"><ele>1610.0</ele><time>2026-04-26T17:01:48.538Z</time></trkpt><trkpt lat="46.4953298" lon="12.6250298"><ele>1611.75</ele><time>2026-04-26T17:01:49.54Z</time></trkpt><trkpt lat="46.4952545" lon="12.6248412"><ele>1613.5</ele><time>2026-04-26T17:01:50.541Z</time></trkpt><trkpt lat="46.495189" lon="12.6246744"><ele>1615.25</ele><time>2026-04-26T17:01:51.544Z</time></trkpt><trkpt lat="46.4951304" lon="12.6245113"><ele>1617.0</ele><time>2026-04-26T17:01:52.544Z</time></trkpt><trkpt lat="46.4950666" lon="12.6243751"><ele>1617.0</ele><time>2026-04-26T17:01:53.552Z</time></trkpt><trkpt lat="46.4949856" lon="12.6242572"><ele>1617.0</ele><time>2026-04-26T17:01:54.542Z</time></trkpt><trkpt lat="46.4948963" lon="12.6241728"><ele>1617.0</ele><time>2026-04-26T17:01:55.543Z</time></trkpt><trkpt lat="46.4948057" lon="12.6240948"><ele>1617.0</ele><time>2026-04-26T17:01:56.536Z</time></trkpt><trkpt lat="46.4947308" lon="12.6240059"><ele>1617.0</ele><time>2026-04-26T17:01:57.547Z</time></trkpt><trkpt lat="46.4946778" lon="12.6238875"><ele>1617.0</ele><time>2026-04-26T17:01:58.55Z</time></trkpt><trkpt lat="46.494635" lon="12.6237301"><ele>1617.0</ele><time>2026-04-26T17:01:59.547Z</time></trkpt><trkpt lat="46.4945769" lon="12.6235698"><ele>1617.0</ele><time>2026-04-26T17:02:00.537Z</time></trkpt><trkpt lat="46.4945023" lon="12.6234291"><ele>1617.0</ele><time>2026-04-26T17:02:01.548Z</time></trkpt><trkpt lat="46.4944253" lon="12.6233097"><ele>1619.6</ele><time>2026-04-26T17:02:02.536Z</time></trkpt><trkpt lat="46.4943344" lon="12.6232225"><ele>1622.1999999999998</ele><time>2026-04-26T17:02:03.543Z</time></trkpt><trkpt lat="46.4942379" lon="12.623172"><ele>1624.8</ele><time>2026-04-26T17:02:04.541Z</time></trkpt><trkpt lat="46.4941483" lon="12.6231174"><ele>1627.4</ele><time>2026-04-26T17:02:05.541Z</time></trkpt><trkpt lat="46.4940751" lon="12.6230533"><ele>1630.0</ele><time>2026-04-26T17:02:06.554Z</time></trkpt><trkpt lat="46.4940103" lon="12.622952"><ele>1629.8</ele><time>2026-04-26T17:02:07.538Z</time></trkpt><trkpt lat="46.4939698" lon="12.6228137"><ele>1629.6</ele><time>2026-04-26T17:02:08.542Z</time></trkpt><trkpt lat="46.4939395" lon="12.6226627"><ele>1629.4</ele><time>2026-04-26T17:02:09.545Z</time></trkpt><trkpt lat="46.4938883" lon="12.6225543"><ele>1629.2</ele><time>2026-04-26T17:02:10.54Z</time></trkpt><trkpt lat="46.4938138" lon="12.6225019"><ele>1629.0</ele><time>2026-04-26T17:02:11.553Z</time></trkpt><trkpt lat="46.4937221" lon="12.6224871"><ele>1629.0</ele><time>2026-04-26T17:02:12.542Z</time></trkpt><trkpt lat="46.4936519" lon="12.6225206"><ele>1629.0</ele><time>2026-04-26T17:02:13.544Z</time></trkpt><trkpt lat="46.4935705" lon="12.6226034"><ele>1629.0</ele><time>2026-04-26T17:02:14.537Z</time></trkpt><trkpt lat="46.4934885" lon="12.6227005"><ele>1629.0</ele><time>2026-04-26T17:02:15.536Z</time></trkpt><trkpt lat="46.4933979" lon="12.6227547"><ele>1629.0</ele><time>2026-04-26T17:02:16.538Z</time></trkpt><trkpt lat="46.4932957" lon="12.6227619"><ele>1629.0</ele><time>2026-04-26T17:02:17.538Z</time></trkpt><trkpt lat="46.4931739" lon="12.6227445"><ele>1629.0</ele><time>2026-04-26T17:02:18.548Z</time></trkpt><trkpt lat="46.49306" lon="12.6227183"><ele>1629.0</ele><time>2026-04-26T17:02:19.544Z</time></trkpt><trkpt lat="46.4929556" lon="12.6226712"><ele>1629.0</ele><time>2026-04-26T17:02:20.533Z</time></trkpt><trkpt lat="46.4928787" lon="12.6225889"><ele>1629.0</ele><time>2026-04-26T17:02:21.538Z</time></trkpt><trkpt lat="46.4928098" lon="12.6224771"><ele>1633.75</ele><time>2026-04-26T17:02:22.537Z</time></trkpt><trkpt lat="46.4927318" lon="12.6223385"><ele>1638.5</ele><time>2026-04-26T17:02:23.539Z</time></trkpt><trkpt lat="46.4926449" lon="12.622202"><ele>1643.25</ele><time>2026-04-26T17:02:24.534Z</time></trkpt><trkpt lat="46.4925494" lon="12.6221144"><ele>1648.0</ele><time>2026-04-26T17:02:25.544Z</time></trkpt><trkpt lat="46.4924331" lon="12.6220411"><ele>1641.0</ele><time>2026-04-26T17:02:26.541Z</time></trkpt><trkpt lat="46.4922921" lon="12.621976"><ele>1634.0</ele><time>2026-04-26T17:02:27.533Z</time></trkpt><trkpt lat="46.4921398" lon="12.6219"><ele>1627.0</ele><time>2026-04-26T17:02:28.542Z</time></trkpt><trkpt lat="46.4919885" lon="12.6218147"><ele>1627.0</ele><time>2026-04-26T17:02:29.549Z</time></trkpt><trkpt lat="46.4918466" lon="12.6217496"><ele>1627.0</ele><time>2026-04-26T17:02:30.538Z</time></trkpt><trkpt lat="46.4917145" lon="12.6217"><ele>1627.0</ele><time>2026-04-26T17:02:31.54Z</time></trkpt><trkpt lat="46.4915967" lon="12.6216649"><ele>1627.0</ele><time>2026-04-26T17:02:32.541Z</time></trkpt><trkpt lat="46.4914829" lon="12.6216671"><ele>1627.0</ele><time>2026-04-26T17:02:33.536Z</time></trkpt><trkpt lat="46.4913756" lon="12.6217102"><ele>1627.0</ele><time>2026-04-26T17:02:34.549Z</time></trkpt><trkpt lat="46.491277" lon="12.6217992"><ele>1627.0</ele><time>2026-04-26T17:02:35.535Z</time></trkpt><trkpt lat="46.4911821" lon="12.621889"><ele>1627.0</ele><time>2026-04-26T17:02:36.538Z</time></trkpt><trkpt lat="46.4910838" lon="12.6219507"><ele>1627.0</ele><time>2026-04-26T17:02:37.54Z</time></trkpt><trkpt lat="46.4909913" lon="12.6219552"><ele>1627.0</ele><time>2026-04-26T17:02:38.536Z</time></trkpt><trkpt lat="46.4908828" lon="12.6219272"><ele>1627.0</ele><time>2026-04-26T17:02:39.536Z</time></trkpt><trkpt lat="46.490761" lon="12.6218742"><ele>1627.0</ele><time>2026-04-26T17:02:40.545Z</time></trkpt><trkpt lat="46.4906509" lon="12.6218213"><ele>1627.0</ele><time>2026-04-26T17:02:41.546Z</time></trkpt><trkpt lat="46.4905601" lon="12.6217653"><ele>1627.0</ele><time>2026-04-26T17:02:42.542Z</time></trkpt><trkpt lat="46.4904847" lon="12.6216842"><ele>1627.0</ele><time>2026-04-26T17:02:43.553Z</time></trkpt><trkpt lat="46.490421" lon="12.62157"><ele>1627.0</ele><time>2026-04-26T17:02:44.538Z</time></trkpt><trkpt lat="46.4903755" lon="12.6214317"><ele>1627.0</ele><time>2026-04-26T17:02:45.538Z</time></trkpt><trkpt lat="46.4903236" lon="12.6213119"><ele>1627.0</ele><time>2026-04-26T17:02:46.543Z</time></trkpt><trkpt lat="46.4902462" lon="12.6212172"><ele>1628.75</ele><time>2026-04-26T17:02:47.544Z</time></trkpt><trkpt lat="46.4901323" lon="12.6211585"><ele>1630.5</ele><time>2026-04-26T17:02:48.547Z</time></trkpt><trkpt lat="46.4900048" lon="12.6211042"><ele>1632.25</ele><time>2026-04-26T17:02:49.538Z</time></trkpt><trkpt lat="46.4898809" lon="12.6210411"><ele>1634.0</ele><time>2026-04-26T17:02:50.543Z</time></trkpt><trkpt lat="46.489767" lon="12.620952"><ele>1634.0</ele><time>2026-04-26T17:02:51.537Z</time></trkpt><trkpt lat="46.4896653" lon="12.6208345"><ele>1634.0</ele><time>2026-04-26T17:02:52.536Z</time></trkpt><trkpt lat="46.4895718" lon="12.6207268"><ele>1634.0</ele><time>2026-04-26T17:02:53.549Z</time></trkpt><trkpt lat="46.4894721" lon="12.6206426"><ele>1634.0</ele><time>2026-04-26T17:02:54.535Z</time></trkpt><trkpt lat="46.4893417" lon="12.6205848"><ele>1640.3333333333333</ele><time>2026-04-26T17:02:55.548Z</time></trkpt><trkpt lat="46.4891912" lon="12.620555"><ele>1646.6666666666665</ele><time>2026-04-26T17:02:56.541Z</time></trkpt><trkpt lat="46.4890292" lon="12.6205257"><ele>1653.0</ele><time>2026-04-26T17:02:57.539Z</time></trkpt><trkpt lat="46.4888582" lon="12.6204955"><ele>1658.6666666666665</ele><time>2026-04-26T17:02:58.543Z</time></trkpt><trkpt lat="46.4886912" lon="12.6204595"><ele>1664.3333333333333</ele><time>2026-04-26T17:02:59.543Z</time></trkpt><trkpt lat="46.4885131" lon="12.620417"><ele>1670.0</ele><time>2026-04-26T17:03:00.547Z</time></trkpt><trkpt lat="46.4883419" lon="12.620356"><ele>1662.6666666666665</ele><time>2026-04-26T17:03:01.541Z</time></trkpt><trkpt lat="46.4881756" lon="12.6202668"><ele>1655.3333333333335</ele><time>2026-04-26T17:03:02.536Z</time></trkpt><trkpt lat="46.4880361" lon="12.6201906"><ele>1648.0</ele><time>2026-04-26T17:03:03.542Z</time></trkpt><trkpt lat="46.4878976" lon="12.6201257"><ele>1648.0</ele><time>2026-04-26T17:03:04.536Z</time></trkpt><trkpt lat="46.4877519" lon="12.6200899"><ele>1648.0</ele><time>2026-04-26T17:03:05.549Z</time></trkpt><trkpt lat="46.4876002" lon="12.6200989"><ele>1648.0</ele><time>2026-04-26T17:03:06.538Z</time></trkpt><trkpt lat="46.4874641" lon="12.6201244"><ele>1648.0</ele><time>2026-04-26T17:03:07.538Z</time></trkpt><trkpt lat="46.4873403" lon="12.620149"><ele>1648.0</ele><time>2026-04-26T17:03:08.536Z</time></trkpt><trkpt lat="46.4872226" lon="12.6201776"><ele>1648.0</ele><time>2026-04-26T17:03:09.54Z</time></trkpt><trkpt lat="46.4871213" lon="12.6201957"><ele>1648.0</ele><time>2026-04-26T17:03:10.535Z</time></trkpt><trkpt lat="46.4870345" lon="12.6202059"><ele>1648.0</ele><time>2026-04-26T17:03:11.54Z</time></trkpt><trkpt lat="46.4869554" lon="12.6201676"><ele>1648.0</ele><time>2026-04-26T17:03:12.541Z</time></trkpt><trkpt lat="46.4869026" lon="12.6200931"><ele>1652.0</ele><time>2026-04-26T17:03:13.54Z</time></trkpt><trkpt lat="46.4868625" lon="12.6199997"><ele>1656.0</ele><time>2026-04-26T17:03:14.541Z</time></trkpt><trkpt lat="46.4868408" lon="12.6198773"><ele>1660.0</ele><time>2026-04-26T17:03:15.545Z</time></trkpt><trkpt lat="46.4868558" lon="12.6197668"><ele>1664.0</ele><time>2026-04-26T17:03:16.538Z</time></trkpt><trkpt lat="46.4869062" lon="12.6196455"><ele>1668.0</ele><time>2026-04-26T17:03:17.554Z</time></trkpt><trkpt lat="46.4869777" lon="12.6194907"><ele>1675.3333333333335</ele><time>2026-04-26T17:03:18.537Z</time></trkpt><trkpt lat="46.487036" lon="12.6193049"><ele>1682.6666666666667</ele><time>2026-04-26T17:03:19.547Z</time></trkpt><trkpt lat="46.4870759" lon="12.6190946"><ele>1690.0</ele><time>2026-04-26T17:03:20.539Z</time></trkpt><trkpt lat="46.4871121" lon="12.6188643"><ele>1681.75</ele><time>2026-04-26T17:03:21.539Z</time></trkpt><trkpt lat="46.4871505" lon="12.6186729"><ele>1673.5</ele><time>2026-04-26T17:03:22.539Z</time></trkpt><trkpt lat="46.4871988" lon="12.6185132"><ele>1665.25</ele><time>2026-04-26T17:03:23.54Z</time></trkpt><trkpt lat="46.4872833" lon="12.6183781"><ele>1657.0</ele><time>2026-04-26T17:03:24.547Z</time></trkpt><trkpt lat="46.4873767" lon="12.6182554"><ele>1657.0</ele><time>2026-04-26T17:03:25.544Z</time></trkpt><trkpt lat="46.4874581" lon="12.6181568"><ele>1657.0</ele><time>2026-04-26T17:03:26.544Z</time></trkpt><trkpt lat="46.4875068" lon="12.618052"><ele>1657.0</ele><time>2026-04-26T17:03:27.541Z</time></trkpt><trkpt lat="46.4875295" lon="12.6179425"><ele>1657.0</ele><time>2026-04-26T17:03:28.547Z</time></trkpt><trkpt lat="46.4875046" lon="12.6178257"><ele>1657.0</ele><time>2026-04-26T17:03:29.542Z</time></trkpt><trkpt lat="46.4874538" lon="12.6176984"><ele>1657.75</ele><time>2026-04-26T17:03:30.552Z</time></trkpt><trkpt lat="46.4873782" lon="12.6175774"><ele>1658.5</ele><time>2026-04-26T17:03:31.537Z</time></trkpt><trkpt lat="46.4872762" lon="12.6174751"><ele>1659.25</ele><time>2026-04-26T17:03:32.54Z</time></trkpt><trkpt lat="46.4871588" lon="12.6174043"><ele>1660.0</ele><time>2026-04-26T17:03:33.543Z</time></trkpt><trkpt lat="46.4870189" lon="12.6173508"><ele>1667.75</ele><time>2026-04-26T17:03:34.539Z</time></trkpt><trkpt lat="46.486869" lon="12.6173279"><ele>1675.5</ele><time>2026-04-26T17:03:35.551Z</time></trkpt><trkpt lat="46.4867301" lon="12.6173155"><ele>1683.25</ele><time>2026-04-26T17:03:36.545Z</time></trkpt><trkpt lat="46.4866256" lon="12.6172879"><ele>1691.0</ele><time>2026-04-26T17:03:37.54Z</time></trkpt><trkpt lat="46.4865661" lon="12.6172441"><ele>1691.0</ele><time>2026-04-26T17:03:38.545Z</time></trkpt><trkpt lat="46.4864879" lon="12.6171035"><ele>1691.0</ele><time>2026-04-26T17:03:40.539Z</time></trkpt><trkpt lat="46.4864872" lon="12.6169887"><ele>1691.0</ele><time>2026-04-26T17:03:41.535Z</time></trkpt><trkpt lat="46.4864933" lon="12.616834"><ele>1691.0</ele><time>2026-04-26T17:03:42.546Z</time></trkpt><trkpt lat="46.4865" lon="12.6166474"><ele>1691.0</ele><time>2026-04-26T17:03:43.541Z</time></trkpt><trkpt lat="46.4864918" lon="12.6164526"><ele>1690.8</ele><time>2026-04-26T17:03:44.549Z</time></trkpt><trkpt lat="46.4864752" lon="12.6162688"><ele>1690.6</ele><time>2026-04-26T17:03:45.542Z</time></trkpt><trkpt lat="46.486432" lon="12.6161144"><ele>1690.4</ele><time>2026-04-26T17:03:46.541Z</time></trkpt><trkpt lat="46.4863796" lon="12.6159771"><ele>1690.2</ele><time>2026-04-26T17:03:47.539Z</time></trkpt><trkpt lat="46.4863538" lon="12.6158584"><ele>1690.0</ele><time>2026-04-26T17:03:48.544Z</time></trkpt><trkpt lat="46.4863602" lon="12.6157326"><ele>1690.0</ele><time>2026-04-26T17:03:49.543Z</time></trkpt><trkpt lat="46.4863894" lon="12.6155954"><ele>1690.0</ele><time>2026-04-26T17:03:50.542Z</time></trkpt><trkpt lat="46.4864281" lon="12.6154333"><ele>1690.0</ele><time>2026-04-26T17:03:51.541Z</time></trkpt><trkpt lat="46.4864652" lon="12.6152815"><ele>1690.0</ele><time>2026-04-26T17:03:52.549Z</time></trkpt><trkpt lat="46.4864755" lon="12.6151156"><ele>1690.0</ele><time>2026-04-26T17:03:53.544Z</time></trkpt><trkpt lat="46.4864607" lon="12.6149416"><ele>1692.0</ele><time>2026-04-26T17:03:54.542Z</time></trkpt><trkpt lat="46.4864415" lon="12.6147975"><ele>1694.0</ele><time>2026-04-26T17:03:55.54Z</time></trkpt><trkpt lat="46.4864046" lon="12.6146841"><ele>1696.0</ele><time>2026-04-26T17:03:56.546Z</time></trkpt><trkpt lat="46.4863504" lon="12.6145783"><ele>1698.0</ele><time>2026-04-26T17:03:57.553Z</time></trkpt><trkpt lat="46.4862594" lon="12.6144878"><ele>1700.0</ele><time>2026-04-26T17:03:58.545Z</time></trkpt><trkpt lat="46.4861453" lon="12.6144116"><ele>1705.25</ele><time>2026-04-26T17:03:59.537Z</time></trkpt><trkpt lat="46.4860448" lon="12.6143173"><ele>1710.5</ele><time>2026-04-26T17:04:00.546Z</time></trkpt><trkpt lat="46.48597" lon="12.6141755"><ele>1715.75</ele><time>2026-04-26T17:04:01.542Z</time></trkpt><trkpt lat="46.4859133" lon="12.6140041"><ele>1721.0</ele><time>2026-04-26T17:04:02.542Z</time></trkpt><trkpt lat="46.4858563" lon="12.6138207"><ele>1721.0</ele><time>2026-04-26T17:04:03.535Z</time></trkpt><trkpt lat="46.4857956" lon="12.6136579"><ele>1721.0</ele><time>2026-04-26T17:04:04.535Z</time></trkpt><trkpt lat="46.4857251" lon="12.6135087"><ele>1721.0</ele><time>2026-04-26T17:04:05.536Z</time></trkpt><trkpt lat="46.485644" lon="12.6133805"><ele>1721.0</ele><time>2026-04-26T17:04:06.534Z</time></trkpt><trkpt lat="46.4855772" lon="12.613273"><ele>1720.4999999999998</ele><time>2026-04-26T17:04:07.547Z</time></trkpt><trkpt lat="46.4855114" lon="12.6132005"><ele>1720.0</ele><time>2026-04-26T17:04:08.534Z</time></trkpt><trkpt lat="46.4854442" lon="12.6131604"><ele>1719.5</ele><time>2026-04-26T17:04:09.549Z</time></trkpt><trkpt lat="46.4853639" lon="12.6131614"><ele>1719.0</ele><time>2026-04-26T17:04:10.545Z</time></trkpt><trkpt lat="46.485283" lon="12.6132215"><ele>1718.4999999999998</ele><time>2026-04-26T17:04:11.548Z</time></trkpt><trkpt lat="46.4852038" lon="12.6133223"><ele>1718.0</ele><time>2026-04-26T17:04:12.535Z</time></trkpt><trkpt lat="46.4851185" lon="12.6134094"><ele>1718.0</ele><time>2026-04-26T17:04:13.536Z</time></trkpt><trkpt lat="46.4850325" lon="12.6134713"><ele>1718.0000000000002</ele><time>2026-04-26T17:04:14.53Z</time></trkpt><trkpt lat="46.4849367" lon="12.6135051"><ele>1718.0000000000002</ele><time>2026-04-26T17:04:15.536Z</time></trkpt><trkpt lat="46.4848423" lon="12.6134977"><ele>1718.0</ele><time>2026-04-26T17:04:16.533Z</time></trkpt><trkpt lat="46.4847195" lon="12.6134623"><ele>1718.0</ele><time>2026-04-26T17:04:17.542Z</time></trkpt><trkpt lat="46.4845791" lon="12.6134003"><ele>1719.6666666666665</ele><time>2026-04-26T17:04:18.539Z</time></trkpt><trkpt lat="46.4844254" lon="12.6133517"><ele>1721.3333333333335</ele><time>2026-04-26T17:04:19.543Z</time></trkpt><trkpt lat="46.4842558" lon="12.6132979"><ele>1723.0</ele><time>2026-04-26T17:04:20.529Z</time></trkpt><trkpt lat="46.484081" lon="12.6132463"><ele>1723.0</ele><time>2026-04-26T17:04:21.543Z</time></trkpt><trkpt lat="46.4839062" lon="12.6132075"><ele>1723.0</ele><time>2026-04-26T17:04:22.537Z</time></trkpt><trkpt lat="46.4837336" lon="12.6131737"><ele>1723.0</ele><time>2026-04-26T17:04:23.547Z</time></trkpt><trkpt lat="46.4835807" lon="12.6131436"><ele>1726.25</ele><time>2026-04-26T17:04:24.535Z</time></trkpt><trkpt lat="46.4834476" lon="12.6131171"><ele>1729.5</ele><time>2026-04-26T17:04:25.536Z</time></trkpt><trkpt lat="46.4833217" lon="12.6130886"><ele>1732.75</ele><time>2026-04-26T17:04:26.536Z</time></trkpt><trkpt lat="46.483219" lon="12.6130376"><ele>1736.0</ele><time>2026-04-26T17:04:27.529Z</time></trkpt><trkpt lat="46.4831359" lon="12.6129382"><ele>1736.0</ele><time>2026-04-26T17:04:28.537Z</time></trkpt><trkpt lat="46.4830473" lon="12.612825"><ele>1736.0</ele><time>2026-04-26T17:04:29.536Z</time></trkpt><trkpt lat="46.4829493" lon="12.6127225"><ele>1736.0</ele><time>2026-04-26T17:04:30.532Z</time></trkpt><trkpt lat="46.4828147" lon="12.6126285"><ele>1736.0</ele><time>2026-04-26T17:04:31.536Z</time></trkpt><trkpt lat="46.4826593" lon="12.6125574"><ele>1731.3333333333333</ele><time>2026-04-26T17:04:32.534Z</time></trkpt><trkpt lat="46.482498" lon="12.612488"><ele>1726.6666666666665</ele><time>2026-04-26T17:04:33.535Z</time></trkpt><trkpt lat="46.4823524" lon="12.6124213"><ele>1722.0</ele><time>2026-04-26T17:04:34.537Z</time></trkpt><trkpt lat="46.4821974" lon="12.6123645"><ele>1722.0</ele><time>2026-04-26T17:04:35.547Z</time></trkpt><trkpt lat="46.4820329" lon="12.6123218"><ele>1722.0</ele><time>2026-04-26T17:04:36.536Z</time></trkpt><trkpt lat="46.4818658" lon="12.6122918"><ele>1722.0</ele><time>2026-04-26T17:04:37.539Z</time></trkpt><trkpt lat="46.4816964" lon="12.612284"><ele>1722.0</ele><time>2026-04-26T17:04:38.536Z</time></trkpt><trkpt lat="46.4815219" lon="12.61227"><ele>1722.0</ele><time>2026-04-26T17:04:39.538Z</time></trkpt><trkpt lat="46.4813398" lon="12.6122492"><ele>1722.0</ele><time>2026-04-26T17:04:40.544Z</time></trkpt><trkpt lat="46.4811539" lon="12.612237"><ele>1722.0</ele><time>2026-04-26T17:04:41.541Z</time></trkpt><trkpt lat="46.4809659" lon="12.6122243"><ele>1722.0</ele><time>2026-04-26T17:04:42.538Z</time></trkpt><trkpt lat="46.4807809" lon="12.6122123"><ele>1722.0</ele><time>2026-04-26T17:04:43.536Z</time></trkpt><trkpt lat="46.4806121" lon="12.6122021"><ele>1722.0</ele><time>2026-04-26T17:04:44.539Z</time></trkpt><trkpt lat="46.4804631" lon="12.6121906"><ele>1722.0</ele><time>2026-04-26T17:04:45.541Z</time></trkpt><trkpt lat="46.4803268" lon="12.612178"><ele>1722.0</ele><time>2026-04-26T17:04:46.54Z</time></trkpt><trkpt lat="46.480195" lon="12.6121679"><ele>1722.0</ele><time>2026-04-26T17:04:47.54Z</time></trkpt><trkpt lat="46.480063" lon="12.6121619"><ele>1722.8</ele><time>2026-04-26T17:04:48.549Z</time></trkpt><trkpt lat="46.4799376" lon="12.6121602"><ele>1723.6</ele><time>2026-04-26T17:04:49.54Z</time></trkpt><trkpt lat="46.4798088" lon="12.6121514"><ele>1724.3999999999999</ele><time>2026-04-26T17:04:50.538Z</time></trkpt><trkpt lat="46.4797061" lon="12.6121407"><ele>1725.1999999999998</ele><time>2026-04-26T17:04:51.546Z</time></trkpt><trkpt lat="46.4796362" lon="12.6121234"><ele>1726.0</ele><time>2026-04-26T17:04:52.535Z</time></trkpt><trkpt lat="46.4795735" lon="12.6121055"><ele>1727.0</ele><time>2026-04-26T17:04:54.549Z</time></trkpt><trkpt lat="46.4795167" lon="12.6122218"><ele>1728.0</ele><time>2026-04-26T17:04:56.536Z</time></trkpt><trkpt lat="46.4794218" lon="12.6123815"><ele>1729.0</ele><time>2026-04-26T17:04:58.54Z</time></trkpt><trkpt lat="46.4793334" lon="12.6124593"><ele>1730.0</ele><time>2026-04-26T17:04:59.54Z</time></trkpt><trkpt lat="46.479219" lon="12.612537"><ele>1730.0</ele><time>2026-04-26T17:05:00.536Z</time></trkpt><trkpt lat="46.4790984" lon="12.6126152"><ele>1730.0</ele><time>2026-04-26T17:05:01.542Z</time></trkpt><trkpt lat="46.4789765" lon="12.6126855"><ele>1730.0</ele><time>2026-04-26T17:05:02.535Z</time></trkpt><trkpt lat="46.4788532" lon="12.6127565"><ele>1730.0</ele><time>2026-04-26T17:05:03.539Z</time></trkpt><trkpt lat="46.4787253" lon="12.6128358"><ele>1732.0</ele><time>2026-04-26T17:05:04.545Z</time></trkpt><trkpt lat="46.478614" lon="12.6129018"><ele>1734.0</ele><time>2026-04-26T17:05:05.536Z</time></trkpt><trkpt lat="46.4785261" lon="12.6129747"><ele>1736.0</ele><time>2026-04-26T17:05:06.546Z</time></trkpt><trkpt lat="46.478457" lon="12.6130679"><ele>1738.0</ele><time>2026-04-26T17:05:07.538Z</time></trkpt><trkpt lat="46.4784041" lon="12.6131865"><ele>1740.0</ele><time>2026-04-26T17:05:08.532Z</time></trkpt><trkpt lat="46.4783562" lon="12.6133352"><ele>1740.0</ele><time>2026-04-26T17:05:09.537Z</time></trkpt><trkpt lat="46.4782999" lon="12.6134957"><ele>1740.0</ele><time>2026-04-26T17:05:10.536Z</time></trkpt><trkpt lat="46.4782423" lon="12.6136653"><ele>1740.0</ele><time>2026-04-26T17:05:11.534Z</time></trkpt><trkpt lat="46.4781776" lon="12.6138391"><ele>1740.0</ele><time>2026-04-26T17:05:12.54Z</time></trkpt><trkpt lat="46.4781076" lon="12.6140143"><ele>1739.25</ele><time>2026-04-26T17:05:13.54Z</time></trkpt><trkpt lat="46.4780322" lon="12.6141951"><ele>1738.5</ele><time>2026-04-26T17:05:14.538Z</time></trkpt><trkpt lat="46.4779636" lon="12.6143666"><ele>1737.75</ele><time>2026-04-26T17:05:15.535Z</time></trkpt><trkpt lat="46.4779031" lon="12.6145049"><ele>1737.0</ele><time>2026-04-26T17:05:16.544Z</time></trkpt><trkpt lat="46.4778365" lon="12.6146233"><ele>1740.0</ele><time>2026-04-26T17:05:17.541Z</time></trkpt><trkpt lat="46.477761" lon="12.6147222"><ele>1742.9999999999998</ele><time>2026-04-26T17:05:18.537Z</time></trkpt><trkpt lat="46.4776946" lon="12.6148231"><ele>1745.9999999999998</ele><time>2026-04-26T17:05:19.54Z</time></trkpt><trkpt lat="46.4776543" lon="12.6149415"><ele>1749.0</ele><time>2026-04-26T17:05:20.543Z</time></trkpt><trkpt lat="46.4776426" lon="12.6150858"><ele>1752.0</ele><time>2026-04-26T17:05:21.549Z</time></trkpt><trkpt lat="46.4776382" lon="12.6152602"><ele>1752.0</ele><time>2026-04-26T17:05:22.538Z</time></trkpt><trkpt lat="46.4776289" lon="12.6154538"><ele>1752.0</ele><time>2026-04-26T17:05:23.54Z</time></trkpt><trkpt lat="46.4775955" lon="12.6156585"><ele>1752.0</ele><time>2026-04-26T17:05:24.538Z</time></trkpt><trkpt lat="46.477544" lon="12.6158532"><ele>1752.0</ele><time>2026-04-26T17:05:25.54Z</time></trkpt><trkpt lat="46.477495" lon="12.6160474"><ele>1752.5</ele><time>2026-04-26T17:05:26.537Z</time></trkpt><trkpt lat="46.4774412" lon="12.6162338"><ele>1753.0</ele><time>2026-04-26T17:05:27.545Z</time></trkpt><trkpt lat="46.4773945" lon="12.6164194"><ele>1753.5</ele><time>2026-04-26T17:05:28.542Z</time></trkpt><trkpt lat="46.4773399" lon="12.6165992"><ele>1754.0</ele><time>2026-04-26T17:05:29.534Z</time></trkpt><trkpt lat="46.4772832" lon="12.6167769"><ele>1754.0</ele><time>2026-04-26T17:05:30.547Z</time></trkpt><trkpt lat="46.4772213" lon="12.6169559"><ele>1754.0</ele><time>2026-04-26T17:05:31.542Z</time></trkpt><trkpt lat="46.4771474" lon="12.6171248"><ele>1754.0</ele><time>2026-04-26T17:05:32.537Z</time></trkpt><trkpt lat="46.4770835" lon="12.617266"><ele>1754.0</ele><time>2026-04-26T17:05:33.542Z</time></trkpt><trkpt lat="46.4770205" lon="12.6174106"><ele>1754.75</ele><time>2026-04-26T17:05:34.534Z</time></trkpt><trkpt lat="46.4769863" lon="12.6175646"><ele>1755.5</ele><time>2026-04-26T17:05:35.555Z</time></trkpt><trkpt lat="46.4769747" lon="12.6177317"><ele>1756.25</ele><time>2026-04-26T17:05:36.538Z</time></trkpt><trkpt lat="46.4769872" lon="12.6179138"><ele>1757.0</ele><time>2026-04-26T17:05:37.543Z</time></trkpt><trkpt lat="46.477012" lon="12.6180916"><ele>1757.75</ele><time>2026-04-26T17:05:38.54Z</time></trkpt><trkpt lat="46.4770222" lon="12.6182588"><ele>1758.5</ele><time>2026-04-26T17:05:39.535Z</time></trkpt><trkpt lat="46.4769868" lon="12.6184223"><ele>1759.25</ele><time>2026-04-26T17:05:40.534Z</time></trkpt><trkpt lat="46.4769249" lon="12.6185619"><ele>1760.0</ele><time>2026-04-26T17:05:41.536Z</time></trkpt><trkpt lat="46.4768471" lon="12.6186904"><ele>1762.25</ele><time>2026-04-26T17:05:42.53Z</time></trkpt><trkpt lat="46.4767648" lon="12.6188335"><ele>1764.5</ele><time>2026-04-26T17:05:43.539Z</time></trkpt><trkpt lat="46.4766817" lon="12.6189877"><ele>1766.75</ele><time>2026-04-26T17:05:44.537Z</time></trkpt><trkpt lat="46.4765926" lon="12.6191421"><ele>1769.0</ele><time>2026-04-26T17:05:45.536Z</time></trkpt><trkpt lat="46.476505" lon="12.6193063"><ele>1769.0</ele><time>2026-04-26T17:05:46.541Z</time></trkpt><trkpt lat="46.4764134" lon="12.619455"><ele>1769.0</ele><time>2026-04-26T17:05:47.537Z</time></trkpt><trkpt lat="46.4763332" lon="12.6196038"><ele>1769.0</ele><time>2026-04-26T17:05:48.548Z</time></trkpt><trkpt lat="46.4762558" lon="12.6197241"><ele>1769.0</ele><time>2026-04-26T17:05:49.536Z</time></trkpt><trkpt lat="46.4762036" lon="12.6198369"><ele>1767.8333333333333</ele><time>2026-04-26T17:05:50.547Z</time></trkpt><trkpt lat="46.4761757" lon="12.6199387"><ele>1766.6666666666665</ele><time>2026-04-26T17:05:51.55Z</time></trkpt><trkpt lat="46.4761829" lon="12.6200405"><ele>1765.5</ele><time>2026-04-26T17:05:52.545Z</time></trkpt><trkpt lat="46.4762164" lon="12.6201465"><ele>1764.3333333333335</ele><time>2026-04-26T17:05:53.545Z</time></trkpt><trkpt lat="46.4762955" lon="12.6202477"><ele>1763.1666666666667</ele><time>2026-04-26T17:05:54.549Z</time></trkpt><trkpt lat="46.4763782" lon="12.6203211"><ele>1762.0</ele><time>2026-04-26T17:05:55.543Z</time></trkpt><trkpt lat="46.4764406" lon="12.6203847"><ele>1764.3999999999999</ele><time>2026-04-26T17:05:56.538Z</time></trkpt><trkpt lat="46.4764696" lon="12.6205739"><ele>1766.7999999999997</ele><time>2026-04-26T17:05:58.536Z</time></trkpt><trkpt lat="46.4764606" lon="12.6206861"><ele>1769.2</ele><time>2026-04-26T17:05:59.544Z</time></trkpt><trkpt lat="46.4763611" lon="12.6207964"><ele>1771.6</ele><time>2026-04-26T17:06:01.541Z</time></trkpt><trkpt lat="46.4762779" lon="12.6207915"><ele>1774.0</ele><time>2026-04-26T17:06:02.544Z</time></trkpt><trkpt lat="46.476194" lon="12.6207445"><ele>1774.0</ele><time>2026-04-26T17:06:03.538Z</time></trkpt><trkpt lat="46.4761154" lon="12.6206959"><ele>1774.0</ele><time>2026-04-26T17:06:04.531Z</time></trkpt><trkpt lat="46.4760391" lon="12.6206996"><ele>1774.0</ele><time>2026-04-26T17:06:05.529Z</time></trkpt><trkpt lat="46.4759384" lon="12.6207579"><ele>1774.0</ele><time>2026-04-26T17:06:06.534Z</time></trkpt><trkpt lat="46.4758522" lon="12.620858"><ele>1774.0</ele><time>2026-04-26T17:06:07.548Z</time></trkpt><trkpt lat="46.4757857" lon="12.6209784"><ele>1774.0</ele><time>2026-04-26T17:06:08.543Z</time></trkpt><trkpt lat="46.475735" lon="12.6211224"><ele>1774.0</ele><time>2026-04-26T17:06:09.535Z</time></trkpt><trkpt lat="46.4757058" lon="12.6213001"><ele>1774.0</ele><time>2026-04-26T17:06:10.542Z</time></trkpt><trkpt lat="46.4756939" lon="12.621491"><ele>1774.0</ele><time>2026-04-26T17:06:11.537Z</time></trkpt><trkpt lat="46.4756776" lon="12.621683"><ele>1777.25</ele><time>2026-04-26T17:06:12.545Z</time></trkpt><trkpt lat="46.4756521" lon="12.6218818"><ele>1780.5</ele><time>2026-04-26T17:06:13.546Z</time></trkpt><trkpt lat="46.475624" lon="12.6220795"><ele>1783.75</ele><time>2026-04-26T17:06:14.554Z</time></trkpt><trkpt lat="46.475592" lon="12.6222469"><ele>1787.0</ele><time>2026-04-26T17:06:15.547Z</time></trkpt><trkpt lat="46.47554" lon="12.6224026"><ele>1785.0</ele><time>2026-04-26T17:06:16.546Z</time></trkpt><trkpt lat="46.4754716" lon="12.6225515"><ele>1783.0</ele><time>2026-04-26T17:06:17.538Z</time></trkpt><trkpt lat="46.4754121" lon="12.6227043"><ele>1781.0</ele><time>2026-04-26T17:06:18.536Z</time></trkpt><trkpt lat="46.4753804" lon="12.6228677"><ele>1779.0</ele><time>2026-04-26T17:06:19.537Z</time></trkpt><trkpt lat="46.4753755" lon="12.6230564"><ele>1779.0</ele><time>2026-04-26T17:06:20.538Z</time></trkpt><trkpt lat="46.4753768" lon="12.6232476"><ele>1779.0</ele><time>2026-04-26T17:06:21.537Z</time></trkpt><trkpt lat="46.4753743" lon="12.6234162"><ele>1779.0</ele><time>2026-04-26T17:06:22.55Z</time></trkpt><trkpt lat="46.4753846" lon="12.6235566"><ele>1779.0</ele><time>2026-04-26T17:06:23.542Z</time></trkpt><trkpt lat="46.4754117" lon="12.6236787"><ele>1779.0</ele><time>2026-04-26T17:06:24.535Z</time></trkpt><trkpt lat="46.4754727" lon="12.6237814"><ele>1785.0</ele><time>2026-04-26T17:06:25.542Z</time></trkpt><trkpt lat="46.4755668" lon="12.623854"><ele>1791.0</ele><time>2026-04-26T17:06:26.538Z</time></trkpt><trkpt lat="46.4756733" lon="12.6238986"><ele>1797.0</ele><time>2026-04-26T17:06:27.534Z</time></trkpt><trkpt lat="46.4757455" lon="12.6239244"><ele>1803.0</ele><time>2026-04-26T17:06:28.542Z</time></trkpt><trkpt lat="46.4758037" lon="12.6240628"><ele>1809.0</ele><time>2026-04-26T17:06:30.545Z</time></trkpt><trkpt lat="46.4757843" lon="12.624187"><ele>1809.0</ele><time>2026-04-26T17:06:31.532Z</time></trkpt><trkpt lat="46.4757356" lon="12.6243106"><ele>1809.0</ele><time>2026-04-26T17:06:32.539Z</time></trkpt><trkpt lat="46.4756541" lon="12.6244327"><ele>1809.0</ele><time>2026-04-26T17:06:33.538Z</time></trkpt><trkpt lat="46.4755603" lon="12.6245534"><ele>1809.0</ele><time>2026-04-26T17:06:34.532Z</time></trkpt><trkpt lat="46.4754898" lon="12.6246792"><ele>1807.75</ele><time>2026-04-26T17:06:35.535Z</time></trkpt><trkpt lat="46.4754479" lon="12.6248403"><ele>1806.5</ele><time>2026-04-26T17:06:36.537Z</time></trkpt><trkpt lat="46.4754058" lon="12.6250328"><ele>1805.25</ele><time>2026-04-26T17:06:37.549Z</time></trkpt><trkpt lat="46.4753644" lon="12.6252608"><ele>1804.0</ele><time>2026-04-26T17:06:38.543Z</time></trkpt><trkpt lat="46.475315" lon="12.6255123"><ele>1804.0</ele><time>2026-04-26T17:06:39.533Z</time></trkpt><trkpt lat="46.4752506" lon="12.6257646"><ele>1804.0</ele><time>2026-04-26T17:06:40.547Z</time></trkpt><trkpt lat="46.4751839" lon="12.6260146"><ele>1804.0</ele><time>2026-04-26T17:06:41.535Z</time></trkpt><trkpt lat="46.4751016" lon="12.6262795"><ele>1806.3333333333335</ele><time>2026-04-26T17:06:42.533Z</time></trkpt><trkpt lat="46.4750233" lon="12.6265351"><ele>1808.6666666666665</ele><time>2026-04-26T17:06:43.534Z</time></trkpt><trkpt lat="46.4749491" lon="12.6267629"><ele>1811.0</ele><time>2026-04-26T17:06:44.545Z</time></trkpt><trkpt lat="46.4748786" lon="12.626974"><ele>1816.0</ele><time>2026-04-26T17:06:45.54Z</time></trkpt><trkpt lat="46.4747938" lon="12.6271744"><ele>1821.0</ele><time>2026-04-26T17:06:46.543Z</time></trkpt><trkpt lat="46.4746878" lon="12.62738"><ele>1826.0</ele><time>2026-04-26T17:06:47.539Z</time></trkpt><trkpt lat="46.4745798" lon="12.6275946"><ele>1819.6666666666665</ele><time>2026-04-26T17:06:48.538Z</time></trkpt><trkpt lat="46.4744817" lon="12.6278178"><ele>1813.3333333333335</ele><time>2026-04-26T17:06:49.541Z</time></trkpt><trkpt lat="46.4743857" lon="12.6280286"><ele>1807.0</ele><time>2026-04-26T17:06:50.537Z</time></trkpt><trkpt lat="46.4742926" lon="12.6282194"><ele>1807.0</ele><time>2026-04-26T17:06:51.555Z</time></trkpt><trkpt lat="46.4741842" lon="12.6284052"><ele>1807.0</ele><time>2026-04-26T17:06:52.54Z</time></trkpt><trkpt lat="46.4740707" lon="12.6285818"><ele>1807.0</ele><time>2026-04-26T17:06:53.55Z</time></trkpt><trkpt lat="46.4739635" lon="12.6287438"><ele>1808.75</ele><time>2026-04-26T17:06:54.544Z</time></trkpt><trkpt lat="46.4738725" lon="12.6288958"><ele>1810.5</ele><time>2026-04-26T17:06:55.541Z</time></trkpt><trkpt lat="46.4737997" lon="12.6290282"><ele>1812.25</ele><time>2026-04-26T17:06:56.538Z</time></trkpt><trkpt lat="46.4737523" lon="12.6291513"><ele>1814.0</ele><time>2026-04-26T17:06:57.542Z</time></trkpt><trkpt lat="46.4737176" lon="12.6292849"><ele>1806.5</ele><time>2026-04-26T17:06:58.543Z</time></trkpt><trkpt lat="46.4737016" lon="12.6294486"><ele>1799.0</ele><time>2026-04-26T17:06:59.536Z</time></trkpt><trkpt lat="46.4736931" lon="12.6296314"><ele>1791.5</ele><time>2026-04-26T17:07:00.54Z</time></trkpt><trkpt lat="46.4736895" lon="12.6298054"><ele>1784.0</ele><time>2026-04-26T17:07:01.544Z</time></trkpt><trkpt lat="46.4737192" lon="12.6299712"><ele>1791.6666666666665</ele><time>2026-04-26T17:07:02.536Z</time></trkpt><trkpt lat="46.4737793" lon="12.6301605"><ele>1799.3333333333335</ele><time>2026-04-26T17:07:03.55Z</time></trkpt><trkpt lat="46.4738438" lon="12.6303654"><ele>1807.0</ele><time>2026-04-26T17:07:04.543Z</time></trkpt><trkpt lat="46.4739282" lon="12.6305699"><ele>1807.0</ele><time>2026-04-26T17:07:05.541Z</time></trkpt><trkpt lat="46.474014" lon="12.6307702"><ele>1807.0</ele><time>2026-04-26T17:07:06.54Z</time></trkpt><trkpt lat="46.4740873" lon="12.6309702"><ele>1807.0</ele><time>2026-04-26T17:07:07.537Z</time></trkpt><trkpt lat="46.474144" lon="12.631173"><ele>1803.75</ele><time>2026-04-26T17:07:08.539Z</time></trkpt><trkpt lat="46.4741981" lon="12.6313557"><ele>1800.5</ele><time>2026-04-26T17:07:09.542Z</time></trkpt><trkpt lat="46.4742723" lon="12.6315092"><ele>1797.25</ele><time>2026-04-26T17:07:10.542Z</time></trkpt><trkpt lat="46.4743703" lon="12.6316531"><ele>1794.0</ele><time>2026-04-26T17:07:11.542Z</time></trkpt><trkpt lat="46.4744818" lon="12.631785"><ele>1794.0</ele><time>2026-04-26T17:07:12.543Z</time></trkpt><trkpt lat="46.4745907" lon="12.6319222"><ele>1794.0</ele><time>2026-04-26T17:07:13.541Z</time></trkpt><trkpt lat="46.4746805" lon="12.6320411"><ele>1794.0</ele><time>2026-04-26T17:07:14.54Z</time></trkpt><trkpt lat="46.4747426" lon="12.632155"><ele>1794.0</ele><time>2026-04-26T17:07:15.548Z</time></trkpt><trkpt lat="46.4747812" lon="12.6322918"><ele>1795.0</ele><time>2026-04-26T17:07:16.539Z</time></trkpt><trkpt lat="46.4747955" lon="12.6324534"><ele>1796.0</ele><time>2026-04-26T17:07:17.544Z</time></trkpt><trkpt lat="46.4748058" lon="12.632612"><ele>1797.0</ele><time>2026-04-26T17:07:18.534Z</time></trkpt><trkpt lat="46.4748309" lon="12.6327761"><ele>1798.0</ele><time>2026-04-26T17:07:19.542Z</time></trkpt><trkpt lat="46.4748879" lon="12.6329407"><ele>1798.0</ele><time>2026-04-26T17:07:20.548Z</time></trkpt><trkpt lat="46.4749689" lon="12.6331069"><ele>1798.0</ele><time>2026-04-26T17:07:21.542Z</time></trkpt><trkpt lat="46.4750408" lon="12.6332676"><ele>1798.0</ele><time>2026-04-26T17:07:22.548Z</time></trkpt><trkpt lat="46.4751002" lon="12.6334162"><ele>1798.0</ele><time>2026-04-26T17:07:23.545Z</time></trkpt><trkpt lat="46.4751569" lon="12.6335549"><ele>1798.0</ele><time>2026-04-26T17:07:24.538Z</time></trkpt><trkpt lat="46.4751821" lon="12.6337093"><ele>1798.0</ele><time>2026-04-26T17:07:25.539Z</time></trkpt><trkpt lat="46.4751717" lon="12.633878"><ele>1798.0</ele><time>2026-04-26T17:07:26.543Z</time></trkpt><trkpt lat="46.4751593" lon="12.6340591"><ele>1798.0</ele><time>2026-04-26T17:07:27.541Z</time></trkpt><trkpt lat="46.4751355" lon="12.6342519"><ele>1798.0</ele><time>2026-04-26T17:07:28.536Z</time></trkpt><trkpt lat="46.4751195" lon="12.6344527"><ele>1798.0</ele><time>2026-04-26T17:07:29.542Z</time></trkpt><trkpt lat="46.4751011" lon="12.6346549"><ele>1798.0</ele><time>2026-04-26T17:07:30.537Z</time></trkpt><trkpt lat="46.4750807" lon="12.6348628"><ele>1798.0</ele><time>2026-04-26T17:07:31.543Z</time></trkpt><trkpt lat="46.4750614" lon="12.6350561"><ele>1798.4</ele><time>2026-04-26T17:07:32.541Z</time></trkpt><trkpt lat="46.4750403" lon="12.6352306"><ele>1798.8000000000002</ele><time>2026-04-26T17:07:33.538Z</time></trkpt><trkpt lat="46.4750235" lon="12.6353906"><ele>1799.2</ele><time>2026-04-26T17:07:34.54Z</time></trkpt><trkpt lat="46.475008" lon="12.6355329"><ele>1799.6</ele><time>2026-04-26T17:07:35.537Z</time></trkpt><trkpt lat="46.474998" lon="12.6356634"><ele>1800.0</ele><time>2026-04-26T17:07:36.545Z</time></trkpt><trkpt lat="46.4749804" lon="12.6357927"><ele>1800.0</ele><time>2026-04-26T17:07:37.542Z</time></trkpt><trkpt lat="46.4749499" lon="12.6359198"><ele>1800.0</ele><time>2026-04-26T17:07:38.536Z</time></trkpt><trkpt lat="46.4748899" lon="12.6360287"><ele>1800.0</ele><time>2026-04-26T17:07:39.543Z</time></trkpt><trkpt lat="46.4748178" lon="12.6361437"><ele>1800.0</ele><time>2026-04-26T17:07:40.542Z</time></trkpt><trkpt lat="46.474728" lon="12.6362402"><ele>1800.0</ele><time>2026-04-26T17:07:41.542Z</time></trkpt><trkpt lat="46.4746379" lon="12.6363603"><ele>1799.75</ele><time>2026-04-26T17:07:42.538Z</time></trkpt><trkpt lat="46.4745333" lon="12.6364816"><ele>1799.5</ele><time>2026-04-26T17:07:43.543Z</time></trkpt><trkpt lat="46.4744372" lon="12.6366037"><ele>1799.25</ele><time>2026-04-26T17:07:44.544Z</time></trkpt><trkpt lat="46.4743585" lon="12.6367213"><ele>1799.0</ele><time>2026-04-26T17:07:45.533Z</time></trkpt><trkpt lat="46.4742901" lon="12.6368514"><ele>1800.5</ele><time>2026-04-26T17:07:46.543Z</time></trkpt><trkpt lat="46.4742424" lon="12.63701"><ele>1802.0</ele><time>2026-04-26T17:07:47.54Z</time></trkpt><trkpt lat="46.4742002" lon="12.6371966"><ele>1803.5</ele><time>2026-04-26T17:07:48.551Z</time></trkpt><trkpt lat="46.4741745" lon="12.6373875"><ele>1805.0</ele><time>2026-04-26T17:07:49.534Z</time></trkpt><trkpt lat="46.4741531" lon="12.6375868"><ele>1805.0</ele><time>2026-04-26T17:07:50.537Z</time></trkpt><trkpt lat="46.4741296" lon="12.6377779"><ele>1805.0</ele><time>2026-04-26T17:07:51.54Z</time></trkpt><trkpt lat="46.4741045" lon="12.6379708"><ele>1805.0</ele><time>2026-04-26T17:07:52.543Z</time></trkpt><trkpt lat="46.4740505" lon="12.6381513"><ele>1805.0</ele><time>2026-04-26T17:07:53.543Z</time></trkpt><trkpt lat="46.4739709" lon="12.6383245"><ele>1806.0</ele><time>2026-04-26T17:07:54.551Z</time></trkpt><trkpt lat="46.473886" lon="12.6385053"><ele>1807.0</ele><time>2026-04-26T17:07:55.536Z</time></trkpt><trkpt lat="46.473807" lon="12.6386743"><ele>1808.0</ele><time>2026-04-26T17:07:56.54Z</time></trkpt><trkpt lat="46.4737413" lon="12.6388211"><ele>1809.0</ele><time>2026-04-26T17:07:57.538Z</time></trkpt><trkpt lat="46.4736819" lon="12.6389503"><ele>1807.2</ele><time>2026-04-26T17:07:58.536Z</time></trkpt><trkpt lat="46.4736404" lon="12.639086"><ele>1805.4</ele><time>2026-04-26T17:07:59.549Z</time></trkpt><trkpt lat="46.4736152" lon="12.6392537"><ele>1803.6</ele><time>2026-04-26T17:08:00.545Z</time></trkpt><trkpt lat="46.473605" lon="12.6394279"><ele>1801.8</ele><time>2026-04-26T17:08:01.539Z</time></trkpt><trkpt lat="46.4735999" lon="12.6395741"><ele>1800.0</ele><time>2026-04-26T17:08:02.532Z</time></trkpt><trkpt lat="46.47358" lon="12.6397096"><ele>1800.0</ele><time>2026-04-26T17:08:03.542Z</time></trkpt><trkpt lat="46.4735301" lon="12.6398242"><ele>1800.0</ele><time>2026-04-26T17:08:04.538Z</time></trkpt><trkpt lat="46.4734478" lon="12.6399445"><ele>1800.0</ele><time>2026-04-26T17:08:05.54Z</time></trkpt><trkpt lat="46.4733452" lon="12.6400738"><ele>1800.0</ele><time>2026-04-26T17:08:06.54Z</time></trkpt><trkpt lat="46.4732444" lon="12.6402147"><ele>1802.0</ele><time>2026-04-26T17:08:07.544Z</time></trkpt><trkpt lat="46.4731425" lon="12.6403604"><ele>1804.0</ele><time>2026-04-26T17:08:08.539Z</time></trkpt><trkpt lat="46.4730519" lon="12.6404942"><ele>1806.0</ele><time>2026-04-26T17:08:09.54Z</time></trkpt><trkpt lat="46.4729781" lon="12.6406196"><ele>1808.0</ele><time>2026-04-26T17:08:10.539Z</time></trkpt><trkpt lat="46.4729169" lon="12.6407696"><ele>1802.0</ele><time>2026-04-26T17:08:11.537Z</time></trkpt><trkpt lat="46.4728729" lon="12.64095"><ele>1796.0</ele><time>2026-04-26T17:08:12.531Z</time></trkpt><trkpt lat="46.4728339" lon="12.6411451"><ele>1790.0</ele><time>2026-04-26T17:08:13.54Z</time></trkpt><trkpt lat="46.4727936" lon="12.6413321"><ele>1784.0</ele><time>2026-04-26T17:08:14.538Z</time></trkpt><trkpt lat="46.4727564" lon="12.6415072"><ele>1784.0</ele><time>2026-04-26T17:08:15.548Z</time></trkpt><trkpt lat="46.4727262" lon="12.6416676"><ele>1784.0</ele><time>2026-04-26T17:08:16.534Z</time></trkpt><trkpt lat="46.4727152" lon="12.6418217"><ele>1784.0</ele><time>2026-04-26T17:08:17.538Z</time></trkpt><trkpt lat="46.4727097" lon="12.6419749"><ele>1784.0</ele><time>2026-04-26T17:08:18.537Z</time></trkpt><trkpt lat="46.4727254" lon="12.6421166"><ele>1784.0</ele><time>2026-04-26T17:08:19.546Z</time></trkpt><trkpt lat="46.472755" lon="12.64226"><ele>1783.4</ele><time>2026-04-26T17:08:20.535Z</time></trkpt><trkpt lat="46.4728132" lon="12.642401"><ele>1782.8000000000002</ele><time>2026-04-26T17:08:21.551Z</time></trkpt><trkpt lat="46.4728764" lon="12.6425263"><ele>1782.1999999999998</ele><time>2026-04-26T17:08:22.542Z</time></trkpt><trkpt lat="46.4729226" lon="12.6426531"><ele>1781.6</ele><time>2026-04-26T17:08:23.546Z</time></trkpt><trkpt lat="46.4729378" lon="12.642795"><ele>1781.0</ele><time>2026-04-26T17:08:24.535Z</time></trkpt><trkpt lat="46.4729395" lon="12.6429516"><ele>1781.0</ele><time>2026-04-26T17:08:25.538Z</time></trkpt><trkpt lat="46.4729538" lon="12.6430958"><ele>1781.0</ele><time>2026-04-26T17:08:26.536Z</time></trkpt><trkpt lat="46.4730054" lon="12.6432275"><ele>1781.0</ele><time>2026-04-26T17:08:27.547Z</time></trkpt><trkpt lat="46.4730865" lon="12.6433404"><ele>1781.0</ele><time>2026-04-26T17:08:28.539Z</time></trkpt><trkpt lat="46.4731969" lon="12.6434446"><ele>1781.0</ele><time>2026-04-26T17:08:29.547Z</time></trkpt><trkpt lat="46.4733156" lon="12.6435419"><ele>1781.0</ele><time>2026-04-26T17:08:30.539Z</time></trkpt><trkpt lat="46.4734277" lon="12.6436256"><ele>1781.0</ele><time>2026-04-26T17:08:31.533Z</time></trkpt><trkpt lat="46.473527" lon="12.6437006"><ele>1781.0</ele><time>2026-04-26T17:08:32.541Z</time></trkpt><trkpt lat="46.4736151" lon="12.6437912"><ele>1781.0</ele><time>2026-04-26T17:08:33.538Z</time></trkpt><trkpt lat="46.4736906" lon="12.6438831"><ele>1781.0</ele><time>2026-04-26T17:08:34.537Z</time></trkpt><trkpt lat="46.4737451" lon="12.6439973"><ele>1782.5</ele><time>2026-04-26T17:08:35.535Z</time></trkpt><trkpt lat="46.4737864" lon="12.6441448"><ele>1784.0</ele><time>2026-04-26T17:08:36.546Z</time></trkpt><trkpt lat="46.4738131" lon="12.6443122"><ele>1785.5</ele><time>2026-04-26T17:08:37.535Z</time></trkpt><trkpt lat="46.4738331" lon="12.6445077"><ele>1787.0</ele><time>2026-04-26T17:08:38.537Z</time></trkpt><trkpt lat="46.4738508" lon="12.6446973"><ele>1782.0</ele><time>2026-04-26T17:08:39.541Z</time></trkpt><trkpt lat="46.4738685" lon="12.6448722"><ele>1776.9999999999998</ele><time>2026-04-26T17:08:40.539Z</time></trkpt><trkpt lat="46.4738952" lon="12.6450327"><ele>1771.9999999999998</ele><time>2026-04-26T17:08:41.544Z</time></trkpt><trkpt lat="46.4739275" lon="12.6451799"><ele>1767.0</ele><time>2026-04-26T17:08:42.543Z</time></trkpt><trkpt lat="46.473978" lon="12.6453014"><ele>1762.0</ele><time>2026-04-26T17:08:43.539Z</time></trkpt><trkpt lat="46.4740325" lon="12.6454042"><ele>1758.3999999999999</ele><time>2026-04-26T17:08:44.548Z</time></trkpt><trkpt lat="46.4740808" lon="12.6454886"><ele>1754.7999999999997</ele><time>2026-04-26T17:08:45.53Z</time></trkpt><trkpt lat="46.4741147" lon="12.6456122"><ele>1751.2</ele><time>2026-04-26T17:08:47.536Z</time></trkpt><trkpt lat="46.4740383" lon="12.6456765"><ele>1747.6</ele><time>2026-04-26T17:08:49.541Z</time></trkpt><trkpt lat="46.4739162" lon="12.6455653"><ele>1744.0</ele><time>2026-04-26T17:08:51.546Z</time></trkpt><trkpt lat="46.4738557" lon="12.6454343"><ele>1744.0</ele><time>2026-04-26T17:08:52.538Z</time></trkpt><trkpt lat="46.473785" lon="12.6453053"><ele>1744.0</ele><time>2026-04-26T17:08:53.539Z</time></trkpt><trkpt lat="46.4737097" lon="12.6451814"><ele>1744.0</ele><time>2026-04-26T17:08:54.543Z</time></trkpt><trkpt lat="46.4736236" lon="12.6450305"><ele>1744.0</ele><time>2026-04-26T17:08:55.542Z</time></trkpt><trkpt lat="46.4735517" lon="12.6448691"><ele>1745.5</ele><time>2026-04-26T17:08:56.545Z</time></trkpt><trkpt lat="46.4734859" lon="12.6447035"><ele>1747.0</ele><time>2026-04-26T17:08:57.532Z</time></trkpt><trkpt lat="46.4734223" lon="12.6445545"><ele>1748.5</ele><time>2026-04-26T17:08:58.54Z</time></trkpt><trkpt lat="46.4733679" lon="12.6444163"><ele>1750.0</ele><time>2026-04-26T17:08:59.537Z</time></trkpt><trkpt lat="46.4732993" lon="12.6443033"><ele>1750.0</ele><time>2026-04-26T17:09:00.542Z</time></trkpt><trkpt lat="46.4732116" lon="12.6442032"><ele>1750.0</ele><time>2026-04-26T17:09:01.542Z</time></trkpt><trkpt lat="46.4731013" lon="12.6441302"><ele>1750.0</ele><time>2026-04-26T17:09:02.543Z</time></trkpt><trkpt lat="46.4729821" lon="12.6440729"><ele>1750.0</ele><time>2026-04-26T17:09:03.547Z</time></trkpt><trkpt lat="46.4728661" lon="12.6440141"><ele>1742.2</ele><time>2026-04-26T17:09:04.541Z</time></trkpt><trkpt lat="46.4727695" lon="12.6439562"><ele>1734.4</ele><time>2026-04-26T17:09:05.54Z</time></trkpt><trkpt lat="46.4726798" lon="12.6439014"><ele>1726.6</ele><time>2026-04-26T17:09:06.536Z</time></trkpt><trkpt lat="46.4726002" lon="12.6438377"><ele>1718.8</ele><time>2026-04-26T17:09:07.544Z</time></trkpt><trkpt lat="46.4725338" lon="12.643776"><ele>1711.0</ele><time>2026-04-26T17:09:08.539Z</time></trkpt><trkpt lat="46.472431" lon="12.6437364"><ele>1711.0</ele><time>2026-04-26T17:09:10.55Z</time></trkpt><trkpt lat="46.4723856" lon="12.6438415"><ele>1711.0</ele><time>2026-04-26T17:09:12.537Z</time></trkpt><trkpt lat="46.4724631" lon="12.6439642"><ele>1711.0</ele><time>2026-04-26T17:09:14.537Z</time></trkpt><trkpt lat="46.4725526" lon="12.6440219"><ele>1711.0</ele><time>2026-04-26T17:09:15.535Z</time></trkpt><trkpt lat="46.4726474" lon="12.6441068"><ele>1711.0</ele><time>2026-04-26T17:09:16.548Z</time></trkpt><trkpt lat="46.4727314" lon="12.6441994"><ele>1711.0</ele><time>2026-04-26T17:09:17.535Z</time></trkpt><trkpt lat="46.4728241" lon="12.6443181"><ele>1711.0</ele><time>2026-04-26T17:09:18.545Z</time></trkpt><trkpt lat="46.4729059" lon="12.6444386"><ele>1711.0</ele><time>2026-04-26T17:09:19.544Z</time></trkpt><trkpt lat="46.4729724" lon="12.6445681"><ele>1711.0</ele><time>2026-04-26T17:09:20.537Z</time></trkpt><trkpt lat="46.4730124" lon="12.6447121"><ele>1713.0</ele><time>2026-04-26T17:09:21.54Z</time></trkpt><trkpt lat="46.4730319" lon="12.6448762"><ele>1715.0</ele><time>2026-04-26T17:09:22.536Z</time></trkpt><trkpt lat="46.4730446" lon="12.645055"><ele>1717.0</ele><time>2026-04-26T17:09:23.545Z</time></trkpt><trkpt lat="46.4730491" lon="12.645243"><ele>1719.0</ele><time>2026-04-26T17:09:24.538Z</time></trkpt><trkpt lat="46.4730522" lon="12.6454377"><ele>1719.0</ele><time>2026-04-26T17:09:25.537Z</time></trkpt><trkpt lat="46.4730702" lon="12.645621"><ele>1719.0</ele><time>2026-04-26T17:09:26.542Z</time></trkpt><trkpt lat="46.4730988" lon="12.6458002"><ele>1719.0</ele><time>2026-04-26T17:09:27.541Z</time></trkpt><trkpt lat="46.4731255" lon="12.6459729"><ele>1719.0</ele><time>2026-04-26T17:09:28.537Z</time></trkpt><trkpt lat="46.4731551" lon="12.6461407"><ele>1714.8000000000002</ele><time>2026-04-26T17:09:29.556Z</time></trkpt><trkpt lat="46.4731905" lon="12.64629"><ele>1710.6000000000001</ele><time>2026-04-26T17:09:30.535Z</time></trkpt><trkpt lat="46.47323" lon="12.6464178"><ele>1706.4</ele><time>2026-04-26T17:09:31.543Z</time></trkpt><trkpt lat="46.4732643" lon="12.646549"><ele>1702.2</ele><time>2026-04-26T17:09:32.535Z</time></trkpt><trkpt lat="46.4733026" lon="12.6466734"><ele>1698.0</ele><time>2026-04-26T17:09:33.548Z</time></trkpt><trkpt lat="46.4733461" lon="12.6467966"><ele>1698.0</ele><time>2026-04-26T17:09:34.539Z</time></trkpt><trkpt lat="46.473404" lon="12.6468966"><ele>1698.0</ele><time>2026-04-26T17:09:35.544Z</time></trkpt><trkpt lat="46.473472" lon="12.6469991"><ele>1698.0</ele><time>2026-04-26T17:09:36.539Z</time></trkpt><trkpt lat="46.4735361" lon="12.6470885"><ele>1698.0</ele><time>2026-04-26T17:09:37.546Z</time></trkpt><trkpt lat="46.4735959" lon="12.64717"><ele>1698.0</ele><time>2026-04-26T17:09:38.542Z</time></trkpt><trkpt lat="46.4736488" lon="12.6472554"><ele>1698.0</ele><time>2026-04-26T17:09:39.545Z</time></trkpt><trkpt lat="46.4737023" lon="12.6473243"><ele>1697.3333333333333</ele><time>2026-04-26T17:09:40.546Z</time></trkpt><trkpt lat="46.4737581" lon="12.6473949"><ele>1696.6666666666665</ele><time>2026-04-26T17:09:41.543Z</time></trkpt><trkpt lat="46.4738356" lon="12.6474407"><ele>1696.0</ele><time>2026-04-26T17:09:43.541Z</time></trkpt><trkpt lat="46.4737845" lon="12.6475114"><ele>1695.3333333333333</ele><time>2026-04-26T17:09:46.537Z</time></trkpt><trkpt lat="46.4736728" lon="12.6474664"><ele>1694.6666666666665</ele><time>2026-04-26T17:09:48.538Z</time></trkpt><trkpt lat="46.4736156" lon="12.6473975"><ele>1694.0</ele><time>2026-04-26T17:09:49.539Z</time></trkpt><trkpt lat="46.4735569" lon="12.6473055"><ele>1694.8000000000002</ele><time>2026-04-26T17:09:50.539Z</time></trkpt><trkpt lat="46.4734852" lon="12.6472028"><ele>1695.6000000000001</ele><time>2026-04-26T17:09:51.538Z</time></trkpt><trkpt lat="46.4734018" lon="12.647114"><ele>1696.4</ele><time>2026-04-26T17:09:52.541Z</time></trkpt><trkpt lat="46.4732963" lon="12.6470191"><ele>1697.2</ele><time>2026-04-26T17:09:53.537Z</time></trkpt><trkpt lat="46.4732014" lon="12.6469268"><ele>1698.0</ele><time>2026-04-26T17:09:54.548Z</time></trkpt><trkpt lat="46.4731026" lon="12.6468211"><ele>1698.0</ele><time>2026-04-26T17:09:55.544Z</time></trkpt><trkpt lat="46.4730049" lon="12.6466923"><ele>1698.0</ele><time>2026-04-26T17:09:56.537Z</time></trkpt><trkpt lat="46.472903" lon="12.6465484"><ele>1698.0</ele><time>2026-04-26T17:09:57.54Z</time></trkpt><trkpt lat="46.4727973" lon="12.6463724"><ele>1698.0</ele><time>2026-04-26T17:09:58.542Z</time></trkpt><trkpt lat="46.472691" lon="12.6461722"><ele>1690.6666666666665</ele><time>2026-04-26T17:09:59.541Z</time></trkpt><trkpt lat="46.4725936" lon="12.6459776"><ele>1683.3333333333333</ele><time>2026-04-26T17:10:00.538Z</time></trkpt><trkpt lat="46.4725039" lon="12.6457906"><ele>1676.0</ele><time>2026-04-26T17:10:01.549Z</time></trkpt><trkpt lat="46.4724153" lon="12.6456136"><ele>1676.0</ele><time>2026-04-26T17:10:02.534Z</time></trkpt><trkpt lat="46.4723385" lon="12.6454477"><ele>1676.0</ele><time>2026-04-26T17:10:03.536Z</time></trkpt><trkpt lat="46.4722649" lon="12.6452956"><ele>1676.0</ele><time>2026-04-26T17:10:04.54Z</time></trkpt><trkpt lat="46.4722038" lon="12.6451571"><ele>1676.0</ele><time>2026-04-26T17:10:05.55Z</time></trkpt><trkpt lat="46.4721457" lon="12.6450343"><ele>1670.9999999999998</ele><time>2026-04-26T17:10:06.538Z</time></trkpt><trkpt lat="46.4720974" lon="12.6449092"><ele>1666.0</ele><time>2026-04-26T17:10:07.543Z</time></trkpt><trkpt lat="46.4720683" lon="12.6447898"><ele>1661.0</ele><time>2026-04-26T17:10:08.537Z</time></trkpt><trkpt lat="46.4720461" lon="12.6447002"><ele>1656.0</ele><time>2026-04-26T17:10:09.539Z</time></trkpt><trkpt lat="46.4719545" lon="12.644635"><ele>1650.9999999999998</ele><time>2026-04-26T17:10:11.534Z</time></trkpt><trkpt lat="46.4718932" lon="12.6447385"><ele>1646.0</ele><time>2026-04-26T17:10:13.536Z</time></trkpt><trkpt lat="46.4719363" lon="12.6448865"><ele>1646.0</ele><time>2026-04-26T17:10:15.537Z</time></trkpt><trkpt lat="46.47198" lon="12.6449542"><ele>1646.0</ele><time>2026-04-26T17:10:16.535Z</time></trkpt><trkpt lat="46.4720228" lon="12.6450348"><ele>1646.0</ele><time>2026-04-26T17:10:17.545Z</time></trkpt><trkpt lat="46.4720852" lon="12.6451296"><ele>1646.0</ele><time>2026-04-26T17:10:18.54Z</time></trkpt><trkpt lat="46.4721308" lon="12.645269"><ele>1646.0</ele><time>2026-04-26T17:10:19.54Z</time></trkpt><trkpt lat="46.4721723" lon="12.6454483"><ele>1649.0</ele><time>2026-04-26T17:10:20.533Z</time></trkpt><trkpt lat="46.4722119" lon="12.6456445"><ele>1652.0</ele><time>2026-04-26T17:10:21.534Z</time></trkpt><trkpt lat="46.4722518" lon="12.6457947"><ele>1655.0</ele><time>2026-04-26T17:10:22.534Z</time></trkpt><trkpt lat="46.4722776" lon="12.6459331"><ele>1658.0</ele><time>2026-04-26T17:10:23.543Z</time></trkpt><trkpt lat="46.4722853" lon="12.6460418"><ele>1661.0</ele><time>2026-04-26T17:10:24.543Z</time></trkpt><trkpt lat="46.4723161" lon="12.6462029"><ele>1661.0</ele><time>2026-04-26T17:10:26.535Z</time></trkpt><trkpt lat="46.4723356" lon="12.6463322"><ele>1661.0</ele><time>2026-04-26T17:10:29.542Z</time></trkpt><trkpt lat="46.4723527" lon="12.6464242"><ele>1661.0</ele><time>2026-04-26T17:10:30.538Z</time></trkpt><trkpt lat="46.4723741" lon="12.6465209"><ele>1661.0</ele><time>2026-04-26T17:10:31.542Z</time></trkpt><trkpt lat="46.4724013" lon="12.6466798"><ele>1661.0</ele><time>2026-04-26T17:10:32.545Z</time></trkpt><trkpt lat="46.4724188" lon="12.6468747"><ele>1656.75</ele><time>2026-04-26T17:10:33.543Z</time></trkpt><trkpt lat="46.4724408" lon="12.6470597"><ele>1652.5</ele><time>2026-04-26T17:10:34.538Z</time></trkpt><trkpt lat="46.4724625" lon="12.6472384"><ele>1648.25</ele><time>2026-04-26T17:10:35.537Z</time></trkpt><trkpt lat="46.4725074" lon="12.6474126"><ele>1644.0</ele><time>2026-04-26T17:10:36.547Z</time></trkpt><trkpt lat="46.4725745" lon="12.6475888"><ele>1644.0</ele><time>2026-04-26T17:10:37.539Z</time></trkpt><trkpt lat="46.4726485" lon="12.6477488"><ele>1644.0</ele><time>2026-04-26T17:10:38.546Z</time></trkpt><trkpt lat="46.4727355" lon="12.6478945"><ele>1644.0</ele><time>2026-04-26T17:10:39.541Z</time></trkpt><trkpt lat="46.4728329" lon="12.6480183"><ele>1644.0</ele><time>2026-04-26T17:10:40.54Z</time></trkpt><trkpt lat="46.4729099" lon="12.6481394"><ele>1644.8000000000002</ele><time>2026-04-26T17:10:41.537Z</time></trkpt><trkpt lat="46.4729855" lon="12.64825"><ele>1645.6000000000001</ele><time>2026-04-26T17:10:42.543Z</time></trkpt><trkpt lat="46.473047" lon="12.648372"><ele>1646.4</ele><time>2026-04-26T17:10:43.54Z</time></trkpt><trkpt lat="46.4730931" lon="12.6485293"><ele>1647.2</ele><time>2026-04-26T17:10:44.533Z</time></trkpt><trkpt lat="46.4731211" lon="12.6486839"><ele>1648.0</ele><time>2026-04-26T17:10:45.544Z</time></trkpt><trkpt lat="46.473131" lon="12.6488388"><ele>1648.0</ele><time>2026-04-26T17:10:46.537Z</time></trkpt><trkpt lat="46.4731137" lon="12.6490018"><ele>1648.0</ele><time>2026-04-26T17:10:47.551Z</time></trkpt><trkpt lat="46.4731133" lon="12.6491677"><ele>1648.0</ele><time>2026-04-26T17:10:48.535Z</time></trkpt><trkpt lat="46.4731173" lon="12.6493324"><ele>1648.0</ele><time>2026-04-26T17:10:49.539Z</time></trkpt><trkpt lat="46.4731077" lon="12.6494917"><ele>1642.5</ele><time>2026-04-26T17:10:50.544Z</time></trkpt><trkpt lat="46.4730886" lon="12.6496344"><ele>1637.0</ele><time>2026-04-26T17:10:51.543Z</time></trkpt><trkpt lat="46.4730527" lon="12.6497881"><ele>1631.5</ele><time>2026-04-26T17:10:52.544Z</time></trkpt><trkpt lat="46.4730016" lon="12.6499321"><ele>1626.0</ele><time>2026-04-26T17:10:53.543Z</time></trkpt><trkpt lat="46.4729262" lon="12.6500832"><ele>1621.75</ele><time>2026-04-26T17:10:54.539Z</time></trkpt><trkpt lat="46.472849" lon="12.650239"><ele>1617.5</ele><time>2026-04-26T17:10:55.543Z</time></trkpt><trkpt lat="46.4727711" lon="12.6504034"><ele>1613.25</ele><time>2026-04-26T17:10:56.542Z</time></trkpt><trkpt lat="46.47269" lon="12.6505647"><ele>1609.0</ele><time>2026-04-26T17:10:57.54Z</time></trkpt><trkpt lat="46.4726076" lon="12.6507192"><ele>1609.0</ele><time>2026-04-26T17:10:58.542Z</time></trkpt><trkpt lat="46.4725378" lon="12.6508552"><ele>1609.0</ele><time>2026-04-26T17:10:59.541Z</time></trkpt><trkpt lat="46.4724752" lon="12.6509774"><ele>1609.0</ele><time>2026-04-26T17:11:00.547Z</time></trkpt><trkpt lat="46.4724241" lon="12.6510813"><ele>1609.0</ele><time>2026-04-26T17:11:01.543Z</time></trkpt><trkpt lat="46.4723817" lon="12.651168"><ele>1609.0</ele><time>2026-04-26T17:11:02.537Z</time></trkpt><trkpt lat="46.4723636" lon="12.6513446"><ele>1606.8000000000002</ele><time>2026-04-26T17:11:04.537Z</time></trkpt><trkpt lat="46.4723984" lon="12.6514402"><ele>1604.6000000000001</ele><time>2026-04-26T17:11:05.54Z</time></trkpt><trkpt lat="46.4725148" lon="12.6514619"><ele>1602.4</ele><time>2026-04-26T17:11:07.546Z</time></trkpt><trkpt lat="46.4725718" lon="12.6513903"><ele>1600.2</ele><time>2026-04-26T17:11:08.538Z</time></trkpt><trkpt lat="46.4726318" lon="12.6512789"><ele>1598.0</ele><time>2026-04-26T17:11:09.535Z</time></trkpt><trkpt lat="46.4726967" lon="12.6511393"><ele>1596.75</ele><time>2026-04-26T17:11:10.537Z</time></trkpt><trkpt lat="46.472786" lon="12.6510108"><ele>1595.5</ele><time>2026-04-26T17:11:11.537Z</time></trkpt><trkpt lat="46.4729011" lon="12.6508996"><ele>1594.25</ele><time>2026-04-26T17:11:12.533Z</time></trkpt><trkpt lat="46.4730342" lon="12.6508187"><ele>1593.0</ele><time>2026-04-26T17:11:13.543Z</time></trkpt><trkpt lat="46.473176" lon="12.6507112"><ele>1593.0</ele><time>2026-04-26T17:11:14.544Z</time></trkpt><trkpt lat="46.4733028" lon="12.6506094"><ele>1593.0</ele><time>2026-04-26T17:11:15.545Z</time></trkpt><trkpt lat="46.4734231" lon="12.6505062"><ele>1593.0</ele><time>2026-04-26T17:11:16.539Z</time></trkpt><trkpt lat="46.4735298" lon="12.650408"><ele>1593.0</ele><time>2026-04-26T17:11:17.54Z</time></trkpt><trkpt lat="46.4736386" lon="12.6503118"><ele>1593.0</ele><time>2026-04-26T17:11:18.542Z</time></trkpt><trkpt lat="46.4737425" lon="12.6502237"><ele>1593.0</ele><time>2026-04-26T17:11:19.538Z</time></trkpt><trkpt lat="46.4738374" lon="12.6501455"><ele>1593.0</ele><time>2026-04-26T17:11:20.535Z</time></trkpt><trkpt lat="46.4739243" lon="12.6500617"><ele>1593.0</ele><time>2026-04-26T17:11:21.538Z</time></trkpt><trkpt lat="46.474007" lon="12.6499571"><ele>1593.0</ele><time>2026-04-26T17:11:22.54Z</time></trkpt><trkpt lat="46.4740785" lon="12.6498567"><ele>1593.0</ele><time>2026-04-26T17:11:23.537Z</time></trkpt><trkpt lat="46.4741371" lon="12.6497786"><ele>1593.0</ele><time>2026-04-26T17:11:24.553Z</time></trkpt><trkpt lat="46.4742232" lon="12.6497237"><ele>1593.0</ele><time>2026-04-26T17:11:26.536Z</time></trkpt><trkpt lat="46.4741735" lon="12.6498584"><ele>1593.0</ele><time>2026-04-26T17:11:30.536Z</time></trkpt><trkpt lat="46.4741054" lon="12.649925"><ele>1593.0</ele><time>2026-04-26T17:11:31.542Z</time></trkpt><trkpt lat="46.4740368" lon="12.6500272"><ele>1593.0</ele><time>2026-04-26T17:11:32.536Z</time></trkpt><trkpt lat="46.4739566" lon="12.6501382"><ele>1593.0</ele><time>2026-04-26T17:11:33.54Z</time></trkpt><trkpt lat="46.4738598" lon="12.6502254"><ele>1593.0</ele><time>2026-04-26T17:11:34.541Z</time></trkpt><trkpt lat="46.4737519" lon="12.6503028"><ele>1593.0</ele><time>2026-04-26T17:11:35.546Z</time></trkpt><trkpt lat="46.4736689" lon="12.6504547"><ele>1593.0</ele><time>2026-04-26T17:11:36.541Z</time></trkpt><trkpt lat="46.473575" lon="12.6506318"><ele>1593.0</ele><time>2026-04-26T17:11:37.534Z</time></trkpt><trkpt lat="46.4734757" lon="12.6507836"><ele>1593.0</ele><time>2026-04-26T17:11:38.545Z</time></trkpt><trkpt lat="46.4733762" lon="12.6509269"><ele>1593.0</ele><time>2026-04-26T17:11:39.545Z</time></trkpt><trkpt lat="46.4732867" lon="12.6510603"><ele>1587.0</ele><time>2026-04-26T17:11:40.544Z</time></trkpt><trkpt lat="46.4732" lon="12.6511784"><ele>1581.0</ele><time>2026-04-26T17:11:41.531Z</time></trkpt><trkpt lat="46.4731147" lon="12.65129"><ele>1575.0</ele><time>2026-04-26T17:11:42.535Z</time></trkpt><trkpt lat="46.4730485" lon="12.6513874"><ele>1569.0</ele><time>2026-04-26T17:11:43.541Z</time></trkpt><trkpt lat="46.4730072" lon="12.6515006"><ele>1563.0</ele><time>2026-04-26T17:11:44.542Z</time></trkpt><trkpt lat="46.4730128" lon="12.6516472"><ele>1563.0</ele><time>2026-04-26T17:11:45.535Z</time></trkpt><trkpt lat="46.4730274" lon="12.6518154"><ele>1563.0</ele><time>2026-04-26T17:11:46.544Z</time></trkpt><trkpt lat="46.4730342" lon="12.6519902"><ele>1563.0</ele><time>2026-04-26T17:11:47.54Z</time></trkpt><trkpt lat="46.4730457" lon="12.6521455"><ele>1563.0</ele><time>2026-04-26T17:11:48.543Z</time></trkpt><trkpt lat="46.4730467" lon="12.6522828"><ele>1563.0</ele><time>2026-04-26T17:11:49.539Z</time></trkpt><trkpt lat="46.4730378" lon="12.6523925"><ele>1564.2</ele><time>2026-04-26T17:11:50.537Z</time></trkpt><trkpt lat="46.4730041" lon="12.6524886"><ele>1565.4</ele><time>2026-04-26T17:11:51.546Z</time></trkpt><trkpt lat="46.4729432" lon="12.6525496"><ele>1566.6000000000001</ele><time>2026-04-26T17:11:52.539Z</time></trkpt><trkpt lat="46.4728583" lon="12.6525875"><ele>1567.8000000000002</ele><time>2026-04-26T17:11:53.548Z</time></trkpt><trkpt lat="46.4727582" lon="12.6526139"><ele>1569.0</ele><time>2026-04-26T17:11:54.536Z</time></trkpt><trkpt lat="46.4726474" lon="12.6526336"><ele>1569.0</ele><time>2026-04-26T17:11:55.54Z</time></trkpt><trkpt lat="46.4725477" lon="12.6526631"><ele>1569.0</ele><time>2026-04-26T17:11:56.542Z</time></trkpt><trkpt lat="46.472453" lon="12.6526771"><ele>1569.0</ele><time>2026-04-26T17:11:57.536Z</time></trkpt><trkpt lat="46.4723694" lon="12.6526473"><ele>1569.0</ele><time>2026-04-26T17:11:58.546Z</time></trkpt><trkpt lat="46.4722711" lon="12.6525791"><ele>1569.0</ele><time>2026-04-26T17:11:59.541Z</time></trkpt><trkpt lat="46.472146" lon="12.652491"><ele>1563.5</ele><time>2026-04-26T17:12:00.533Z</time></trkpt><trkpt lat="46.4720209" lon="12.6523926"><ele>1558.0</ele><time>2026-04-26T17:12:01.542Z</time></trkpt><trkpt lat="46.4718994" lon="12.6522892"><ele>1552.5</ele><time>2026-04-26T17:12:02.543Z</time></trkpt><trkpt lat="46.4717784" lon="12.6521919"><ele>1547.0</ele><time>2026-04-26T17:12:03.54Z</time></trkpt><trkpt lat="46.4716616" lon="12.6520998"><ele>1547.0</ele><time>2026-04-26T17:12:04.537Z</time></trkpt><trkpt lat="46.4715575" lon="12.652014"><ele>1547.0</ele><time>2026-04-26T17:12:05.544Z</time></trkpt><trkpt lat="46.4714821" lon="12.6519181"><ele>1547.0</ele><time>2026-04-26T17:12:06.539Z</time></trkpt><trkpt lat="46.4714327" lon="12.6518192"><ele>1547.0</ele><time>2026-04-26T17:12:07.549Z</time></trkpt><trkpt lat="46.4713883" lon="12.6517323"><ele>1547.0</ele><time>2026-04-26T17:12:08.537Z</time></trkpt><trkpt lat="46.4713667" lon="12.6516292"><ele>1549.9999999999998</ele><time>2026-04-26T17:12:09.541Z</time></trkpt><trkpt lat="46.4713494" lon="12.6515159"><ele>1553.0</ele><time>2026-04-26T17:12:10.535Z</time></trkpt><trkpt lat="46.4713341" lon="12.6514237"><ele>1556.0</ele><time>2026-04-26T17:12:11.54Z</time></trkpt><trkpt lat="46.4712643" lon="12.6513436"><ele>1559.0</ele><time>2026-04-26T17:12:13.536Z</time></trkpt><trkpt lat="46.4712265" lon="12.6514488"><ele>1561.9999999999998</ele><time>2026-04-26T17:12:15.546Z</time></trkpt><trkpt lat="46.471232" lon="12.6515752"><ele>1565.0</ele><time>2026-04-26T17:12:16.539Z</time></trkpt><trkpt lat="46.4712497" lon="12.651705"><ele>1565.0</ele><time>2026-04-26T17:12:17.539Z</time></trkpt><trkpt lat="46.4712866" lon="12.6518445"><ele>1565.0</ele><time>2026-04-26T17:12:18.535Z</time></trkpt><trkpt lat="46.4713429" lon="12.6519877"><ele>1565.0</ele><time>2026-04-26T17:12:19.535Z</time></trkpt><trkpt lat="46.4714398" lon="12.6521241"><ele>1565.0</ele><time>2026-04-26T17:12:20.546Z</time></trkpt><trkpt lat="46.4715477" lon="12.6522691"><ele>1559.0</ele><time>2026-04-26T17:12:21.541Z</time></trkpt><trkpt lat="46.4716563" lon="12.6524274"><ele>1553.0</ele><time>2026-04-26T17:12:22.534Z</time></trkpt><trkpt lat="46.471757" lon="12.6525972"><ele>1547.0</ele><time>2026-04-26T17:12:23.533Z</time></trkpt><trkpt lat="46.471845" lon="12.6527631"><ele>1545.6</ele><time>2026-04-26T17:12:24.541Z</time></trkpt><trkpt lat="46.4719293" lon="12.6529133"><ele>1544.1999999999998</ele><time>2026-04-26T17:12:25.536Z</time></trkpt><trkpt lat="46.4720005" lon="12.6530496"><ele>1542.8</ele><time>2026-04-26T17:12:26.538Z</time></trkpt><trkpt lat="46.472059" lon="12.6531674"><ele>1541.4</ele><time>2026-04-26T17:12:27.546Z</time></trkpt><trkpt lat="46.4721201" lon="12.6532572"><ele>1540.0</ele><time>2026-04-26T17:12:28.54Z</time></trkpt><trkpt lat="46.4721916" lon="12.6533101"><ele>1540.0</ele><time>2026-04-26T17:12:29.544Z</time></trkpt><trkpt lat="46.4722842" lon="12.6533448"><ele>1540.0</ele><time>2026-04-26T17:12:30.54Z</time></trkpt><trkpt lat="46.4723838" lon="12.6533873"><ele>1540.0</ele><time>2026-04-26T17:12:31.537Z</time></trkpt><trkpt lat="46.472491" lon="12.6534403"><ele>1540.0</ele><time>2026-04-26T17:12:32.543Z</time></trkpt><trkpt lat="46.4726117" lon="12.6534667"><ele>1540.0</ele><time>2026-04-26T17:12:33.543Z</time></trkpt><trkpt lat="46.4727211" lon="12.6534778"><ele>1540.0</ele><time>2026-04-26T17:12:34.542Z</time></trkpt><trkpt lat="46.4728123" lon="12.6534979"><ele>1540.0</ele><time>2026-04-26T17:12:35.536Z</time></trkpt><trkpt lat="46.4729019" lon="12.6535605"><ele>1540.0</ele><time>2026-04-26T17:12:36.557Z</time></trkpt><trkpt lat="46.4729855" lon="12.6536354"><ele>1540.0</ele><time>2026-04-26T17:12:37.54Z</time></trkpt><trkpt lat="46.4730437" lon="12.6537755"><ele>1540.0</ele><time>2026-04-26T17:12:38.537Z</time></trkpt><trkpt lat="46.473093" lon="12.6539385"><ele>1537.6666666666667</ele><time>2026-04-26T17:12:39.533Z</time></trkpt><trkpt lat="46.4731108" lon="12.654079"><ele>1535.3333333333335</ele><time>2026-04-26T17:12:40.538Z</time></trkpt><trkpt lat="46.4731081" lon="12.6541767"><ele>1533.0</ele><time>2026-04-26T17:12:41.537Z</time></trkpt><trkpt lat="46.4730942" lon="12.6542848"><ele>1530.6666666666667</ele><time>2026-04-26T17:12:42.543Z</time></trkpt><trkpt lat="46.4731169" lon="12.6544543"><ele>1528.3333333333335</ele><time>2026-04-26T17:12:44.545Z</time></trkpt><trkpt lat="46.4731818" lon="12.6545173"><ele>1526.0</ele><time>2026-04-26T17:12:45.54Z</time></trkpt><trkpt lat="46.4733085" lon="12.6544724"><ele>1526.0</ele><time>2026-04-26T17:12:47.536Z</time></trkpt><trkpt lat="46.4733596" lon="12.6543743"><ele>1526.0</ele><time>2026-04-26T17:12:48.538Z</time></trkpt><trkpt lat="46.4734141" lon="12.6542367"><ele>1526.0</ele><time>2026-04-26T17:12:49.538Z</time></trkpt><trkpt lat="46.4734696" lon="12.6541047"><ele>1526.0</ele><time>2026-04-26T17:12:50.542Z</time></trkpt><trkpt lat="46.4735483" lon="12.6539813"><ele>1526.0</ele><time>2026-04-26T17:12:51.537Z</time></trkpt><trkpt lat="46.4736389" lon="12.6538631"><ele>1526.0</ele><time>2026-04-26T17:12:52.537Z</time></trkpt><trkpt lat="46.4737464" lon="12.6537601"><ele>1526.0</ele><time>2026-04-26T17:12:53.533Z</time></trkpt><trkpt lat="46.4738357" lon="12.6536826"><ele>1526.0</ele><time>2026-04-26T17:12:54.545Z</time></trkpt><trkpt lat="46.4738957" lon="12.6535949"><ele>1526.0</ele><time>2026-04-26T17:12:55.536Z</time></trkpt><trkpt lat="46.4739335" lon="12.653498"><ele>1526.0</ele><time>2026-04-26T17:12:56.537Z</time></trkpt><trkpt lat="46.4739482" lon="12.6533747"><ele>1522.5</ele><time>2026-04-26T17:12:57.544Z</time></trkpt><trkpt lat="46.4739472" lon="12.6532157"><ele>1519.0</ele><time>2026-04-26T17:12:58.543Z</time></trkpt><trkpt lat="46.4739516" lon="12.6530411"><ele>1515.5</ele><time>2026-04-26T17:12:59.537Z</time></trkpt><trkpt lat="46.4739818" lon="12.65286"><ele>1512.0</ele><time>2026-04-26T17:13:00.549Z</time></trkpt><trkpt lat="46.4740146" lon="12.6526837"><ele>1512.0</ele><time>2026-04-26T17:13:01.533Z</time></trkpt><trkpt lat="46.4740505" lon="12.652532"><ele>1512.0</ele><time>2026-04-26T17:13:02.537Z</time></trkpt><trkpt lat="46.4740752" lon="12.6523925"><ele>1512.0</ele><time>2026-04-26T17:13:03.532Z</time></trkpt><trkpt lat="46.4741058" lon="12.652283"><ele>1512.0</ele><time>2026-04-26T17:13:04.544Z</time></trkpt><trkpt lat="46.4741669" lon="12.652217"><ele>1512.0</ele><time>2026-04-26T17:13:05.539Z</time></trkpt><trkpt lat="46.4743176" lon="12.6521662"><ele>1512.0</ele><time>2026-04-26T17:13:07.54Z</time></trkpt><trkpt lat="46.4743996" lon="12.6521465"><ele>1512.0</ele><time>2026-04-26T17:13:08.533Z</time></trkpt><trkpt lat="46.4744685" lon="12.6521028"><ele>1512.0</ele><time>2026-04-26T17:13:09.542Z</time></trkpt><trkpt lat="46.4745367" lon="12.6519957"><ele>1512.0</ele><time>2026-04-26T17:13:10.542Z</time></trkpt><trkpt lat="46.4746054" lon="12.6518569"><ele>1512.0</ele><time>2026-04-26T17:13:11.543Z</time></trkpt><trkpt lat="46.4746811" lon="12.651709"><ele>1513.0</ele><time>2026-04-26T17:13:12.536Z</time></trkpt><trkpt lat="46.4747492" lon="12.6515768"><ele>1514.0</ele><time>2026-04-26T17:13:13.54Z</time></trkpt><trkpt lat="46.4748112" lon="12.6514504"><ele>1515.0</ele><time>2026-04-26T17:13:14.534Z</time></trkpt><trkpt lat="46.4748641" lon="12.6513264"><ele>1516.0</ele><time>2026-04-26T17:13:15.537Z</time></trkpt><trkpt lat="46.4749064" lon="12.6512124"><ele>1517.0</ele><time>2026-04-26T17:13:16.54Z</time></trkpt><trkpt lat="46.4749516" lon="12.651123"><ele>1517.0</ele><time>2026-04-26T17:13:17.541Z</time></trkpt><trkpt lat="46.4749975" lon="12.6510557"><ele>1517.0</ele><time>2026-04-26T17:13:18.541Z</time></trkpt><trkpt lat="46.4751029" lon="12.6510356"><ele>1517.0</ele><time>2026-04-26T17:13:20.539Z</time></trkpt><trkpt lat="46.4751614" lon="12.6510898"><ele>1517.0</ele><time>2026-04-26T17:13:21.536Z</time></trkpt><trkpt lat="46.4752184" lon="12.6511408"><ele>1517.0</ele><time>2026-04-26T17:13:22.539Z</time></trkpt><trkpt lat="46.4752647" lon="12.6512032"><ele>1517.0</ele><time>2026-04-26T17:13:23.536Z</time></trkpt><trkpt lat="46.4753031" lon="12.6512963"><ele>1517.0</ele><time>2026-04-26T17:13:24.534Z</time></trkpt><trkpt lat="46.4753251" lon="12.6514286"><ele>1512.3999999999999</ele><time>2026-04-26T17:13:25.54Z</time></trkpt><trkpt lat="46.4753394" lon="12.6515724"><ele>1507.8</ele><time>2026-04-26T17:13:26.537Z</time></trkpt><trkpt lat="46.4753533" lon="12.6516976"><ele>1503.2</ele><time>2026-04-26T17:13:27.54Z</time></trkpt><trkpt lat="46.4753493" lon="12.6518195"><ele>1498.6</ele><time>2026-04-26T17:13:28.549Z</time></trkpt><trkpt lat="46.4753228" lon="12.651939"><ele>1494.0</ele><time>2026-04-26T17:13:29.54Z</time></trkpt><trkpt lat="46.4752801" lon="12.6520853"><ele>1491.6</ele><time>2026-04-26T17:13:30.535Z</time></trkpt><trkpt lat="46.4752461" lon="12.6522413"><ele>1489.2</ele><time>2026-04-26T17:13:31.546Z</time></trkpt><trkpt lat="46.4752349" lon="12.6524009"><ele>1486.8</ele><time>2026-04-26T17:13:32.534Z</time></trkpt><trkpt lat="46.4752327" lon="12.6525591"><ele>1484.3999999999999</ele><time>2026-04-26T17:13:33.546Z</time></trkpt><trkpt lat="46.4752439" lon="12.6526954"><ele>1482.0</ele><time>2026-04-26T17:13:34.532Z</time></trkpt><trkpt lat="46.4752837" lon="12.6528292"><ele>1480.8333333333333</ele><time>2026-04-26T17:13:35.537Z</time></trkpt><trkpt lat="46.475329" lon="12.6529419"><ele>1479.6666666666667</ele><time>2026-04-26T17:13:36.541Z</time></trkpt><trkpt lat="46.4753614" lon="12.6530376"><ele>1478.5</ele><time>2026-04-26T17:13:37.543Z</time></trkpt><trkpt lat="46.4753703" lon="12.6531385"><ele>1477.3333333333335</ele><time>2026-04-26T17:13:38.536Z</time></trkpt><trkpt lat="46.4753606" lon="12.6532605"><ele>1476.1666666666667</ele><time>2026-04-26T17:13:39.545Z</time></trkpt><trkpt lat="46.4753607" lon="12.6534075"><ele>1475.0</ele><time>2026-04-26T17:13:40.538Z</time></trkpt><trkpt lat="46.4753758" lon="12.6535896"><ele>1472.75</ele><time>2026-04-26T17:13:41.539Z</time></trkpt><trkpt lat="46.4753987" lon="12.6537676"><ele>1470.5</ele><time>2026-04-26T17:13:42.528Z</time></trkpt><trkpt lat="46.4754384" lon="12.6539242"><ele>1468.25</ele><time>2026-04-26T17:13:43.536Z</time></trkpt><trkpt lat="46.4754987" lon="12.6540617"><ele>1466.0</ele><time>2026-04-26T17:13:44.534Z</time></trkpt><trkpt lat="46.4755555" lon="12.6541892"><ele>1476.4</ele><time>2026-04-26T17:13:45.533Z</time></trkpt><trkpt lat="46.4756002" lon="12.6543024"><ele>1486.8</ele><time>2026-04-26T17:13:46.531Z</time></trkpt><trkpt lat="46.4756181" lon="12.6544258"><ele>1497.2</ele><time>2026-04-26T17:13:47.538Z</time></trkpt><trkpt lat="46.4756234" lon="12.6545684"><ele>1507.6000000000001</ele><time>2026-04-26T17:13:48.532Z</time></trkpt><trkpt lat="46.4756103" lon="12.6547196"><ele>1518.0</ele><time>2026-04-26T17:13:49.536Z</time></trkpt><trkpt lat="46.4755836" lon="12.6548924"><ele>1518.0</ele><time>2026-04-26T17:13:50.531Z</time></trkpt><trkpt lat="46.4755602" lon="12.6550619"><ele>1518.0</ele><time>2026-04-26T17:13:51.532Z</time></trkpt><trkpt lat="46.4755548" lon="12.6552314"><ele>1518.0</ele><time>2026-04-26T17:13:52.55Z</time></trkpt><trkpt lat="46.4755767" lon="12.6554072"><ele>1518.0</ele><time>2026-04-26T17:13:53.534Z</time></trkpt><trkpt lat="46.4756131" lon="12.6555725"><ele>1514.6666666666667</ele><time>2026-04-26T17:13:54.539Z</time></trkpt><trkpt lat="46.4756575" lon="12.6557343"><ele>1511.3333333333333</ele><time>2026-04-26T17:13:55.537Z</time></trkpt><trkpt lat="46.4757058" lon="12.6558475"><ele>1508.0</ele><time>2026-04-26T17:13:56.538Z</time></trkpt><trkpt lat="46.4757572" lon="12.6559379"><ele>1504.6666666666665</ele><time>2026-04-26T17:13:57.536Z</time></trkpt><trkpt lat="46.475823" lon="12.6559848"><ele>1501.3333333333333</ele><time>2026-04-26T17:13:58.534Z</time></trkpt><trkpt lat="46.4759011" lon="12.6560036"><ele>1498.0</ele><time>2026-04-26T17:13:59.534Z</time></trkpt><trkpt lat="46.4759976" lon="12.6559873"><ele>1498.0</ele><time>2026-04-26T17:14:00.533Z</time></trkpt><trkpt lat="46.4760853" lon="12.6559583"><ele>1498.0</ele><time>2026-04-26T17:14:01.539Z</time></trkpt><trkpt lat="46.4761683" lon="12.6559391"><ele>1498.0</ele><time>2026-04-26T17:14:02.549Z</time></trkpt><trkpt lat="46.4762571" lon="12.6559399"><ele>1498.0</ele><time>2026-04-26T17:14:03.538Z</time></trkpt><trkpt lat="46.4763428" lon="12.6559964"><ele>1498.0</ele><time>2026-04-26T17:14:04.535Z</time></trkpt><trkpt lat="46.4764259" lon="12.6561135"><ele>1499.25</ele><time>2026-04-26T17:14:05.538Z</time></trkpt><trkpt lat="46.4765019" lon="12.656258"><ele>1500.5</ele><time>2026-04-26T17:14:06.54Z</time></trkpt><trkpt lat="46.4765803" lon="12.6564144"><ele>1501.75</ele><time>2026-04-26T17:14:07.543Z</time></trkpt><trkpt lat="46.4766605" lon="12.6565652"><ele>1503.0</ele><time>2026-04-26T17:14:08.534Z</time></trkpt><trkpt lat="46.4767396" lon="12.6567139"><ele>1503.0</ele><time>2026-04-26T17:14:09.546Z</time></trkpt><trkpt lat="46.4768158" lon="12.6568712"><ele>1503.0</ele><time>2026-04-26T17:14:10.534Z</time></trkpt><trkpt lat="46.4768714" lon="12.6569973"><ele>1503.0</ele><time>2026-04-26T17:14:11.547Z</time></trkpt><trkpt lat="46.476911" lon="12.6571409"><ele>1503.0</ele><time>2026-04-26T17:14:12.535Z</time></trkpt><trkpt lat="46.4769408" lon="12.6573148"><ele>1501.6000000000001</ele><time>2026-04-26T17:14:13.538Z</time></trkpt><trkpt lat="46.4769478" lon="12.6574896"><ele>1500.2</ele><time>2026-04-26T17:14:14.536Z</time></trkpt><trkpt lat="46.4769649" lon="12.6576447"><ele>1498.8</ele><time>2026-04-26T17:14:15.536Z</time></trkpt><trkpt lat="46.4769989" lon="12.6577911"><ele>1497.4</ele><time>2026-04-26T17:14:16.538Z</time></trkpt><trkpt lat="46.4770449" lon="12.6579177"><ele>1496.0</ele><time>2026-04-26T17:14:17.539Z</time></trkpt><trkpt lat="46.4770961" lon="12.6580327"><ele>1493.1666666666667</ele><time>2026-04-26T17:14:18.53Z</time></trkpt><trkpt lat="46.4771223" lon="12.6581352"><ele>1490.3333333333335</ele><time>2026-04-26T17:14:19.537Z</time></trkpt><trkpt lat="46.4771324" lon="12.6582314"><ele>1487.5</ele><time>2026-04-26T17:14:20.539Z</time></trkpt><trkpt lat="46.4771195" lon="12.6583355"><ele>1484.6666666666667</ele><time>2026-04-26T17:14:21.535Z</time></trkpt><trkpt lat="46.4771019" lon="12.6584904"><ele>1481.8333333333333</ele><time>2026-04-26T17:14:23.537Z</time></trkpt><trkpt lat="46.4770819" lon="12.6586097"><ele>1479.0</ele><time>2026-04-26T17:14:26.539Z</time></trkpt><trkpt lat="46.4771116" lon="12.6587932"><ele>1486.6</ele><time>2026-04-26T17:14:28.53Z</time></trkpt><trkpt lat="46.4771603" lon="12.6589099"><ele>1494.2</ele><time>2026-04-26T17:14:29.542Z</time></trkpt><trkpt lat="46.477217" lon="12.6590545"><ele>1501.8</ele><time>2026-04-26T17:14:30.539Z</time></trkpt><trkpt lat="46.4772741" lon="12.6592013"><ele>1509.3999999999999</ele><time>2026-04-26T17:14:31.539Z</time></trkpt><trkpt lat="46.4773109" lon="12.659333"><ele>1517.0</ele><time>2026-04-26T17:14:32.535Z</time></trkpt><trkpt lat="46.4773292" lon="12.6594573"><ele>1519.5</ele><time>2026-04-26T17:14:33.538Z</time></trkpt><trkpt lat="46.4773291" lon="12.6595635"><ele>1522.0</ele><time>2026-04-26T17:14:34.535Z</time></trkpt><trkpt lat="46.4773145" lon="12.65968"><ele>1524.5</ele><time>2026-04-26T17:14:35.535Z</time></trkpt><trkpt lat="46.4772856" lon="12.6597973"><ele>1527.0</ele><time>2026-04-26T17:14:36.53Z</time></trkpt><trkpt lat="46.4772479" lon="12.6598946"><ele>1529.5</ele><time>2026-04-26T17:14:37.54Z</time></trkpt><trkpt lat="46.4771883" lon="12.6599701"><ele>1532.0</ele><time>2026-04-26T17:14:38.542Z</time></trkpt><trkpt lat="46.4770972" lon="12.660012"><ele>1525.1999999999998</ele><time>2026-04-26T17:14:39.537Z</time></trkpt><trkpt lat="46.476985" lon="12.6600243"><ele>1518.4</ele><time>2026-04-26T17:14:40.537Z</time></trkpt><trkpt lat="46.4768636" lon="12.6600359"><ele>1511.6</ele><time>2026-04-26T17:14:41.535Z</time></trkpt><trkpt lat="46.4767578" lon="12.6600217"><ele>1504.8000000000002</ele><time>2026-04-26T17:14:42.534Z</time></trkpt><trkpt lat="46.4766512" lon="12.6600186"><ele>1498.0</ele><time>2026-04-26T17:14:43.547Z</time></trkpt><trkpt lat="46.4765515" lon="12.6600561"><ele>1498.0</ele><time>2026-04-26T17:14:44.539Z</time></trkpt><trkpt lat="46.4764516" lon="12.6601427"><ele>1498.0</ele><time>2026-04-26T17:14:45.54Z</time></trkpt><trkpt lat="46.4763564" lon="12.6602348"><ele>1498.0</ele><time>2026-04-26T17:14:46.53Z</time></trkpt><trkpt lat="46.4762627" lon="12.6602898"><ele>1498.0</ele><time>2026-04-26T17:14:47.537Z</time></trkpt><trkpt lat="46.4761553" lon="12.6602975"><ele>1498.0</ele><time>2026-04-26T17:14:48.541Z</time></trkpt><trkpt lat="46.4760463" lon="12.660282"><ele>1495.8000000000002</ele><time>2026-04-26T17:14:49.545Z</time></trkpt><trkpt lat="46.4759485" lon="12.6602792"><ele>1493.6</ele><time>2026-04-26T17:14:50.531Z</time></trkpt><trkpt lat="46.4758572" lon="12.6603218"><ele>1491.4</ele><time>2026-04-26T17:14:51.544Z</time></trkpt><trkpt lat="46.4757508" lon="12.6604047"><ele>1489.1999999999998</ele><time>2026-04-26T17:14:52.54Z</time></trkpt><trkpt lat="46.4756266" lon="12.6604729"><ele>1487.0</ele><time>2026-04-26T17:14:53.538Z</time></trkpt><trkpt lat="46.4755008" lon="12.6605501"><ele>1488.6</ele><time>2026-04-26T17:14:54.539Z</time></trkpt><trkpt lat="46.4753856" lon="12.6606334"><ele>1490.1999999999998</ele><time>2026-04-26T17:14:55.543Z</time></trkpt><trkpt lat="46.4752831" lon="12.6607159"><ele>1491.8</ele><time>2026-04-26T17:14:56.534Z</time></trkpt><trkpt lat="46.4752091" lon="12.6607916"><ele>1493.4</ele><time>2026-04-26T17:14:57.543Z</time></trkpt><trkpt lat="46.4751515" lon="12.6608874"><ele>1495.0</ele><time>2026-04-26T17:14:58.535Z</time></trkpt><trkpt lat="46.4751041" lon="12.6610161"><ele>1495.0</ele><time>2026-04-26T17:14:59.54Z</time></trkpt><trkpt lat="46.475084" lon="12.6611703"><ele>1495.0</ele><time>2026-04-26T17:15:00.539Z</time></trkpt><trkpt lat="46.4750907" lon="12.6612826"><ele>1495.0</ele><time>2026-04-26T17:15:01.542Z</time></trkpt><trkpt lat="46.4751138" lon="12.6613981"><ele>1495.0</ele><time>2026-04-26T17:15:02.542Z</time></trkpt><trkpt lat="46.4751796" lon="12.661481"><ele>1495.0</ele><time>2026-04-26T17:15:03.552Z</time></trkpt><trkpt lat="46.4752677" lon="12.6615298"><ele>1495.0</ele><time>2026-04-26T17:15:04.53Z</time></trkpt><trkpt lat="46.4753471" lon="12.6615617"><ele>1495.0</ele><time>2026-04-26T17:15:05.535Z</time></trkpt><trkpt lat="46.4754069" lon="12.661607"><ele>1495.0</ele><time>2026-04-26T17:15:06.54Z</time></trkpt><trkpt lat="46.4754448" lon="12.66169"><ele>1495.0</ele><time>2026-04-26T17:15:07.535Z</time></trkpt><trkpt lat="46.4754698" lon="12.6617933"><ele>1495.0</ele><time>2026-04-26T17:15:08.543Z</time></trkpt><trkpt lat="46.4754826" lon="12.6619165"><ele>1495.0</ele><time>2026-04-26T17:15:09.54Z</time></trkpt><trkpt lat="46.4754787" lon="12.6620634"><ele>1500.4</ele><time>2026-04-26T17:15:10.532Z</time></trkpt><trkpt lat="46.4754864" lon="12.662198"><ele>1505.8</ele><time>2026-04-26T17:15:11.536Z</time></trkpt><trkpt lat="46.4754986" lon="12.6623422"><ele>1511.1999999999998</ele><time>2026-04-26T17:15:12.538Z</time></trkpt><trkpt lat="46.4755212" lon="12.6624842"><ele>1516.6</ele><time>2026-04-26T17:15:13.545Z</time></trkpt><trkpt lat="46.4755617" lon="12.6626126"><ele>1522.0</ele><time>2026-04-26T17:15:14.534Z</time></trkpt><trkpt lat="46.4756092" lon="12.6627138"><ele>1522.1666666666665</ele><time>2026-04-26T17:15:15.535Z</time></trkpt><trkpt lat="46.4756265" lon="12.6628187"><ele>1522.3333333333333</ele><time>2026-04-26T17:15:16.535Z</time></trkpt><trkpt lat="46.4756326" lon="12.6629252"><ele>1522.5</ele><time>2026-04-26T17:15:17.538Z</time></trkpt><trkpt lat="46.4756165" lon="12.6630346"><ele>1522.6666666666667</ele><time>2026-04-26T17:15:18.542Z</time></trkpt><trkpt lat="46.4755704" lon="12.6631503"><ele>1522.8333333333335</ele><time>2026-04-26T17:15:19.545Z</time></trkpt><trkpt lat="46.4754996" lon="12.6632848"><ele>1523.0</ele><time>2026-04-26T17:15:20.54Z</time></trkpt><trkpt lat="46.47541" lon="12.6634143"><ele>1518.2</ele><time>2026-04-26T17:15:21.536Z</time></trkpt><trkpt lat="46.4753331" lon="12.6635286"><ele>1513.4</ele><time>2026-04-26T17:15:22.544Z</time></trkpt><trkpt lat="46.4752653" lon="12.6636279"><ele>1508.6000000000001</ele><time>2026-04-26T17:15:23.531Z</time></trkpt><trkpt lat="46.475207" lon="12.6637513"><ele>1503.8000000000002</ele><time>2026-04-26T17:15:24.541Z</time></trkpt><trkpt lat="46.4751687" lon="12.6638962"><ele>1499.0</ele><time>2026-04-26T17:15:25.539Z</time></trkpt><trkpt lat="46.4751355" lon="12.6640579"><ele>1499.0</ele><time>2026-04-26T17:15:26.538Z</time></trkpt><trkpt lat="46.4750954" lon="12.6642147"><ele>1499.0</ele><time>2026-04-26T17:15:27.543Z</time></trkpt><trkpt lat="46.4750456" lon="12.6643541"><ele>1499.0</ele><time>2026-04-26T17:15:28.532Z</time></trkpt><trkpt lat="46.4749769" lon="12.6644734"><ele>1499.0</ele><time>2026-04-26T17:15:29.535Z</time></trkpt><trkpt lat="46.4749042" lon="12.6645747"><ele>1499.0</ele><time>2026-04-26T17:15:30.541Z</time></trkpt><trkpt lat="46.474856" lon="12.6646747"><ele>1499.0</ele><time>2026-04-26T17:15:31.544Z</time></trkpt><trkpt lat="46.474833" lon="12.6647844"><ele>1499.0</ele><time>2026-04-26T17:15:32.539Z</time></trkpt><trkpt lat="46.4748583" lon="12.6648942"><ele>1499.0</ele><time>2026-04-26T17:15:33.545Z</time></trkpt><trkpt lat="46.474892" lon="12.6650316"><ele>1499.0</ele><time>2026-04-26T17:15:34.533Z</time></trkpt><trkpt lat="46.474933" lon="12.665174"><ele>1499.0</ele><time>2026-04-26T17:15:35.54Z</time></trkpt><trkpt lat="46.4749951" lon="12.6653011"><ele>1499.0</ele><time>2026-04-26T17:15:36.542Z</time></trkpt><trkpt lat="46.4750641" lon="12.6654206"><ele>1499.0</ele><time>2026-04-26T17:15:37.538Z</time></trkpt><trkpt lat="46.4751085" lon="12.6655306"><ele>1499.0</ele><time>2026-04-26T17:15:38.535Z</time></trkpt><trkpt lat="46.4751246" lon="12.665658"><ele>1499.0</ele><time>2026-04-26T17:15:39.554Z</time></trkpt><trkpt lat="46.4751096" lon="12.6657713"><ele>1499.0</ele><time>2026-04-26T17:15:40.536Z</time></trkpt><trkpt lat="46.4750627" lon="12.6658484"><ele>1499.0</ele><time>2026-04-26T17:15:41.54Z</time></trkpt><trkpt lat="46.4749896" lon="12.6659106"><ele>1499.0</ele><time>2026-04-26T17:15:42.541Z</time></trkpt><trkpt lat="46.4749017" lon="12.665962"><ele>1499.0</ele><time>2026-04-26T17:15:43.541Z</time></trkpt><trkpt lat="46.4748399" lon="12.6660376"><ele>1499.0</ele><time>2026-04-26T17:15:44.541Z</time></trkpt><trkpt lat="46.4748066" lon="12.6661736"><ele>1499.0</ele><time>2026-04-26T17:15:45.538Z</time></trkpt><trkpt lat="46.474781" lon="12.6663445"><ele>1499.0</ele><time>2026-04-26T17:15:46.54Z</time></trkpt><trkpt lat="46.4747447" lon="12.6665378"><ele>1502.0</ele><time>2026-04-26T17:15:47.54Z</time></trkpt><trkpt lat="46.4746997" lon="12.6667308"><ele>1505.0</ele><time>2026-04-26T17:15:48.54Z</time></trkpt><trkpt lat="46.4746534" lon="12.6669235"><ele>1508.0</ele><time>2026-04-26T17:15:49.543Z</time></trkpt><trkpt lat="46.4746113" lon="12.6671183"><ele>1511.0</ele><time>2026-04-26T17:15:50.548Z</time></trkpt><trkpt lat="46.4745691" lon="12.6673089"><ele>1505.75</ele><time>2026-04-26T17:15:51.535Z</time></trkpt><trkpt lat="46.4745291" lon="12.6674804"><ele>1500.5</ele><time>2026-04-26T17:15:52.539Z</time></trkpt><trkpt lat="46.4744948" lon="12.6676358"><ele>1495.25</ele><time>2026-04-26T17:15:53.537Z</time></trkpt><trkpt lat="46.4744376" lon="12.6677762"><ele>1490.0</ele><time>2026-04-26T17:15:54.538Z</time></trkpt><trkpt lat="46.4743567" lon="12.6678856"><ele>1490.0</ele><time>2026-04-26T17:15:55.541Z</time></trkpt><trkpt lat="46.4742813" lon="12.6680018"><ele>1490.0</ele><time>2026-04-26T17:15:56.542Z</time></trkpt><trkpt lat="46.4742099" lon="12.6681021"><ele>1490.0</ele><time>2026-04-26T17:15:57.539Z</time></trkpt><trkpt lat="46.4741707" lon="12.6682219"><ele>1490.0</ele><time>2026-04-26T17:15:58.54Z</time></trkpt><trkpt lat="46.474164" lon="12.6683789"><ele>1490.0</ele><time>2026-04-26T17:15:59.539Z</time></trkpt><trkpt lat="46.4741664" lon="12.6685423"><ele>1491.5</ele><time>2026-04-26T17:16:00.538Z</time></trkpt><trkpt lat="46.4741905" lon="12.6687201"><ele>1493.0</ele><time>2026-04-26T17:16:01.545Z</time></trkpt><trkpt lat="46.4742331" lon="12.6689161"><ele>1494.5</ele><time>2026-04-26T17:16:02.541Z</time></trkpt><trkpt lat="46.474254" lon="12.6690747"><ele>1496.0</ele><time>2026-04-26T17:16:03.536Z</time></trkpt><trkpt lat="46.4742572" lon="12.6692105"><ele>1496.0</ele><time>2026-04-26T17:16:04.537Z</time></trkpt><trkpt lat="46.4742379" lon="12.669332"><ele>1496.0</ele><time>2026-04-26T17:16:05.545Z</time></trkpt><trkpt lat="46.4742004" lon="12.6694205"><ele>1496.0</ele><time>2026-04-26T17:16:06.537Z</time></trkpt><trkpt lat="46.4741534" lon="12.6694891"><ele>1496.0</ele><time>2026-04-26T17:16:07.543Z</time></trkpt><trkpt lat="46.4740932" lon="12.6695398"><ele>1496.0</ele><time>2026-04-26T17:16:08.547Z</time></trkpt><trkpt lat="46.4740129" lon="12.6695413"><ele>1496.0</ele><time>2026-04-26T17:16:09.535Z</time></trkpt><trkpt lat="46.4739329" lon="12.6695192"><ele>1495.1999999999998</ele><time>2026-04-26T17:16:10.542Z</time></trkpt><trkpt lat="46.473846" lon="12.6694908"><ele>1494.3999999999999</ele><time>2026-04-26T17:16:11.535Z</time></trkpt><trkpt lat="46.473755" lon="12.6694828"><ele>1493.6</ele><time>2026-04-26T17:16:12.54Z</time></trkpt><trkpt lat="46.4736631" lon="12.6695191"><ele>1492.8</ele><time>2026-04-26T17:16:13.537Z</time></trkpt><trkpt lat="46.473568" lon="12.6695949"><ele>1492.0</ele><time>2026-04-26T17:16:14.54Z</time></trkpt><trkpt lat="46.4734677" lon="12.6696855"><ele>1492.0</ele><time>2026-04-26T17:16:15.534Z</time></trkpt><trkpt lat="46.4733708" lon="12.66978"><ele>1492.0</ele><time>2026-04-26T17:16:16.535Z</time></trkpt><trkpt lat="46.4732687" lon="12.669864"><ele>1492.0</ele><time>2026-04-26T17:16:17.533Z</time></trkpt><trkpt lat="46.4731866" lon="12.669947"><ele>1492.0</ele><time>2026-04-26T17:16:18.535Z</time></trkpt><trkpt lat="46.4731111" lon="12.6700383"><ele>1492.0</ele><time>2026-04-26T17:16:19.542Z</time></trkpt><trkpt lat="46.4730471" lon="12.6701461"><ele>1492.0</ele><time>2026-04-26T17:16:20.534Z</time></trkpt><trkpt lat="46.4729907" lon="12.6702712"><ele>1492.0</ele><time>2026-04-26T17:16:21.545Z</time></trkpt><trkpt lat="46.4729267" lon="12.6704085"><ele>1492.0</ele><time>2026-04-26T17:16:22.543Z</time></trkpt><trkpt lat="46.4728653" lon="12.670558"><ele>1492.0</ele><time>2026-04-26T17:16:23.539Z</time></trkpt><trkpt lat="46.4727966" lon="12.6707224"><ele>1486.25</ele><time>2026-04-26T17:16:24.541Z</time></trkpt><trkpt lat="46.4727343" lon="12.6708815"><ele>1480.5</ele><time>2026-04-26T17:16:25.533Z</time></trkpt><trkpt lat="46.4726805" lon="12.6710405"><ele>1474.75</ele><time>2026-04-26T17:16:26.544Z</time></trkpt><trkpt lat="46.472633" lon="12.6712092"><ele>1469.0</ele><time>2026-04-26T17:16:27.546Z</time></trkpt><trkpt lat="46.4725934" lon="12.6713891"><ele>1469.0</ele><time>2026-04-26T17:16:28.531Z</time></trkpt><trkpt lat="46.4725639" lon="12.6715548"><ele>1469.0</ele><time>2026-04-26T17:16:29.534Z</time></trkpt><trkpt lat="46.4725427" lon="12.6717025"><ele>1469.0</ele><time>2026-04-26T17:16:30.541Z</time></trkpt><trkpt lat="46.4725331" lon="12.67182"><ele>1469.0</ele><time>2026-04-26T17:16:31.537Z</time></trkpt><trkpt lat="46.4725423" lon="12.6719123"><ele>1469.0</ele><time>2026-04-26T17:16:32.551Z</time></trkpt><trkpt lat="46.4725806" lon="12.6720013"><ele>1469.0</ele><time>2026-04-26T17:16:33.535Z</time></trkpt><trkpt lat="46.4726453" lon="12.672086"><ele>1466.8000000000002</ele><time>2026-04-26T17:16:34.536Z</time></trkpt><trkpt lat="46.472733" lon="12.6721829"><ele>1464.6000000000001</ele><time>2026-04-26T17:16:35.537Z</time></trkpt><trkpt lat="46.4728265" lon="12.6722708"><ele>1462.4</ele><time>2026-04-26T17:16:36.54Z</time></trkpt><trkpt lat="46.4729096" lon="12.6723712"><ele>1460.2</ele><time>2026-04-26T17:16:37.53Z</time></trkpt><trkpt lat="46.4729729" lon="12.6724856"><ele>1458.0</ele><time>2026-04-26T17:16:38.55Z</time></trkpt><trkpt lat="46.4730098" lon="12.6726249"><ele>1456.5</ele><time>2026-04-26T17:16:39.537Z</time></trkpt><trkpt lat="46.4730193" lon="12.6727897"><ele>1455.0</ele><time>2026-04-26T17:16:40.535Z</time></trkpt><trkpt lat="46.4729884" lon="12.6729676"><ele>1453.5</ele><time>2026-04-26T17:16:41.527Z</time></trkpt><trkpt lat="46.4729402" lon="12.6731513"><ele>1452.0</ele><time>2026-04-26T17:16:42.533Z</time></trkpt><trkpt lat="46.4728789" lon="12.6733351"><ele>1452.0</ele><time>2026-04-26T17:16:43.536Z</time></trkpt><trkpt lat="46.4728341" lon="12.6735172"><ele>1452.0</ele><time>2026-04-26T17:16:44.536Z</time></trkpt><trkpt lat="46.4728032" lon="12.6736917"><ele>1452.0</ele><time>2026-04-26T17:16:45.54Z</time></trkpt><trkpt lat="46.472768" lon="12.6738492"><ele>1452.0</ele><time>2026-04-26T17:16:46.53Z</time></trkpt><trkpt lat="46.4727251" lon="12.6739937"><ele>1455.0</ele><time>2026-04-26T17:16:47.53Z</time></trkpt><trkpt lat="46.472657" lon="12.6741263"><ele>1458.0</ele><time>2026-04-26T17:16:48.533Z</time></trkpt><trkpt lat="46.4725785" lon="12.674251"><ele>1461.0</ele><time>2026-04-26T17:16:49.537Z</time></trkpt><trkpt lat="46.4724834" lon="12.674345"><ele>1464.0</ele><time>2026-04-26T17:16:50.536Z</time></trkpt><trkpt lat="46.4723672" lon="12.6744151"><ele>1463.75</ele><time>2026-04-26T17:16:51.544Z</time></trkpt><trkpt lat="46.4722465" lon="12.674473"><ele>1463.5</ele><time>2026-04-26T17:16:52.537Z</time></trkpt><trkpt lat="46.4721217" lon="12.6745087"><ele>1463.25</ele><time>2026-04-26T17:16:53.537Z</time></trkpt><trkpt lat="46.4720132" lon="12.6745256"><ele>1463.0</ele><time>2026-04-26T17:16:54.542Z</time></trkpt><trkpt lat="46.4719139" lon="12.6745484"><ele>1463.0</ele><time>2026-04-26T17:16:55.537Z</time></trkpt><trkpt lat="46.4718288" lon="12.6745937"><ele>1463.0</ele><time>2026-04-26T17:16:56.54Z</time></trkpt><trkpt lat="46.4717452" lon="12.674679"><ele>1463.0</ele><time>2026-04-26T17:16:57.549Z</time></trkpt><trkpt lat="46.4716712" lon="12.6748132"><ele>1463.0</ele><time>2026-04-26T17:16:58.537Z</time></trkpt><trkpt lat="46.4715811" lon="12.6749873"><ele>1463.0</ele><time>2026-04-26T17:16:59.539Z</time></trkpt><trkpt lat="46.4714923" lon="12.6751766"><ele>1463.0</ele><time>2026-04-26T17:17:00.541Z</time></trkpt><trkpt lat="46.4714103" lon="12.6753544"><ele>1463.0</ele><time>2026-04-26T17:17:01.538Z</time></trkpt><trkpt lat="46.4713287" lon="12.6755454"><ele>1461.5</ele><time>2026-04-26T17:17:02.534Z</time></trkpt><trkpt lat="46.4712513" lon="12.6757324"><ele>1460.0</ele><time>2026-04-26T17:17:03.537Z</time></trkpt><trkpt lat="46.4711661" lon="12.6759135"><ele>1458.5</ele><time>2026-04-26T17:17:04.54Z</time></trkpt><trkpt lat="46.4710786" lon="12.6760786"><ele>1457.0</ele><time>2026-04-26T17:17:05.544Z</time></trkpt><trkpt lat="46.4710064" lon="12.6762319"><ele>1455.3999999999999</ele><time>2026-04-26T17:17:06.536Z</time></trkpt><trkpt lat="46.4709497" lon="12.6763839"><ele>1453.8</ele><time>2026-04-26T17:17:07.537Z</time></trkpt><trkpt lat="46.4709041" lon="12.676536"><ele>1452.2</ele><time>2026-04-26T17:17:08.542Z</time></trkpt><trkpt lat="46.4708839" lon="12.6766718"><ele>1450.6</ele><time>2026-04-26T17:17:09.539Z</time></trkpt><trkpt lat="46.4708814" lon="12.676787"><ele>1449.0</ele><time>2026-04-26T17:17:10.538Z</time></trkpt><trkpt lat="46.4709125" lon="12.6768786"><ele>1449.1666666666667</ele><time>2026-04-26T17:17:11.542Z</time></trkpt><trkpt lat="46.4709679" lon="12.6769779"><ele>1449.3333333333333</ele><time>2026-04-26T17:17:12.539Z</time></trkpt><trkpt lat="46.4710313" lon="12.6770737"><ele>1449.5</ele><time>2026-04-26T17:17:13.535Z</time></trkpt><trkpt lat="46.4710731" lon="12.6771769"><ele>1449.6666666666665</ele><time>2026-04-26T17:17:14.54Z</time></trkpt><trkpt lat="46.4710697" lon="12.6773039"><ele>1449.8333333333333</ele><time>2026-04-26T17:17:15.543Z</time></trkpt><trkpt lat="46.4710259" lon="12.6774266"><ele>1450.0</ele><time>2026-04-26T17:17:16.533Z</time></trkpt><trkpt lat="46.4709371" lon="12.6775116"><ele>1450.0</ele><time>2026-04-26T17:17:17.534Z</time></trkpt><trkpt lat="46.4708256" lon="12.6775825"><ele>1450.0</ele><time>2026-04-26T17:17:18.531Z</time></trkpt><trkpt lat="46.470706" lon="12.6776355"><ele>1450.0</ele><time>2026-04-26T17:17:19.54Z</time></trkpt><trkpt lat="46.4705981" lon="12.6776748"><ele>1450.0</ele><time>2026-04-26T17:17:20.532Z</time></trkpt><trkpt lat="46.4705085" lon="12.6777145"><ele>1449.8</ele><time>2026-04-26T17:17:21.543Z</time></trkpt><trkpt lat="46.4704281" lon="12.6777889"><ele>1449.6</ele><time>2026-04-26T17:17:22.533Z</time></trkpt><trkpt lat="46.4703503" lon="12.6779103"><ele>1449.4</ele><time>2026-04-26T17:17:23.535Z</time></trkpt><trkpt lat="46.4703002" lon="12.678043"><ele>1449.2</ele><time>2026-04-26T17:17:24.536Z</time></trkpt><trkpt lat="46.4702706" lon="12.6781565"><ele>1449.0</ele><time>2026-04-26T17:17:25.535Z</time></trkpt><trkpt lat="46.4702393" lon="12.6782516"><ele>1449.0</ele><time>2026-04-26T17:17:26.545Z</time></trkpt><trkpt lat="46.4701263" lon="12.6783161"><ele>1449.0</ele><time>2026-04-26T17:17:28.539Z</time></trkpt><trkpt lat="46.4700411" lon="12.6782916"><ele>1449.0</ele><time>2026-04-26T17:17:29.538Z</time></trkpt><trkpt lat="46.4699479" lon="12.6782191"><ele>1449.0</ele><time>2026-04-26T17:17:30.54Z</time></trkpt><trkpt lat="46.4698521" lon="12.6781351"><ele>1449.0</ele><time>2026-04-26T17:17:31.548Z</time></trkpt><trkpt lat="46.4697638" lon="12.6780656"><ele>1449.0</ele><time>2026-04-26T17:17:32.537Z</time></trkpt><trkpt lat="46.4696849" lon="12.6780091"><ele>1449.0</ele><time>2026-04-26T17:17:33.539Z</time></trkpt><trkpt lat="46.4696059" lon="12.6780031"><ele>1449.0</ele><time>2026-04-26T17:17:34.536Z</time></trkpt><trkpt lat="46.469517" lon="12.6780094"><ele>1449.0</ele><time>2026-04-26T17:17:35.54Z</time></trkpt><trkpt lat="46.4694288" lon="12.6780505"><ele>1449.0</ele><time>2026-04-26T17:17:36.541Z</time></trkpt><trkpt lat="46.4693347" lon="12.6780692"><ele>1449.0</ele><time>2026-04-26T17:17:37.538Z</time></trkpt><trkpt lat="46.4692466" lon="12.6780712"><ele>1447.0</ele><time>2026-04-26T17:17:38.547Z</time></trkpt><trkpt lat="46.4691766" lon="12.6780907"><ele>1445.0</ele><time>2026-04-26T17:17:39.542Z</time></trkpt><trkpt lat="46.4691068" lon="12.6781514"><ele>1443.0</ele><time>2026-04-26T17:17:40.536Z</time></trkpt><trkpt lat="46.4690532" lon="12.6782483"><ele>1441.0</ele><time>2026-04-26T17:17:41.54Z</time></trkpt><trkpt lat="46.4689994" lon="12.6783615"><ele>1439.0</ele><time>2026-04-26T17:17:42.544Z</time></trkpt><trkpt lat="46.4689204" lon="12.6784324"><ele>1437.0</ele><time>2026-04-26T17:17:43.533Z</time></trkpt><trkpt lat="46.4688331" lon="12.6784697"><ele>1434.6666666666667</ele><time>2026-04-26T17:17:44.542Z</time></trkpt><trkpt lat="46.4687455" lon="12.67848"><ele>1432.3333333333333</ele><time>2026-04-26T17:17:45.536Z</time></trkpt><trkpt lat="46.4686594" lon="12.6784939"><ele>1430.0</ele><time>2026-04-26T17:17:46.537Z</time></trkpt><trkpt lat="46.4685964" lon="12.6785359"><ele>1427.6666666666665</ele><time>2026-04-26T17:17:47.535Z</time></trkpt><trkpt lat="46.4685413" lon="12.6786215"><ele>1425.3333333333333</ele><time>2026-04-26T17:17:48.536Z</time></trkpt><trkpt lat="46.4684986" lon="12.6787365"><ele>1423.0</ele><time>2026-04-26T17:17:49.536Z</time></trkpt><trkpt lat="46.4684724" lon="12.6788516"><ele>1423.0</ele><time>2026-04-26T17:17:50.536Z</time></trkpt><trkpt lat="46.4684445" lon="12.6789888"><ele>1423.0</ele><time>2026-04-26T17:17:51.544Z</time></trkpt><trkpt lat="46.4684075" lon="12.6791363"><ele>1423.0</ele><time>2026-04-26T17:17:52.547Z</time></trkpt><trkpt lat="46.4683674" lon="12.6792809"><ele>1423.0</ele><time>2026-04-26T17:17:53.531Z</time></trkpt><trkpt lat="46.4683291" lon="12.6794359"><ele>1423.0</ele><time>2026-04-26T17:17:54.538Z</time></trkpt><trkpt lat="46.4682917" lon="12.67959"><ele>1422.8000000000002</ele><time>2026-04-26T17:17:55.533Z</time></trkpt><trkpt lat="46.4682595" lon="12.6797395"><ele>1422.6</ele><time>2026-04-26T17:17:56.529Z</time></trkpt><trkpt lat="46.4682268" lon="12.6798822"><ele>1422.4</ele><time>2026-04-26T17:17:57.531Z</time></trkpt><trkpt lat="46.4681934" lon="12.6800191"><ele>1422.1999999999998</ele><time>2026-04-26T17:17:58.533Z</time></trkpt><trkpt lat="46.4681613" lon="12.6801488"><ele>1422.0</ele><time>2026-04-26T17:17:59.537Z</time></trkpt><trkpt lat="46.4681311" lon="12.6802797"><ele>1422.0</ele><time>2026-04-26T17:18:00.538Z</time></trkpt><trkpt lat="46.4680954" lon="12.6804159"><ele>1422.0</ele><time>2026-04-26T17:18:01.549Z</time></trkpt><trkpt lat="46.4680564" lon="12.6805585"><ele>1422.0</ele><time>2026-04-26T17:18:02.541Z</time></trkpt><trkpt lat="46.4680227" lon="12.6807008"><ele>1422.0</ele><time>2026-04-26T17:18:03.54Z</time></trkpt><trkpt lat="46.4679963" lon="12.680849"><ele>1422.0</ele><time>2026-04-26T17:18:04.533Z</time></trkpt><trkpt lat="46.4679792" lon="12.6810091"><ele>1422.0</ele><time>2026-04-26T17:18:05.533Z</time></trkpt><trkpt lat="46.4679638" lon="12.6811688"><ele>1422.0</ele><time>2026-04-26T17:18:06.537Z</time></trkpt><trkpt lat="46.4679518" lon="12.6813406"><ele>1422.0</ele><time>2026-04-26T17:18:07.538Z</time></trkpt><trkpt lat="46.4679406" lon="12.6815084"><ele>1422.0</ele><time>2026-04-26T17:18:08.542Z</time></trkpt><trkpt lat="46.4679302" lon="12.6816726"><ele>1418.6</ele><time>2026-04-26T17:18:09.535Z</time></trkpt><trkpt lat="46.4679177" lon="12.6818293"><ele>1415.1999999999998</ele><time>2026-04-26T17:18:10.535Z</time></trkpt><trkpt lat="46.4679152" lon="12.6819829"><ele>1411.8</ele><time>2026-04-26T17:18:11.552Z</time></trkpt><trkpt lat="46.4679183" lon="12.6821405"><ele>1408.4</ele><time>2026-04-26T17:18:12.542Z</time></trkpt><trkpt lat="46.4679286" lon="12.6823034"><ele>1405.0</ele><time>2026-04-26T17:18:13.54Z</time></trkpt><trkpt lat="46.4679431" lon="12.6824665"><ele>1406.8</ele><time>2026-04-26T17:18:14.538Z</time></trkpt><trkpt lat="46.4679504" lon="12.6826211"><ele>1408.6</ele><time>2026-04-26T17:18:15.548Z</time></trkpt><trkpt lat="46.4679566" lon="12.6827822"><ele>1410.4</ele><time>2026-04-26T17:18:16.541Z</time></trkpt><trkpt lat="46.4679562" lon="12.6829439"><ele>1412.2</ele><time>2026-04-26T17:18:17.536Z</time></trkpt><trkpt lat="46.4679573" lon="12.6831136"><ele>1414.0</ele><time>2026-04-26T17:18:18.543Z</time></trkpt><trkpt lat="46.4679755" lon="12.6832916"><ele>1414.0</ele><time>2026-04-26T17:18:19.538Z</time></trkpt><trkpt lat="46.4680026" lon="12.6834652"><ele>1414.0</ele><time>2026-04-26T17:18:20.536Z</time></trkpt><trkpt lat="46.468034" lon="12.6836454"><ele>1414.0</ele><time>2026-04-26T17:18:21.542Z</time></trkpt><trkpt lat="46.4680502" lon="12.6838086"><ele>1414.0</ele><time>2026-04-26T17:18:22.538Z</time></trkpt><trkpt lat="46.4680569" lon="12.6839705"><ele>1412.8000000000002</ele><time>2026-04-26T17:18:23.547Z</time></trkpt><trkpt lat="46.46806" lon="12.6841336"><ele>1411.6000000000001</ele><time>2026-04-26T17:18:24.534Z</time></trkpt><trkpt lat="46.4680641" lon="12.6842903"><ele>1410.4</ele><time>2026-04-26T17:18:25.535Z</time></trkpt><trkpt lat="46.4680701" lon="12.6844386"><ele>1409.2</ele><time>2026-04-26T17:18:26.543Z</time></trkpt><trkpt lat="46.4680705" lon="12.684588"><ele>1408.0</ele><time>2026-04-26T17:18:27.542Z</time></trkpt><trkpt lat="46.468064" lon="12.6847304"><ele>1407.0</ele><time>2026-04-26T17:18:28.546Z</time></trkpt><trkpt lat="46.4680511" lon="12.6848723"><ele>1406.0</ele><time>2026-04-26T17:18:29.538Z</time></trkpt><trkpt lat="46.468036" lon="12.6850098"><ele>1405.0</ele><time>2026-04-26T17:18:30.546Z</time></trkpt><trkpt lat="46.4680285" lon="12.6851537"><ele>1404.0</ele><time>2026-04-26T17:18:31.545Z</time></trkpt><trkpt lat="46.4680339" lon="12.6853144"><ele>1403.0</ele><time>2026-04-26T17:18:32.536Z</time></trkpt><trkpt lat="46.4680571" lon="12.6855027"><ele>1401.0</ele><time>2026-04-26T17:18:33.533Z</time></trkpt><trkpt lat="46.4680876" lon="12.6857046"><ele>1399.0</ele><time>2026-04-26T17:18:34.543Z</time></trkpt><trkpt lat="46.4681245" lon="12.6858892"><ele>1397.0</ele><time>2026-04-26T17:18:35.538Z</time></trkpt><trkpt lat="46.4681545" lon="12.6860552"><ele>1395.0</ele><time>2026-04-26T17:18:36.539Z</time></trkpt><trkpt lat="46.4681787" lon="12.6862171"><ele>1393.8333333333333</ele><time>2026-04-26T17:18:37.551Z</time></trkpt><trkpt lat="46.4682035" lon="12.6863648"><ele>1392.6666666666667</ele><time>2026-04-26T17:18:38.542Z</time></trkpt><trkpt lat="46.468225" lon="12.6864939"><ele>1391.5</ele><time>2026-04-26T17:18:39.541Z</time></trkpt><trkpt lat="46.4682542" lon="12.6866145"><ele>1390.3333333333335</ele><time>2026-04-26T17:18:40.542Z</time></trkpt><trkpt lat="46.4682884" lon="12.6867173"><ele>1389.1666666666667</ele><time>2026-04-26T17:18:41.542Z</time></trkpt><trkpt lat="46.4683377" lon="12.6867876"><ele>1388.0</ele><time>2026-04-26T17:18:42.549Z</time></trkpt><trkpt lat="46.4684021" lon="12.6868223"><ele>1388.0</ele><time>2026-04-26T17:18:43.541Z</time></trkpt><trkpt lat="46.4684848" lon="12.6868166"><ele>1388.0</ele><time>2026-04-26T17:18:44.536Z</time></trkpt><trkpt lat="46.4685702" lon="12.6867548"><ele>1388.0</ele><time>2026-04-26T17:18:45.538Z</time></trkpt><trkpt lat="46.4686614" lon="12.6866614"><ele>1388.0</ele><time>2026-04-26T17:18:46.536Z</time></trkpt><trkpt lat="46.468742" lon="12.6865761"><ele>1388.0</ele><time>2026-04-26T17:18:47.542Z</time></trkpt><trkpt lat="46.4688313" lon="12.6865266"><ele>1388.8000000000002</ele><time>2026-04-26T17:18:48.542Z</time></trkpt><trkpt lat="46.4689425" lon="12.6865441"><ele>1389.6</ele><time>2026-04-26T17:18:49.547Z</time></trkpt><trkpt lat="46.4690406" lon="12.6866044"><ele>1390.4</ele><time>2026-04-26T17:18:50.535Z</time></trkpt><trkpt lat="46.4691201" lon="12.6866848"><ele>1391.1999999999998</ele><time>2026-04-26T17:18:51.536Z</time></trkpt><trkpt lat="46.4691699" lon="12.6867958"><ele>1392.0</ele><time>2026-04-26T17:18:52.536Z</time></trkpt><trkpt lat="46.4692042" lon="12.6869147"><ele>1390.3999999999999</ele><time>2026-04-26T17:18:53.54Z</time></trkpt><trkpt lat="46.4692168" lon="12.6870421"><ele>1388.8</ele><time>2026-04-26T17:18:54.553Z</time></trkpt><trkpt lat="46.4692122" lon="12.6871966"><ele>1387.2</ele><time>2026-04-26T17:18:55.541Z</time></trkpt><trkpt lat="46.4692062" lon="12.6873661"><ele>1385.6</ele><time>2026-04-26T17:18:56.545Z</time></trkpt><trkpt lat="46.4692284" lon="12.6875479"><ele>1384.0</ele><time>2026-04-26T17:18:57.536Z</time></trkpt><trkpt lat="46.4692605" lon="12.6877508"><ele>1382.75</ele><time>2026-04-26T17:18:58.537Z</time></trkpt><trkpt lat="46.469302" lon="12.6879557"><ele>1381.5</ele><time>2026-04-26T17:18:59.535Z</time></trkpt><trkpt lat="46.4693491" lon="12.6881555"><ele>1380.25</ele><time>2026-04-26T17:19:00.54Z</time></trkpt><trkpt lat="46.4694009" lon="12.6883508"><ele>1379.0</ele><time>2026-04-26T17:19:01.537Z</time></trkpt><trkpt lat="46.4694554" lon="12.688522"><ele>1378.8000000000002</ele><time>2026-04-26T17:19:02.532Z</time></trkpt><trkpt lat="46.4695072" lon="12.6886632"><ele>1378.6000000000001</ele><time>2026-04-26T17:19:03.537Z</time></trkpt><trkpt lat="46.4695368" lon="12.6887956"><ele>1378.4</ele><time>2026-04-26T17:19:04.542Z</time></trkpt><trkpt lat="46.4695397" lon="12.6889288"><ele>1378.2</ele><time>2026-04-26T17:19:05.548Z</time></trkpt><trkpt lat="46.4695126" lon="12.6890795"><ele>1378.0</ele><time>2026-04-26T17:19:06.54Z</time></trkpt><trkpt lat="46.4694654" lon="12.689238"><ele>1378.0</ele><time>2026-04-26T17:19:07.537Z</time></trkpt><trkpt lat="46.4694156" lon="12.6894139"><ele>1378.0</ele><time>2026-04-26T17:19:08.536Z</time></trkpt><trkpt lat="46.4693654" lon="12.6896059"><ele>1378.0</ele><time>2026-04-26T17:19:09.538Z</time></trkpt><trkpt lat="46.4693311" lon="12.6898128"><ele>1378.0</ele><time>2026-04-26T17:19:10.548Z</time></trkpt><trkpt lat="46.4693132" lon="12.6900224"><ele>1376.25</ele><time>2026-04-26T17:19:11.538Z</time></trkpt><trkpt lat="46.4693079" lon="12.6902219"><ele>1374.5</ele><time>2026-04-26T17:19:12.543Z</time></trkpt><trkpt lat="46.4693148" lon="12.6904041"><ele>1372.75</ele><time>2026-04-26T17:19:13.535Z</time></trkpt><trkpt lat="46.4693305" lon="12.6905648"><ele>1371.0</ele><time>2026-04-26T17:19:14.545Z</time></trkpt><trkpt lat="46.4693638" lon="12.6907096"><ele>1369.0</ele><time>2026-04-26T17:19:15.542Z</time></trkpt><trkpt lat="46.4693957" lon="12.690823"><ele>1367.0</ele><time>2026-04-26T17:19:16.541Z</time></trkpt><trkpt lat="46.4694186" lon="12.690916"><ele>1365.0</ele><time>2026-04-26T17:19:17.538Z</time></trkpt><trkpt lat="46.4693805" lon="12.6910445"><ele>1363.0</ele><time>2026-04-26T17:19:19.538Z</time></trkpt><trkpt lat="46.4693045" lon="12.6910303"><ele>1361.0</ele><time>2026-04-26T17:19:21.533Z</time></trkpt><trkpt lat="46.4692641" lon="12.6909166"><ele>1359.0</ele><time>2026-04-26T17:19:22.546Z</time></trkpt><trkpt lat="46.4692112" lon="12.6907333"><ele>1359.0</ele><time>2026-04-26T17:19:23.547Z</time></trkpt><trkpt lat="46.4691536" lon="12.6905554"><ele>1359.0</ele><time>2026-04-26T17:19:24.55Z</time></trkpt><trkpt lat="46.4691062" lon="12.6903933"><ele>1359.0</ele><time>2026-04-26T17:19:25.542Z</time></trkpt><trkpt lat="46.4690704" lon="12.6902408"><ele>1359.0</ele><time>2026-04-26T17:19:26.536Z</time></trkpt><trkpt lat="46.4690264" lon="12.6901072"><ele>1361.0</ele><time>2026-04-26T17:19:27.543Z</time></trkpt><trkpt lat="46.4689813" lon="12.6899758"><ele>1363.0</ele><time>2026-04-26T17:19:28.54Z</time></trkpt><trkpt lat="46.4689458" lon="12.6898598"><ele>1365.0</ele><time>2026-04-26T17:19:29.55Z</time></trkpt><trkpt lat="46.4688696" lon="12.6897779"><ele>1367.0</ele><time>2026-04-26T17:19:31.538Z</time></trkpt><trkpt lat="46.4688151" lon="12.6898478"><ele>1369.0</ele><time>2026-04-26T17:19:32.541Z</time></trkpt><trkpt lat="46.468787" lon="12.6899525"><ele>1371.0</ele><time>2026-04-26T17:19:33.538Z</time></trkpt><trkpt lat="46.4687928" lon="12.6901044"><ele>1368.0</ele><time>2026-04-26T17:19:34.54Z</time></trkpt><trkpt lat="46.4688142" lon="12.6902637"><ele>1365.0</ele><time>2026-04-26T17:19:35.54Z</time></trkpt><trkpt lat="46.4688354" lon="12.6904346"><ele>1362.0</ele><time>2026-04-26T17:19:36.546Z</time></trkpt><trkpt lat="46.4688567" lon="12.6906203"><ele>1359.0</ele><time>2026-04-26T17:19:37.54Z</time></trkpt><trkpt lat="46.4688798" lon="12.6908303"><ele>1359.0</ele><time>2026-04-26T17:19:38.535Z</time></trkpt><trkpt lat="46.4689029" lon="12.691033"><ele>1359.0</ele><time>2026-04-26T17:19:39.548Z</time></trkpt><trkpt lat="46.468926" lon="12.6912232"><ele>1359.0</ele><time>2026-04-26T17:19:40.541Z</time></trkpt><trkpt lat="46.4689512" lon="12.6914035"><ele>1359.0</ele><time>2026-04-26T17:19:41.544Z</time></trkpt><trkpt lat="46.4689726" lon="12.6915744"><ele>1357.6</ele><time>2026-04-26T17:19:42.536Z</time></trkpt><trkpt lat="46.4690004" lon="12.6917376"><ele>1356.2</ele><time>2026-04-26T17:19:43.541Z</time></trkpt><trkpt lat="46.4690406" lon="12.6919047"><ele>1354.8</ele><time>2026-04-26T17:19:44.545Z</time></trkpt><trkpt lat="46.4690929" lon="12.6920468"><ele>1353.3999999999999</ele><time>2026-04-26T17:19:45.539Z</time></trkpt><trkpt lat="46.4691426" lon="12.6921555"><ele>1352.0</ele><time>2026-04-26T17:19:46.54Z</time></trkpt><trkpt lat="46.4691749" lon="12.6922586"><ele>1351.3333333333335</ele><time>2026-04-26T17:19:47.542Z</time></trkpt><trkpt lat="46.4691833" lon="12.6923564"><ele>1350.6666666666667</ele><time>2026-04-26T17:19:48.54Z</time></trkpt><trkpt lat="46.4691538" lon="12.6924429"><ele>1350.0</ele><time>2026-04-26T17:19:49.538Z</time></trkpt><trkpt lat="46.4690972" lon="12.6924996"><ele>1349.3333333333333</ele><time>2026-04-26T17:19:50.542Z</time></trkpt><trkpt lat="46.4690276" lon="12.6924928"><ele>1348.6666666666665</ele><time>2026-04-26T17:19:51.549Z</time></trkpt><trkpt lat="46.4689489" lon="12.6924431"><ele>1348.0</ele><time>2026-04-26T17:19:52.537Z</time></trkpt><trkpt lat="46.4688846" lon="12.6923228"><ele>1348.0</ele><time>2026-04-26T17:19:53.55Z</time></trkpt><trkpt lat="46.4688243" lon="12.6921867"><ele>1348.0</ele><time>2026-04-26T17:19:54.535Z</time></trkpt><trkpt lat="46.4687571" lon="12.6920479"><ele>1348.0</ele><time>2026-04-26T17:19:55.537Z</time></trkpt><trkpt lat="46.4686753" lon="12.6918973"><ele>1348.0</ele><time>2026-04-26T17:19:56.536Z</time></trkpt><trkpt lat="46.4685845" lon="12.6917413"><ele>1341.5</ele><time>2026-04-26T17:19:57.54Z</time></trkpt><trkpt lat="46.4685003" lon="12.6915886"><ele>1335.0</ele><time>2026-04-26T17:19:58.538Z</time></trkpt><trkpt lat="46.468417" lon="12.6914435"><ele>1328.5</ele><time>2026-04-26T17:19:59.536Z</time></trkpt><trkpt lat="46.4683462" lon="12.6913029"><ele>1322.0</ele><time>2026-04-26T17:20:00.542Z</time></trkpt><trkpt lat="46.4682843" lon="12.6911669"><ele>1324.3999999999999</ele><time>2026-04-26T17:20:01.537Z</time></trkpt><trkpt lat="46.4682257" lon="12.6910467"><ele>1326.8</ele><time>2026-04-26T17:20:02.531Z</time></trkpt><trkpt lat="46.4681737" lon="12.6909428"><ele>1329.2</ele><time>2026-04-26T17:20:03.535Z</time></trkpt><trkpt lat="46.468117" lon="12.6908821"><ele>1331.6</ele><time>2026-04-26T17:20:04.537Z</time></trkpt><trkpt lat="46.4679873" lon="12.6909338"><ele>1334.0</ele><time>2026-04-26T17:20:06.542Z</time></trkpt><trkpt lat="46.4679721" lon="12.6910346"><ele>1331.6</ele><time>2026-04-26T17:20:07.54Z</time></trkpt><trkpt lat="46.4679972" lon="12.6911494"><ele>1329.2</ele><time>2026-04-26T17:20:08.538Z</time></trkpt><trkpt lat="46.4680471" lon="12.6912744"><ele>1326.8</ele><time>2026-04-26T17:20:09.537Z</time></trkpt><trkpt lat="46.4681157" lon="12.6914133"><ele>1324.3999999999999</ele><time>2026-04-26T17:20:10.545Z</time></trkpt><trkpt lat="46.4681752" lon="12.6915515"><ele>1322.0</ele><time>2026-04-26T17:20:11.535Z</time></trkpt><trkpt lat="46.4682181" lon="12.6917277"><ele>1320.0</ele><time>2026-04-26T17:20:12.544Z</time></trkpt><trkpt lat="46.4682375" lon="12.6919287"><ele>1318.0</ele><time>2026-04-26T17:20:13.535Z</time></trkpt><trkpt lat="46.4682404" lon="12.6921338"><ele>1316.0</ele><time>2026-04-26T17:20:14.542Z</time></trkpt><trkpt lat="46.4682322" lon="12.6923265"><ele>1314.0</ele><time>2026-04-26T17:20:15.541Z</time></trkpt><trkpt lat="46.4682358" lon="12.6925021"><ele>1314.0</ele><time>2026-04-26T17:20:16.543Z</time></trkpt><trkpt lat="46.4682419" lon="12.6926555"><ele>1314.0</ele><time>2026-04-26T17:20:17.538Z</time></trkpt><trkpt lat="46.4682448" lon="12.6927803"><ele>1314.0</ele><time>2026-04-26T17:20:18.539Z</time></trkpt><trkpt lat="46.4682472" lon="12.6928819"><ele>1314.0</ele><time>2026-04-26T17:20:19.543Z</time></trkpt><trkpt lat="46.4681858" lon="12.6929876"><ele>1314.0</ele><time>2026-04-26T17:20:21.538Z</time></trkpt><trkpt lat="46.4681085" lon="12.6928929"><ele>1314.0</ele><time>2026-04-26T17:20:23.541Z</time></trkpt><trkpt lat="46.4680931" lon="12.6927776"><ele>1314.0</ele><time>2026-04-26T17:20:24.541Z</time></trkpt><trkpt lat="46.4680987" lon="12.6926229"><ele>1314.0</ele><time>2026-04-26T17:20:25.55Z</time></trkpt><trkpt lat="46.4680968" lon="12.6924571"><ele>1314.0</ele><time>2026-04-26T17:20:26.539Z</time></trkpt><trkpt lat="46.468083" lon="12.6923232"><ele>1314.0</ele><time>2026-04-26T17:20:27.539Z</time></trkpt><trkpt lat="46.4680449" lon="12.6921982"><ele>1314.0</ele><time>2026-04-26T17:20:28.54Z</time></trkpt><trkpt lat="46.4679567" lon="12.6921034"><ele>1314.0</ele><time>2026-04-26T17:20:29.541Z</time></trkpt><trkpt lat="46.4678423" lon="12.692044"><ele>1314.0</ele><time>2026-04-26T17:20:30.538Z</time></trkpt><trkpt lat="46.4677047" lon="12.6919845"><ele>1314.0</ele><time>2026-04-26T17:20:31.543Z</time></trkpt><trkpt lat="46.4675595" lon="12.6919273"><ele>1313.6666666666667</ele><time>2026-04-26T17:20:32.546Z</time></trkpt><trkpt lat="46.4674125" lon="12.6918685"><ele>1313.3333333333335</ele><time>2026-04-26T17:20:33.534Z</time></trkpt><trkpt lat="46.4672715" lon="12.6918173"><ele>1313.0</ele><time>2026-04-26T17:20:34.545Z</time></trkpt><trkpt lat="46.4671213" lon="12.6917587"><ele>1309.75</ele><time>2026-04-26T17:20:35.538Z</time></trkpt><trkpt lat="46.4669732" lon="12.6917019"><ele>1306.5</ele><time>2026-04-26T17:20:36.538Z</time></trkpt><trkpt lat="46.4668454" lon="12.6916473"><ele>1303.25</ele><time>2026-04-26T17:20:37.54Z</time></trkpt><trkpt lat="46.4667403" lon="12.6916012"><ele>1300.0</ele><time>2026-04-26T17:20:38.539Z</time></trkpt><trkpt lat="46.4666522" lon="12.691565"><ele>1300.0</ele><time>2026-04-26T17:20:39.546Z</time></trkpt><trkpt lat="46.466585" lon="12.6915459"><ele>1300.0</ele><time>2026-04-26T17:20:40.541Z</time></trkpt><trkpt lat="46.4664804" lon="12.6916021"><ele>1300.0</ele><time>2026-04-26T17:20:42.534Z</time></trkpt><trkpt lat="46.4664476" lon="12.6917"><ele>1300.0</ele><time>2026-04-26T17:20:43.546Z</time></trkpt><trkpt lat="46.4664486" lon="12.6918429"><ele>1300.0</ele><time>2026-04-26T17:20:44.536Z</time></trkpt><trkpt lat="46.4664797" lon="12.6920009"><ele>1297.5</ele><time>2026-04-26T17:20:45.538Z</time></trkpt><trkpt lat="46.4665316" lon="12.692181"><ele>1295.0</ele><time>2026-04-26T17:20:46.532Z</time></trkpt><trkpt lat="46.4665996" lon="12.6923677"><ele>1292.5</ele><time>2026-04-26T17:20:47.543Z</time></trkpt><trkpt lat="46.4666697" lon="12.6925774"><ele>1290.0</ele><time>2026-04-26T17:20:48.543Z</time></trkpt><trkpt lat="46.4667398" lon="12.6927918"><ele>1288.0</ele><time>2026-04-26T17:20:49.536Z</time></trkpt><trkpt lat="46.4668077" lon="12.6930009"><ele>1286.0</ele><time>2026-04-26T17:20:50.537Z</time></trkpt><trkpt lat="46.466872" lon="12.6931944"><ele>1284.0</ele><time>2026-04-26T17:20:51.542Z</time></trkpt><trkpt lat="46.4669332" lon="12.6933651"><ele>1282.0</ele><time>2026-04-26T17:20:52.547Z</time></trkpt><trkpt lat="46.4669944" lon="12.693513"><ele>1280.6</ele><time>2026-04-26T17:20:53.54Z</time></trkpt><trkpt lat="46.4670586" lon="12.6936287"><ele>1279.1999999999998</ele><time>2026-04-26T17:20:54.533Z</time></trkpt><trkpt lat="46.4671313" lon="12.693728"><ele>1277.8</ele><time>2026-04-26T17:20:55.545Z</time></trkpt><trkpt lat="46.4672068" lon="12.6938167"><ele>1276.4</ele><time>2026-04-26T17:20:56.539Z</time></trkpt><trkpt lat="46.4672585" lon="12.693889"><ele>1275.0</ele><time>2026-04-26T17:20:57.553Z</time></trkpt><trkpt lat="46.4672546" lon="12.6940229"><ele>1275.0</ele><time>2026-04-26T17:20:59.544Z</time></trkpt><trkpt lat="46.46717" lon="12.694098"><ele>1275.0</ele><time>2026-04-26T17:21:01.539Z</time></trkpt><trkpt lat="46.4670763" lon="12.6940744"><ele>1275.0</ele><time>2026-04-26T17:21:02.54Z</time></trkpt><trkpt lat="46.4669537" lon="12.6940469"><ele>1275.0</ele><time>2026-04-26T17:21:03.541Z</time></trkpt><trkpt lat="46.4668227" lon="12.6940336"><ele>1275.0</ele><time>2026-04-26T17:21:04.539Z</time></trkpt><trkpt lat="46.4666779" lon="12.6940338"><ele>1275.0</ele><time>2026-04-26T17:21:05.547Z</time></trkpt><trkpt lat="46.4665327" lon="12.694031"><ele>1275.0</ele><time>2026-04-26T17:21:06.542Z</time></trkpt><trkpt lat="46.4663928" lon="12.6940359"><ele>1275.0</ele><time>2026-04-26T17:21:07.542Z</time></trkpt><trkpt lat="46.4662633" lon="12.6940248"><ele>1273.0</ele><time>2026-04-26T17:21:08.533Z</time></trkpt><trkpt lat="46.466132" lon="12.6940228"><ele>1271.0</ele><time>2026-04-26T17:21:09.542Z</time></trkpt><trkpt lat="46.4660147" lon="12.6940187"><ele>1269.0</ele><time>2026-04-26T17:21:10.532Z</time></trkpt><trkpt lat="46.4659005" lon="12.6940127"><ele>1267.0</ele><time>2026-04-26T17:21:11.54Z</time></trkpt><trkpt lat="46.46579" lon="12.6940065"><ele>1267.0</ele><time>2026-04-26T17:21:12.541Z</time></trkpt><trkpt lat="46.4656923" lon="12.6939944"><ele>1267.0</ele><time>2026-04-26T17:21:13.539Z</time></trkpt><trkpt lat="46.465607" lon="12.6939917"><ele>1267.0</ele><time>2026-04-26T17:21:14.54Z</time></trkpt><trkpt lat="46.4655323" lon="12.6939963"><ele>1267.0</ele><time>2026-04-26T17:21:15.545Z</time></trkpt><trkpt lat="46.4654437" lon="12.6940723"><ele>1267.0</ele><time>2026-04-26T17:21:17.55Z</time></trkpt><trkpt lat="46.4653871" lon="12.6941291"><ele>1267.0</ele><time>2026-04-26T17:21:22.544Z</time></trkpt><trkpt lat="46.4654272" lon="12.69429"><ele>1267.0</ele><time>2026-04-26T17:21:25.537Z</time></trkpt><trkpt lat="46.4654721" lon="12.6943889"><ele>1267.0</ele><time>2026-04-26T17:21:26.545Z</time></trkpt><trkpt lat="46.465525" lon="12.6945136"><ele>1267.0</ele><time>2026-04-26T17:21:27.548Z</time></trkpt><trkpt lat="46.4655832" lon="12.694679"><ele>1267.0</ele><time>2026-04-26T17:21:28.538Z</time></trkpt><trkpt lat="46.4656234" lon="12.694845"><ele>1267.0</ele><time>2026-04-26T17:21:29.538Z</time></trkpt><trkpt lat="46.4656717" lon="12.6950157"><ele>1265.5</ele><time>2026-04-26T17:21:30.542Z</time></trkpt><trkpt lat="46.4657251" lon="12.695195"><ele>1264.0</ele><time>2026-04-26T17:21:31.539Z</time></trkpt><trkpt lat="46.4657995" lon="12.6953613"><ele>1262.5</ele><time>2026-04-26T17:21:32.553Z</time></trkpt><trkpt lat="46.4658964" lon="12.6955281"><ele>1261.0</ele><time>2026-04-26T17:21:33.541Z</time></trkpt><trkpt lat="46.4659949" lon="12.6956937"><ele>1258.0</ele><time>2026-04-26T17:21:34.538Z</time></trkpt><trkpt lat="46.4660873" lon="12.6958506"><ele>1255.0</ele><time>2026-04-26T17:21:35.533Z</time></trkpt><trkpt lat="46.4661799" lon="12.696002"><ele>1252.0</ele><time>2026-04-26T17:21:36.542Z</time></trkpt><trkpt lat="46.4662617" lon="12.6961541"><ele>1249.0</ele><time>2026-04-26T17:21:37.548Z</time></trkpt><trkpt lat="46.4663453" lon="12.6963003"><ele>1249.0</ele><time>2026-04-26T17:21:38.542Z</time></trkpt><trkpt lat="46.4664279" lon="12.6964429"><ele>1249.0</ele><time>2026-04-26T17:21:39.545Z</time></trkpt><trkpt lat="46.4665111" lon="12.6965804"><ele>1249.0</ele><time>2026-04-26T17:21:40.545Z</time></trkpt><trkpt lat="46.4665854" lon="12.6967196"><ele>1249.0</ele><time>2026-04-26T17:21:41.541Z</time></trkpt><trkpt lat="46.4666456" lon="12.6968752"><ele>1246.75</ele><time>2026-04-26T17:21:42.541Z</time></trkpt><trkpt lat="46.4666926" lon="12.6970536"><ele>1244.5</ele><time>2026-04-26T17:21:43.539Z</time></trkpt><trkpt lat="46.4667248" lon="12.6972373"><ele>1242.25</ele><time>2026-04-26T17:21:44.546Z</time></trkpt><trkpt lat="46.4667535" lon="12.6974103"><ele>1240.0</ele><time>2026-04-26T17:21:45.537Z</time></trkpt><trkpt lat="46.4667673" lon="12.6975847"><ele>1237.5</ele><time>2026-04-26T17:21:46.54Z</time></trkpt><trkpt lat="46.4667601" lon="12.6977723"><ele>1235.0</ele><time>2026-04-26T17:21:47.548Z</time></trkpt><trkpt lat="46.4667488" lon="12.6979601"><ele>1232.5</ele><time>2026-04-26T17:21:48.539Z</time></trkpt><trkpt lat="46.4667393" lon="12.6981387"><ele>1230.0</ele><time>2026-04-26T17:21:49.541Z</time></trkpt><trkpt lat="46.4667458" lon="12.6983202"><ele>1230.0</ele><time>2026-04-26T17:21:50.539Z</time></trkpt><trkpt lat="46.4667799" lon="12.6984998"><ele>1230.0</ele><time>2026-04-26T17:21:51.549Z</time></trkpt><trkpt lat="46.4668372" lon="12.6986752"><ele>1230.0</ele><time>2026-04-26T17:21:52.534Z</time></trkpt><trkpt lat="46.4668878" lon="12.6988366"><ele>1230.0</ele><time>2026-04-26T17:21:53.531Z</time></trkpt><trkpt lat="46.4669128" lon="12.6990036"><ele>1230.5</ele><time>2026-04-26T17:21:54.541Z</time></trkpt><trkpt lat="46.4669055" lon="12.699164"><ele>1231.0</ele><time>2026-04-26T17:21:55.541Z</time></trkpt><trkpt lat="46.4668799" lon="12.6993331"><ele>1231.5</ele><time>2026-04-26T17:21:56.542Z</time></trkpt><trkpt lat="46.4668183" lon="12.6994997"><ele>1232.0</ele><time>2026-04-26T17:21:57.536Z</time></trkpt><trkpt lat="46.4667392" lon="12.6996758"><ele>1232.0</ele><time>2026-04-26T17:21:58.542Z</time></trkpt><trkpt lat="46.4666676" lon="12.699845"><ele>1232.0</ele><time>2026-04-26T17:21:59.539Z</time></trkpt><trkpt lat="46.4666072" lon="12.7000287"><ele>1232.0</ele><time>2026-04-26T17:22:00.532Z</time></trkpt><trkpt lat="46.4665368" lon="12.7002375"><ele>1232.0</ele><time>2026-04-26T17:22:01.539Z</time></trkpt><trkpt lat="46.466451" lon="12.7004542"><ele>1234.0</ele><time>2026-04-26T17:22:02.537Z</time></trkpt><trkpt lat="46.4663487" lon="12.7006605"><ele>1236.0</ele><time>2026-04-26T17:22:03.539Z</time></trkpt><trkpt lat="46.4662517" lon="12.7008934"><ele>1238.0</ele><time>2026-04-26T17:22:04.535Z</time></trkpt><trkpt lat="46.4661687" lon="12.7011246"><ele>1238.0</ele><time>2026-04-26T17:22:05.543Z</time></trkpt><trkpt lat="46.4661089" lon="12.7013311"><ele>1238.0</ele><time>2026-04-26T17:22:06.535Z</time></trkpt><trkpt lat="46.466048" lon="12.7015151"><ele>1238.0</ele><time>2026-04-26T17:22:07.539Z</time></trkpt><trkpt lat="46.4659681" lon="12.7016689"><ele>1238.0</ele><time>2026-04-26T17:22:08.535Z</time></trkpt><trkpt lat="46.4658859" lon="12.7018063"><ele>1238.1666666666667</ele><time>2026-04-26T17:22:09.538Z</time></trkpt><trkpt lat="46.4658299" lon="12.7019196"><ele>1238.3333333333335</ele><time>2026-04-26T17:22:10.538Z</time></trkpt><trkpt lat="46.4658074" lon="12.7020224"><ele>1238.5</ele><time>2026-04-26T17:22:11.535Z</time></trkpt><trkpt lat="46.4658109" lon="12.7021216"><ele>1238.6666666666667</ele><time>2026-04-26T17:22:12.545Z</time></trkpt><trkpt lat="46.4658584" lon="12.7022254"><ele>1238.8333333333333</ele><time>2026-04-26T17:22:13.536Z</time></trkpt><trkpt lat="46.465926" lon="12.7023122"><ele>1239.0</ele><time>2026-04-26T17:22:14.537Z</time></trkpt><trkpt lat="46.4660118" lon="12.7023946"><ele>1239.0</ele><time>2026-04-26T17:22:15.539Z</time></trkpt><trkpt lat="46.4660933" lon="12.7024575"><ele>1239.0</ele><time>2026-04-26T17:22:16.53Z</time></trkpt><trkpt lat="46.4661674" lon="12.7025373"><ele>1239.0</ele><time>2026-04-26T17:22:17.539Z</time></trkpt><trkpt lat="46.4662361" lon="12.7026351"><ele>1239.0</ele><time>2026-04-26T17:22:18.544Z</time></trkpt><trkpt lat="46.4662671" lon="12.7027788"><ele>1239.0</ele><time>2026-04-26T17:22:19.545Z</time></trkpt><trkpt lat="46.4662682" lon="12.7029798"><ele>1236.5</ele><time>2026-04-26T17:22:20.544Z</time></trkpt><trkpt lat="46.4662566" lon="12.7031885"><ele>1234.0</ele><time>2026-04-26T17:22:21.537Z</time></trkpt><trkpt lat="46.4662556" lon="12.7033962"><ele>1231.5</ele><time>2026-04-26T17:22:22.537Z</time></trkpt><trkpt lat="46.466251" lon="12.7036169"><ele>1229.0</ele><time>2026-04-26T17:22:23.537Z</time></trkpt><trkpt lat="46.4662506" lon="12.7038379"><ele>1229.0</ele><time>2026-04-26T17:22:24.542Z</time></trkpt><trkpt lat="46.4662428" lon="12.7040482"><ele>1229.0</ele><time>2026-04-26T17:22:25.554Z</time></trkpt><trkpt lat="46.4662305" lon="12.7042366"><ele>1229.0</ele><time>2026-04-26T17:22:26.557Z</time></trkpt><trkpt lat="46.4661998" lon="12.7044222"><ele>1229.0</ele><time>2026-04-26T17:22:27.536Z</time></trkpt><trkpt lat="46.4661389" lon="12.7046118"><ele>1229.0</ele><time>2026-04-26T17:22:28.538Z</time></trkpt><trkpt lat="46.4660613" lon="12.7047762"><ele>1229.0</ele><time>2026-04-26T17:22:29.541Z</time></trkpt><trkpt lat="46.4659937" lon="12.7049202"><ele>1229.0</ele><time>2026-04-26T17:22:30.54Z</time></trkpt><trkpt lat="46.4659521" lon="12.7050458"><ele>1229.0</ele><time>2026-04-26T17:22:31.542Z</time></trkpt><trkpt lat="46.4659449" lon="12.7051646"><ele>1229.0</ele><time>2026-04-26T17:22:32.536Z</time></trkpt><trkpt lat="46.4659415" lon="12.7052787"><ele>1227.0</ele><time>2026-04-26T17:22:33.541Z</time></trkpt><trkpt lat="46.4659442" lon="12.705397"><ele>1225.0</ele><time>2026-04-26T17:22:34.541Z</time></trkpt><trkpt lat="46.4659445" lon="12.7055169"><ele>1223.0</ele><time>2026-04-26T17:22:35.55Z</time></trkpt><trkpt lat="46.4659507" lon="12.7056752"><ele>1221.0</ele><time>2026-04-26T17:22:36.538Z</time></trkpt><trkpt lat="46.4659576" lon="12.7058626"><ele>1219.0</ele><time>2026-04-26T17:22:37.545Z</time></trkpt><trkpt lat="46.4659641" lon="12.7060419"><ele>1217.5</ele><time>2026-04-26T17:22:38.541Z</time></trkpt><trkpt lat="46.4659789" lon="12.7062112"><ele>1216.0</ele><time>2026-04-26T17:22:39.542Z</time></trkpt><trkpt lat="46.466013" lon="12.7063769"><ele>1214.5</ele><time>2026-04-26T17:22:40.541Z</time></trkpt><trkpt lat="46.4660485" lon="12.7065407"><ele>1213.0</ele><time>2026-04-26T17:22:41.546Z</time></trkpt><trkpt lat="46.4660889" lon="12.7067029"><ele>1213.0</ele><time>2026-04-26T17:22:42.54Z</time></trkpt><trkpt lat="46.4661353" lon="12.7068603"><ele>1213.0</ele><time>2026-04-26T17:22:43.538Z</time></trkpt><trkpt lat="46.4661824" lon="12.7070178"><ele>1213.0</ele><time>2026-04-26T17:22:44.535Z</time></trkpt><trkpt lat="46.4662319" lon="12.707171"><ele>1213.0</ele><time>2026-04-26T17:22:45.541Z</time></trkpt><trkpt lat="46.4662764" lon="12.707319"><ele>1213.1666666666665</ele><time>2026-04-26T17:22:46.54Z</time></trkpt><trkpt lat="46.4663233" lon="12.7074625"><ele>1213.3333333333333</ele><time>2026-04-26T17:22:47.546Z</time></trkpt><trkpt lat="46.466362" lon="12.7075911"><ele>1213.5</ele><time>2026-04-26T17:22:48.533Z</time></trkpt><trkpt lat="46.4663964" lon="12.7076927"><ele>1213.6666666666667</ele><time>2026-04-26T17:22:49.541Z</time></trkpt><trkpt lat="46.4664277" lon="12.7077881"><ele>1213.8333333333335</ele><time>2026-04-26T17:22:50.537Z</time></trkpt><trkpt lat="46.466449" lon="12.7078836"><ele>1214.0</ele><time>2026-04-26T17:22:51.535Z</time></trkpt><trkpt lat="46.466435" lon="12.7080789"><ele>1212.25</ele><time>2026-04-26T17:22:53.537Z</time></trkpt><trkpt lat="46.4663828" lon="12.7082121"><ele>1210.5</ele><time>2026-04-26T17:22:54.543Z</time></trkpt><trkpt lat="46.4663" lon="12.7083621"><ele>1208.75</ele><time>2026-04-26T17:22:55.542Z</time></trkpt><trkpt lat="46.4662223" lon="12.7085171"><ele>1207.0</ele><time>2026-04-26T17:22:56.544Z</time></trkpt><trkpt lat="46.4661475" lon="12.7086795"><ele>1204.5</ele><time>2026-04-26T17:22:57.541Z</time></trkpt><trkpt lat="46.4660677" lon="12.7088396"><ele>1202.0</ele><time>2026-04-26T17:22:58.543Z</time></trkpt><trkpt lat="46.4659847" lon="12.7089941"><ele>1199.5</ele><time>2026-04-26T17:22:59.54Z</time></trkpt><trkpt lat="46.4659107" lon="12.7091402"><ele>1197.0</ele><time>2026-04-26T17:23:00.538Z</time></trkpt><trkpt lat="46.4658388" lon="12.7092927"><ele>1196.0</ele><time>2026-04-26T17:23:01.547Z</time></trkpt><trkpt lat="46.4657677" lon="12.709443"><ele>1195.0</ele><time>2026-04-26T17:23:02.538Z</time></trkpt><trkpt lat="46.4656895" lon="12.7095987"><ele>1194.0</ele><time>2026-04-26T17:23:03.544Z</time></trkpt><trkpt lat="46.4656096" lon="12.7097597"><ele>1193.0</ele><time>2026-04-26T17:23:04.537Z</time></trkpt><trkpt lat="46.4655294" lon="12.7099253"><ele>1193.0</ele><time>2026-04-26T17:23:05.535Z</time></trkpt><trkpt lat="46.4654471" lon="12.710082"><ele>1193.0</ele><time>2026-04-26T17:23:06.541Z</time></trkpt><trkpt lat="46.4653676" lon="12.7102305"><ele>1193.0</ele><time>2026-04-26T17:23:07.54Z</time></trkpt><trkpt lat="46.4652942" lon="12.7103799"><ele>1193.0</ele><time>2026-04-26T17:23:08.542Z</time></trkpt><trkpt lat="46.4652335" lon="12.7105357"><ele>1189.25</ele><time>2026-04-26T17:23:09.534Z</time></trkpt><trkpt lat="46.4651802" lon="12.7107153"><ele>1185.5</ele><time>2026-04-26T17:23:10.548Z</time></trkpt><trkpt lat="46.4651438" lon="12.7109023"><ele>1181.75</ele><time>2026-04-26T17:23:11.535Z</time></trkpt><trkpt lat="46.4651115" lon="12.7110895"><ele>1178.0</ele><time>2026-04-26T17:23:12.545Z</time></trkpt><trkpt lat="46.4650749" lon="12.7112737"><ele>1178.0</ele><time>2026-04-26T17:23:13.54Z</time></trkpt><trkpt lat="46.4650412" lon="12.7114442"><ele>1178.0</ele><time>2026-04-26T17:23:14.533Z</time></trkpt><trkpt lat="46.4650118" lon="12.7116047"><ele>1178.0</ele><time>2026-04-26T17:23:15.542Z</time></trkpt><trkpt lat="46.4649811" lon="12.7117583"><ele>1178.0</ele><time>2026-04-26T17:23:16.536Z</time></trkpt><trkpt lat="46.4649535" lon="12.7119006"><ele>1178.0</ele><time>2026-04-26T17:23:17.542Z</time></trkpt><trkpt lat="46.4649248" lon="12.7120242"><ele>1178.8333333333335</ele><time>2026-04-26T17:23:18.535Z</time></trkpt><trkpt lat="46.4648944" lon="12.7121132"><ele>1179.6666666666667</ele><time>2026-04-26T17:23:19.543Z</time></trkpt><trkpt lat="46.4648513" lon="12.7121836"><ele>1180.5</ele><time>2026-04-26T17:23:20.53Z</time></trkpt><trkpt lat="46.4647869" lon="12.7122096"><ele>1181.3333333333333</ele><time>2026-04-26T17:23:21.538Z</time></trkpt><trkpt lat="46.4647071" lon="12.7121933"><ele>1182.1666666666665</ele><time>2026-04-26T17:23:22.534Z</time></trkpt><trkpt lat="46.4646453" lon="12.7121211"><ele>1183.0</ele><time>2026-04-26T17:23:23.537Z</time></trkpt><trkpt lat="46.4645928" lon="12.7120026"><ele>1178.0</ele><time>2026-04-26T17:23:24.539Z</time></trkpt><trkpt lat="46.464521" lon="12.7118735"><ele>1173.0</ele><time>2026-04-26T17:23:25.544Z</time></trkpt><trkpt lat="46.4644476" lon="12.7117309"><ele>1168.0</ele><time>2026-04-26T17:23:26.535Z</time></trkpt><trkpt lat="46.4643693" lon="12.7115852"><ele>1163.0</ele><time>2026-04-26T17:23:27.541Z</time></trkpt><trkpt lat="46.4643024" lon="12.7114571"><ele>1163.0</ele><time>2026-04-26T17:23:28.538Z</time></trkpt><trkpt lat="46.4642459" lon="12.7113414"><ele>1163.0</ele><time>2026-04-26T17:23:29.541Z</time></trkpt><trkpt lat="46.4641989" lon="12.7112391"><ele>1163.0</ele><time>2026-04-26T17:23:30.543Z</time></trkpt><trkpt lat="46.4641575" lon="12.7111656"><ele>1163.0</ele><time>2026-04-26T17:23:31.544Z</time></trkpt><trkpt lat="46.4640789" lon="12.7110696"><ele>1163.0</ele><time>2026-04-26T17:23:33.538Z</time></trkpt><trkpt lat="46.4640159" lon="12.7110691"><ele>1163.0</ele><time>2026-04-26T17:23:34.537Z</time></trkpt><trkpt lat="46.4639531" lon="12.7111226"><ele>1163.0</ele><time>2026-04-26T17:23:35.535Z</time></trkpt><trkpt lat="46.4639062" lon="12.7112378"><ele>1163.0</ele><time>2026-04-26T17:23:36.548Z</time></trkpt><trkpt lat="46.4638787" lon="12.7113782"><ele>1163.0</ele><time>2026-04-26T17:23:37.54Z</time></trkpt><trkpt lat="46.4638555" lon="12.7115247"><ele>1163.0</ele><time>2026-04-26T17:23:38.538Z</time></trkpt><trkpt lat="46.4638286" lon="12.7116955"><ele>1163.0</ele><time>2026-04-26T17:23:39.541Z</time></trkpt><trkpt lat="46.4637953" lon="12.711896"><ele>1157.75</ele><time>2026-04-26T17:23:40.542Z</time></trkpt><trkpt lat="46.4637643" lon="12.7121016"><ele>1152.5</ele><time>2026-04-26T17:23:41.541Z</time></trkpt><trkpt lat="46.4637344" lon="12.712303"><ele>1147.25</ele><time>2026-04-26T17:23:42.546Z</time></trkpt><trkpt lat="46.4637073" lon="12.7124896"><ele>1142.0</ele><time>2026-04-26T17:23:43.541Z</time></trkpt><trkpt lat="46.463676" lon="12.7126761"><ele>1141.4</ele><time>2026-04-26T17:23:44.536Z</time></trkpt><trkpt lat="46.463653" lon="12.7128492"><ele>1140.8000000000002</ele><time>2026-04-26T17:23:45.542Z</time></trkpt><trkpt lat="46.4636328" lon="12.7130099"><ele>1140.2</ele><time>2026-04-26T17:23:46.535Z</time></trkpt><trkpt lat="46.4636129" lon="12.7131516"><ele>1139.6000000000001</ele><time>2026-04-26T17:23:47.544Z</time></trkpt><trkpt lat="46.4635947" lon="12.7132682"><ele>1139.0</ele><time>2026-04-26T17:23:48.542Z</time></trkpt><trkpt lat="46.4635743" lon="12.7133629"><ele>1139.0</ele><time>2026-04-26T17:23:49.53Z</time></trkpt><trkpt lat="46.4634575" lon="12.713427"><ele>1139.0</ele><time>2026-04-26T17:23:51.539Z</time></trkpt><trkpt lat="46.4633837" lon="12.7133685"><ele>1139.0</ele><time>2026-04-26T17:23:52.548Z</time></trkpt><trkpt lat="46.4633039" lon="12.7132735"><ele>1139.0</ele><time>2026-04-26T17:23:53.541Z</time></trkpt><trkpt lat="46.463229" lon="12.7131444"><ele>1139.0</ele><time>2026-04-26T17:23:54.538Z</time></trkpt><trkpt lat="46.463149" lon="12.7130064"><ele>1139.0</ele><time>2026-04-26T17:23:55.542Z</time></trkpt><trkpt lat="46.4630589" lon="12.7128669"><ele>1139.0</ele><time>2026-04-26T17:23:56.536Z</time></trkpt><trkpt lat="46.4629703" lon="12.7127264"><ele>1139.0</ele><time>2026-04-26T17:23:57.538Z</time></trkpt><trkpt lat="46.4628871" lon="12.7125971"><ele>1139.0</ele><time>2026-04-26T17:23:58.541Z</time></trkpt><trkpt lat="46.4628051" lon="12.7124741"><ele>1136.8</ele><time>2026-04-26T17:23:59.547Z</time></trkpt><trkpt lat="46.4627315" lon="12.7123694"><ele>1134.6000000000001</ele><time>2026-04-26T17:24:00.539Z</time></trkpt><trkpt lat="46.4626513" lon="12.7122879"><ele>1132.4</ele><time>2026-04-26T17:24:01.539Z</time></trkpt><trkpt lat="46.4625623" lon="12.712227"><ele>1130.2</ele><time>2026-04-26T17:24:02.538Z</time></trkpt><trkpt lat="46.4624596" lon="12.7121808"><ele>1128.0</ele><time>2026-04-26T17:24:03.539Z</time></trkpt><trkpt lat="46.4623567" lon="12.7121444"><ele>1128.0</ele><time>2026-04-26T17:24:04.544Z</time></trkpt><trkpt lat="46.4622688" lon="12.7121339"><ele>1128.0</ele><time>2026-04-26T17:24:05.545Z</time></trkpt><trkpt lat="46.4621845" lon="12.7121452"><ele>1128.0</ele><time>2026-04-26T17:24:06.545Z</time></trkpt><trkpt lat="46.4621096" lon="12.7121873"><ele>1128.0</ele><time>2026-04-26T17:24:07.543Z</time></trkpt><trkpt lat="46.4620472" lon="12.7122816"><ele>1128.0</ele><time>2026-04-26T17:24:08.538Z</time></trkpt><trkpt lat="46.4620076" lon="12.7124243"><ele>1128.0</ele><time>2026-04-26T17:24:09.538Z</time></trkpt><trkpt lat="46.4620046" lon="12.7125872"><ele>1125.0</ele><time>2026-04-26T17:24:10.539Z</time></trkpt><trkpt lat="46.4620051" lon="12.7127563"><ele>1122.0</ele><time>2026-04-26T17:24:11.539Z</time></trkpt><trkpt lat="46.4620127" lon="12.7129385"><ele>1119.0</ele><time>2026-04-26T17:24:12.542Z</time></trkpt><trkpt lat="46.4620202" lon="12.7131255"><ele>1116.0</ele><time>2026-04-26T17:24:13.54Z</time></trkpt><trkpt lat="46.4620228" lon="12.713294"><ele>1116.0</ele><time>2026-04-26T17:24:14.541Z</time></trkpt><trkpt lat="46.4620031" lon="12.7134557"><ele>1116.0</ele><time>2026-04-26T17:24:15.541Z</time></trkpt><trkpt lat="46.4619629" lon="12.7136096"><ele>1116.0</ele><time>2026-04-26T17:24:16.546Z</time></trkpt><trkpt lat="46.4619123" lon="12.7137662"><ele>1116.0</ele><time>2026-04-26T17:24:17.532Z</time></trkpt><trkpt lat="46.4618436" lon="12.7139152"><ele>1115.0</ele><time>2026-04-26T17:24:18.533Z</time></trkpt><trkpt lat="46.4617739" lon="12.7140679"><ele>1114.0</ele><time>2026-04-26T17:24:19.534Z</time></trkpt><trkpt lat="46.4617172" lon="12.7142159"><ele>1113.0</ele><time>2026-04-26T17:24:20.536Z</time></trkpt><trkpt lat="46.4616737" lon="12.714361"><ele>1112.0</ele><time>2026-04-26T17:24:21.534Z</time></trkpt><trkpt lat="46.46165" lon="12.7145092"><ele>1112.0</ele><time>2026-04-26T17:24:22.533Z</time></trkpt><trkpt lat="46.4616394" lon="12.7146561"><ele>1112.0</ele><time>2026-04-26T17:24:23.538Z</time></trkpt><trkpt lat="46.4616315" lon="12.7147955"><ele>1112.0</ele><time>2026-04-26T17:24:24.537Z</time></trkpt><trkpt lat="46.4616205" lon="12.7149136"><ele>1112.0</ele><time>2026-04-26T17:24:25.537Z</time></trkpt><trkpt lat="46.4616053" lon="12.7150054"><ele>1112.0</ele><time>2026-04-26T17:24:26.537Z</time></trkpt><trkpt lat="46.4615074" lon="12.7150852"><ele>1112.0</ele><time>2026-04-26T17:24:28.54Z</time></trkpt><trkpt lat="46.4613756" lon="12.7149404"><ele>1112.0</ele><time>2026-04-26T17:24:30.543Z</time></trkpt><trkpt lat="46.4613152" lon="12.7148077"><ele>1112.0</ele><time>2026-04-26T17:24:31.545Z</time></trkpt><trkpt lat="46.4612541" lon="12.7146705"><ele>1112.0</ele><time>2026-04-26T17:24:32.535Z</time></trkpt><trkpt lat="46.4611934" lon="12.7145657"><ele>1108.8</ele><time>2026-04-26T17:24:33.538Z</time></trkpt><trkpt lat="46.4611431" lon="12.7144751"><ele>1105.6</ele><time>2026-04-26T17:24:34.534Z</time></trkpt><trkpt lat="46.4610968" lon="12.7144117"><ele>1102.3999999999999</ele><time>2026-04-26T17:24:35.544Z</time></trkpt><trkpt lat="46.4609829" lon="12.7144066"><ele>1099.2</ele><time>2026-04-26T17:24:37.531Z</time></trkpt><trkpt lat="46.4609259" lon="12.7144989"><ele>1096.0</ele><time>2026-04-26T17:24:38.54Z</time></trkpt><trkpt lat="46.4608605" lon="12.7146398"><ele>1096.0</ele><time>2026-04-26T17:24:39.541Z</time></trkpt><trkpt lat="46.4608082" lon="12.7147996"><ele>1096.0</ele><time>2026-04-26T17:24:40.537Z</time></trkpt><trkpt lat="46.4607536" lon="12.7149693"><ele>1096.0</ele><time>2026-04-26T17:24:41.543Z</time></trkpt><trkpt lat="46.4606934" lon="12.7151611"><ele>1096.0</ele><time>2026-04-26T17:24:42.544Z</time></trkpt><trkpt lat="46.4606216" lon="12.7153692"><ele>1098.0</ele><time>2026-04-26T17:24:43.535Z</time></trkpt><trkpt lat="46.4605384" lon="12.715578"><ele>1100.0</ele><time>2026-04-26T17:24:44.535Z</time></trkpt><trkpt lat="46.460452" lon="12.7157838"><ele>1102.0</ele><time>2026-04-26T17:24:45.537Z</time></trkpt><trkpt lat="46.4603617" lon="12.7159723"><ele>1098.0</ele><time>2026-04-26T17:24:46.533Z</time></trkpt><trkpt lat="46.4602717" lon="12.716154"><ele>1094.0</ele><time>2026-04-26T17:24:47.546Z</time></trkpt><trkpt lat="46.4601916" lon="12.7163228"><ele>1090.0</ele><time>2026-04-26T17:24:48.53Z</time></trkpt><trkpt lat="46.4601258" lon="12.7164628"><ele>1086.0</ele><time>2026-04-26T17:24:49.542Z</time></trkpt><trkpt lat="46.4600676" lon="12.7165632"><ele>1086.0</ele><time>2026-04-26T17:24:50.539Z</time></trkpt><trkpt lat="46.4600105" lon="12.716626"><ele>1086.0</ele><time>2026-04-26T17:24:51.539Z</time></trkpt><trkpt lat="46.4599263" lon="12.7166391"><ele>1086.0</ele><time>2026-04-26T17:24:52.537Z</time></trkpt><trkpt lat="46.459846" lon="12.7166098"><ele>1086.0</ele><time>2026-04-26T17:24:53.539Z</time></trkpt><trkpt lat="46.4597561" lon="12.7165451"><ele>1086.0</ele><time>2026-04-26T17:24:54.536Z</time></trkpt><trkpt lat="46.4596747" lon="12.7164974"><ele>1086.0</ele><time>2026-04-26T17:24:55.543Z</time></trkpt><trkpt lat="46.4596014" lon="12.716487"><ele>1079.6</ele><time>2026-04-26T17:24:56.541Z</time></trkpt><trkpt lat="46.4595262" lon="12.7165265"><ele>1073.1999999999998</ele><time>2026-04-26T17:24:57.538Z</time></trkpt><trkpt lat="46.459437" lon="12.7166125"><ele>1066.8000000000002</ele><time>2026-04-26T17:24:58.536Z</time></trkpt><trkpt lat="46.4593647" lon="12.7167373"><ele>1060.4</ele><time>2026-04-26T17:24:59.535Z</time></trkpt><trkpt lat="46.4592956" lon="12.7168655"><ele>1054.0</ele><time>2026-04-26T17:25:00.544Z</time></trkpt><trkpt lat="46.4592391" lon="12.716981"><ele>1053.8</ele><time>2026-04-26T17:25:01.535Z</time></trkpt><trkpt lat="46.4592223" lon="12.7170865"><ele>1053.6000000000001</ele><time>2026-04-26T17:25:02.544Z</time></trkpt><trkpt lat="46.4592523" lon="12.7172071"><ele>1053.4</ele><time>2026-04-26T17:25:03.535Z</time></trkpt><trkpt lat="46.4593061" lon="12.7173375"><ele>1053.2</ele><time>2026-04-26T17:25:04.532Z</time></trkpt><trkpt lat="46.4593681" lon="12.7174439"><ele>1053.0</ele><time>2026-04-26T17:25:05.537Z</time></trkpt><trkpt lat="46.4594329" lon="12.7175398"><ele>1053.0</ele><time>2026-04-26T17:25:06.532Z</time></trkpt><trkpt lat="46.459469" lon="12.7176199"><ele>1053.0</ele><time>2026-04-26T17:25:07.544Z</time></trkpt><trkpt lat="46.4594877" lon="12.7177137"><ele>1053.0</ele><time>2026-04-26T17:25:08.536Z</time></trkpt><trkpt lat="46.4594254" lon="12.7178729"><ele>1053.0</ele><time>2026-04-26T17:25:10.538Z</time></trkpt><trkpt lat="46.4593645" lon="12.7179362"><ele>1053.0</ele><time>2026-04-26T17:25:11.54Z</time></trkpt><trkpt lat="46.4592755" lon="12.7179898"><ele>1053.0</ele><time>2026-04-26T17:25:12.536Z</time></trkpt><trkpt lat="46.4591831" lon="12.718014"><ele>1052.1666666666667</ele><time>2026-04-26T17:25:13.534Z</time></trkpt><trkpt lat="46.4591053" lon="12.718065"><ele>1051.3333333333333</ele><time>2026-04-26T17:25:14.542Z</time></trkpt><trkpt lat="46.4590589" lon="12.718151"><ele>1050.5</ele><time>2026-04-26T17:25:15.537Z</time></trkpt><trkpt lat="46.4590414" lon="12.718269"><ele>1049.6666666666665</ele><time>2026-04-26T17:25:16.541Z</time></trkpt><trkpt lat="46.4590471" lon="12.7183725"><ele>1048.8333333333333</ele><time>2026-04-26T17:25:17.537Z</time></trkpt><trkpt lat="46.4590827" lon="12.7184635"><ele>1048.0</ele><time>2026-04-26T17:25:18.538Z</time></trkpt><trkpt lat="46.4591672" lon="12.7185184"><ele>1048.0</ele><time>2026-04-26T17:25:19.536Z</time></trkpt><trkpt lat="46.4592632" lon="12.7185551"><ele>1048.0</ele><time>2026-04-26T17:25:20.54Z</time></trkpt><trkpt lat="46.45936" lon="12.7185858"><ele>1048.0</ele><time>2026-04-26T17:25:21.534Z</time></trkpt><trkpt lat="46.4594495" lon="12.7186269"><ele>1048.0</ele><time>2026-04-26T17:25:22.545Z</time></trkpt><trkpt lat="46.4595293" lon="12.718699"><ele>1048.0</ele><time>2026-04-26T17:25:23.541Z</time></trkpt><trkpt lat="46.45959" lon="12.7187994"><ele>1048.5</ele><time>2026-04-26T17:25:24.538Z</time></trkpt><trkpt lat="46.4596276" lon="12.7188854"><ele>1049.0</ele><time>2026-04-26T17:25:25.544Z</time></trkpt><trkpt lat="46.4596285" lon="12.7190159"><ele>1049.5</ele><time>2026-04-26T17:25:27.543Z</time></trkpt><trkpt lat="46.4595284" lon="12.7190408"><ele>1050.0</ele><time>2026-04-26T17:25:29.533Z</time></trkpt><trkpt lat="46.4594548" lon="12.7190023"><ele>1050.5</ele><time>2026-04-26T17:25:30.537Z</time></trkpt><trkpt lat="46.4593535" lon="12.7189669"><ele>1051.0</ele><time>2026-04-26T17:25:31.539Z</time></trkpt><trkpt lat="46.4592554" lon="12.7189459"><ele>1051.0</ele><time>2026-04-26T17:25:32.537Z</time></trkpt><trkpt lat="46.4591297" lon="12.7189626"><ele>1051.0</ele><time>2026-04-26T17:25:33.544Z</time></trkpt><trkpt lat="46.4589938" lon="12.7190009"><ele>1051.0</ele><time>2026-04-26T17:25:34.536Z</time></trkpt><trkpt lat="46.4588754" lon="12.719033"><ele>1051.0</ele><time>2026-04-26T17:25:35.545Z</time></trkpt><trkpt lat="46.4587749" lon="12.7190667"><ele>1049.6</ele><time>2026-04-26T17:25:36.535Z</time></trkpt><trkpt lat="46.4586926" lon="12.7191058"><ele>1048.1999999999998</ele><time>2026-04-26T17:25:37.539Z</time></trkpt><trkpt lat="46.4586145" lon="12.7191877"><ele>1046.8000000000002</ele><time>2026-04-26T17:25:38.537Z</time></trkpt><trkpt lat="46.4585338" lon="12.7193161"><ele>1045.4</ele><time>2026-04-26T17:25:39.537Z</time></trkpt><trkpt lat="46.4584719" lon="12.7194663"><ele>1044.0</ele><time>2026-04-26T17:25:40.535Z</time></trkpt><trkpt lat="46.4584243" lon="12.7196027"><ele>1044.0</ele><time>2026-04-26T17:25:41.538Z</time></trkpt><trkpt lat="46.4583786" lon="12.7197007"><ele>1044.0</ele><time>2026-04-26T17:25:42.542Z</time></trkpt><trkpt lat="46.4583008" lon="12.7197677"><ele>1044.0</ele><time>2026-04-26T17:25:43.541Z</time></trkpt><trkpt lat="46.4581809" lon="12.7198373"><ele>1044.0</ele><time>2026-04-26T17:25:44.539Z</time></trkpt><trkpt lat="46.4580592" lon="12.7198991"><ele>1044.0</ele><time>2026-04-26T17:25:45.541Z</time></trkpt><trkpt lat="46.4579523" lon="12.71996"><ele>1042.4</ele><time>2026-04-26T17:25:46.537Z</time></trkpt><trkpt lat="46.4578736" lon="12.7200212"><ele>1040.8000000000002</ele><time>2026-04-26T17:25:47.538Z</time></trkpt><trkpt lat="46.4578135" lon="12.7200931"><ele>1039.1999999999998</ele><time>2026-04-26T17:25:48.537Z</time></trkpt><trkpt lat="46.457762" lon="12.7202077"><ele>1037.6</ele><time>2026-04-26T17:25:49.54Z</time></trkpt><trkpt lat="46.4577231" lon="12.7203623"><ele>1036.0</ele><time>2026-04-26T17:25:50.54Z</time></trkpt><trkpt lat="46.4577122" lon="12.7205481"><ele>1031.0</ele><time>2026-04-26T17:25:51.544Z</time></trkpt><trkpt lat="46.4576988" lon="12.7207254"><ele>1026.0</ele><time>2026-04-26T17:25:52.54Z</time></trkpt><trkpt lat="46.457696" lon="12.7208841"><ele>1021.0</ele><time>2026-04-26T17:25:53.537Z</time></trkpt><trkpt lat="46.45771" lon="12.7210491"><ele>1016.0</ele><time>2026-04-26T17:25:54.537Z</time></trkpt><trkpt lat="46.457742" lon="12.721202"><ele>1017.5999999999999</ele><time>2026-04-26T17:25:55.538Z</time></trkpt><trkpt lat="46.4577846" lon="12.7213395"><ele>1019.1999999999999</ele><time>2026-04-26T17:25:56.534Z</time></trkpt><trkpt lat="46.4578026" lon="12.7214715"><ele>1020.8000000000001</ele><time>2026-04-26T17:25:57.544Z</time></trkpt><trkpt lat="46.45779" lon="12.7216186"><ele>1022.4000000000001</ele><time>2026-04-26T17:25:58.538Z</time></trkpt><trkpt lat="46.4577522" lon="12.7217713"><ele>1024.0</ele><time>2026-04-26T17:25:59.539Z</time></trkpt><trkpt lat="46.4577243" lon="12.7219113"><ele>1024.0</ele><time>2026-04-26T17:26:00.532Z</time></trkpt><trkpt lat="46.4576891" lon="12.7220335"><ele>1024.0</ele><time>2026-04-26T17:26:01.539Z</time></trkpt><trkpt lat="46.4576446" lon="12.7221281"><ele>1024.0</ele><time>2026-04-26T17:26:02.535Z</time></trkpt><trkpt lat="46.4575693" lon="12.7221865"><ele>1024.0</ele><time>2026-04-26T17:26:03.533Z</time></trkpt><trkpt lat="46.4574679" lon="12.7222317"><ele>1024.0</ele><time>2026-04-26T17:26:04.533Z</time></trkpt><trkpt lat="46.4573568" lon="12.7222802"><ele>1024.0</ele><time>2026-04-26T17:26:05.535Z</time></trkpt><trkpt lat="46.4572406" lon="12.7223239"><ele>1024.0</ele><time>2026-04-26T17:26:06.541Z</time></trkpt><trkpt lat="46.4571331" lon="12.722382"><ele>1024.0</ele><time>2026-04-26T17:26:07.541Z</time></trkpt><trkpt lat="46.4570457" lon="12.7224592"><ele>1024.0</ele><time>2026-04-26T17:26:08.537Z</time></trkpt><trkpt lat="46.4569667" lon="12.7225742"><ele>1024.0</ele><time>2026-04-26T17:26:09.538Z</time></trkpt><trkpt lat="46.4569014" lon="12.7227206"><ele>1021.75</ele><time>2026-04-26T17:26:10.535Z</time></trkpt><trkpt lat="46.4568429" lon="12.722893"><ele>1019.5</ele><time>2026-04-26T17:26:11.547Z</time></trkpt><trkpt lat="46.4567842" lon="12.7230624"><ele>1017.25</ele><time>2026-04-26T17:26:12.535Z</time></trkpt><trkpt lat="46.4567242" lon="12.7232002"><ele>1015.0</ele><time>2026-04-26T17:26:13.54Z</time></trkpt><trkpt lat="46.4566469" lon="12.723311"><ele>1015.0</ele><time>2026-04-26T17:26:14.535Z</time></trkpt><trkpt lat="46.4565659" lon="12.7234107"><ele>1015.0</ele><time>2026-04-26T17:26:15.534Z</time></trkpt><trkpt lat="46.4564766" lon="12.7235265"><ele>1015.0</ele><time>2026-04-26T17:26:16.531Z</time></trkpt><trkpt lat="46.4564011" lon="12.7236533"><ele>1015.0</ele><time>2026-04-26T17:26:17.533Z</time></trkpt><trkpt lat="46.4563474" lon="12.7238288"><ele>1011.75</ele><time>2026-04-26T17:26:18.529Z</time></trkpt><trkpt lat="46.456304" lon="12.7240021"><ele>1008.5</ele><time>2026-04-26T17:26:19.535Z</time></trkpt><trkpt lat="46.4562544" lon="12.7241598"><ele>1005.25</ele><time>2026-04-26T17:26:20.538Z</time></trkpt><trkpt lat="46.456199" lon="12.724307"><ele>1002.0</ele><time>2026-04-26T17:26:21.533Z</time></trkpt><trkpt lat="46.4561447" lon="12.7244308"><ele>1002.0</ele><time>2026-04-26T17:26:22.535Z</time></trkpt><trkpt lat="46.4560959" lon="12.7245435"><ele>1002.0</ele><time>2026-04-26T17:26:23.538Z</time></trkpt><trkpt lat="46.4560561" lon="12.7246653"><ele>1002.0</ele><time>2026-04-26T17:26:24.534Z</time></trkpt><trkpt lat="46.4560306" lon="12.7248203"><ele>1002.0</ele><time>2026-04-26T17:26:25.538Z</time></trkpt><trkpt lat="46.4560169" lon="12.7249923"><ele>1002.0</ele><time>2026-04-26T17:26:26.536Z</time></trkpt><trkpt lat="46.4560067" lon="12.725172"><ele>1003.6</ele><time>2026-04-26T17:26:27.54Z</time></trkpt><trkpt lat="46.4559988" lon="12.725341"><ele>1005.2</ele><time>2026-04-26T17:26:28.531Z</time></trkpt><trkpt lat="46.4559995" lon="12.7254661"><ele>1006.8</ele><time>2026-04-26T17:26:29.537Z</time></trkpt><trkpt lat="46.4559965" lon="12.7255723"><ele>1008.4</ele><time>2026-04-26T17:26:30.535Z</time></trkpt><trkpt lat="46.4559624" lon="12.7257116"><ele>1010.0</ele><time>2026-04-26T17:26:32.54Z</time></trkpt><trkpt lat="46.4558344" lon="12.7256902"><ele>1010.0</ele><time>2026-04-26T17:26:34.529Z</time></trkpt><trkpt lat="46.4557407" lon="12.7256571"><ele>1010.0</ele><time>2026-04-26T17:26:35.536Z</time></trkpt><trkpt lat="46.4556435" lon="12.7256414"><ele>1010.0</ele><time>2026-04-26T17:26:36.53Z</time></trkpt><trkpt lat="46.4555528" lon="12.7256644"><ele>1010.0</ele><time>2026-04-26T17:26:37.533Z</time></trkpt><trkpt lat="46.4554643" lon="12.7256916"><ele>1010.0</ele><time>2026-04-26T17:26:38.537Z</time></trkpt><trkpt lat="46.4553725" lon="12.7257372"><ele>1009.4</ele><time>2026-04-26T17:26:39.537Z</time></trkpt><trkpt lat="46.4552804" lon="12.725816"><ele>1008.8</ele><time>2026-04-26T17:26:40.539Z</time></trkpt><trkpt lat="46.455184" lon="12.7259192"><ele>1008.2</ele><time>2026-04-26T17:26:41.534Z</time></trkpt><trkpt lat="46.4550965" lon="12.7260159"><ele>1007.6</ele><time>2026-04-26T17:26:42.535Z</time></trkpt><trkpt lat="46.4550206" lon="12.7260925"><ele>1007.0</ele><time>2026-04-26T17:26:43.533Z</time></trkpt><trkpt lat="46.4549561" lon="12.7261748"><ele>1007.0000000000001</ele><time>2026-04-26T17:26:44.545Z</time></trkpt><trkpt lat="46.4549048" lon="12.7262655"><ele>1007.0</ele><time>2026-04-26T17:26:45.537Z</time></trkpt><trkpt lat="46.4548714" lon="12.7263729"><ele>1007.0</ele><time>2026-04-26T17:26:46.551Z</time></trkpt><trkpt lat="46.4548489" lon="12.7264915"><ele>1007.0</ele><time>2026-04-26T17:26:47.532Z</time></trkpt><trkpt lat="46.4548442" lon="12.7266043"><ele>1007.0000000000001</ele><time>2026-04-26T17:26:48.54Z</time></trkpt><trkpt lat="46.4548448" lon="12.7267126"><ele>1007.0</ele><time>2026-04-26T17:26:49.534Z</time></trkpt><trkpt lat="46.4548334" lon="12.7268187"><ele>1013.0</ele><time>2026-04-26T17:26:50.538Z</time></trkpt><trkpt lat="46.4548245" lon="12.726922"><ele>1019.0</ele><time>2026-04-26T17:26:51.545Z</time></trkpt><trkpt lat="46.4548102" lon="12.7270908"><ele>1025.0</ele><time>2026-04-26T17:26:53.544Z</time></trkpt><trkpt lat="46.4547383" lon="12.7272061"><ele>1031.0</ele><time>2026-04-26T17:26:55.532Z</time></trkpt><trkpt lat="46.454614" lon="12.7271957"><ele>1037.0</ele><time>2026-04-26T17:26:57.541Z</time></trkpt><trkpt lat="46.45455" lon="12.7271171"><ele>1037.0</ele><time>2026-04-26T17:26:58.538Z</time></trkpt><trkpt lat="46.4544996" lon="12.727026"><ele>1037.0</ele><time>2026-04-26T17:26:59.545Z</time></trkpt><trkpt lat="46.4544325" lon="12.7269151"><ele>1037.0</ele><time>2026-04-26T17:27:00.541Z</time></trkpt><trkpt lat="46.4543529" lon="12.7267992"><ele>1037.0</ele><time>2026-04-26T17:27:01.533Z</time></trkpt><trkpt lat="46.4542546" lon="12.7267275"><ele>1037.0</ele><time>2026-04-26T17:27:02.548Z</time></trkpt><trkpt lat="46.4541323" lon="12.7266839"><ele>1028.75</ele><time>2026-04-26T17:27:03.539Z</time></trkpt><trkpt lat="46.4540079" lon="12.7266569"><ele>1020.5</ele><time>2026-04-26T17:27:04.533Z</time></trkpt><trkpt lat="46.4538874" lon="12.7266353"><ele>1012.25</ele><time>2026-04-26T17:27:05.533Z</time></trkpt><trkpt lat="46.4537773" lon="12.7266304"><ele>1004.0</ele><time>2026-04-26T17:27:06.541Z</time></trkpt><trkpt lat="46.4536627" lon="12.7266514"><ele>1003.6</ele><time>2026-04-26T17:27:07.542Z</time></trkpt><trkpt lat="46.4535552" lon="12.7266764"><ele>1003.2</ele><time>2026-04-26T17:27:08.53Z</time></trkpt><trkpt lat="46.453456" lon="12.7266908"><ele>1002.8000000000001</ele><time>2026-04-26T17:27:09.54Z</time></trkpt><trkpt lat="46.4533561" lon="12.7266815"><ele>1002.4000000000001</ele><time>2026-04-26T17:27:10.544Z</time></trkpt><trkpt lat="46.4532634" lon="12.726625"><ele>1002.0</ele><time>2026-04-26T17:27:11.537Z</time></trkpt><trkpt lat="46.4531708" lon="12.7265551"><ele>1002.0</ele><time>2026-04-26T17:27:12.538Z</time></trkpt><trkpt lat="46.4530737" lon="12.7265126"><ele>1002.0</ele><time>2026-04-26T17:27:13.541Z</time></trkpt><trkpt lat="46.4529731" lon="12.7265156"><ele>1002.0</ele><time>2026-04-26T17:27:14.539Z</time></trkpt><trkpt lat="46.4528549" lon="12.7265577"><ele>1002.0</ele><time>2026-04-26T17:27:15.537Z</time></trkpt><trkpt lat="46.4527509" lon="12.7266421"><ele>1002.0</ele><time>2026-04-26T17:27:16.533Z</time></trkpt><trkpt lat="46.4526638" lon="12.7267124"><ele>1000.2</ele><time>2026-04-26T17:27:17.534Z</time></trkpt><trkpt lat="46.4525924" lon="12.7267865"><ele>998.4000000000001</ele><time>2026-04-26T17:27:18.534Z</time></trkpt><trkpt lat="46.4525319" lon="12.7268589"><ele>996.5999999999999</ele><time>2026-04-26T17:27:19.539Z</time></trkpt><trkpt lat="46.4524553" lon="12.7269432"><ele>994.8</ele><time>2026-04-26T17:27:20.537Z</time></trkpt><trkpt lat="46.4523782" lon="12.7270489"><ele>993.0</ele><time>2026-04-26T17:27:21.538Z</time></trkpt><trkpt lat="46.4523054" lon="12.72717"><ele>993.0</ele><time>2026-04-26T17:27:22.536Z</time></trkpt><trkpt lat="46.4522584" lon="12.7272938"><ele>993.0</ele><time>2026-04-26T17:27:23.54Z</time></trkpt><trkpt lat="46.4522273" lon="12.7274234"><ele>993.0</ele><time>2026-04-26T17:27:24.54Z</time></trkpt><trkpt lat="46.452211" lon="12.7275398"><ele>993.0</ele><time>2026-04-26T17:27:25.54Z</time></trkpt><trkpt lat="46.4522156" lon="12.727681"><ele>993.0</ele><time>2026-04-26T17:27:26.539Z</time></trkpt><trkpt lat="46.4522593" lon="12.7278587"><ele>994.0</ele><time>2026-04-26T17:27:27.535Z</time></trkpt><trkpt lat="46.4523057" lon="12.7280464"><ele>995.0</ele><time>2026-04-26T17:27:28.542Z</time></trkpt><trkpt lat="46.4523617" lon="12.7282487"><ele>996.0</ele><time>2026-04-26T17:27:29.538Z</time></trkpt><trkpt lat="46.4524218" lon="12.7284711"><ele>994.0</ele><time>2026-04-26T17:27:30.537Z</time></trkpt><trkpt lat="46.452472" lon="12.7286888"><ele>992.0</ele><time>2026-04-26T17:27:31.541Z</time></trkpt><trkpt lat="46.4525243" lon="12.7289039"><ele>990.0</ele><time>2026-04-26T17:27:32.537Z</time></trkpt><trkpt lat="46.4525749" lon="12.7291102"><ele>990.0</ele><time>2026-04-26T17:27:33.538Z</time></trkpt><trkpt lat="46.4526312" lon="12.7293042"><ele>990.0</ele><time>2026-04-26T17:27:34.536Z</time></trkpt><trkpt lat="46.4526994" lon="12.7295014"><ele>990.0</ele><time>2026-04-26T17:27:35.535Z</time></trkpt><trkpt lat="46.452756" lon="12.7297023"><ele>990.0</ele><time>2026-04-26T17:27:36.537Z</time></trkpt><trkpt lat="46.4527993" lon="12.7298984"><ele>988.4</ele><time>2026-04-26T17:27:37.529Z</time></trkpt><trkpt lat="46.4528356" lon="12.7300813"><ele>986.8</ele><time>2026-04-26T17:27:38.538Z</time></trkpt><trkpt lat="46.4528732" lon="12.7302399"><ele>985.2</ele><time>2026-04-26T17:27:39.547Z</time></trkpt><trkpt lat="46.4529118" lon="12.7303767"><ele>983.6</ele><time>2026-04-26T17:27:40.534Z</time></trkpt><trkpt lat="46.4529437" lon="12.7305101"><ele>982.0</ele><time>2026-04-26T17:27:41.546Z</time></trkpt><trkpt lat="46.4529705" lon="12.7306428"><ele>981.2</ele><time>2026-04-26T17:27:42.532Z</time></trkpt><trkpt lat="46.4529724" lon="12.7307754"><ele>980.4000000000001</ele><time>2026-04-26T17:27:43.539Z</time></trkpt><trkpt lat="46.4529427" lon="12.7309191"><ele>979.5999999999999</ele><time>2026-04-26T17:27:44.53Z</time></trkpt><trkpt lat="46.4529074" lon="12.731067"><ele>978.8</ele><time>2026-04-26T17:27:45.53Z</time></trkpt><trkpt lat="46.4528738" lon="12.7312112"><ele>978.0</ele><time>2026-04-26T17:27:46.538Z</time></trkpt><trkpt lat="46.4528458" lon="12.7313643"><ele>977.3333333333334</ele><time>2026-04-26T17:27:47.534Z</time></trkpt><trkpt lat="46.4528285" lon="12.7315028"><ele>976.6666666666667</ele><time>2026-04-26T17:27:48.547Z</time></trkpt><trkpt lat="46.4528269" lon="12.7316321"><ele>976.0</ele><time>2026-04-26T17:27:49.533Z</time></trkpt><trkpt lat="46.4528404" lon="12.7317373"><ele>975.3333333333334</ele><time>2026-04-26T17:27:50.537Z</time></trkpt><trkpt lat="46.452887" lon="12.7318334"><ele>974.6666666666667</ele><time>2026-04-26T17:27:51.53Z</time></trkpt><trkpt lat="46.4529788" lon="12.7319128"><ele>974.0</ele><time>2026-04-26T17:27:52.537Z</time></trkpt><trkpt lat="46.4530786" lon="12.7319929"><ele>981.0</ele><time>2026-04-26T17:27:53.536Z</time></trkpt><trkpt lat="46.4531638" lon="12.7320869"><ele>988.0</ele><time>2026-04-26T17:27:54.55Z</time></trkpt><trkpt lat="46.4532307" lon="12.7322209"><ele>995.0</ele><time>2026-04-26T17:27:55.54Z</time></trkpt><trkpt lat="46.453291" lon="12.7323821"><ele>1002.0</ele><time>2026-04-26T17:27:56.533Z</time></trkpt><trkpt lat="46.4533586" lon="12.7325584"><ele>1002.0</ele><time>2026-04-26T17:27:57.531Z</time></trkpt><trkpt lat="46.4534209" lon="12.7327137"><ele>1002.0</ele><time>2026-04-26T17:27:58.532Z</time></trkpt><trkpt lat="46.4534847" lon="12.7328488"><ele>1002.0</ele><time>2026-04-26T17:27:59.541Z</time></trkpt><trkpt lat="46.4535456" lon="12.7329587"><ele>1002.0</ele><time>2026-04-26T17:28:00.539Z</time></trkpt><trkpt lat="46.4536068" lon="12.7330623"><ele>1002.0</ele><time>2026-04-26T17:28:01.537Z</time></trkpt><trkpt lat="46.453657" lon="12.733168"><ele>1001.7142857142858</ele><time>2026-04-26T17:28:02.547Z</time></trkpt><trkpt lat="46.4536946" lon="12.7332689"><ele>1001.4285714285713</ele><time>2026-04-26T17:28:03.536Z</time></trkpt><trkpt lat="46.4537148" lon="12.7333702"><ele>1001.1428571428571</ele><time>2026-04-26T17:28:04.538Z</time></trkpt><trkpt lat="46.4537162" lon="12.7334648"><ele>1000.8571428571429</ele><time>2026-04-26T17:28:05.535Z</time></trkpt><trkpt lat="46.4536966" lon="12.7335607"><ele>1000.5714285714287</ele><time>2026-04-26T17:28:06.534Z</time></trkpt><trkpt lat="46.453648" lon="12.7336381"><ele>1000.2857142857142</ele><time>2026-04-26T17:28:07.541Z</time></trkpt><trkpt lat="46.4535777" lon="12.7336741"><ele>1000.0</ele><time>2026-04-26T17:28:08.535Z</time></trkpt><trkpt lat="46.4534992" lon="12.733681"><ele>1000.0</ele><time>2026-04-26T17:28:09.549Z</time></trkpt><trkpt lat="46.4534108" lon="12.7336176"><ele>1000.0</ele><time>2026-04-26T17:28:10.534Z</time></trkpt><trkpt lat="46.4533116" lon="12.7335417"><ele>1000.0</ele><time>2026-04-26T17:28:11.532Z</time></trkpt><trkpt lat="46.4532068" lon="12.7334726"><ele>1000.0</ele><time>2026-04-26T17:28:12.533Z</time></trkpt><trkpt lat="46.4530971" lon="12.733433"><ele>1000.0</ele><time>2026-04-26T17:28:13.542Z</time></trkpt><trkpt lat="46.4529992" lon="12.7334085"><ele>998.4</ele><time>2026-04-26T17:28:14.534Z</time></trkpt><trkpt lat="46.4529034" lon="12.7333971"><ele>996.8</ele><time>2026-04-26T17:28:15.526Z</time></trkpt><trkpt lat="46.452808" lon="12.7334098"><ele>995.2</ele><time>2026-04-26T17:28:16.535Z</time></trkpt><trkpt lat="46.4527" lon="12.7334344"><ele>993.6</ele><time>2026-04-26T17:28:17.537Z</time></trkpt><trkpt lat="46.4525993" lon="12.733478"><ele>992.0</ele><time>2026-04-26T17:28:18.535Z</time></trkpt><trkpt lat="46.4525029" lon="12.7334979"><ele>992.0</ele><time>2026-04-26T17:28:19.542Z</time></trkpt><trkpt lat="46.4524104" lon="12.7335153"><ele>992.0</ele><time>2026-04-26T17:28:20.534Z</time></trkpt><trkpt lat="46.4523135" lon="12.733509"><ele>992.0</ele><time>2026-04-26T17:28:21.54Z</time></trkpt><trkpt lat="46.4522107" lon="12.7334884"><ele>992.0</ele><time>2026-04-26T17:28:22.536Z</time></trkpt><trkpt lat="46.4521164" lon="12.733486"><ele>992.0</ele><time>2026-04-26T17:28:23.541Z</time></trkpt><trkpt lat="46.4520346" lon="12.7335265"><ele>1001.2</ele><time>2026-04-26T17:28:24.531Z</time></trkpt><trkpt lat="46.4519531" lon="12.7335926"><ele>1010.4000000000001</ele><time>2026-04-26T17:28:25.533Z</time></trkpt><trkpt lat="46.4518646" lon="12.7336335"><ele>1019.5999999999999</ele><time>2026-04-26T17:28:26.535Z</time></trkpt><trkpt lat="46.4517762" lon="12.7336555"><ele>1028.8</ele><time>2026-04-26T17:28:27.534Z</time></trkpt><trkpt lat="46.4516848" lon="12.7336286"><ele>1038.0</ele><time>2026-04-26T17:28:28.537Z</time></trkpt><trkpt lat="46.4515931" lon="12.7335676"><ele>1030.4</ele><time>2026-04-26T17:28:29.536Z</time></trkpt><trkpt lat="46.4515052" lon="12.7334933"><ele>1022.8</ele><time>2026-04-26T17:28:30.54Z</time></trkpt><trkpt lat="46.4514278" lon="12.7334575"><ele>1015.2</ele><time>2026-04-26T17:28:31.54Z</time></trkpt><trkpt lat="46.4513373" lon="12.7334264"><ele>1007.6</ele><time>2026-04-26T17:28:32.537Z</time></trkpt><trkpt lat="46.4512371" lon="12.7334009"><ele>1000.0</ele><time>2026-04-26T17:28:33.549Z</time></trkpt><trkpt lat="46.4511374" lon="12.7333897"><ele>1000.0</ele><time>2026-04-26T17:28:34.532Z</time></trkpt><trkpt lat="46.4510599" lon="12.7333783"><ele>1000.0</ele><time>2026-04-26T17:28:35.537Z</time></trkpt><trkpt lat="46.4509829" lon="12.7333635"><ele>1000.0</ele><time>2026-04-26T17:28:36.537Z</time></trkpt><trkpt lat="46.4509125" lon="12.733348"><ele>1000.0</ele><time>2026-04-26T17:28:37.539Z</time></trkpt><trkpt lat="46.4508472" lon="12.7333392"><ele>1000.0</ele><time>2026-04-26T17:28:38.54Z</time></trkpt><trkpt lat="46.4507826" lon="12.7333289"><ele>1000.0</ele><time>2026-04-26T17:28:39.535Z</time></trkpt><trkpt lat="46.4507186" lon="12.7333258"><ele>1000.0</ele><time>2026-04-26T17:28:40.538Z</time></trkpt><trkpt lat="46.4506468" lon="12.7333239"><ele>1000.0</ele><time>2026-04-26T17:28:41.543Z</time></trkpt><trkpt lat="46.4505676" lon="12.7333244"><ele>1000.0</ele><time>2026-04-26T17:28:42.535Z</time></trkpt><trkpt lat="46.4504858" lon="12.733319"><ele>1000.0</ele><time>2026-04-26T17:28:43.532Z</time></trkpt><trkpt lat="46.450387" lon="12.7333136"><ele>1000.0</ele><time>2026-04-26T17:28:44.532Z</time></trkpt><trkpt lat="46.4502843" lon="12.7333074"><ele>1000.0</ele><time>2026-04-26T17:28:45.539Z</time></trkpt><trkpt lat="46.4501925" lon="12.7332869"><ele>999.8333333333333</ele><time>2026-04-26T17:28:46.529Z</time></trkpt><trkpt lat="46.4501094" lon="12.7332614"><ele>999.6666666666666</ele><time>2026-04-26T17:28:47.53Z</time></trkpt><trkpt lat="46.450026" lon="12.7332314"><ele>999.5</ele><time>2026-04-26T17:28:48.532Z</time></trkpt><trkpt lat="46.4499539" lon="12.7331804"><ele>999.3333333333333</ele><time>2026-04-26T17:28:49.537Z</time></trkpt><trkpt lat="46.4498766" lon="12.7331179"><ele>999.1666666666666</ele><time>2026-04-26T17:28:50.54Z</time></trkpt><trkpt lat="46.4498193" lon="12.7330568"><ele>999.0</ele><time>2026-04-26T17:28:51.54Z</time></trkpt><trkpt lat="46.4497717" lon="12.7329862"><ele>999.0</ele><time>2026-04-26T17:28:53.537Z</time></trkpt><trkpt lat="46.4496661" lon="12.7329142"><ele>999.0</ele><time>2026-04-26T17:38:42.192Z</time></trkpt><trkpt lat="46.449597" lon="12.7328822"><ele>999.0</ele><time>2026-04-26T17:38:43.189Z</time></trkpt><trkpt lat="46.4495186" lon="12.732852"><ele>999.0</ele><time>2026-04-26T17:38:44.197Z</time></trkpt><trkpt lat="46.4494383" lon="12.7328469"><ele>999.0</ele><time>2026-04-26T17:38:45.189Z</time></trkpt><trkpt lat="46.449367" lon="12.7328773"><ele>999.0</ele><time>2026-04-26T17:38:46.196Z</time></trkpt><trkpt lat="46.4493026" lon="12.7329345"><ele>1001.5</ele><time>2026-04-26T17:38:47.194Z</time></trkpt><trkpt lat="46.4492608" lon="12.7330166"><ele>1004.0</ele><time>2026-04-26T17:38:48.188Z</time></trkpt><trkpt lat="46.4492306" lon="12.733156"><ele>1006.5</ele><time>2026-04-26T17:38:49.188Z</time></trkpt><trkpt lat="46.449203" lon="12.7333176"><ele>1009.0</ele><time>2026-04-26T17:38:50.184Z</time></trkpt><trkpt lat="46.4490493" lon="12.7337447"><ele>1009.0</ele><time>2026-04-26T17:38:53.199Z</time></trkpt><trkpt lat="46.4490679" lon="12.7338931"><ele>1009.0000000000001</ele><time>2026-04-26T17:38:54.187Z</time></trkpt><trkpt lat="46.4490565" lon="12.7340429"><ele>1009.0000000000001</ele><time>2026-04-26T17:38:55.188Z</time></trkpt><trkpt lat="46.4490522" lon="12.7342003"><ele>1009.0</ele><time>2026-04-26T17:38:56.18Z</time></trkpt><trkpt lat="46.44906" lon="12.7343191"><ele>1009.0</ele><time>2026-04-26T17:38:57.183Z</time></trkpt><trkpt lat="46.449059" lon="12.7344428"><ele>1011.4999999999999</ele><time>2026-04-26T17:38:58.182Z</time></trkpt><trkpt lat="46.4489963" lon="12.7345865"><ele>1014.0</ele><time>2026-04-26T17:38:59.188Z</time></trkpt><trkpt lat="46.4489676" lon="12.7346839"><ele>1016.5</ele><time>2026-04-26T17:39:00.193Z</time></trkpt><trkpt lat="46.4489061" lon="12.7347521"><ele>1019.0</ele><time>2026-04-26T17:39:01.187Z</time></trkpt><trkpt lat="46.4488405" lon="12.7348573"><ele>1021.4999999999999</ele><time>2026-04-26T17:39:02.187Z</time></trkpt><trkpt lat="46.4487858" lon="12.7349474"><ele>1024.0</ele><time>2026-04-26T17:39:03.188Z</time></trkpt><trkpt lat="46.4487432" lon="12.73504"><ele>1013.4000000000001</ele><time>2026-04-26T17:39:04.191Z</time></trkpt><trkpt lat="46.4487281" lon="12.7351501"><ele>1002.8000000000001</ele><time>2026-04-26T17:39:05.19Z</time></trkpt><trkpt lat="46.448708" lon="12.7352829"><ele>992.1999999999999</ele><time>2026-04-26T17:39:06.183Z</time></trkpt><trkpt lat="46.448696" lon="12.7354325"><ele>981.5999999999999</ele><time>2026-04-26T17:39:07.19Z</time></trkpt><trkpt lat="46.448709" lon="12.7355828"><ele>971.0</ele><time>2026-04-26T17:39:08.191Z</time></trkpt><trkpt lat="46.4487169" lon="12.7357204"><ele>971.0</ele><time>2026-04-26T17:39:09.186Z</time></trkpt><trkpt lat="46.4487317" lon="12.7358426"><ele>970.9999999999999</ele><time>2026-04-26T17:39:10.194Z</time></trkpt><trkpt lat="46.4487314" lon="12.7359816"><ele>970.9999999999999</ele><time>2026-04-26T17:39:12.196Z</time></trkpt><trkpt lat="46.4488083" lon="12.736067"><ele>971.0</ele><time>2026-04-26T17:39:35.196Z</time></trkpt><trkpt lat="46.4488547" lon="12.7361722"><ele>971.0</ele><time>2026-04-26T17:39:36.193Z</time></trkpt><trkpt lat="46.4489093" lon="12.7362728"><ele>984.5</ele><time>2026-04-26T17:39:37.197Z</time></trkpt><trkpt lat="46.4489823" lon="12.7363505"><ele>998.0</ele><time>2026-04-26T17:39:38.189Z</time></trkpt><trkpt lat="46.4505557" lon="12.7463154"><ele>998.0</ele><time>2026-04-26T17:41:12.183Z</time></trkpt><trkpt lat="46.4506264" lon="12.7463918"><ele>998.0</ele><time>2026-04-26T17:41:13.187Z</time></trkpt><trkpt lat="46.4506568" lon="12.7465685"><ele>998.0</ele><time>2026-04-26T17:41:14.185Z</time></trkpt><trkpt lat="46.4507428" lon="12.7502245"><ele>998.0</ele><time>2026-04-26T17:41:43.186Z</time></trkpt><trkpt lat="46.450741" lon="12.7504467"><ele>998.0</ele><time>2026-04-26T17:41:44.186Z</time></trkpt><trkpt lat="46.450712" lon="12.7506218"><ele>998.0</ele><time>2026-04-26T17:41:45.187Z</time></trkpt><trkpt lat="46.4506908" lon="12.7507816"><ele>998.0</ele><time>2026-04-26T17:41:46.186Z</time></trkpt><trkpt lat="46.4507011" lon="12.7509201"><ele>998.0</ele><time>2026-04-26T17:41:47.185Z</time></trkpt><trkpt lat="46.4507129" lon="12.75109"><ele>998.0</ele><time>2026-04-26T17:41:48.186Z</time></trkpt><trkpt lat="46.4507302" lon="12.7512651"><ele>998.0</ele><time>2026-04-26T17:41:49.19Z</time></trkpt><trkpt lat="46.4507628" lon="12.7514653"><ele>998.0</ele><time>2026-04-26T17:41:50.183Z</time></trkpt><trkpt lat="46.4508227" lon="12.751652"><ele>998.0</ele><time>2026-04-26T17:41:51.188Z</time></trkpt><trkpt lat="46.4508766" lon="12.7518206"><ele>998.0</ele><time>2026-04-26T17:41:52.192Z</time></trkpt><trkpt lat="46.4509196" lon="12.7519685"><ele>998.0</ele><time>2026-04-26T17:41:53.184Z</time></trkpt><trkpt lat="46.4509559" lon="12.7521041"><ele>998.0</ele><time>2026-04-26T17:41:54.193Z</time></trkpt><trkpt lat="46.4509674" lon="12.7522237"><ele>998.0</ele><time>2026-04-26T17:41:55.186Z</time></trkpt><trkpt lat="46.4509931" lon="12.7523582"><ele>979.0</ele><time>2026-04-26T17:41:56.183Z</time></trkpt><trkpt lat="46.4510033" lon="12.7524815"><ele>960.0</ele><time>2026-04-26T17:41:57.195Z</time></trkpt><trkpt lat="46.4509943" lon="12.7525914"><ele>941.0</ele><time>2026-04-26T17:41:58.19Z</time></trkpt><trkpt lat="46.4509543" lon="12.7526945"><ele>922.0</ele><time>2026-04-26T17:41:59.198Z</time></trkpt><trkpt lat="46.4508761" lon="12.7528276"><ele>903.0</ele><time>2026-04-26T17:42:00.191Z</time></trkpt><trkpt lat="46.4508075" lon="12.7529389"><ele>903.0</ele><time>2026-04-26T17:42:01.188Z</time></trkpt><trkpt lat="46.450753" lon="12.7530571"><ele>903.0</ele><time>2026-04-26T17:42:02.182Z</time></trkpt><trkpt lat="46.4507061" lon="12.7531941"><ele>903.0</ele><time>2026-04-26T17:42:03.182Z</time></trkpt><trkpt lat="46.4507003" lon="12.7533465"><ele>903.0</ele><time>2026-04-26T17:42:04.189Z</time></trkpt><trkpt lat="46.4507197" lon="12.753545"><ele>903.0</ele><time>2026-04-26T17:42:05.189Z</time></trkpt><trkpt lat="46.450745" lon="12.7537568"><ele>903.25</ele><time>2026-04-26T17:42:06.19Z</time></trkpt><trkpt lat="46.450779" lon="12.7539619"><ele>903.5</ele><time>2026-04-26T17:42:07.187Z</time></trkpt><trkpt lat="46.4508077" lon="12.7541322"><ele>903.75</ele><time>2026-04-26T17:42:08.189Z</time></trkpt><trkpt lat="46.4508175" lon="12.7543117"><ele>904.0</ele><time>2026-04-26T17:42:09.189Z</time></trkpt><trkpt lat="46.4508029" lon="12.7544883"><ele>901.75</ele><time>2026-04-26T17:42:10.198Z</time></trkpt><trkpt lat="46.4507628" lon="12.7546726"><ele>899.5</ele><time>2026-04-26T17:42:11.189Z</time></trkpt><trkpt lat="46.4507258" lon="12.7548602"><ele>897.25</ele><time>2026-04-26T17:42:12.184Z</time></trkpt><trkpt lat="46.4506854" lon="12.7550509"><ele>895.0</ele><time>2026-04-26T17:42:13.196Z</time></trkpt><trkpt lat="46.450658" lon="12.7552155"><ele>891.5</ele><time>2026-04-26T17:42:14.188Z</time></trkpt><trkpt lat="46.4506486" lon="12.7553687"><ele>888.0</ele><time>2026-04-26T17:42:15.201Z</time></trkpt><trkpt lat="46.4506428" lon="12.7555331"><ele>884.5</ele><time>2026-04-26T17:42:16.193Z</time></trkpt><trkpt lat="46.4506592" lon="12.7557173"><ele>881.0</ele><time>2026-04-26T17:42:17.186Z</time></trkpt><trkpt lat="46.4507008" lon="12.7558974"><ele>879.75</ele><time>2026-04-26T17:42:18.186Z</time></trkpt><trkpt lat="46.4507552" lon="12.7560708"><ele>878.5</ele><time>2026-04-26T17:42:19.192Z</time></trkpt><trkpt lat="46.4508318" lon="12.7562422"><ele>877.25</ele><time>2026-04-26T17:42:20.19Z</time></trkpt><trkpt lat="46.4509229" lon="12.756405"><ele>876.0</ele><time>2026-04-26T17:42:21.19Z</time></trkpt><trkpt lat="46.4510108" lon="12.7565614"><ele>876.0</ele><time>2026-04-26T17:42:22.187Z</time></trkpt><trkpt lat="46.451088" lon="12.756706"><ele>876.0</ele><time>2026-04-26T17:42:23.192Z</time></trkpt><trkpt lat="46.4511566" lon="12.7568478"><ele>876.0</ele><time>2026-04-26T17:42:24.196Z</time></trkpt><trkpt lat="46.4515357" lon="12.7630752"><ele>857.0</ele><time>2026-04-26T17:43:06.19Z</time></trkpt><trkpt lat="46.4514388" lon="12.7631468"><ele>838.0</ele><time>2026-04-26T17:43:07.19Z</time></trkpt><trkpt lat="46.4513254" lon="12.7632261"><ele>819.0</ele><time>2026-04-26T17:43:08.191Z</time></trkpt><trkpt lat="46.451208" lon="12.7632903"><ele>800.0</ele><time>2026-04-26T17:43:09.187Z</time></trkpt><trkpt lat="46.4510816" lon="12.7633584"><ele>800.0</ele><time>2026-04-26T17:43:10.189Z</time></trkpt><trkpt lat="46.4509736" lon="12.7634209"><ele>800.0</ele><time>2026-04-26T17:43:11.189Z</time></trkpt><trkpt lat="46.45088" lon="12.7634731"><ele>800.0</ele><time>2026-04-26T17:43:12.189Z</time></trkpt><trkpt lat="46.4507837" lon="12.7635212"><ele>800.0</ele><time>2026-04-26T17:43:13.2Z</time></trkpt><trkpt lat="46.4506896" lon="12.7635648"><ele>800.0</ele><time>2026-04-26T17:43:14.189Z</time></trkpt><trkpt lat="46.4505932" lon="12.763594"><ele>879.0</ele><time>2026-04-26T17:43:15.187Z</time></trkpt><trkpt lat="46.448573" lon="12.7669367"><ele>879.0</ele><time>2026-04-26T17:43:45.188Z</time></trkpt><trkpt lat="46.4486201" lon="12.7671645"><ele>879.0</ele><time>2026-04-26T17:43:46.184Z</time></trkpt><trkpt lat="46.448695" lon="12.7673402"><ele>879.0</ele><time>2026-04-26T17:43:47.181Z</time></trkpt><trkpt lat="46.4487143" lon="12.7675353"><ele>879.0</ele><time>2026-04-26T17:43:48.185Z</time></trkpt><trkpt lat="46.4487304" lon="12.7677341"><ele>877.25</ele><time>2026-04-26T17:43:49.18Z</time></trkpt><trkpt lat="46.4487379" lon="12.7679259"><ele>875.5</ele><time>2026-04-26T17:43:50.183Z</time></trkpt><trkpt lat="46.4487278" lon="12.7681281"><ele>873.75</ele><time>2026-04-26T17:43:51.192Z</time></trkpt><trkpt lat="46.4487131" lon="12.7683233"><ele>872.0</ele><time>2026-04-26T17:43:52.191Z</time></trkpt><trkpt lat="46.4486983" lon="12.768517"><ele>871.25</ele><time>2026-04-26T17:43:53.19Z</time></trkpt><trkpt lat="46.4486905" lon="12.7687084"><ele>870.5</ele><time>2026-04-26T17:43:54.181Z</time></trkpt><trkpt lat="46.4486667" lon="12.7689058"><ele>869.75</ele><time>2026-04-26T17:43:55.182Z</time></trkpt><trkpt lat="46.4486506" lon="12.7691316"><ele>869.0</ele><time>2026-04-26T17:43:56.184Z</time></trkpt><trkpt lat="46.4486518" lon="12.7693516"><ele>867.25</ele><time>2026-04-26T17:43:57.194Z</time></trkpt><trkpt lat="46.4486647" lon="12.7695673"><ele>865.5</ele><time>2026-04-26T17:43:58.184Z</time></trkpt><trkpt lat="46.4486821" lon="12.7697773"><ele>863.75</ele><time>2026-04-26T17:43:59.187Z</time></trkpt><trkpt lat="46.4486939" lon="12.7699591"><ele>862.0</ele><time>2026-04-26T17:44:00.186Z</time></trkpt><trkpt lat="46.4487214" lon="12.7701322"><ele>861.2</ele><time>2026-04-26T17:44:01.182Z</time></trkpt><trkpt lat="46.4487361" lon="12.7702854"><ele>860.4000000000001</ele><time>2026-04-26T17:44:02.188Z</time></trkpt><trkpt lat="46.4487451" lon="12.7704243"><ele>859.5999999999999</ele><time>2026-04-26T17:44:03.179Z</time></trkpt><trkpt lat="46.4487599" lon="12.7705555"><ele>858.8</ele><time>2026-04-26T17:44:04.185Z</time></trkpt><trkpt lat="46.44875" lon="12.7706933"><ele>858.0</ele><time>2026-04-26T17:44:05.184Z</time></trkpt><trkpt lat="46.4486945" lon="12.7708385"><ele>858.0</ele><time>2026-04-26T17:44:06.187Z</time></trkpt><trkpt lat="46.4486312" lon="12.7709755"><ele>858.0</ele><time>2026-04-26T17:44:07.186Z</time></trkpt><trkpt lat="46.4485655" lon="12.771105"><ele>858.0</ele><time>2026-04-26T17:44:08.188Z</time></trkpt><trkpt lat="46.4484999" lon="12.7712282"><ele>858.0</ele><time>2026-04-26T17:44:09.187Z</time></trkpt><trkpt lat="46.4484342" lon="12.7713699"><ele>858.0</ele><time>2026-04-26T17:44:10.186Z</time></trkpt><trkpt lat="46.4483851" lon="12.7715445"><ele>857.5999999999999</ele><time>2026-04-26T17:44:11.191Z</time></trkpt><trkpt lat="46.4483323" lon="12.771725"><ele>857.1999999999999</ele><time>2026-04-26T17:44:12.187Z</time></trkpt><trkpt lat="46.4483039" lon="12.7718804"><ele>856.8</ele><time>2026-04-26T17:44:13.186Z</time></trkpt><trkpt lat="46.4482774" lon="12.7720035"><ele>856.4</ele><time>2026-04-26T17:44:14.186Z</time></trkpt><trkpt lat="46.4482723" lon="12.7721305"><ele>856.0</ele><time>2026-04-26T17:44:15.19Z</time></trkpt><trkpt lat="46.4482897" lon="12.7722606"><ele>855.1999999999999</ele><time>2026-04-26T17:44:16.19Z</time></trkpt><trkpt lat="46.4483339" lon="12.7723927"><ele>854.3999999999999</ele><time>2026-04-26T17:44:17.191Z</time></trkpt><trkpt lat="46.4483809" lon="12.7724909"><ele>853.6</ele><time>2026-04-26T17:44:18.184Z</time></trkpt><trkpt lat="46.4484383" lon="12.7726187"><ele>852.8</ele><time>2026-04-26T17:44:19.188Z</time></trkpt><trkpt lat="46.4484683" lon="12.7727528"><ele>852.0</ele><time>2026-04-26T17:44:20.185Z</time></trkpt><trkpt lat="46.4484751" lon="12.772892"><ele>848.2</ele><time>2026-04-26T17:44:21.185Z</time></trkpt><trkpt lat="46.4484674" lon="12.7730296"><ele>844.4000000000001</ele><time>2026-04-26T17:44:22.189Z</time></trkpt><trkpt lat="46.44846" lon="12.7731537"><ele>840.5999999999999</ele><time>2026-04-26T17:44:23.187Z</time></trkpt><trkpt lat="46.4484396" lon="12.7732772"><ele>836.8</ele><time>2026-04-26T17:44:24.2Z</time></trkpt><trkpt lat="46.4483694" lon="12.7734094"><ele>833.0</ele><time>2026-04-26T17:44:25.191Z</time></trkpt><trkpt lat="46.4482552" lon="12.7735535"><ele>824.0</ele><time>2026-04-26T17:44:26.19Z</time></trkpt><trkpt lat="46.4481396" lon="12.7737186"><ele>815.0</ele><time>2026-04-26T17:44:27.187Z</time></trkpt><trkpt lat="46.4480274" lon="12.7738888"><ele>806.0</ele><time>2026-04-26T17:44:28.187Z</time></trkpt><trkpt lat="46.4479462" lon="12.7740493"><ele>811.0</ele><time>2026-04-26T17:44:29.192Z</time></trkpt><trkpt lat="46.447875" lon="12.774227"><ele>816.0</ele><time>2026-04-26T17:44:30.191Z</time></trkpt><trkpt lat="46.4477915" lon="12.7743963"><ele>821.0</ele><time>2026-04-26T17:44:31.193Z</time></trkpt><trkpt lat="46.4476888" lon="12.7745342"><ele>826.0</ele><time>2026-04-26T17:44:32.184Z</time></trkpt><trkpt lat="46.4475675" lon="12.7746609"><ele>826.0</ele><time>2026-04-26T17:44:33.196Z</time></trkpt><trkpt lat="46.4474552" lon="12.7747932"><ele>826.0</ele><time>2026-04-26T17:44:34.186Z</time></trkpt><trkpt lat="46.447344" lon="12.7749131"><ele>826.0</ele><time>2026-04-26T17:44:35.187Z</time></trkpt><trkpt lat="46.4472318" lon="12.775016"><ele>826.0</ele><time>2026-04-26T17:44:36.189Z</time></trkpt><trkpt lat="46.4471067" lon="12.775089"><ele>822.25</ele><time>2026-04-26T17:44:37.187Z</time></trkpt><trkpt lat="46.4469809" lon="12.7751578"><ele>818.5</ele><time>2026-04-26T17:44:38.19Z</time></trkpt><trkpt lat="46.4468733" lon="12.7752402"><ele>814.75</ele><time>2026-04-26T17:44:39.188Z</time></trkpt><trkpt lat="46.4467843" lon="12.7753237"><ele>811.0</ele><time>2026-04-26T17:44:40.199Z</time></trkpt><trkpt lat="46.4467032" lon="12.7753981"><ele>811.0</ele><time>2026-04-26T17:44:41.191Z</time></trkpt><trkpt lat="46.4466114" lon="12.7754416"><ele>811.0</ele><time>2026-04-26T17:44:42.186Z</time></trkpt><trkpt lat="46.4464872" lon="12.775454"><ele>811.0</ele><time>2026-04-26T17:44:43.188Z</time></trkpt><trkpt lat="46.4463598" lon="12.7754587"><ele>811.0</ele><time>2026-04-26T17:44:44.182Z</time></trkpt><trkpt lat="46.4462397" lon="12.7754696"><ele>812.5999999999999</ele><time>2026-04-26T17:44:45.192Z</time></trkpt><trkpt lat="46.4461267" lon="12.7754928"><ele>814.2</ele><time>2026-04-26T17:44:46.191Z</time></trkpt><trkpt lat="46.4460253" lon="12.7754935"><ele>815.8</ele><time>2026-04-26T17:44:47.198Z</time></trkpt><trkpt lat="46.4459288" lon="12.7754574"><ele>817.4000000000001</ele><time>2026-04-26T17:44:48.193Z</time></trkpt><trkpt lat="46.4458479" lon="12.7754075"><ele>819.0</ele><time>2026-04-26T17:44:49.196Z</time></trkpt><trkpt lat="46.4457719" lon="12.7753635"><ele>819.0</ele><time>2026-04-26T17:44:50.183Z</time></trkpt><trkpt lat="46.4456925" lon="12.7753597"><ele>819.0</ele><time>2026-04-26T17:44:51.19Z</time></trkpt><trkpt lat="46.4455865" lon="12.77542"><ele>819.0</ele><time>2026-04-26T17:44:52.194Z</time></trkpt><trkpt lat="46.4454803" lon="12.7755284"><ele>819.0</ele><time>2026-04-26T17:44:53.188Z</time></trkpt><trkpt lat="46.4453605" lon="12.7756624"><ele>824.5</ele><time>2026-04-26T17:44:54.19Z</time></trkpt><trkpt lat="46.4452438" lon="12.775785"><ele>830.0</ele><time>2026-04-26T17:44:55.188Z</time></trkpt><trkpt lat="46.4451245" lon="12.7759239"><ele>835.5</ele><time>2026-04-26T17:44:56.187Z</time></trkpt><trkpt lat="46.4450162" lon="12.7760466"><ele>841.0</ele><time>2026-04-26T17:44:57.189Z</time></trkpt><trkpt lat="46.4449164" lon="12.7761501"><ele>831.0</ele><time>2026-04-26T17:44:58.188Z</time></trkpt><trkpt lat="46.4448" lon="12.7762267"><ele>821.0</ele><time>2026-04-26T17:44:59.197Z</time></trkpt><trkpt lat="46.4446893" lon="12.7762944"><ele>811.0</ele><time>2026-04-26T17:45:00.187Z</time></trkpt><trkpt lat="46.4445913" lon="12.7763531"><ele>801.0</ele><time>2026-04-26T17:45:01.191Z</time></trkpt><trkpt lat="46.4445004" lon="12.7763651"><ele>791.0</ele><time>2026-04-26T17:45:02.181Z</time></trkpt><trkpt lat="46.4444097" lon="12.7763394"><ele>788.5999999999999</ele><time>2026-04-26T17:45:03.184Z</time></trkpt><trkpt lat="46.4443279" lon="12.7762738"><ele>786.2</ele><time>2026-04-26T17:45:04.189Z</time></trkpt><trkpt lat="46.4442503" lon="12.7761729"><ele>783.8</ele><time>2026-04-26T17:45:05.186Z</time></trkpt><trkpt lat="46.4441691" lon="12.7760721"><ele>781.4000000000001</ele><time>2026-04-26T17:45:06.193Z</time></trkpt><trkpt lat="46.4440764" lon="12.7759688"><ele>779.0</ele><time>2026-04-26T17:45:07.189Z</time></trkpt><trkpt lat="46.443981" lon="12.7758737"><ele>788.0</ele><time>2026-04-26T17:45:08.185Z</time></trkpt><trkpt lat="46.443888" lon="12.7757878"><ele>797.0</ele><time>2026-04-26T17:45:09.183Z</time></trkpt><trkpt lat="46.4437988" lon="12.7757199"><ele>806.0</ele><time>2026-04-26T17:45:10.199Z</time></trkpt><trkpt lat="46.4437111" lon="12.7756668"><ele>815.0</ele><time>2026-04-26T17:45:11.188Z</time></trkpt><trkpt lat="46.4436247" lon="12.775635"><ele>824.0</ele><time>2026-04-26T17:45:12.193Z</time></trkpt><trkpt lat="46.4435456" lon="12.7756171"><ele>824.0</ele><time>2026-04-26T17:45:13.192Z</time></trkpt><trkpt lat="46.4434691" lon="12.7756272"><ele>824.0</ele><time>2026-04-26T17:45:14.192Z</time></trkpt><trkpt lat="46.4434" lon="12.7756919"><ele>824.0</ele><time>2026-04-26T17:45:15.193Z</time></trkpt><trkpt lat="46.4433371" lon="12.775819"><ele>824.0</ele><time>2026-04-26T17:45:16.187Z</time></trkpt><trkpt lat="46.4432876" lon="12.775952"><ele>824.0</ele><time>2026-04-26T17:45:17.189Z</time></trkpt><trkpt lat="46.4432307" lon="12.77608"><ele>826.0</ele><time>2026-04-26T17:45:18.188Z</time></trkpt><trkpt lat="46.4431614" lon="12.7762046"><ele>828.0</ele><time>2026-04-26T17:45:19.194Z</time></trkpt><trkpt lat="46.4430574" lon="12.7763312"><ele>830.0</ele><time>2026-04-26T17:45:20.189Z</time></trkpt><trkpt lat="46.4429486" lon="12.7764445"><ele>832.0</ele><time>2026-04-26T17:45:21.193Z</time></trkpt><trkpt lat="46.442842" lon="12.7765452"><ele>832.0</ele><time>2026-04-26T17:45:22.187Z</time></trkpt><trkpt lat="46.4427263" lon="12.7766373"><ele>832.0</ele><time>2026-04-26T17:45:23.196Z</time></trkpt><trkpt lat="46.4426134" lon="12.7767095"><ele>832.0</ele><time>2026-04-26T17:45:24.19Z</time></trkpt><trkpt lat="46.4425141" lon="12.7767779"><ele>832.0</ele><time>2026-04-26T17:45:25.194Z</time></trkpt><trkpt lat="46.4424213" lon="12.776837"><ele>828.9999999999999</ele><time>2026-04-26T17:45:26.186Z</time></trkpt><trkpt lat="46.4423361" lon="12.7768901"><ele>826.0</ele><time>2026-04-26T17:45:27.186Z</time></trkpt><trkpt lat="46.4422575" lon="12.7769409"><ele>823.0</ele><time>2026-04-26T17:45:28.183Z</time></trkpt><trkpt lat="46.4422059" lon="12.7770304"><ele>820.0</ele><time>2026-04-26T17:45:29.189Z</time></trkpt><trkpt lat="46.4421644" lon="12.7771594"><ele>816.9999999999999</ele><time>2026-04-26T17:45:30.202Z</time></trkpt><trkpt lat="46.4421173" lon="12.7772579"><ele>814.0</ele><time>2026-04-26T17:45:31.191Z</time></trkpt><trkpt lat="46.4420415" lon="12.7773295"><ele>814.0</ele><time>2026-04-26T17:45:32.191Z</time></trkpt><trkpt lat="46.4419617" lon="12.7773812"><ele>814.0</ele><time>2026-04-26T17:45:33.191Z</time></trkpt><trkpt lat="46.441879" lon="12.777438"><ele>814.0</ele><time>2026-04-26T17:45:34.181Z</time></trkpt><trkpt lat="46.4417848" lon="12.7774871"><ele>814.0</ele><time>2026-04-26T17:45:35.178Z</time></trkpt><trkpt lat="46.4416481" lon="12.7775407"><ele>814.0</ele><time>2026-04-26T17:45:36.181Z</time></trkpt><trkpt lat="46.4415344" lon="12.7775674"><ele>776.0</ele><time>2026-04-26T17:45:37.186Z</time></trkpt><trkpt lat="46.4373598" lon="12.7799195"><ele>776.0</ele><time>2026-04-26T17:46:17.189Z</time></trkpt><trkpt lat="46.437311" lon="12.7799962"><ele>776.0</ele><time>2026-04-26T17:46:18.194Z</time></trkpt><trkpt lat="46.4372276" lon="12.7800117"><ele>776.0</ele><time>2026-04-26T17:46:19.191Z</time></trkpt><trkpt lat="46.43715" lon="12.780006"><ele>776.0</ele><time>2026-04-26T17:46:20.189Z</time></trkpt><trkpt lat="46.437034" lon="12.779969"><ele>776.0</ele><time>2026-04-26T17:46:21.186Z</time></trkpt><trkpt lat="46.4369097" lon="12.7799199"><ele>776.8</ele><time>2026-04-26T17:46:22.19Z</time></trkpt><trkpt lat="46.4368076" lon="12.7798858"><ele>777.5999999999999</ele><time>2026-04-26T17:46:23.195Z</time></trkpt><trkpt lat="46.4367142" lon="12.7798642"><ele>778.4</ele><time>2026-04-26T17:46:24.19Z</time></trkpt><trkpt lat="46.4366229" lon="12.7798759"><ele>779.2</ele><time>2026-04-26T17:46:25.194Z</time></trkpt><trkpt lat="46.43654" lon="12.779941"><ele>780.0</ele><time>2026-04-26T17:46:26.194Z</time></trkpt><trkpt lat="46.4364562" lon="12.7800253"><ele>780.0</ele><time>2026-04-26T17:46:27.191Z</time></trkpt><trkpt lat="46.4363666" lon="12.7800779"><ele>780.0</ele><time>2026-04-26T17:46:28.182Z</time></trkpt><trkpt lat="46.4362607" lon="12.7800812"><ele>780.0</ele><time>2026-04-26T17:46:29.192Z</time></trkpt><trkpt lat="46.4361503" lon="12.7800618"><ele>780.0</ele><time>2026-04-26T17:46:30.188Z</time></trkpt><trkpt lat="46.4360437" lon="12.7800349"><ele>780.0</ele><time>2026-04-26T17:46:31.193Z</time></trkpt><trkpt lat="46.4359264" lon="12.7799726"><ele>776.25</ele><time>2026-04-26T17:46:32.189Z</time></trkpt><trkpt lat="46.4358254" lon="12.7798799"><ele>772.5</ele><time>2026-04-26T17:46:33.194Z</time></trkpt><trkpt lat="46.435726" lon="12.779777"><ele>768.75</ele><time>2026-04-26T17:46:34.187Z</time></trkpt><trkpt lat="46.4356139" lon="12.7796785"><ele>765.0</ele><time>2026-04-26T17:46:35.189Z</time></trkpt><trkpt lat="46.435499" lon="12.7795776"><ele>766.75</ele><time>2026-04-26T17:46:36.188Z</time></trkpt><trkpt lat="46.4353927" lon="12.7794718"><ele>768.5</ele><time>2026-04-26T17:46:37.191Z</time></trkpt><trkpt lat="46.4352876" lon="12.7794021"><ele>770.25</ele><time>2026-04-26T17:46:38.188Z</time></trkpt><trkpt lat="46.435183" lon="12.7793321"><ele>772.0</ele><time>2026-04-26T17:46:39.188Z</time></trkpt><trkpt lat="46.4350623" lon="12.7792845"><ele>772.0</ele><time>2026-04-26T17:46:40.187Z</time></trkpt><trkpt lat="46.434912" lon="12.779279"><ele>772.0</ele><time>2026-04-26T17:46:41.188Z</time></trkpt><trkpt lat="46.4347534" lon="12.7793127"><ele>772.0</ele><time>2026-04-26T17:46:42.195Z</time></trkpt><trkpt lat="46.4346047" lon="12.7793511"><ele>764.25</ele><time>2026-04-26T17:46:43.191Z</time></trkpt><trkpt lat="46.4344582" lon="12.7793844"><ele>756.5</ele><time>2026-04-26T17:46:44.204Z</time></trkpt><trkpt lat="46.4343324" lon="12.7794289"><ele>748.75</ele><time>2026-04-26T17:46:45.193Z</time></trkpt><trkpt lat="46.4342207" lon="12.7794602"><ele>741.0</ele><time>2026-04-26T17:46:46.192Z</time></trkpt><trkpt lat="46.4341306" lon="12.7794823"><ele>741.0</ele><time>2026-04-26T17:46:47.192Z</time></trkpt><trkpt lat="46.4340532" lon="12.7794712"><ele>741.0</ele><time>2026-04-26T17:46:48.189Z</time></trkpt><trkpt lat="46.4339733" lon="12.779419"><ele>741.0</ele><time>2026-04-26T17:46:49.204Z</time></trkpt><trkpt lat="46.4338834" lon="12.7793312"><ele>741.0</ele><time>2026-04-26T17:46:50.191Z</time></trkpt><trkpt lat="46.4337778" lon="12.7792599"><ele>741.0</ele><time>2026-04-26T17:46:51.193Z</time></trkpt><trkpt lat="46.4336855" lon="12.779203"><ele>742.0</ele><time>2026-04-26T17:46:52.189Z</time></trkpt><trkpt lat="46.4335943" lon="12.7791822"><ele>743.0</ele><time>2026-04-26T17:46:53.187Z</time></trkpt><trkpt lat="46.4335084" lon="12.7791787"><ele>744.0</ele><time>2026-04-26T17:46:54.193Z</time></trkpt><trkpt lat="46.4334152" lon="12.7791938"><ele>745.0</ele><time>2026-04-26T17:46:55.195Z</time></trkpt><trkpt lat="46.4333122" lon="12.7792088"><ele>746.0</ele><time>2026-04-26T17:46:56.2Z</time></trkpt><trkpt lat="46.4332234" lon="12.7792166"><ele>746.0</ele><time>2026-04-26T17:46:57.196Z</time></trkpt><trkpt lat="46.4331417" lon="12.7792274"><ele>746.0</ele><time>2026-04-26T17:46:58.202Z</time></trkpt><trkpt lat="46.4330937" lon="12.7793793"><ele>746.0</ele><time>2026-04-26T17:47:00.189Z</time></trkpt><trkpt lat="46.433124" lon="12.779467"><ele>746.0</ele><time>2026-04-26T17:47:01.184Z</time></trkpt><trkpt lat="46.433179" lon="12.7795209"><ele>746.0</ele><time>2026-04-26T17:47:02.188Z</time></trkpt><trkpt lat="46.433256" lon="12.7795189"><ele>746.0</ele><time>2026-04-26T17:47:03.194Z</time></trkpt><trkpt lat="46.433346" lon="12.7794661"><ele>741.1999999999999</ele><time>2026-04-26T17:47:04.191Z</time></trkpt><trkpt lat="46.4334283" lon="12.779402"><ele>736.4</ele><time>2026-04-26T17:47:05.185Z</time></trkpt><trkpt lat="46.433504" lon="12.7794021"><ele>731.6</ele><time>2026-04-26T17:47:06.19Z</time></trkpt><trkpt lat="46.4335813" lon="12.7794662"><ele>726.8</ele><time>2026-04-26T17:47:07.187Z</time></trkpt><trkpt lat="46.4336696" lon="12.7795493"><ele>722.0</ele><time>2026-04-26T17:47:08.194Z</time></trkpt><trkpt lat="46.4337391" lon="12.779639"><ele>722.0</ele><time>2026-04-26T17:47:09.187Z</time></trkpt><trkpt lat="46.4337941" lon="12.7797495"><ele>722.0</ele><time>2026-04-26T17:47:10.194Z</time></trkpt><trkpt lat="46.4338263" lon="12.7798808"><ele>722.0</ele><time>2026-04-26T17:47:11.19Z</time></trkpt><trkpt lat="46.4338485" lon="12.7800168"><ele>722.0</ele><time>2026-04-26T17:47:12.196Z</time></trkpt><trkpt lat="46.4338696" lon="12.7801342"><ele>722.0</ele><time>2026-04-26T17:47:13.195Z</time></trkpt><trkpt lat="46.4339173" lon="12.7802258"><ele>722.0</ele><time>2026-04-26T17:47:14.188Z</time></trkpt><trkpt lat="46.4339817" lon="12.7803008"><ele>722.2</ele><time>2026-04-26T17:47:15.195Z</time></trkpt><trkpt lat="46.4340785" lon="12.7803396"><ele>722.4000000000001</ele><time>2026-04-26T17:47:16.194Z</time></trkpt><trkpt lat="46.4341885" lon="12.7803798"><ele>722.5999999999999</ele><time>2026-04-26T17:47:17.189Z</time></trkpt><trkpt lat="46.4342984" lon="12.7804147"><ele>722.8</ele><time>2026-04-26T17:47:18.195Z</time></trkpt><trkpt lat="46.4344072" lon="12.780419"><ele>723.0</ele><time>2026-04-26T17:47:19.192Z</time></trkpt><trkpt lat="46.4345214" lon="12.7803937"><ele>725.25</ele><time>2026-04-26T17:47:20.195Z</time></trkpt><trkpt lat="46.4346605" lon="12.7803591"><ele>727.5</ele><time>2026-04-26T17:47:21.194Z</time></trkpt><trkpt lat="46.4347972" lon="12.7803557"><ele>729.75</ele><time>2026-04-26T17:47:22.191Z</time></trkpt><trkpt lat="46.434923" lon="12.7803618"><ele>732.0</ele><time>2026-04-26T17:47:23.186Z</time></trkpt><trkpt lat="46.4350426" lon="12.7803751"><ele>732.0</ele><time>2026-04-26T17:47:24.189Z</time></trkpt><trkpt lat="46.4351482" lon="12.7803763"><ele>732.0</ele><time>2026-04-26T17:47:25.195Z</time></trkpt><trkpt lat="46.4352271" lon="12.7803702"><ele>732.0</ele><time>2026-04-26T17:47:26.2Z</time></trkpt><trkpt lat="46.4352915" lon="12.7803616"><ele>732.0</ele><time>2026-04-26T17:47:27.192Z</time></trkpt><trkpt lat="46.4354031" lon="12.7803618"><ele>732.0</ele><time>2026-04-26T17:47:29.195Z</time></trkpt><trkpt lat="46.4354155" lon="12.7804715"><ele>732.0</ele><time>2026-04-26T17:47:31.205Z</time></trkpt><trkpt lat="46.4353673" lon="12.7805326"><ele>732.0</ele><time>2026-04-26T17:47:32.185Z</time></trkpt><trkpt lat="46.4352815" lon="12.7805542"><ele>732.0</ele><time>2026-04-26T17:47:33.187Z</time></trkpt><trkpt lat="46.4351857" lon="12.7805477"><ele>732.0</ele><time>2026-04-26T17:47:34.189Z</time></trkpt><trkpt lat="46.435073" lon="12.7805387"><ele>732.0</ele><time>2026-04-26T17:47:35.187Z</time></trkpt><trkpt lat="46.4349659" lon="12.7805434"><ele>732.0</ele><time>2026-04-26T17:47:36.194Z</time></trkpt><trkpt lat="46.4348739" lon="12.7805757"><ele>732.0</ele><time>2026-04-26T17:47:37.19Z</time></trkpt><trkpt lat="46.4347913" lon="12.7806651"><ele>732.0</ele><time>2026-04-26T17:47:38.194Z</time></trkpt><trkpt lat="46.4347426" lon="12.7807992"><ele>732.0</ele><time>2026-04-26T17:47:39.193Z</time></trkpt><trkpt lat="46.4347206" lon="12.7809676"><ele>732.0</ele><time>2026-04-26T17:47:40.188Z</time></trkpt><trkpt lat="46.4347005" lon="12.7810876"><ele>732.0</ele><time>2026-04-26T17:47:41.194Z</time></trkpt><trkpt lat="46.4346774" lon="12.7811971"><ele>724.75</ele><time>2026-04-26T17:47:42.186Z</time></trkpt><trkpt lat="46.434573" lon="12.7812996"><ele>717.5</ele><time>2026-04-26T17:47:44.19Z</time></trkpt><trkpt lat="46.4344814" lon="12.7812797"><ele>710.25</ele><time>2026-04-26T17:47:45.193Z</time></trkpt><trkpt lat="46.4343777" lon="12.781243"><ele>703.0</ele><time>2026-04-26T17:47:46.187Z</time></trkpt><trkpt lat="46.4342569" lon="12.7811945"><ele>703.0</ele><time>2026-04-26T17:47:47.194Z</time></trkpt><trkpt lat="46.4341347" lon="12.7811426"><ele>703.0</ele><time>2026-04-26T17:47:48.188Z</time></trkpt><trkpt lat="46.4340176" lon="12.7810876"><ele>703.0</ele><time>2026-04-26T17:47:49.194Z</time></trkpt><trkpt lat="46.4339075" lon="12.7810207"><ele>703.0</ele><time>2026-04-26T17:47:50.19Z</time></trkpt><trkpt lat="46.4338149" lon="12.7809474"><ele>703.2</ele><time>2026-04-26T17:47:51.186Z</time></trkpt><trkpt lat="46.4337382" lon="12.7808666"><ele>703.4</ele><time>2026-04-26T17:47:52.192Z</time></trkpt><trkpt lat="46.4336773" lon="12.7808027"><ele>703.6</ele><time>2026-04-26T17:47:53.191Z</time></trkpt><trkpt lat="46.433559" lon="12.7807775"><ele>703.8000000000001</ele><time>2026-04-26T17:47:55.195Z</time></trkpt><trkpt lat="46.4335214" lon="12.7809221"><ele>704.0</ele><time>2026-04-26T17:47:57.187Z</time></trkpt><trkpt lat="46.4336247" lon="12.7810426"><ele>703.8000000000001</ele><time>2026-04-26T17:47:59.197Z</time></trkpt><trkpt lat="46.4337145" lon="12.78109"><ele>703.6</ele><time>2026-04-26T17:48:00.193Z</time></trkpt><trkpt lat="46.4338057" lon="12.7811665"><ele>703.4</ele><time>2026-04-26T17:48:01.195Z</time></trkpt><trkpt lat="46.4339072" lon="12.7812661"><ele>703.2</ele><time>2026-04-26T17:48:02.188Z</time></trkpt><trkpt lat="46.4339911" lon="12.7813869"><ele>703.0</ele><time>2026-04-26T17:48:03.191Z</time></trkpt><trkpt lat="46.4340525" lon="12.7815251"><ele>703.0</ele><time>2026-04-26T17:48:04.191Z</time></trkpt><trkpt lat="46.4341071" lon="12.7816587"><ele>703.0</ele><time>2026-04-26T17:48:05.196Z</time></trkpt><trkpt lat="46.4341834" lon="12.7817589"><ele>703.0</ele><time>2026-04-26T17:48:06.188Z</time></trkpt><trkpt lat="46.4342926" lon="12.7818558"><ele>703.0</ele><time>2026-04-26T17:48:07.193Z</time></trkpt><trkpt lat="46.4344007" lon="12.7819418"><ele>700.4</ele><time>2026-04-26T17:48:08.187Z</time></trkpt><trkpt lat="46.4344976" lon="12.7820162"><ele>697.8</ele><time>2026-04-26T17:48:09.191Z</time></trkpt><trkpt lat="46.4345889" lon="12.7820878"><ele>695.2</ele><time>2026-04-26T17:48:10.183Z</time></trkpt><trkpt lat="46.4346786" lon="12.7821225"><ele>692.6</ele><time>2026-04-26T17:48:11.193Z</time></trkpt><trkpt lat="46.4347595" lon="12.7821199"><ele>690.0</ele><time>2026-04-26T17:48:12.192Z</time></trkpt><trkpt lat="46.434837" lon="12.78209"><ele>690.0</ele><time>2026-04-26T17:48:13.187Z</time></trkpt><trkpt lat="46.4349201" lon="12.7820558"><ele>690.0</ele><time>2026-04-26T17:48:14.188Z</time></trkpt><trkpt lat="46.4349953" lon="12.7819694"><ele>690.0</ele><time>2026-04-26T17:48:15.191Z</time></trkpt><trkpt lat="46.4350815" lon="12.7818931"><ele>690.0</ele><time>2026-04-26T17:48:16.199Z</time></trkpt><trkpt lat="46.4351827" lon="12.7818598"><ele>690.0</ele><time>2026-04-26T17:48:17.192Z</time></trkpt><trkpt lat="46.4352964" lon="12.7818581"><ele>690.0</ele><time>2026-04-26T17:48:18.19Z</time></trkpt><trkpt lat="46.4354196" lon="12.7818764"><ele>690.0</ele><time>2026-04-26T17:48:19.195Z</time></trkpt><trkpt lat="46.4355643" lon="12.7819029"><ele>690.0</ele><time>2026-04-26T17:48:20.186Z</time></trkpt><trkpt lat="46.4357091" lon="12.7819444"><ele>690.0</ele><time>2026-04-26T17:48:21.199Z</time></trkpt><trkpt lat="46.4358483" lon="12.7819744"><ele>688.25</ele><time>2026-04-26T17:48:22.193Z</time></trkpt><trkpt lat="46.4359759" lon="12.7820082"><ele>686.5</ele><time>2026-04-26T17:48:23.19Z</time></trkpt><trkpt lat="46.4361097" lon="12.7820656"><ele>684.75</ele><time>2026-04-26T17:48:24.189Z</time></trkpt><trkpt lat="46.4362485" lon="12.7821459"><ele>683.0</ele><time>2026-04-26T17:48:25.186Z</time></trkpt><trkpt lat="46.4363797" lon="12.78223"><ele>682.25</ele><time>2026-04-26T17:48:26.188Z</time></trkpt><trkpt lat="46.4365119" lon="12.7823215"><ele>681.5</ele><time>2026-04-26T17:48:27.19Z</time></trkpt><trkpt lat="46.4366155" lon="12.7824004"><ele>680.75</ele><time>2026-04-26T17:48:28.199Z</time></trkpt><trkpt lat="46.4367108" lon="12.7824671"><ele>680.0</ele><time>2026-04-26T17:48:29.194Z</time></trkpt><trkpt lat="46.4368148" lon="12.7825281"><ele>680.0</ele><time>2026-04-26T17:48:30.186Z</time></trkpt><trkpt lat="46.4369205" lon="12.7825617"><ele>680.0</ele><time>2026-04-26T17:48:31.19Z</time></trkpt><trkpt lat="46.4370222" lon="12.7825804"><ele>680.0</ele><time>2026-04-26T17:48:32.19Z</time></trkpt><trkpt lat="46.4371163" lon="12.7825713"><ele>680.0</ele><time>2026-04-26T17:48:33.192Z</time></trkpt><trkpt lat="46.437187" lon="12.7825304"><ele>680.0</ele><time>2026-04-26T17:48:34.188Z</time></trkpt><trkpt lat="46.4372591" lon="12.7824506"><ele>678.6</ele><time>2026-04-26T17:48:35.185Z</time></trkpt><trkpt lat="46.4373181" lon="12.7823684"><ele>677.2</ele><time>2026-04-26T17:48:36.192Z</time></trkpt><trkpt lat="46.4373702" lon="12.7823011"><ele>675.8</ele><time>2026-04-26T17:48:37.184Z</time></trkpt><trkpt lat="46.4374433" lon="12.7823696"><ele>674.4</ele><time>2026-04-26T17:48:40.182Z</time></trkpt><trkpt lat="46.4373512" lon="12.7824958"><ele>673.0</ele><time>2026-04-26T17:48:42.194Z</time></trkpt><trkpt lat="46.4372749" lon="12.7825483"><ele>673.0</ele><time>2026-04-26T17:48:43.188Z</time></trkpt><trkpt lat="46.437186" lon="12.7826074"><ele>673.0</ele><time>2026-04-26T17:48:44.192Z</time></trkpt><trkpt lat="46.4370959" lon="12.7826813"><ele>673.0</ele><time>2026-04-26T17:48:45.194Z</time></trkpt><trkpt lat="46.4369953" lon="12.7827331"><ele>673.0</ele><time>2026-04-26T17:48:46.194Z</time></trkpt><trkpt lat="46.4368736" lon="12.7827624"><ele>673.0</ele><time>2026-04-26T17:48:47.191Z</time></trkpt><trkpt lat="46.4367478" lon="12.7827711"><ele>665.0</ele><time>2026-04-26T17:48:48.191Z</time></trkpt><trkpt lat="46.4366188" lon="12.7827911"><ele>657.0</ele><time>2026-04-26T17:48:49.196Z</time></trkpt><trkpt lat="46.4364864" lon="12.7828165"><ele>649.0</ele><time>2026-04-26T17:48:50.196Z</time></trkpt><trkpt lat="46.4161529" lon="12.7881598"><ele>820.0</ele><time>2026-04-26T17:53:25.813Z</time></trkpt><trkpt lat="46.4043803" lon="12.7545982"><ele>820.0</ele><time>2026-04-26T17:57:40.67Z</time></trkpt><trkpt lat="46.4042119" lon="12.7543976"><ele>820.0</ele><time>2026-04-26T17:57:42.033Z</time></trkpt><trkpt lat="46.3951077" lon="12.6773071"><ele>779.0</ele><time>2026-04-26T18:04:17.913Z</time></trkpt><trkpt lat="46.3943265" lon="12.6735375"><ele>771.0</ele><time>2026-04-26T18:04:36.929Z</time></trkpt><trkpt lat="46.39378" lon="12.6701462"><ele>903.0</ele><time>2026-04-26T18:04:52.529Z</time></trkpt><trkpt lat="46.4089767" lon="12.6000014"><ele>899.0</ele><time>2026-04-26T18:10:28.035Z</time></trkpt><trkpt lat="46.4241297" lon="12.5780209"><ele>905.0</ele><time>2026-04-26T18:13:00.059Z</time></trkpt><trkpt lat="46.4251214" lon="12.5764168"><ele>918.0</ele><time>2026-04-26T18:13:11.642Z</time></trkpt><trkpt lat="46.4247971" lon="12.571772"><ele>918.0</ele><time>2026-04-26T18:13:24.701Z</time></trkpt><trkpt lat="46.4249877" lon="12.571424"><ele>918.0</ele><time>2026-04-26T18:13:33.363Z</time></trkpt><trkpt lat="46.424784" lon="12.5729791"><ele>918.0</ele><time>2026-04-26T18:13:40.202Z</time></trkpt><trkpt lat="46.4247745" lon="12.5728694"><ele>918.0</ele><time>2026-04-26T18:14:05.476Z</time></trkpt><trkpt lat="46.424803" lon="12.5727551"><ele>918.0</ele><time>2026-04-26T18:14:07.466Z</time></trkpt><trkpt lat="46.4248078" lon="12.5726352"><ele>918.0</ele><time>2026-04-26T18:14:08.468Z</time></trkpt><trkpt lat="46.4248164" lon="12.5724978"><ele>918.0</ele><time>2026-04-26T18:14:09.461Z</time></trkpt><trkpt lat="46.4248388" lon="12.5723382"><ele>918.0</ele><time>2026-04-26T18:14:10.462Z</time></trkpt><trkpt lat="46.4248406" lon="12.5721667"><ele>918.0</ele><time>2026-04-26T18:14:11.466Z</time></trkpt><trkpt lat="46.4248387" lon="12.5719926"><ele>918.0</ele><time>2026-04-26T18:14:12.47Z</time></trkpt><trkpt lat="46.4387158" lon="12.5428795"><ele>1049.0</ele><time>2026-04-26T18:17:03.892Z</time></trkpt><trkpt lat="46.4443906" lon="12.5388315"><ele>973.0</ele><time>2026-04-26T18:17:43.503Z</time></trkpt><trkpt lat="46.471417" lon="12.4587897"><ele>958.0</ele><time>2026-04-26T18:32:25.837Z</time></trkpt><trkpt lat="46.4709736" lon="12.458243"><ele>973.0</ele><time>2026-04-26T18:32:27.363Z</time></trkpt><trkpt lat="46.471922" lon="12.4587914"><ele>973.0</ele><time>2026-04-26T18:32:38.365Z</time></trkpt><trkpt lat="46.4720392" lon="12.458833"><ele>973.0</ele><time>2026-04-26T18:32:40.059Z</time></trkpt><trkpt lat="46.4934269" lon="12.4526246"><ele>881.5</ele><time>2026-04-26T18:38:35.019Z</time></trkpt><trkpt lat="46.4935124" lon="12.4525883"><ele>790.0</ele><time>2026-04-26T18:38:36.018Z</time></trkpt><trkpt lat="46.5167752" lon="12.4645273"><ele>857.0</ele><time>2026-04-26T18:41:04.997Z</time></trkpt><trkpt lat="46.5493704" lon="12.4477842"><ele>857.0</ele><time>2026-04-26T18:45:38.418Z</time></trkpt></trkseg></trk></gpx>